<?xml version='1.0' encoding='UTF-8'?><gpx version="1.1" creator="JPX - https://github.com/jenetics/jpx" xmlns="http://www.topografix.com/GPX/1/1"><trk><trkseg><trkpt lat="40.8937176" lon="14.287918"><ele>80.0</ele><time>2026-04-09T12:05:13.742Z</time></trkpt><trkpt lat="40.8938664" lon="14.2879172"><ele>80.0</ele><time>2026-04-09T12:05:56.685Z</time></trkpt><trkpt lat="40.8939243" lon="14.2878778"><ele>80.0</ele><time>2026-04-09T12:05:57.685Z</time></trkpt><trkpt lat="40.8939758" lon="14.2877835"><ele>80.0</ele><time>2026-04-09T12:06:01.686Z</time></trkpt><trkpt lat="40.8939735" lon="14.2878701"><ele>80.0</ele><time>2026-04-09T12:06:09.83Z</time></trkpt><trkpt lat="40.8939902" lon="14.2879673"><ele>80.0</ele><time>2026-04-09T12:06:12.752Z</time></trkpt><trkpt lat="40.8940557" lon="14.2881187"><ele>79.83333333333334</ele><time>2026-04-09T12:06:16.812Z</time></trkpt><trkpt lat="40.8940957" lon="14.2882039"><ele>79.66666666666667</ele><time>2026-04-09T12:06:17.718Z</time></trkpt><trkpt lat="40.8941194" lon="14.2882914"><ele>79.5</ele><time>2026-04-09T12:06:19.734Z</time></trkpt><trkpt lat="40.8941454" lon="14.2883998"><ele>79.33333333333333</ele><time>2026-04-09T12:06:21.849Z</time></trkpt><trkpt lat="40.8941803" lon="14.2885025"><ele>79.16666666666666</ele><time>2026-04-09T12:06:23.764Z</time></trkpt><trkpt lat="40.8942458" lon="14.2885766"><ele>79.0</ele><time>2026-04-09T12:06:25.778Z</time></trkpt><trkpt lat="40.8942889" lon="14.2886459"><ele>78.8</ele><time>2026-04-09T12:06:27.793Z</time></trkpt><trkpt lat="40.8943049" lon="14.2887716"><ele>78.60000000000001</ele><time>2026-04-09T12:06:29.708Z</time></trkpt><trkpt lat="40.894327" lon="14.2889008"><ele>78.4</ele><time>2026-04-09T12:06:31.723Z</time></trkpt><trkpt lat="40.8943415" lon="14.2890427"><ele>78.2</ele><time>2026-04-09T12:06:33.738Z</time></trkpt><trkpt lat="40.8944133" lon="14.2891817"><ele>78.0</ele><time>2026-04-09T12:06:34.685Z</time></trkpt><trkpt lat="40.8944467" lon="14.2892983"><ele>78.0</ele><time>2026-04-09T12:06:36.686Z</time></trkpt><trkpt lat="40.8944517" lon="14.28946"><ele>78.0</ele><time>2026-04-09T12:06:38.685Z</time></trkpt><trkpt lat="40.89441" lon="14.2896033"><ele>78.0</ele><time>2026-04-09T12:06:40.686Z</time></trkpt><trkpt lat="40.8943617" lon="14.2897333"><ele>78.0</ele><time>2026-04-09T12:06:42.685Z</time></trkpt><trkpt lat="40.89434" lon="14.289825"><ele>78.0</ele><time>2026-04-09T12:06:43.686Z</time></trkpt><trkpt lat="40.8943" lon="14.2899667"><ele>77.8</ele><time>2026-04-09T12:06:45.685Z</time></trkpt><trkpt lat="40.8942633" lon="14.290095"><ele>77.6</ele><time>2026-04-09T12:06:47.685Z</time></trkpt><trkpt lat="40.8942267" lon="14.2902033"><ele>77.4</ele><time>2026-04-09T12:06:49.686Z</time></trkpt><trkpt lat="40.8942083" lon="14.2903117"><ele>77.2</ele><time>2026-04-09T12:06:51.688Z</time></trkpt><trkpt lat="40.894185" lon="14.2904267"><ele>77.0</ele><time>2026-04-09T12:06:53.697Z</time></trkpt><trkpt lat="40.89417" lon="14.29055"><ele>76.8</ele><time>2026-04-09T12:06:55.689Z</time></trkpt><trkpt lat="40.8941783" lon="14.2906517"><ele>76.6</ele><time>2026-04-09T12:06:57.687Z</time></trkpt><trkpt lat="40.8942267" lon="14.2907683"><ele>76.39999999999999</ele><time>2026-04-09T12:06:59.686Z</time></trkpt><trkpt lat="40.8942883" lon="14.290875"><ele>76.2</ele><time>2026-04-09T12:07:01.687Z</time></trkpt><trkpt lat="40.8943483" lon="14.2909733"><ele>76.0</ele><time>2026-04-09T12:07:03.686Z</time></trkpt><trkpt lat="40.8944117" lon="14.291075"><ele>76.0</ele><time>2026-04-09T12:07:05.687Z</time></trkpt><trkpt lat="40.8944883" lon="14.2911933"><ele>76.0</ele><time>2026-04-09T12:07:07.687Z</time></trkpt><trkpt lat="40.894565" lon="14.2912933"><ele>76.0</ele><time>2026-04-09T12:07:09.685Z</time></trkpt><trkpt lat="40.8946267" lon="14.2914067"><ele>76.0</ele><time>2026-04-09T12:07:11.687Z</time></trkpt><trkpt lat="40.8947" lon="14.2915217"><ele>76.0</ele><time>2026-04-09T12:07:13.687Z</time></trkpt><trkpt lat="40.8947683" lon="14.291635"><ele>76.2</ele><time>2026-04-09T12:07:15.687Z</time></trkpt><trkpt lat="40.89483" lon="14.2917467"><ele>76.39999999999999</ele><time>2026-04-09T12:07:17.687Z</time></trkpt><trkpt lat="40.8948817" lon="14.2918717"><ele>76.6</ele><time>2026-04-09T12:07:19.686Z</time></trkpt><trkpt lat="40.89493" lon="14.2919983"><ele>76.8</ele><time>2026-04-09T12:07:21.686Z</time></trkpt><trkpt lat="40.8949783" lon="14.29211"><ele>77.0</ele><time>2026-04-09T12:07:23.688Z</time></trkpt><trkpt lat="40.8950233" lon="14.2922183"><ele>77.0</ele><time>2026-04-09T12:07:25.687Z</time></trkpt><trkpt lat="40.8950583" lon="14.2922917"><ele>77.0</ele><time>2026-04-09T12:07:27.687Z</time></trkpt><trkpt lat="40.8951233" lon="14.2923517"><ele>77.0</ele><time>2026-04-09T12:07:30.686Z</time></trkpt><trkpt lat="40.8952167" lon="14.2923317"><ele>77.0</ele><time>2026-04-09T12:07:33.688Z</time></trkpt><trkpt lat="40.8952917" lon="14.29233"><ele>77.0</ele><time>2026-04-09T12:07:35.686Z</time></trkpt><trkpt lat="40.8953567" lon="14.29235"><ele>77.0</ele><time>2026-04-09T12:07:37.688Z</time></trkpt><trkpt lat="40.8953917" lon="14.2924283"><ele>77.16666666666667</ele><time>2026-04-09T12:07:39.686Z</time></trkpt><trkpt lat="40.8954033" lon="14.2925333"><ele>77.33333333333334</ele><time>2026-04-09T12:07:41.686Z</time></trkpt><trkpt lat="40.89542" lon="14.292635"><ele>77.5</ele><time>2026-04-09T12:07:43.687Z</time></trkpt><trkpt lat="40.895435" lon="14.2927283"><ele>77.66666666666667</ele><time>2026-04-09T12:07:45.687Z</time></trkpt><trkpt lat="40.8954683" lon="14.2928283"><ele>77.83333333333333</ele><time>2026-04-09T12:07:47.688Z</time></trkpt><trkpt lat="40.89552" lon="14.29294"><ele>78.0</ele><time>2026-04-09T12:07:49.688Z</time></trkpt><trkpt lat="40.8955967" lon="14.29302"><ele>78.0</ele><time>2026-04-09T12:07:51.686Z</time></trkpt><trkpt lat="40.8956667" lon="14.2930183"><ele>78.0</ele><time>2026-04-09T12:07:54.686Z</time></trkpt><trkpt lat="40.8957233" lon="14.2930583"><ele>78.0</ele><time>2026-04-09T12:08:03.688Z</time></trkpt><trkpt lat="40.8957633" lon="14.2929667"><ele>78.0</ele><time>2026-04-09T12:08:08.687Z</time></trkpt><trkpt lat="40.8957967" lon="14.2928633"><ele>78.0</ele><time>2026-04-09T12:08:12.686Z</time></trkpt><trkpt lat="40.8958183" lon="14.2927333"><ele>78.0</ele><time>2026-04-09T12:08:14.685Z</time></trkpt><trkpt lat="40.8957467" lon="14.29269"><ele>78.0</ele><time>2026-04-09T12:08:15.685Z</time></trkpt><trkpt lat="40.895755" lon="14.292595"><ele>78.0</ele><time>2026-04-09T12:08:16.688Z</time></trkpt><trkpt lat="40.895765" lon="14.292485"><ele>78.0</ele><time>2026-04-09T12:08:17.687Z</time></trkpt><trkpt lat="40.8957583" lon="14.2923833"><ele>78.0</ele><time>2026-04-09T12:08:18.685Z</time></trkpt><trkpt lat="40.8957567" lon="14.2922717"><ele>78.0</ele><time>2026-04-09T12:08:19.687Z</time></trkpt><trkpt lat="40.8957533" lon="14.2921467"><ele>78.0</ele><time>2026-04-09T12:08:20.687Z</time></trkpt><trkpt lat="40.8957683" lon="14.292005"><ele>78.0</ele><time>2026-04-09T12:08:21.686Z</time></trkpt><trkpt lat="40.8957817" lon="14.2918717"><ele>78.0</ele><time>2026-04-09T12:08:22.687Z</time></trkpt><trkpt lat="40.8957767" lon="14.2917817"><ele>78.0</ele><time>2026-04-09T12:08:23.688Z</time></trkpt><trkpt lat="40.8957783" lon="14.2916933"><ele>78.0</ele><time>2026-04-09T12:08:24.687Z</time></trkpt><trkpt lat="40.8957717" lon="14.2915983"><ele>78.0</ele><time>2026-04-09T12:08:25.686Z</time></trkpt><trkpt lat="40.89576" lon="14.2915117"><ele>78.0</ele><time>2026-04-09T12:08:26.688Z</time></trkpt><trkpt lat="40.8957267" lon="14.2913667"><ele>78.0</ele><time>2026-04-09T12:08:28.686Z</time></trkpt><trkpt lat="40.895685" lon="14.2912333"><ele>78.0</ele><time>2026-04-09T12:08:30.686Z</time></trkpt><trkpt lat="40.895655" lon="14.291095"><ele>78.0</ele><time>2026-04-09T12:08:32.688Z</time></trkpt><trkpt lat="40.8956483" lon="14.291"><ele>78.0</ele><time>2026-04-09T12:08:33.687Z</time></trkpt><trkpt lat="40.89563" lon="14.290845"><ele>78.0</ele><time>2026-04-09T12:08:35.687Z</time></trkpt><trkpt lat="40.8956133" lon="14.2906883"><ele>77.75</ele><time>2026-04-09T12:08:37.688Z</time></trkpt><trkpt lat="40.8955967" lon="14.290525"><ele>77.5</ele><time>2026-04-09T12:08:39.687Z</time></trkpt><trkpt lat="40.8955733" lon="14.2903667"><ele>77.25</ele><time>2026-04-09T12:08:41.687Z</time></trkpt><trkpt lat="40.89555" lon="14.29021"><ele>77.0</ele><time>2026-04-09T12:08:43.688Z</time></trkpt><trkpt lat="40.8955317" lon="14.2900517"><ele>77.0</ele><time>2026-04-09T12:08:45.687Z</time></trkpt><trkpt lat="40.895515" lon="14.2898983"><ele>77.0</ele><time>2026-04-09T12:08:47.687Z</time></trkpt><trkpt lat="40.8955" lon="14.2897417"><ele>77.0</ele><time>2026-04-09T12:08:49.687Z</time></trkpt><trkpt lat="40.8954917" lon="14.2895833"><ele>77.0</ele><time>2026-04-09T12:08:51.685Z</time></trkpt><trkpt lat="40.89548" lon="14.2894233"><ele>77.0</ele><time>2026-04-09T12:08:53.688Z</time></trkpt><trkpt lat="40.8954633" lon="14.2892683"><ele>77.0</ele><time>2026-04-09T12:08:55.687Z</time></trkpt><trkpt lat="40.8954467" lon="14.2891117"><ele>77.0</ele><time>2026-04-09T12:08:57.687Z</time></trkpt><trkpt lat="40.89543" lon="14.288955"><ele>77.0</ele><time>2026-04-09T12:08:59.687Z</time></trkpt><trkpt lat="40.8954117" lon="14.2888033"><ele>77.0</ele><time>2026-04-09T12:09:01.687Z</time></trkpt><trkpt lat="40.8953967" lon="14.2886733"><ele>77.0</ele><time>2026-04-09T12:09:03.687Z</time></trkpt><trkpt lat="40.8953833" lon="14.288545"><ele>77.0</ele><time>2026-04-09T12:09:05.688Z</time></trkpt><trkpt lat="40.895365" lon="14.2884183"><ele>77.0</ele><time>2026-04-09T12:09:07.687Z</time></trkpt><trkpt lat="40.8953467" lon="14.2882933"><ele>77.0</ele><time>2026-04-09T12:09:09.688Z</time></trkpt><trkpt lat="40.8953283" lon="14.28817"><ele>76.83333333333334</ele><time>2026-04-09T12:09:11.686Z</time></trkpt><trkpt lat="40.8953117" lon="14.2880483"><ele>76.66666666666667</ele><time>2026-04-09T12:09:13.687Z</time></trkpt><trkpt lat="40.895295" lon="14.2879367"><ele>76.5</ele><time>2026-04-09T12:09:15.687Z</time></trkpt><trkpt lat="40.8952767" lon="14.2878283"><ele>76.33333333333333</ele><time>2026-04-09T12:09:17.687Z</time></trkpt><trkpt lat="40.89526" lon="14.2877117"><ele>76.16666666666666</ele><time>2026-04-09T12:09:19.687Z</time></trkpt><trkpt lat="40.8952467" lon="14.287605"><ele>76.0</ele><time>2026-04-09T12:09:21.688Z</time></trkpt><trkpt lat="40.8952367" lon="14.2874867"><ele>76.0</ele><time>2026-04-09T12:09:23.686Z</time></trkpt><trkpt lat="40.8952233" lon="14.287365"><ele>76.0</ele><time>2026-04-09T12:09:25.687Z</time></trkpt><trkpt lat="40.89521" lon="14.2872383"><ele>76.0</ele><time>2026-04-09T12:09:27.687Z</time></trkpt><trkpt lat="40.895195" lon="14.2871167"><ele>76.0</ele><time>2026-04-09T12:09:29.687Z</time></trkpt><trkpt lat="40.8951833" lon="14.2869933"><ele>76.0</ele><time>2026-04-09T12:09:31.688Z</time></trkpt><trkpt lat="40.8951717" lon="14.286875"><ele>76.39999999999999</ele><time>2026-04-09T12:09:33.686Z</time></trkpt><trkpt lat="40.8951567" lon="14.2867583"><ele>76.8</ele><time>2026-04-09T12:09:35.688Z</time></trkpt><trkpt lat="40.8951467" lon="14.2866383"><ele>77.19999999999999</ele><time>2026-04-09T12:09:37.687Z</time></trkpt><trkpt lat="40.89514" lon="14.28652"><ele>77.6</ele><time>2026-04-09T12:09:39.685Z</time></trkpt><trkpt lat="40.8951283" lon="14.2863983"><ele>78.0</ele><time>2026-04-09T12:09:41.69Z</time></trkpt><trkpt lat="40.8951183" lon="14.2862733"><ele>78.0</ele><time>2026-04-09T12:09:43.687Z</time></trkpt><trkpt lat="40.8951117" lon="14.2861433"><ele>78.0</ele><time>2026-04-09T12:09:45.687Z</time></trkpt><trkpt lat="40.8951033" lon="14.2860083"><ele>78.0</ele><time>2026-04-09T12:09:47.686Z</time></trkpt><trkpt lat="40.8950983" lon="14.2858717"><ele>78.0</ele><time>2026-04-09T12:09:49.689Z</time></trkpt><trkpt lat="40.8950933" lon="14.2857383"><ele>78.0</ele><time>2026-04-09T12:09:51.687Z</time></trkpt><trkpt lat="40.895095" lon="14.285605"><ele>78.2</ele><time>2026-04-09T12:09:53.686Z</time></trkpt><trkpt lat="40.8950983" lon="14.2854717"><ele>78.4</ele><time>2026-04-09T12:09:55.688Z</time></trkpt><trkpt lat="40.8951033" lon="14.2853367"><ele>78.60000000000001</ele><time>2026-04-09T12:09:57.687Z</time></trkpt><trkpt lat="40.8951083" lon="14.2852017"><ele>78.8</ele><time>2026-04-09T12:09:59.688Z</time></trkpt><trkpt lat="40.8951117" lon="14.2850667"><ele>79.0</ele><time>2026-04-09T12:10:01.687Z</time></trkpt><trkpt lat="40.8951117" lon="14.2849267"><ele>79.0</ele><time>2026-04-09T12:10:03.687Z</time></trkpt><trkpt lat="40.8951117" lon="14.28479"><ele>79.0</ele><time>2026-04-09T12:10:05.687Z</time></trkpt><trkpt lat="40.8951217" lon="14.2846417"><ele>79.0</ele><time>2026-04-09T12:10:07.687Z</time></trkpt><trkpt lat="40.8951317" lon="14.28448"><ele>79.0</ele><time>2026-04-09T12:10:09.687Z</time></trkpt><trkpt lat="40.8951367" lon="14.2843933"><ele>79.0</ele><time>2026-04-09T12:10:10.688Z</time></trkpt><trkpt lat="40.895145" lon="14.284305"><ele>79.42857142857143</ele><time>2026-04-09T12:10:11.688Z</time></trkpt><trkpt lat="40.895155" lon="14.2842167"><ele>79.85714285714286</ele><time>2026-04-09T12:10:12.687Z</time></trkpt><trkpt lat="40.89517" lon="14.2841333"><ele>80.28571428571428</ele><time>2026-04-09T12:10:13.688Z</time></trkpt><trkpt lat="40.89519" lon="14.28405"><ele>80.71428571428572</ele><time>2026-04-09T12:10:14.688Z</time></trkpt><trkpt lat="40.895215" lon="14.28397"><ele>81.14285714285714</ele><time>2026-04-09T12:10:15.687Z</time></trkpt><trkpt lat="40.8952417" lon="14.2838933"><ele>81.57142857142857</ele><time>2026-04-09T12:10:16.687Z</time></trkpt><trkpt lat="40.8952667" lon="14.2838133"><ele>82.0</ele><time>2026-04-09T12:10:17.688Z</time></trkpt><trkpt lat="40.895295" lon="14.2837317"><ele>81.99999999999999</ele><time>2026-04-09T12:10:18.688Z</time></trkpt><trkpt lat="40.8953217" lon="14.2836467"><ele>82.0</ele><time>2026-04-09T12:10:19.687Z</time></trkpt><trkpt lat="40.8953483" lon="14.28356"><ele>82.0</ele><time>2026-04-09T12:10:20.687Z</time></trkpt><trkpt lat="40.895375" lon="14.283475"><ele>82.0</ele><time>2026-04-09T12:10:21.687Z</time></trkpt><trkpt lat="40.8954033" lon="14.2833917"><ele>82.0</ele><time>2026-04-09T12:10:22.687Z</time></trkpt><trkpt lat="40.8954317" lon="14.2833117"><ele>81.99999999999999</ele><time>2026-04-09T12:10:23.688Z</time></trkpt><trkpt lat="40.8954633" lon="14.2832333"><ele>82.0</ele><time>2026-04-09T12:10:24.687Z</time></trkpt><trkpt lat="40.8954983" lon="14.28316"><ele>81.66666666666666</ele><time>2026-04-09T12:10:25.687Z</time></trkpt><trkpt lat="40.8955333" lon="14.2830883"><ele>81.33333333333333</ele><time>2026-04-09T12:10:26.687Z</time></trkpt><trkpt lat="40.8955717" lon="14.2830183"><ele>81.0</ele><time>2026-04-09T12:10:27.687Z</time></trkpt><trkpt lat="40.8956083" lon="14.2829467"><ele>80.66666666666667</ele><time>2026-04-09T12:10:28.687Z</time></trkpt><trkpt lat="40.8956717" lon="14.282805"><ele>80.33333333333334</ele><time>2026-04-09T12:10:30.687Z</time></trkpt><trkpt lat="40.8957367" lon="14.2826633"><ele>80.0</ele><time>2026-04-09T12:10:32.687Z</time></trkpt><trkpt lat="40.895805" lon="14.2825233"><ele>80.0</ele><time>2026-04-09T12:10:34.688Z</time></trkpt><trkpt lat="40.8958417" lon="14.282455"><ele>80.0</ele><time>2026-04-09T12:10:35.688Z</time></trkpt><trkpt lat="40.8959117" lon="14.28233"><ele>80.0</ele><time>2026-04-09T12:10:37.69Z</time></trkpt><trkpt lat="40.8959817" lon="14.2822067"><ele>80.0</ele><time>2026-04-09T12:10:39.688Z</time></trkpt><trkpt lat="40.8960233" lon="14.28214"><ele>80.0</ele><time>2026-04-09T12:10:40.687Z</time></trkpt><trkpt lat="40.8960633" lon="14.2820733"><ele>80.0</ele><time>2026-04-09T12:10:41.686Z</time></trkpt><trkpt lat="40.8961333" lon="14.28194"><ele>80.8</ele><time>2026-04-09T12:10:43.687Z</time></trkpt><trkpt lat="40.896205" lon="14.2818067"><ele>81.6</ele><time>2026-04-09T12:10:45.687Z</time></trkpt><trkpt lat="40.8962433" lon="14.28174"><ele>82.4</ele><time>2026-04-09T12:10:46.687Z</time></trkpt><trkpt lat="40.896315" lon="14.281605"><ele>83.2</ele><time>2026-04-09T12:10:48.689Z</time></trkpt><trkpt lat="40.89635" lon="14.281535"><ele>84.0</ele><time>2026-04-09T12:10:49.687Z</time></trkpt><trkpt lat="40.8964167" lon="14.2814033"><ele>84.0</ele><time>2026-04-09T12:10:51.687Z</time></trkpt><trkpt lat="40.8964867" lon="14.2812717"><ele>84.0</ele><time>2026-04-09T12:10:53.688Z</time></trkpt><trkpt lat="40.8965567" lon="14.2811417"><ele>84.0</ele><time>2026-04-09T12:10:55.688Z</time></trkpt><trkpt lat="40.896595" lon="14.281075"><ele>84.0</ele><time>2026-04-09T12:10:56.686Z</time></trkpt><trkpt lat="40.8966333" lon="14.2810083"><ele>84.0</ele><time>2026-04-09T12:10:57.687Z</time></trkpt><trkpt lat="40.8966717" lon="14.2809417"><ele>84.0</ele><time>2026-04-09T12:10:58.686Z</time></trkpt><trkpt lat="40.8967483" lon="14.2808117"><ele>84.0</ele><time>2026-04-09T12:11:00.687Z</time></trkpt><trkpt lat="40.8968217" lon="14.280675"><ele>84.0</ele><time>2026-04-09T12:11:02.687Z</time></trkpt><trkpt lat="40.8968917" lon="14.2805433"><ele>84.0</ele><time>2026-04-09T12:11:04.687Z</time></trkpt><trkpt lat="40.89696" lon="14.2804133"><ele>84.0</ele><time>2026-04-09T12:11:06.687Z</time></trkpt><trkpt lat="40.89703" lon="14.2802767"><ele>84.0</ele><time>2026-04-09T12:11:08.687Z</time></trkpt><trkpt lat="40.8970933" lon="14.2801367"><ele>84.0</ele><time>2026-04-09T12:11:10.687Z</time></trkpt><trkpt lat="40.897125" lon="14.2800617"><ele>84.0</ele><time>2026-04-09T12:11:11.687Z</time></trkpt><trkpt lat="40.8971533" lon="14.279985"><ele>84.0</ele><time>2026-04-09T12:11:12.688Z</time></trkpt><trkpt lat="40.8971817" lon="14.2799067"><ele>84.0</ele><time>2026-04-09T12:11:13.687Z</time></trkpt><trkpt lat="40.8972067" lon="14.2798233"><ele>84.0</ele><time>2026-04-09T12:11:14.689Z</time></trkpt><trkpt lat="40.8972283" lon="14.2797367"><ele>84.0</ele><time>2026-04-09T12:11:15.687Z</time></trkpt><trkpt lat="40.8972483" lon="14.2796517"><ele>84.0</ele><time>2026-04-09T12:11:16.686Z</time></trkpt><trkpt lat="40.8972633" lon="14.2795667"><ele>84.0</ele><time>2026-04-09T12:11:17.688Z</time></trkpt><trkpt lat="40.8972767" lon="14.2794817"><ele>84.0</ele><time>2026-04-09T12:11:18.687Z</time></trkpt><trkpt lat="40.8972917" lon="14.279395"><ele>84.0</ele><time>2026-04-09T12:11:19.688Z</time></trkpt><trkpt lat="40.897305" lon="14.2793067"><ele>84.0</ele><time>2026-04-09T12:11:20.689Z</time></trkpt><trkpt lat="40.8973167" lon="14.2792167"><ele>84.0</ele><time>2026-04-09T12:11:21.687Z</time></trkpt><trkpt lat="40.897325" lon="14.2791267"><ele>84.0</ele><time>2026-04-09T12:11:22.688Z</time></trkpt><trkpt lat="40.8973333" lon="14.2790383"><ele>84.0</ele><time>2026-04-09T12:11:23.689Z</time></trkpt><trkpt lat="40.89734" lon="14.27895"><ele>84.0</ele><time>2026-04-09T12:11:24.688Z</time></trkpt><trkpt lat="40.897345" lon="14.2788617"><ele>84.0</ele><time>2026-04-09T12:11:25.689Z</time></trkpt><trkpt lat="40.89735" lon="14.2787683"><ele>84.0</ele><time>2026-04-09T12:11:26.686Z</time></trkpt><trkpt lat="40.8973517" lon="14.2786767"><ele>84.0</ele><time>2026-04-09T12:11:27.687Z</time></trkpt><trkpt lat="40.8973517" lon="14.278585"><ele>84.0</ele><time>2026-04-09T12:11:28.689Z</time></trkpt><trkpt lat="40.8973533" lon="14.2784933"><ele>84.14285714285714</ele><time>2026-04-09T12:11:29.685Z</time></trkpt><trkpt lat="40.8973517" lon="14.2784017"><ele>84.28571428571428</ele><time>2026-04-09T12:11:30.688Z</time></trkpt><trkpt lat="40.89735" lon="14.2783117"><ele>84.42857142857143</ele><time>2026-04-09T12:11:31.687Z</time></trkpt><trkpt lat="40.8973483" lon="14.2782217"><ele>84.57142857142857</ele><time>2026-04-09T12:11:32.685Z</time></trkpt><trkpt lat="40.8973483" lon="14.27813"><ele>84.71428571428571</ele><time>2026-04-09T12:11:33.689Z</time></trkpt><trkpt lat="40.8973467" lon="14.27804"><ele>84.85714285714286</ele><time>2026-04-09T12:11:34.685Z</time></trkpt><trkpt lat="40.8973433" lon="14.2779483"><ele>85.0</ele><time>2026-04-09T12:11:35.687Z</time></trkpt><trkpt lat="40.8973417" lon="14.2778567"><ele>85.0</ele><time>2026-04-09T12:11:36.687Z</time></trkpt><trkpt lat="40.89734" lon="14.277765"><ele>85.0</ele><time>2026-04-09T12:11:37.687Z</time></trkpt><trkpt lat="40.89734" lon="14.2776733"><ele>85.0</ele><time>2026-04-09T12:11:38.687Z</time></trkpt><trkpt lat="40.8973383" lon="14.27758"><ele>85.0</ele><time>2026-04-09T12:11:39.687Z</time></trkpt><trkpt lat="40.8973383" lon="14.27749"><ele>85.0</ele><time>2026-04-09T12:11:40.685Z</time></trkpt><trkpt lat="40.8973367" lon="14.2773983"><ele>85.0</ele><time>2026-04-09T12:11:41.687Z</time></trkpt><trkpt lat="40.8973367" lon="14.27731"><ele>85.0</ele><time>2026-04-09T12:11:42.687Z</time></trkpt><trkpt lat="40.8973333" lon="14.27722"><ele>85.14285714285715</ele><time>2026-04-09T12:11:43.69Z</time></trkpt><trkpt lat="40.89733" lon="14.2771267"><ele>85.28571428571428</ele><time>2026-04-09T12:11:44.687Z</time></trkpt><trkpt lat="40.8973317" lon="14.2770367"><ele>85.42857142857143</ele><time>2026-04-09T12:11:45.686Z</time></trkpt><trkpt lat="40.8973317" lon="14.2769467"><ele>85.57142857142858</ele><time>2026-04-09T12:11:46.689Z</time></trkpt><trkpt lat="40.8973333" lon="14.2768567"><ele>85.71428571428572</ele><time>2026-04-09T12:11:47.689Z</time></trkpt><trkpt lat="40.8973333" lon="14.2767633"><ele>85.85714285714286</ele><time>2026-04-09T12:11:48.689Z</time></trkpt><trkpt lat="40.8973333" lon="14.2766683"><ele>86.0</ele><time>2026-04-09T12:11:49.689Z</time></trkpt><trkpt lat="40.8973333" lon="14.2765767"><ele>86.00000000000001</ele><time>2026-04-09T12:11:50.688Z</time></trkpt><trkpt lat="40.8973333" lon="14.2764867"><ele>86.0</ele><time>2026-04-09T12:11:51.685Z</time></trkpt><trkpt lat="40.8973317" lon="14.2763983"><ele>86.0</ele><time>2026-04-09T12:11:52.688Z</time></trkpt><trkpt lat="40.8973317" lon="14.2763067"><ele>86.0</ele><time>2026-04-09T12:11:53.687Z</time></trkpt><trkpt lat="40.8973317" lon="14.2762167"><ele>86.0</ele><time>2026-04-09T12:11:54.687Z</time></trkpt><trkpt lat="40.897335" lon="14.2761267"><ele>86.00000000000001</ele><time>2026-04-09T12:11:55.687Z</time></trkpt><trkpt lat="40.897335" lon="14.2760367"><ele>86.0</ele><time>2026-04-09T12:11:56.686Z</time></trkpt><trkpt lat="40.8973367" lon="14.27595"><ele>86.14285714285715</ele><time>2026-04-09T12:11:57.687Z</time></trkpt><trkpt lat="40.8973367" lon="14.2758617"><ele>86.28571428571429</ele><time>2026-04-09T12:11:58.688Z</time></trkpt><trkpt lat="40.8973367" lon="14.2757683"><ele>86.42857142857143</ele><time>2026-04-09T12:11:59.687Z</time></trkpt><trkpt lat="40.8973383" lon="14.2756767"><ele>86.57142857142858</ele><time>2026-04-09T12:12:00.687Z</time></trkpt><trkpt lat="40.8973383" lon="14.2755833"><ele>86.71428571428572</ele><time>2026-04-09T12:12:01.686Z</time></trkpt><trkpt lat="40.89734" lon="14.27549"><ele>86.85714285714286</ele><time>2026-04-09T12:12:02.686Z</time></trkpt><trkpt lat="40.89734" lon="14.275395"><ele>87.0</ele><time>2026-04-09T12:12:03.687Z</time></trkpt><trkpt lat="40.8973417" lon="14.2753017"><ele>87.71428571428571</ele><time>2026-04-09T12:12:04.687Z</time></trkpt><trkpt lat="40.8973417" lon="14.2752067"><ele>88.42857142857143</ele><time>2026-04-09T12:12:05.687Z</time></trkpt><trkpt lat="40.8973433" lon="14.2751117"><ele>89.14285714285714</ele><time>2026-04-09T12:12:06.687Z</time></trkpt><trkpt lat="40.8973433" lon="14.2750167"><ele>89.85714285714286</ele><time>2026-04-09T12:12:07.687Z</time></trkpt><trkpt lat="40.8973433" lon="14.2749183"><ele>90.57142857142857</ele><time>2026-04-09T12:12:08.687Z</time></trkpt><trkpt lat="40.89734" lon="14.27482"><ele>91.28571428571429</ele><time>2026-04-09T12:12:09.686Z</time></trkpt><trkpt lat="40.8973383" lon="14.2747233"><ele>92.0</ele><time>2026-04-09T12:12:10.687Z</time></trkpt><trkpt lat="40.89734" lon="14.274625"><ele>92.57142857142857</ele><time>2026-04-09T12:12:11.688Z</time></trkpt><trkpt lat="40.8973417" lon="14.2745267"><ele>93.14285714285714</ele><time>2026-04-09T12:12:12.687Z</time></trkpt><trkpt lat="40.8973383" lon="14.2744317"><ele>93.71428571428571</ele><time>2026-04-09T12:12:13.688Z</time></trkpt><trkpt lat="40.897335" lon="14.2743317"><ele>94.28571428571428</ele><time>2026-04-09T12:12:14.687Z</time></trkpt><trkpt lat="40.8973367" lon="14.2742317"><ele>94.85714285714286</ele><time>2026-04-09T12:12:15.687Z</time></trkpt><trkpt lat="40.897335" lon="14.274135"><ele>95.42857142857142</ele><time>2026-04-09T12:12:16.687Z</time></trkpt><trkpt lat="40.8973333" lon="14.2740383"><ele>96.0</ele><time>2026-04-09T12:12:17.688Z</time></trkpt><trkpt lat="40.8973317" lon="14.2739417"><ele>95.71428571428571</ele><time>2026-04-09T12:12:18.686Z</time></trkpt><trkpt lat="40.8973283" lon="14.2738467"><ele>95.42857142857143</ele><time>2026-04-09T12:12:19.687Z</time></trkpt><trkpt lat="40.8973283" lon="14.2737533"><ele>95.14285714285714</ele><time>2026-04-09T12:12:20.687Z</time></trkpt><trkpt lat="40.89733" lon="14.27366"><ele>94.85714285714286</ele><time>2026-04-09T12:12:21.686Z</time></trkpt><trkpt lat="40.89733" lon="14.2735667"><ele>94.57142857142857</ele><time>2026-04-09T12:12:22.687Z</time></trkpt><trkpt lat="40.89733" lon="14.273475"><ele>94.28571428571428</ele><time>2026-04-09T12:12:23.686Z</time></trkpt><trkpt lat="40.8973333" lon="14.2733833"><ele>94.0</ele><time>2026-04-09T12:12:24.687Z</time></trkpt><trkpt lat="40.8973367" lon="14.27329"><ele>94.0</ele><time>2026-04-09T12:12:25.688Z</time></trkpt><trkpt lat="40.8973383" lon="14.273195"><ele>94.0</ele><time>2026-04-09T12:12:26.688Z</time></trkpt><trkpt lat="40.8973433" lon="14.2731"><ele>94.0</ele><time>2026-04-09T12:12:27.685Z</time></trkpt><trkpt lat="40.8973533" lon="14.2730017"><ele>94.0</ele><time>2026-04-09T12:12:28.687Z</time></trkpt><trkpt lat="40.8973633" lon="14.272905"><ele>94.0</ele><time>2026-04-09T12:12:29.687Z</time></trkpt><trkpt lat="40.8973683" lon="14.27281"><ele>94.0</ele><time>2026-04-09T12:12:30.687Z</time></trkpt><trkpt lat="40.897375" lon="14.27271"><ele>94.0</ele><time>2026-04-09T12:12:31.688Z</time></trkpt><trkpt lat="40.8973833" lon="14.2726117"><ele>93.57142857142857</ele><time>2026-04-09T12:12:32.687Z</time></trkpt><trkpt lat="40.8973933" lon="14.2725133"><ele>93.14285714285714</ele><time>2026-04-09T12:12:33.687Z</time></trkpt><trkpt lat="40.8974033" lon="14.2724217"><ele>92.71428571428572</ele><time>2026-04-09T12:12:34.687Z</time></trkpt><trkpt lat="40.8974117" lon="14.2723317"><ele>92.28571428571428</ele><time>2026-04-09T12:12:35.686Z</time></trkpt><trkpt lat="40.8974267" lon="14.272245"><ele>91.85714285714286</ele><time>2026-04-09T12:12:36.686Z</time></trkpt><trkpt lat="40.89745" lon="14.2721617"><ele>91.42857142857143</ele><time>2026-04-09T12:12:37.687Z</time></trkpt><trkpt lat="40.897475" lon="14.2720817"><ele>91.0</ele><time>2026-04-09T12:12:38.687Z</time></trkpt><trkpt lat="40.8974983" lon="14.272"><ele>91.0</ele><time>2026-04-09T12:12:39.686Z</time></trkpt><trkpt lat="40.8975233" lon="14.2719217"><ele>91.0</ele><time>2026-04-09T12:12:40.687Z</time></trkpt><trkpt lat="40.8975567" lon="14.2718483"><ele>91.0</ele><time>2026-04-09T12:12:41.686Z</time></trkpt><trkpt lat="40.897635" lon="14.2717217"><ele>91.0</ele><time>2026-04-09T12:12:43.687Z</time></trkpt><trkpt lat="40.8977283" lon="14.2716183"><ele>91.0</ele><time>2026-04-09T12:12:45.685Z</time></trkpt><trkpt lat="40.8977933" lon="14.27147"><ele>91.0</ele><time>2026-04-09T12:12:47.687Z</time></trkpt><trkpt lat="40.8978133" lon="14.271385"><ele>91.0</ele><time>2026-04-09T12:12:48.687Z</time></trkpt><trkpt lat="40.8978283" lon="14.2713033"><ele>91.0</ele><time>2026-04-09T12:12:49.689Z</time></trkpt><trkpt lat="40.8978433" lon="14.2712167"><ele>91.0</ele><time>2026-04-09T12:12:50.687Z</time></trkpt><trkpt lat="40.8978617" lon="14.2711267"><ele>91.0</ele><time>2026-04-09T12:12:51.686Z</time></trkpt><trkpt lat="40.8978833" lon="14.271035"><ele>91.0</ele><time>2026-04-09T12:12:52.685Z</time></trkpt><trkpt lat="40.8979117" lon="14.2709483"><ele>91.0</ele><time>2026-04-09T12:12:53.687Z</time></trkpt><trkpt lat="40.8979417" lon="14.2708667"><ele>91.0</ele><time>2026-04-09T12:12:54.688Z</time></trkpt><trkpt lat="40.8979767" lon="14.270785"><ele>91.0</ele><time>2026-04-09T12:12:55.688Z</time></trkpt><trkpt lat="40.8980167" lon="14.2707033"><ele>91.0</ele><time>2026-04-09T12:12:56.687Z</time></trkpt><trkpt lat="40.8980617" lon="14.2706267"><ele>91.0</ele><time>2026-04-09T12:12:57.685Z</time></trkpt><trkpt lat="40.8981067" lon="14.270555"><ele>91.0</ele><time>2026-04-09T12:12:58.687Z</time></trkpt><trkpt lat="40.8981517" lon="14.2704833"><ele>91.0</ele><time>2026-04-09T12:12:59.687Z</time></trkpt><trkpt lat="40.898195" lon="14.2704067"><ele>91.0</ele><time>2026-04-09T12:13:00.686Z</time></trkpt><trkpt lat="40.8982433" lon="14.270335"><ele>91.0</ele><time>2026-04-09T12:13:01.687Z</time></trkpt><trkpt lat="40.8982933" lon="14.2702617"><ele>91.0</ele><time>2026-04-09T12:13:02.688Z</time></trkpt><trkpt lat="40.89834" lon="14.2701867"><ele>91.0</ele><time>2026-04-09T12:13:03.687Z</time></trkpt><trkpt lat="40.8983883" lon="14.2701117"><ele>91.0</ele><time>2026-04-09T12:13:04.688Z</time></trkpt><trkpt lat="40.898445" lon="14.2700433"><ele>91.0</ele><time>2026-04-09T12:13:05.687Z</time></trkpt><trkpt lat="40.8984967" lon="14.26997"><ele>91.0</ele><time>2026-04-09T12:13:06.685Z</time></trkpt><trkpt lat="40.898545" lon="14.2699"><ele>91.0</ele><time>2026-04-09T12:13:07.686Z</time></trkpt><trkpt lat="40.898595" lon="14.2698333"><ele>90.83333333333333</ele><time>2026-04-09T12:13:08.687Z</time></trkpt><trkpt lat="40.8986433" lon="14.2697633"><ele>90.66666666666666</ele><time>2026-04-09T12:13:09.689Z</time></trkpt><trkpt lat="40.8986933" lon="14.2697"><ele>90.5</ele><time>2026-04-09T12:13:10.689Z</time></trkpt><trkpt lat="40.8987467" lon="14.269645"><ele>90.33333333333333</ele><time>2026-04-09T12:13:11.689Z</time></trkpt><trkpt lat="40.8988383" lon="14.2695567"><ele>90.16666666666667</ele><time>2026-04-09T12:13:13.689Z</time></trkpt><trkpt lat="40.8989167" lon="14.26949"><ele>90.0</ele><time>2026-04-09T12:13:15.685Z</time></trkpt><trkpt lat="40.89898" lon="14.2694183"><ele>90.0</ele><time>2026-04-09T12:13:17.687Z</time></trkpt><trkpt lat="40.89906" lon="14.26935"><ele>90.0</ele><time>2026-04-09T12:13:19.687Z</time></trkpt><trkpt lat="40.8991517" lon="14.26929"><ele>90.0</ele><time>2026-04-09T12:13:21.687Z</time></trkpt><trkpt lat="40.8992283" lon="14.26918"><ele>90.0</ele><time>2026-04-09T12:13:23.688Z</time></trkpt><trkpt lat="40.89926" lon="14.2691067"><ele>90.0</ele><time>2026-04-09T12:13:24.687Z</time></trkpt><trkpt lat="40.8992783" lon="14.2690233"><ele>90.0</ele><time>2026-04-09T12:13:25.687Z</time></trkpt><trkpt lat="40.89929" lon="14.268935"><ele>89.71428571428571</ele><time>2026-04-09T12:13:26.686Z</time></trkpt><trkpt lat="40.8993" lon="14.268845"><ele>89.42857142857143</ele><time>2026-04-09T12:13:27.686Z</time></trkpt><trkpt lat="40.899315" lon="14.268755"><ele>89.14285714285714</ele><time>2026-04-09T12:13:28.687Z</time></trkpt><trkpt lat="40.8993433" lon="14.26867"><ele>88.85714285714286</ele><time>2026-04-09T12:13:29.688Z</time></trkpt><trkpt lat="40.89938" lon="14.2685833"><ele>88.57142857142857</ele><time>2026-04-09T12:13:30.685Z</time></trkpt><trkpt lat="40.8994183" lon="14.2684983"><ele>88.28571428571429</ele><time>2026-04-09T12:13:31.688Z</time></trkpt><trkpt lat="40.8994617" lon="14.2684133"><ele>88.0</ele><time>2026-04-09T12:13:32.688Z</time></trkpt><trkpt lat="40.8995067" lon="14.2683333"><ele>88.0</ele><time>2026-04-09T12:13:33.686Z</time></trkpt><trkpt lat="40.899555" lon="14.2682567"><ele>88.0</ele><time>2026-04-09T12:13:34.687Z</time></trkpt><trkpt lat="40.8996067" lon="14.2681817"><ele>88.0</ele><time>2026-04-09T12:13:35.687Z</time></trkpt><trkpt lat="40.89966" lon="14.26811"><ele>88.0</ele><time>2026-04-09T12:13:36.687Z</time></trkpt><trkpt lat="40.89971" lon="14.2680383"><ele>88.0</ele><time>2026-04-09T12:13:37.688Z</time></trkpt><trkpt lat="40.89976" lon="14.2679633"><ele>88.0</ele><time>2026-04-09T12:13:38.686Z</time></trkpt><trkpt lat="40.8998117" lon="14.2678883"><ele>88.0</ele><time>2026-04-09T12:13:39.687Z</time></trkpt><trkpt lat="40.89986" lon="14.2678117"><ele>88.0</ele><time>2026-04-09T12:13:40.689Z</time></trkpt><trkpt lat="40.89991" lon="14.267735"><ele>88.0</ele><time>2026-04-09T12:13:41.686Z</time></trkpt><trkpt lat="40.8999617" lon="14.267655"><ele>88.0</ele><time>2026-04-09T12:13:42.686Z</time></trkpt><trkpt lat="40.90001" lon="14.2675783"><ele>88.0</ele><time>2026-04-09T12:13:43.687Z</time></trkpt><trkpt lat="40.9000617" lon="14.2675033"><ele>88.0</ele><time>2026-04-09T12:13:44.685Z</time></trkpt><trkpt lat="40.9001167" lon="14.2674217"><ele>88.0</ele><time>2026-04-09T12:13:45.685Z</time></trkpt><trkpt lat="40.9001717" lon="14.26734"><ele>88.0</ele><time>2026-04-09T12:13:46.687Z</time></trkpt><trkpt lat="40.9002283" lon="14.2672583"><ele>88.0</ele><time>2026-04-09T12:13:47.688Z</time></trkpt><trkpt lat="40.900285" lon="14.2671767"><ele>88.0</ele><time>2026-04-09T12:13:48.687Z</time></trkpt><trkpt lat="40.9003433" lon="14.2670933"><ele>88.0</ele><time>2026-04-09T12:13:49.687Z</time></trkpt><trkpt lat="40.9004017" lon="14.26701"><ele>88.0</ele><time>2026-04-09T12:13:50.687Z</time></trkpt><trkpt lat="40.9004567" lon="14.2669267"><ele>88.0</ele><time>2026-04-09T12:13:51.687Z</time></trkpt><trkpt lat="40.900515" lon="14.2668467"><ele>88.0</ele><time>2026-04-09T12:13:52.689Z</time></trkpt><trkpt lat="40.900575" lon="14.2667667"><ele>88.0</ele><time>2026-04-09T12:13:53.686Z</time></trkpt><trkpt lat="40.90063" lon="14.2666867"><ele>88.0</ele><time>2026-04-09T12:13:54.687Z</time></trkpt><trkpt lat="40.9006883" lon="14.266605"><ele>88.0</ele><time>2026-04-09T12:13:55.688Z</time></trkpt><trkpt lat="40.9007467" lon="14.2665217"><ele>88.0</ele><time>2026-04-09T12:13:56.687Z</time></trkpt><trkpt lat="40.9008083" lon="14.26644"><ele>88.16666666666666</ele><time>2026-04-09T12:13:57.689Z</time></trkpt><trkpt lat="40.9008717" lon="14.26636"><ele>88.33333333333333</ele><time>2026-04-09T12:13:58.689Z</time></trkpt><trkpt lat="40.900935" lon="14.2662783"><ele>88.5</ele><time>2026-04-09T12:13:59.688Z</time></trkpt><trkpt lat="40.9009983" lon="14.2662"><ele>88.66666666666667</ele><time>2026-04-09T12:14:00.688Z</time></trkpt><trkpt lat="40.9010583" lon="14.2661183"><ele>88.83333333333334</ele><time>2026-04-09T12:14:01.685Z</time></trkpt><trkpt lat="40.9011183" lon="14.2660417"><ele>89.0</ele><time>2026-04-09T12:14:02.687Z</time></trkpt><trkpt lat="40.9011783" lon="14.2659633"><ele>89.16666666666667</ele><time>2026-04-09T12:14:03.685Z</time></trkpt><trkpt lat="40.90123" lon="14.2658867"><ele>89.33333333333334</ele><time>2026-04-09T12:14:04.689Z</time></trkpt><trkpt lat="40.9012833" lon="14.26581"><ele>89.5</ele><time>2026-04-09T12:14:05.689Z</time></trkpt><trkpt lat="40.9013367" lon="14.2657333"><ele>89.66666666666667</ele><time>2026-04-09T12:14:06.687Z</time></trkpt><trkpt lat="40.90139" lon="14.265655"><ele>89.83333333333333</ele><time>2026-04-09T12:14:07.689Z</time></trkpt><trkpt lat="40.9014433" lon="14.265575"><ele>90.0</ele><time>2026-04-09T12:14:08.689Z</time></trkpt><trkpt lat="40.9014933" lon="14.265495"><ele>90.16666666666667</ele><time>2026-04-09T12:14:09.689Z</time></trkpt><trkpt lat="40.9015467" lon="14.2654167"><ele>90.33333333333333</ele><time>2026-04-09T12:14:10.689Z</time></trkpt><trkpt lat="40.9015983" lon="14.2653383"><ele>90.5</ele><time>2026-04-09T12:14:11.689Z</time></trkpt><trkpt lat="40.9016467" lon="14.2652617"><ele>90.66666666666666</ele><time>2026-04-09T12:14:12.689Z</time></trkpt><trkpt lat="40.9016933" lon="14.2651817"><ele>90.83333333333333</ele><time>2026-04-09T12:14:13.689Z</time></trkpt><trkpt lat="40.9017383" lon="14.2651"><ele>91.0</ele><time>2026-04-09T12:14:14.687Z</time></trkpt><trkpt lat="40.9017883" lon="14.2650233"><ele>90.42857142857143</ele><time>2026-04-09T12:14:15.689Z</time></trkpt><trkpt lat="40.901835" lon="14.264945"><ele>89.85714285714286</ele><time>2026-04-09T12:14:16.688Z</time></trkpt><trkpt lat="40.9018783" lon="14.2648683"><ele>89.28571428571428</ele><time>2026-04-09T12:14:17.689Z</time></trkpt><trkpt lat="40.9019217" lon="14.2647933"><ele>88.71428571428572</ele><time>2026-04-09T12:14:18.689Z</time></trkpt><trkpt lat="40.9019683" lon="14.264725"><ele>88.14285714285714</ele><time>2026-04-09T12:14:19.691Z</time></trkpt><trkpt lat="40.9020133" lon="14.2646567"><ele>87.57142857142857</ele><time>2026-04-09T12:14:20.689Z</time></trkpt><trkpt lat="40.902055" lon="14.2645867"><ele>87.0</ele><time>2026-04-09T12:14:21.688Z</time></trkpt><trkpt lat="40.9021" lon="14.2645183"><ele>87.0</ele><time>2026-04-09T12:14:22.688Z</time></trkpt><trkpt lat="40.9021783" lon="14.264395"><ele>87.0</ele><time>2026-04-09T12:14:24.688Z</time></trkpt><trkpt lat="40.9022567" lon="14.2642733"><ele>87.0</ele><time>2026-04-09T12:14:26.689Z</time></trkpt><trkpt lat="40.9023333" lon="14.2641533"><ele>87.0</ele><time>2026-04-09T12:14:28.687Z</time></trkpt><trkpt lat="40.9024083" lon="14.2640317"><ele>87.25</ele><time>2026-04-09T12:14:30.688Z</time></trkpt><trkpt lat="40.902485" lon="14.2639117"><ele>87.5</ele><time>2026-04-09T12:14:32.687Z</time></trkpt><trkpt lat="40.9025617" lon="14.2637933"><ele>87.75</ele><time>2026-04-09T12:14:34.686Z</time></trkpt><trkpt lat="40.9026417" lon="14.2636717"><ele>88.0</ele><time>2026-04-09T12:14:36.687Z</time></trkpt><trkpt lat="40.9027217" lon="14.2635483"><ele>88.0</ele><time>2026-04-09T12:14:38.687Z</time></trkpt><trkpt lat="40.9027633" lon="14.2634817"><ele>88.0</ele><time>2026-04-09T12:14:39.686Z</time></trkpt><trkpt lat="40.902845" lon="14.2633533"><ele>88.0</ele><time>2026-04-09T12:14:41.689Z</time></trkpt><trkpt lat="40.9029267" lon="14.2632233"><ele>88.0</ele><time>2026-04-09T12:14:43.688Z</time></trkpt><trkpt lat="40.90297" lon="14.26316"><ele>88.0</ele><time>2026-04-09T12:14:44.687Z</time></trkpt><trkpt lat="40.9030133" lon="14.263095"><ele>88.0</ele><time>2026-04-09T12:14:45.686Z</time></trkpt><trkpt lat="40.9030567" lon="14.2630267"><ele>88.0</ele><time>2026-04-09T12:14:46.687Z</time></trkpt><trkpt lat="40.9031" lon="14.2629567"><ele>88.0</ele><time>2026-04-09T12:14:47.686Z</time></trkpt><trkpt lat="40.9031433" lon="14.2628867"><ele>88.0</ele><time>2026-04-09T12:14:48.686Z</time></trkpt><trkpt lat="40.9031883" lon="14.2628183"><ele>88.0</ele><time>2026-04-09T12:14:49.688Z</time></trkpt><trkpt lat="40.9032333" lon="14.2627467"><ele>88.0</ele><time>2026-04-09T12:14:50.686Z</time></trkpt><trkpt lat="40.9032783" lon="14.262675"><ele>88.0</ele><time>2026-04-09T12:14:51.686Z</time></trkpt><trkpt lat="40.9033267" lon="14.262605"><ele>88.0</ele><time>2026-04-09T12:14:52.687Z</time></trkpt><trkpt lat="40.903375" lon="14.2625333"><ele>88.0</ele><time>2026-04-09T12:14:53.687Z</time></trkpt><trkpt lat="40.90342" lon="14.2624583"><ele>88.0</ele><time>2026-04-09T12:14:54.686Z</time></trkpt><trkpt lat="40.903465" lon="14.2623833"><ele>88.0</ele><time>2026-04-09T12:14:55.688Z</time></trkpt><trkpt lat="40.90351" lon="14.2623083"><ele>88.0</ele><time>2026-04-09T12:14:56.687Z</time></trkpt><trkpt lat="40.90356" lon="14.2622367"><ele>88.0</ele><time>2026-04-09T12:14:57.687Z</time></trkpt><trkpt lat="40.9036083" lon="14.2621633"><ele>88.0</ele><time>2026-04-09T12:14:58.687Z</time></trkpt><trkpt lat="40.9036583" lon="14.2620883"><ele>88.66666666666666</ele><time>2026-04-09T12:14:59.688Z</time></trkpt><trkpt lat="40.9037083" lon="14.262015"><ele>89.33333333333333</ele><time>2026-04-09T12:15:00.689Z</time></trkpt><trkpt lat="40.9037567" lon="14.26194"><ele>90.0</ele><time>2026-04-09T12:15:01.688Z</time></trkpt><trkpt lat="40.9038067" lon="14.261865"><ele>90.66666666666667</ele><time>2026-04-09T12:15:02.687Z</time></trkpt><trkpt lat="40.903855" lon="14.26179"><ele>91.33333333333334</ele><time>2026-04-09T12:15:03.687Z</time></trkpt><trkpt lat="40.903905" lon="14.261715"><ele>92.0</ele><time>2026-04-09T12:15:04.687Z</time></trkpt><trkpt lat="40.9039567" lon="14.26164"><ele>92.0</ele><time>2026-04-09T12:15:05.687Z</time></trkpt><trkpt lat="40.9040083" lon="14.261565"><ele>92.0</ele><time>2026-04-09T12:15:06.687Z</time></trkpt><trkpt lat="40.90406" lon="14.26149"><ele>92.0</ele><time>2026-04-09T12:15:07.688Z</time></trkpt><trkpt lat="40.9041133" lon="14.2614167"><ele>92.0</ele><time>2026-04-09T12:15:08.687Z</time></trkpt><trkpt lat="40.9041633" lon="14.2613433"><ele>92.0</ele><time>2026-04-09T12:15:09.685Z</time></trkpt><trkpt lat="40.9042167" lon="14.26127"><ele>92.0</ele><time>2026-04-09T12:15:10.688Z</time></trkpt><trkpt lat="40.9042683" lon="14.2611933"><ele>91.5</ele><time>2026-04-09T12:15:11.687Z</time></trkpt><trkpt lat="40.9043183" lon="14.2611167"><ele>91.0</ele><time>2026-04-09T12:15:12.687Z</time></trkpt><trkpt lat="40.9043717" lon="14.2610433"><ele>90.5</ele><time>2026-04-09T12:15:13.689Z</time></trkpt><trkpt lat="40.9044217" lon="14.2609683"><ele>90.0</ele><time>2026-04-09T12:15:14.687Z</time></trkpt><trkpt lat="40.9044783" lon="14.2608933"><ele>89.5</ele><time>2026-04-09T12:15:15.685Z</time></trkpt><trkpt lat="40.904535" lon="14.2608167"><ele>89.0</ele><time>2026-04-09T12:15:16.687Z</time></trkpt><trkpt lat="40.9045917" lon="14.2607417"><ele>89.0</ele><time>2026-04-09T12:15:17.687Z</time></trkpt><trkpt lat="40.904645" lon="14.260665"><ele>89.0</ele><time>2026-04-09T12:15:18.687Z</time></trkpt><trkpt lat="40.9046967" lon="14.2605883"><ele>89.0</ele><time>2026-04-09T12:15:19.689Z</time></trkpt><trkpt lat="40.9047533" lon="14.26051"><ele>89.0</ele><time>2026-04-09T12:15:20.687Z</time></trkpt><trkpt lat="40.9048083" lon="14.2604317"><ele>89.0</ele><time>2026-04-09T12:15:21.685Z</time></trkpt><trkpt lat="40.90487" lon="14.2603567"><ele>89.0</ele><time>2026-04-09T12:15:22.687Z</time></trkpt><trkpt lat="40.9049317" lon="14.2602783"><ele>89.16666666666667</ele><time>2026-04-09T12:15:23.686Z</time></trkpt><trkpt lat="40.9049867" lon="14.260195"><ele>89.33333333333334</ele><time>2026-04-09T12:15:24.687Z</time></trkpt><trkpt lat="40.9050467" lon="14.2601133"><ele>89.5</ele><time>2026-04-09T12:15:25.687Z</time></trkpt><trkpt lat="40.905105" lon="14.2600317"><ele>89.66666666666667</ele><time>2026-04-09T12:15:26.687Z</time></trkpt><trkpt lat="40.9051617" lon="14.2599467"><ele>89.83333333333333</ele><time>2026-04-09T12:15:27.688Z</time></trkpt><trkpt lat="40.9052217" lon="14.25986"><ele>90.0</ele><time>2026-04-09T12:15:28.689Z</time></trkpt><trkpt lat="40.905285" lon="14.25977"><ele>90.2</ele><time>2026-04-09T12:15:29.689Z</time></trkpt><trkpt lat="40.9053483" lon="14.25968"><ele>90.4</ele><time>2026-04-09T12:15:30.688Z</time></trkpt><trkpt lat="40.9054133" lon="14.2595867"><ele>90.6</ele><time>2026-04-09T12:15:31.69Z</time></trkpt><trkpt lat="40.9054767" lon="14.2594917"><ele>90.8</ele><time>2026-04-09T12:15:32.686Z</time></trkpt><trkpt lat="40.9055383" lon="14.259395"><ele>91.0</ele><time>2026-04-09T12:15:33.688Z</time></trkpt><trkpt lat="40.9056033" lon="14.2592983"><ele>91.0</ele><time>2026-04-09T12:15:34.686Z</time></trkpt><trkpt lat="40.9056717" lon="14.2592017"><ele>91.0</ele><time>2026-04-09T12:15:35.689Z</time></trkpt><trkpt lat="40.9057383" lon="14.259105"><ele>91.0</ele><time>2026-04-09T12:15:36.689Z</time></trkpt><trkpt lat="40.905805" lon="14.2590067"><ele>91.0</ele><time>2026-04-09T12:15:37.688Z</time></trkpt><trkpt lat="40.90587" lon="14.25891"><ele>91.0</ele><time>2026-04-09T12:15:38.687Z</time></trkpt><trkpt lat="40.9059333" lon="14.258815"><ele>90.8</ele><time>2026-04-09T12:15:39.689Z</time></trkpt><trkpt lat="40.9059983" lon="14.25872"><ele>90.6</ele><time>2026-04-09T12:15:40.688Z</time></trkpt><trkpt lat="40.9060617" lon="14.2586267"><ele>90.4</ele><time>2026-04-09T12:15:41.688Z</time></trkpt><trkpt lat="40.90613" lon="14.258535"><ele>90.2</ele><time>2026-04-09T12:15:42.689Z</time></trkpt><trkpt lat="40.9062" lon="14.258445"><ele>90.0</ele><time>2026-04-09T12:15:43.689Z</time></trkpt><trkpt lat="40.9062667" lon="14.25835"><ele>90.0</ele><time>2026-04-09T12:15:44.689Z</time></trkpt><trkpt lat="40.9063333" lon="14.258255"><ele>90.0</ele><time>2026-04-09T12:15:45.689Z</time></trkpt><trkpt lat="40.9063933" lon="14.2581583"><ele>90.0</ele><time>2026-04-09T12:15:46.687Z</time></trkpt><trkpt lat="40.906455" lon="14.2580633"><ele>90.0</ele><time>2026-04-09T12:15:47.687Z</time></trkpt><trkpt lat="40.9065183" lon="14.25797"><ele>90.0</ele><time>2026-04-09T12:15:48.686Z</time></trkpt><trkpt lat="40.90658" lon="14.25788"><ele>89.8</ele><time>2026-04-09T12:15:49.686Z</time></trkpt><trkpt lat="40.9066417" lon="14.2577867"><ele>89.6</ele><time>2026-04-09T12:15:50.689Z</time></trkpt><trkpt lat="40.9067" lon="14.2576933"><ele>89.4</ele><time>2026-04-09T12:15:51.686Z</time></trkpt><trkpt lat="40.9067617" lon="14.2576017"><ele>89.2</ele><time>2026-04-09T12:15:52.686Z</time></trkpt><trkpt lat="40.9068267" lon="14.25751"><ele>89.0</ele><time>2026-04-09T12:15:53.687Z</time></trkpt><trkpt lat="40.9068933" lon="14.257405"><ele>89.0</ele><time>2026-04-09T12:15:54.686Z</time></trkpt><trkpt lat="40.906955" lon="14.257315"><ele>89.0</ele><time>2026-04-09T12:15:55.688Z</time></trkpt><trkpt lat="40.9070167" lon="14.2572233"><ele>89.0</ele><time>2026-04-09T12:15:56.686Z</time></trkpt><trkpt lat="40.90708" lon="14.25713"><ele>89.0</ele><time>2026-04-09T12:15:57.685Z</time></trkpt><trkpt lat="40.9071417" lon="14.2570367"><ele>89.0</ele><time>2026-04-09T12:15:58.686Z</time></trkpt><trkpt lat="40.9072033" lon="14.2569433"><ele>89.0</ele><time>2026-04-09T12:15:59.687Z</time></trkpt><trkpt lat="40.907265" lon="14.2568483"><ele>89.0</ele><time>2026-04-09T12:16:00.686Z</time></trkpt><trkpt lat="40.9073267" lon="14.2567533"><ele>89.0</ele><time>2026-04-09T12:16:01.687Z</time></trkpt><trkpt lat="40.9073867" lon="14.2566583"><ele>89.0</ele><time>2026-04-09T12:16:02.686Z</time></trkpt><trkpt lat="40.9074467" lon="14.256565"><ele>89.0</ele><time>2026-04-09T12:16:03.685Z</time></trkpt><trkpt lat="40.90751" lon="14.2564733"><ele>89.0</ele><time>2026-04-09T12:16:04.686Z</time></trkpt><trkpt lat="40.9075733" lon="14.25638"><ele>89.0</ele><time>2026-04-09T12:16:05.687Z</time></trkpt><trkpt lat="40.9076367" lon="14.2562883"><ele>89.0</ele><time>2026-04-09T12:16:06.686Z</time></trkpt><trkpt lat="40.9077" lon="14.2561933"><ele>89.0</ele><time>2026-04-09T12:16:07.688Z</time></trkpt><trkpt lat="40.907765" lon="14.2561"><ele>89.0</ele><time>2026-04-09T12:16:08.687Z</time></trkpt><trkpt lat="40.90783" lon="14.2560083"><ele>88.80000000000001</ele><time>2026-04-09T12:16:09.687Z</time></trkpt><trkpt lat="40.907895" lon="14.255915"><ele>88.60000000000001</ele><time>2026-04-09T12:16:10.686Z</time></trkpt><trkpt lat="40.9079617" lon="14.2558217"><ele>88.4</ele><time>2026-04-09T12:16:11.688Z</time></trkpt><trkpt lat="40.908025" lon="14.2557317"><ele>88.2</ele><time>2026-04-09T12:16:12.689Z</time></trkpt><trkpt lat="40.90809" lon="14.255635"><ele>88.0</ele><time>2026-04-09T12:16:13.689Z</time></trkpt><trkpt lat="40.908155" lon="14.2555383"><ele>88.0</ele><time>2026-04-09T12:16:14.685Z</time></trkpt><trkpt lat="40.90822" lon="14.25544"><ele>88.0</ele><time>2026-04-09T12:16:15.687Z</time></trkpt><trkpt lat="40.9082833" lon="14.2553383"><ele>88.0</ele><time>2026-04-09T12:16:16.687Z</time></trkpt><trkpt lat="40.9083467" lon="14.2552383"><ele>88.0</ele><time>2026-04-09T12:16:17.686Z</time></trkpt><trkpt lat="40.9084117" lon="14.25514"><ele>88.0</ele><time>2026-04-09T12:16:18.686Z</time></trkpt><trkpt lat="40.9084767" lon="14.2550417"><ele>88.0</ele><time>2026-04-09T12:16:19.688Z</time></trkpt><trkpt lat="40.9085433" lon="14.2549433"><ele>88.0</ele><time>2026-04-09T12:16:20.687Z</time></trkpt><trkpt lat="40.90861" lon="14.2548433"><ele>88.0</ele><time>2026-04-09T12:16:21.685Z</time></trkpt><trkpt lat="40.908675" lon="14.254745"><ele>88.0</ele><time>2026-04-09T12:16:22.687Z</time></trkpt><trkpt lat="40.9087433" lon="14.2546467"><ele>88.0</ele><time>2026-04-09T12:16:23.687Z</time></trkpt><trkpt lat="40.90881" lon="14.2545517"><ele>88.2</ele><time>2026-04-09T12:16:24.687Z</time></trkpt><trkpt lat="40.908875" lon="14.2544583"><ele>88.4</ele><time>2026-04-09T12:16:25.687Z</time></trkpt><trkpt lat="40.90894" lon="14.25436"><ele>88.60000000000001</ele><time>2026-04-09T12:16:26.685Z</time></trkpt><trkpt lat="40.909005" lon="14.254265"><ele>88.80000000000001</ele><time>2026-04-09T12:16:27.688Z</time></trkpt><trkpt lat="40.90907" lon="14.2541717"><ele>89.0</ele><time>2026-04-09T12:16:28.687Z</time></trkpt><trkpt lat="40.9091333" lon="14.2540783"><ele>89.0</ele><time>2026-04-09T12:16:29.689Z</time></trkpt><trkpt lat="40.9091983" lon="14.2539833"><ele>89.0</ele><time>2026-04-09T12:16:30.689Z</time></trkpt><trkpt lat="40.90926" lon="14.2538917"><ele>89.0</ele><time>2026-04-09T12:16:31.688Z</time></trkpt><trkpt lat="40.9093217" lon="14.2538017"><ele>89.0</ele><time>2026-04-09T12:16:32.689Z</time></trkpt><trkpt lat="40.9093833" lon="14.2537133"><ele>89.0</ele><time>2026-04-09T12:16:33.688Z</time></trkpt><trkpt lat="40.9094417" lon="14.2536233"><ele>89.0</ele><time>2026-04-09T12:16:34.689Z</time></trkpt><trkpt lat="40.9094983" lon="14.253535"><ele>89.0</ele><time>2026-04-09T12:16:35.689Z</time></trkpt><trkpt lat="40.909555" lon="14.253445"><ele>89.0</ele><time>2026-04-09T12:16:36.686Z</time></trkpt><trkpt lat="40.9096133" lon="14.2533567"><ele>89.0</ele><time>2026-04-09T12:16:37.69Z</time></trkpt><trkpt lat="40.90967" lon="14.2532667"><ele>89.0</ele><time>2026-04-09T12:16:38.689Z</time></trkpt><trkpt lat="40.9097317" lon="14.2531783"><ele>89.0</ele><time>2026-04-09T12:16:39.688Z</time></trkpt><trkpt lat="40.9097933" lon="14.2530883"><ele>89.0</ele><time>2026-04-09T12:16:40.689Z</time></trkpt><trkpt lat="40.909855" lon="14.2529983"><ele>89.0</ele><time>2026-04-09T12:16:41.687Z</time></trkpt><trkpt lat="40.909915" lon="14.2529083"><ele>89.0</ele><time>2026-04-09T12:16:42.689Z</time></trkpt><trkpt lat="40.909975" lon="14.25282"><ele>89.0</ele><time>2026-04-09T12:16:43.69Z</time></trkpt><trkpt lat="40.9100367" lon="14.2527333"><ele>89.0</ele><time>2026-04-09T12:16:44.689Z</time></trkpt><trkpt lat="40.9100967" lon="14.252645"><ele>89.0</ele><time>2026-04-09T12:16:45.689Z</time></trkpt><trkpt lat="40.9101567" lon="14.2525567"><ele>89.0</ele><time>2026-04-09T12:16:46.687Z</time></trkpt><trkpt lat="40.9102167" lon="14.2524683"><ele>89.0</ele><time>2026-04-09T12:16:47.686Z</time></trkpt><trkpt lat="40.910275" lon="14.2523817"><ele>89.0</ele><time>2026-04-09T12:16:48.687Z</time></trkpt><trkpt lat="40.9103333" lon="14.2522917"><ele>89.0</ele><time>2026-04-09T12:16:49.688Z</time></trkpt><trkpt lat="40.9103933" lon="14.252205"><ele>89.0</ele><time>2026-04-09T12:16:50.686Z</time></trkpt><trkpt lat="40.91045" lon="14.25212"><ele>89.0</ele><time>2026-04-09T12:16:51.685Z</time></trkpt><trkpt lat="40.9105083" lon="14.2520333"><ele>89.0</ele><time>2026-04-09T12:16:52.685Z</time></trkpt><trkpt lat="40.9105683" lon="14.2519467"><ele>89.0</ele><time>2026-04-09T12:16:53.686Z</time></trkpt><trkpt lat="40.9106283" lon="14.25186"><ele>89.0</ele><time>2026-04-09T12:16:54.687Z</time></trkpt><trkpt lat="40.9106883" lon="14.2517767"><ele>89.0</ele><time>2026-04-09T12:16:55.687Z</time></trkpt><trkpt lat="40.9107467" lon="14.25169"><ele>89.0</ele><time>2026-04-09T12:16:56.687Z</time></trkpt><trkpt lat="40.9108067" lon="14.2516033"><ele>89.0</ele><time>2026-04-09T12:16:57.687Z</time></trkpt><trkpt lat="40.910865" lon="14.2515167"><ele>89.0</ele><time>2026-04-09T12:16:58.689Z</time></trkpt><trkpt lat="40.9109233" lon="14.2514317"><ele>89.0</ele><time>2026-04-09T12:16:59.686Z</time></trkpt><trkpt lat="40.9109817" lon="14.2513467"><ele>89.0</ele><time>2026-04-09T12:17:00.689Z</time></trkpt><trkpt lat="40.91104" lon="14.2512617"><ele>89.0</ele><time>2026-04-09T12:17:01.69Z</time></trkpt><trkpt lat="40.9110967" lon="14.2511767"><ele>89.0</ele><time>2026-04-09T12:17:02.688Z</time></trkpt><trkpt lat="40.9111583" lon="14.2510917"><ele>89.16666666666667</ele><time>2026-04-09T12:17:03.689Z</time></trkpt><trkpt lat="40.9112167" lon="14.2510017"><ele>89.33333333333334</ele><time>2026-04-09T12:17:04.688Z</time></trkpt><trkpt lat="40.9112733" lon="14.25091"><ele>89.5</ele><time>2026-04-09T12:17:05.689Z</time></trkpt><trkpt lat="40.91133" lon="14.2508183"><ele>89.66666666666667</ele><time>2026-04-09T12:17:06.689Z</time></trkpt><trkpt lat="40.9113883" lon="14.2507283"><ele>89.83333333333333</ele><time>2026-04-09T12:17:07.689Z</time></trkpt><trkpt lat="40.9114483" lon="14.25064"><ele>90.0</ele><time>2026-04-09T12:17:08.689Z</time></trkpt><trkpt lat="40.9115067" lon="14.2505483"><ele>90.0</ele><time>2026-04-09T12:17:09.688Z</time></trkpt><trkpt lat="40.9115667" lon="14.2504567"><ele>90.0</ele><time>2026-04-09T12:17:10.688Z</time></trkpt><trkpt lat="40.9116283" lon="14.250365"><ele>90.0</ele><time>2026-04-09T12:17:11.685Z</time></trkpt><trkpt lat="40.91169" lon="14.2502733"><ele>90.0</ele><time>2026-04-09T12:17:12.689Z</time></trkpt><trkpt lat="40.9117517" lon="14.2501833"><ele>90.0</ele><time>2026-04-09T12:17:13.689Z</time></trkpt><trkpt lat="40.9118133" lon="14.2500967"><ele>90.6</ele><time>2026-04-09T12:17:14.688Z</time></trkpt><trkpt lat="40.911875" lon="14.25001"><ele>91.2</ele><time>2026-04-09T12:17:15.689Z</time></trkpt><trkpt lat="40.9119367" lon="14.2499217"><ele>91.80000000000001</ele><time>2026-04-09T12:17:16.686Z</time></trkpt><trkpt lat="40.9119967" lon="14.2498317"><ele>92.4</ele><time>2026-04-09T12:17:17.685Z</time></trkpt><trkpt lat="40.9120567" lon="14.24974"><ele>93.0</ele><time>2026-04-09T12:17:18.687Z</time></trkpt><trkpt lat="40.9121167" lon="14.2496483"><ele>93.2</ele><time>2026-04-09T12:17:19.687Z</time></trkpt><trkpt lat="40.9121767" lon="14.2495567"><ele>93.4</ele><time>2026-04-09T12:17:20.686Z</time></trkpt><trkpt lat="40.9122383" lon="14.249465"><ele>93.60000000000001</ele><time>2026-04-09T12:17:21.687Z</time></trkpt><trkpt lat="40.9122983" lon="14.2493717"><ele>93.80000000000001</ele><time>2026-04-09T12:17:22.686Z</time></trkpt><trkpt lat="40.9123583" lon="14.2492767"><ele>94.0</ele><time>2026-04-09T12:17:23.686Z</time></trkpt><trkpt lat="40.91242" lon="14.2491867"><ele>94.0</ele><time>2026-04-09T12:17:24.687Z</time></trkpt><trkpt lat="40.9124817" lon="14.2490967"><ele>94.0</ele><time>2026-04-09T12:17:25.689Z</time></trkpt><trkpt lat="40.9125417" lon="14.249005"><ele>94.0</ele><time>2026-04-09T12:17:26.689Z</time></trkpt><trkpt lat="40.9126033" lon="14.2489133"><ele>94.0</ele><time>2026-04-09T12:17:27.688Z</time></trkpt><trkpt lat="40.9126667" lon="14.2488217"><ele>94.0</ele><time>2026-04-09T12:17:28.689Z</time></trkpt><trkpt lat="40.9127283" lon="14.2487333"><ele>93.80000000000001</ele><time>2026-04-09T12:17:29.689Z</time></trkpt><trkpt lat="40.9127883" lon="14.2486433"><ele>93.60000000000001</ele><time>2026-04-09T12:17:30.688Z</time></trkpt><trkpt lat="40.91285" lon="14.2485517"><ele>93.4</ele><time>2026-04-09T12:17:31.688Z</time></trkpt><trkpt lat="40.9129133" lon="14.2484633"><ele>93.2</ele><time>2026-04-09T12:17:32.688Z</time></trkpt><trkpt lat="40.912975" lon="14.2483733"><ele>93.0</ele><time>2026-04-09T12:17:33.687Z</time></trkpt><trkpt lat="40.913035" lon="14.2482817"><ele>93.0</ele><time>2026-04-09T12:17:34.687Z</time></trkpt><trkpt lat="40.91309" lon="14.2481833"><ele>93.0</ele><time>2026-04-09T12:17:35.688Z</time></trkpt><trkpt lat="40.913145" lon="14.2480883"><ele>93.0</ele><time>2026-04-09T12:17:36.688Z</time></trkpt><trkpt lat="40.9131983" lon="14.2479883"><ele>93.0</ele><time>2026-04-09T12:17:37.688Z</time></trkpt><trkpt lat="40.9132533" lon="14.247885"><ele>93.0</ele><time>2026-04-09T12:17:38.687Z</time></trkpt><trkpt lat="40.9133133" lon="14.2477833"><ele>92.60000000000001</ele><time>2026-04-09T12:17:39.689Z</time></trkpt><trkpt lat="40.9133667" lon="14.24768"><ele>92.2</ele><time>2026-04-09T12:17:40.687Z</time></trkpt><trkpt lat="40.9134117" lon="14.2475883"><ele>91.8</ele><time>2026-04-09T12:17:41.688Z</time></trkpt><trkpt lat="40.9134717" lon="14.2475"><ele>91.4</ele><time>2026-04-09T12:17:42.688Z</time></trkpt><trkpt lat="40.9135417" lon="14.247415"><ele>91.0</ele><time>2026-04-09T12:17:43.687Z</time></trkpt><trkpt lat="40.9136133" lon="14.247335"><ele>91.0</ele><time>2026-04-09T12:17:44.685Z</time></trkpt><trkpt lat="40.9136883" lon="14.2472567"><ele>91.0</ele><time>2026-04-09T12:17:45.685Z</time></trkpt><trkpt lat="40.91376" lon="14.24717"><ele>91.0</ele><time>2026-04-09T12:17:46.688Z</time></trkpt><trkpt lat="40.9138283" lon="14.2470817"><ele>91.0</ele><time>2026-04-09T12:17:47.687Z</time></trkpt><trkpt lat="40.9138917" lon="14.2469867"><ele>91.0</ele><time>2026-04-09T12:17:48.687Z</time></trkpt><trkpt lat="40.9139567" lon="14.2468933"><ele>91.0</ele><time>2026-04-09T12:17:49.687Z</time></trkpt><trkpt lat="40.91402" lon="14.2468"><ele>91.0</ele><time>2026-04-09T12:17:50.687Z</time></trkpt><trkpt lat="40.9140833" lon="14.2467067"><ele>91.0</ele><time>2026-04-09T12:17:51.687Z</time></trkpt><trkpt lat="40.9141433" lon="14.2466167"><ele>91.0</ele><time>2026-04-09T12:17:52.687Z</time></trkpt><trkpt lat="40.914205" lon="14.2465283"><ele>91.0</ele><time>2026-04-09T12:17:53.688Z</time></trkpt><trkpt lat="40.914265" lon="14.24644"><ele>90.4</ele><time>2026-04-09T12:17:54.686Z</time></trkpt><trkpt lat="40.9143233" lon="14.2463483"><ele>89.8</ele><time>2026-04-09T12:17:55.687Z</time></trkpt><trkpt lat="40.9143817" lon="14.2462567"><ele>89.2</ele><time>2026-04-09T12:17:56.687Z</time></trkpt><trkpt lat="40.914435" lon="14.24616"><ele>88.60000000000001</ele><time>2026-04-09T12:17:57.687Z</time></trkpt><trkpt lat="40.914485" lon="14.2460583"><ele>88.0</ele><time>2026-04-09T12:17:58.688Z</time></trkpt><trkpt lat="40.9145317" lon="14.245955"><ele>88.0</ele><time>2026-04-09T12:17:59.689Z</time></trkpt><trkpt lat="40.9145783" lon="14.2458483"><ele>88.0</ele><time>2026-04-09T12:18:00.687Z</time></trkpt><trkpt lat="40.914625" lon="14.24574"><ele>88.0</ele><time>2026-04-09T12:18:01.689Z</time></trkpt><trkpt lat="40.9146717" lon="14.24563"><ele>88.0</ele><time>2026-04-09T12:18:02.686Z</time></trkpt><trkpt lat="40.9147167" lon="14.2455233"><ele>88.0</ele><time>2026-04-09T12:18:03.689Z</time></trkpt><trkpt lat="40.9147567" lon="14.2454083"><ele>88.0</ele><time>2026-04-09T12:18:04.688Z</time></trkpt><trkpt lat="40.9147967" lon="14.2452933"><ele>88.0</ele><time>2026-04-09T12:18:05.688Z</time></trkpt><trkpt lat="40.9148317" lon="14.2451767"><ele>88.0</ele><time>2026-04-09T12:18:06.689Z</time></trkpt><trkpt lat="40.9148667" lon="14.2450583"><ele>88.0</ele><time>2026-04-09T12:18:07.687Z</time></trkpt><trkpt lat="40.914895" lon="14.2449417"><ele>88.0</ele><time>2026-04-09T12:18:08.687Z</time></trkpt><trkpt lat="40.914925" lon="14.244825"><ele>88.0</ele><time>2026-04-09T12:18:09.687Z</time></trkpt><trkpt lat="40.9149533" lon="14.2447083"><ele>88.0</ele><time>2026-04-09T12:18:10.689Z</time></trkpt><trkpt lat="40.91498" lon="14.2445917"><ele>88.0</ele><time>2026-04-09T12:18:11.688Z</time></trkpt><trkpt lat="40.9150033" lon="14.2444733"><ele>88.0</ele><time>2026-04-09T12:18:12.689Z</time></trkpt><trkpt lat="40.9150267" lon="14.2443533"><ele>88.0</ele><time>2026-04-09T12:18:13.689Z</time></trkpt><trkpt lat="40.9150467" lon="14.2442333"><ele>88.0</ele><time>2026-04-09T12:18:14.687Z</time></trkpt><trkpt lat="40.9150633" lon="14.2441117"><ele>88.0</ele><time>2026-04-09T12:18:15.688Z</time></trkpt><trkpt lat="40.91508" lon="14.2439917"><ele>88.0</ele><time>2026-04-09T12:18:16.689Z</time></trkpt><trkpt lat="40.9150933" lon="14.24387"><ele>88.0</ele><time>2026-04-09T12:18:17.689Z</time></trkpt><trkpt lat="40.9151067" lon="14.24375"><ele>88.0</ele><time>2026-04-09T12:18:18.686Z</time></trkpt><trkpt lat="40.915115" lon="14.2436267"><ele>88.80000000000001</ele><time>2026-04-09T12:18:19.688Z</time></trkpt><trkpt lat="40.91512" lon="14.2435033"><ele>89.6</ele><time>2026-04-09T12:18:20.688Z</time></trkpt><trkpt lat="40.9151233" lon="14.24338"><ele>90.4</ele><time>2026-04-09T12:18:21.687Z</time></trkpt><trkpt lat="40.9151233" lon="14.24326"><ele>91.19999999999999</ele><time>2026-04-09T12:18:22.689Z</time></trkpt><trkpt lat="40.91512" lon="14.243145"><ele>92.0</ele><time>2026-04-09T12:18:23.688Z</time></trkpt><trkpt lat="40.915115" lon="14.2430317"><ele>92.16666666666667</ele><time>2026-04-09T12:18:24.689Z</time></trkpt><trkpt lat="40.9151083" lon="14.24292"><ele>92.33333333333334</ele><time>2026-04-09T12:18:25.687Z</time></trkpt><trkpt lat="40.9150983" lon="14.2428083"><ele>92.5</ele><time>2026-04-09T12:18:26.687Z</time></trkpt><trkpt lat="40.9150883" lon="14.2427"><ele>92.66666666666667</ele><time>2026-04-09T12:18:27.687Z</time></trkpt><trkpt lat="40.9150767" lon="14.2425933"><ele>92.83333333333333</ele><time>2026-04-09T12:18:28.687Z</time></trkpt><trkpt lat="40.915065" lon="14.2424883"><ele>93.0</ele><time>2026-04-09T12:18:29.687Z</time></trkpt><trkpt lat="40.9150533" lon="14.2423867"><ele>92.83333333333333</ele><time>2026-04-09T12:18:30.689Z</time></trkpt><trkpt lat="40.9150383" lon="14.2422817"><ele>92.66666666666667</ele><time>2026-04-09T12:18:31.689Z</time></trkpt><trkpt lat="40.9150233" lon="14.2421783"><ele>92.5</ele><time>2026-04-09T12:18:32.687Z</time></trkpt><trkpt lat="40.915005" lon="14.2420767"><ele>92.33333333333334</ele><time>2026-04-09T12:18:33.687Z</time></trkpt><trkpt lat="40.9149883" lon="14.241975"><ele>92.16666666666667</ele><time>2026-04-09T12:18:34.686Z</time></trkpt><trkpt lat="40.9149717" lon="14.2418767"><ele>92.0</ele><time>2026-04-09T12:18:35.687Z</time></trkpt><trkpt lat="40.91495" lon="14.241785"><ele>92.0</ele><time>2026-04-09T12:18:36.689Z</time></trkpt><trkpt lat="40.91493" lon="14.2416933"><ele>92.0</ele><time>2026-04-09T12:18:37.689Z</time></trkpt><trkpt lat="40.9149117" lon="14.2416067"><ele>92.0</ele><time>2026-04-09T12:18:38.69Z</time></trkpt><trkpt lat="40.9148917" lon="14.241525"><ele>92.0</ele><time>2026-04-09T12:18:39.689Z</time></trkpt><trkpt lat="40.9148717" lon="14.241445"><ele>92.0</ele><time>2026-04-09T12:18:40.689Z</time></trkpt><trkpt lat="40.91485" lon="14.241365"><ele>92.0</ele><time>2026-04-09T12:18:41.689Z</time></trkpt><trkpt lat="40.9148267" lon="14.2412867"><ele>92.0</ele><time>2026-04-09T12:18:42.688Z</time></trkpt><trkpt lat="40.9148017" lon="14.2412083"><ele>92.25</ele><time>2026-04-09T12:18:43.687Z</time></trkpt><trkpt lat="40.9147517" lon="14.2410617"><ele>92.5</ele><time>2026-04-09T12:18:45.687Z</time></trkpt><trkpt lat="40.9147" lon="14.2409183"><ele>92.75</ele><time>2026-04-09T12:18:47.689Z</time></trkpt><trkpt lat="40.9146467" lon="14.240785"><ele>93.0</ele><time>2026-04-09T12:18:49.688Z</time></trkpt><trkpt lat="40.9145933" lon="14.240655"><ele>93.0</ele><time>2026-04-09T12:18:51.687Z</time></trkpt><trkpt lat="40.9145367" lon="14.240535"><ele>93.0</ele><time>2026-04-09T12:18:53.686Z</time></trkpt><trkpt lat="40.91448" lon="14.2404267"><ele>93.0</ele><time>2026-04-09T12:18:55.687Z</time></trkpt><trkpt lat="40.9144267" lon="14.24032"><ele>93.0</ele><time>2026-04-09T12:18:57.687Z</time></trkpt><trkpt lat="40.9143667" lon="14.2402183"><ele>93.0</ele><time>2026-04-09T12:18:59.687Z</time></trkpt><trkpt lat="40.9143083" lon="14.2401083"><ele>93.0</ele><time>2026-04-09T12:19:01.686Z</time></trkpt><trkpt lat="40.914245" lon="14.24"><ele>93.0</ele><time>2026-04-09T12:19:03.687Z</time></trkpt><trkpt lat="40.9141783" lon="14.23989"><ele>93.0</ele><time>2026-04-09T12:19:05.687Z</time></trkpt><trkpt lat="40.9141117" lon="14.2397817"><ele>93.0</ele><time>2026-04-09T12:19:07.689Z</time></trkpt><trkpt lat="40.9140417" lon="14.2396633"><ele>93.0</ele><time>2026-04-09T12:19:09.687Z</time></trkpt><trkpt lat="40.9139717" lon="14.239555"><ele>93.2</ele><time>2026-04-09T12:19:11.687Z</time></trkpt><trkpt lat="40.9138967" lon="14.2394483"><ele>93.4</ele><time>2026-04-09T12:19:13.687Z</time></trkpt><trkpt lat="40.9138233" lon="14.2393417"><ele>93.60000000000001</ele><time>2026-04-09T12:19:15.686Z</time></trkpt><trkpt lat="40.91376" lon="14.2392367"><ele>93.80000000000001</ele><time>2026-04-09T12:19:17.688Z</time></trkpt><trkpt lat="40.9136933" lon="14.2391383"><ele>94.0</ele><time>2026-04-09T12:19:19.69Z</time></trkpt><trkpt lat="40.9136283" lon="14.2390433"><ele>94.4</ele><time>2026-04-09T12:19:21.686Z</time></trkpt><trkpt lat="40.9135667" lon="14.2389383"><ele>94.80000000000001</ele><time>2026-04-09T12:19:23.687Z</time></trkpt><trkpt lat="40.9134967" lon="14.2388367"><ele>95.19999999999999</ele><time>2026-04-09T12:19:25.688Z</time></trkpt><trkpt lat="40.913425" lon="14.2387317"><ele>95.6</ele><time>2026-04-09T12:19:27.687Z</time></trkpt><trkpt lat="40.9133517" lon="14.2386283"><ele>96.0</ele><time>2026-04-09T12:19:29.687Z</time></trkpt><trkpt lat="40.9132783" lon="14.2385167"><ele>96.33333333333333</ele><time>2026-04-09T12:19:31.686Z</time></trkpt><trkpt lat="40.9131967" lon="14.238395"><ele>96.66666666666666</ele><time>2026-04-09T12:19:33.686Z</time></trkpt><trkpt lat="40.9131167" lon="14.2382717"><ele>97.0</ele><time>2026-04-09T12:19:35.688Z</time></trkpt><trkpt lat="40.913075" lon="14.238205"><ele>97.33333333333333</ele><time>2026-04-09T12:19:36.688Z</time></trkpt><trkpt lat="40.9130333" lon="14.2381383"><ele>97.66666666666666</ele><time>2026-04-09T12:19:37.687Z</time></trkpt><trkpt lat="40.9129933" lon="14.23807"><ele>98.0</ele><time>2026-04-09T12:19:38.687Z</time></trkpt><trkpt lat="40.9129483" lon="14.238"><ele>98.33333333333333</ele><time>2026-04-09T12:19:39.687Z</time></trkpt><trkpt lat="40.9129" lon="14.2379317"><ele>98.66666666666666</ele><time>2026-04-09T12:19:40.688Z</time></trkpt><trkpt lat="40.91285" lon="14.2378617"><ele>99.0</ele><time>2026-04-09T12:19:41.688Z</time></trkpt><trkpt lat="40.9127983" lon="14.2377883"><ele>99.33333333333334</ele><time>2026-04-09T12:19:42.686Z</time></trkpt><trkpt lat="40.9127483" lon="14.2377133"><ele>99.66666666666667</ele><time>2026-04-09T12:19:43.688Z</time></trkpt><trkpt lat="40.9126967" lon="14.2376367"><ele>100.0</ele><time>2026-04-09T12:19:44.689Z</time></trkpt><trkpt lat="40.9126433" lon="14.23756"><ele>100.00000000000001</ele><time>2026-04-09T12:19:45.689Z</time></trkpt><trkpt lat="40.91259" lon="14.23748"><ele>100.0</ele><time>2026-04-09T12:19:46.689Z</time></trkpt><trkpt lat="40.9125367" lon="14.2373983"><ele>100.0</ele><time>2026-04-09T12:19:47.686Z</time></trkpt><trkpt lat="40.91248" lon="14.2373167"><ele>100.0</ele><time>2026-04-09T12:19:48.687Z</time></trkpt><trkpt lat="40.91242" lon="14.23724"><ele>100.00000000000001</ele><time>2026-04-09T12:19:49.689Z</time></trkpt><trkpt lat="40.9123583" lon="14.2371633"><ele>100.0</ele><time>2026-04-09T12:19:50.687Z</time></trkpt><trkpt lat="40.9123" lon="14.2370817"><ele>100.33333333333334</ele><time>2026-04-09T12:19:51.685Z</time></trkpt><trkpt lat="40.9122417" lon="14.2369967"><ele>100.66666666666667</ele><time>2026-04-09T12:19:52.685Z</time></trkpt><trkpt lat="40.9121867" lon="14.236915"><ele>101.0</ele><time>2026-04-09T12:19:53.687Z</time></trkpt><trkpt lat="40.91213" lon="14.2368333"><ele>101.33333333333334</ele><time>2026-04-09T12:19:54.688Z</time></trkpt><trkpt lat="40.9120783" lon="14.236755"><ele>101.66666666666667</ele><time>2026-04-09T12:19:55.687Z</time></trkpt><trkpt lat="40.9120267" lon="14.2366717"><ele>102.0</ele><time>2026-04-09T12:19:56.688Z</time></trkpt><trkpt lat="40.9119767" lon="14.2365883"><ele>102.0</ele><time>2026-04-09T12:19:57.688Z</time></trkpt><trkpt lat="40.911925" lon="14.2365083"><ele>102.0</ele><time>2026-04-09T12:19:58.689Z</time></trkpt><trkpt lat="40.9118767" lon="14.2364333"><ele>102.0</ele><time>2026-04-09T12:19:59.686Z</time></trkpt><trkpt lat="40.911835" lon="14.2363633"><ele>102.0</ele><time>2026-04-09T12:20:00.688Z</time></trkpt><trkpt lat="40.9117567" lon="14.2362383"><ele>102.0</ele><time>2026-04-09T12:20:02.686Z</time></trkpt><trkpt lat="40.9116817" lon="14.2361217"><ele>102.0</ele><time>2026-04-09T12:20:04.687Z</time></trkpt><trkpt lat="40.9116233" lon="14.2359983"><ele>102.0</ele><time>2026-04-09T12:20:06.688Z</time></trkpt><trkpt lat="40.9115833" lon="14.2358633"><ele>102.0</ele><time>2026-04-09T12:20:08.685Z</time></trkpt><trkpt lat="40.9115483" lon="14.2357383"><ele>102.0</ele><time>2026-04-09T12:20:10.688Z</time></trkpt><trkpt lat="40.9115083" lon="14.2356383"><ele>102.0</ele><time>2026-04-09T12:20:12.687Z</time></trkpt><trkpt lat="40.911465" lon="14.2355583"><ele>102.0</ele><time>2026-04-09T12:20:14.686Z</time></trkpt><trkpt lat="40.9113933" lon="14.2355017"><ele>102.0</ele><time>2026-04-09T12:20:16.687Z</time></trkpt><trkpt lat="40.9113083" lon="14.23545"><ele>102.0</ele><time>2026-04-09T12:20:18.687Z</time></trkpt><trkpt lat="40.9112217" lon="14.2353833"><ele>102.0</ele><time>2026-04-09T12:20:20.686Z</time></trkpt><trkpt lat="40.9111367" lon="14.23529"><ele>102.0</ele><time>2026-04-09T12:20:22.687Z</time></trkpt><trkpt lat="40.91106" lon="14.2351767"><ele>102.0</ele><time>2026-04-09T12:20:24.687Z</time></trkpt><trkpt lat="40.9109783" lon="14.235055"><ele>102.0</ele><time>2026-04-09T12:20:26.686Z</time></trkpt><trkpt lat="40.910895" lon="14.2349283"><ele>102.0</ele><time>2026-04-09T12:20:28.687Z</time></trkpt><trkpt lat="40.9108517" lon="14.234865"><ele>102.0</ele><time>2026-04-09T12:20:29.688Z</time></trkpt><trkpt lat="40.91077" lon="14.23474"><ele>102.0</ele><time>2026-04-09T12:20:31.689Z</time></trkpt><trkpt lat="40.9107283" lon="14.2346767"><ele>102.19999999999999</ele><time>2026-04-09T12:20:32.687Z</time></trkpt><trkpt lat="40.9106867" lon="14.2346117"><ele>102.4</ele><time>2026-04-09T12:20:33.688Z</time></trkpt><trkpt lat="40.9106167" lon="14.2344833"><ele>102.6</ele><time>2026-04-09T12:20:35.687Z</time></trkpt><trkpt lat="40.9105483" lon="14.2343533"><ele>102.80000000000001</ele><time>2026-04-09T12:20:37.689Z</time></trkpt><trkpt lat="40.91048" lon="14.2342233"><ele>103.0</ele><time>2026-04-09T12:20:39.689Z</time></trkpt><trkpt lat="40.9104167" lon="14.23409"><ele>103.25</ele><time>2026-04-09T12:20:41.689Z</time></trkpt><trkpt lat="40.9103533" lon="14.23395"><ele>103.5</ele><time>2026-04-09T12:20:43.687Z</time></trkpt><trkpt lat="40.9102883" lon="14.233815"><ele>103.75</ele><time>2026-04-09T12:20:45.686Z</time></trkpt><trkpt lat="40.9102317" lon="14.2336767"><ele>104.0</ele><time>2026-04-09T12:20:47.688Z</time></trkpt><trkpt lat="40.910185" lon="14.23354"><ele>104.0</ele><time>2026-04-09T12:20:49.689Z</time></trkpt><trkpt lat="40.91014" lon="14.2333967"><ele>104.0</ele><time>2026-04-09T12:20:51.689Z</time></trkpt><trkpt lat="40.9100967" lon="14.23325"><ele>104.0</ele><time>2026-04-09T12:20:53.688Z</time></trkpt><trkpt lat="40.9100567" lon="14.2331033"><ele>104.0</ele><time>2026-04-09T12:20:55.687Z</time></trkpt><trkpt lat="40.910025" lon="14.2329567"><ele>105.25</ele><time>2026-04-09T12:20:57.686Z</time></trkpt><trkpt lat="40.90999" lon="14.232805"><ele>106.5</ele><time>2026-04-09T12:20:59.685Z</time></trkpt><trkpt lat="40.9099633" lon="14.2326533"><ele>107.75</ele><time>2026-04-09T12:21:01.689Z</time></trkpt><trkpt lat="40.9099333" lon="14.2325"><ele>109.0</ele><time>2026-04-09T12:21:03.689Z</time></trkpt><trkpt lat="40.9099083" lon="14.2323467"><ele>108.25</ele><time>2026-04-09T12:21:05.689Z</time></trkpt><trkpt lat="40.90989" lon="14.2321917"><ele>107.5</ele><time>2026-04-09T12:21:07.686Z</time></trkpt><trkpt lat="40.9098767" lon="14.23204"><ele>106.75</ele><time>2026-04-09T12:21:09.686Z</time></trkpt><trkpt lat="40.9098717" lon="14.231885"><ele>106.0</ele><time>2026-04-09T12:21:11.687Z</time></trkpt><trkpt lat="40.90987" lon="14.2317267"><ele>106.0</ele><time>2026-04-09T12:21:13.687Z</time></trkpt><trkpt lat="40.9098683" lon="14.23157"><ele>106.0</ele><time>2026-04-09T12:21:15.685Z</time></trkpt><trkpt lat="40.9098667" lon="14.2314133"><ele>106.0</ele><time>2026-04-09T12:21:17.686Z</time></trkpt><trkpt lat="40.90987" lon="14.2312517"><ele>106.0</ele><time>2026-04-09T12:21:19.687Z</time></trkpt><trkpt lat="40.909875" lon="14.2311683"><ele>106.0</ele><time>2026-04-09T12:21:20.687Z</time></trkpt><trkpt lat="40.9098933" lon="14.2310033"><ele>106.4</ele><time>2026-04-09T12:21:22.686Z</time></trkpt><trkpt lat="40.90991" lon="14.2308417"><ele>106.8</ele><time>2026-04-09T12:21:24.687Z</time></trkpt><trkpt lat="40.9099333" lon="14.2306783"><ele>107.20000000000002</ele><time>2026-04-09T12:21:26.687Z</time></trkpt><trkpt lat="40.9099467" lon="14.230595"><ele>107.60000000000001</ele><time>2026-04-09T12:21:27.687Z</time></trkpt><trkpt lat="40.90998" lon="14.2304333"><ele>108.0</ele><time>2026-04-09T12:21:29.686Z</time></trkpt><trkpt lat="40.9100167" lon="14.230275"><ele>108.0</ele><time>2026-04-09T12:21:31.686Z</time></trkpt><trkpt lat="40.9100367" lon="14.230195"><ele>108.00000000000001</ele><time>2026-04-09T12:21:32.688Z</time></trkpt><trkpt lat="40.910075" lon="14.2300433"><ele>108.00000000000001</ele><time>2026-04-09T12:21:34.688Z</time></trkpt><trkpt lat="40.91012" lon="14.2298917"><ele>108.0</ele><time>2026-04-09T12:21:36.688Z</time></trkpt><trkpt lat="40.9101683" lon="14.2297367"><ele>108.0</ele><time>2026-04-09T12:21:38.687Z</time></trkpt><trkpt lat="40.9102217" lon="14.2295833"><ele>108.0</ele><time>2026-04-09T12:21:40.686Z</time></trkpt><trkpt lat="40.9102467" lon="14.2295033"><ele>108.0</ele><time>2026-04-09T12:21:41.688Z</time></trkpt><trkpt lat="40.9102733" lon="14.2294217"><ele>108.0</ele><time>2026-04-09T12:21:42.688Z</time></trkpt><trkpt lat="40.9103" lon="14.2293433"><ele>108.0</ele><time>2026-04-09T12:21:43.688Z</time></trkpt><trkpt lat="40.9103283" lon="14.2292683"><ele>108.0</ele><time>2026-04-09T12:21:44.686Z</time></trkpt><trkpt lat="40.9103583" lon="14.2291933"><ele>108.0</ele><time>2026-04-09T12:21:45.686Z</time></trkpt><trkpt lat="40.91039" lon="14.22912"><ele>108.0</ele><time>2026-04-09T12:21:46.686Z</time></trkpt><trkpt lat="40.91042" lon="14.229045"><ele>108.14285714285714</ele><time>2026-04-09T12:21:47.686Z</time></trkpt><trkpt lat="40.910445" lon="14.2289633"><ele>108.28571428571428</ele><time>2026-04-09T12:21:48.686Z</time></trkpt><trkpt lat="40.9104717" lon="14.22888"><ele>108.42857142857143</ele><time>2026-04-09T12:21:49.688Z</time></trkpt><trkpt lat="40.9105" lon="14.2288033"><ele>108.57142857142857</ele><time>2026-04-09T12:21:50.69Z</time></trkpt><trkpt lat="40.9105283" lon="14.2287267"><ele>108.71428571428572</ele><time>2026-04-09T12:21:51.689Z</time></trkpt><trkpt lat="40.9105583" lon="14.228645"><ele>108.85714285714286</ele><time>2026-04-09T12:21:52.687Z</time></trkpt><trkpt lat="40.9105883" lon="14.2285633"><ele>109.0</ele><time>2026-04-09T12:21:53.687Z</time></trkpt><trkpt lat="40.9106183" lon="14.2284833"><ele>109.0</ele><time>2026-04-09T12:21:54.688Z</time></trkpt><trkpt lat="40.9106467" lon="14.2284017"><ele>109.0</ele><time>2026-04-09T12:21:55.687Z</time></trkpt><trkpt lat="40.9106783" lon="14.2283183"><ele>109.0</ele><time>2026-04-09T12:21:56.687Z</time></trkpt><trkpt lat="40.9107083" lon="14.2282367"><ele>109.0</ele><time>2026-04-09T12:21:57.685Z</time></trkpt><trkpt lat="40.9107383" lon="14.2281567"><ele>109.0</ele><time>2026-04-09T12:21:58.686Z</time></trkpt><trkpt lat="40.9107683" lon="14.2280783"><ele>109.0</ele><time>2026-04-09T12:21:59.687Z</time></trkpt><trkpt lat="40.9108" lon="14.2280033"><ele>109.0</ele><time>2026-04-09T12:22:00.689Z</time></trkpt><trkpt lat="40.9108333" lon="14.2279283"><ele>109.14285714285714</ele><time>2026-04-09T12:22:01.688Z</time></trkpt><trkpt lat="40.9108667" lon="14.2278467"><ele>109.28571428571429</ele><time>2026-04-09T12:22:02.687Z</time></trkpt><trkpt lat="40.9108967" lon="14.227765"><ele>109.42857142857142</ele><time>2026-04-09T12:22:03.685Z</time></trkpt><trkpt lat="40.9109267" lon="14.2276833"><ele>109.57142857142857</ele><time>2026-04-09T12:22:04.689Z</time></trkpt><trkpt lat="40.910955" lon="14.2276067"><ele>109.71428571428571</ele><time>2026-04-09T12:22:05.687Z</time></trkpt><trkpt lat="40.9109867" lon="14.227525"><ele>109.85714285714285</ele><time>2026-04-09T12:22:06.687Z</time></trkpt><trkpt lat="40.9110267" lon="14.2274483"><ele>110.0</ele><time>2026-04-09T12:22:07.687Z</time></trkpt><trkpt lat="40.9110617" lon="14.227365"><ele>109.99999999999999</ele><time>2026-04-09T12:22:08.687Z</time></trkpt><trkpt lat="40.9110917" lon="14.22728"><ele>110.0</ele><time>2026-04-09T12:22:09.687Z</time></trkpt><trkpt lat="40.9111183" lon="14.2272033"><ele>110.0</ele><time>2026-04-09T12:22:10.687Z</time></trkpt><trkpt lat="40.9111467" lon="14.227125"><ele>110.0</ele><time>2026-04-09T12:22:11.686Z</time></trkpt><trkpt lat="40.91118" lon="14.2270433"><ele>110.0</ele><time>2026-04-09T12:22:12.687Z</time></trkpt><trkpt lat="40.9112083" lon="14.22696"><ele>109.99999999999999</ele><time>2026-04-09T12:22:13.687Z</time></trkpt><trkpt lat="40.9112383" lon="14.2268767"><ele>110.0</ele><time>2026-04-09T12:22:14.686Z</time></trkpt><trkpt lat="40.911265" lon="14.2267917"><ele>109.99999999999999</ele><time>2026-04-09T12:22:15.685Z</time></trkpt><trkpt lat="40.911295" lon="14.226705"><ele>110.0</ele><time>2026-04-09T12:22:16.687Z</time></trkpt><trkpt lat="40.9113233" lon="14.2266183"><ele>110.0</ele><time>2026-04-09T12:22:17.687Z</time></trkpt><trkpt lat="40.9113517" lon="14.2265283"><ele>110.0</ele><time>2026-04-09T12:22:18.687Z</time></trkpt><trkpt lat="40.91138" lon="14.2264367"><ele>110.0</ele><time>2026-04-09T12:22:19.688Z</time></trkpt><trkpt lat="40.9114117" lon="14.2263483"><ele>109.99999999999999</ele><time>2026-04-09T12:22:20.685Z</time></trkpt><trkpt lat="40.9114467" lon="14.22626"><ele>110.0</ele><time>2026-04-09T12:22:21.686Z</time></trkpt><trkpt lat="40.91148" lon="14.2261717"><ele>110.14285714285714</ele><time>2026-04-09T12:22:22.686Z</time></trkpt><trkpt lat="40.9115133" lon="14.2260817"><ele>110.28571428571428</ele><time>2026-04-09T12:22:23.69Z</time></trkpt><trkpt lat="40.911545" lon="14.2259933"><ele>110.42857142857142</ele><time>2026-04-09T12:22:24.687Z</time></trkpt><trkpt lat="40.9115783" lon="14.2259067"><ele>110.57142857142857</ele><time>2026-04-09T12:22:25.687Z</time></trkpt><trkpt lat="40.9116083" lon="14.2258267"><ele>110.71428571428572</ele><time>2026-04-09T12:22:26.689Z</time></trkpt><trkpt lat="40.91164" lon="14.2257433"><ele>110.85714285714285</ele><time>2026-04-09T12:22:27.686Z</time></trkpt><trkpt lat="40.91167" lon="14.2256583"><ele>111.0</ele><time>2026-04-09T12:22:28.687Z</time></trkpt><trkpt lat="40.9117" lon="14.225575"><ele>111.0</ele><time>2026-04-09T12:22:29.687Z</time></trkpt><trkpt lat="40.9117317" lon="14.2254883"><ele>111.0</ele><time>2026-04-09T12:22:30.687Z</time></trkpt><trkpt lat="40.9117633" lon="14.225405"><ele>111.0</ele><time>2026-04-09T12:22:31.687Z</time></trkpt><trkpt lat="40.9118" lon="14.22532"><ele>111.0</ele><time>2026-04-09T12:22:32.687Z</time></trkpt><trkpt lat="40.911835" lon="14.2252333"><ele>111.0</ele><time>2026-04-09T12:22:33.689Z</time></trkpt><trkpt lat="40.911865" lon="14.2251467"><ele>111.0</ele><time>2026-04-09T12:22:34.687Z</time></trkpt><trkpt lat="40.911895" lon="14.2250567"><ele>111.0</ele><time>2026-04-09T12:22:35.688Z</time></trkpt><trkpt lat="40.9119267" lon="14.2249667"><ele>110.85714285714285</ele><time>2026-04-09T12:22:36.686Z</time></trkpt><trkpt lat="40.91196" lon="14.22488"><ele>110.71428571428572</ele><time>2026-04-09T12:22:37.685Z</time></trkpt><trkpt lat="40.9119933" lon="14.224795"><ele>110.57142857142857</ele><time>2026-04-09T12:22:38.686Z</time></trkpt><trkpt lat="40.9120283" lon="14.22471"><ele>110.42857142857142</ele><time>2026-04-09T12:22:39.688Z</time></trkpt><trkpt lat="40.912065" lon="14.2246217"><ele>110.28571428571428</ele><time>2026-04-09T12:22:40.687Z</time></trkpt><trkpt lat="40.9121" lon="14.224535"><ele>110.14285714285714</ele><time>2026-04-09T12:22:41.685Z</time></trkpt><trkpt lat="40.91213" lon="14.224445"><ele>110.0</ele><time>2026-04-09T12:22:42.688Z</time></trkpt><trkpt lat="40.91216" lon="14.2243567"><ele>109.99999999999999</ele><time>2026-04-09T12:22:43.686Z</time></trkpt><trkpt lat="40.9121967" lon="14.2242667"><ele>110.0</ele><time>2026-04-09T12:22:44.685Z</time></trkpt><trkpt lat="40.9122317" lon="14.2241783"><ele>110.0</ele><time>2026-04-09T12:22:45.69Z</time></trkpt><trkpt lat="40.9122633" lon="14.2240967"><ele>110.0</ele><time>2026-04-09T12:22:46.687Z</time></trkpt><trkpt lat="40.9122967" lon="14.22401"><ele>110.0</ele><time>2026-04-09T12:22:47.686Z</time></trkpt><trkpt lat="40.91233" lon="14.22392"><ele>109.99999999999999</ele><time>2026-04-09T12:22:48.686Z</time></trkpt><trkpt lat="40.9123617" lon="14.2238267"><ele>110.0</ele><time>2026-04-09T12:22:49.685Z</time></trkpt><trkpt lat="40.9123967" lon="14.223735"><ele>110.16666666666666</ele><time>2026-04-09T12:22:50.686Z</time></trkpt><trkpt lat="40.91243" lon="14.223645"><ele>110.33333333333333</ele><time>2026-04-09T12:22:51.686Z</time></trkpt><trkpt lat="40.9124667" lon="14.223555"><ele>110.5</ele><time>2026-04-09T12:22:52.687Z</time></trkpt><trkpt lat="40.9124967" lon="14.223465"><ele>110.66666666666666</ele><time>2026-04-09T12:22:53.687Z</time></trkpt><trkpt lat="40.9125283" lon="14.2233767"><ele>110.83333333333333</ele><time>2026-04-09T12:22:54.685Z</time></trkpt><trkpt lat="40.9125567" lon="14.2232833"><ele>111.0</ele><time>2026-04-09T12:22:55.686Z</time></trkpt><trkpt lat="40.91259" lon="14.2231933"><ele>110.85714285714285</ele><time>2026-04-09T12:22:56.685Z</time></trkpt><trkpt lat="40.9126217" lon="14.2231067"><ele>110.71428571428572</ele><time>2026-04-09T12:22:57.686Z</time></trkpt><trkpt lat="40.9126533" lon="14.2230183"><ele>110.57142857142857</ele><time>2026-04-09T12:22:58.687Z</time></trkpt><trkpt lat="40.9126867" lon="14.22293"><ele>110.42857142857142</ele><time>2026-04-09T12:22:59.686Z</time></trkpt><trkpt lat="40.91272" lon="14.22284"><ele>110.28571428571428</ele><time>2026-04-09T12:23:00.687Z</time></trkpt><trkpt lat="40.9127533" lon="14.22275"><ele>110.14285714285714</ele><time>2026-04-09T12:23:01.687Z</time></trkpt><trkpt lat="40.912785" lon="14.2226633"><ele>110.0</ele><time>2026-04-09T12:23:02.687Z</time></trkpt><trkpt lat="40.9128183" lon="14.2225767"><ele>109.99999999999999</ele><time>2026-04-09T12:23:03.686Z</time></trkpt><trkpt lat="40.912855" lon="14.2224867"><ele>110.0</ele><time>2026-04-09T12:23:04.687Z</time></trkpt><trkpt lat="40.91289" lon="14.2223967"><ele>110.0</ele><time>2026-04-09T12:23:05.688Z</time></trkpt><trkpt lat="40.9129233" lon="14.222305"><ele>110.0</ele><time>2026-04-09T12:23:06.688Z</time></trkpt><trkpt lat="40.912955" lon="14.222215"><ele>109.99999999999999</ele><time>2026-04-09T12:23:07.69Z</time></trkpt><trkpt lat="40.9129833" lon="14.2221217"><ele>110.0</ele><time>2026-04-09T12:23:08.685Z</time></trkpt><trkpt lat="40.9130167" lon="14.22203"><ele>109.83333333333333</ele><time>2026-04-09T12:23:09.686Z</time></trkpt><trkpt lat="40.9130483" lon="14.2219383"><ele>109.66666666666666</ele><time>2026-04-09T12:23:10.689Z</time></trkpt><trkpt lat="40.9130817" lon="14.2218483"><ele>109.5</ele><time>2026-04-09T12:23:11.686Z</time></trkpt><trkpt lat="40.913115" lon="14.2217533"><ele>109.33333333333334</ele><time>2026-04-09T12:23:12.686Z</time></trkpt><trkpt lat="40.91315" lon="14.2216633"><ele>109.16666666666667</ele><time>2026-04-09T12:23:13.688Z</time></trkpt><trkpt lat="40.9131817" lon="14.2215733"><ele>109.0</ele><time>2026-04-09T12:23:14.686Z</time></trkpt><trkpt lat="40.9132183" lon="14.2214833"><ele>109.16666666666667</ele><time>2026-04-09T12:23:15.687Z</time></trkpt><trkpt lat="40.9132533" lon="14.2213917"><ele>109.33333333333334</ele><time>2026-04-09T12:23:16.687Z</time></trkpt><trkpt lat="40.9132867" lon="14.2212967"><ele>109.5</ele><time>2026-04-09T12:23:17.688Z</time></trkpt><trkpt lat="40.9133183" lon="14.2212033"><ele>109.66666666666666</ele><time>2026-04-09T12:23:18.688Z</time></trkpt><trkpt lat="40.9133517" lon="14.2211117"><ele>109.83333333333333</ele><time>2026-04-09T12:23:19.687Z</time></trkpt><trkpt lat="40.9133867" lon="14.22102"><ele>110.0</ele><time>2026-04-09T12:23:20.688Z</time></trkpt><trkpt lat="40.9134267" lon="14.22093"><ele>109.99999999999999</ele><time>2026-04-09T12:23:21.686Z</time></trkpt><trkpt lat="40.9134583" lon="14.2208383"><ele>110.0</ele><time>2026-04-09T12:23:22.686Z</time></trkpt><trkpt lat="40.9134883" lon="14.2207517"><ele>110.0</ele><time>2026-04-09T12:23:23.687Z</time></trkpt><trkpt lat="40.91352" lon="14.220665"><ele>110.0</ele><time>2026-04-09T12:23:24.686Z</time></trkpt><trkpt lat="40.9135533" lon="14.220575"><ele>110.0</ele><time>2026-04-09T12:23:25.686Z</time></trkpt><trkpt lat="40.9135883" lon="14.2204883"><ele>109.99999999999999</ele><time>2026-04-09T12:23:26.689Z</time></trkpt><trkpt lat="40.9136267" lon="14.2203983"><ele>110.0</ele><time>2026-04-09T12:23:27.685Z</time></trkpt><trkpt lat="40.9136667" lon="14.22031"><ele>109.99999999999999</ele><time>2026-04-09T12:23:28.689Z</time></trkpt><trkpt lat="40.9137067" lon="14.2202233"><ele>110.0</ele><time>2026-04-09T12:23:29.689Z</time></trkpt><trkpt lat="40.9137417" lon="14.2201433"><ele>110.0</ele><time>2026-04-09T12:23:30.686Z</time></trkpt><trkpt lat="40.91377" lon="14.22006"><ele>110.0</ele><time>2026-04-09T12:23:31.689Z</time></trkpt><trkpt lat="40.9137983" lon="14.2199767"><ele>110.0</ele><time>2026-04-09T12:23:32.686Z</time></trkpt><trkpt lat="40.9138267" lon="14.2198917"><ele>109.99999999999999</ele><time>2026-04-09T12:23:33.686Z</time></trkpt><trkpt lat="40.913855" lon="14.2198"><ele>110.0</ele><time>2026-04-09T12:23:34.689Z</time></trkpt><trkpt lat="40.9138817" lon="14.2197067"><ele>109.83333333333333</ele><time>2026-04-09T12:23:35.69Z</time></trkpt><trkpt lat="40.9139033" lon="14.2196133"><ele>109.66666666666666</ele><time>2026-04-09T12:23:36.687Z</time></trkpt><trkpt lat="40.9139317" lon="14.2195233"><ele>109.5</ele><time>2026-04-09T12:23:37.688Z</time></trkpt><trkpt lat="40.9139617" lon="14.2194367"><ele>109.33333333333334</ele><time>2026-04-09T12:23:38.686Z</time></trkpt><trkpt lat="40.9139933" lon="14.2193467"><ele>109.16666666666667</ele><time>2026-04-09T12:23:39.686Z</time></trkpt><trkpt lat="40.9140283" lon="14.219255"><ele>109.0</ele><time>2026-04-09T12:23:40.686Z</time></trkpt><trkpt lat="40.9140683" lon="14.2191617"><ele>109.00000000000001</ele><time>2026-04-09T12:23:41.689Z</time></trkpt><trkpt lat="40.9141" lon="14.219075"><ele>109.0</ele><time>2026-04-09T12:23:42.689Z</time></trkpt><trkpt lat="40.91413" lon="14.2189867"><ele>109.0</ele><time>2026-04-09T12:23:43.687Z</time></trkpt><trkpt lat="40.91416" lon="14.2189"><ele>109.0</ele><time>2026-04-09T12:23:44.689Z</time></trkpt><trkpt lat="40.91419" lon="14.2188233"><ele>109.00000000000001</ele><time>2026-04-09T12:23:45.687Z</time></trkpt><trkpt lat="40.914215" lon="14.2187467"><ele>109.0</ele><time>2026-04-09T12:23:46.687Z</time></trkpt><trkpt lat="40.9142733" lon="14.2185967"><ele>108.83333333333334</ele><time>2026-04-09T12:23:48.686Z</time></trkpt><trkpt lat="40.9143" lon="14.2185167"><ele>108.66666666666667</ele><time>2026-04-09T12:23:49.687Z</time></trkpt><trkpt lat="40.9143283" lon="14.2184367"><ele>108.5</ele><time>2026-04-09T12:23:50.686Z</time></trkpt><trkpt lat="40.9143583" lon="14.2183583"><ele>108.33333333333334</ele><time>2026-04-09T12:23:51.687Z</time></trkpt><trkpt lat="40.9143917" lon="14.2182867"><ele>108.16666666666667</ele><time>2026-04-09T12:23:52.687Z</time></trkpt><trkpt lat="40.9144717" lon="14.2181733"><ele>108.0</ele><time>2026-04-09T12:23:54.687Z</time></trkpt><trkpt lat="40.9145367" lon="14.218105"><ele>108.0</ele><time>2026-04-09T12:23:56.69Z</time></trkpt><trkpt lat="40.9146183" lon="14.2180433"><ele>108.00000000000001</ele><time>2026-04-09T12:24:00.689Z</time></trkpt><trkpt lat="40.91467" lon="14.2179567"><ele>108.00000000000001</ele><time>2026-04-09T12:24:02.687Z</time></trkpt><trkpt lat="40.9147083" lon="14.2178317"><ele>108.0</ele><time>2026-04-09T12:24:04.689Z</time></trkpt><trkpt lat="40.9147333" lon="14.2176783"><ele>108.0</ele><time>2026-04-09T12:24:06.687Z</time></trkpt><trkpt lat="40.914745" lon="14.217595"><ele>108.0</ele><time>2026-04-09T12:24:07.688Z</time></trkpt><trkpt lat="40.914755" lon="14.2175083"><ele>108.0</ele><time>2026-04-09T12:24:08.689Z</time></trkpt><trkpt lat="40.9147667" lon="14.21742"><ele>108.0</ele><time>2026-04-09T12:24:09.686Z</time></trkpt><trkpt lat="40.9147833" lon="14.2173333"><ele>108.0</ele><time>2026-04-09T12:24:10.687Z</time></trkpt><trkpt lat="40.9148067" lon="14.2172483"><ele>108.0</ele><time>2026-04-09T12:24:11.688Z</time></trkpt><trkpt lat="40.9148317" lon="14.2171667"><ele>108.0</ele><time>2026-04-09T12:24:12.687Z</time></trkpt><trkpt lat="40.9148567" lon="14.2170867"><ele>108.0</ele><time>2026-04-09T12:24:13.691Z</time></trkpt><trkpt lat="40.9148867" lon="14.217005"><ele>108.42857142857143</ele><time>2026-04-09T12:24:14.688Z</time></trkpt><trkpt lat="40.9149183" lon="14.2169233"><ele>108.85714285714286</ele><time>2026-04-09T12:24:15.687Z</time></trkpt><trkpt lat="40.9149483" lon="14.216845"><ele>109.28571428571428</ele><time>2026-04-09T12:24:16.686Z</time></trkpt><trkpt lat="40.9149783" lon="14.2167683"><ele>109.71428571428572</ele><time>2026-04-09T12:24:17.689Z</time></trkpt><trkpt lat="40.91501" lon="14.21669"><ele>110.14285714285715</ele><time>2026-04-09T12:24:18.686Z</time></trkpt><trkpt lat="40.9150417" lon="14.21661"><ele>110.57142857142857</ele><time>2026-04-09T12:24:19.688Z</time></trkpt><trkpt lat="40.9150717" lon="14.2165267"><ele>111.0</ele><time>2026-04-09T12:24:20.687Z</time></trkpt><trkpt lat="40.9151017" lon="14.216445"><ele>111.14285714285714</ele><time>2026-04-09T12:24:21.686Z</time></trkpt><trkpt lat="40.9151333" lon="14.2163633"><ele>111.28571428571429</ele><time>2026-04-09T12:24:22.686Z</time></trkpt><trkpt lat="40.915165" lon="14.2162833"><ele>111.42857142857143</ele><time>2026-04-09T12:24:23.688Z</time></trkpt><trkpt lat="40.9151967" lon="14.2162017"><ele>111.57142857142857</ele><time>2026-04-09T12:24:24.688Z</time></trkpt><trkpt lat="40.9152267" lon="14.2161183"><ele>111.71428571428572</ele><time>2026-04-09T12:24:25.691Z</time></trkpt><trkpt lat="40.915255" lon="14.2160367"><ele>111.85714285714286</ele><time>2026-04-09T12:24:26.689Z</time></trkpt><trkpt lat="40.9152867" lon="14.2159567"><ele>112.0</ele><time>2026-04-09T12:24:27.686Z</time></trkpt><trkpt lat="40.91532" lon="14.2158767"><ele>112.0</ele><time>2026-04-09T12:24:28.685Z</time></trkpt><trkpt lat="40.9153517" lon="14.2157933"><ele>112.0</ele><time>2026-04-09T12:24:29.69Z</time></trkpt><trkpt lat="40.9153833" lon="14.2157117"><ele>112.0</ele><time>2026-04-09T12:24:30.688Z</time></trkpt><trkpt lat="40.9154117" lon="14.2156283"><ele>112.0</ele><time>2026-04-09T12:24:31.69Z</time></trkpt><trkpt lat="40.91544" lon="14.215545"><ele>112.0</ele><time>2026-04-09T12:24:32.686Z</time></trkpt><trkpt lat="40.9154683" lon="14.2154633"><ele>112.0</ele><time>2026-04-09T12:24:33.687Z</time></trkpt><trkpt lat="40.9154983" lon="14.21538"><ele>112.0</ele><time>2026-04-09T12:24:34.686Z</time></trkpt><trkpt lat="40.9155283" lon="14.2152967"><ele>111.71428571428571</ele><time>2026-04-09T12:24:35.687Z</time></trkpt><trkpt lat="40.9155583" lon="14.2152133"><ele>111.42857142857143</ele><time>2026-04-09T12:24:36.687Z</time></trkpt><trkpt lat="40.91559" lon="14.2151333"><ele>111.14285714285714</ele><time>2026-04-09T12:24:37.688Z</time></trkpt><trkpt lat="40.9156217" lon="14.21505"><ele>110.85714285714286</ele><time>2026-04-09T12:24:38.688Z</time></trkpt><trkpt lat="40.9156517" lon="14.2149683"><ele>110.57142857142857</ele><time>2026-04-09T12:24:39.687Z</time></trkpt><trkpt lat="40.9156833" lon="14.2148867"><ele>110.28571428571428</ele><time>2026-04-09T12:24:40.687Z</time></trkpt><trkpt lat="40.9157167" lon="14.2148033"><ele>110.0</ele><time>2026-04-09T12:24:41.688Z</time></trkpt><trkpt lat="40.9157483" lon="14.2147217"><ele>109.99999999999999</ele><time>2026-04-09T12:24:42.69Z</time></trkpt><trkpt lat="40.91578" lon="14.2146417"><ele>110.0</ele><time>2026-04-09T12:24:43.69Z</time></trkpt><trkpt lat="40.91581" lon="14.21456"><ele>110.0</ele><time>2026-04-09T12:24:44.688Z</time></trkpt><trkpt lat="40.9158417" lon="14.2144783"><ele>110.0</ele><time>2026-04-09T12:24:45.689Z</time></trkpt><trkpt lat="40.9158767" lon="14.2143933"><ele>110.0</ele><time>2026-04-09T12:24:46.686Z</time></trkpt><trkpt lat="40.9159083" lon="14.21431"><ele>109.99999999999999</ele><time>2026-04-09T12:24:47.688Z</time></trkpt><trkpt lat="40.9159383" lon="14.214225"><ele>110.0</ele><time>2026-04-09T12:24:48.686Z</time></trkpt><trkpt lat="40.9159667" lon="14.2141367"><ele>109.99999999999999</ele><time>2026-04-09T12:24:49.687Z</time></trkpt><trkpt lat="40.9159983" lon="14.214055"><ele>110.0</ele><time>2026-04-09T12:24:50.686Z</time></trkpt><trkpt lat="40.9160283" lon="14.2139733"><ele>110.0</ele><time>2026-04-09T12:24:51.687Z</time></trkpt><trkpt lat="40.9160583" lon="14.2138917"><ele>110.0</ele><time>2026-04-09T12:24:52.687Z</time></trkpt><trkpt lat="40.91609" lon="14.2138083"><ele>110.0</ele><time>2026-04-09T12:24:53.688Z</time></trkpt><trkpt lat="40.91612" lon="14.2137183"><ele>109.99999999999999</ele><time>2026-04-09T12:24:54.688Z</time></trkpt><trkpt lat="40.9161467" lon="14.2136283"><ele>110.0</ele><time>2026-04-09T12:24:55.687Z</time></trkpt><trkpt lat="40.9161717" lon="14.21354"><ele>109.99999999999999</ele><time>2026-04-09T12:24:56.69Z</time></trkpt><trkpt lat="40.9161933" lon="14.2134517"><ele>110.0</ele><time>2026-04-09T12:24:57.687Z</time></trkpt><trkpt lat="40.9162183" lon="14.2133633"><ele>110.0</ele><time>2026-04-09T12:24:58.687Z</time></trkpt><trkpt lat="40.91624" lon="14.2132733"><ele>110.0</ele><time>2026-04-09T12:24:59.689Z</time></trkpt><trkpt lat="40.9162617" lon="14.21318"><ele>110.0</ele><time>2026-04-09T12:25:00.689Z</time></trkpt><trkpt lat="40.9162817" lon="14.2130867"><ele>109.99999999999999</ele><time>2026-04-09T12:25:01.688Z</time></trkpt><trkpt lat="40.9163" lon="14.2129917"><ele>110.0</ele><time>2026-04-09T12:25:02.689Z</time></trkpt><trkpt lat="40.916315" lon="14.2128967"><ele>109.99999999999999</ele><time>2026-04-09T12:25:03.686Z</time></trkpt><trkpt lat="40.91633" lon="14.2128033"><ele>110.0</ele><time>2026-04-09T12:25:04.688Z</time></trkpt><trkpt lat="40.9163433" lon="14.21271"><ele>110.0</ele><time>2026-04-09T12:25:05.687Z</time></trkpt><trkpt lat="40.916355" lon="14.212615"><ele>110.0</ele><time>2026-04-09T12:25:06.687Z</time></trkpt><trkpt lat="40.9163633" lon="14.2125183"><ele>110.0</ele><time>2026-04-09T12:25:07.688Z</time></trkpt><trkpt lat="40.9163717" lon="14.21242"><ele>109.99999999999999</ele><time>2026-04-09T12:25:08.687Z</time></trkpt><trkpt lat="40.91638" lon="14.21232"><ele>110.0</ele><time>2026-04-09T12:25:09.685Z</time></trkpt><trkpt lat="40.9163883" lon="14.21222"><ele>110.28571428571428</ele><time>2026-04-09T12:25:10.687Z</time></trkpt><trkpt lat="40.916395" lon="14.21212"><ele>110.57142857142857</ele><time>2026-04-09T12:25:11.687Z</time></trkpt><trkpt lat="40.9164017" lon="14.21202"><ele>110.85714285714286</ele><time>2026-04-09T12:25:12.686Z</time></trkpt><trkpt lat="40.9164083" lon="14.21192"><ele>111.14285714285714</ele><time>2026-04-09T12:25:13.688Z</time></trkpt><trkpt lat="40.9164167" lon="14.2118217"><ele>111.42857142857143</ele><time>2026-04-09T12:25:14.686Z</time></trkpt><trkpt lat="40.9164233" lon="14.211725"><ele>111.71428571428571</ele><time>2026-04-09T12:25:15.689Z</time></trkpt><trkpt lat="40.91643" lon="14.21163"><ele>112.0</ele><time>2026-04-09T12:25:16.687Z</time></trkpt><trkpt lat="40.916435" lon="14.2115333"><ele>111.83333333333334</ele><time>2026-04-09T12:25:17.688Z</time></trkpt><trkpt lat="40.91644" lon="14.2114367"><ele>111.66666666666667</ele><time>2026-04-09T12:25:18.686Z</time></trkpt><trkpt lat="40.9164433" lon="14.211335"><ele>111.5</ele><time>2026-04-09T12:25:19.688Z</time></trkpt><trkpt lat="40.9164467" lon="14.2112333"><ele>111.33333333333334</ele><time>2026-04-09T12:25:20.687Z</time></trkpt><trkpt lat="40.9164567" lon="14.2111317"><ele>111.16666666666667</ele><time>2026-04-09T12:25:21.687Z</time></trkpt><trkpt lat="40.916465" lon="14.2110267"><ele>111.0</ele><time>2026-04-09T12:25:22.687Z</time></trkpt><trkpt lat="40.9164717" lon="14.2109217"><ele>111.0</ele><time>2026-04-09T12:25:23.688Z</time></trkpt><trkpt lat="40.91648" lon="14.2108233"><ele>111.0</ele><time>2026-04-09T12:25:24.686Z</time></trkpt><trkpt lat="40.9164883" lon="14.210725"><ele>111.0</ele><time>2026-04-09T12:25:25.687Z</time></trkpt><trkpt lat="40.9164967" lon="14.2106283"><ele>111.0</ele><time>2026-04-09T12:25:26.686Z</time></trkpt><trkpt lat="40.9165033" lon="14.2105333"><ele>111.0</ele><time>2026-04-09T12:25:27.686Z</time></trkpt><trkpt lat="40.9165083" lon="14.2104383"><ele>111.0</ele><time>2026-04-09T12:25:28.686Z</time></trkpt><trkpt lat="40.916515" lon="14.2103433"><ele>111.0</ele><time>2026-04-09T12:25:29.688Z</time></trkpt><trkpt lat="40.9165217" lon="14.2102467"><ele>111.0</ele><time>2026-04-09T12:25:30.688Z</time></trkpt><trkpt lat="40.9165267" lon="14.2101483"><ele>111.0</ele><time>2026-04-09T12:25:31.688Z</time></trkpt><trkpt lat="40.91653" lon="14.2100483"><ele>111.0</ele><time>2026-04-09T12:25:32.687Z</time></trkpt><trkpt lat="40.9165367" lon="14.2099483"><ele>111.0</ele><time>2026-04-09T12:25:33.685Z</time></trkpt><trkpt lat="40.91654" lon="14.2098483"><ele>111.0</ele><time>2026-04-09T12:25:34.688Z</time></trkpt><trkpt lat="40.9165467" lon="14.2097467"><ele>111.0</ele><time>2026-04-09T12:25:35.687Z</time></trkpt><trkpt lat="40.916555" lon="14.20965"><ele>110.6</ele><time>2026-04-09T12:25:36.687Z</time></trkpt><trkpt lat="40.91656" lon="14.20955"><ele>110.19999999999999</ele><time>2026-04-09T12:25:37.688Z</time></trkpt><trkpt lat="40.9165667" lon="14.2094533"><ele>109.80000000000001</ele><time>2026-04-09T12:25:38.686Z</time></trkpt><trkpt lat="40.9165733" lon="14.2093633"><ele>109.4</ele><time>2026-04-09T12:25:39.686Z</time></trkpt><trkpt lat="40.916605" lon="14.209205"><ele>109.0</ele><time>2026-04-09T12:25:41.688Z</time></trkpt><trkpt lat="40.9166283" lon="14.2090533"><ele>109.33333333333334</ele><time>2026-04-09T12:25:43.688Z</time></trkpt><trkpt lat="40.9166417" lon="14.20892"><ele>109.66666666666667</ele><time>2026-04-09T12:25:45.686Z</time></trkpt><trkpt lat="40.916635" lon="14.208835"><ele>110.0</ele><time>2026-04-09T12:26:10.689Z</time></trkpt><trkpt lat="40.9166433" lon="14.2087417"><ele>110.33333333333334</ele><time>2026-04-09T12:26:13.689Z</time></trkpt><trkpt lat="40.9166517" lon="14.2086517"><ele>110.66666666666667</ele><time>2026-04-09T12:26:15.689Z</time></trkpt><trkpt lat="40.916655" lon="14.2085333"><ele>111.0</ele><time>2026-04-09T12:26:17.689Z</time></trkpt><trkpt lat="40.91666" lon="14.2083983"><ele>111.0</ele><time>2026-04-09T12:26:19.688Z</time></trkpt><trkpt lat="40.9166667" lon="14.2082417"><ele>111.0</ele><time>2026-04-09T12:26:21.689Z</time></trkpt><trkpt lat="40.9166633" lon="14.2080917"><ele>111.0</ele><time>2026-04-09T12:26:23.689Z</time></trkpt><trkpt lat="40.9166633" lon="14.2079333"><ele>111.0</ele><time>2026-04-09T12:26:25.689Z</time></trkpt><trkpt lat="40.9166717" lon="14.2077767"><ele>111.33333333333333</ele><time>2026-04-09T12:26:27.687Z</time></trkpt><trkpt lat="40.9166867" lon="14.2076117"><ele>111.66666666666666</ele><time>2026-04-09T12:26:29.688Z</time></trkpt><trkpt lat="40.9166917" lon="14.207525"><ele>112.0</ele><time>2026-04-09T12:26:30.687Z</time></trkpt><trkpt lat="40.9166983" lon="14.2074383"><ele>112.33333333333333</ele><time>2026-04-09T12:26:31.688Z</time></trkpt><trkpt lat="40.916705" lon="14.20735"><ele>112.66666666666666</ele><time>2026-04-09T12:26:32.688Z</time></trkpt><trkpt lat="40.9167117" lon="14.2072617"><ele>113.0</ele><time>2026-04-09T12:26:33.686Z</time></trkpt><trkpt lat="40.9167217" lon="14.2070967"><ele>113.14285714285714</ele><time>2026-04-09T12:26:35.688Z</time></trkpt><trkpt lat="40.9167267" lon="14.2070083"><ele>113.28571428571428</ele><time>2026-04-09T12:26:36.688Z</time></trkpt><trkpt lat="40.9167317" lon="14.2069217"><ele>113.42857142857142</ele><time>2026-04-09T12:26:37.687Z</time></trkpt><trkpt lat="40.9167383" lon="14.206835"><ele>113.57142857142857</ele><time>2026-04-09T12:26:38.687Z</time></trkpt><trkpt lat="40.9167467" lon="14.2067517"><ele>113.7142857142857</ele><time>2026-04-09T12:26:39.685Z</time></trkpt><trkpt lat="40.916755" lon="14.2066683"><ele>113.85714285714285</ele><time>2026-04-09T12:26:40.688Z</time></trkpt><trkpt lat="40.9167617" lon="14.206585"><ele>114.0</ele><time>2026-04-09T12:26:41.688Z</time></trkpt><trkpt lat="40.9167783" lon="14.206425"><ele>113.6</ele><time>2026-04-09T12:26:43.689Z</time></trkpt><trkpt lat="40.91681" lon="14.2062683"><ele>113.2</ele><time>2026-04-09T12:26:45.686Z</time></trkpt><trkpt lat="40.9168617" lon="14.20612"><ele>112.79999999999998</ele><time>2026-04-09T12:26:47.687Z</time></trkpt><trkpt lat="40.9168933" lon="14.206045"><ele>112.39999999999999</ele><time>2026-04-09T12:26:48.688Z</time></trkpt><trkpt lat="40.91695" lon="14.205905"><ele>112.0</ele><time>2026-04-09T12:26:50.689Z</time></trkpt><trkpt lat="40.91697" lon="14.2057817"><ele>112.0</ele><time>2026-04-09T12:26:52.687Z</time></trkpt><trkpt lat="40.9169217" lon="14.2056833"><ele>111.99999999999999</ele><time>2026-04-09T12:26:55.687Z</time></trkpt><trkpt lat="40.916845" lon="14.205625"><ele>111.99999999999999</ele><time>2026-04-09T12:26:57.686Z</time></trkpt><trkpt lat="40.9167583" lon="14.205585"><ele>112.0</ele><time>2026-04-09T12:26:59.69Z</time></trkpt><trkpt lat="40.916665" lon="14.2056067"><ele>112.0</ele><time>2026-04-09T12:27:01.688Z</time></trkpt><trkpt lat="40.91656" lon="14.205665"><ele>112.19999999999999</ele><time>2026-04-09T12:27:03.689Z</time></trkpt><trkpt lat="40.9164483" lon="14.2057367"><ele>112.39999999999999</ele><time>2026-04-09T12:27:05.688Z</time></trkpt><trkpt lat="40.9163883" lon="14.2057667"><ele>112.60000000000001</ele><time>2026-04-09T12:27:06.687Z</time></trkpt><trkpt lat="40.9163283" lon="14.2057933"><ele>112.80000000000001</ele><time>2026-04-09T12:27:07.688Z</time></trkpt><trkpt lat="40.9162117" lon="14.2058317"><ele>113.0</ele><time>2026-04-09T12:27:09.686Z</time></trkpt><trkpt lat="40.9160933" lon="14.2058483"><ele>112.99999999999999</ele><time>2026-04-09T12:27:11.689Z</time></trkpt><trkpt lat="40.9159833" lon="14.2058533"><ele>113.0</ele><time>2026-04-09T12:27:13.69Z</time></trkpt><trkpt lat="40.9158867" lon="14.2058583"><ele>113.0</ele><time>2026-04-09T12:27:15.686Z</time></trkpt><trkpt lat="40.91582" lon="14.205835"><ele>113.0</ele><time>2026-04-09T12:27:17.687Z</time></trkpt><trkpt lat="40.9157967" lon="14.2057533"><ele>112.99999999999999</ele><time>2026-04-09T12:27:19.688Z</time></trkpt><trkpt lat="40.9158" lon="14.205655"><ele>113.0</ele><time>2026-04-09T12:27:21.687Z</time></trkpt><trkpt lat="40.9158117" lon="14.2055483"><ele>113.4</ele><time>2026-04-09T12:27:23.687Z</time></trkpt><trkpt lat="40.9158017" lon="14.2054317"><ele>113.80000000000001</ele><time>2026-04-09T12:27:25.688Z</time></trkpt><trkpt lat="40.9157967" lon="14.2053"><ele>114.2</ele><time>2026-04-09T12:27:27.686Z</time></trkpt><trkpt lat="40.9157933" lon="14.20516"><ele>114.6</ele><time>2026-04-09T12:27:29.686Z</time></trkpt><trkpt lat="40.9157867" lon="14.2050183"><ele>115.0</ele><time>2026-04-09T12:27:31.688Z</time></trkpt><trkpt lat="40.9157783" lon="14.204875"><ele>115.0</ele><time>2026-04-09T12:27:33.686Z</time></trkpt><trkpt lat="40.9157683" lon="14.204735"><ele>115.0</ele><time>2026-04-09T12:27:35.688Z</time></trkpt><trkpt lat="40.9157667" lon="14.20459"><ele>115.0</ele><time>2026-04-09T12:27:37.688Z</time></trkpt><trkpt lat="40.9157667" lon="14.2044433"><ele>115.0</ele><time>2026-04-09T12:27:39.687Z</time></trkpt><trkpt lat="40.9157633" lon="14.204295"><ele>115.0</ele><time>2026-04-09T12:27:41.687Z</time></trkpt><trkpt lat="40.9157633" lon="14.2041483"><ele>115.0</ele><time>2026-04-09T12:27:43.688Z</time></trkpt><trkpt lat="40.9157633" lon="14.204"><ele>115.0</ele><time>2026-04-09T12:27:45.688Z</time></trkpt><trkpt lat="40.9157733" lon="14.2038483"><ele>115.0</ele><time>2026-04-09T12:27:47.688Z</time></trkpt><trkpt lat="40.915785" lon="14.203695"><ele>115.0</ele><time>2026-04-09T12:27:49.688Z</time></trkpt><trkpt lat="40.9157867" lon="14.2035383"><ele>115.0</ele><time>2026-04-09T12:27:51.686Z</time></trkpt><trkpt lat="40.9157867" lon="14.2033917"><ele>115.0</ele><time>2026-04-09T12:27:53.689Z</time></trkpt><trkpt lat="40.91579" lon="14.2032483"><ele>115.0</ele><time>2026-04-09T12:27:55.689Z</time></trkpt><trkpt lat="40.915785" lon="14.2031033"><ele>115.0</ele><time>2026-04-09T12:27:57.686Z</time></trkpt><trkpt lat="40.9157833" lon="14.20295"><ele>115.0</ele><time>2026-04-09T12:27:59.689Z</time></trkpt><trkpt lat="40.9157833" lon="14.20279"><ele>115.0</ele><time>2026-04-09T12:28:01.687Z</time></trkpt><trkpt lat="40.91578" lon="14.2027067"><ele>115.0</ele><time>2026-04-09T12:28:02.687Z</time></trkpt><trkpt lat="40.915775" lon="14.2026233"><ele>115.0</ele><time>2026-04-09T12:28:03.686Z</time></trkpt><trkpt lat="40.915775" lon="14.202455"><ele>115.0</ele><time>2026-04-09T12:28:05.689Z</time></trkpt><trkpt lat="40.9157667" lon="14.20229"><ele>115.0</ele><time>2026-04-09T12:28:07.688Z</time></trkpt><trkpt lat="40.9157583" lon="14.20213"><ele>115.0</ele><time>2026-04-09T12:28:09.687Z</time></trkpt><trkpt lat="40.9157533" lon="14.201975"><ele>115.0</ele><time>2026-04-09T12:28:11.688Z</time></trkpt><trkpt lat="40.91574" lon="14.2018183"><ele>115.0</ele><time>2026-04-09T12:28:13.691Z</time></trkpt><trkpt lat="40.915735" lon="14.20165"><ele>115.0</ele><time>2026-04-09T12:28:15.687Z</time></trkpt><trkpt lat="40.9157367" lon="14.201565"><ele>115.0</ele><time>2026-04-09T12:28:16.687Z</time></trkpt><trkpt lat="40.9157383" lon="14.2014783"><ele>115.14285714285712</ele><time>2026-04-09T12:28:17.688Z</time></trkpt><trkpt lat="40.9157383" lon="14.2013917"><ele>115.28571428571428</ele><time>2026-04-09T12:28:18.688Z</time></trkpt><trkpt lat="40.9157333" lon="14.2013017"><ele>115.42857142857143</ele><time>2026-04-09T12:28:19.688Z</time></trkpt><trkpt lat="40.9157283" lon="14.20121"><ele>115.57142857142857</ele><time>2026-04-09T12:28:20.688Z</time></trkpt><trkpt lat="40.9157233" lon="14.201115"><ele>115.71428571428572</ele><time>2026-04-09T12:28:21.686Z</time></trkpt><trkpt lat="40.91572" lon="14.201025"><ele>115.85714285714288</ele><time>2026-04-09T12:28:22.687Z</time></trkpt><trkpt lat="40.91572" lon="14.200935"><ele>116.00000000000001</ele><time>2026-04-09T12:28:23.688Z</time></trkpt><trkpt lat="40.9157183" lon="14.2008417"><ele>116.00000000000001</ele><time>2026-04-09T12:28:24.688Z</time></trkpt><trkpt lat="40.9157183" lon="14.2007467"><ele>116.0</ele><time>2026-04-09T12:28:25.688Z</time></trkpt><trkpt lat="40.915715" lon="14.20065"><ele>116.00000000000001</ele><time>2026-04-09T12:28:26.688Z</time></trkpt><trkpt lat="40.915715" lon="14.200555"><ele>116.00000000000001</ele><time>2026-04-09T12:28:27.686Z</time></trkpt><trkpt lat="40.9157117" lon="14.2004583"><ele>116.0</ele><time>2026-04-09T12:28:28.686Z</time></trkpt><trkpt lat="40.9157117" lon="14.2003617"><ele>116.00000000000001</ele><time>2026-04-09T12:28:29.69Z</time></trkpt><trkpt lat="40.915715" lon="14.200265"><ele>116.00000000000001</ele><time>2026-04-09T12:28:30.687Z</time></trkpt><trkpt lat="40.9157183" lon="14.20017"><ele>116.00000000000001</ele><time>2026-04-09T12:28:31.688Z</time></trkpt><trkpt lat="40.9157183" lon="14.2000767"><ele>116.0</ele><time>2026-04-09T12:28:32.687Z</time></trkpt><trkpt lat="40.9157167" lon="14.199985"><ele>116.00000000000001</ele><time>2026-04-09T12:28:33.687Z</time></trkpt><trkpt lat="40.915715" lon="14.19989"><ele>116.00000000000001</ele><time>2026-04-09T12:28:34.687Z</time></trkpt><trkpt lat="40.9157167" lon="14.1997967"><ele>116.0</ele><time>2026-04-09T12:28:35.687Z</time></trkpt><trkpt lat="40.9157167" lon="14.1997033"><ele>116.00000000000001</ele><time>2026-04-09T12:28:36.686Z</time></trkpt><trkpt lat="40.9157167" lon="14.1996133"><ele>116.00000000000001</ele><time>2026-04-09T12:28:37.688Z</time></trkpt><trkpt lat="40.9157183" lon="14.1995267"><ele>115.99999999999999</ele><time>2026-04-09T12:28:38.688Z</time></trkpt><trkpt lat="40.9157267" lon="14.19937"><ele>116.0</ele><time>2026-04-09T12:28:40.688Z</time></trkpt><trkpt lat="40.91573" lon="14.1992567"><ele>116.0</ele><time>2026-04-09T12:28:42.688Z</time></trkpt><trkpt lat="40.9157333" lon="14.1991717"><ele>116.0</ele><time>2026-04-09T12:28:44.685Z</time></trkpt><trkpt lat="40.9157333" lon="14.19908"><ele>115.99999999999999</ele><time>2026-04-09T12:28:46.686Z</time></trkpt><trkpt lat="40.9157367" lon="14.198975"><ele>116.0</ele><time>2026-04-09T12:28:48.688Z</time></trkpt><trkpt lat="40.9157367" lon="14.1988533"><ele>116.0</ele><time>2026-04-09T12:28:50.688Z</time></trkpt><trkpt lat="40.9157367" lon="14.1987167"><ele>116.0</ele><time>2026-04-09T12:28:52.689Z</time></trkpt><trkpt lat="40.9157383" lon="14.19857"><ele>116.0</ele><time>2026-04-09T12:28:54.686Z</time></trkpt><trkpt lat="40.915725" lon="14.1984267"><ele>116.0</ele><time>2026-04-09T12:28:56.686Z</time></trkpt><trkpt lat="40.9157033" lon="14.19826"><ele>115.99999999999999</ele><time>2026-04-09T12:28:58.687Z</time></trkpt><trkpt lat="40.9156933" lon="14.198175"><ele>116.0</ele><time>2026-04-09T12:28:59.688Z</time></trkpt><trkpt lat="40.915685" lon="14.1980883"><ele>116.0</ele><time>2026-04-09T12:29:00.688Z</time></trkpt><trkpt lat="40.9156767" lon="14.198005"><ele>116.0</ele><time>2026-04-09T12:29:01.688Z</time></trkpt><trkpt lat="40.9156617" lon="14.1979183"><ele>115.99999999999999</ele><time>2026-04-09T12:29:02.686Z</time></trkpt><trkpt lat="40.9156383" lon="14.1977567"><ele>116.0</ele><time>2026-04-09T12:29:04.688Z</time></trkpt><trkpt lat="40.9156217" lon="14.1975917"><ele>116.00000000000001</ele><time>2026-04-09T12:29:06.688Z</time></trkpt><trkpt lat="40.915625" lon="14.197505"><ele>116.0</ele><time>2026-04-09T12:29:07.688Z</time></trkpt><trkpt lat="40.9156333" lon="14.1974133"><ele>116.00000000000001</ele><time>2026-04-09T12:29:08.688Z</time></trkpt><trkpt lat="40.9156433" lon="14.19733"><ele>116.00000000000001</ele><time>2026-04-09T12:29:09.687Z</time></trkpt><trkpt lat="40.9156567" lon="14.197245"><ele>116.0</ele><time>2026-04-09T12:29:10.688Z</time></trkpt><trkpt lat="40.9156683" lon="14.1971617"><ele>116.00000000000001</ele><time>2026-04-09T12:29:11.688Z</time></trkpt><trkpt lat="40.9156733" lon="14.1970733"><ele>116.00000000000001</ele><time>2026-04-09T12:29:12.686Z</time></trkpt><trkpt lat="40.9156767" lon="14.1969883"><ele>116.0</ele><time>2026-04-09T12:29:13.688Z</time></trkpt><trkpt lat="40.915675" lon="14.1968267"><ele>116.0</ele><time>2026-04-09T12:29:15.687Z</time></trkpt><trkpt lat="40.9156733" lon="14.196685"><ele>116.0</ele><time>2026-04-09T12:29:17.688Z</time></trkpt><trkpt lat="40.9156717" lon="14.196565"><ele>116.0</ele><time>2026-04-09T12:29:19.688Z</time></trkpt><trkpt lat="40.9156717" lon="14.1964633"><ele>116.0</ele><time>2026-04-09T12:29:21.687Z</time></trkpt><trkpt lat="40.9156767" lon="14.1963433"><ele>116.19999999999999</ele><time>2026-04-09T12:29:24.688Z</time></trkpt><trkpt lat="40.9156733" lon="14.1962583"><ele>116.39999999999999</ele><time>2026-04-09T12:29:26.687Z</time></trkpt><trkpt lat="40.9156833" lon="14.1961567"><ele>116.6</ele><time>2026-04-09T12:29:28.689Z</time></trkpt><trkpt lat="40.9156817" lon="14.1960283"><ele>116.8</ele><time>2026-04-09T12:29:30.687Z</time></trkpt><trkpt lat="40.915685" lon="14.195875"><ele>117.0</ele><time>2026-04-09T12:29:32.687Z</time></trkpt><trkpt lat="40.91569" lon="14.195715"><ele>117.0</ele><time>2026-04-09T12:29:34.687Z</time></trkpt><trkpt lat="40.9156867" lon="14.195545"><ele>117.0</ele><time>2026-04-09T12:29:36.688Z</time></trkpt><trkpt lat="40.9156783" lon="14.19546"><ele>117.0</ele><time>2026-04-09T12:29:37.688Z</time></trkpt><trkpt lat="40.9156683" lon="14.19537"><ele>117.0</ele><time>2026-04-09T12:29:38.688Z</time></trkpt><trkpt lat="40.91566" lon="14.1952767"><ele>117.0</ele><time>2026-04-09T12:29:39.687Z</time></trkpt><trkpt lat="40.9156567" lon="14.1951817"><ele>117.0</ele><time>2026-04-09T12:29:40.688Z</time></trkpt><trkpt lat="40.91565" lon="14.1950867"><ele>117.0</ele><time>2026-04-09T12:29:41.688Z</time></trkpt><trkpt lat="40.9156467" lon="14.1949933"><ele>117.00000000000001</ele><time>2026-04-09T12:29:42.687Z</time></trkpt><trkpt lat="40.9156417" lon="14.1949017"><ele>117.0</ele><time>2026-04-09T12:29:43.688Z</time></trkpt><trkpt lat="40.9156367" lon="14.19481"><ele>117.0</ele><time>2026-04-09T12:29:44.688Z</time></trkpt><trkpt lat="40.9156367" lon="14.1947183"><ele>117.00000000000001</ele><time>2026-04-09T12:29:45.687Z</time></trkpt><trkpt lat="40.9156367" lon="14.1946283"><ele>117.0</ele><time>2026-04-09T12:29:46.686Z</time></trkpt><trkpt lat="40.9156383" lon="14.19454"><ele>117.0</ele><time>2026-04-09T12:29:47.688Z</time></trkpt><trkpt lat="40.91564" lon="14.19445"><ele>117.0</ele><time>2026-04-09T12:29:48.688Z</time></trkpt><trkpt lat="40.9156467" lon="14.1943567"><ele>117.0</ele><time>2026-04-09T12:29:49.69Z</time></trkpt><trkpt lat="40.9156583" lon="14.1942633"><ele>117.0</ele><time>2026-04-09T12:29:50.687Z</time></trkpt><trkpt lat="40.9156783" lon="14.1941767"><ele>117.0</ele><time>2026-04-09T12:29:51.687Z</time></trkpt><trkpt lat="40.915705" lon="14.1940917"><ele>117.0</ele><time>2026-04-09T12:29:52.687Z</time></trkpt><trkpt lat="40.9157467" lon="14.19396"><ele>117.0</ele><time>2026-04-09T12:29:54.686Z</time></trkpt><trkpt lat="40.915755" lon="14.1938417"><ele>117.0</ele><time>2026-04-09T12:29:56.687Z</time></trkpt><trkpt lat="40.9157667" lon="14.1937133"><ele>116.99999999999999</ele><time>2026-04-09T12:29:58.688Z</time></trkpt><trkpt lat="40.91579" lon="14.1935733"><ele>116.99999999999999</ele><time>2026-04-09T12:30:00.687Z</time></trkpt><trkpt lat="40.9158083" lon="14.1934183"><ele>117.0</ele><time>2026-04-09T12:30:02.689Z</time></trkpt><trkpt lat="40.915815" lon="14.1932533"><ele>117.0</ele><time>2026-04-09T12:30:04.689Z</time></trkpt><trkpt lat="40.9158233" lon="14.19317"><ele>117.0</ele><time>2026-04-09T12:30:05.688Z</time></trkpt><trkpt lat="40.91583" lon="14.1930867"><ele>116.99999999999999</ele><time>2026-04-09T12:30:06.688Z</time></trkpt><trkpt lat="40.91583" lon="14.1930017"><ele>116.99999999999999</ele><time>2026-04-09T12:30:07.686Z</time></trkpt><trkpt lat="40.9158317" lon="14.1928367"><ele>117.0</ele><time>2026-04-09T12:30:09.686Z</time></trkpt><trkpt lat="40.9158417" lon="14.1926833"><ele>117.0</ele><time>2026-04-09T12:30:11.686Z</time></trkpt><trkpt lat="40.91583" lon="14.1925183"><ele>117.0</ele><time>2026-04-09T12:30:13.688Z</time></trkpt><trkpt lat="40.91582" lon="14.1923567"><ele>117.0</ele><time>2026-04-09T12:30:15.687Z</time></trkpt><trkpt lat="40.91582" lon="14.1922"><ele>117.0</ele><time>2026-04-09T12:30:17.689Z</time></trkpt><trkpt lat="40.9158133" lon="14.192045"><ele>117.0</ele><time>2026-04-09T12:30:19.688Z</time></trkpt><trkpt lat="40.9157833" lon="14.19189"><ele>117.0</ele><time>2026-04-09T12:30:21.686Z</time></trkpt><trkpt lat="40.9157483" lon="14.1917417"><ele>117.0</ele><time>2026-04-09T12:30:23.686Z</time></trkpt><trkpt lat="40.9157167" lon="14.1915933"><ele>117.0</ele><time>2026-04-09T12:30:25.688Z</time></trkpt><trkpt lat="40.9157083" lon="14.1914333"><ele>117.0</ele><time>2026-04-09T12:30:27.688Z</time></trkpt><trkpt lat="40.9156917" lon="14.1912717"><ele>117.0</ele><time>2026-04-09T12:30:29.687Z</time></trkpt><trkpt lat="40.9156767" lon="14.1911883"><ele>117.00000000000001</ele><time>2026-04-09T12:30:30.686Z</time></trkpt><trkpt lat="40.9156667" lon="14.1911017"><ele>117.0</ele><time>2026-04-09T12:30:31.687Z</time></trkpt><trkpt lat="40.91566" lon="14.1910167"><ele>117.0</ele><time>2026-04-09T12:30:32.686Z</time></trkpt><trkpt lat="40.91566" lon="14.19093"><ele>117.00000000000001</ele><time>2026-04-09T12:30:33.688Z</time></trkpt><trkpt lat="40.91566" lon="14.1908433"><ele>117.0</ele><time>2026-04-09T12:30:34.687Z</time></trkpt><trkpt lat="40.9156633" lon="14.19076"><ele>117.0</ele><time>2026-04-09T12:30:35.688Z</time></trkpt><trkpt lat="40.915665" lon="14.1906767"><ele>117.0</ele><time>2026-04-09T12:30:36.688Z</time></trkpt><trkpt lat="40.9156667" lon="14.1905917"><ele>117.00000000000001</ele><time>2026-04-09T12:30:37.688Z</time></trkpt><trkpt lat="40.9156683" lon="14.190505"><ele>117.0</ele><time>2026-04-09T12:30:38.688Z</time></trkpt><trkpt lat="40.91567" lon="14.19042"><ele>117.0</ele><time>2026-04-09T12:30:39.685Z</time></trkpt><trkpt lat="40.9156733" lon="14.1903367"><ele>117.00000000000001</ele><time>2026-04-09T12:30:40.686Z</time></trkpt><trkpt lat="40.9156767" lon="14.1902533"><ele>117.0</ele><time>2026-04-09T12:30:41.688Z</time></trkpt><trkpt lat="40.9156817" lon="14.1901683"><ele>117.0</ele><time>2026-04-09T12:30:42.687Z</time></trkpt><trkpt lat="40.9156833" lon="14.1900067"><ele>117.0</ele><time>2026-04-09T12:30:44.687Z</time></trkpt><trkpt lat="40.9156833" lon="14.1898533"><ele>116.99999999999999</ele><time>2026-04-09T12:30:46.688Z</time></trkpt><trkpt lat="40.9156717" lon="14.1897033"><ele>116.99999999999999</ele><time>2026-04-09T12:30:48.687Z</time></trkpt><trkpt lat="40.9156583" lon="14.18956"><ele>117.0</ele><time>2026-04-09T12:30:50.686Z</time></trkpt><trkpt lat="40.9155817" lon="14.1894867"><ele>117.0</ele><time>2026-04-09T12:30:52.688Z</time></trkpt><trkpt lat="40.9154683" lon="14.1894817"><ele>117.5</ele><time>2026-04-09T12:30:54.691Z</time></trkpt><trkpt lat="40.9153483" lon="14.1894817"><ele>118.0</ele><time>2026-04-09T12:30:56.689Z</time></trkpt><trkpt lat="40.9152333" lon="14.1894817"><ele>118.5</ele><time>2026-04-09T12:30:58.687Z</time></trkpt><trkpt lat="40.91512" lon="14.1894817"><ele>119.0</ele><time>2026-04-09T12:31:00.689Z</time></trkpt><trkpt lat="40.91501" lon="14.1894833"><ele>119.0</ele><time>2026-04-09T12:31:02.687Z</time></trkpt><trkpt lat="40.9149" lon="14.18948"><ele>119.0</ele><time>2026-04-09T12:31:04.688Z</time></trkpt><trkpt lat="40.9147867" lon="14.1894817"><ele>119.0</ele><time>2026-04-09T12:31:06.686Z</time></trkpt><trkpt lat="40.9146783" lon="14.1894817"><ele>119.0</ele><time>2026-04-09T12:31:08.688Z</time></trkpt><trkpt lat="40.91457" lon="14.189485"><ele>119.0</ele><time>2026-04-09T12:31:10.69Z</time></trkpt><trkpt lat="40.91446" lon="14.1894933"><ele>119.0</ele><time>2026-04-09T12:31:12.686Z</time></trkpt><trkpt lat="40.91435" lon="14.1894983"><ele>119.0</ele><time>2026-04-09T12:31:14.689Z</time></trkpt><trkpt lat="40.9142483" lon="14.1894917"><ele>119.0</ele><time>2026-04-09T12:31:16.69Z</time></trkpt><trkpt lat="40.9141533" lon="14.18945"><ele>119.0</ele><time>2026-04-09T12:31:18.689Z</time></trkpt><trkpt lat="40.9140717" lon="14.1893733"><ele>119.0</ele><time>2026-04-09T12:31:20.689Z</time></trkpt><trkpt lat="40.91399" lon="14.18929"><ele>119.4</ele><time>2026-04-09T12:31:22.687Z</time></trkpt><trkpt lat="40.9139133" lon="14.189205"><ele>119.80000000000001</ele><time>2026-04-09T12:31:24.688Z</time></trkpt><trkpt lat="40.913835" lon="14.18912"><ele>120.19999999999999</ele><time>2026-04-09T12:31:26.688Z</time></trkpt><trkpt lat="40.9137467" lon="14.1890417"><ele>120.6</ele><time>2026-04-09T12:31:28.688Z</time></trkpt><trkpt lat="40.9136467" lon="14.1889867"><ele>121.0</ele><time>2026-04-09T12:31:30.688Z</time></trkpt><trkpt lat="40.9135417" lon="14.1889467"><ele>121.0</ele><time>2026-04-09T12:31:32.688Z</time></trkpt><trkpt lat="40.913435" lon="14.188915"><ele>121.0</ele><time>2026-04-09T12:31:34.688Z</time></trkpt><trkpt lat="40.9133283" lon="14.1888967"><ele>121.0</ele><time>2026-04-09T12:31:36.688Z</time></trkpt><trkpt lat="40.91322" lon="14.1888883"><ele>121.0</ele><time>2026-04-09T12:31:38.689Z</time></trkpt><trkpt lat="40.9131133" lon="14.1888933"><ele>121.0</ele><time>2026-04-09T12:31:40.689Z</time></trkpt><trkpt lat="40.913005" lon="14.188915"><ele>121.4</ele><time>2026-04-09T12:31:42.688Z</time></trkpt><trkpt lat="40.9129" lon="14.1889417"><ele>121.8</ele><time>2026-04-09T12:31:44.69Z</time></trkpt><trkpt lat="40.9127967" lon="14.1889617"><ele>122.20000000000002</ele><time>2026-04-09T12:31:46.688Z</time></trkpt><trkpt lat="40.91269" lon="14.1889583"><ele>122.60000000000001</ele><time>2026-04-09T12:31:48.687Z</time></trkpt><trkpt lat="40.9125817" lon="14.1889533"><ele>123.0</ele><time>2026-04-09T12:31:50.69Z</time></trkpt><trkpt lat="40.9124783" lon="14.1889533"><ele>123.0</ele><time>2026-04-09T12:31:52.69Z</time></trkpt><trkpt lat="40.9123783" lon="14.1889517"><ele>123.00000000000001</ele><time>2026-04-09T12:31:54.69Z</time></trkpt><trkpt lat="40.9122717" lon="14.18894"><ele>123.00000000000001</ele><time>2026-04-09T12:31:56.686Z</time></trkpt><trkpt lat="40.91217" lon="14.188935"><ele>123.0</ele><time>2026-04-09T12:31:58.688Z</time></trkpt><trkpt lat="40.9120717" lon="14.1889183"><ele>123.0</ele><time>2026-04-09T12:32:00.688Z</time></trkpt><trkpt lat="40.9119833" lon="14.1889067"><ele>123.0</ele><time>2026-04-09T12:32:02.688Z</time></trkpt><trkpt lat="40.9119133" lon="14.1888967"><ele>123.0</ele><time>2026-04-09T12:32:04.687Z</time></trkpt><trkpt lat="40.9118417" lon="14.1888433"><ele>123.0</ele><time>2026-04-09T12:32:07.688Z</time></trkpt><trkpt lat="40.9118583" lon="14.1887233"><ele>123.0</ele><time>2026-04-09T12:32:10.687Z</time></trkpt><trkpt lat="40.911895" lon="14.1886233"><ele>123.0</ele><time>2026-04-09T12:32:12.688Z</time></trkpt><trkpt lat="40.9119433" lon="14.1885083"><ele>123.0</ele><time>2026-04-09T12:32:14.688Z</time></trkpt><trkpt lat="40.9119883" lon="14.1883917"><ele>123.00000000000001</ele><time>2026-04-09T12:32:16.688Z</time></trkpt><trkpt lat="40.91203" lon="14.18828"><ele>123.0</ele><time>2026-04-09T12:32:18.686Z</time></trkpt><trkpt lat="40.912075" lon="14.18821"><ele>123.00000000000001</ele><time>2026-04-09T12:32:20.69Z</time></trkpt><trkpt lat="40.912115" lon="14.188145"><ele>123.00000000000001</ele><time>2026-04-09T12:32:22.688Z</time></trkpt><trkpt lat="40.912135" lon="14.18806"><ele>123.0</ele><time>2026-04-09T12:34:31.688Z</time></trkpt><trkpt lat="40.9121683" lon="14.1879533"><ele>123.00000000000001</ele><time>2026-04-09T12:34:35.688Z</time></trkpt><trkpt lat="40.9121983" lon="14.187875"><ele>123.00000000000001</ele><time>2026-04-09T12:34:37.689Z</time></trkpt><trkpt lat="40.9122367" lon="14.1877833"><ele>123.0</ele><time>2026-04-09T12:34:39.686Z</time></trkpt><trkpt lat="40.9122817" lon="14.18768"><ele>123.00000000000001</ele><time>2026-04-09T12:34:41.687Z</time></trkpt><trkpt lat="40.912325" lon="14.1875667"><ele>123.00000000000001</ele><time>2026-04-09T12:34:43.685Z</time></trkpt><trkpt lat="40.9123717" lon="14.1874467"><ele>123.0</ele><time>2026-04-09T12:34:45.689Z</time></trkpt><trkpt lat="40.9124183" lon="14.1873267"><ele>123.0</ele><time>2026-04-09T12:34:47.688Z</time></trkpt><trkpt lat="40.9124567" lon="14.18723"><ele>123.00000000000001</ele><time>2026-04-09T12:34:49.687Z</time></trkpt><trkpt lat="40.9124917" lon="14.1871517"><ele>123.0</ele><time>2026-04-09T12:34:51.685Z</time></trkpt><trkpt lat="40.9125283" lon="14.1870717"><ele>123.00000000000001</ele><time>2026-04-09T12:34:53.687Z</time></trkpt><trkpt lat="40.912565" lon="14.1869817"><ele>123.00000000000001</ele><time>2026-04-09T12:34:55.69Z</time></trkpt><trkpt lat="40.9125967" lon="14.1868883"><ele>123.0</ele><time>2026-04-09T12:34:57.689Z</time></trkpt><trkpt lat="40.9126333" lon="14.1867967"><ele>123.00000000000001</ele><time>2026-04-09T12:34:59.684Z</time></trkpt><trkpt lat="40.9126683" lon="14.1867217"><ele>123.00000000000001</ele><time>2026-04-09T12:35:01.686Z</time></trkpt><trkpt lat="40.9127017" lon="14.1866067"><ele>122.85714285714288</ele><time>2026-04-09T12:35:04.688Z</time></trkpt><trkpt lat="40.912735" lon="14.1865317"><ele>122.71428571428572</ele><time>2026-04-09T12:35:06.685Z</time></trkpt><trkpt lat="40.912765" lon="14.18645"><ele>122.57142857142857</ele><time>2026-04-09T12:35:08.685Z</time></trkpt><trkpt lat="40.9127983" lon="14.18637"><ele>122.42857142857143</ele><time>2026-04-09T12:35:10.687Z</time></trkpt><trkpt lat="40.9128333" lon="14.1863"><ele>122.28571428571428</ele><time>2026-04-09T12:35:12.685Z</time></trkpt><trkpt lat="40.9128817" lon="14.1861917"><ele>122.14285714285712</ele><time>2026-04-09T12:35:15.688Z</time></trkpt><trkpt lat="40.9129183" lon="14.1860967"><ele>121.99999999999999</ele><time>2026-04-09T12:35:17.685Z</time></trkpt><trkpt lat="40.9129667" lon="14.1859767"><ele>122.0</ele><time>2026-04-09T12:35:19.687Z</time></trkpt><trkpt lat="40.9130217" lon="14.1858483"><ele>121.99999999999999</ele><time>2026-04-09T12:35:21.685Z</time></trkpt><trkpt lat="40.9130667" lon="14.18573"><ele>121.99999999999999</ele><time>2026-04-09T12:35:23.687Z</time></trkpt><trkpt lat="40.9131183" lon="14.1856083"><ele>122.0</ele><time>2026-04-09T12:35:25.685Z</time></trkpt><trkpt lat="40.91317" lon="14.1854783"><ele>122.0</ele><time>2026-04-09T12:35:27.689Z</time></trkpt><trkpt lat="40.9132217" lon="14.18534"><ele>122.16666666666666</ele><time>2026-04-09T12:35:29.688Z</time></trkpt><trkpt lat="40.9132717" lon="14.1851933"><ele>122.33333333333333</ele><time>2026-04-09T12:35:31.687Z</time></trkpt><trkpt lat="40.9133267" lon="14.1850517"><ele>122.5</ele><time>2026-04-09T12:35:33.687Z</time></trkpt><trkpt lat="40.9133567" lon="14.1849783"><ele>122.66666666666666</ele><time>2026-04-09T12:35:34.688Z</time></trkpt><trkpt lat="40.913385" lon="14.1849017"><ele>122.83333333333333</ele><time>2026-04-09T12:35:35.685Z</time></trkpt><trkpt lat="40.9134117" lon="14.184825"><ele>123.0</ele><time>2026-04-09T12:35:36.687Z</time></trkpt><trkpt lat="40.9134417" lon="14.1847517"><ele>122.57142857142858</ele><time>2026-04-09T12:35:37.687Z</time></trkpt><trkpt lat="40.91347" lon="14.184675"><ele>122.14285714285714</ele><time>2026-04-09T12:35:38.685Z</time></trkpt><trkpt lat="40.9135" lon="14.184595"><ele>121.71428571428572</ele><time>2026-04-09T12:35:39.688Z</time></trkpt><trkpt lat="40.9135283" lon="14.1845133"><ele>121.28571428571429</ele><time>2026-04-09T12:35:40.689Z</time></trkpt><trkpt lat="40.913555" lon="14.184435"><ele>120.85714285714286</ele><time>2026-04-09T12:35:41.688Z</time></trkpt><trkpt lat="40.9135867" lon="14.18436"><ele>120.42857142857143</ele><time>2026-04-09T12:35:42.685Z</time></trkpt><trkpt lat="40.9136183" lon="14.1842833"><ele>120.0</ele><time>2026-04-09T12:35:43.686Z</time></trkpt><trkpt lat="40.9136517" lon="14.1842033"><ele>120.0</ele><time>2026-04-09T12:35:44.686Z</time></trkpt><trkpt lat="40.91369" lon="14.1841233"><ele>120.0</ele><time>2026-04-09T12:35:45.687Z</time></trkpt><trkpt lat="40.9137283" lon="14.1840433"><ele>120.0</ele><time>2026-04-09T12:35:46.686Z</time></trkpt><trkpt lat="40.9137633" lon="14.1839617"><ele>120.0</ele><time>2026-04-09T12:35:47.686Z</time></trkpt><trkpt lat="40.9137983" lon="14.1838783"><ele>120.0</ele><time>2026-04-09T12:35:48.686Z</time></trkpt><trkpt lat="40.91383" lon="14.1837933"><ele>120.0</ele><time>2026-04-09T12:35:49.687Z</time></trkpt><trkpt lat="40.913865" lon="14.18371"><ele>120.0</ele><time>2026-04-09T12:35:50.688Z</time></trkpt><trkpt lat="40.9139" lon="14.183625"><ele>119.85714285714286</ele><time>2026-04-09T12:35:51.686Z</time></trkpt><trkpt lat="40.9139317" lon="14.18354"><ele>119.71428571428571</ele><time>2026-04-09T12:35:52.687Z</time></trkpt><trkpt lat="40.9139667" lon="14.1834533"><ele>119.57142857142857</ele><time>2026-04-09T12:35:53.687Z</time></trkpt><trkpt lat="40.914" lon="14.1833667"><ele>119.42857142857143</ele><time>2026-04-09T12:35:54.687Z</time></trkpt><trkpt lat="40.914035" lon="14.18328"><ele>119.28571428571428</ele><time>2026-04-09T12:35:55.687Z</time></trkpt><trkpt lat="40.91407" lon="14.183195"><ele>119.14285714285714</ele><time>2026-04-09T12:35:56.685Z</time></trkpt><trkpt lat="40.9141017" lon="14.1831067"><ele>119.0</ele><time>2026-04-09T12:35:57.687Z</time></trkpt><trkpt lat="40.9141317" lon="14.1830167"><ele>118.99999999999999</ele><time>2026-04-09T12:35:58.687Z</time></trkpt><trkpt lat="40.91416" lon="14.1829283"><ele>119.0</ele><time>2026-04-09T12:35:59.686Z</time></trkpt><trkpt lat="40.9141917" lon="14.1828367"><ele>119.0</ele><time>2026-04-09T12:36:00.687Z</time></trkpt><trkpt lat="40.9142217" lon="14.1827433"><ele>119.0</ele><time>2026-04-09T12:36:01.689Z</time></trkpt><trkpt lat="40.9142533" lon="14.1826517"><ele>118.99999999999999</ele><time>2026-04-09T12:36:02.686Z</time></trkpt><trkpt lat="40.914285" lon="14.18256"><ele>119.0</ele><time>2026-04-09T12:36:03.686Z</time></trkpt><trkpt lat="40.9143217" lon="14.1824717"><ele>118.99999999999999</ele><time>2026-04-09T12:36:04.687Z</time></trkpt><trkpt lat="40.9143567" lon="14.1823833"><ele>119.0</ele><time>2026-04-09T12:36:05.685Z</time></trkpt><trkpt lat="40.91439" lon="14.18229"><ele>119.0</ele><time>2026-04-09T12:36:06.686Z</time></trkpt><trkpt lat="40.9144217" lon="14.1822"><ele>119.0</ele><time>2026-04-09T12:36:07.688Z</time></trkpt><trkpt lat="40.914455" lon="14.182115"><ele>118.99999999999999</ele><time>2026-04-09T12:36:08.687Z</time></trkpt><trkpt lat="40.914485" lon="14.18202"><ele>119.0</ele><time>2026-04-09T12:36:09.688Z</time></trkpt><trkpt lat="40.9145183" lon="14.18193"><ele>118.99999999999999</ele><time>2026-04-09T12:36:10.688Z</time></trkpt><trkpt lat="40.9145517" lon="14.18184"><ele>119.0</ele><time>2026-04-09T12:36:11.685Z</time></trkpt><trkpt lat="40.91459" lon="14.18175"><ele>119.0</ele><time>2026-04-09T12:36:12.687Z</time></trkpt><trkpt lat="40.91463" lon="14.18166"><ele>119.0</ele><time>2026-04-09T12:36:13.688Z</time></trkpt><trkpt lat="40.9146683" lon="14.1815767"><ele>118.99999999999999</ele><time>2026-04-09T12:36:14.687Z</time></trkpt><trkpt lat="40.914705" lon="14.1814867"><ele>119.0</ele><time>2026-04-09T12:36:15.686Z</time></trkpt><trkpt lat="40.9147417" lon="14.1813967"><ele>119.0</ele><time>2026-04-09T12:36:16.688Z</time></trkpt><trkpt lat="40.9147733" lon="14.1813117"><ele>119.0</ele><time>2026-04-09T12:36:17.687Z</time></trkpt><trkpt lat="40.9148117" lon="14.1812217"><ele>119.0</ele><time>2026-04-09T12:36:18.687Z</time></trkpt><trkpt lat="40.9148483" lon="14.1811367"><ele>119.0</ele><time>2026-04-09T12:36:19.687Z</time></trkpt><trkpt lat="40.914885" lon="14.1810517"><ele>119.0</ele><time>2026-04-09T12:36:20.687Z</time></trkpt><trkpt lat="40.91492" lon="14.1809667"><ele>119.0</ele><time>2026-04-09T12:36:21.687Z</time></trkpt><trkpt lat="40.914955" lon="14.180885"><ele>119.0</ele><time>2026-04-09T12:36:22.687Z</time></trkpt><trkpt lat="40.9149917" lon="14.1808033"><ele>119.0</ele><time>2026-04-09T12:36:23.688Z</time></trkpt><trkpt lat="40.915025" lon="14.18072"><ele>119.0</ele><time>2026-04-09T12:36:24.687Z</time></trkpt><trkpt lat="40.9150567" lon="14.180635"><ele>119.0</ele><time>2026-04-09T12:36:25.689Z</time></trkpt><trkpt lat="40.91509" lon="14.1805533"><ele>119.0</ele><time>2026-04-09T12:36:26.685Z</time></trkpt><trkpt lat="40.915125" lon="14.18047"><ele>119.0</ele><time>2026-04-09T12:36:27.689Z</time></trkpt><trkpt lat="40.9151617" lon="14.1803867"><ele>119.0</ele><time>2026-04-09T12:36:28.689Z</time></trkpt><trkpt lat="40.9151983" lon="14.1803033"><ele>119.0</ele><time>2026-04-09T12:36:29.686Z</time></trkpt><trkpt lat="40.915235" lon="14.1802183"><ele>118.83333333333333</ele><time>2026-04-09T12:36:30.687Z</time></trkpt><trkpt lat="40.91527" lon="14.18013"><ele>118.66666666666666</ele><time>2026-04-09T12:36:31.689Z</time></trkpt><trkpt lat="40.9153067" lon="14.1800433"><ele>118.5</ele><time>2026-04-09T12:36:32.685Z</time></trkpt><trkpt lat="40.9153417" lon="14.1799517"><ele>118.33333333333334</ele><time>2026-04-09T12:36:33.686Z</time></trkpt><trkpt lat="40.9153767" lon="14.1798617"><ele>118.16666666666667</ele><time>2026-04-09T12:36:34.685Z</time></trkpt><trkpt lat="40.91541" lon="14.1797733"><ele>118.0</ele><time>2026-04-09T12:36:35.686Z</time></trkpt><trkpt lat="40.9154433" lon="14.1796867"><ele>118.00000000000001</ele><time>2026-04-09T12:36:36.688Z</time></trkpt><trkpt lat="40.9154767" lon="14.1796083"><ele>118.0</ele><time>2026-04-09T12:36:37.689Z</time></trkpt><trkpt lat="40.91551" lon="14.179535"><ele>118.0</ele><time>2026-04-09T12:36:38.687Z</time></trkpt><trkpt lat="40.9155433" lon="14.1794633"><ele>118.0</ele><time>2026-04-09T12:36:39.685Z</time></trkpt><trkpt lat="40.9155967" lon="14.17934"><ele>118.00000000000001</ele><time>2026-04-09T12:36:41.686Z</time></trkpt><trkpt lat="40.9156533" lon="14.17926"><ele>118.0</ele><time>2026-04-09T12:36:43.687Z</time></trkpt><trkpt lat="40.91562" lon="14.1791817"><ele>118.0</ele><time>2026-04-09T12:41:46.688Z</time></trkpt><trkpt lat="40.9156583" lon="14.1791133"><ele>118.0</ele><time>2026-04-09T12:41:49.687Z</time></trkpt><trkpt lat="40.9157083" lon="14.17904"><ele>118.0</ele><time>2026-04-09T12:41:52.687Z</time></trkpt><trkpt lat="40.9157433" lon="14.1789633"><ele>118.0</ele><time>2026-04-09T12:41:55.689Z</time></trkpt><trkpt lat="40.915765" lon="14.1788733"><ele>118.0</ele><time>2026-04-09T12:41:59.689Z</time></trkpt><trkpt lat="40.9157883" lon="14.1787867"><ele>118.0</ele><time>2026-04-09T12:42:02.688Z</time></trkpt><trkpt lat="40.91581" lon="14.17869"><ele>118.0</ele><time>2026-04-09T12:42:05.687Z</time></trkpt><trkpt lat="40.9158217" lon="14.178595"><ele>118.00000000000001</ele><time>2026-04-09T12:42:08.688Z</time></trkpt><trkpt lat="40.91583" lon="14.1784933"><ele>118.0</ele><time>2026-04-09T12:42:11.69Z</time></trkpt><trkpt lat="40.915835" lon="14.1783817"><ele>118.0</ele><time>2026-04-09T12:42:14.688Z</time></trkpt><trkpt lat="40.9158367" lon="14.1782817"><ele>118.0</ele><time>2026-04-09T12:42:17.689Z</time></trkpt><trkpt lat="40.91583" lon="14.1781783"><ele>118.00000000000001</ele><time>2026-04-09T12:42:20.688Z</time></trkpt><trkpt lat="40.91583" lon="14.17807"><ele>118.0</ele><time>2026-04-09T12:42:23.689Z</time></trkpt><trkpt lat="40.9158217" lon="14.1779667"><ele>117.71428571428571</ele><time>2026-04-09T12:42:26.685Z</time></trkpt><trkpt lat="40.91582" lon="14.17785"><ele>117.42857142857144</ele><time>2026-04-09T12:42:29.687Z</time></trkpt><trkpt lat="40.9158217" lon="14.1777633"><ele>117.14285714285715</ele><time>2026-04-09T12:42:31.687Z</time></trkpt><trkpt lat="40.9158283" lon="14.1776783"><ele>116.85714285714286</ele><time>2026-04-09T12:42:33.688Z</time></trkpt><trkpt lat="40.9158267" lon="14.17759"><ele>116.57142857142858</ele><time>2026-04-09T12:42:35.689Z</time></trkpt><trkpt lat="40.9158233" lon="14.1774967"><ele>116.2857142857143</ele><time>2026-04-09T12:42:37.689Z</time></trkpt><trkpt lat="40.9158267" lon="14.1774067"><ele>116.00000000000001</ele><time>2026-04-09T12:42:39.686Z</time></trkpt><trkpt lat="40.915825" lon="14.1773233"><ele>115.99999999999999</ele><time>2026-04-09T12:42:41.686Z</time></trkpt><trkpt lat="40.9158217" lon="14.1772"><ele>116.0</ele><time>2026-04-09T12:42:44.686Z</time></trkpt><trkpt lat="40.9158333" lon="14.1771083"><ele>116.0</ele><time>2026-04-09T12:42:46.686Z</time></trkpt><trkpt lat="40.915865" lon="14.1770317"><ele>116.0</ele><time>2026-04-09T12:42:49.689Z</time></trkpt><trkpt lat="40.91594" lon="14.177085"><ele>115.99999999999999</ele><time>2026-04-09T12:42:52.689Z</time></trkpt><trkpt lat="40.9160117" lon="14.17711"><ele>116.0</ele><time>2026-04-09T12:42:55.689Z</time></trkpt><trkpt lat="40.9159167" lon="14.1770617"><ele>115.99999999999999</ele><time>2026-04-09T12:44:15.686Z</time></trkpt><trkpt lat="40.9158427" lon="14.1769906"><ele>116.0</ele><time>2026-04-09T12:49:34.748Z</time></trkpt><trkpt lat="40.9158359" lon="14.1768998"><ele>116.0</ele><time>2026-04-09T12:49:37.771Z</time></trkpt><trkpt lat="40.9158258" lon="14.1768088"><ele>116.0</ele><time>2026-04-09T12:49:39.788Z</time></trkpt><trkpt lat="40.9158343" lon="14.1766951"><ele>115.99999999999999</ele><time>2026-04-09T12:49:41.805Z</time></trkpt><trkpt lat="40.9158168" lon="14.1765507"><ele>116.0</ele><time>2026-04-09T12:49:44.023Z</time></trkpt><trkpt lat="40.9158262" lon="14.1764494"><ele>116.2857142857143</ele><time>2026-04-09T12:49:45.76Z</time></trkpt><trkpt lat="40.9158406" lon="14.1763452"><ele>116.57142857142858</ele><time>2026-04-09T12:49:47.755Z</time></trkpt><trkpt lat="40.9158342" lon="14.1762606"><ele>116.85714285714286</ele><time>2026-04-09T12:49:49.771Z</time></trkpt><trkpt lat="40.9158168" lon="14.1761765"><ele>117.14285714285715</ele><time>2026-04-09T12:49:51.99Z</time></trkpt><trkpt lat="40.9158131" lon="14.176088"><ele>117.42857142857144</ele><time>2026-04-09T12:49:53.907Z</time></trkpt><trkpt lat="40.9157979" lon="14.1759977"><ele>117.71428571428571</ele><time>2026-04-09T12:49:55.723Z</time></trkpt><trkpt lat="40.9158027" lon="14.1758757"><ele>118.0</ele><time>2026-04-09T12:49:57.741Z</time></trkpt><trkpt lat="40.9157955" lon="14.1757517"><ele>118.4</ele><time>2026-04-09T12:49:59.761Z</time></trkpt><trkpt lat="40.915785" lon="14.1756097"><ele>118.80000000000001</ele><time>2026-04-09T12:50:02.366Z</time></trkpt><trkpt lat="40.9157886" lon="14.1754159"><ele>119.2</ele><time>2026-04-09T12:50:05.687Z</time></trkpt><trkpt lat="40.9157911" lon="14.175302"><ele>119.6</ele><time>2026-04-09T12:50:07.685Z</time></trkpt><trkpt lat="40.9157945" lon="14.1751851"><ele>120.0</ele><time>2026-04-09T12:50:09.685Z</time></trkpt><trkpt lat="40.9157919" lon="14.1750724"><ele>120.0</ele><time>2026-04-09T12:50:11.685Z</time></trkpt><trkpt lat="40.9157888" lon="14.1749717"><ele>120.0</ele><time>2026-04-09T12:50:13.686Z</time></trkpt><trkpt lat="40.9157835" lon="14.1748309"><ele>120.0</ele><time>2026-04-09T12:50:15.685Z</time></trkpt><trkpt lat="40.9157928" lon="14.1746881"><ele>120.0</ele><time>2026-04-09T12:50:17.685Z</time></trkpt><trkpt lat="40.91579" lon="14.1745483"><ele>120.0</ele><time>2026-04-09T12:50:19.685Z</time></trkpt><trkpt lat="40.9157817" lon="14.17441"><ele>119.8</ele><time>2026-04-09T12:50:21.685Z</time></trkpt><trkpt lat="40.9157867" lon="14.174275"><ele>119.6</ele><time>2026-04-09T12:50:23.686Z</time></trkpt><trkpt lat="40.91579" lon="14.17413"><ele>119.4</ele><time>2026-04-09T12:50:25.687Z</time></trkpt><trkpt lat="40.915785" lon="14.1739967"><ele>119.2</ele><time>2026-04-09T12:50:27.686Z</time></trkpt><trkpt lat="40.91578" lon="14.17387"><ele>119.0</ele><time>2026-04-09T12:50:29.685Z</time></trkpt><trkpt lat="40.915785" lon="14.1737333"><ele>119.0</ele><time>2026-04-09T12:50:31.687Z</time></trkpt><trkpt lat="40.915785" lon="14.1735933"><ele>119.0</ele><time>2026-04-09T12:50:33.686Z</time></trkpt><trkpt lat="40.9157867" lon="14.1734567"><ele>119.0</ele><time>2026-04-09T12:50:35.687Z</time></trkpt><trkpt lat="40.9157917" lon="14.1733"><ele>119.0</ele><time>2026-04-09T12:50:37.691Z</time></trkpt><trkpt lat="40.915785" lon="14.173145"><ele>119.0</ele><time>2026-04-09T12:50:39.685Z</time></trkpt><trkpt lat="40.9157833" lon="14.1729933"><ele>118.25</ele><time>2026-04-09T12:50:41.687Z</time></trkpt><trkpt lat="40.9157867" lon="14.1728383"><ele>117.5</ele><time>2026-04-09T12:50:43.687Z</time></trkpt><trkpt lat="40.9157817" lon="14.172675"><ele>116.75</ele><time>2026-04-09T12:50:45.686Z</time></trkpt><trkpt lat="40.9157767" lon="14.172525"><ele>116.0</ele><time>2026-04-09T12:50:47.686Z</time></trkpt><trkpt lat="40.91578" lon="14.172375"><ele>116.0</ele><time>2026-04-09T12:50:49.687Z</time></trkpt><trkpt lat="40.9157683" lon="14.17222"><ele>116.0</ele><time>2026-04-09T12:50:51.688Z</time></trkpt><trkpt lat="40.915775" lon="14.172065"><ele>116.0</ele><time>2026-04-09T12:50:53.685Z</time></trkpt><trkpt lat="40.9157783" lon="14.17191"><ele>116.0</ele><time>2026-04-09T12:50:55.685Z</time></trkpt><trkpt lat="40.91578" lon="14.1717583"><ele>116.0</ele><time>2026-04-09T12:50:57.69Z</time></trkpt><trkpt lat="40.9157817" lon="14.171605"><ele>116.0</ele><time>2026-04-09T12:50:59.685Z</time></trkpt><trkpt lat="40.91579" lon="14.17146"><ele>116.0</ele><time>2026-04-09T12:51:01.685Z</time></trkpt><trkpt lat="40.9157983" lon="14.1713167"><ele>116.0</ele><time>2026-04-09T12:51:03.685Z</time></trkpt><trkpt lat="40.9158133" lon="14.171235"><ele>116.0</ele><time>2026-04-09T12:51:04.685Z</time></trkpt><trkpt lat="40.9158367" lon="14.17109"><ele>116.0</ele><time>2026-04-09T12:51:06.686Z</time></trkpt><trkpt lat="40.915865" lon="14.17094"><ele>116.0</ele><time>2026-04-09T12:51:08.686Z</time></trkpt><trkpt lat="40.9159083" lon="14.1707833"><ele>116.0</ele><time>2026-04-09T12:51:10.685Z</time></trkpt><trkpt lat="40.9159567" lon="14.1706367"><ele>116.0</ele><time>2026-04-09T12:51:12.685Z</time></trkpt><trkpt lat="40.9160117" lon="14.17051"><ele>116.0</ele><time>2026-04-09T12:51:14.686Z</time></trkpt><trkpt lat="40.9160567" lon="14.1703967"><ele>116.0</ele><time>2026-04-09T12:51:16.685Z</time></trkpt><trkpt lat="40.9160933" lon="14.17028"><ele>116.0</ele><time>2026-04-09T12:51:18.685Z</time></trkpt><trkpt lat="40.9161383" lon="14.170165"><ele>116.0</ele><time>2026-04-09T12:51:20.688Z</time></trkpt><trkpt lat="40.9161717" lon="14.1700617"><ele>116.0</ele><time>2026-04-09T12:51:22.686Z</time></trkpt><trkpt lat="40.9162133" lon="14.169965"><ele>115.99999999999999</ele><time>2026-04-09T12:51:24.685Z</time></trkpt><trkpt lat="40.9162517" lon="14.1698967"><ele>116.0</ele><time>2026-04-09T12:51:26.688Z</time></trkpt><trkpt lat="40.9163083" lon="14.16986"><ele>116.0</ele><time>2026-04-09T12:51:28.689Z</time></trkpt><trkpt lat="40.9163883" lon="14.1698717"><ele>116.0</ele><time>2026-04-09T12:51:31.685Z</time></trkpt><trkpt lat="40.916425" lon="14.1699567"><ele>115.99999999999999</ele><time>2026-04-09T12:51:33.685Z</time></trkpt><trkpt lat="40.9164483" lon="14.17006"><ele>116.0</ele><time>2026-04-09T12:51:35.686Z</time></trkpt><trkpt lat="40.9164683" lon="14.1701717"><ele>116.0</ele><time>2026-04-09T12:51:37.685Z</time></trkpt><trkpt lat="40.9164867" lon="14.1702933"><ele>116.0</ele><time>2026-04-09T12:51:39.686Z</time></trkpt><trkpt lat="40.916515" lon="14.17042"><ele>116.0</ele><time>2026-04-09T12:51:41.686Z</time></trkpt><trkpt lat="40.9165583" lon="14.1705567"><ele>116.0</ele><time>2026-04-09T12:51:43.689Z</time></trkpt><trkpt lat="40.9166033" lon="14.1707017"><ele>116.0</ele><time>2026-04-09T12:51:45.689Z</time></trkpt><trkpt lat="40.91666" lon="14.170845"><ele>115.75</ele><time>2026-04-09T12:51:47.687Z</time></trkpt><trkpt lat="40.916725" lon="14.1709817"><ele>115.5</ele><time>2026-04-09T12:51:49.687Z</time></trkpt><trkpt lat="40.9168" lon="14.17111"><ele>115.25</ele><time>2026-04-09T12:51:51.685Z</time></trkpt><trkpt lat="40.9168783" lon="14.1712267"><ele>115.0</ele><time>2026-04-09T12:51:53.686Z</time></trkpt><trkpt lat="40.916965" lon="14.1713417"><ele>115.0</ele><time>2026-04-09T12:51:55.687Z</time></trkpt><trkpt lat="40.9170467" lon="14.1714617"><ele>115.0</ele><time>2026-04-09T12:51:57.687Z</time></trkpt><trkpt lat="40.917135" lon="14.1715817"><ele>115.0</ele><time>2026-04-09T12:51:59.688Z</time></trkpt><trkpt lat="40.9171783" lon="14.1716433"><ele>115.0</ele><time>2026-04-09T12:52:00.688Z</time></trkpt><trkpt lat="40.9172617" lon="14.17176"><ele>115.0</ele><time>2026-04-09T12:52:02.688Z</time></trkpt><trkpt lat="40.9173433" lon="14.17187"><ele>115.0</ele><time>2026-04-09T12:52:04.688Z</time></trkpt><trkpt lat="40.9174133" lon="14.17198"><ele>115.0</ele><time>2026-04-09T12:52:06.689Z</time></trkpt><trkpt lat="40.91749" lon="14.172095"><ele>115.0</ele><time>2026-04-09T12:52:08.689Z</time></trkpt><trkpt lat="40.917565" lon="14.1722183"><ele>115.0</ele><time>2026-04-09T12:52:10.689Z</time></trkpt><trkpt lat="40.9176483" lon="14.1723433"><ele>114.99999999999999</ele><time>2026-04-09T12:52:12.688Z</time></trkpt><trkpt lat="40.9176933" lon="14.1724067"><ele>115.0</ele><time>2026-04-09T12:52:13.688Z</time></trkpt><trkpt lat="40.9177383" lon="14.17247"><ele>114.99999999999999</ele><time>2026-04-09T12:52:14.685Z</time></trkpt><trkpt lat="40.917785" lon="14.1725317"><ele>114.99999999999999</ele><time>2026-04-09T12:52:15.689Z</time></trkpt><trkpt lat="40.9178267" lon="14.172595"><ele>115.0</ele><time>2026-04-09T12:52:16.685Z</time></trkpt><trkpt lat="40.9178667" lon="14.1726617"><ele>114.99999999999999</ele><time>2026-04-09T12:52:17.688Z</time></trkpt><trkpt lat="40.9179117" lon="14.1727283"><ele>114.99999999999999</ele><time>2026-04-09T12:52:18.687Z</time></trkpt><trkpt lat="40.917975" lon="14.1728567"><ele>115.00000000000001</ele><time>2026-04-09T12:52:20.687Z</time></trkpt><trkpt lat="40.9180183" lon="14.1729567"><ele>115.0</ele><time>2026-04-09T12:52:22.687Z</time></trkpt><trkpt lat="40.9180667" lon="14.17301"><ele>115.0</ele><time>2026-04-09T12:52:24.688Z</time></trkpt><trkpt lat="40.9180917" lon="14.17292"><ele>115.0</ele><time>2026-04-09T12:52:27.687Z</time></trkpt><trkpt lat="40.9180667" lon="14.1728317"><ele>115.00000000000001</ele><time>2026-04-09T12:52:29.687Z</time></trkpt><trkpt lat="40.9180183" lon="14.1727417"><ele>115.0</ele><time>2026-04-09T12:52:32.689Z</time></trkpt><trkpt lat="40.91796" lon="14.1726767"><ele>115.00000000000001</ele><time>2026-04-09T12:52:36.686Z</time></trkpt><trkpt lat="40.9179317" lon="14.1727717"><ele>115.0</ele><time>2026-04-09T12:53:05.687Z</time></trkpt><trkpt lat="40.9179667" lon="14.172645"><ele>115.0</ele><time>2026-04-09T12:53:17.687Z</time></trkpt><trkpt lat="40.91793" lon="14.1725367"><ele>115.0</ele><time>2026-04-09T12:54:33.687Z</time></trkpt><trkpt lat="40.91802" lon="14.1725933"><ele>115.00000000000001</ele><time>2026-04-09T12:55:17.686Z</time></trkpt><trkpt lat="40.9179533" lon="14.1726317"><ele>115.0</ele><time>2026-04-09T12:55:40.687Z</time></trkpt><trkpt lat="40.9178833" lon="14.1726917"><ele>115.0</ele><time>2026-04-09T12:55:47.687Z</time></trkpt><trkpt lat="40.917965" lon="14.1728367"><ele>115.0</ele><time>2026-04-09T12:56:33.688Z</time></trkpt><trkpt lat="40.918045" lon="14.1725917"><ele>115.0</ele><time>2026-04-09T12:56:37.688Z</time></trkpt><trkpt lat="40.9179833" lon="14.1724617"><ele>115.00000000000001</ele><time>2026-04-09T12:57:09.688Z</time></trkpt><trkpt lat="40.9179317" lon="14.1724"><ele>115.0</ele><time>2026-04-09T12:57:11.687Z</time></trkpt><trkpt lat="40.91801" lon="14.172515"><ele>115.0</ele><time>2026-04-09T12:57:32.687Z</time></trkpt><trkpt lat="40.9180467" lon="14.1725883"><ele>115.0</ele><time>2026-04-09T12:57:35.685Z</time></trkpt><trkpt lat="40.91811" lon="14.17266"><ele>115.00000000000001</ele><time>2026-04-09T12:57:50.688Z</time></trkpt><trkpt lat="40.9180183" lon="14.1727033"><ele>115.0</ele><time>2026-04-09T12:58:36.684Z</time></trkpt><trkpt lat="40.918065" lon="14.172765"><ele>115.00000000000001</ele><time>2026-04-09T12:58:49.687Z</time></trkpt><trkpt lat="40.9180783" lon="14.1728517"><ele>115.0</ele><time>2026-04-09T12:58:53.689Z</time></trkpt><trkpt lat="40.91809" lon="14.17294"><ele>115.0</ele><time>2026-04-09T12:58:56.688Z</time></trkpt><trkpt lat="40.9180683" lon="14.17306"><ele>115.0</ele><time>2026-04-09T12:58:59.688Z</time></trkpt><trkpt lat="40.9180767" lon="14.1731683"><ele>115.00000000000001</ele><time>2026-04-09T12:59:01.689Z</time></trkpt><trkpt lat="40.9180967" lon="14.1732733"><ele>115.0</ele><time>2026-04-09T12:59:03.689Z</time></trkpt><trkpt lat="40.9181133" lon="14.1733917"><ele>115.0</ele><time>2026-04-09T12:59:05.687Z</time></trkpt><trkpt lat="40.9181317" lon="14.1735217"><ele>115.0</ele><time>2026-04-09T12:59:07.689Z</time></trkpt><trkpt lat="40.9181517" lon="14.1736583"><ele>115.0</ele><time>2026-04-09T12:59:09.688Z</time></trkpt><trkpt lat="40.91817" lon="14.1738067"><ele>115.0</ele><time>2026-04-09T12:59:11.688Z</time></trkpt><trkpt lat="40.9181933" lon="14.1739533"><ele>115.0</ele><time>2026-04-09T12:59:13.689Z</time></trkpt><trkpt lat="40.9182183" lon="14.1741067"><ele>115.0</ele><time>2026-04-09T12:59:15.689Z</time></trkpt><trkpt lat="40.91824" lon="14.1742583"><ele>115.0</ele><time>2026-04-09T12:59:17.688Z</time></trkpt><trkpt lat="40.9182667" lon="14.17441"><ele>115.0</ele><time>2026-04-09T12:59:19.687Z</time></trkpt><trkpt lat="40.9182933" lon="14.174555"><ele>115.0</ele><time>2026-04-09T12:59:21.686Z</time></trkpt><trkpt lat="40.9183283" lon="14.1746967"><ele>115.0</ele><time>2026-04-09T12:59:23.689Z</time></trkpt><trkpt lat="40.9183617" lon="14.1748333"><ele>115.0</ele><time>2026-04-09T12:59:25.689Z</time></trkpt><trkpt lat="40.9183967" lon="14.1749633"><ele>115.0</ele><time>2026-04-09T12:59:27.687Z</time></trkpt><trkpt lat="40.9184367" lon="14.175085"><ele>115.0</ele><time>2026-04-09T12:59:29.689Z</time></trkpt><trkpt lat="40.9184767" lon="14.1751983"><ele>115.0</ele><time>2026-04-09T12:59:31.688Z</time></trkpt><trkpt lat="40.9185033" lon="14.175305"><ele>114.8</ele><time>2026-04-09T12:59:33.688Z</time></trkpt><trkpt lat="40.9185067" lon="14.1754283"><ele>114.6</ele><time>2026-04-09T12:59:35.685Z</time></trkpt><trkpt lat="40.9185017" lon="14.1755617"><ele>114.4</ele><time>2026-04-09T12:59:37.687Z</time></trkpt><trkpt lat="40.9185117" lon="14.1756983"><ele>114.2</ele><time>2026-04-09T12:59:39.685Z</time></trkpt><trkpt lat="40.9185167" lon="14.17584"><ele>114.0</ele><time>2026-04-09T12:59:41.687Z</time></trkpt><trkpt lat="40.918525" lon="14.175975"><ele>114.0</ele><time>2026-04-09T12:59:43.688Z</time></trkpt><trkpt lat="40.9185333" lon="14.1761083"><ele>114.0</ele><time>2026-04-09T12:59:45.685Z</time></trkpt><trkpt lat="40.9185417" lon="14.1762217"><ele>114.0</ele><time>2026-04-09T12:59:47.687Z</time></trkpt><trkpt lat="40.9185483" lon="14.1763167"><ele>114.0</ele><time>2026-04-09T12:59:49.687Z</time></trkpt><trkpt lat="40.918585" lon="14.17639"><ele>114.0</ele><time>2026-04-09T12:59:52.686Z</time></trkpt><trkpt lat="40.9185983" lon="14.1763"><ele>114.0</ele><time>2026-04-09T12:59:55.69Z</time></trkpt><trkpt lat="40.9185917" lon="14.1761967"><ele>114.0</ele><time>2026-04-09T12:59:57.688Z</time></trkpt><trkpt lat="40.9185867" lon="14.1760733"><ele>114.0</ele><time>2026-04-09T12:59:59.686Z</time></trkpt><trkpt lat="40.9185817" lon="14.17594"><ele>114.0</ele><time>2026-04-09T13:00:01.686Z</time></trkpt><trkpt lat="40.918575" lon="14.1758033"><ele>114.0</ele><time>2026-04-09T13:00:03.685Z</time></trkpt><trkpt lat="40.918565" lon="14.17566"><ele>114.0</ele><time>2026-04-09T13:00:05.687Z</time></trkpt><trkpt lat="40.9185583" lon="14.175525"><ele>113.80000000000001</ele><time>2026-04-09T13:00:07.689Z</time></trkpt><trkpt lat="40.918545" lon="14.17539"><ele>113.60000000000001</ele><time>2026-04-09T13:00:09.685Z</time></trkpt><trkpt lat="40.918525" lon="14.175255"><ele>113.4</ele><time>2026-04-09T13:00:11.686Z</time></trkpt><trkpt lat="40.9185083" lon="14.17513"><ele>113.2</ele><time>2026-04-09T13:00:13.693Z</time></trkpt><trkpt lat="40.9184767" lon="14.175005"><ele>113.0</ele><time>2026-04-09T13:00:15.684Z</time></trkpt><trkpt lat="40.9184317" lon="14.1748617"><ele>113.4</ele><time>2026-04-09T13:00:17.684Z</time></trkpt><trkpt lat="40.9184" lon="14.1747333"><ele>113.80000000000001</ele><time>2026-04-09T13:00:19.684Z</time></trkpt><trkpt lat="40.91835" lon="14.1745983"><ele>114.2</ele><time>2026-04-09T13:00:21.684Z</time></trkpt><trkpt lat="40.9183267" lon="14.1744767"><ele>114.6</ele><time>2026-04-09T13:00:23.686Z</time></trkpt><trkpt lat="40.918315" lon="14.1743433"><ele>115.0</ele><time>2026-04-09T13:00:25.685Z</time></trkpt><trkpt lat="40.9182883" lon="14.17421"><ele>115.0</ele><time>2026-04-09T13:00:27.684Z</time></trkpt><trkpt lat="40.9182667" lon="14.1740783"><ele>115.0</ele><time>2026-04-09T13:00:29.685Z</time></trkpt><trkpt lat="40.91826" lon="14.17395"><ele>115.0</ele><time>2026-04-09T13:00:31.687Z</time></trkpt><trkpt lat="40.9182417" lon="14.1738233"><ele>115.0</ele><time>2026-04-09T13:00:33.684Z</time></trkpt><trkpt lat="40.9182217" lon="14.1736967"><ele>115.0</ele><time>2026-04-09T13:00:35.684Z</time></trkpt><trkpt lat="40.9182017" lon="14.1735633"><ele>115.0</ele><time>2026-04-09T13:00:37.685Z</time></trkpt><trkpt lat="40.9181833" lon="14.1734367"><ele>115.0</ele><time>2026-04-09T13:00:39.684Z</time></trkpt><trkpt lat="40.9181683" lon="14.173315"><ele>115.0</ele><time>2026-04-09T13:00:41.685Z</time></trkpt><trkpt lat="40.91814" lon="14.1731917"><ele>115.0</ele><time>2026-04-09T13:00:43.685Z</time></trkpt><trkpt lat="40.9180983" lon="14.17306"><ele>115.0</ele><time>2026-04-09T13:00:45.685Z</time></trkpt><trkpt lat="40.9180417" lon="14.1729317"><ele>115.0</ele><time>2026-04-09T13:00:47.686Z</time></trkpt><trkpt lat="40.9179883" lon="14.1728033"><ele>115.0</ele><time>2026-04-09T13:00:49.689Z</time></trkpt><trkpt lat="40.917925" lon="14.1726767"><ele>115.0</ele><time>2026-04-09T13:00:51.688Z</time></trkpt><trkpt lat="40.9178533" lon="14.1725567"><ele>115.0</ele><time>2026-04-09T13:00:53.688Z</time></trkpt><trkpt lat="40.9177783" lon="14.1724483"><ele>115.0</ele><time>2026-04-09T13:00:55.686Z</time></trkpt><trkpt lat="40.917705" lon="14.172335"><ele>115.0</ele><time>2026-04-09T13:00:57.686Z</time></trkpt><trkpt lat="40.9176283" lon="14.1722267"><ele>115.0</ele><time>2026-04-09T13:00:59.686Z</time></trkpt><trkpt lat="40.9175567" lon="14.1721233"><ele>115.0</ele><time>2026-04-09T13:01:01.688Z</time></trkpt><trkpt lat="40.9174967" lon="14.1720433"><ele>115.0</ele><time>2026-04-09T13:01:03.687Z</time></trkpt><trkpt lat="40.917435" lon="14.1719833"><ele>115.0</ele><time>2026-04-09T13:01:05.685Z</time></trkpt><trkpt lat="40.9173667" lon="14.171915"><ele>115.0</ele><time>2026-04-09T13:01:07.687Z</time></trkpt><trkpt lat="40.91731" lon="14.1718267"><ele>115.0</ele><time>2026-04-09T13:01:09.686Z</time></trkpt><trkpt lat="40.9172483" lon="14.171735"><ele>115.0</ele><time>2026-04-09T13:01:11.688Z</time></trkpt><trkpt lat="40.9171883" lon="14.1716367"><ele>115.0</ele><time>2026-04-09T13:01:13.687Z</time></trkpt><trkpt lat="40.9171283" lon="14.1715383"><ele>115.0</ele><time>2026-04-09T13:01:15.685Z</time></trkpt><trkpt lat="40.9170567" lon="14.17144"><ele>115.0</ele><time>2026-04-09T13:01:17.687Z</time></trkpt><trkpt lat="40.9169833" lon="14.17134"><ele>115.0</ele><time>2026-04-09T13:01:19.686Z</time></trkpt><trkpt lat="40.9169133" lon="14.17124"><ele>115.0</ele><time>2026-04-09T13:01:21.688Z</time></trkpt><trkpt lat="40.9168383" lon="14.1711367"><ele>115.0</ele><time>2026-04-09T13:01:23.689Z</time></trkpt><trkpt lat="40.9167733" lon="14.1710183"><ele>115.0</ele><time>2026-04-09T13:01:25.69Z</time></trkpt><trkpt lat="40.916715" lon="14.1708917"><ele>115.0</ele><time>2026-04-09T13:01:27.688Z</time></trkpt><trkpt lat="40.9166617" lon="14.1707633"><ele>115.0</ele><time>2026-04-09T13:01:29.687Z</time></trkpt><trkpt lat="40.916615" lon="14.170635"><ele>115.0</ele><time>2026-04-09T13:01:31.688Z</time></trkpt><trkpt lat="40.9165683" lon="14.170505"><ele>115.0</ele><time>2026-04-09T13:01:33.686Z</time></trkpt><trkpt lat="40.916525" lon="14.1703683"><ele>115.25</ele><time>2026-04-09T13:01:35.69Z</time></trkpt><trkpt lat="40.916485" lon="14.1702233"><ele>115.5</ele><time>2026-04-09T13:01:37.687Z</time></trkpt><trkpt lat="40.9164483" lon="14.1700717"><ele>115.75</ele><time>2026-04-09T13:01:39.685Z</time></trkpt><trkpt lat="40.9164233" lon="14.169915"><ele>116.0</ele><time>2026-04-09T13:01:41.686Z</time></trkpt><trkpt lat="40.9164033" lon="14.1697533"><ele>115.57142857142858</ele><time>2026-04-09T13:01:43.69Z</time></trkpt><trkpt lat="40.9164017" lon="14.1696683"><ele>115.14285714285714</ele><time>2026-04-09T13:01:44.688Z</time></trkpt><trkpt lat="40.916405" lon="14.1695817"><ele>114.71428571428572</ele><time>2026-04-09T13:01:45.688Z</time></trkpt><trkpt lat="40.916405" lon="14.169495"><ele>114.28571428571429</ele><time>2026-04-09T13:01:46.689Z</time></trkpt><trkpt lat="40.9164083" lon="14.16941"><ele>113.85714285714286</ele><time>2026-04-09T13:01:47.689Z</time></trkpt><trkpt lat="40.9164117" lon="14.1693267"><ele>113.42857142857143</ele><time>2026-04-09T13:01:48.689Z</time></trkpt><trkpt lat="40.9164167" lon="14.1692433"><ele>113.0</ele><time>2026-04-09T13:01:49.69Z</time></trkpt><trkpt lat="40.9164183" lon="14.1691583"><ele>113.0</ele><time>2026-04-09T13:01:50.689Z</time></trkpt><trkpt lat="40.91642" lon="14.1690733"><ele>113.00000000000001</ele><time>2026-04-09T13:01:51.689Z</time></trkpt><trkpt lat="40.9164283" lon="14.1689067"><ele>113.00000000000001</ele><time>2026-04-09T13:01:53.685Z</time></trkpt><trkpt lat="40.9164317" lon="14.1688217"><ele>113.0</ele><time>2026-04-09T13:01:54.687Z</time></trkpt><trkpt lat="40.91644" lon="14.1686617"><ele>113.0</ele><time>2026-04-09T13:01:56.689Z</time></trkpt><trkpt lat="40.9164467" lon="14.168505"><ele>113.0</ele><time>2026-04-09T13:01:58.687Z</time></trkpt><trkpt lat="40.9164517" lon="14.1684217"><ele>113.0</ele><time>2026-04-09T13:01:59.688Z</time></trkpt><trkpt lat="40.9164533" lon="14.168335"><ele>113.0</ele><time>2026-04-09T13:02:00.687Z</time></trkpt><trkpt lat="40.916455" lon="14.16825"><ele>113.0</ele><time>2026-04-09T13:02:01.687Z</time></trkpt><trkpt lat="40.9164567" lon="14.168165"><ele>113.0</ele><time>2026-04-09T13:02:02.689Z</time></trkpt><trkpt lat="40.91646" lon="14.1680767"><ele>113.0</ele><time>2026-04-09T13:02:03.688Z</time></trkpt><trkpt lat="40.916465" lon="14.16799"><ele>113.0</ele><time>2026-04-09T13:02:04.685Z</time></trkpt><trkpt lat="40.9164667" lon="14.1679033"><ele>112.99999999999999</ele><time>2026-04-09T13:02:05.687Z</time></trkpt><trkpt lat="40.9164717" lon="14.1678167"><ele>113.0</ele><time>2026-04-09T13:02:06.686Z</time></trkpt><trkpt lat="40.9164733" lon="14.16773"><ele>113.0</ele><time>2026-04-09T13:02:07.688Z</time></trkpt><trkpt lat="40.9164833" lon="14.1675633"><ele>113.0</ele><time>2026-04-09T13:02:09.686Z</time></trkpt><trkpt lat="40.916485" lon="14.1674767"><ele>112.99999999999999</ele><time>2026-04-09T13:02:10.687Z</time></trkpt><trkpt lat="40.9164867" lon="14.1673917"><ele>113.0</ele><time>2026-04-09T13:02:11.689Z</time></trkpt><trkpt lat="40.9164883" lon="14.167305"><ele>113.0</ele><time>2026-04-09T13:02:12.688Z</time></trkpt><trkpt lat="40.91649" lon="14.1672133"><ele>113.0</ele><time>2026-04-09T13:02:13.69Z</time></trkpt><trkpt lat="40.9164967" lon="14.167125"><ele>113.0</ele><time>2026-04-09T13:02:14.689Z</time></trkpt><trkpt lat="40.9165017" lon="14.1670383"><ele>113.0</ele><time>2026-04-09T13:02:15.688Z</time></trkpt><trkpt lat="40.9165067" lon="14.1669483"><ele>113.0</ele><time>2026-04-09T13:02:16.688Z</time></trkpt><trkpt lat="40.9165117" lon="14.1668617"><ele>113.0</ele><time>2026-04-09T13:02:17.689Z</time></trkpt><trkpt lat="40.9165167" lon="14.1667767"><ele>113.0</ele><time>2026-04-09T13:02:18.689Z</time></trkpt><trkpt lat="40.9165217" lon="14.16669"><ele>113.0</ele><time>2026-04-09T13:02:19.69Z</time></trkpt><trkpt lat="40.9165283" lon="14.166605"><ele>113.0</ele><time>2026-04-09T13:02:20.689Z</time></trkpt><trkpt lat="40.916535" lon="14.16652"><ele>113.0</ele><time>2026-04-09T13:02:21.687Z</time></trkpt><trkpt lat="40.9165417" lon="14.1664317"><ele>113.0</ele><time>2026-04-09T13:02:22.689Z</time></trkpt><trkpt lat="40.9165467" lon="14.1663417"><ele>113.0</ele><time>2026-04-09T13:02:23.685Z</time></trkpt><trkpt lat="40.9165467" lon="14.166255"><ele>113.0</ele><time>2026-04-09T13:02:24.688Z</time></trkpt><trkpt lat="40.9165417" lon="14.166165"><ele>113.0</ele><time>2026-04-09T13:02:25.686Z</time></trkpt><trkpt lat="40.916535" lon="14.1660767"><ele>113.0</ele><time>2026-04-09T13:02:26.687Z</time></trkpt><trkpt lat="40.916525" lon="14.165985"><ele>113.0</ele><time>2026-04-09T13:02:27.685Z</time></trkpt><trkpt lat="40.9165117" lon="14.1658967"><ele>113.0</ele><time>2026-04-09T13:02:28.689Z</time></trkpt><trkpt lat="40.9164933" lon="14.1658083"><ele>113.0</ele><time>2026-04-09T13:02:29.689Z</time></trkpt><trkpt lat="40.9164783" lon="14.16572"><ele>113.0</ele><time>2026-04-09T13:02:30.687Z</time></trkpt><trkpt lat="40.9164617" lon="14.1656317"><ele>113.0</ele><time>2026-04-09T13:02:31.69Z</time></trkpt><trkpt lat="40.9164467" lon="14.1655467"><ele>113.0</ele><time>2026-04-09T13:02:32.688Z</time></trkpt><trkpt lat="40.91643" lon="14.1654583"><ele>113.0</ele><time>2026-04-09T13:02:33.688Z</time></trkpt><trkpt lat="40.9164117" lon="14.1653717"><ele>113.0</ele><time>2026-04-09T13:02:34.687Z</time></trkpt><trkpt lat="40.9163933" lon="14.1652867"><ele>113.0</ele><time>2026-04-09T13:02:35.687Z</time></trkpt><trkpt lat="40.9163767" lon="14.1652033"><ele>113.0</ele><time>2026-04-09T13:02:36.685Z</time></trkpt><trkpt lat="40.9163567" lon="14.16512"><ele>113.0</ele><time>2026-04-09T13:02:37.688Z</time></trkpt><trkpt lat="40.9163317" lon="14.1650383"><ele>113.0</ele><time>2026-04-09T13:02:38.688Z</time></trkpt><trkpt lat="40.916305" lon="14.1649617"><ele>113.0</ele><time>2026-04-09T13:02:39.688Z</time></trkpt><trkpt lat="40.91628" lon="14.164885"><ele>112.80000000000001</ele><time>2026-04-09T13:02:40.689Z</time></trkpt><trkpt lat="40.91623" lon="14.164735"><ele>112.60000000000001</ele><time>2026-04-09T13:02:42.685Z</time></trkpt><trkpt lat="40.916205" lon="14.1646583"><ele>112.39999999999999</ele><time>2026-04-09T13:02:43.687Z</time></trkpt><trkpt lat="40.91616" lon="14.164505"><ele>112.19999999999999</ele><time>2026-04-09T13:02:45.688Z</time></trkpt><trkpt lat="40.91612" lon="14.1643467"><ele>112.0</ele><time>2026-04-09T13:02:47.689Z</time></trkpt><trkpt lat="40.91608" lon="14.1641933"><ele>112.0</ele><time>2026-04-09T13:02:49.691Z</time></trkpt><trkpt lat="40.9160367" lon="14.1640433"><ele>112.0</ele><time>2026-04-09T13:02:51.685Z</time></trkpt><trkpt lat="40.9159917" lon="14.1638933"><ele>112.0</ele><time>2026-04-09T13:02:53.689Z</time></trkpt><trkpt lat="40.9159517" lon="14.163745"><ele>112.0</ele><time>2026-04-09T13:02:55.69Z</time></trkpt><trkpt lat="40.9159267" lon="14.163605"><ele>112.0</ele><time>2026-04-09T13:02:57.684Z</time></trkpt><trkpt lat="40.915905" lon="14.1634617"><ele>112.0</ele><time>2026-04-09T13:02:59.687Z</time></trkpt><trkpt lat="40.9158817" lon="14.163315"><ele>112.0</ele><time>2026-04-09T13:03:01.69Z</time></trkpt><trkpt lat="40.9158567" lon="14.16316"><ele>112.0</ele><time>2026-04-09T13:03:03.687Z</time></trkpt><trkpt lat="40.9158367" lon="14.1630033"><ele>112.25</ele><time>2026-04-09T13:03:05.689Z</time></trkpt><trkpt lat="40.91583" lon="14.1628483"><ele>112.5</ele><time>2026-04-09T13:03:07.686Z</time></trkpt><trkpt lat="40.91583" lon="14.162685"><ele>112.75</ele><time>2026-04-09T13:03:09.688Z</time></trkpt><trkpt lat="40.9158317" lon="14.1625283"><ele>113.0</ele><time>2026-04-09T13:03:11.689Z</time></trkpt><trkpt lat="40.9158317" lon="14.1623667"><ele>112.83333333333333</ele><time>2026-04-09T13:03:13.688Z</time></trkpt><trkpt lat="40.9158317" lon="14.1622017"><ele>112.66666666666666</ele><time>2026-04-09T13:03:15.688Z</time></trkpt><trkpt lat="40.91583" lon="14.1621133"><ele>112.5</ele><time>2026-04-09T13:03:16.689Z</time></trkpt><trkpt lat="40.91583" lon="14.162025"><ele>112.33333333333334</ele><time>2026-04-09T13:03:17.685Z</time></trkpt><trkpt lat="40.91583" lon="14.161935"><ele>112.16666666666667</ele><time>2026-04-09T13:03:18.684Z</time></trkpt><trkpt lat="40.9158283" lon="14.1618417"><ele>112.0</ele><time>2026-04-09T13:03:19.686Z</time></trkpt><trkpt lat="40.9158283" lon="14.1617517"><ele>112.0</ele><time>2026-04-09T13:03:20.686Z</time></trkpt><trkpt lat="40.9158283" lon="14.1616583"><ele>112.0</ele><time>2026-04-09T13:03:21.684Z</time></trkpt><trkpt lat="40.9158267" lon="14.161565"><ele>112.0</ele><time>2026-04-09T13:03:22.686Z</time></trkpt><trkpt lat="40.9158267" lon="14.1614733"><ele>112.0</ele><time>2026-04-09T13:03:23.687Z</time></trkpt><trkpt lat="40.915825" lon="14.1613833"><ele>112.0</ele><time>2026-04-09T13:03:24.685Z</time></trkpt><trkpt lat="40.9158267" lon="14.1612967"><ele>112.0</ele><time>2026-04-09T13:03:25.688Z</time></trkpt><trkpt lat="40.9158333" lon="14.16121"><ele>112.0</ele><time>2026-04-09T13:03:26.685Z</time></trkpt><trkpt lat="40.9158367" lon="14.1611233"><ele>111.85714285714286</ele><time>2026-04-09T13:03:27.687Z</time></trkpt><trkpt lat="40.9158383" lon="14.1610317"><ele>111.71428571428572</ele><time>2026-04-09T13:03:28.689Z</time></trkpt><trkpt lat="40.9158383" lon="14.16094"><ele>111.57142857142857</ele><time>2026-04-09T13:03:29.684Z</time></trkpt><trkpt lat="40.9158367" lon="14.1608483"><ele>111.42857142857143</ele><time>2026-04-09T13:03:30.685Z</time></trkpt><trkpt lat="40.9158383" lon="14.16076"><ele>111.28571428571429</ele><time>2026-04-09T13:03:31.688Z</time></trkpt><trkpt lat="40.9158383" lon="14.1606733"><ele>111.14285714285714</ele><time>2026-04-09T13:03:32.689Z</time></trkpt><trkpt lat="40.9158383" lon="14.1605883"><ele>111.0</ele><time>2026-04-09T13:03:33.687Z</time></trkpt><trkpt lat="40.915845" lon="14.1604267"><ele>111.5</ele><time>2026-04-09T13:03:35.687Z</time></trkpt><trkpt lat="40.9158433" lon="14.1602683"><ele>112.0</ele><time>2026-04-09T13:03:37.687Z</time></trkpt><trkpt lat="40.9158533" lon="14.1601117"><ele>112.5</ele><time>2026-04-09T13:03:39.685Z</time></trkpt><trkpt lat="40.9158633" lon="14.1599633"><ele>113.0</ele><time>2026-04-09T13:03:41.687Z</time></trkpt><trkpt lat="40.91587" lon="14.159815"><ele>113.2</ele><time>2026-04-09T13:03:43.686Z</time></trkpt><trkpt lat="40.91587" lon="14.15967"><ele>113.4</ele><time>2026-04-09T13:03:45.686Z</time></trkpt><trkpt lat="40.91587" lon="14.1595367"><ele>113.60000000000001</ele><time>2026-04-09T13:03:47.687Z</time></trkpt><trkpt lat="40.9158517" lon="14.1594"><ele>113.80000000000001</ele><time>2026-04-09T13:03:49.687Z</time></trkpt><trkpt lat="40.9158117" lon="14.1592683"><ele>114.0</ele><time>2026-04-09T13:03:51.685Z</time></trkpt><trkpt lat="40.9157533" lon="14.1591533"><ele>114.0</ele><time>2026-04-09T13:03:53.687Z</time></trkpt><trkpt lat="40.9157" lon="14.1590417"><ele>114.0</ele><time>2026-04-09T13:03:55.687Z</time></trkpt><trkpt lat="40.9156767" lon="14.1589133"><ele>114.0</ele><time>2026-04-09T13:03:57.685Z</time></trkpt><trkpt lat="40.9156567" lon="14.15878"><ele>114.0</ele><time>2026-04-09T13:03:59.687Z</time></trkpt><trkpt lat="40.9156333" lon="14.15863"><ele>114.0</ele><time>2026-04-09T13:04:01.689Z</time></trkpt><trkpt lat="40.9156133" lon="14.158475"><ele>113.85714285714285</ele><time>2026-04-09T13:04:03.689Z</time></trkpt><trkpt lat="40.9156" lon="14.1583933"><ele>113.7142857142857</ele><time>2026-04-09T13:04:04.685Z</time></trkpt><trkpt lat="40.9155867" lon="14.15831"><ele>113.57142857142857</ele><time>2026-04-09T13:04:05.688Z</time></trkpt><trkpt lat="40.9155717" lon="14.1582217"><ele>113.42857142857142</ele><time>2026-04-09T13:04:06.689Z</time></trkpt><trkpt lat="40.91556" lon="14.1581317"><ele>113.28571428571428</ele><time>2026-04-09T13:04:07.686Z</time></trkpt><trkpt lat="40.9155467" lon="14.1580417"><ele>113.14285714285714</ele><time>2026-04-09T13:04:08.688Z</time></trkpt><trkpt lat="40.915535" lon="14.1579517"><ele>113.0</ele><time>2026-04-09T13:04:09.686Z</time></trkpt><trkpt lat="40.91553" lon="14.157865"><ele>113.0</ele><time>2026-04-09T13:04:10.688Z</time></trkpt><trkpt lat="40.915525" lon="14.1577767"><ele>113.0</ele><time>2026-04-09T13:04:11.686Z</time></trkpt><trkpt lat="40.9155267" lon="14.1576867"><ele>113.0</ele><time>2026-04-09T13:04:12.689Z</time></trkpt><trkpt lat="40.9155267" lon="14.1575967"><ele>113.0</ele><time>2026-04-09T13:04:13.69Z</time></trkpt><trkpt lat="40.9155283" lon="14.1575083"><ele>113.0</ele><time>2026-04-09T13:04:14.688Z</time></trkpt><trkpt lat="40.91553" lon="14.1574183"><ele>113.0</ele><time>2026-04-09T13:04:15.689Z</time></trkpt><trkpt lat="40.91553" lon="14.157325"><ele>113.0</ele><time>2026-04-09T13:04:16.687Z</time></trkpt><trkpt lat="40.9155317" lon="14.1572317"><ele>112.57142857142857</ele><time>2026-04-09T13:04:17.687Z</time></trkpt><trkpt lat="40.9155317" lon="14.1571367"><ele>112.14285714285714</ele><time>2026-04-09T13:04:18.687Z</time></trkpt><trkpt lat="40.9155317" lon="14.1570433"><ele>111.71428571428571</ele><time>2026-04-09T13:04:19.687Z</time></trkpt><trkpt lat="40.9155333" lon="14.1569533"><ele>111.28571428571428</ele><time>2026-04-09T13:04:20.686Z</time></trkpt><trkpt lat="40.915535" lon="14.1568633"><ele>110.85714285714286</ele><time>2026-04-09T13:04:21.689Z</time></trkpt><trkpt lat="40.915535" lon="14.1567717"><ele>110.42857142857142</ele><time>2026-04-09T13:04:22.687Z</time></trkpt><trkpt lat="40.9155367" lon="14.15668"><ele>110.0</ele><time>2026-04-09T13:04:23.689Z</time></trkpt><trkpt lat="40.915535" lon="14.1565933"><ele>109.99999999999999</ele><time>2026-04-09T13:04:24.688Z</time></trkpt><trkpt lat="40.9155333" lon="14.1565067"><ele>110.0</ele><time>2026-04-09T13:04:25.688Z</time></trkpt><trkpt lat="40.91553" lon="14.1564183"><ele>110.0</ele><time>2026-04-09T13:04:26.686Z</time></trkpt><trkpt lat="40.9155267" lon="14.1563283"><ele>110.0</ele><time>2026-04-09T13:04:27.689Z</time></trkpt><trkpt lat="40.915525" lon="14.15624"><ele>110.0</ele><time>2026-04-09T13:04:28.689Z</time></trkpt><trkpt lat="40.915525" lon="14.1561483"><ele>109.99999999999999</ele><time>2026-04-09T13:04:29.688Z</time></trkpt><trkpt lat="40.9155267" lon="14.1560567"><ele>110.0</ele><time>2026-04-09T13:04:30.688Z</time></trkpt><trkpt lat="40.9155233" lon="14.155965"><ele>109.99999999999999</ele><time>2026-04-09T13:04:31.689Z</time></trkpt><trkpt lat="40.9155233" lon="14.1558717"><ele>110.0</ele><time>2026-04-09T13:04:32.688Z</time></trkpt><trkpt lat="40.915525" lon="14.155775"><ele>110.0</ele><time>2026-04-09T13:04:33.685Z</time></trkpt><trkpt lat="40.915525" lon="14.1556817"><ele>110.0</ele><time>2026-04-09T13:04:34.686Z</time></trkpt><trkpt lat="40.9155233" lon="14.1555867"><ele>110.0</ele><time>2026-04-09T13:04:35.687Z</time></trkpt><trkpt lat="40.9155167" lon="14.1554883"><ele>109.99999999999999</ele><time>2026-04-09T13:04:36.685Z</time></trkpt><trkpt lat="40.9155083" lon="14.155395"><ele>110.0</ele><time>2026-04-09T13:04:37.689Z</time></trkpt><trkpt lat="40.9155033" lon="14.1553017"><ele>109.99999999999999</ele><time>2026-04-09T13:04:38.688Z</time></trkpt><trkpt lat="40.915495" lon="14.1552083"><ele>110.0</ele><time>2026-04-09T13:04:39.688Z</time></trkpt><trkpt lat="40.9154917" lon="14.1551117"><ele>110.0</ele><time>2026-04-09T13:04:40.688Z</time></trkpt><trkpt lat="40.9154867" lon="14.155015"><ele>110.0</ele><time>2026-04-09T13:04:41.686Z</time></trkpt><trkpt lat="40.91548" lon="14.15492"><ele>110.0</ele><time>2026-04-09T13:04:42.688Z</time></trkpt><trkpt lat="40.9154783" lon="14.1548267"><ele>109.99999999999999</ele><time>2026-04-09T13:04:43.687Z</time></trkpt><trkpt lat="40.9154717" lon="14.1547367"><ele>110.0</ele><time>2026-04-09T13:04:44.687Z</time></trkpt><trkpt lat="40.91546" lon="14.1546417"><ele>109.49999999999999</ele><time>2026-04-09T13:04:45.688Z</time></trkpt><trkpt lat="40.9154417" lon="14.1545417"><ele>109.0</ele><time>2026-04-09T13:04:46.685Z</time></trkpt><trkpt lat="40.9154233" lon="14.15444"><ele>108.5</ele><time>2026-04-09T13:04:47.687Z</time></trkpt><trkpt lat="40.9154033" lon="14.154335"><ele>108.0</ele><time>2026-04-09T13:04:48.688Z</time></trkpt><trkpt lat="40.9153883" lon="14.15423"><ele>107.49999999999999</ele><time>2026-04-09T13:04:49.688Z</time></trkpt><trkpt lat="40.915375" lon="14.1541283"><ele>107.0</ele><time>2026-04-09T13:04:50.686Z</time></trkpt><trkpt lat="40.91536" lon="14.1540267"><ele>106.66666666666666</ele><time>2026-04-09T13:04:51.687Z</time></trkpt><trkpt lat="40.9153383" lon="14.15393"><ele>106.33333333333333</ele><time>2026-04-09T13:04:52.688Z</time></trkpt><trkpt lat="40.9153083" lon="14.1538367"><ele>106.0</ele><time>2026-04-09T13:04:53.687Z</time></trkpt><trkpt lat="40.9152717" lon="14.153745"><ele>105.66666666666666</ele><time>2026-04-09T13:04:54.687Z</time></trkpt><trkpt lat="40.9152283" lon="14.1536633"><ele>105.33333333333333</ele><time>2026-04-09T13:04:55.687Z</time></trkpt><trkpt lat="40.9151783" lon="14.1535883"><ele>105.0</ele><time>2026-04-09T13:04:56.687Z</time></trkpt><trkpt lat="40.9151267" lon="14.15352"><ele>105.0</ele><time>2026-04-09T13:04:57.687Z</time></trkpt><trkpt lat="40.9150733" lon="14.1534533"><ele>105.0</ele><time>2026-04-09T13:04:58.686Z</time></trkpt><trkpt lat="40.9150183" lon="14.15339"><ele>105.0</ele><time>2026-04-09T13:04:59.688Z</time></trkpt><trkpt lat="40.9149617" lon="14.1533283"><ele>105.0</ele><time>2026-04-09T13:05:00.688Z</time></trkpt><trkpt lat="40.9149017" lon="14.1532717"><ele>105.0</ele><time>2026-04-09T13:05:01.686Z</time></trkpt><trkpt lat="40.9148467" lon="14.15321"><ele>105.0</ele><time>2026-04-09T13:05:02.687Z</time></trkpt><trkpt lat="40.91479" lon="14.15315"><ele>105.0</ele><time>2026-04-09T13:05:03.687Z</time></trkpt><trkpt lat="40.9147367" lon="14.1530883"><ele>105.14285714285714</ele><time>2026-04-09T13:05:04.686Z</time></trkpt><trkpt lat="40.91468" lon="14.15303"><ele>105.28571428571428</ele><time>2026-04-09T13:05:05.688Z</time></trkpt><trkpt lat="40.9146233" lon="14.1529733"><ele>105.42857142857143</ele><time>2026-04-09T13:05:06.687Z</time></trkpt><trkpt lat="40.9145683" lon="14.1529183"><ele>105.57142857142857</ele><time>2026-04-09T13:05:07.687Z</time></trkpt><trkpt lat="40.9145133" lon="14.1528633"><ele>105.71428571428571</ele><time>2026-04-09T13:05:08.687Z</time></trkpt><trkpt lat="40.9144583" lon="14.1528033"><ele>105.85714285714286</ele><time>2026-04-09T13:05:09.687Z</time></trkpt><trkpt lat="40.9144067" lon="14.1527383"><ele>106.0</ele><time>2026-04-09T13:05:10.687Z</time></trkpt><trkpt lat="40.91436" lon="14.15267"><ele>106.00000000000001</ele><time>2026-04-09T13:05:11.687Z</time></trkpt><trkpt lat="40.9143117" lon="14.1526017"><ele>106.0</ele><time>2026-04-09T13:05:12.687Z</time></trkpt><trkpt lat="40.9142667" lon="14.1525317"><ele>106.0</ele><time>2026-04-09T13:05:13.686Z</time></trkpt><trkpt lat="40.9142" lon="14.1523967"><ele>106.0</ele><time>2026-04-09T13:05:15.685Z</time></trkpt><trkpt lat="40.914175" lon="14.15224"><ele>106.00000000000001</ele><time>2026-04-09T13:05:17.687Z</time></trkpt><trkpt lat="40.9141767" lon="14.1521533"><ele>106.0</ele><time>2026-04-09T13:05:18.684Z</time></trkpt><trkpt lat="40.9141833" lon="14.1520633"><ele>106.0</ele><time>2026-04-09T13:05:19.686Z</time></trkpt><trkpt lat="40.91419" lon="14.1519733"><ele>106.0</ele><time>2026-04-09T13:05:20.687Z</time></trkpt><trkpt lat="40.9141917" lon="14.15188"><ele>106.0</ele><time>2026-04-09T13:05:21.687Z</time></trkpt><trkpt lat="40.9141883" lon="14.151785"><ele>106.0</ele><time>2026-04-09T13:05:22.686Z</time></trkpt><trkpt lat="40.914185" lon="14.15169"><ele>106.0</ele><time>2026-04-09T13:05:23.687Z</time></trkpt><trkpt lat="40.9141833" lon="14.1515933"><ele>106.0</ele><time>2026-04-09T13:05:24.689Z</time></trkpt><trkpt lat="40.9141833" lon="14.1515017"><ele>106.0</ele><time>2026-04-09T13:05:25.687Z</time></trkpt><trkpt lat="40.91418" lon="14.151405"><ele>105.50000000000001</ele><time>2026-04-09T13:05:26.685Z</time></trkpt><trkpt lat="40.9141683" lon="14.1513083"><ele>105.0</ele><time>2026-04-09T13:05:27.686Z</time></trkpt><trkpt lat="40.9141467" lon="14.1512133"><ele>104.5</ele><time>2026-04-09T13:05:28.687Z</time></trkpt><trkpt lat="40.914115" lon="14.1511167"><ele>104.0</ele><time>2026-04-09T13:05:29.685Z</time></trkpt><trkpt lat="40.91408" lon="14.1510233"><ele>103.50000000000001</ele><time>2026-04-09T13:05:30.686Z</time></trkpt><trkpt lat="40.914045" lon="14.15093"><ele>103.0</ele><time>2026-04-09T13:05:31.688Z</time></trkpt><trkpt lat="40.9140083" lon="14.1508383"><ele>103.00000000000001</ele><time>2026-04-09T13:05:32.687Z</time></trkpt><trkpt lat="40.9139717" lon="14.1507467"><ele>103.0</ele><time>2026-04-09T13:05:33.686Z</time></trkpt><trkpt lat="40.9139383" lon="14.150655"><ele>103.0</ele><time>2026-04-09T13:05:34.688Z</time></trkpt><trkpt lat="40.9139067" lon="14.1505583"><ele>103.0</ele><time>2026-04-09T13:05:35.688Z</time></trkpt><trkpt lat="40.9138833" lon="14.1504633"><ele>103.00000000000001</ele><time>2026-04-09T13:05:36.686Z</time></trkpt><trkpt lat="40.9138583" lon="14.150365"><ele>103.0</ele><time>2026-04-09T13:05:37.686Z</time></trkpt><trkpt lat="40.9138417" lon="14.1502683"><ele>102.85714285714285</ele><time>2026-04-09T13:05:38.688Z</time></trkpt><trkpt lat="40.9138283" lon="14.1501733"><ele>102.71428571428571</ele><time>2026-04-09T13:05:39.687Z</time></trkpt><trkpt lat="40.91382" lon="14.1500767"><ele>102.57142857142857</ele><time>2026-04-09T13:05:40.689Z</time></trkpt><trkpt lat="40.9138167" lon="14.14998"><ele>102.42857142857142</ele><time>2026-04-09T13:05:41.689Z</time></trkpt><trkpt lat="40.913815" lon="14.149885"><ele>102.28571428571429</ele><time>2026-04-09T13:05:42.689Z</time></trkpt><trkpt lat="40.9138183" lon="14.14979"><ele>102.14285714285714</ele><time>2026-04-09T13:05:43.689Z</time></trkpt><trkpt lat="40.9138217" lon="14.149695"><ele>102.0</ele><time>2026-04-09T13:05:44.688Z</time></trkpt><trkpt lat="40.9138267" lon="14.149595"><ele>101.85714285714286</ele><time>2026-04-09T13:05:45.689Z</time></trkpt><trkpt lat="40.9138233" lon="14.1494967"><ele>101.71428571428572</ele><time>2026-04-09T13:05:46.687Z</time></trkpt><trkpt lat="40.913815" lon="14.1494017"><ele>101.57142857142857</ele><time>2026-04-09T13:05:47.687Z</time></trkpt><trkpt lat="40.9138067" lon="14.1493033"><ele>101.42857142857143</ele><time>2026-04-09T13:05:48.687Z</time></trkpt><trkpt lat="40.9137983" lon="14.1492067"><ele>101.28571428571428</ele><time>2026-04-09T13:05:49.688Z</time></trkpt><trkpt lat="40.9137867" lon="14.1491117"><ele>101.14285714285714</ele><time>2026-04-09T13:05:50.687Z</time></trkpt><trkpt lat="40.91377" lon="14.1490183"><ele>101.0</ele><time>2026-04-09T13:05:51.684Z</time></trkpt><trkpt lat="40.9137467" lon="14.1489283"><ele>100.57142857142857</ele><time>2026-04-09T13:05:52.69Z</time></trkpt><trkpt lat="40.9137233" lon="14.14884"><ele>100.14285714285714</ele><time>2026-04-09T13:05:53.687Z</time></trkpt><trkpt lat="40.913695" lon="14.1487567"><ele>99.71428571428572</ele><time>2026-04-09T13:05:54.686Z</time></trkpt><trkpt lat="40.9136633" lon="14.1486767"><ele>99.28571428571428</ele><time>2026-04-09T13:05:55.687Z</time></trkpt><trkpt lat="40.9136283" lon="14.1486"><ele>98.85714285714286</ele><time>2026-04-09T13:05:56.689Z</time></trkpt><trkpt lat="40.9135967" lon="14.1485233"><ele>98.42857142857143</ele><time>2026-04-09T13:05:57.686Z</time></trkpt><trkpt lat="40.9135617" lon="14.1484517"><ele>98.0</ele><time>2026-04-09T13:05:58.687Z</time></trkpt><trkpt lat="40.9135233" lon="14.148385"><ele>97.99999999999999</ele><time>2026-04-09T13:05:59.687Z</time></trkpt><trkpt lat="40.9134433" lon="14.148255"><ele>98.0</ele><time>2026-04-09T13:06:01.688Z</time></trkpt><trkpt lat="40.9134017" lon="14.1481867"><ele>98.0</ele><time>2026-04-09T13:06:02.687Z</time></trkpt><trkpt lat="40.9133583" lon="14.1481167"><ele>98.0</ele><time>2026-04-09T13:06:03.687Z</time></trkpt><trkpt lat="40.913315" lon="14.1480467"><ele>97.99999999999999</ele><time>2026-04-09T13:06:04.687Z</time></trkpt><trkpt lat="40.9132717" lon="14.14797"><ele>98.0</ele><time>2026-04-09T13:06:05.689Z</time></trkpt><trkpt lat="40.9132333" lon="14.1478967"><ele>98.0</ele><time>2026-04-09T13:06:06.689Z</time></trkpt><trkpt lat="40.9131967" lon="14.1478233"><ele>98.0</ele><time>2026-04-09T13:06:07.687Z</time></trkpt><trkpt lat="40.91316" lon="14.1477467"><ele>98.0</ele><time>2026-04-09T13:06:08.689Z</time></trkpt><trkpt lat="40.913125" lon="14.14767"><ele>98.0</ele><time>2026-04-09T13:06:09.687Z</time></trkpt><trkpt lat="40.91309" lon="14.1475983"><ele>98.0</ele><time>2026-04-09T13:06:10.687Z</time></trkpt><trkpt lat="40.9130567" lon="14.1475217"><ele>98.0</ele><time>2026-04-09T13:06:11.689Z</time></trkpt><trkpt lat="40.9130217" lon="14.147445"><ele>98.0</ele><time>2026-04-09T13:06:12.685Z</time></trkpt><trkpt lat="40.912985" lon="14.147365"><ele>97.85714285714286</ele><time>2026-04-09T13:06:13.688Z</time></trkpt><trkpt lat="40.91295" lon="14.147285"><ele>97.71428571428572</ele><time>2026-04-09T13:06:14.687Z</time></trkpt><trkpt lat="40.9129167" lon="14.1472083"><ele>97.57142857142857</ele><time>2026-04-09T13:06:15.687Z</time></trkpt><trkpt lat="40.9128867" lon="14.147125"><ele>97.42857142857143</ele><time>2026-04-09T13:06:16.686Z</time></trkpt><trkpt lat="40.9128617" lon="14.1470367"><ele>97.28571428571429</ele><time>2026-04-09T13:06:17.689Z</time></trkpt><trkpt lat="40.912845" lon="14.1469517"><ele>97.14285714285714</ele><time>2026-04-09T13:06:18.687Z</time></trkpt><trkpt lat="40.9128383" lon="14.146865"><ele>97.0</ele><time>2026-04-09T13:06:19.687Z</time></trkpt><trkpt lat="40.9128417" lon="14.146775"><ele>97.0</ele><time>2026-04-09T13:06:20.687Z</time></trkpt><trkpt lat="40.9128517" lon="14.146685"><ele>97.0</ele><time>2026-04-09T13:06:21.686Z</time></trkpt><trkpt lat="40.9128617" lon="14.146595"><ele>97.0</ele><time>2026-04-09T13:06:22.687Z</time></trkpt><trkpt lat="40.912875" lon="14.1465083"><ele>97.0</ele><time>2026-04-09T13:06:23.685Z</time></trkpt><trkpt lat="40.9128933" lon="14.1464167"><ele>97.0</ele><time>2026-04-09T13:06:24.689Z</time></trkpt><trkpt lat="40.9129167" lon="14.1463283"><ele>97.0</ele><time>2026-04-09T13:06:25.687Z</time></trkpt><trkpt lat="40.9129417" lon="14.1462483"><ele>97.0</ele><time>2026-04-09T13:06:26.685Z</time></trkpt><trkpt lat="40.9129583" lon="14.1461633"><ele>97.0</ele><time>2026-04-09T13:06:27.685Z</time></trkpt><trkpt lat="40.9129783" lon="14.14608"><ele>97.0</ele><time>2026-04-09T13:06:28.689Z</time></trkpt><trkpt lat="40.9129983" lon="14.1459933"><ele>97.0</ele><time>2026-04-09T13:06:29.687Z</time></trkpt><trkpt lat="40.9130167" lon="14.14591"><ele>97.0</ele><time>2026-04-09T13:06:30.685Z</time></trkpt><trkpt lat="40.9130317" lon="14.1458233"><ele>97.0</ele><time>2026-04-09T13:06:31.687Z</time></trkpt><trkpt lat="40.9130383" lon="14.1457367"><ele>97.0</ele><time>2026-04-09T13:06:32.686Z</time></trkpt><trkpt lat="40.9130367" lon="14.1456517"><ele>97.0</ele><time>2026-04-09T13:06:33.687Z</time></trkpt><trkpt lat="40.913035" lon="14.1454933"><ele>96.83333333333334</ele><time>2026-04-09T13:06:35.687Z</time></trkpt><trkpt lat="40.9130533" lon="14.1453617"><ele>96.66666666666667</ele><time>2026-04-09T13:06:37.687Z</time></trkpt><trkpt lat="40.9130733" lon="14.1452583"><ele>96.5</ele><time>2026-04-09T13:06:39.686Z</time></trkpt><trkpt lat="40.91309" lon="14.1451617"><ele>96.33333333333334</ele><time>2026-04-09T13:06:41.688Z</time></trkpt><trkpt lat="40.9130567" lon="14.14506"><ele>96.16666666666667</ele><time>2026-04-09T13:06:43.691Z</time></trkpt><trkpt lat="40.9129883" lon="14.1449667"><ele>96.0</ele><time>2026-04-09T13:06:45.686Z</time></trkpt><trkpt lat="40.9129267" lon="14.1448567"><ele>95.5</ele><time>2026-04-09T13:06:47.689Z</time></trkpt><trkpt lat="40.9128783" lon="14.1447267"><ele>95.0</ele><time>2026-04-09T13:06:49.689Z</time></trkpt><trkpt lat="40.9128267" lon="14.1445883"><ele>94.5</ele><time>2026-04-09T13:06:51.689Z</time></trkpt><trkpt lat="40.9127783" lon="14.1444517"><ele>94.0</ele><time>2026-04-09T13:06:53.689Z</time></trkpt><trkpt lat="40.912725" lon="14.1443083"><ele>94.0</ele><time>2026-04-09T13:06:55.689Z</time></trkpt><trkpt lat="40.9126783" lon="14.1441667"><ele>94.0</ele><time>2026-04-09T13:06:57.688Z</time></trkpt><trkpt lat="40.912625" lon="14.144035"><ele>94.0</ele><time>2026-04-09T13:06:59.688Z</time></trkpt><trkpt lat="40.9125717" lon="14.1439"><ele>94.0</ele><time>2026-04-09T13:07:01.689Z</time></trkpt><trkpt lat="40.91252" lon="14.14377"><ele>95.25</ele><time>2026-04-09T13:07:03.689Z</time></trkpt><trkpt lat="40.9124833" lon="14.1436333"><ele>96.5</ele><time>2026-04-09T13:07:05.689Z</time></trkpt><trkpt lat="40.912435" lon="14.14349"><ele>97.75</ele><time>2026-04-09T13:07:07.689Z</time></trkpt><trkpt lat="40.9123867" lon="14.1433533"><ele>99.0</ele><time>2026-04-09T13:07:09.685Z</time></trkpt><trkpt lat="40.912335" lon="14.1432167"><ele>98.5</ele><time>2026-04-09T13:07:11.689Z</time></trkpt><trkpt lat="40.9122883" lon="14.1430767"><ele>98.0</ele><time>2026-04-09T13:07:13.69Z</time></trkpt><trkpt lat="40.9122417" lon="14.1429433"><ele>97.5</ele><time>2026-04-09T13:07:15.688Z</time></trkpt><trkpt lat="40.9121967" lon="14.1428117"><ele>97.0</ele><time>2026-04-09T13:07:17.686Z</time></trkpt><trkpt lat="40.91215" lon="14.1426717"><ele>97.0</ele><time>2026-04-09T13:07:19.687Z</time></trkpt><trkpt lat="40.9121033" lon="14.1425383"><ele>97.0</ele><time>2026-04-09T13:07:21.689Z</time></trkpt><trkpt lat="40.9120567" lon="14.1424033"><ele>97.0</ele><time>2026-04-09T13:07:23.689Z</time></trkpt><trkpt lat="40.91201" lon="14.14227"><ele>97.0</ele><time>2026-04-09T13:07:25.69Z</time></trkpt><trkpt lat="40.9119617" lon="14.1421383"><ele>97.0</ele><time>2026-04-09T13:07:27.688Z</time></trkpt><trkpt lat="40.9119167" lon="14.142005"><ele>97.0</ele><time>2026-04-09T13:07:29.687Z</time></trkpt><trkpt lat="40.9118717" lon="14.141875"><ele>97.0</ele><time>2026-04-09T13:07:31.689Z</time></trkpt><trkpt lat="40.9118283" lon="14.1417433"><ele>97.0</ele><time>2026-04-09T13:07:33.689Z</time></trkpt><trkpt lat="40.9117767" lon="14.14161"><ele>97.0</ele><time>2026-04-09T13:07:35.689Z</time></trkpt><trkpt lat="40.911725" lon="14.1414833"><ele>97.0</ele><time>2026-04-09T13:07:37.689Z</time></trkpt><trkpt lat="40.91168" lon="14.14135"><ele>97.5</ele><time>2026-04-09T13:07:39.689Z</time></trkpt><trkpt lat="40.911635" lon="14.1412067"><ele>98.0</ele><time>2026-04-09T13:07:41.69Z</time></trkpt><trkpt lat="40.9115867" lon="14.1410633"><ele>98.5</ele><time>2026-04-09T13:07:43.688Z</time></trkpt><trkpt lat="40.9115367" lon="14.1409283"><ele>99.0</ele><time>2026-04-09T13:07:45.688Z</time></trkpt><trkpt lat="40.9114867" lon="14.1407917"><ele>98.25</ele><time>2026-04-09T13:07:47.686Z</time></trkpt><trkpt lat="40.9114333" lon="14.14066"><ele>97.5</ele><time>2026-04-09T13:07:49.689Z</time></trkpt><trkpt lat="40.911385" lon="14.140525"><ele>96.75</ele><time>2026-04-09T13:07:51.689Z</time></trkpt><trkpt lat="40.9113383" lon="14.140385"><ele>96.0</ele><time>2026-04-09T13:07:53.689Z</time></trkpt><trkpt lat="40.91129" lon="14.1402433"><ele>96.0</ele><time>2026-04-09T13:07:55.689Z</time></trkpt><trkpt lat="40.9112433" lon="14.1401133"><ele>96.0</ele><time>2026-04-09T13:07:57.69Z</time></trkpt><trkpt lat="40.9111983" lon="14.13999"><ele>96.0</ele><time>2026-04-09T13:07:59.689Z</time></trkpt><trkpt lat="40.911155" lon="14.1398683"><ele>96.0</ele><time>2026-04-09T13:08:01.69Z</time></trkpt><trkpt lat="40.9111167" lon="14.1397567"><ele>96.0</ele><time>2026-04-09T13:08:03.689Z</time></trkpt><trkpt lat="40.9110833" lon="14.1396667"><ele>96.4</ele><time>2026-04-09T13:08:05.689Z</time></trkpt><trkpt lat="40.9110483" lon="14.1395717"><ele>96.8</ele><time>2026-04-09T13:08:07.69Z</time></trkpt><trkpt lat="40.9110117" lon="14.1394617"><ele>97.2</ele><time>2026-04-09T13:08:09.689Z</time></trkpt><trkpt lat="40.9109733" lon="14.1393433"><ele>97.60000000000001</ele><time>2026-04-09T13:08:11.689Z</time></trkpt><trkpt lat="40.91093" lon="14.1392183"><ele>98.0</ele><time>2026-04-09T13:08:13.689Z</time></trkpt><trkpt lat="40.910885" lon="14.1390933"><ele>98.2</ele><time>2026-04-09T13:08:15.689Z</time></trkpt><trkpt lat="40.9108383" lon="14.13897"><ele>98.4</ele><time>2026-04-09T13:08:17.689Z</time></trkpt><trkpt lat="40.9107917" lon="14.1388383"><ele>98.60000000000001</ele><time>2026-04-09T13:08:19.689Z</time></trkpt><trkpt lat="40.9107467" lon="14.1387"><ele>98.80000000000001</ele><time>2026-04-09T13:08:21.686Z</time></trkpt><trkpt lat="40.9107017" lon="14.1385633"><ele>99.0</ele><time>2026-04-09T13:08:23.686Z</time></trkpt><trkpt lat="40.9106567" lon="14.13843"><ele>99.0</ele><time>2026-04-09T13:08:25.689Z</time></trkpt><trkpt lat="40.9106067" lon="14.1383067"><ele>99.0</ele><time>2026-04-09T13:08:27.687Z</time></trkpt><trkpt lat="40.9105533" lon="14.138195"><ele>99.0</ele><time>2026-04-09T13:08:29.689Z</time></trkpt><trkpt lat="40.9105183" lon="14.1380633"><ele>99.0</ele><time>2026-04-09T13:08:31.688Z</time></trkpt><trkpt lat="40.91048" lon="14.1379283"><ele>99.0</ele><time>2026-04-09T13:08:33.689Z</time></trkpt><trkpt lat="40.91043" lon="14.1377883"><ele>99.0</ele><time>2026-04-09T13:08:35.686Z</time></trkpt><trkpt lat="40.9103817" lon="14.1376483"><ele>99.0</ele><time>2026-04-09T13:08:37.686Z</time></trkpt><trkpt lat="40.9103317" lon="14.1375117"><ele>99.0</ele><time>2026-04-09T13:08:39.687Z</time></trkpt><trkpt lat="40.9102817" lon="14.1373767"><ele>99.0</ele><time>2026-04-09T13:08:41.688Z</time></trkpt><trkpt lat="40.910235" lon="14.13724"><ele>99.0</ele><time>2026-04-09T13:08:43.69Z</time></trkpt><trkpt lat="40.9101883" lon="14.137105"><ele>99.0</ele><time>2026-04-09T13:08:45.687Z</time></trkpt><trkpt lat="40.9101433" lon="14.1369833"><ele>99.0</ele><time>2026-04-09T13:08:47.69Z</time></trkpt><trkpt lat="40.9101017" lon="14.1368567"><ele>99.0</ele><time>2026-04-09T13:08:49.687Z</time></trkpt><trkpt lat="40.9100567" lon="14.1367267"><ele>99.0</ele><time>2026-04-09T13:08:51.685Z</time></trkpt><trkpt lat="40.9100117" lon="14.13659"><ele>99.75</ele><time>2026-04-09T13:08:53.687Z</time></trkpt><trkpt lat="40.9099617" lon="14.1364533"><ele>100.5</ele><time>2026-04-09T13:08:55.689Z</time></trkpt><trkpt lat="40.9099117" lon="14.136315"><ele>101.25</ele><time>2026-04-09T13:08:57.688Z</time></trkpt><trkpt lat="40.90986" lon="14.1361767"><ele>102.0</ele><time>2026-04-09T13:08:59.686Z</time></trkpt><trkpt lat="40.90981" lon="14.1360333"><ele>102.0</ele><time>2026-04-09T13:09:01.688Z</time></trkpt><trkpt lat="40.9097617" lon="14.135895"><ele>102.0</ele><time>2026-04-09T13:09:03.685Z</time></trkpt><trkpt lat="40.9097133" lon="14.13575"><ele>102.0</ele><time>2026-04-09T13:09:05.687Z</time></trkpt><trkpt lat="40.909665" lon="14.135605"><ele>102.0</ele><time>2026-04-09T13:09:07.687Z</time></trkpt><trkpt lat="40.9096133" lon="14.13546"><ele>101.5</ele><time>2026-04-09T13:09:09.686Z</time></trkpt><trkpt lat="40.90956" lon="14.1353167"><ele>101.0</ele><time>2026-04-09T13:09:11.686Z</time></trkpt><trkpt lat="40.9095083" lon="14.1351717"><ele>100.5</ele><time>2026-04-09T13:09:13.689Z</time></trkpt><trkpt lat="40.9094583" lon="14.1350267"><ele>100.0</ele><time>2026-04-09T13:09:15.686Z</time></trkpt><trkpt lat="40.9094067" lon="14.1348783"><ele>99.75</ele><time>2026-04-09T13:09:17.686Z</time></trkpt><trkpt lat="40.909355" lon="14.1347283"><ele>99.5</ele><time>2026-04-09T13:09:19.688Z</time></trkpt><trkpt lat="40.9093067" lon="14.1345817"><ele>99.25</ele><time>2026-04-09T13:09:21.687Z</time></trkpt><trkpt lat="40.909255" lon="14.1344333"><ele>99.0</ele><time>2026-04-09T13:09:23.69Z</time></trkpt><trkpt lat="40.9092017" lon="14.13429"><ele>99.80000000000001</ele><time>2026-04-09T13:09:25.686Z</time></trkpt><trkpt lat="40.90915" lon="14.1341417"><ele>100.60000000000001</ele><time>2026-04-09T13:09:27.687Z</time></trkpt><trkpt lat="40.9091233" lon="14.134065"><ele>101.4</ele><time>2026-04-09T13:09:28.686Z</time></trkpt><trkpt lat="40.9090717" lon="14.13392"><ele>102.2</ele><time>2026-04-09T13:09:30.686Z</time></trkpt><trkpt lat="40.9090217" lon="14.1337733"><ele>103.0</ele><time>2026-04-09T13:09:32.686Z</time></trkpt><trkpt lat="40.9089683" lon="14.1336283"><ele>103.0</ele><time>2026-04-09T13:09:34.687Z</time></trkpt><trkpt lat="40.9089167" lon="14.1334833"><ele>103.0</ele><time>2026-04-09T13:09:36.688Z</time></trkpt><trkpt lat="40.9088667" lon="14.1333383"><ele>103.0</ele><time>2026-04-09T13:09:38.689Z</time></trkpt><trkpt lat="40.9088133" lon="14.1331933"><ele>103.0</ele><time>2026-04-09T13:09:40.687Z</time></trkpt><trkpt lat="40.9087617" lon="14.133045"><ele>103.0</ele><time>2026-04-09T13:09:42.687Z</time></trkpt><trkpt lat="40.90871" lon="14.1329017"><ele>103.0</ele><time>2026-04-09T13:09:44.689Z</time></trkpt><trkpt lat="40.9086533" lon="14.1327717"><ele>103.0</ele><time>2026-04-09T13:09:46.687Z</time></trkpt><trkpt lat="40.9086083" lon="14.13264"><ele>103.0</ele><time>2026-04-09T13:09:48.686Z</time></trkpt><trkpt lat="40.9085633" lon="14.1324983"><ele>103.0</ele><time>2026-04-09T13:09:50.689Z</time></trkpt><trkpt lat="40.9085183" lon="14.132355"><ele>103.0</ele><time>2026-04-09T13:09:52.689Z</time></trkpt><trkpt lat="40.9084717" lon="14.1322133"><ele>103.0</ele><time>2026-04-09T13:09:54.689Z</time></trkpt><trkpt lat="40.9084233" lon="14.1320783"><ele>103.0</ele><time>2026-04-09T13:09:56.689Z</time></trkpt><trkpt lat="40.9083767" lon="14.131945"><ele>103.2</ele><time>2026-04-09T13:09:58.689Z</time></trkpt><trkpt lat="40.9083267" lon="14.131815"><ele>103.4</ele><time>2026-04-09T13:10:00.688Z</time></trkpt><trkpt lat="40.9082783" lon="14.1316817"><ele>103.60000000000001</ele><time>2026-04-09T13:10:02.69Z</time></trkpt><trkpt lat="40.9082333" lon="14.131545"><ele>103.80000000000001</ele><time>2026-04-09T13:10:04.685Z</time></trkpt><trkpt lat="40.9081867" lon="14.13141"><ele>104.0</ele><time>2026-04-09T13:10:06.686Z</time></trkpt><trkpt lat="40.908135" lon="14.1312817"><ele>104.0</ele><time>2026-04-09T13:10:08.689Z</time></trkpt><trkpt lat="40.90809" lon="14.131165"><ele>104.0</ele><time>2026-04-09T13:10:10.689Z</time></trkpt><trkpt lat="40.9080467" lon="14.131045"><ele>104.0</ele><time>2026-04-09T13:10:12.689Z</time></trkpt><trkpt lat="40.9080017" lon="14.1309217"><ele>104.0</ele><time>2026-04-09T13:10:14.689Z</time></trkpt><trkpt lat="40.90796" lon="14.1307967"><ele>104.0</ele><time>2026-04-09T13:10:16.689Z</time></trkpt><trkpt lat="40.9079167" lon="14.1306683"><ele>104.0</ele><time>2026-04-09T13:10:18.689Z</time></trkpt><trkpt lat="40.9078733" lon="14.1305467"><ele>104.0</ele><time>2026-04-09T13:10:20.689Z</time></trkpt><trkpt lat="40.9078267" lon="14.1304217"><ele>104.0</ele><time>2026-04-09T13:10:22.689Z</time></trkpt><trkpt lat="40.90778" lon="14.1302917"><ele>104.0</ele><time>2026-04-09T13:10:24.689Z</time></trkpt><trkpt lat="40.907735" lon="14.1301583"><ele>104.0</ele><time>2026-04-09T13:10:26.689Z</time></trkpt><trkpt lat="40.907685" lon="14.130025"><ele>104.0</ele><time>2026-04-09T13:10:28.689Z</time></trkpt><trkpt lat="40.9076383" lon="14.1298933"><ele>104.0</ele><time>2026-04-09T13:10:30.689Z</time></trkpt><trkpt lat="40.9075917" lon="14.1297583"><ele>104.0</ele><time>2026-04-09T13:10:32.69Z</time></trkpt><trkpt lat="40.9075417" lon="14.1296217"><ele>104.0</ele><time>2026-04-09T13:10:34.689Z</time></trkpt><trkpt lat="40.90749" lon="14.129485"><ele>104.25</ele><time>2026-04-09T13:10:36.689Z</time></trkpt><trkpt lat="40.9074417" lon="14.1293383"><ele>104.5</ele><time>2026-04-09T13:10:38.689Z</time></trkpt><trkpt lat="40.9073933" lon="14.1291967"><ele>104.75</ele><time>2026-04-09T13:10:40.689Z</time></trkpt><trkpt lat="40.9073433" lon="14.1290567"><ele>105.0</ele><time>2026-04-09T13:10:42.69Z</time></trkpt><trkpt lat="40.9072983" lon="14.1289167"><ele>105.2</ele><time>2026-04-09T13:10:44.69Z</time></trkpt><trkpt lat="40.9072533" lon="14.1287833"><ele>105.4</ele><time>2026-04-09T13:10:46.686Z</time></trkpt><trkpt lat="40.9072067" lon="14.12865"><ele>105.6</ele><time>2026-04-09T13:10:48.687Z</time></trkpt><trkpt lat="40.90716" lon="14.1285167"><ele>105.8</ele><time>2026-04-09T13:10:50.686Z</time></trkpt><trkpt lat="40.9071117" lon="14.12838"><ele>106.0</ele><time>2026-04-09T13:10:52.686Z</time></trkpt><trkpt lat="40.90706" lon="14.1282433"><ele>105.75</ele><time>2026-04-09T13:10:54.689Z</time></trkpt><trkpt lat="40.907015" lon="14.12811"><ele>105.5</ele><time>2026-04-09T13:10:56.686Z</time></trkpt><trkpt lat="40.906965" lon="14.1279733"><ele>105.25</ele><time>2026-04-09T13:10:58.689Z</time></trkpt><trkpt lat="40.9069183" lon="14.1278367"><ele>105.0</ele><time>2026-04-09T13:11:00.69Z</time></trkpt><trkpt lat="40.906875" lon="14.1277"><ele>105.0</ele><time>2026-04-09T13:11:02.687Z</time></trkpt><trkpt lat="40.9068267" lon="14.1275667"><ele>105.0</ele><time>2026-04-09T13:11:04.688Z</time></trkpt><trkpt lat="40.90678" lon="14.1274317"><ele>105.0</ele><time>2026-04-09T13:11:06.687Z</time></trkpt><trkpt lat="40.9067317" lon="14.127295"><ele>105.0</ele><time>2026-04-09T13:11:08.689Z</time></trkpt><trkpt lat="40.906685" lon="14.1271633"><ele>105.0</ele><time>2026-04-09T13:11:10.689Z</time></trkpt><trkpt lat="40.90664" lon="14.1270333"><ele>105.0</ele><time>2026-04-09T13:11:12.689Z</time></trkpt><trkpt lat="40.9065933" lon="14.1269033"><ele>105.0</ele><time>2026-04-09T13:11:14.688Z</time></trkpt><trkpt lat="40.9065467" lon="14.1267767"><ele>105.0</ele><time>2026-04-09T13:11:16.686Z</time></trkpt><trkpt lat="40.9065017" lon="14.1266417"><ele>105.0</ele><time>2026-04-09T13:11:18.687Z</time></trkpt><trkpt lat="40.9064517" lon="14.12651"><ele>105.0</ele><time>2026-04-09T13:11:20.687Z</time></trkpt><trkpt lat="40.9064033" lon="14.1263733"><ele>105.0</ele><time>2026-04-09T13:11:22.686Z</time></trkpt><trkpt lat="40.9063583" lon="14.1262333"><ele>105.0</ele><time>2026-04-09T13:11:24.686Z</time></trkpt><trkpt lat="40.90631" lon="14.126095"><ele>105.0</ele><time>2026-04-09T13:11:26.688Z</time></trkpt><trkpt lat="40.9062617" lon="14.1259583"><ele>105.0</ele><time>2026-04-09T13:11:28.689Z</time></trkpt><trkpt lat="40.9062133" lon="14.12582"><ele>105.0</ele><time>2026-04-09T13:11:30.689Z</time></trkpt><trkpt lat="40.9061633" lon="14.1256783"><ele>105.0</ele><time>2026-04-09T13:11:32.689Z</time></trkpt><trkpt lat="40.906115" lon="14.12554"><ele>105.0</ele><time>2026-04-09T13:11:34.689Z</time></trkpt><trkpt lat="40.9060633" lon="14.1254017"><ele>105.0</ele><time>2026-04-09T13:11:36.69Z</time></trkpt><trkpt lat="40.9060133" lon="14.1252633"><ele>105.0</ele><time>2026-04-09T13:11:38.688Z</time></trkpt><trkpt lat="40.905965" lon="14.1251217"><ele>105.0</ele><time>2026-04-09T13:11:40.688Z</time></trkpt><trkpt lat="40.9059167" lon="14.1249783"><ele>105.0</ele><time>2026-04-09T13:11:42.703Z</time></trkpt><trkpt lat="40.905875" lon="14.1248417"><ele>105.0</ele><time>2026-04-09T13:11:44.684Z</time></trkpt><trkpt lat="40.9058133" lon="14.124705"><ele>105.75</ele><time>2026-04-09T13:11:46.69Z</time></trkpt><trkpt lat="40.9057517" lon="14.1245567"><ele>106.5</ele><time>2026-04-09T13:11:48.686Z</time></trkpt><trkpt lat="40.9057083" lon="14.1244183"><ele>107.25</ele><time>2026-04-09T13:11:50.685Z</time></trkpt><trkpt lat="40.90566" lon="14.124285"><ele>108.0</ele><time>2026-04-09T13:11:52.685Z</time></trkpt><trkpt lat="40.90561" lon="14.1241483"><ele>106.75</ele><time>2026-04-09T13:11:54.685Z</time></trkpt><trkpt lat="40.9055667" lon="14.124005"><ele>105.5</ele><time>2026-04-09T13:11:56.686Z</time></trkpt><trkpt lat="40.9055183" lon="14.1238667"><ele>104.25</ele><time>2026-04-09T13:11:58.686Z</time></trkpt><trkpt lat="40.9054683" lon="14.1237267"><ele>103.0</ele><time>2026-04-09T13:12:00.684Z</time></trkpt><trkpt lat="40.9054117" lon="14.123575"><ele>103.0</ele><time>2026-04-09T13:12:02.685Z</time></trkpt><trkpt lat="40.90536" lon="14.1234217"><ele>103.0</ele><time>2026-04-09T13:12:04.685Z</time></trkpt><trkpt lat="40.905335" lon="14.123345"><ele>103.0</ele><time>2026-04-09T13:12:05.687Z</time></trkpt><trkpt lat="40.9052867" lon="14.1232"><ele>103.0</ele><time>2026-04-09T13:12:07.685Z</time></trkpt><trkpt lat="40.9052383" lon="14.1230617"><ele>103.0</ele><time>2026-04-09T13:12:09.685Z</time></trkpt><trkpt lat="40.90519" lon="14.1229217"><ele>103.2</ele><time>2026-04-09T13:12:11.685Z</time></trkpt><trkpt lat="40.9051433" lon="14.12277"><ele>103.4</ele><time>2026-04-09T13:12:13.686Z</time></trkpt><trkpt lat="40.905095" lon="14.1226317"><ele>103.60000000000001</ele><time>2026-04-09T13:12:15.686Z</time></trkpt><trkpt lat="40.9050683" lon="14.122555"><ele>103.80000000000001</ele><time>2026-04-09T13:12:16.685Z</time></trkpt><trkpt lat="40.9050183" lon="14.12242"><ele>104.0</ele><time>2026-04-09T13:12:18.686Z</time></trkpt><trkpt lat="40.9049683" lon="14.1222833"><ele>104.4</ele><time>2026-04-09T13:12:20.686Z</time></trkpt><trkpt lat="40.9049317" lon="14.1221417"><ele>104.80000000000001</ele><time>2026-04-09T13:12:22.686Z</time></trkpt><trkpt lat="40.90491" lon="14.1220617"><ele>105.19999999999999</ele><time>2026-04-09T13:12:23.688Z</time></trkpt><trkpt lat="40.9048883" lon="14.1219833"><ele>105.6</ele><time>2026-04-09T13:12:24.687Z</time></trkpt><trkpt lat="40.904845" lon="14.121835"><ele>106.0</ele><time>2026-04-09T13:12:26.687Z</time></trkpt><trkpt lat="40.9048" lon="14.12169"><ele>106.19999999999999</ele><time>2026-04-09T13:12:28.687Z</time></trkpt><trkpt lat="40.90476" lon="14.1215483"><ele>106.39999999999999</ele><time>2026-04-09T13:12:30.689Z</time></trkpt><trkpt lat="40.90473" lon="14.1214"><ele>106.6</ele><time>2026-04-09T13:12:32.689Z</time></trkpt><trkpt lat="40.9047017" lon="14.12126"><ele>106.8</ele><time>2026-04-09T13:12:34.689Z</time></trkpt><trkpt lat="40.9046633" lon="14.121125"><ele>107.0</ele><time>2026-04-09T13:12:36.688Z</time></trkpt><trkpt lat="40.9046233" lon="14.1209933"><ele>107.0</ele><time>2026-04-09T13:12:38.69Z</time></trkpt><trkpt lat="40.9045683" lon="14.1208733"><ele>106.99999999999999</ele><time>2026-04-09T13:12:40.689Z</time></trkpt><trkpt lat="40.904495" lon="14.120785"><ele>106.99999999999999</ele><time>2026-04-09T13:12:42.689Z</time></trkpt><trkpt lat="40.9044" lon="14.1207233"><ele>107.0</ele><time>2026-04-09T13:12:44.688Z</time></trkpt><trkpt lat="40.9042983" lon="14.1206667"><ele>107.0</ele><time>2026-04-09T13:12:46.687Z</time></trkpt><trkpt lat="40.90421" lon="14.1205917"><ele>107.75</ele><time>2026-04-09T13:12:48.686Z</time></trkpt><trkpt lat="40.9041183" lon="14.120515"><ele>108.5</ele><time>2026-04-09T13:12:50.687Z</time></trkpt><trkpt lat="40.9040217" lon="14.1204267"><ele>109.25</ele><time>2026-04-09T13:12:52.686Z</time></trkpt><trkpt lat="40.90393" lon="14.1203267"><ele>110.0</ele><time>2026-04-09T13:12:54.689Z</time></trkpt><trkpt lat="40.90384" lon="14.12023"><ele>110.0</ele><time>2026-04-09T13:12:56.689Z</time></trkpt><trkpt lat="40.9037483" lon="14.1201433"><ele>110.0</ele><time>2026-04-09T13:12:58.689Z</time></trkpt><trkpt lat="40.9036533" lon="14.12006"><ele>110.0</ele><time>2026-04-09T13:13:00.689Z</time></trkpt><trkpt lat="40.903565" lon="14.1199733"><ele>110.0</ele><time>2026-04-09T13:13:02.688Z</time></trkpt><trkpt lat="40.90347" lon="14.1198883"><ele>110.0</ele><time>2026-04-09T13:13:04.689Z</time></trkpt><trkpt lat="40.9033617" lon="14.1198317"><ele>110.0</ele><time>2026-04-09T13:13:06.69Z</time></trkpt><trkpt lat="40.90325" lon="14.11978"><ele>110.0</ele><time>2026-04-09T13:13:08.689Z</time></trkpt><trkpt lat="40.9031367" lon="14.1197333"><ele>110.0</ele><time>2026-04-09T13:13:10.689Z</time></trkpt><trkpt lat="40.903025" lon="14.1196917"><ele>110.0</ele><time>2026-04-09T13:13:12.688Z</time></trkpt><trkpt lat="40.90291" lon="14.119655"><ele>110.0</ele><time>2026-04-09T13:13:14.689Z</time></trkpt><trkpt lat="40.9028483" lon="14.1196367"><ele>110.0</ele><time>2026-04-09T13:13:15.689Z</time></trkpt><trkpt lat="40.9027267" lon="14.11961"><ele>110.0</ele><time>2026-04-09T13:13:17.688Z</time></trkpt><trkpt lat="40.9026033" lon="14.11959"><ele>110.0</ele><time>2026-04-09T13:13:19.687Z</time></trkpt><trkpt lat="40.9024817" lon="14.1195733"><ele>109.4</ele><time>2026-04-09T13:13:21.685Z</time></trkpt><trkpt lat="40.90236" lon="14.1195633"><ele>108.8</ele><time>2026-04-09T13:13:23.69Z</time></trkpt><trkpt lat="40.9022383" lon="14.1195617"><ele>108.19999999999999</ele><time>2026-04-09T13:13:25.689Z</time></trkpt><trkpt lat="40.902175" lon="14.1195667"><ele>107.6</ele><time>2026-04-09T13:13:26.689Z</time></trkpt><trkpt lat="40.9020517" lon="14.11958"><ele>107.0</ele><time>2026-04-09T13:13:28.689Z</time></trkpt><trkpt lat="40.9019867" lon="14.11959"><ele>107.00000000000001</ele><time>2026-04-09T13:13:29.689Z</time></trkpt><trkpt lat="40.9019217" lon="14.1196033"><ele>107.0</ele><time>2026-04-09T13:13:30.689Z</time></trkpt><trkpt lat="40.9018583" lon="14.11962"><ele>107.0</ele><time>2026-04-09T13:13:31.69Z</time></trkpt><trkpt lat="40.9017367" lon="14.1196567"><ele>107.0</ele><time>2026-04-09T13:13:33.689Z</time></trkpt><trkpt lat="40.901675" lon="14.1196733"><ele>107.0</ele><time>2026-04-09T13:13:34.689Z</time></trkpt><trkpt lat="40.9016117" lon="14.119695"><ele>107.00000000000001</ele><time>2026-04-09T13:13:35.689Z</time></trkpt><trkpt lat="40.90155" lon="14.1197217"><ele>107.0</ele><time>2026-04-09T13:13:36.689Z</time></trkpt><trkpt lat="40.901485" lon="14.11975"><ele>106.71428571428572</ele><time>2026-04-09T13:13:37.688Z</time></trkpt><trkpt lat="40.901425" lon="14.1197817"><ele>106.42857142857143</ele><time>2026-04-09T13:13:38.689Z</time></trkpt><trkpt lat="40.9013667" lon="14.11982"><ele>106.14285714285714</ele><time>2026-04-09T13:13:39.689Z</time></trkpt><trkpt lat="40.9013067" lon="14.1198633"><ele>105.85714285714286</ele><time>2026-04-09T13:13:40.689Z</time></trkpt><trkpt lat="40.9012467" lon="14.1199133"><ele>105.57142857142857</ele><time>2026-04-09T13:13:41.689Z</time></trkpt><trkpt lat="40.90119" lon="14.1199667"><ele>105.28571428571429</ele><time>2026-04-09T13:13:42.689Z</time></trkpt><trkpt lat="40.9011333" lon="14.120025"><ele>105.0</ele><time>2026-04-09T13:13:43.69Z</time></trkpt><trkpt lat="40.9010783" lon="14.1200817"><ele>105.14285714285714</ele><time>2026-04-09T13:13:44.69Z</time></trkpt><trkpt lat="40.9010217" lon="14.12014"><ele>105.28571428571428</ele><time>2026-04-09T13:13:45.689Z</time></trkpt><trkpt lat="40.9009683" lon="14.1202017"><ele>105.42857142857143</ele><time>2026-04-09T13:13:46.689Z</time></trkpt><trkpt lat="40.9009133" lon="14.120265"><ele>105.57142857142857</ele><time>2026-04-09T13:13:47.689Z</time></trkpt><trkpt lat="40.9008617" lon="14.1203333"><ele>105.71428571428571</ele><time>2026-04-09T13:13:48.689Z</time></trkpt><trkpt lat="40.9008133" lon="14.1204"><ele>105.85714285714286</ele><time>2026-04-09T13:13:49.69Z</time></trkpt><trkpt lat="40.90076" lon="14.12047"><ele>106.0</ele><time>2026-04-09T13:13:50.689Z</time></trkpt><trkpt lat="40.9007083" lon="14.12054"><ele>106.0</ele><time>2026-04-09T13:13:51.689Z</time></trkpt><trkpt lat="40.90066" lon="14.1206083"><ele>106.0</ele><time>2026-04-09T13:13:52.689Z</time></trkpt><trkpt lat="40.9006117" lon="14.1206817"><ele>106.0</ele><time>2026-04-09T13:13:53.689Z</time></trkpt><trkpt lat="40.9005683" lon="14.1207567"><ele>106.0</ele><time>2026-04-09T13:13:54.689Z</time></trkpt><trkpt lat="40.9005217" lon="14.1208317"><ele>106.0</ele><time>2026-04-09T13:13:55.689Z</time></trkpt><trkpt lat="40.9004767" lon="14.120905"><ele>106.0</ele><time>2026-04-09T13:13:56.689Z</time></trkpt><trkpt lat="40.9004333" lon="14.1209783"><ele>106.0</ele><time>2026-04-09T13:13:57.689Z</time></trkpt><trkpt lat="40.90039" lon="14.1210517"><ele>106.42857142857143</ele><time>2026-04-09T13:13:58.689Z</time></trkpt><trkpt lat="40.900345" lon="14.121125"><ele>106.85714285714285</ele><time>2026-04-09T13:13:59.689Z</time></trkpt><trkpt lat="40.9003033" lon="14.1211983"><ele>107.28571428571428</ele><time>2026-04-09T13:14:00.689Z</time></trkpt><trkpt lat="40.9002617" lon="14.1212717"><ele>107.71428571428572</ele><time>2026-04-09T13:14:01.689Z</time></trkpt><trkpt lat="40.9002233" lon="14.121345"><ele>108.14285714285714</ele><time>2026-04-09T13:14:02.688Z</time></trkpt><trkpt lat="40.9001833" lon="14.1214217"><ele>108.57142857142857</ele><time>2026-04-09T13:14:03.689Z</time></trkpt><trkpt lat="40.9001417" lon="14.1214967"><ele>109.0</ele><time>2026-04-09T13:14:04.689Z</time></trkpt><trkpt lat="40.9000967" lon="14.1215717"><ele>108.42857142857143</ele><time>2026-04-09T13:14:05.689Z</time></trkpt><trkpt lat="40.9000567" lon="14.1216467"><ele>107.85714285714286</ele><time>2026-04-09T13:14:06.689Z</time></trkpt><trkpt lat="40.9000183" lon="14.1217233"><ele>107.28571428571428</ele><time>2026-04-09T13:14:07.69Z</time></trkpt><trkpt lat="40.8999767" lon="14.1217967"><ele>106.71428571428572</ele><time>2026-04-09T13:14:08.689Z</time></trkpt><trkpt lat="40.899935" lon="14.1218717"><ele>106.14285714285714</ele><time>2026-04-09T13:14:09.689Z</time></trkpt><trkpt lat="40.8998933" lon="14.1219483"><ele>105.57142857142857</ele><time>2026-04-09T13:14:10.689Z</time></trkpt><trkpt lat="40.899855" lon="14.122025"><ele>105.0</ele><time>2026-04-09T13:14:11.689Z</time></trkpt><trkpt lat="40.899815" lon="14.1220967"><ele>105.0</ele><time>2026-04-09T13:14:12.69Z</time></trkpt><trkpt lat="40.8997717" lon="14.1221683"><ele>105.0</ele><time>2026-04-09T13:14:13.69Z</time></trkpt><trkpt lat="40.8997267" lon="14.1222383"><ele>105.0</ele><time>2026-04-09T13:14:14.689Z</time></trkpt><trkpt lat="40.899685" lon="14.1223133"><ele>105.0</ele><time>2026-04-09T13:14:15.689Z</time></trkpt><trkpt lat="40.8996417" lon="14.12239"><ele>105.0</ele><time>2026-04-09T13:14:16.689Z</time></trkpt><trkpt lat="40.8995967" lon="14.12246"><ele>105.0</ele><time>2026-04-09T13:14:17.689Z</time></trkpt><trkpt lat="40.8995533" lon="14.1225333"><ele>105.0</ele><time>2026-04-09T13:14:18.689Z</time></trkpt><trkpt lat="40.8995133" lon="14.1226117"><ele>104.71428571428571</ele><time>2026-04-09T13:14:19.69Z</time></trkpt><trkpt lat="40.8994733" lon="14.12269"><ele>104.42857142857143</ele><time>2026-04-09T13:14:20.689Z</time></trkpt><trkpt lat="40.899435" lon="14.122765"><ele>104.14285714285714</ele><time>2026-04-09T13:14:21.689Z</time></trkpt><trkpt lat="40.8993983" lon="14.1228417"><ele>103.85714285714286</ele><time>2026-04-09T13:14:22.689Z</time></trkpt><trkpt lat="40.89936" lon="14.1229183"><ele>103.57142857142857</ele><time>2026-04-09T13:14:23.686Z</time></trkpt><trkpt lat="40.8993217" lon="14.122995"><ele>103.28571428571428</ele><time>2026-04-09T13:14:24.689Z</time></trkpt><trkpt lat="40.89928" lon="14.1230717"><ele>103.0</ele><time>2026-04-09T13:14:25.691Z</time></trkpt><trkpt lat="40.8992283" lon="14.1231383"><ele>103.00000000000001</ele><time>2026-04-09T13:14:26.689Z</time></trkpt><trkpt lat="40.8991717" lon="14.123205"><ele>103.0</ele><time>2026-04-09T13:14:27.689Z</time></trkpt><trkpt lat="40.8991117" lon="14.1232733"><ele>103.0</ele><time>2026-04-09T13:14:28.689Z</time></trkpt><trkpt lat="40.89905" lon="14.1233333"><ele>103.0</ele><time>2026-04-09T13:14:29.689Z</time></trkpt><trkpt lat="40.8989833" lon="14.1233867"><ele>103.00000000000001</ele><time>2026-04-09T13:14:30.69Z</time></trkpt><trkpt lat="40.8989117" lon="14.123435"><ele>103.0</ele><time>2026-04-09T13:14:31.69Z</time></trkpt><trkpt lat="40.8988367" lon="14.12348"><ele>103.50000000000001</ele><time>2026-04-09T13:14:32.688Z</time></trkpt><trkpt lat="40.898755" lon="14.1235117"><ele>104.0</ele><time>2026-04-09T13:14:33.687Z</time></trkpt><trkpt lat="40.89867" lon="14.1235233"><ele>104.5</ele><time>2026-04-09T13:14:34.686Z</time></trkpt><trkpt lat="40.8985817" lon="14.1235167"><ele>105.0</ele><time>2026-04-09T13:14:35.689Z</time></trkpt><trkpt lat="40.8984933" lon="14.1234983"><ele>105.50000000000001</ele><time>2026-04-09T13:14:36.689Z</time></trkpt><trkpt lat="40.898405" lon="14.1234717"><ele>106.0</ele><time>2026-04-09T13:14:37.688Z</time></trkpt><trkpt lat="40.8983167" lon="14.1234417"><ele>105.00000000000001</ele><time>2026-04-09T13:14:38.686Z</time></trkpt><trkpt lat="40.8982267" lon="14.1234133"><ele>104.0</ele><time>2026-04-09T13:14:39.688Z</time></trkpt><trkpt lat="40.89814" lon="14.12339"><ele>103.0</ele><time>2026-04-09T13:14:40.687Z</time></trkpt><trkpt lat="40.8980517" lon="14.1233633"><ele>102.0</ele><time>2026-04-09T13:14:41.687Z</time></trkpt><trkpt lat="40.897965" lon="14.1233383"><ele>101.00000000000001</ele><time>2026-04-09T13:14:42.688Z</time></trkpt><trkpt lat="40.8978833" lon="14.123315"><ele>100.0</ele><time>2026-04-09T13:14:43.689Z</time></trkpt><trkpt lat="40.8978017" lon="14.1233017"><ele>100.00000000000001</ele><time>2026-04-09T13:14:44.685Z</time></trkpt><trkpt lat="40.8977183" lon="14.1233067"><ele>100.0</ele><time>2026-04-09T13:14:45.688Z</time></trkpt><trkpt lat="40.8976367" lon="14.1233317"><ele>100.0</ele><time>2026-04-09T13:14:46.689Z</time></trkpt><trkpt lat="40.8975583" lon="14.1233733"><ele>100.0</ele><time>2026-04-09T13:14:47.688Z</time></trkpt><trkpt lat="40.8974867" lon="14.123435"><ele>100.00000000000001</ele><time>2026-04-09T13:14:48.688Z</time></trkpt><trkpt lat="40.897415" lon="14.1235067"><ele>100.0</ele><time>2026-04-09T13:14:49.689Z</time></trkpt><trkpt lat="40.897345" lon="14.1235817"><ele>99.66666666666667</ele><time>2026-04-09T13:14:50.689Z</time></trkpt><trkpt lat="40.8972733" lon="14.123645"><ele>99.33333333333334</ele><time>2026-04-09T13:14:51.689Z</time></trkpt><trkpt lat="40.8972017" lon="14.1236967"><ele>99.0</ele><time>2026-04-09T13:14:52.689Z</time></trkpt><trkpt lat="40.8971233" lon="14.1237317"><ele>98.66666666666666</ele><time>2026-04-09T13:14:53.688Z</time></trkpt><trkpt lat="40.897045" lon="14.123745"><ele>98.33333333333333</ele><time>2026-04-09T13:14:54.688Z</time></trkpt><trkpt lat="40.8969617" lon="14.1237417"><ele>98.0</ele><time>2026-04-09T13:14:55.69Z</time></trkpt><trkpt lat="40.896875" lon="14.123735"><ele>97.99999999999999</ele><time>2026-04-09T13:14:56.686Z</time></trkpt><trkpt lat="40.8967883" lon="14.1237217"><ele>98.0</ele><time>2026-04-09T13:14:57.688Z</time></trkpt><trkpt lat="40.8967017" lon="14.123705"><ele>98.0</ele><time>2026-04-09T13:14:58.688Z</time></trkpt><trkpt lat="40.8966183" lon="14.1236933"><ele>98.0</ele><time>2026-04-09T13:14:59.687Z</time></trkpt><trkpt lat="40.8965333" lon="14.1236817"><ele>97.99999999999999</ele><time>2026-04-09T13:15:00.689Z</time></trkpt><trkpt lat="40.89645" lon="14.1236767"><ele>98.0</ele><time>2026-04-09T13:15:01.686Z</time></trkpt><trkpt lat="40.896365" lon="14.12368"><ele>97.83333333333333</ele><time>2026-04-09T13:15:02.689Z</time></trkpt><trkpt lat="40.8962767" lon="14.1236917"><ele>97.66666666666666</ele><time>2026-04-09T13:15:03.688Z</time></trkpt><trkpt lat="40.8961867" lon="14.123705"><ele>97.5</ele><time>2026-04-09T13:15:04.688Z</time></trkpt><trkpt lat="40.8961" lon="14.1237133"><ele>97.33333333333334</ele><time>2026-04-09T13:15:05.688Z</time></trkpt><trkpt lat="40.8960183" lon="14.1237133"><ele>97.16666666666667</ele><time>2026-04-09T13:15:06.688Z</time></trkpt><trkpt lat="40.89594" lon="14.1237033"><ele>97.0</ele><time>2026-04-09T13:15:07.69Z</time></trkpt><trkpt lat="40.8958617" lon="14.1236817"><ele>96.33333333333334</ele><time>2026-04-09T13:15:08.689Z</time></trkpt><trkpt lat="40.89578" lon="14.1236533"><ele>95.66666666666667</ele><time>2026-04-09T13:15:09.689Z</time></trkpt><trkpt lat="40.8957017" lon="14.123615"><ele>95.0</ele><time>2026-04-09T13:15:10.688Z</time></trkpt><trkpt lat="40.8956267" lon="14.1235667"><ele>94.33333333333334</ele><time>2026-04-09T13:15:11.685Z</time></trkpt><trkpt lat="40.8955517" lon="14.123515"><ele>93.66666666666667</ele><time>2026-04-09T13:15:12.689Z</time></trkpt><trkpt lat="40.8954733" lon="14.1234667"><ele>93.0</ele><time>2026-04-09T13:15:13.689Z</time></trkpt><trkpt lat="40.8953933" lon="14.1234383"><ele>93.0</ele><time>2026-04-09T13:15:14.689Z</time></trkpt><trkpt lat="40.895305" lon="14.1234483"><ele>93.0</ele><time>2026-04-09T13:15:15.689Z</time></trkpt><trkpt lat="40.8952217" lon="14.1234783"><ele>93.0</ele><time>2026-04-09T13:15:16.689Z</time></trkpt><trkpt lat="40.8951367" lon="14.1235233"><ele>93.0</ele><time>2026-04-09T13:15:17.685Z</time></trkpt><trkpt lat="40.89505" lon="14.123565"><ele>93.0</ele><time>2026-04-09T13:15:18.687Z</time></trkpt><trkpt lat="40.8949617" lon="14.1235883"><ele>93.0</ele><time>2026-04-09T13:15:19.685Z</time></trkpt><trkpt lat="40.8948717" lon="14.12359"><ele>91.60000000000001</ele><time>2026-04-09T13:15:20.686Z</time></trkpt><trkpt lat="40.8947867" lon="14.1235717"><ele>90.2</ele><time>2026-04-09T13:15:21.687Z</time></trkpt><trkpt lat="40.8947017" lon="14.12354"><ele>88.8</ele><time>2026-04-09T13:15:22.687Z</time></trkpt><trkpt lat="40.8946117" lon="14.123505"><ele>87.4</ele><time>2026-04-09T13:15:23.687Z</time></trkpt><trkpt lat="40.894525" lon="14.1234767"><ele>86.0</ele><time>2026-04-09T13:15:24.685Z</time></trkpt><trkpt lat="40.8944317" lon="14.1234567"><ele>86.0</ele><time>2026-04-09T13:15:25.687Z</time></trkpt><trkpt lat="40.89434" lon="14.1234433"><ele>86.0</ele><time>2026-04-09T13:15:26.686Z</time></trkpt><trkpt lat="40.894245" lon="14.1234367"><ele>86.0</ele><time>2026-04-09T13:15:27.685Z</time></trkpt><trkpt lat="40.8941517" lon="14.1234383"><ele>86.0</ele><time>2026-04-09T13:15:28.688Z</time></trkpt><trkpt lat="40.8940567" lon="14.1234467"><ele>86.0</ele><time>2026-04-09T13:15:29.689Z</time></trkpt><trkpt lat="40.893965" lon="14.1234567"><ele>85.33333333333334</ele><time>2026-04-09T13:15:30.687Z</time></trkpt><trkpt lat="40.893875" lon="14.123475"><ele>84.66666666666667</ele><time>2026-04-09T13:15:31.689Z</time></trkpt><trkpt lat="40.89379" lon="14.1235017"><ele>84.0</ele><time>2026-04-09T13:15:32.689Z</time></trkpt><trkpt lat="40.893705" lon="14.1235317"><ele>83.33333333333333</ele><time>2026-04-09T13:15:33.688Z</time></trkpt><trkpt lat="40.8936183" lon="14.1235533"><ele>82.66666666666666</ele><time>2026-04-09T13:15:34.688Z</time></trkpt><trkpt lat="40.89353" lon="14.123565"><ele>82.0</ele><time>2026-04-09T13:15:35.688Z</time></trkpt><trkpt lat="40.89344" lon="14.1235667"><ele>81.39999999999999</ele><time>2026-04-09T13:15:36.688Z</time></trkpt><trkpt lat="40.8933517" lon="14.12357"><ele>80.8</ele><time>2026-04-09T13:15:37.689Z</time></trkpt><trkpt lat="40.8932617" lon="14.1235717"><ele>80.2</ele><time>2026-04-09T13:15:38.688Z</time></trkpt><trkpt lat="40.89317" lon="14.1235717"><ele>79.6</ele><time>2026-04-09T13:15:39.687Z</time></trkpt><trkpt lat="40.8930783" lon="14.1235717"><ele>79.0</ele><time>2026-04-09T13:15:40.685Z</time></trkpt><trkpt lat="40.8929883" lon="14.12357"><ele>79.0</ele><time>2026-04-09T13:15:41.688Z</time></trkpt><trkpt lat="40.8928967" lon="14.1235667"><ele>79.0</ele><time>2026-04-09T13:15:42.688Z</time></trkpt><trkpt lat="40.8928067" lon="14.1235617"><ele>79.0</ele><time>2026-04-09T13:15:43.69Z</time></trkpt><trkpt lat="40.8927183" lon="14.123555"><ele>79.0</ele><time>2026-04-09T13:15:44.687Z</time></trkpt><trkpt lat="40.8926283" lon="14.1235517"><ele>79.0</ele><time>2026-04-09T13:15:45.688Z</time></trkpt><trkpt lat="40.8925383" lon="14.1235467"><ele>78.0</ele><time>2026-04-09T13:15:46.684Z</time></trkpt><trkpt lat="40.892445" lon="14.1235383"><ele>77.0</ele><time>2026-04-09T13:15:47.687Z</time></trkpt><trkpt lat="40.89235" lon="14.1235383"><ele>76.0</ele><time>2026-04-09T13:15:48.687Z</time></trkpt><trkpt lat="40.8922567" lon="14.1235383"><ele>75.0</ele><time>2026-04-09T13:15:49.687Z</time></trkpt><trkpt lat="40.8921617" lon="14.1235367"><ele>74.0</ele><time>2026-04-09T13:15:50.686Z</time></trkpt><trkpt lat="40.8920683" lon="14.123535"><ele>74.0</ele><time>2026-04-09T13:15:51.685Z</time></trkpt><trkpt lat="40.8919733" lon="14.1235333"><ele>74.0</ele><time>2026-04-09T13:15:52.685Z</time></trkpt><trkpt lat="40.8918767" lon="14.12353"><ele>74.0</ele><time>2026-04-09T13:15:53.687Z</time></trkpt><trkpt lat="40.8917767" lon="14.123525"><ele>74.0</ele><time>2026-04-09T13:15:54.685Z</time></trkpt><trkpt lat="40.8916767" lon="14.123515"><ele>74.0</ele><time>2026-04-09T13:15:55.687Z</time></trkpt><trkpt lat="40.8915817" lon="14.1234933"><ele>73.4</ele><time>2026-04-09T13:15:56.687Z</time></trkpt><trkpt lat="40.8914867" lon="14.12346"><ele>72.80000000000001</ele><time>2026-04-09T13:15:57.685Z</time></trkpt><trkpt lat="40.8913917" lon="14.1234233"><ele>72.19999999999999</ele><time>2026-04-09T13:15:58.689Z</time></trkpt><trkpt lat="40.891295" lon="14.1233917"><ele>71.6</ele><time>2026-04-09T13:15:59.688Z</time></trkpt><trkpt lat="40.8912" lon="14.1233633"><ele>71.0</ele><time>2026-04-09T13:16:00.688Z</time></trkpt><trkpt lat="40.891105" lon="14.1233383"><ele>71.0</ele><time>2026-04-09T13:16:01.689Z</time></trkpt><trkpt lat="40.8910117" lon="14.1233067"><ele>71.0</ele><time>2026-04-09T13:16:02.688Z</time></trkpt><trkpt lat="40.8909233" lon="14.12327"><ele>71.0</ele><time>2026-04-09T13:16:03.688Z</time></trkpt><trkpt lat="40.890835" lon="14.1232217"><ele>71.0</ele><time>2026-04-09T13:16:04.688Z</time></trkpt><trkpt lat="40.8907483" lon="14.1231667"><ele>71.0</ele><time>2026-04-09T13:16:05.687Z</time></trkpt><trkpt lat="40.8906667" lon="14.1231033"><ele>72.2</ele><time>2026-04-09T13:16:06.688Z</time></trkpt><trkpt lat="40.890585" lon="14.12304"><ele>73.39999999999999</ele><time>2026-04-09T13:16:07.688Z</time></trkpt><trkpt lat="40.890505" lon="14.1229767"><ele>74.6</ele><time>2026-04-09T13:16:08.689Z</time></trkpt><trkpt lat="40.890425" lon="14.1229067"><ele>75.8</ele><time>2026-04-09T13:16:09.689Z</time></trkpt><trkpt lat="40.89035" lon="14.1228317"><ele>77.0</ele><time>2026-04-09T13:16:10.688Z</time></trkpt><trkpt lat="40.8902783" lon="14.12275"><ele>77.0</ele><time>2026-04-09T13:16:11.688Z</time></trkpt><trkpt lat="40.8902083" lon="14.1226667"><ele>77.0</ele><time>2026-04-09T13:16:12.689Z</time></trkpt><trkpt lat="40.8901417" lon="14.122585"><ele>77.0</ele><time>2026-04-09T13:16:13.689Z</time></trkpt><trkpt lat="40.890075" lon="14.122505"><ele>77.0</ele><time>2026-04-09T13:16:14.685Z</time></trkpt><trkpt lat="40.8900117" lon="14.12242"><ele>77.0</ele><time>2026-04-09T13:16:15.686Z</time></trkpt><trkpt lat="40.8899467" lon="14.1223333"><ele>75.0</ele><time>2026-04-09T13:16:16.688Z</time></trkpt><trkpt lat="40.889885" lon="14.1222417"><ele>73.0</ele><time>2026-04-09T13:16:17.685Z</time></trkpt><trkpt lat="40.8898283" lon="14.1221467"><ele>71.0</ele><time>2026-04-09T13:16:18.687Z</time></trkpt><trkpt lat="40.8897733" lon="14.1220467"><ele>69.0</ele><time>2026-04-09T13:16:19.686Z</time></trkpt><trkpt lat="40.88972" lon="14.1219417"><ele>67.0</ele><time>2026-04-09T13:16:20.685Z</time></trkpt><trkpt lat="40.8896717" lon="14.1218333"><ele>67.0</ele><time>2026-04-09T13:16:21.685Z</time></trkpt><trkpt lat="40.8896283" lon="14.1217167"><ele>67.0</ele><time>2026-04-09T13:16:22.687Z</time></trkpt><trkpt lat="40.889585" lon="14.1216017"><ele>67.0</ele><time>2026-04-09T13:16:23.687Z</time></trkpt><trkpt lat="40.889545" lon="14.1214833"><ele>67.0</ele><time>2026-04-09T13:16:24.687Z</time></trkpt><trkpt lat="40.889505" lon="14.1213667"><ele>67.0</ele><time>2026-04-09T13:16:25.687Z</time></trkpt><trkpt lat="40.889465" lon="14.12125"><ele>66.8</ele><time>2026-04-09T13:16:26.685Z</time></trkpt><trkpt lat="40.8894267" lon="14.12113"><ele>66.6</ele><time>2026-04-09T13:16:27.685Z</time></trkpt><trkpt lat="40.889385" lon="14.1210117"><ele>66.39999999999999</ele><time>2026-04-09T13:16:28.688Z</time></trkpt><trkpt lat="40.8893417" lon="14.1208883"><ele>66.2</ele><time>2026-04-09T13:16:29.688Z</time></trkpt><trkpt lat="40.8893" lon="14.120765"><ele>66.0</ele><time>2026-04-09T13:16:30.689Z</time></trkpt><trkpt lat="40.88926" lon="14.120645"><ele>63.8</ele><time>2026-04-09T13:16:31.691Z</time></trkpt><trkpt lat="40.8892183" lon="14.120525"><ele>61.599999999999994</ele><time>2026-04-09T13:16:32.688Z</time></trkpt><trkpt lat="40.8891733" lon="14.1204067"><ele>59.4</ele><time>2026-04-09T13:16:33.688Z</time></trkpt><trkpt lat="40.8891283" lon="14.12029"><ele>57.2</ele><time>2026-04-09T13:16:34.688Z</time></trkpt><trkpt lat="40.88908" lon="14.1201767"><ele>55.0</ele><time>2026-04-09T13:16:35.686Z</time></trkpt><trkpt lat="40.88903" lon="14.120065"><ele>55.0</ele><time>2026-04-09T13:16:36.685Z</time></trkpt><trkpt lat="40.888975" lon="14.1199567"><ele>55.0</ele><time>2026-04-09T13:16:37.686Z</time></trkpt><trkpt lat="40.888915" lon="14.11985"><ele>55.0</ele><time>2026-04-09T13:16:38.687Z</time></trkpt><trkpt lat="40.8888517" lon="14.1197467"><ele>55.0</ele><time>2026-04-09T13:16:39.686Z</time></trkpt><trkpt lat="40.888785" lon="14.1196483"><ele>55.0</ele><time>2026-04-09T13:16:40.685Z</time></trkpt><trkpt lat="40.88872" lon="14.1195467"><ele>55.6</ele><time>2026-04-09T13:16:41.687Z</time></trkpt><trkpt lat="40.8886533" lon="14.119445"><ele>56.2</ele><time>2026-04-09T13:16:42.687Z</time></trkpt><trkpt lat="40.8885883" lon="14.1193417"><ele>56.8</ele><time>2026-04-09T13:16:43.687Z</time></trkpt><trkpt lat="40.8885233" lon="14.119245"><ele>57.4</ele><time>2026-04-09T13:16:44.685Z</time></trkpt><trkpt lat="40.8884583" lon="14.119155"><ele>58.0</ele><time>2026-04-09T13:16:45.686Z</time></trkpt><trkpt lat="40.8883967" lon="14.119065"><ele>55.83333333333333</ele><time>2026-04-09T13:16:46.687Z</time></trkpt><trkpt lat="40.8883383" lon="14.1189783"><ele>53.666666666666664</ele><time>2026-04-09T13:16:47.687Z</time></trkpt><trkpt lat="40.88828" lon="14.1188983"><ele>51.5</ele><time>2026-04-09T13:16:48.687Z</time></trkpt><trkpt lat="40.8882183" lon="14.1188217"><ele>49.33333333333333</ele><time>2026-04-09T13:16:49.687Z</time></trkpt><trkpt lat="40.888155" lon="14.1187533"><ele>47.166666666666664</ele><time>2026-04-09T13:16:50.687Z</time></trkpt><trkpt lat="40.8880917" lon="14.1186917"><ele>45.0</ele><time>2026-04-09T13:16:51.687Z</time></trkpt><trkpt lat="40.8880267" lon="14.11864"><ele>45.0</ele><time>2026-04-09T13:16:52.687Z</time></trkpt><trkpt lat="40.8879583" lon="14.1185917"><ele>45.0</ele><time>2026-04-09T13:16:53.687Z</time></trkpt><trkpt lat="40.8878883" lon="14.1185517"><ele>45.0</ele><time>2026-04-09T13:16:54.687Z</time></trkpt><trkpt lat="40.8878133" lon="14.1185267"><ele>45.0</ele><time>2026-04-09T13:16:55.687Z</time></trkpt><trkpt lat="40.887735" lon="14.118505"><ele>45.0</ele><time>2026-04-09T13:16:56.687Z</time></trkpt><trkpt lat="40.887655" lon="14.1184883"><ele>45.0</ele><time>2026-04-09T13:16:57.688Z</time></trkpt><trkpt lat="40.88758" lon="14.11848"><ele>44.57142857142857</ele><time>2026-04-09T13:16:58.689Z</time></trkpt><trkpt lat="40.887505" lon="14.1184817"><ele>44.142857142857146</ele><time>2026-04-09T13:16:59.688Z</time></trkpt><trkpt lat="40.8874317" lon="14.11848"><ele>43.714285714285715</ele><time>2026-04-09T13:17:00.69Z</time></trkpt><trkpt lat="40.8873583" lon="14.11848"><ele>43.285714285714285</ele><time>2026-04-09T13:17:01.69Z</time></trkpt><trkpt lat="40.8872833" lon="14.1184867"><ele>42.85714285714286</ele><time>2026-04-09T13:17:02.688Z</time></trkpt><trkpt lat="40.88721" lon="14.1185"><ele>42.42857142857143</ele><time>2026-04-09T13:17:03.688Z</time></trkpt><trkpt lat="40.887135" lon="14.118515"><ele>42.0</ele><time>2026-04-09T13:17:04.688Z</time></trkpt><trkpt lat="40.88706" lon="14.1185317"><ele>42.0</ele><time>2026-04-09T13:17:05.688Z</time></trkpt><trkpt lat="40.8869833" lon="14.1185533"><ele>42.0</ele><time>2026-04-09T13:17:06.689Z</time></trkpt><trkpt lat="40.886905" lon="14.1185717"><ele>42.0</ele><time>2026-04-09T13:17:07.689Z</time></trkpt><trkpt lat="40.8868267" lon="14.11859"><ele>42.0</ele><time>2026-04-09T13:17:08.688Z</time></trkpt><trkpt lat="40.88675" lon="14.11861"><ele>42.0</ele><time>2026-04-09T13:17:09.688Z</time></trkpt><trkpt lat="40.8866733" lon="14.118635"><ele>42.0</ele><time>2026-04-09T13:17:10.689Z</time></trkpt><trkpt lat="40.8865967" lon="14.1186633"><ele>41.333333333333336</ele><time>2026-04-09T13:17:11.69Z</time></trkpt><trkpt lat="40.8865217" lon="14.1186917"><ele>40.666666666666664</ele><time>2026-04-09T13:17:12.689Z</time></trkpt><trkpt lat="40.8864467" lon="14.118715"><ele>40.0</ele><time>2026-04-09T13:17:13.69Z</time></trkpt><trkpt lat="40.8863717" lon="14.1187367"><ele>39.33333333333333</ele><time>2026-04-09T13:17:14.689Z</time></trkpt><trkpt lat="40.8862967" lon="14.11876"><ele>38.666666666666664</ele><time>2026-04-09T13:17:15.687Z</time></trkpt><trkpt lat="40.8862217" lon="14.118785"><ele>38.0</ele><time>2026-04-09T13:17:16.686Z</time></trkpt><trkpt lat="40.8861467" lon="14.11881"><ele>38.0</ele><time>2026-04-09T13:17:17.685Z</time></trkpt><trkpt lat="40.8860733" lon="14.1188383"><ele>38.0</ele><time>2026-04-09T13:17:18.685Z</time></trkpt><trkpt lat="40.8859983" lon="14.118865"><ele>38.0</ele><time>2026-04-09T13:17:19.686Z</time></trkpt><trkpt lat="40.885925" lon="14.11889"><ele>38.0</ele><time>2026-04-09T13:17:20.687Z</time></trkpt><trkpt lat="40.8858533" lon="14.118915"><ele>38.0</ele><time>2026-04-09T13:17:21.686Z</time></trkpt><trkpt lat="40.8857817" lon="14.1189367"><ele>38.0</ele><time>2026-04-09T13:17:22.685Z</time></trkpt><trkpt lat="40.88571" lon="14.11896"><ele>37.857142857142854</ele><time>2026-04-09T13:17:23.689Z</time></trkpt><trkpt lat="40.8856383" lon="14.1189817"><ele>37.714285714285715</ele><time>2026-04-09T13:17:24.688Z</time></trkpt><trkpt lat="40.8855683" lon="14.1190033"><ele>37.57142857142857</ele><time>2026-04-09T13:17:25.689Z</time></trkpt><trkpt lat="40.8854967" lon="14.11903"><ele>37.42857142857143</ele><time>2026-04-09T13:17:26.688Z</time></trkpt><trkpt lat="40.8854283" lon="14.1190567"><ele>37.285714285714285</ele><time>2026-04-09T13:17:27.688Z</time></trkpt><trkpt lat="40.8853617" lon="14.1190833"><ele>37.142857142857146</ele><time>2026-04-09T13:17:28.688Z</time></trkpt><trkpt lat="40.885295" lon="14.1191067"><ele>37.0</ele><time>2026-04-09T13:17:29.688Z</time></trkpt><trkpt lat="40.8852267" lon="14.1191317"><ele>37.0</ele><time>2026-04-09T13:17:30.688Z</time></trkpt><trkpt lat="40.88516" lon="14.1191533"><ele>37.0</ele><time>2026-04-09T13:17:31.69Z</time></trkpt><trkpt lat="40.885095" lon="14.1191733"><ele>37.0</ele><time>2026-04-09T13:17:32.688Z</time></trkpt><trkpt lat="40.8850283" lon="14.1191933"><ele>37.0</ele><time>2026-04-09T13:17:33.688Z</time></trkpt><trkpt lat="40.88496" lon="14.1192117"><ele>37.0</ele><time>2026-04-09T13:17:34.688Z</time></trkpt><trkpt lat="40.8848917" lon="14.11923"><ele>37.0</ele><time>2026-04-09T13:17:35.688Z</time></trkpt><trkpt lat="40.8848267" lon="14.1192433"><ele>37.0</ele><time>2026-04-09T13:17:36.687Z</time></trkpt><trkpt lat="40.884765" lon="14.11926"><ele>36.714285714285715</ele><time>2026-04-09T13:17:37.69Z</time></trkpt><trkpt lat="40.8847" lon="14.11928"><ele>36.42857142857143</ele><time>2026-04-09T13:17:38.689Z</time></trkpt><trkpt lat="40.8846367" lon="14.1193017"><ele>36.14285714285714</ele><time>2026-04-09T13:17:39.688Z</time></trkpt><trkpt lat="40.8845733" lon="14.119325"><ele>35.85714285714286</ele><time>2026-04-09T13:17:40.688Z</time></trkpt><trkpt lat="40.8845083" lon="14.1193433"><ele>35.57142857142857</ele><time>2026-04-09T13:17:41.686Z</time></trkpt><trkpt lat="40.88444" lon="14.11936"><ele>35.285714285714285</ele><time>2026-04-09T13:17:42.688Z</time></trkpt><trkpt lat="40.884375" lon="14.1193833"><ele>35.0</ele><time>2026-04-09T13:17:43.689Z</time></trkpt><trkpt lat="40.8843117" lon="14.1194"><ele>35.142857142857146</ele><time>2026-04-09T13:17:44.688Z</time></trkpt><trkpt lat="40.8842483" lon="14.1194167"><ele>35.285714285714285</ele><time>2026-04-09T13:17:45.688Z</time></trkpt><trkpt lat="40.8841833" lon="14.1194333"><ele>35.42857142857143</ele><time>2026-04-09T13:17:46.689Z</time></trkpt><trkpt lat="40.8841183" lon="14.1194517"><ele>35.57142857142857</ele><time>2026-04-09T13:17:47.689Z</time></trkpt><trkpt lat="40.8840533" lon="14.11947"><ele>35.714285714285715</ele><time>2026-04-09T13:17:48.686Z</time></trkpt><trkpt lat="40.883985" lon="14.1194883"><ele>35.85714285714286</ele><time>2026-04-09T13:17:49.688Z</time></trkpt><trkpt lat="40.88392" lon="14.1195067"><ele>36.0</ele><time>2026-04-09T13:17:50.688Z</time></trkpt><trkpt lat="40.883855" lon="14.1195283"><ele>36.00000000000001</ele><time>2026-04-09T13:17:51.685Z</time></trkpt><trkpt lat="40.8837917" lon="14.11955"><ele>36.0</ele><time>2026-04-09T13:17:52.686Z</time></trkpt><trkpt lat="40.88373" lon="14.1195717"><ele>36.0</ele><time>2026-04-09T13:17:53.689Z</time></trkpt><trkpt lat="40.883665" lon="14.119595"><ele>36.0</ele><time>2026-04-09T13:17:54.688Z</time></trkpt><trkpt lat="40.8836017" lon="14.1196167"><ele>36.0</ele><time>2026-04-09T13:17:55.688Z</time></trkpt><trkpt lat="40.88354" lon="14.119635"><ele>36.00000000000001</ele><time>2026-04-09T13:17:56.688Z</time></trkpt><trkpt lat="40.88342" lon="14.119675"><ele>36.0</ele><time>2026-04-09T13:17:58.689Z</time></trkpt><trkpt lat="40.8833583" lon="14.119695"><ele>35.75</ele><time>2026-04-09T13:17:59.688Z</time></trkpt><trkpt lat="40.883235" lon="14.11974"><ele>35.5</ele><time>2026-04-09T13:18:01.689Z</time></trkpt><trkpt lat="40.883115" lon="14.119775"><ele>35.25</ele><time>2026-04-09T13:18:03.688Z</time></trkpt><trkpt lat="40.882995" lon="14.11981"><ele>35.0</ele><time>2026-04-09T13:18:05.688Z</time></trkpt><trkpt lat="40.8828733" lon="14.1198467"><ele>35.0</ele><time>2026-04-09T13:18:07.69Z</time></trkpt><trkpt lat="40.8828117" lon="14.119865"><ele>35.0</ele><time>2026-04-09T13:18:08.688Z</time></trkpt><trkpt lat="40.8826917" lon="14.1199083"><ele>35.0</ele><time>2026-04-09T13:18:10.688Z</time></trkpt><trkpt lat="40.8825733" lon="14.1199383"><ele>35.0</ele><time>2026-04-09T13:18:12.688Z</time></trkpt><trkpt lat="40.8824533" lon="14.1199633"><ele>35.0</ele><time>2026-04-09T13:18:14.689Z</time></trkpt><trkpt lat="40.8823283" lon="14.1200067"><ele>35.4</ele><time>2026-04-09T13:18:16.689Z</time></trkpt><trkpt lat="40.8822667" lon="14.1200317"><ele>35.8</ele><time>2026-04-09T13:18:17.688Z</time></trkpt><trkpt lat="40.8822033" lon="14.1200517"><ele>36.2</ele><time>2026-04-09T13:18:18.688Z</time></trkpt><trkpt lat="40.882085" lon="14.1200917"><ele>36.6</ele><time>2026-04-09T13:18:20.688Z</time></trkpt><trkpt lat="40.8819733" lon="14.1201367"><ele>37.0</ele><time>2026-04-09T13:18:22.69Z</time></trkpt><trkpt lat="40.8818567" lon="14.120175"><ele>36.800000000000004</ele><time>2026-04-09T13:18:24.688Z</time></trkpt><trkpt lat="40.8817483" lon="14.1202083"><ele>36.6</ele><time>2026-04-09T13:18:26.688Z</time></trkpt><trkpt lat="40.8816467" lon="14.12023"><ele>36.400000000000006</ele><time>2026-04-09T13:18:28.688Z</time></trkpt><trkpt lat="40.8815517" lon="14.1202617"><ele>36.2</ele><time>2026-04-09T13:18:30.688Z</time></trkpt><trkpt lat="40.8814483" lon="14.12029"><ele>36.0</ele><time>2026-04-09T13:18:32.688Z</time></trkpt><trkpt lat="40.88134" lon="14.120325"><ele>36.0</ele><time>2026-04-09T13:18:34.689Z</time></trkpt><trkpt lat="40.88123" lon="14.12037"><ele>36.0</ele><time>2026-04-09T13:18:36.687Z</time></trkpt><trkpt lat="40.881115" lon="14.12041"><ele>36.0</ele><time>2026-04-09T13:18:38.688Z</time></trkpt><trkpt lat="40.880995" lon="14.1204433"><ele>36.0</ele><time>2026-04-09T13:18:40.688Z</time></trkpt><trkpt lat="40.880875" lon="14.1204733"><ele>36.0</ele><time>2026-04-09T13:18:42.688Z</time></trkpt><trkpt lat="40.8808117" lon="14.1204867"><ele>36.0</ele><time>2026-04-09T13:18:43.69Z</time></trkpt><trkpt lat="40.8806917" lon="14.1205267"><ele>36.0</ele><time>2026-04-09T13:18:45.689Z</time></trkpt><trkpt lat="40.8806267" lon="14.120545"><ele>36.0</ele><time>2026-04-09T13:18:46.686Z</time></trkpt><trkpt lat="40.880565" lon="14.1205667"><ele>36.0</ele><time>2026-04-09T13:18:47.688Z</time></trkpt><trkpt lat="40.8805033" lon="14.1205833"><ele>36.0</ele><time>2026-04-09T13:18:48.687Z</time></trkpt><trkpt lat="40.88039" lon="14.12062"><ele>36.0</ele><time>2026-04-09T13:18:50.688Z</time></trkpt><trkpt lat="40.8802783" lon="14.1206483"><ele>36.0</ele><time>2026-04-09T13:18:52.689Z</time></trkpt><trkpt lat="40.88017" lon="14.12068"><ele>36.0</ele><time>2026-04-09T13:18:54.69Z</time></trkpt><trkpt lat="40.8800667" lon="14.1207133"><ele>36.0</ele><time>2026-04-09T13:18:56.687Z</time></trkpt><trkpt lat="40.8799617" lon="14.1207483"><ele>36.0</ele><time>2026-04-09T13:18:58.686Z</time></trkpt><trkpt lat="40.8798717" lon="14.1207717"><ele>36.0</ele><time>2026-04-09T13:19:00.686Z</time></trkpt><trkpt lat="40.8798" lon="14.1208067"><ele>36.0</ele><time>2026-04-09T13:19:02.684Z</time></trkpt><trkpt lat="40.87971" lon="14.1208417"><ele>36.0</ele><time>2026-04-09T13:19:05.688Z</time></trkpt><trkpt lat="40.8796433" lon="14.12087"><ele>36.0</ele><time>2026-04-09T13:19:07.689Z</time></trkpt><trkpt lat="40.8795667" lon="14.1208917"><ele>36.0</ele><time>2026-04-09T13:19:09.688Z</time></trkpt><trkpt lat="40.8794733" lon="14.1209133"><ele>36.0</ele><time>2026-04-09T13:19:11.688Z</time></trkpt><trkpt lat="40.87937" lon="14.12095"><ele>36.25</ele><time>2026-04-09T13:19:13.689Z</time></trkpt><trkpt lat="40.8792617" lon="14.1209933"><ele>36.5</ele><time>2026-04-09T13:19:15.688Z</time></trkpt><trkpt lat="40.8791467" lon="14.1210383"><ele>36.75</ele><time>2026-04-09T13:19:17.688Z</time></trkpt><trkpt lat="40.8790317" lon="14.1210833"><ele>37.0</ele><time>2026-04-09T13:19:19.688Z</time></trkpt><trkpt lat="40.878925" lon="14.1211267"><ele>37.0</ele><time>2026-04-09T13:19:21.686Z</time></trkpt><trkpt lat="40.87881" lon="14.12115"><ele>37.0</ele><time>2026-04-09T13:19:23.688Z</time></trkpt><trkpt lat="40.8786983" lon="14.1211883"><ele>37.0</ele><time>2026-04-09T13:19:25.693Z</time></trkpt><trkpt lat="40.87858" lon="14.12123"><ele>37.0</ele><time>2026-04-09T13:19:27.687Z</time></trkpt><trkpt lat="40.8784683" lon="14.12127"><ele>36.6</ele><time>2026-04-09T13:19:29.688Z</time></trkpt><trkpt lat="40.8783633" lon="14.1212983"><ele>36.2</ele><time>2026-04-09T13:19:31.689Z</time></trkpt><trkpt lat="40.87826" lon="14.1213283"><ele>35.8</ele><time>2026-04-09T13:19:33.688Z</time></trkpt><trkpt lat="40.8781583" lon="14.121355"><ele>35.4</ele><time>2026-04-09T13:19:35.685Z</time></trkpt><trkpt lat="40.8780717" lon="14.1213833"><ele>35.0</ele><time>2026-04-09T13:19:37.686Z</time></trkpt><trkpt lat="40.8779883" lon="14.1214067"><ele>35.0</ele><time>2026-04-09T13:19:39.687Z</time></trkpt><trkpt lat="40.877895" lon="14.1214333"><ele>35.0</ele><time>2026-04-09T13:19:41.685Z</time></trkpt><trkpt lat="40.8777983" lon="14.1214667"><ele>35.0</ele><time>2026-04-09T13:19:43.685Z</time></trkpt><trkpt lat="40.877695" lon="14.1214967"><ele>35.0</ele><time>2026-04-09T13:19:45.688Z</time></trkpt><trkpt lat="40.8775933" lon="14.1215183"><ele>35.0</ele><time>2026-04-09T13:19:47.687Z</time></trkpt><trkpt lat="40.8774983" lon="14.1215467"><ele>35.2</ele><time>2026-04-09T13:19:49.686Z</time></trkpt><trkpt lat="40.8773983" lon="14.1215633"><ele>35.4</ele><time>2026-04-09T13:19:51.686Z</time></trkpt><trkpt lat="40.8772933" lon="14.121585"><ele>35.6</ele><time>2026-04-09T13:19:53.685Z</time></trkpt><trkpt lat="40.8771917" lon="14.1216117"><ele>35.8</ele><time>2026-04-09T13:19:55.69Z</time></trkpt><trkpt lat="40.8770933" lon="14.1216367"><ele>36.0</ele><time>2026-04-09T13:19:57.687Z</time></trkpt><trkpt lat="40.876995" lon="14.121685"><ele>36.0</ele><time>2026-04-09T13:19:59.688Z</time></trkpt><trkpt lat="40.8768933" lon="14.1217217"><ele>36.0</ele><time>2026-04-09T13:20:01.689Z</time></trkpt><trkpt lat="40.8767867" lon="14.1217133"><ele>36.0</ele><time>2026-04-09T13:20:03.687Z</time></trkpt><trkpt lat="40.8766817" lon="14.1217017"><ele>36.0</ele><time>2026-04-09T13:20:05.688Z</time></trkpt><trkpt lat="40.8765917" lon="14.12175"><ele>36.0</ele><time>2026-04-09T13:20:07.689Z</time></trkpt><trkpt lat="40.8765183" lon="14.1218183"><ele>36.4</ele><time>2026-04-09T13:20:09.688Z</time></trkpt><trkpt lat="40.8764267" lon="14.121865"><ele>36.8</ele><time>2026-04-09T13:20:11.688Z</time></trkpt><trkpt lat="40.8763217" lon="14.1218983"><ele>37.199999999999996</ele><time>2026-04-09T13:20:13.686Z</time></trkpt><trkpt lat="40.87621" lon="14.121935"><ele>37.6</ele><time>2026-04-09T13:20:15.685Z</time></trkpt><trkpt lat="40.8761033" lon="14.1219667"><ele>38.0</ele><time>2026-04-09T13:20:17.686Z</time></trkpt><trkpt lat="40.876" lon="14.1220017"><ele>38.4</ele><time>2026-04-09T13:20:19.689Z</time></trkpt><trkpt lat="40.8758983" lon="14.12204"><ele>38.8</ele><time>2026-04-09T13:20:21.688Z</time></trkpt><trkpt lat="40.8757983" lon="14.1220717"><ele>39.2</ele><time>2026-04-09T13:20:23.688Z</time></trkpt><trkpt lat="40.8757" lon="14.122105"><ele>39.6</ele><time>2026-04-09T13:20:25.689Z</time></trkpt><trkpt lat="40.8755967" lon="14.12214"><ele>40.0</ele><time>2026-04-09T13:20:27.687Z</time></trkpt><trkpt lat="40.8754983" lon="14.12217"><ele>40.0</ele><time>2026-04-09T13:20:29.684Z</time></trkpt><trkpt lat="40.8753983" lon="14.1222017"><ele>40.0</ele><time>2026-04-09T13:20:31.687Z</time></trkpt><trkpt lat="40.875295" lon="14.1222333"><ele>40.0</ele><time>2026-04-09T13:20:33.686Z</time></trkpt><trkpt lat="40.8751883" lon="14.1222667"><ele>40.0</ele><time>2026-04-09T13:20:35.686Z</time></trkpt><trkpt lat="40.8750883" lon="14.1223033"><ele>40.0</ele><time>2026-04-09T13:20:37.688Z</time></trkpt><trkpt lat="40.8749883" lon="14.122335"><ele>39.6</ele><time>2026-04-09T13:20:39.688Z</time></trkpt><trkpt lat="40.8748883" lon="14.12236"><ele>39.2</ele><time>2026-04-09T13:20:41.688Z</time></trkpt><trkpt lat="40.8747883" lon="14.12239"><ele>38.8</ele><time>2026-04-09T13:20:43.688Z</time></trkpt><trkpt lat="40.87469" lon="14.122425"><ele>38.4</ele><time>2026-04-09T13:20:45.688Z</time></trkpt><trkpt lat="40.8745867" lon="14.122465"><ele>38.0</ele><time>2026-04-09T13:20:47.686Z</time></trkpt><trkpt lat="40.8744783" lon="14.1225033"><ele>38.0</ele><time>2026-04-09T13:20:49.688Z</time></trkpt><trkpt lat="40.8743767" lon="14.1225433"><ele>38.0</ele><time>2026-04-09T13:20:51.684Z</time></trkpt><trkpt lat="40.87428" lon="14.1225733"><ele>38.0</ele><time>2026-04-09T13:20:53.688Z</time></trkpt><trkpt lat="40.8741817" lon="14.1226033"><ele>38.0</ele><time>2026-04-09T13:20:55.687Z</time></trkpt><trkpt lat="40.8740833" lon="14.1226283"><ele>38.0</ele><time>2026-04-09T13:20:57.685Z</time></trkpt><trkpt lat="40.8739783" lon="14.1226567"><ele>38.4</ele><time>2026-04-09T13:20:59.686Z</time></trkpt><trkpt lat="40.8738767" lon="14.1226883"><ele>38.8</ele><time>2026-04-09T13:21:01.686Z</time></trkpt><trkpt lat="40.87377" lon="14.122715"><ele>39.2</ele><time>2026-04-09T13:21:03.685Z</time></trkpt><trkpt lat="40.873665" lon="14.12275"><ele>39.6</ele><time>2026-04-09T13:21:05.688Z</time></trkpt><trkpt lat="40.8735583" lon="14.1227767"><ele>40.0</ele><time>2026-04-09T13:21:07.689Z</time></trkpt><trkpt lat="40.8734483" lon="14.1228083"><ele>40.2</ele><time>2026-04-09T13:21:09.685Z</time></trkpt><trkpt lat="40.8733417" lon="14.12284"><ele>40.4</ele><time>2026-04-09T13:21:11.688Z</time></trkpt><trkpt lat="40.87323" lon="14.12287"><ele>40.599999999999994</ele><time>2026-04-09T13:21:13.688Z</time></trkpt><trkpt lat="40.8731283" lon="14.122895"><ele>40.8</ele><time>2026-04-09T13:21:15.689Z</time></trkpt><trkpt lat="40.8730233" lon="14.12293"><ele>41.0</ele><time>2026-04-09T13:21:17.689Z</time></trkpt><trkpt lat="40.87292" lon="14.1229683"><ele>41.0</ele><time>2026-04-09T13:21:19.688Z</time></trkpt><trkpt lat="40.8728233" lon="14.123005"><ele>41.0</ele><time>2026-04-09T13:21:21.688Z</time></trkpt><trkpt lat="40.8727317" lon="14.1230583"><ele>41.0</ele><time>2026-04-09T13:21:23.689Z</time></trkpt><trkpt lat="40.8726367" lon="14.1230983"><ele>41.0</ele><time>2026-04-09T13:21:25.689Z</time></trkpt><trkpt lat="40.87254" lon="14.1231183"><ele>41.0</ele><time>2026-04-09T13:21:27.688Z</time></trkpt><trkpt lat="40.872445" lon="14.12315"><ele>41.599999999999994</ele><time>2026-04-09T13:21:29.686Z</time></trkpt><trkpt lat="40.8723483" lon="14.123185"><ele>42.2</ele><time>2026-04-09T13:21:31.687Z</time></trkpt><trkpt lat="40.8722483" lon="14.1232083"><ele>42.8</ele><time>2026-04-09T13:21:33.685Z</time></trkpt><trkpt lat="40.8721533" lon="14.1232433"><ele>43.400000000000006</ele><time>2026-04-09T13:21:35.687Z</time></trkpt><trkpt lat="40.872055" lon="14.12328"><ele>44.0</ele><time>2026-04-09T13:21:37.687Z</time></trkpt><trkpt lat="40.8719567" lon="14.1233133"><ele>44.0</ele><time>2026-04-09T13:21:39.688Z</time></trkpt><trkpt lat="40.8718583" lon="14.1233417"><ele>44.0</ele><time>2026-04-09T13:21:41.688Z</time></trkpt><trkpt lat="40.87177" lon="14.1233717"><ele>44.0</ele><time>2026-04-09T13:21:43.686Z</time></trkpt><trkpt lat="40.8716867" lon="14.1234067"><ele>44.0</ele><time>2026-04-09T13:21:45.688Z</time></trkpt><trkpt lat="40.8716033" lon="14.1234317"><ele>44.0</ele><time>2026-04-09T13:21:47.686Z</time></trkpt><trkpt lat="40.87151" lon="14.12346"><ele>44.800000000000004</ele><time>2026-04-09T13:21:49.689Z</time></trkpt><trkpt lat="40.8714117" lon="14.123465"><ele>45.6</ele><time>2026-04-09T13:21:51.688Z</time></trkpt><trkpt lat="40.8713083" lon="14.1234617"><ele>46.4</ele><time>2026-04-09T13:21:53.685Z</time></trkpt><trkpt lat="40.8712083" lon="14.1234683"><ele>47.2</ele><time>2026-04-09T13:21:55.688Z</time></trkpt><trkpt lat="40.8711133" lon="14.1234917"><ele>48.0</ele><time>2026-04-09T13:21:57.687Z</time></trkpt><trkpt lat="40.871015" lon="14.1235283"><ele>48.4</ele><time>2026-04-09T13:21:59.688Z</time></trkpt><trkpt lat="40.8709167" lon="14.1235583"><ele>48.8</ele><time>2026-04-09T13:22:01.688Z</time></trkpt><trkpt lat="40.8708183" lon="14.123595"><ele>49.2</ele><time>2026-04-09T13:22:03.687Z</time></trkpt><trkpt lat="40.870725" lon="14.1236267"><ele>49.6</ele><time>2026-04-09T13:22:05.685Z</time></trkpt><trkpt lat="40.8706317" lon="14.12366"><ele>50.0</ele><time>2026-04-09T13:22:07.687Z</time></trkpt><trkpt lat="40.870535" lon="14.1236917"><ele>50.0</ele><time>2026-04-09T13:22:09.687Z</time></trkpt><trkpt lat="40.8704417" lon="14.1237233"><ele>50.0</ele><time>2026-04-09T13:22:11.685Z</time></trkpt><trkpt lat="40.87035" lon="14.123755"><ele>50.0</ele><time>2026-04-09T13:22:13.687Z</time></trkpt><trkpt lat="40.8702567" lon="14.1237833"><ele>50.0</ele><time>2026-04-09T13:22:15.689Z</time></trkpt><trkpt lat="40.8701583" lon="14.1238083"><ele>50.0</ele><time>2026-04-09T13:22:17.688Z</time></trkpt><trkpt lat="40.8700683" lon="14.1238417"><ele>51.6</ele><time>2026-04-09T13:22:19.689Z</time></trkpt><trkpt lat="40.869975" lon="14.1238867"><ele>53.2</ele><time>2026-04-09T13:22:21.689Z</time></trkpt><trkpt lat="40.869885" lon="14.12392"><ele>54.8</ele><time>2026-04-09T13:22:23.688Z</time></trkpt><trkpt lat="40.8697967" lon="14.1239483"><ele>56.4</ele><time>2026-04-09T13:22:25.69Z</time></trkpt><trkpt lat="40.8697083" lon="14.1239783"><ele>58.0</ele><time>2026-04-09T13:22:27.689Z</time></trkpt><trkpt lat="40.8696167" lon="14.1240083"><ele>57.99999999999999</ele><time>2026-04-09T13:22:29.689Z</time></trkpt><trkpt lat="40.8695267" lon="14.1240367"><ele>58.0</ele><time>2026-04-09T13:22:31.685Z</time></trkpt><trkpt lat="40.8694483" lon="14.1240683"><ele>58.0</ele><time>2026-04-09T13:22:33.687Z</time></trkpt><trkpt lat="40.8693717" lon="14.1241"><ele>58.0</ele><time>2026-04-09T13:22:35.687Z</time></trkpt><trkpt lat="40.8692967" lon="14.12413"><ele>57.99999999999999</ele><time>2026-04-09T13:22:37.689Z</time></trkpt><trkpt lat="40.8692217" lon="14.1241567"><ele>58.0</ele><time>2026-04-09T13:22:39.688Z</time></trkpt><trkpt lat="40.8691417" lon="14.124175"><ele>59.571428571428584</ele><time>2026-04-09T13:22:41.688Z</time></trkpt><trkpt lat="40.869065" lon="14.1242"><ele>61.142857142857146</ele><time>2026-04-09T13:22:43.689Z</time></trkpt><trkpt lat="40.8690067" lon="14.1242417"><ele>62.71428571428572</ele><time>2026-04-09T13:22:45.688Z</time></trkpt><trkpt lat="40.86894" lon="14.1242767"><ele>64.28571428571429</ele><time>2026-04-09T13:22:47.688Z</time></trkpt><trkpt lat="40.8688717" lon="14.1243"><ele>65.85714285714286</ele><time>2026-04-09T13:22:49.686Z</time></trkpt><trkpt lat="40.8688033" lon="14.124315"><ele>67.42857142857143</ele><time>2026-04-09T13:22:51.689Z</time></trkpt><trkpt lat="40.8687233" lon="14.1243367"><ele>69.0</ele><time>2026-04-09T13:22:53.688Z</time></trkpt><trkpt lat="40.8686383" lon="14.1243583"><ele>69.0</ele><time>2026-04-09T13:22:55.686Z</time></trkpt><trkpt lat="40.8685617" lon="14.1243733"><ele>69.0</ele><time>2026-04-09T13:22:57.685Z</time></trkpt><trkpt lat="40.8684833" lon="14.124385"><ele>69.0</ele><time>2026-04-09T13:22:59.689Z</time></trkpt><trkpt lat="40.86841" lon="14.12442"><ele>69.0</ele><time>2026-04-09T13:23:01.687Z</time></trkpt><trkpt lat="40.8683367" lon="14.12447"><ele>69.0</ele><time>2026-04-09T13:23:03.687Z</time></trkpt><trkpt lat="40.8682617" lon="14.1245067"><ele>69.0</ele><time>2026-04-09T13:23:05.686Z</time></trkpt><trkpt lat="40.8681867" lon="14.1245383"><ele>72.6</ele><time>2026-04-09T13:23:07.686Z</time></trkpt><trkpt lat="40.8680967" lon="14.1245667"><ele>76.2</ele><time>2026-04-09T13:23:09.686Z</time></trkpt><trkpt lat="40.867995" lon="14.1245867"><ele>79.8</ele><time>2026-04-09T13:23:11.686Z</time></trkpt><trkpt lat="40.867895" lon="14.12461"><ele>83.39999999999999</ele><time>2026-04-09T13:23:13.687Z</time></trkpt><trkpt lat="40.867795" lon="14.124635"><ele>87.0</ele><time>2026-04-09T13:23:15.685Z</time></trkpt><trkpt lat="40.8676783" lon="14.124665"><ele>87.0</ele><time>2026-04-09T13:23:17.686Z</time></trkpt><trkpt lat="40.867615" lon="14.12467"><ele>87.0</ele><time>2026-04-09T13:23:18.687Z</time></trkpt><trkpt lat="40.8675483" lon="14.1246767"><ele>87.0</ele><time>2026-04-09T13:23:19.687Z</time></trkpt><trkpt lat="40.8674833" lon="14.1246867"><ele>87.0</ele><time>2026-04-09T13:23:20.687Z</time></trkpt><trkpt lat="40.8674133" lon="14.12469"><ele>87.0</ele><time>2026-04-09T13:23:21.687Z</time></trkpt><trkpt lat="40.8673467" lon="14.124695"><ele>87.0</ele><time>2026-04-09T13:23:22.686Z</time></trkpt><trkpt lat="40.86723" lon="14.12468"><ele>85.39999999999999</ele><time>2026-04-09T13:23:24.687Z</time></trkpt><trkpt lat="40.86713" lon="14.1247083"><ele>83.8</ele><time>2026-04-09T13:23:26.687Z</time></trkpt><trkpt lat="40.86706" lon="14.1247917"><ele>82.2</ele><time>2026-04-09T13:23:28.688Z</time></trkpt><trkpt lat="40.867005" lon="14.1248867"><ele>80.6</ele><time>2026-04-09T13:23:30.689Z</time></trkpt><trkpt lat="40.8669517" lon="14.12497"><ele>79.0</ele><time>2026-04-09T13:23:32.688Z</time></trkpt><trkpt lat="40.8669" lon="14.1250633"><ele>79.0</ele><time>2026-04-09T13:23:35.689Z</time></trkpt><trkpt lat="40.8669583" lon="14.1249867"><ele>79.0</ele><time>2026-04-09T13:23:42.687Z</time></trkpt><trkpt lat="40.8670067" lon="14.1248933"><ele>79.0</ele><time>2026-04-09T13:23:44.685Z</time></trkpt><trkpt lat="40.867065" lon="14.124805"><ele>79.0</ele><time>2026-04-09T13:23:46.687Z</time></trkpt><trkpt lat="40.8671" lon="14.1247267"><ele>79.0</ele><time>2026-04-09T13:23:48.687Z</time></trkpt><trkpt lat="40.8670733" lon="14.1246117"><ele>79.0</ele><time>2026-04-09T13:23:51.686Z</time></trkpt><trkpt lat="40.8670017" lon="14.1245383"><ele>78.4</ele><time>2026-04-09T13:23:53.69Z</time></trkpt><trkpt lat="40.8669083" lon="14.12447"><ele>77.80000000000001</ele><time>2026-04-09T13:23:55.69Z</time></trkpt><trkpt lat="40.866795" lon="14.1244133"><ele>77.19999999999999</ele><time>2026-04-09T13:23:57.689Z</time></trkpt><trkpt lat="40.8666783" lon="14.124355"><ele>76.6</ele><time>2026-04-09T13:23:59.688Z</time></trkpt><trkpt lat="40.866615" lon="14.1243267"><ele>76.0</ele><time>2026-04-09T13:24:00.687Z</time></trkpt><trkpt lat="40.8665517" lon="14.124305"><ele>73.33333333333333</ele><time>2026-04-09T13:24:01.69Z</time></trkpt><trkpt lat="40.8664333" lon="14.12426"><ele>70.66666666666666</ele><time>2026-04-09T13:24:03.688Z</time></trkpt><trkpt lat="40.8663733" lon="14.12423"><ele>68.0</ele><time>2026-04-09T13:24:04.689Z</time></trkpt><trkpt lat="40.8663133" lon="14.1241967"><ele>65.33333333333333</ele><time>2026-04-09T13:24:05.688Z</time></trkpt><trkpt lat="40.8662517" lon="14.124165"><ele>62.666666666666664</ele><time>2026-04-09T13:24:06.689Z</time></trkpt><trkpt lat="40.86619" lon="14.1241333"><ele>60.0</ele><time>2026-04-09T13:24:07.69Z</time></trkpt><trkpt lat="40.8661283" lon="14.1241017"><ele>60.0</ele><time>2026-04-09T13:24:08.688Z</time></trkpt><trkpt lat="40.8660683" lon="14.1240717"><ele>60.0</ele><time>2026-04-09T13:24:09.688Z</time></trkpt><trkpt lat="40.8660033" lon="14.1240433"><ele>60.0</ele><time>2026-04-09T13:24:10.688Z</time></trkpt><trkpt lat="40.86594" lon="14.1240117"><ele>60.0</ele><time>2026-04-09T13:24:11.689Z</time></trkpt><trkpt lat="40.8658767" lon="14.12398"><ele>60.0</ele><time>2026-04-09T13:24:12.684Z</time></trkpt><trkpt lat="40.8658117" lon="14.12395"><ele>60.0</ele><time>2026-04-09T13:24:13.689Z</time></trkpt><trkpt lat="40.865745" lon="14.12392"><ele>60.0</ele><time>2026-04-09T13:24:14.688Z</time></trkpt><trkpt lat="40.8656783" lon="14.1238883"><ele>59.42857142857143</ele><time>2026-04-09T13:24:15.685Z</time></trkpt><trkpt lat="40.8656133" lon="14.12385"><ele>58.857142857142854</ele><time>2026-04-09T13:24:16.689Z</time></trkpt><trkpt lat="40.8655467" lon="14.1238167"><ele>58.285714285714285</ele><time>2026-04-09T13:24:17.687Z</time></trkpt><trkpt lat="40.86548" lon="14.1237833"><ele>57.714285714285715</ele><time>2026-04-09T13:24:18.688Z</time></trkpt><trkpt lat="40.8654133" lon="14.1237467"><ele>57.14285714285714</ele><time>2026-04-09T13:24:19.688Z</time></trkpt><trkpt lat="40.8653467" lon="14.12371"><ele>56.57142857142857</ele><time>2026-04-09T13:24:20.687Z</time></trkpt><trkpt lat="40.8652833" lon="14.1236733"><ele>56.0</ele><time>2026-04-09T13:24:21.686Z</time></trkpt><trkpt lat="40.8652167" lon="14.123635"><ele>56.0</ele><time>2026-04-09T13:24:22.687Z</time></trkpt><trkpt lat="40.8651517" lon="14.1236017"><ele>56.0</ele><time>2026-04-09T13:24:23.69Z</time></trkpt><trkpt lat="40.8650867" lon="14.1235667"><ele>56.0</ele><time>2026-04-09T13:24:24.689Z</time></trkpt><trkpt lat="40.8650233" lon="14.12353"><ele>56.0</ele><time>2026-04-09T13:24:25.69Z</time></trkpt><trkpt lat="40.86496" lon="14.1234967"><ele>56.0</ele><time>2026-04-09T13:24:26.687Z</time></trkpt><trkpt lat="40.8648933" lon="14.123465"><ele>56.0</ele><time>2026-04-09T13:24:27.689Z</time></trkpt><trkpt lat="40.8648283" lon="14.1234333"><ele>56.0</ele><time>2026-04-09T13:24:28.689Z</time></trkpt><trkpt lat="40.8647633" lon="14.1234"><ele>55.857142857142854</ele><time>2026-04-09T13:24:29.689Z</time></trkpt><trkpt lat="40.8646983" lon="14.1233667"><ele>55.714285714285715</ele><time>2026-04-09T13:24:30.688Z</time></trkpt><trkpt lat="40.8646317" lon="14.1233333"><ele>55.57142857142857</ele><time>2026-04-09T13:24:31.688Z</time></trkpt><trkpt lat="40.864565" lon="14.1232967"><ele>55.42857142857143</ele><time>2026-04-09T13:24:32.689Z</time></trkpt><trkpt lat="40.8644983" lon="14.1232617"><ele>55.285714285714285</ele><time>2026-04-09T13:24:33.689Z</time></trkpt><trkpt lat="40.8644333" lon="14.1232267"><ele>55.14285714285714</ele><time>2026-04-09T13:24:34.688Z</time></trkpt><trkpt lat="40.86437" lon="14.1231917"><ele>55.0</ele><time>2026-04-09T13:24:35.689Z</time></trkpt><trkpt lat="40.8643083" lon="14.123155"><ele>54.857142857142854</ele><time>2026-04-09T13:24:36.689Z</time></trkpt><trkpt lat="40.864245" lon="14.12312"><ele>54.714285714285715</ele><time>2026-04-09T13:24:37.69Z</time></trkpt><trkpt lat="40.86418" lon="14.1230833"><ele>54.57142857142857</ele><time>2026-04-09T13:24:38.689Z</time></trkpt><trkpt lat="40.8641167" lon="14.1230483"><ele>54.42857142857143</ele><time>2026-04-09T13:24:39.689Z</time></trkpt><trkpt lat="40.864055" lon="14.12302"><ele>54.285714285714285</ele><time>2026-04-09T13:24:40.689Z</time></trkpt><trkpt lat="40.8639917" lon="14.1229883"><ele>54.14285714285714</ele><time>2026-04-09T13:24:41.687Z</time></trkpt><trkpt lat="40.86393" lon="14.1229533"><ele>54.0</ele><time>2026-04-09T13:24:42.688Z</time></trkpt><trkpt lat="40.8638633" lon="14.12292"><ele>54.0</ele><time>2026-04-09T13:24:43.689Z</time></trkpt><trkpt lat="40.8637967" lon="14.1228883"><ele>54.0</ele><time>2026-04-09T13:24:44.689Z</time></trkpt><trkpt lat="40.86373" lon="14.122855"><ele>54.0</ele><time>2026-04-09T13:24:45.688Z</time></trkpt><trkpt lat="40.8636633" lon="14.12282"><ele>54.0</ele><time>2026-04-09T13:24:46.687Z</time></trkpt><trkpt lat="40.863595" lon="14.12279"><ele>54.0</ele><time>2026-04-09T13:24:47.687Z</time></trkpt><trkpt lat="40.8635283" lon="14.1227567"><ele>54.0</ele><time>2026-04-09T13:24:48.686Z</time></trkpt><trkpt lat="40.8634633" lon="14.1227233"><ele>54.0</ele><time>2026-04-09T13:24:49.686Z</time></trkpt><trkpt lat="40.863395" lon="14.1226933"><ele>54.14285714285714</ele><time>2026-04-09T13:24:50.687Z</time></trkpt><trkpt lat="40.8633267" lon="14.122665"><ele>54.285714285714285</ele><time>2026-04-09T13:24:51.685Z</time></trkpt><trkpt lat="40.8632633" lon="14.1226333"><ele>54.42857142857143</ele><time>2026-04-09T13:24:52.687Z</time></trkpt><trkpt lat="40.8631983" lon="14.1226"><ele>54.57142857142857</ele><time>2026-04-09T13:24:53.691Z</time></trkpt><trkpt lat="40.8631333" lon="14.122565"><ele>54.714285714285715</ele><time>2026-04-09T13:24:54.688Z</time></trkpt><trkpt lat="40.86307" lon="14.1225317"><ele>54.857142857142854</ele><time>2026-04-09T13:24:55.689Z</time></trkpt><trkpt lat="40.8630083" lon="14.1224983"><ele>55.0</ele><time>2026-04-09T13:24:56.689Z</time></trkpt><trkpt lat="40.8629467" lon="14.122465"><ele>54.99999999999999</ele><time>2026-04-09T13:24:57.689Z</time></trkpt><trkpt lat="40.8628833" lon="14.1224367"><ele>55.0</ele><time>2026-04-09T13:24:58.688Z</time></trkpt><trkpt lat="40.8628233" lon="14.1224067"><ele>55.0</ele><time>2026-04-09T13:24:59.689Z</time></trkpt><trkpt lat="40.8627633" lon="14.122375"><ele>55.0</ele><time>2026-04-09T13:25:00.689Z</time></trkpt><trkpt lat="40.8627033" lon="14.1223417"><ele>54.99999999999999</ele><time>2026-04-09T13:25:01.689Z</time></trkpt><trkpt lat="40.8626433" lon="14.1223133"><ele>55.0</ele><time>2026-04-09T13:25:02.689Z</time></trkpt><trkpt lat="40.86252" lon="14.1222517"><ele>54.857142857142854</ele><time>2026-04-09T13:25:04.69Z</time></trkpt><trkpt lat="40.8624567" lon="14.122215"><ele>54.714285714285715</ele><time>2026-04-09T13:25:05.69Z</time></trkpt><trkpt lat="40.862395" lon="14.1221783"><ele>54.57142857142857</ele><time>2026-04-09T13:25:06.688Z</time></trkpt><trkpt lat="40.86233" lon="14.122145"><ele>54.42857142857143</ele><time>2026-04-09T13:25:07.69Z</time></trkpt><trkpt lat="40.8622667" lon="14.1221117"><ele>54.285714285714285</ele><time>2026-04-09T13:25:08.688Z</time></trkpt><trkpt lat="40.8622" lon="14.122075"><ele>54.14285714285714</ele><time>2026-04-09T13:25:09.688Z</time></trkpt><trkpt lat="40.8621367" lon="14.1220417"><ele>54.0</ele><time>2026-04-09T13:25:10.69Z</time></trkpt><trkpt lat="40.86207" lon="14.1220133"><ele>54.0</ele><time>2026-04-09T13:25:11.689Z</time></trkpt><trkpt lat="40.8620033" lon="14.1219817"><ele>54.0</ele><time>2026-04-09T13:25:12.688Z</time></trkpt><trkpt lat="40.8619367" lon="14.1219483"><ele>54.0</ele><time>2026-04-09T13:25:13.69Z</time></trkpt><trkpt lat="40.8618683" lon="14.121915"><ele>54.0</ele><time>2026-04-09T13:25:14.69Z</time></trkpt><trkpt lat="40.8618017" lon="14.1218833"><ele>54.0</ele><time>2026-04-09T13:25:15.688Z</time></trkpt><trkpt lat="40.8617367" lon="14.1218517"><ele>54.0</ele><time>2026-04-09T13:25:16.687Z</time></trkpt><trkpt lat="40.8616717" lon="14.121815"><ele>54.0</ele><time>2026-04-09T13:25:17.687Z</time></trkpt><trkpt lat="40.8616083" lon="14.1217783"><ele>54.0</ele><time>2026-04-09T13:25:18.687Z</time></trkpt><trkpt lat="40.861545" lon="14.12174"><ele>54.0</ele><time>2026-04-09T13:25:19.687Z</time></trkpt><trkpt lat="40.86148" lon="14.1217033"><ele>54.0</ele><time>2026-04-09T13:25:20.687Z</time></trkpt><trkpt lat="40.8614133" lon="14.12167"><ele>54.0</ele><time>2026-04-09T13:25:21.687Z</time></trkpt><trkpt lat="40.8613483" lon="14.121635"><ele>54.0</ele><time>2026-04-09T13:25:22.685Z</time></trkpt><trkpt lat="40.8612817" lon="14.1215967"><ele>54.0</ele><time>2026-04-09T13:25:23.69Z</time></trkpt><trkpt lat="40.8612167" lon="14.1215617"><ele>54.0</ele><time>2026-04-09T13:25:24.689Z</time></trkpt><trkpt lat="40.8611517" lon="14.12153"><ele>54.0</ele><time>2026-04-09T13:25:25.691Z</time></trkpt><trkpt lat="40.8610867" lon="14.1214967"><ele>54.0</ele><time>2026-04-09T13:25:26.688Z</time></trkpt><trkpt lat="40.8610217" lon="14.1214667"><ele>54.0</ele><time>2026-04-09T13:25:27.689Z</time></trkpt><trkpt lat="40.8609583" lon="14.1214367"><ele>54.0</ele><time>2026-04-09T13:25:28.688Z</time></trkpt><trkpt lat="40.860895" lon="14.1214067"><ele>54.0</ele><time>2026-04-09T13:25:29.689Z</time></trkpt><trkpt lat="40.8608333" lon="14.121375"><ele>54.0</ele><time>2026-04-09T13:25:30.689Z</time></trkpt><trkpt lat="40.86077" lon="14.1213483"><ele>54.0</ele><time>2026-04-09T13:25:31.69Z</time></trkpt><trkpt lat="40.8607067" lon="14.1213167"><ele>54.0</ele><time>2026-04-09T13:25:32.689Z</time></trkpt><trkpt lat="40.860645" lon="14.1212867"><ele>54.0</ele><time>2026-04-09T13:25:33.689Z</time></trkpt><trkpt lat="40.860585" lon="14.121255"><ele>54.0</ele><time>2026-04-09T13:25:34.687Z</time></trkpt><trkpt lat="40.8605233" lon="14.1212217"><ele>54.0</ele><time>2026-04-09T13:25:35.689Z</time></trkpt><trkpt lat="40.86046" lon="14.1211917"><ele>54.0</ele><time>2026-04-09T13:25:36.688Z</time></trkpt><trkpt lat="40.8604" lon="14.12116"><ele>54.0</ele><time>2026-04-09T13:25:37.689Z</time></trkpt><trkpt lat="40.8603383" lon="14.1211317"><ele>54.0</ele><time>2026-04-09T13:25:38.688Z</time></trkpt><trkpt lat="40.8602167" lon="14.1210817"><ele>54.0</ele><time>2026-04-09T13:25:40.689Z</time></trkpt><trkpt lat="40.8601517" lon="14.1210567"><ele>54.0</ele><time>2026-04-09T13:25:41.689Z</time></trkpt><trkpt lat="40.8600883" lon="14.1210283"><ele>54.0</ele><time>2026-04-09T13:25:42.688Z</time></trkpt><trkpt lat="40.860025" lon="14.1210017"><ele>54.0</ele><time>2026-04-09T13:25:43.689Z</time></trkpt><trkpt lat="40.8599583" lon="14.1209817"><ele>54.0</ele><time>2026-04-09T13:25:44.688Z</time></trkpt><trkpt lat="40.8598933" lon="14.1209583"><ele>54.0</ele><time>2026-04-09T13:25:45.689Z</time></trkpt><trkpt lat="40.8598267" lon="14.12094"><ele>54.0</ele><time>2026-04-09T13:25:46.688Z</time></trkpt><trkpt lat="40.8597617" lon="14.12092"><ele>54.0</ele><time>2026-04-09T13:25:47.688Z</time></trkpt><trkpt lat="40.8596983" lon="14.1209017"><ele>54.0</ele><time>2026-04-09T13:25:48.688Z</time></trkpt><trkpt lat="40.8596333" lon="14.1208867"><ele>54.0</ele><time>2026-04-09T13:25:49.689Z</time></trkpt><trkpt lat="40.8595683" lon="14.1208683"><ele>54.0</ele><time>2026-04-09T13:25:50.688Z</time></trkpt><trkpt lat="40.8595033" lon="14.12085"><ele>54.0</ele><time>2026-04-09T13:25:51.686Z</time></trkpt><trkpt lat="40.85944" lon="14.120835"><ele>54.0</ele><time>2026-04-09T13:25:52.689Z</time></trkpt><trkpt lat="40.8593767" lon="14.120825"><ele>54.0</ele><time>2026-04-09T13:25:53.689Z</time></trkpt><trkpt lat="40.8593133" lon="14.1208067"><ele>54.285714285714285</ele><time>2026-04-09T13:25:54.689Z</time></trkpt><trkpt lat="40.85925" lon="14.1207917"><ele>54.57142857142857</ele><time>2026-04-09T13:25:55.687Z</time></trkpt><trkpt lat="40.8591867" lon="14.12078"><ele>54.85714285714286</ele><time>2026-04-09T13:25:56.686Z</time></trkpt><trkpt lat="40.8591217" lon="14.1207667"><ele>55.14285714285714</ele><time>2026-04-09T13:25:57.689Z</time></trkpt><trkpt lat="40.8590583" lon="14.12075"><ele>55.42857142857143</ele><time>2026-04-09T13:25:58.688Z</time></trkpt><trkpt lat="40.858995" lon="14.1207367"><ele>55.714285714285715</ele><time>2026-04-09T13:25:59.689Z</time></trkpt><trkpt lat="40.8589317" lon="14.120725"><ele>56.0</ele><time>2026-04-09T13:26:00.689Z</time></trkpt><trkpt lat="40.8588683" lon="14.1207083"><ele>56.0</ele><time>2026-04-09T13:26:01.691Z</time></trkpt><trkpt lat="40.858805" lon="14.1206967"><ele>56.0</ele><time>2026-04-09T13:26:02.689Z</time></trkpt><trkpt lat="40.8587417" lon="14.1206817"><ele>56.0</ele><time>2026-04-09T13:26:03.689Z</time></trkpt><trkpt lat="40.8586783" lon="14.12067"><ele>56.0</ele><time>2026-04-09T13:26:04.688Z</time></trkpt><trkpt lat="40.858615" lon="14.1206533"><ele>56.0</ele><time>2026-04-09T13:26:05.69Z</time></trkpt><trkpt lat="40.85855" lon="14.1206417"><ele>56.0</ele><time>2026-04-09T13:26:06.686Z</time></trkpt><trkpt lat="40.858485" lon="14.12063"><ele>56.0</ele><time>2026-04-09T13:26:07.689Z</time></trkpt><trkpt lat="40.85842" lon="14.1206183"><ele>56.0</ele><time>2026-04-09T13:26:08.689Z</time></trkpt><trkpt lat="40.8583533" lon="14.1206067"><ele>56.0</ele><time>2026-04-09T13:26:09.688Z</time></trkpt><trkpt lat="40.8582867" lon="14.1205917"><ele>56.0</ele><time>2026-04-09T13:26:10.689Z</time></trkpt><trkpt lat="40.85822" lon="14.120575"><ele>56.0</ele><time>2026-04-09T13:26:11.689Z</time></trkpt><trkpt lat="40.8581517" lon="14.1205583"><ele>56.0</ele><time>2026-04-09T13:26:12.688Z</time></trkpt><trkpt lat="40.858085" lon="14.1205417"><ele>56.0</ele><time>2026-04-09T13:26:13.688Z</time></trkpt><trkpt lat="40.8580167" lon="14.12052"><ele>56.0</ele><time>2026-04-09T13:26:14.688Z</time></trkpt><trkpt lat="40.8579467" lon="14.1205033"><ele>56.0</ele><time>2026-04-09T13:26:15.686Z</time></trkpt><trkpt lat="40.85788" lon="14.1204883"><ele>56.0</ele><time>2026-04-09T13:26:16.689Z</time></trkpt><trkpt lat="40.8578117" lon="14.1204717"><ele>56.0</ele><time>2026-04-09T13:26:17.689Z</time></trkpt><trkpt lat="40.8577433" lon="14.1204583"><ele>56.0</ele><time>2026-04-09T13:26:18.686Z</time></trkpt><trkpt lat="40.857675" lon="14.120445"><ele>56.0</ele><time>2026-04-09T13:26:19.69Z</time></trkpt><trkpt lat="40.8576067" lon="14.1204283"><ele>56.0</ele><time>2026-04-09T13:26:20.688Z</time></trkpt><trkpt lat="40.8575383" lon="14.1204183"><ele>56.0</ele><time>2026-04-09T13:26:21.689Z</time></trkpt><trkpt lat="40.8574683" lon="14.120405"><ele>56.0</ele><time>2026-04-09T13:26:22.688Z</time></trkpt><trkpt lat="40.8574" lon="14.12039"><ele>56.0</ele><time>2026-04-09T13:26:23.686Z</time></trkpt><trkpt lat="40.8573317" lon="14.12038"><ele>56.0</ele><time>2026-04-09T13:26:24.689Z</time></trkpt><trkpt lat="40.8572667" lon="14.1203683"><ele>56.0</ele><time>2026-04-09T13:26:25.689Z</time></trkpt><trkpt lat="40.8572017" lon="14.1203517"><ele>56.0</ele><time>2026-04-09T13:26:26.689Z</time></trkpt><trkpt lat="40.8571383" lon="14.1203383"><ele>56.0</ele><time>2026-04-09T13:26:27.689Z</time></trkpt><trkpt lat="40.8570733" lon="14.1203267"><ele>56.0</ele><time>2026-04-09T13:26:28.689Z</time></trkpt><trkpt lat="40.8569517" lon="14.1203"><ele>56.0</ele><time>2026-04-09T13:26:30.689Z</time></trkpt><trkpt lat="40.85689" lon="14.1202833"><ele>56.0</ele><time>2026-04-09T13:26:31.687Z</time></trkpt><trkpt lat="40.8567733" lon="14.1202633"><ele>56.0</ele><time>2026-04-09T13:26:33.688Z</time></trkpt><trkpt lat="40.85671" lon="14.1202533"><ele>56.0</ele><time>2026-04-09T13:26:34.689Z</time></trkpt><trkpt lat="40.856645" lon="14.1202517"><ele>56.0</ele><time>2026-04-09T13:26:35.689Z</time></trkpt><trkpt lat="40.8565817" lon="14.1202433"><ele>56.0</ele><time>2026-04-09T13:26:36.689Z</time></trkpt><trkpt lat="40.8565183" lon="14.12023"><ele>56.0</ele><time>2026-04-09T13:26:37.69Z</time></trkpt><trkpt lat="40.856395" lon="14.1202067"><ele>56.16666666666667</ele><time>2026-04-09T13:26:39.689Z</time></trkpt><trkpt lat="40.8562733" lon="14.1201867"><ele>56.333333333333336</ele><time>2026-04-09T13:26:41.689Z</time></trkpt><trkpt lat="40.8562083" lon="14.1201733"><ele>56.5</ele><time>2026-04-09T13:26:42.689Z</time></trkpt><trkpt lat="40.856145" lon="14.1201633"><ele>56.66666666666667</ele><time>2026-04-09T13:26:43.69Z</time></trkpt><trkpt lat="40.85608" lon="14.1201517"><ele>56.833333333333336</ele><time>2026-04-09T13:26:44.689Z</time></trkpt><trkpt lat="40.8560167" lon="14.1201383"><ele>57.0</ele><time>2026-04-09T13:26:45.689Z</time></trkpt><trkpt lat="40.8558933" lon="14.120115"><ele>57.166666666666664</ele><time>2026-04-09T13:26:47.689Z</time></trkpt><trkpt lat="40.85583" lon="14.1200983"><ele>57.33333333333333</ele><time>2026-04-09T13:26:48.689Z</time></trkpt><trkpt lat="40.855765" lon="14.12008"><ele>57.5</ele><time>2026-04-09T13:26:49.689Z</time></trkpt><trkpt lat="40.85564" lon="14.120055"><ele>57.666666666666664</ele><time>2026-04-09T13:26:51.689Z</time></trkpt><trkpt lat="40.8555767" lon="14.1200383"><ele>57.83333333333333</ele><time>2026-04-09T13:26:52.689Z</time></trkpt><trkpt lat="40.8555133" lon="14.1200217"><ele>58.0</ele><time>2026-04-09T13:26:53.689Z</time></trkpt><trkpt lat="40.8554483" lon="14.1200067"><ele>58.00000000000001</ele><time>2026-04-09T13:26:54.686Z</time></trkpt><trkpt lat="40.8553817" lon="14.11999"><ele>58.0</ele><time>2026-04-09T13:26:55.687Z</time></trkpt><trkpt lat="40.8553167" lon="14.119975"><ele>58.00000000000001</ele><time>2026-04-09T13:26:56.688Z</time></trkpt><trkpt lat="40.85525" lon="14.1199617"><ele>58.00000000000001</ele><time>2026-04-09T13:26:57.689Z</time></trkpt><trkpt lat="40.8551833" lon="14.1199467"><ele>58.0</ele><time>2026-04-09T13:26:58.689Z</time></trkpt><trkpt lat="40.8551183" lon="14.1199333"><ele>58.00000000000001</ele><time>2026-04-09T13:26:59.689Z</time></trkpt><trkpt lat="40.855055" lon="14.1199183"><ele>58.00000000000001</ele><time>2026-04-09T13:27:00.689Z</time></trkpt><trkpt lat="40.8549867" lon="14.119905"><ele>58.00000000000001</ele><time>2026-04-09T13:27:01.688Z</time></trkpt><trkpt lat="40.8549233" lon="14.11989"><ele>58.0</ele><time>2026-04-09T13:27:02.689Z</time></trkpt><trkpt lat="40.8548583" lon="14.1198733"><ele>58.00000000000001</ele><time>2026-04-09T13:27:03.688Z</time></trkpt><trkpt lat="40.8547933" lon="14.11986"><ele>58.00000000000001</ele><time>2026-04-09T13:27:04.689Z</time></trkpt><trkpt lat="40.8546733" lon="14.119835"><ele>58.0</ele><time>2026-04-09T13:27:06.689Z</time></trkpt><trkpt lat="40.85461" lon="14.1198217"><ele>58.00000000000001</ele><time>2026-04-09T13:27:07.689Z</time></trkpt><trkpt lat="40.854545" lon="14.1198083"><ele>58.00000000000001</ele><time>2026-04-09T13:27:08.688Z</time></trkpt><trkpt lat="40.85448" lon="14.1197967"><ele>58.00000000000001</ele><time>2026-04-09T13:27:09.689Z</time></trkpt><trkpt lat="40.854415" lon="14.1197833"><ele>58.0</ele><time>2026-04-09T13:27:10.689Z</time></trkpt><trkpt lat="40.8543517" lon="14.1197633"><ele>58.00000000000001</ele><time>2026-04-09T13:27:11.689Z</time></trkpt><trkpt lat="40.8542867" lon="14.119745"><ele>58.00000000000001</ele><time>2026-04-09T13:27:12.688Z</time></trkpt><trkpt lat="40.854225" lon="14.1197267"><ele>58.0</ele><time>2026-04-09T13:27:13.69Z</time></trkpt><trkpt lat="40.85416" lon="14.1197167"><ele>58.00000000000001</ele><time>2026-04-09T13:27:14.688Z</time></trkpt><trkpt lat="40.854095" lon="14.1197017"><ele>58.00000000000001</ele><time>2026-04-09T13:27:15.685Z</time></trkpt><trkpt lat="40.8540317" lon="14.1196867"><ele>58.28571428571429</ele><time>2026-04-09T13:27:16.689Z</time></trkpt><trkpt lat="40.8539667" lon="14.1196717"><ele>58.57142857142857</ele><time>2026-04-09T13:27:17.687Z</time></trkpt><trkpt lat="40.8539017" lon="14.1196567"><ele>58.85714285714286</ele><time>2026-04-09T13:27:18.687Z</time></trkpt><trkpt lat="40.8538383" lon="14.1196433"><ele>59.142857142857146</ele><time>2026-04-09T13:27:19.688Z</time></trkpt><trkpt lat="40.8537717" lon="14.1196317"><ele>59.42857142857143</ele><time>2026-04-09T13:27:20.688Z</time></trkpt><trkpt lat="40.8537067" lon="14.1196167"><ele>59.714285714285715</ele><time>2026-04-09T13:27:21.687Z</time></trkpt><trkpt lat="40.8536433" lon="14.1196"><ele>60.0</ele><time>2026-04-09T13:27:22.688Z</time></trkpt><trkpt lat="40.8535783" lon="14.1195817"><ele>60.0</ele><time>2026-04-09T13:27:23.687Z</time></trkpt><trkpt lat="40.853515" lon="14.119565"><ele>60.0</ele><time>2026-04-09T13:27:24.687Z</time></trkpt><trkpt lat="40.85339" lon="14.1195367"><ele>60.0</ele><time>2026-04-09T13:27:26.687Z</time></trkpt><trkpt lat="40.853265" lon="14.1195083"><ele>60.0</ele><time>2026-04-09T13:27:28.69Z</time></trkpt><trkpt lat="40.8531417" lon="14.119485"><ele>60.0</ele><time>2026-04-09T13:27:30.689Z</time></trkpt><trkpt lat="40.8530233" lon="14.1194617"><ele>61.0</ele><time>2026-04-09T13:27:32.687Z</time></trkpt><trkpt lat="40.85296" lon="14.1194483"><ele>62.0</ele><time>2026-04-09T13:27:33.686Z</time></trkpt><trkpt lat="40.8528417" lon="14.11943"><ele>63.0</ele><time>2026-04-09T13:27:35.688Z</time></trkpt><trkpt lat="40.85273" lon="14.11941"><ele>64.0</ele><time>2026-04-09T13:27:37.686Z</time></trkpt><trkpt lat="40.8526117" lon="14.1193883"><ele>65.0</ele><time>2026-04-09T13:27:39.689Z</time></trkpt><trkpt lat="40.8525" lon="14.1193633"><ele>65.25</ele><time>2026-04-09T13:27:41.685Z</time></trkpt><trkpt lat="40.8523883" lon="14.1193333"><ele>65.5</ele><time>2026-04-09T13:27:43.685Z</time></trkpt><trkpt lat="40.852275" lon="14.1193133"><ele>65.75</ele><time>2026-04-09T13:27:45.688Z</time></trkpt><trkpt lat="40.8521633" lon="14.119285"><ele>66.0</ele><time>2026-04-09T13:27:47.687Z</time></trkpt><trkpt lat="40.852055" lon="14.1192583"><ele>66.0</ele><time>2026-04-09T13:27:49.69Z</time></trkpt><trkpt lat="40.8519433" lon="14.1192367"><ele>66.0</ele><time>2026-04-09T13:27:51.689Z</time></trkpt><trkpt lat="40.85183" lon="14.11921"><ele>66.0</ele><time>2026-04-09T13:27:53.688Z</time></trkpt><trkpt lat="40.8517133" lon="14.1191883"><ele>66.0</ele><time>2026-04-09T13:27:55.689Z</time></trkpt><trkpt lat="40.851595" lon="14.119165"><ele>66.0</ele><time>2026-04-09T13:27:57.687Z</time></trkpt><trkpt lat="40.8514767" lon="14.1191433"><ele>66.0</ele><time>2026-04-09T13:27:59.69Z</time></trkpt><trkpt lat="40.8513617" lon="14.1191183"><ele>66.0</ele><time>2026-04-09T13:28:01.691Z</time></trkpt><trkpt lat="40.8512417" lon="14.1190883"><ele>66.0</ele><time>2026-04-09T13:28:03.689Z</time></trkpt><trkpt lat="40.8511233" lon="14.119065"><ele>66.0</ele><time>2026-04-09T13:28:05.689Z</time></trkpt><trkpt lat="40.8510083" lon="14.1190417"><ele>66.0</ele><time>2026-04-09T13:28:07.69Z</time></trkpt><trkpt lat="40.85089" lon="14.11902"><ele>66.0</ele><time>2026-04-09T13:28:09.689Z</time></trkpt><trkpt lat="40.850775" lon="14.119"><ele>66.0</ele><time>2026-04-09T13:28:11.689Z</time></trkpt><trkpt lat="40.8506583" lon="14.11898"><ele>66.0</ele><time>2026-04-09T13:28:13.69Z</time></trkpt><trkpt lat="40.8505433" lon="14.1189567"><ele>66.0</ele><time>2026-04-09T13:28:15.688Z</time></trkpt><trkpt lat="40.8504283" lon="14.1189383"><ele>66.0</ele><time>2026-04-09T13:28:17.688Z</time></trkpt><trkpt lat="40.850315" lon="14.1189117"><ele>66.0</ele><time>2026-04-09T13:28:19.687Z</time></trkpt><trkpt lat="40.850195" lon="14.1188833"><ele>67.0</ele><time>2026-04-09T13:28:21.687Z</time></trkpt><trkpt lat="40.8500767" lon="14.1188567"><ele>68.0</ele><time>2026-04-09T13:28:23.687Z</time></trkpt><trkpt lat="40.84996" lon="14.11883"><ele>69.0</ele><time>2026-04-09T13:28:25.688Z</time></trkpt><trkpt lat="40.84984" lon="14.1188083"><ele>70.0</ele><time>2026-04-09T13:28:27.686Z</time></trkpt><trkpt lat="40.849725" lon="14.1187817"><ele>70.0</ele><time>2026-04-09T13:28:29.689Z</time></trkpt><trkpt lat="40.8496167" lon="14.1187517"><ele>70.0</ele><time>2026-04-09T13:28:31.689Z</time></trkpt><trkpt lat="40.84951" lon="14.1187267"><ele>70.0</ele><time>2026-04-09T13:28:33.689Z</time></trkpt><trkpt lat="40.8494033" lon="14.1187033"><ele>70.0</ele><time>2026-04-09T13:28:35.687Z</time></trkpt><trkpt lat="40.8492933" lon="14.1186683"><ele>70.0</ele><time>2026-04-09T13:28:37.69Z</time></trkpt><trkpt lat="40.849185" lon="14.1186517"><ele>70.4</ele><time>2026-04-09T13:28:39.689Z</time></trkpt><trkpt lat="40.8490817" lon="14.1186333"><ele>70.8</ele><time>2026-04-09T13:28:41.687Z</time></trkpt><trkpt lat="40.848975" lon="14.1186117"><ele>71.2</ele><time>2026-04-09T13:28:43.69Z</time></trkpt><trkpt lat="40.8488667" lon="14.1185933"><ele>71.6</ele><time>2026-04-09T13:28:45.685Z</time></trkpt><trkpt lat="40.848755" lon="14.1185683"><ele>72.0</ele><time>2026-04-09T13:28:47.687Z</time></trkpt><trkpt lat="40.8486467" lon="14.1185483"><ele>72.0</ele><time>2026-04-09T13:28:49.688Z</time></trkpt><trkpt lat="40.848535" lon="14.118525"><ele>72.0</ele><time>2026-04-09T13:28:51.686Z</time></trkpt><trkpt lat="40.8484267" lon="14.1184983"><ele>72.0</ele><time>2026-04-09T13:28:53.687Z</time></trkpt><trkpt lat="40.8483133" lon="14.1184667"><ele>72.0</ele><time>2026-04-09T13:28:55.687Z</time></trkpt><trkpt lat="40.8481983" lon="14.1184433"><ele>72.5</ele><time>2026-04-09T13:28:57.687Z</time></trkpt><trkpt lat="40.8480867" lon="14.1184217"><ele>73.0</ele><time>2026-04-09T13:28:59.688Z</time></trkpt><trkpt lat="40.8479717" lon="14.118395"><ele>73.5</ele><time>2026-04-09T13:29:01.689Z</time></trkpt><trkpt lat="40.84786" lon="14.1183683"><ele>74.0</ele><time>2026-04-09T13:29:03.687Z</time></trkpt><trkpt lat="40.84774" lon="14.11834"><ele>74.25</ele><time>2026-04-09T13:29:05.685Z</time></trkpt><trkpt lat="40.847625" lon="14.11831"><ele>74.5</ele><time>2026-04-09T13:29:07.69Z</time></trkpt><trkpt lat="40.84751" lon="14.118285"><ele>74.75</ele><time>2026-04-09T13:29:09.689Z</time></trkpt><trkpt lat="40.8473917" lon="14.1182617"><ele>75.0</ele><time>2026-04-09T13:29:11.689Z</time></trkpt><trkpt lat="40.84727" lon="14.1182383"><ele>75.16666666666667</ele><time>2026-04-09T13:29:13.69Z</time></trkpt><trkpt lat="40.847145" lon="14.1182133"><ele>75.33333333333333</ele><time>2026-04-09T13:29:15.689Z</time></trkpt><trkpt lat="40.8470817" lon="14.1182017"><ele>75.5</ele><time>2026-04-09T13:29:16.687Z</time></trkpt><trkpt lat="40.8469567" lon="14.1181733"><ele>75.66666666666666</ele><time>2026-04-09T13:29:18.687Z</time></trkpt><trkpt lat="40.8468933" lon="14.11816"><ele>75.83333333333333</ele><time>2026-04-09T13:29:19.688Z</time></trkpt><trkpt lat="40.84683" lon="14.1181467"><ele>76.0</ele><time>2026-04-09T13:29:20.685Z</time></trkpt><trkpt lat="40.846765" lon="14.1181317"><ele>76.0</ele><time>2026-04-09T13:29:21.686Z</time></trkpt><trkpt lat="40.8467017" lon="14.11812"><ele>76.0</ele><time>2026-04-09T13:29:22.688Z</time></trkpt><trkpt lat="40.84664" lon="14.1181033"><ele>76.0</ele><time>2026-04-09T13:29:23.689Z</time></trkpt><trkpt lat="40.8465167" lon="14.1180767"><ele>76.0</ele><time>2026-04-09T13:29:25.691Z</time></trkpt><trkpt lat="40.8463917" lon="14.1180483"><ele>76.0</ele><time>2026-04-09T13:29:27.689Z</time></trkpt><trkpt lat="40.8462733" lon="14.1180183"><ele>76.0</ele><time>2026-04-09T13:29:29.69Z</time></trkpt><trkpt lat="40.84615" lon="14.118"><ele>76.0</ele><time>2026-04-09T13:29:31.69Z</time></trkpt><trkpt lat="40.846085" lon="14.1179917"><ele>76.0</ele><time>2026-04-09T13:29:32.689Z</time></trkpt><trkpt lat="40.8460217" lon="14.1179817"><ele>76.0</ele><time>2026-04-09T13:29:33.69Z</time></trkpt><trkpt lat="40.8459" lon="14.1179583"><ele>76.0</ele><time>2026-04-09T13:29:35.689Z</time></trkpt><trkpt lat="40.8458367" lon="14.1179433"><ele>76.0</ele><time>2026-04-09T13:29:36.689Z</time></trkpt><trkpt lat="40.845715" lon="14.11791"><ele>76.6</ele><time>2026-04-09T13:29:38.69Z</time></trkpt><trkpt lat="40.8456517" lon="14.1179017"><ele>77.19999999999999</ele><time>2026-04-09T13:29:39.689Z</time></trkpt><trkpt lat="40.8455333" lon="14.1178733"><ele>77.80000000000001</ele><time>2026-04-09T13:29:41.688Z</time></trkpt><trkpt lat="40.8454117" lon="14.1178483"><ele>78.4</ele><time>2026-04-09T13:29:43.689Z</time></trkpt><trkpt lat="40.8453483" lon="14.1178367"><ele>79.0</ele><time>2026-04-09T13:29:44.689Z</time></trkpt><trkpt lat="40.8452217" lon="14.11781"><ele>80.75</ele><time>2026-04-09T13:29:46.687Z</time></trkpt><trkpt lat="40.8450983" lon="14.117785"><ele>82.5</ele><time>2026-04-09T13:29:48.686Z</time></trkpt><trkpt lat="40.844975" lon="14.1177583"><ele>84.25</ele><time>2026-04-09T13:29:50.687Z</time></trkpt><trkpt lat="40.8448533" lon="14.1177333"><ele>86.0</ele><time>2026-04-09T13:29:52.685Z</time></trkpt><trkpt lat="40.844735" lon="14.11771"><ele>86.0</ele><time>2026-04-09T13:29:54.69Z</time></trkpt><trkpt lat="40.8446183" lon="14.1176867"><ele>86.0</ele><time>2026-04-09T13:29:56.686Z</time></trkpt><trkpt lat="40.8445017" lon="14.117655"><ele>86.0</ele><time>2026-04-09T13:29:58.688Z</time></trkpt><trkpt lat="40.8443867" lon="14.1176233"><ele>86.0</ele><time>2026-04-09T13:30:00.688Z</time></trkpt><trkpt lat="40.8442717" lon="14.1176017"><ele>85.0</ele><time>2026-04-09T13:30:02.686Z</time></trkpt><trkpt lat="40.8441583" lon="14.11758"><ele>84.0</ele><time>2026-04-09T13:30:04.687Z</time></trkpt><trkpt lat="40.84405" lon="14.117555"><ele>83.0</ele><time>2026-04-09T13:30:06.687Z</time></trkpt><trkpt lat="40.8439367" lon="14.11753"><ele>82.0</ele><time>2026-04-09T13:30:08.686Z</time></trkpt><trkpt lat="40.8438217" lon="14.11751"><ele>82.0</ele><time>2026-04-09T13:30:10.689Z</time></trkpt><trkpt lat="40.8437083" lon="14.1174833"><ele>82.0</ele><time>2026-04-09T13:30:12.689Z</time></trkpt><trkpt lat="40.84359" lon="14.11746"><ele>82.0</ele><time>2026-04-09T13:30:14.69Z</time></trkpt><trkpt lat="40.8434717" lon="14.11743"><ele>82.0</ele><time>2026-04-09T13:30:16.69Z</time></trkpt><trkpt lat="40.84335" lon="14.1174067"><ele>82.8</ele><time>2026-04-09T13:30:18.689Z</time></trkpt><trkpt lat="40.8432283" lon="14.1173867"><ele>83.6</ele><time>2026-04-09T13:30:20.689Z</time></trkpt><trkpt lat="40.84311" lon="14.11737"><ele>84.39999999999999</ele><time>2026-04-09T13:30:22.689Z</time></trkpt><trkpt lat="40.8429967" lon="14.1173617"><ele>85.19999999999999</ele><time>2026-04-09T13:30:24.689Z</time></trkpt><trkpt lat="40.8429117" lon="14.1173367"><ele>86.0</ele><time>2026-04-09T13:30:26.689Z</time></trkpt><trkpt lat="40.8428417" lon="14.1172867"><ele>86.0</ele><time>2026-04-09T13:30:28.687Z</time></trkpt><trkpt lat="40.8427867" lon="14.1171883"><ele>86.0</ele><time>2026-04-09T13:30:30.687Z</time></trkpt><trkpt lat="40.8427767" lon="14.1170633"><ele>86.0</ele><time>2026-04-09T13:30:32.686Z</time></trkpt><trkpt lat="40.8427967" lon="14.1169267"><ele>86.0</ele><time>2026-04-09T13:30:34.689Z</time></trkpt><trkpt lat="40.8427983" lon="14.1167867"><ele>86.0</ele><time>2026-04-09T13:30:36.686Z</time></trkpt><trkpt lat="40.84276" lon="14.116655"><ele>86.0</ele><time>2026-04-09T13:30:38.689Z</time></trkpt><trkpt lat="40.8427" lon="14.1165333"><ele>86.0</ele><time>2026-04-09T13:30:40.688Z</time></trkpt><trkpt lat="40.8426233" lon="14.11641"><ele>86.0</ele><time>2026-04-09T13:30:42.685Z</time></trkpt><trkpt lat="40.84258" lon="14.1163467"><ele>86.0</ele><time>2026-04-09T13:30:43.69Z</time></trkpt><trkpt lat="40.8424967" lon="14.1162283"><ele>86.0</ele><time>2026-04-09T13:30:45.689Z</time></trkpt><trkpt lat="40.8424" lon="14.1161383"><ele>86.0</ele><time>2026-04-09T13:30:47.687Z</time></trkpt><trkpt lat="40.8422867" lon="14.1160633"><ele>86.0</ele><time>2026-04-09T13:30:49.691Z</time></trkpt><trkpt lat="40.8421733" lon="14.1159867"><ele>86.0</ele><time>2026-04-09T13:30:51.69Z</time></trkpt><trkpt lat="40.8421133" lon="14.11595"><ele>86.0</ele><time>2026-04-09T13:30:52.689Z</time></trkpt><trkpt lat="40.84205" lon="14.1159117"><ele>86.0</ele><time>2026-04-09T13:30:53.689Z</time></trkpt><trkpt lat="40.8419867" lon="14.115875"><ele>86.00000000000001</ele><time>2026-04-09T13:30:54.688Z</time></trkpt><trkpt lat="40.84192" lon="14.1158367"><ele>86.0</ele><time>2026-04-09T13:30:55.689Z</time></trkpt><trkpt lat="40.841855" lon="14.1158017"><ele>86.0</ele><time>2026-04-09T13:30:56.689Z</time></trkpt><trkpt lat="40.8417883" lon="14.1157683"><ele>86.0</ele><time>2026-04-09T13:30:57.685Z</time></trkpt><trkpt lat="40.8417167" lon="14.115735"><ele>86.0</ele><time>2026-04-09T13:30:58.687Z</time></trkpt><trkpt lat="40.8416467" lon="14.1157"><ele>86.00000000000001</ele><time>2026-04-09T13:30:59.687Z</time></trkpt><trkpt lat="40.8415767" lon="14.1156617"><ele>86.0</ele><time>2026-04-09T13:31:00.688Z</time></trkpt><trkpt lat="40.8415083" lon="14.115625"><ele>86.00000000000001</ele><time>2026-04-09T13:31:01.686Z</time></trkpt><trkpt lat="40.84144" lon="14.115585"><ele>86.0</ele><time>2026-04-09T13:31:02.687Z</time></trkpt><trkpt lat="40.8413733" lon="14.1155417"><ele>86.0</ele><time>2026-04-09T13:31:03.687Z</time></trkpt><trkpt lat="40.8413083" lon="14.1154967"><ele>86.0</ele><time>2026-04-09T13:31:04.687Z</time></trkpt><trkpt lat="40.8412433" lon="14.11545"><ele>86.0</ele><time>2026-04-09T13:31:05.687Z</time></trkpt><trkpt lat="40.8411817" lon="14.115405"><ele>86.00000000000001</ele><time>2026-04-09T13:31:06.687Z</time></trkpt><trkpt lat="40.8411183" lon="14.11536"><ele>86.0</ele><time>2026-04-09T13:31:07.689Z</time></trkpt><trkpt lat="40.841055" lon="14.11532"><ele>86.0</ele><time>2026-04-09T13:31:08.688Z</time></trkpt><trkpt lat="40.84099" lon="14.11528"><ele>86.0</ele><time>2026-04-09T13:31:09.69Z</time></trkpt><trkpt lat="40.840925" lon="14.1152367"><ele>86.0</ele><time>2026-04-09T13:31:10.689Z</time></trkpt><trkpt lat="40.8408617" lon="14.1151833"><ele>86.0</ele><time>2026-04-09T13:31:11.689Z</time></trkpt><trkpt lat="40.8407967" lon="14.1151217"><ele>86.0</ele><time>2026-04-09T13:31:12.688Z</time></trkpt><trkpt lat="40.8407333" lon="14.115055"><ele>86.0</ele><time>2026-04-09T13:31:13.689Z</time></trkpt><trkpt lat="40.8406733" lon="14.1149783"><ele>84.0</ele><time>2026-04-09T13:31:14.689Z</time></trkpt><trkpt lat="40.8406167" lon="14.1148867"><ele>82.0</ele><time>2026-04-09T13:31:15.689Z</time></trkpt><trkpt lat="40.840565" lon="14.114785"><ele>80.0</ele><time>2026-04-09T13:31:16.688Z</time></trkpt><trkpt lat="40.840515" lon="14.11467"><ele>78.0</ele><time>2026-04-09T13:31:17.688Z</time></trkpt><trkpt lat="40.8404683" lon="14.1145467"><ele>76.0</ele><time>2026-04-09T13:31:18.688Z</time></trkpt><trkpt lat="40.8404267" lon="14.1144167"><ele>76.0</ele><time>2026-04-09T13:31:19.689Z</time></trkpt><trkpt lat="40.8403867" lon="14.11428"><ele>76.0</ele><time>2026-04-09T13:31:20.689Z</time></trkpt><trkpt lat="40.8403467" lon="14.11414"><ele>76.0</ele><time>2026-04-09T13:31:21.689Z</time></trkpt><trkpt lat="40.8403067" lon="14.114005"><ele>76.0</ele><time>2026-04-09T13:31:22.688Z</time></trkpt><trkpt lat="40.8402633" lon="14.1138767"><ele>76.0</ele><time>2026-04-09T13:31:23.689Z</time></trkpt><trkpt lat="40.8402167" lon="14.11375"><ele>78.19999999999999</ele><time>2026-04-09T13:31:24.688Z</time></trkpt><trkpt lat="40.8401817" lon="14.113625"><ele>80.39999999999999</ele><time>2026-04-09T13:31:25.687Z</time></trkpt><trkpt lat="40.8401633" lon="14.1135033"><ele>82.6</ele><time>2026-04-09T13:31:26.688Z</time></trkpt><trkpt lat="40.84016" lon="14.1133783"><ele>84.8</ele><time>2026-04-09T13:31:27.689Z</time></trkpt><trkpt lat="40.8401583" lon="14.1132483"><ele>87.0</ele><time>2026-04-09T13:31:28.689Z</time></trkpt><trkpt lat="40.840155" lon="14.1131267"><ele>88.16666666666667</ele><time>2026-04-09T13:31:29.688Z</time></trkpt><trkpt lat="40.840145" lon="14.1130067"><ele>89.33333333333333</ele><time>2026-04-09T13:31:30.686Z</time></trkpt><trkpt lat="40.840135" lon="14.1128883"><ele>90.5</ele><time>2026-04-09T13:31:31.689Z</time></trkpt><trkpt lat="40.8401167" lon="14.11278"><ele>91.66666666666666</ele><time>2026-04-09T13:31:32.689Z</time></trkpt><trkpt lat="40.8400933" lon="14.1126767"><ele>92.83333333333333</ele><time>2026-04-09T13:31:33.689Z</time></trkpt><trkpt lat="40.8400583" lon="14.1125783"><ele>94.0</ele><time>2026-04-09T13:31:34.689Z</time></trkpt><trkpt lat="40.8400133" lon="14.112485"><ele>90.2</ele><time>2026-04-09T13:31:35.689Z</time></trkpt><trkpt lat="40.8399617" lon="14.1123917"><ele>86.4</ele><time>2026-04-09T13:31:36.689Z</time></trkpt><trkpt lat="40.8399" lon="14.1122967"><ele>82.6</ele><time>2026-04-09T13:31:37.69Z</time></trkpt><trkpt lat="40.8398417" lon="14.1121983"><ele>78.8</ele><time>2026-04-09T13:31:38.687Z</time></trkpt><trkpt lat="40.8397867" lon="14.1121"><ele>75.0</ele><time>2026-04-09T13:31:39.689Z</time></trkpt><trkpt lat="40.8397317" lon="14.1120117"><ele>75.0</ele><time>2026-04-09T13:31:40.686Z</time></trkpt><trkpt lat="40.8396767" lon="14.111925"><ele>75.0</ele><time>2026-04-09T13:31:41.687Z</time></trkpt><trkpt lat="40.8396233" lon="14.111835"><ele>75.0</ele><time>2026-04-09T13:31:42.687Z</time></trkpt><trkpt lat="40.83955" lon="14.1117567"><ele>75.0</ele><time>2026-04-09T13:31:43.687Z</time></trkpt><trkpt lat="40.8394667" lon="14.1117067"><ele>75.0</ele><time>2026-04-09T13:31:44.687Z</time></trkpt><trkpt lat="40.8393833" lon="14.111675"><ele>75.0</ele><time>2026-04-09T13:31:45.688Z</time></trkpt><trkpt lat="40.8392967" lon="14.1116517"><ele>73.16666666666667</ele><time>2026-04-09T13:31:46.687Z</time></trkpt><trkpt lat="40.83922" lon="14.111615"><ele>71.33333333333333</ele><time>2026-04-09T13:31:47.69Z</time></trkpt><trkpt lat="40.839155" lon="14.1115533"><ele>69.5</ele><time>2026-04-09T13:31:48.689Z</time></trkpt><trkpt lat="40.8391" lon="14.1114767"><ele>67.66666666666666</ele><time>2026-04-09T13:31:49.686Z</time></trkpt><trkpt lat="40.8390617" lon="14.1113867"><ele>65.83333333333333</ele><time>2026-04-09T13:31:50.688Z</time></trkpt><trkpt lat="40.8390383" lon="14.11129"><ele>64.0</ele><time>2026-04-09T13:31:51.688Z</time></trkpt><trkpt lat="40.8390133" lon="14.1111883"><ele>63.99999999999999</ele><time>2026-04-09T13:31:52.689Z</time></trkpt><trkpt lat="40.8389883" lon="14.1110867"><ele>64.0</ele><time>2026-04-09T13:31:53.688Z</time></trkpt><trkpt lat="40.8389733" lon="14.110975"><ele>64.0</ele><time>2026-04-09T13:31:54.688Z</time></trkpt><trkpt lat="40.8389617" lon="14.1108617"><ele>64.0</ele><time>2026-04-09T13:31:55.689Z</time></trkpt><trkpt lat="40.8389533" lon="14.1107433"><ele>63.99999999999999</ele><time>2026-04-09T13:31:56.689Z</time></trkpt><trkpt lat="40.8389483" lon="14.110625"><ele>64.0</ele><time>2026-04-09T13:31:57.686Z</time></trkpt><trkpt lat="40.83894" lon="14.1105117"><ele>63.33333333333333</ele><time>2026-04-09T13:31:58.687Z</time></trkpt><trkpt lat="40.83893" lon="14.1103983"><ele>62.666666666666664</ele><time>2026-04-09T13:31:59.686Z</time></trkpt><trkpt lat="40.83892" lon="14.1102817"><ele>62.0</ele><time>2026-04-09T13:32:00.687Z</time></trkpt><trkpt lat="40.8389067" lon="14.1101683"><ele>61.33333333333333</ele><time>2026-04-09T13:32:01.688Z</time></trkpt><trkpt lat="40.8388883" lon="14.1100567"><ele>60.666666666666664</ele><time>2026-04-09T13:32:02.686Z</time></trkpt><trkpt lat="40.83886" lon="14.1099467"><ele>60.0</ele><time>2026-04-09T13:32:03.685Z</time></trkpt><trkpt lat="40.8388233" lon="14.1098433"><ele>59.666666666666664</ele><time>2026-04-09T13:32:04.687Z</time></trkpt><trkpt lat="40.838775" lon="14.1097517"><ele>59.33333333333333</ele><time>2026-04-09T13:32:05.687Z</time></trkpt><trkpt lat="40.838715" lon="14.1096733"><ele>59.0</ele><time>2026-04-09T13:32:06.689Z</time></trkpt><trkpt lat="40.8386433" lon="14.1096083"><ele>58.666666666666664</ele><time>2026-04-09T13:32:07.69Z</time></trkpt><trkpt lat="40.838565" lon="14.1095567"><ele>58.33333333333333</ele><time>2026-04-09T13:32:08.689Z</time></trkpt><trkpt lat="40.838485" lon="14.1095133"><ele>58.0</ele><time>2026-04-09T13:32:09.689Z</time></trkpt><trkpt lat="40.83841" lon="14.1094667"><ele>58.00000000000001</ele><time>2026-04-09T13:32:10.69Z</time></trkpt><trkpt lat="40.8383467" lon="14.1094167"><ele>58.0</ele><time>2026-04-09T13:32:11.689Z</time></trkpt><trkpt lat="40.8382883" lon="14.10936"><ele>58.00000000000001</ele><time>2026-04-09T13:32:12.689Z</time></trkpt><trkpt lat="40.8382417" lon="14.1092867"><ele>58.00000000000001</ele><time>2026-04-09T13:32:13.689Z</time></trkpt><trkpt lat="40.838215" lon="14.1091967"><ele>58.0</ele><time>2026-04-09T13:32:14.689Z</time></trkpt><trkpt lat="40.8382117" lon="14.1090983"><ele>58.00000000000001</ele><time>2026-04-09T13:32:15.689Z</time></trkpt><trkpt lat="40.838215" lon="14.108995"><ele>58.00000000000001</ele><time>2026-04-09T13:32:16.689Z</time></trkpt><trkpt lat="40.8382217" lon="14.1088883"><ele>57.83333333333333</ele><time>2026-04-09T13:32:17.689Z</time></trkpt><trkpt lat="40.8382283" lon="14.1087833"><ele>57.666666666666664</ele><time>2026-04-09T13:32:18.689Z</time></trkpt><trkpt lat="40.8382417" lon="14.1086733"><ele>57.5</ele><time>2026-04-09T13:32:19.689Z</time></trkpt><trkpt lat="40.8382617" lon="14.1085617"><ele>57.33333333333333</ele><time>2026-04-09T13:32:20.689Z</time></trkpt><trkpt lat="40.8382883" lon="14.108455"><ele>57.166666666666664</ele><time>2026-04-09T13:32:21.689Z</time></trkpt><trkpt lat="40.8383183" lon="14.1083533"><ele>57.0</ele><time>2026-04-09T13:32:22.688Z</time></trkpt><trkpt lat="40.8383517" lon="14.1082533"><ele>56.666666666666664</ele><time>2026-04-09T13:32:23.688Z</time></trkpt><trkpt lat="40.8383933" lon="14.1081567"><ele>56.33333333333333</ele><time>2026-04-09T13:32:24.689Z</time></trkpt><trkpt lat="40.8384383" lon="14.1080633"><ele>56.0</ele><time>2026-04-09T13:32:25.688Z</time></trkpt><trkpt lat="40.8384883" lon="14.1079717"><ele>55.666666666666664</ele><time>2026-04-09T13:32:26.689Z</time></trkpt><trkpt lat="40.838545" lon="14.1078833"><ele>55.33333333333333</ele><time>2026-04-09T13:32:27.689Z</time></trkpt><trkpt lat="40.8386017" lon="14.107795"><ele>55.0</ele><time>2026-04-09T13:32:28.689Z</time></trkpt><trkpt lat="40.8386567" lon="14.1077017"><ele>54.83333333333333</ele><time>2026-04-09T13:32:29.689Z</time></trkpt><trkpt lat="40.83871" lon="14.10761"><ele>54.666666666666664</ele><time>2026-04-09T13:32:30.689Z</time></trkpt><trkpt lat="40.8387617" lon="14.10752"><ele>54.5</ele><time>2026-04-09T13:32:31.69Z</time></trkpt><trkpt lat="40.83881" lon="14.1074283"><ele>54.33333333333333</ele><time>2026-04-09T13:32:32.688Z</time></trkpt><trkpt lat="40.838855" lon="14.1073283"><ele>54.166666666666664</ele><time>2026-04-09T13:32:33.688Z</time></trkpt><trkpt lat="40.8388917" lon="14.107225"><ele>54.0</ele><time>2026-04-09T13:32:34.688Z</time></trkpt><trkpt lat="40.8389183" lon="14.1071183"><ele>54.0</ele><time>2026-04-09T13:32:35.686Z</time></trkpt><trkpt lat="40.83893" lon="14.10701"><ele>54.0</ele><time>2026-04-09T13:32:36.689Z</time></trkpt><trkpt lat="40.83893" lon="14.106905"><ele>54.0</ele><time>2026-04-09T13:32:37.687Z</time></trkpt><trkpt lat="40.8389217" lon="14.1068033"><ele>54.0</ele><time>2026-04-09T13:32:38.687Z</time></trkpt><trkpt lat="40.8389033" lon="14.1067017"><ele>54.0</ele><time>2026-04-09T13:32:39.688Z</time></trkpt><trkpt lat="40.838875" lon="14.1066017"><ele>54.0</ele><time>2026-04-09T13:32:40.689Z</time></trkpt><trkpt lat="40.838845" lon="14.1065067"><ele>53.333333333333336</ele><time>2026-04-09T13:32:41.688Z</time></trkpt><trkpt lat="40.83881" lon="14.1064133"><ele>52.66666666666667</ele><time>2026-04-09T13:32:42.687Z</time></trkpt><trkpt lat="40.8387683" lon="14.10632"><ele>52.0</ele><time>2026-04-09T13:32:43.688Z</time></trkpt><trkpt lat="40.8387267" lon="14.106225"><ele>51.333333333333336</ele><time>2026-04-09T13:32:44.688Z</time></trkpt><trkpt lat="40.8386817" lon="14.1061317"><ele>50.66666666666667</ele><time>2026-04-09T13:32:45.688Z</time></trkpt><trkpt lat="40.8386367" lon="14.106035"><ele>50.0</ele><time>2026-04-09T13:32:46.69Z</time></trkpt><trkpt lat="40.8385933" lon="14.1059367"><ele>50.00000000000001</ele><time>2026-04-09T13:32:47.689Z</time></trkpt><trkpt lat="40.8385517" lon="14.1058417"><ele>50.0</ele><time>2026-04-09T13:32:48.689Z</time></trkpt><trkpt lat="40.8385117" lon="14.1057483"><ele>50.0</ele><time>2026-04-09T13:32:49.69Z</time></trkpt><trkpt lat="40.8384717" lon="14.1056533"><ele>50.0</ele><time>2026-04-09T13:32:50.69Z</time></trkpt><trkpt lat="40.8384317" lon="14.1055583"><ele>50.00000000000001</ele><time>2026-04-09T13:32:51.689Z</time></trkpt><trkpt lat="40.8383883" lon="14.1054617"><ele>50.0</ele><time>2026-04-09T13:32:52.688Z</time></trkpt><trkpt lat="40.838345" lon="14.1053683"><ele>49.50000000000001</ele><time>2026-04-09T13:32:53.686Z</time></trkpt><trkpt lat="40.8383033" lon="14.1052717"><ele>49.0</ele><time>2026-04-09T13:32:54.685Z</time></trkpt><trkpt lat="40.8382533" lon="14.105175"><ele>48.5</ele><time>2026-04-09T13:32:55.689Z</time></trkpt><trkpt lat="40.8382" lon="14.105085"><ele>48.0</ele><time>2026-04-09T13:32:56.688Z</time></trkpt><trkpt lat="40.8381467" lon="14.10499"><ele>47.5</ele><time>2026-04-09T13:32:57.687Z</time></trkpt><trkpt lat="40.83809" lon="14.10489"><ele>47.0</ele><time>2026-04-09T13:32:58.689Z</time></trkpt><trkpt lat="40.8380317" lon="14.1047917"><ele>45.8</ele><time>2026-04-09T13:32:59.689Z</time></trkpt><trkpt lat="40.83797" lon="14.1046883"><ele>44.6</ele><time>2026-04-09T13:33:00.689Z</time></trkpt><trkpt lat="40.8379033" lon="14.104585"><ele>43.4</ele><time>2026-04-09T13:33:01.687Z</time></trkpt><trkpt lat="40.8378333" lon="14.10448"><ele>42.199999999999996</ele><time>2026-04-09T13:33:02.686Z</time></trkpt><trkpt lat="40.8377633" lon="14.104375"><ele>41.0</ele><time>2026-04-09T13:33:03.687Z</time></trkpt><trkpt lat="40.837695" lon="14.1042683"><ele>41.0</ele><time>2026-04-09T13:33:04.686Z</time></trkpt><trkpt lat="40.8376267" lon="14.1041567"><ele>41.0</ele><time>2026-04-09T13:33:05.69Z</time></trkpt><trkpt lat="40.8375567" lon="14.1040367"><ele>41.0</ele><time>2026-04-09T13:33:06.688Z</time></trkpt><trkpt lat="40.837485" lon="14.10392"><ele>41.0</ele><time>2026-04-09T13:33:07.689Z</time></trkpt><trkpt lat="40.8374117" lon="14.1038"><ele>41.0</ele><time>2026-04-09T13:33:08.688Z</time></trkpt><trkpt lat="40.8373417" lon="14.10368"><ele>41.0</ele><time>2026-04-09T13:33:09.686Z</time></trkpt><trkpt lat="40.83727" lon="14.1035633"><ele>41.0</ele><time>2026-04-09T13:33:10.689Z</time></trkpt><trkpt lat="40.8372033" lon="14.1034467"><ele>41.0</ele><time>2026-04-09T13:33:11.689Z</time></trkpt><trkpt lat="40.83714" lon="14.1033383"><ele>41.0</ele><time>2026-04-09T13:33:12.689Z</time></trkpt><trkpt lat="40.8370833" lon="14.1032283"><ele>40.4</ele><time>2026-04-09T13:33:13.689Z</time></trkpt><trkpt lat="40.8370367" lon="14.103115"><ele>39.8</ele><time>2026-04-09T13:33:14.689Z</time></trkpt><trkpt lat="40.8370033" lon="14.1029967"><ele>39.199999999999996</ele><time>2026-04-09T13:33:15.689Z</time></trkpt><trkpt lat="40.8369783" lon="14.1028817"><ele>38.599999999999994</ele><time>2026-04-09T13:33:16.69Z</time></trkpt><trkpt lat="40.836955" lon="14.10276"><ele>38.0</ele><time>2026-04-09T13:33:17.685Z</time></trkpt><trkpt lat="40.8369517" lon="14.1026133"><ele>38.0</ele><time>2026-04-09T13:33:18.687Z</time></trkpt><trkpt lat="40.8369567" lon="14.102485"><ele>38.0</ele><time>2026-04-09T13:33:19.689Z</time></trkpt><trkpt lat="40.83698" lon="14.1023533"><ele>38.0</ele><time>2026-04-09T13:33:20.689Z</time></trkpt><trkpt lat="40.8370167" lon="14.1022283"><ele>38.0</ele><time>2026-04-09T13:33:21.689Z</time></trkpt><trkpt lat="40.8370683" lon="14.1021083"><ele>38.0</ele><time>2026-04-09T13:33:22.69Z</time></trkpt><trkpt lat="40.83713" lon="14.1019967"><ele>37.6</ele><time>2026-04-09T13:33:23.689Z</time></trkpt><trkpt lat="40.837195" lon="14.1018883"><ele>37.199999999999996</ele><time>2026-04-09T13:33:24.689Z</time></trkpt><trkpt lat="40.8372617" lon="14.1017833"><ele>36.8</ele><time>2026-04-09T13:33:25.689Z</time></trkpt><trkpt lat="40.8373283" lon="14.1016767"><ele>36.4</ele><time>2026-04-09T13:33:26.689Z</time></trkpt><trkpt lat="40.8373933" lon="14.10157"><ele>36.0</ele><time>2026-04-09T13:33:27.687Z</time></trkpt><trkpt lat="40.83746" lon="14.1014617"><ele>35.2</ele><time>2026-04-09T13:33:28.688Z</time></trkpt><trkpt lat="40.8375167" lon="14.1013417"><ele>34.400000000000006</ele><time>2026-04-09T13:33:29.689Z</time></trkpt><trkpt lat="40.8375683" lon="14.1012217"><ele>33.6</ele><time>2026-04-09T13:33:30.689Z</time></trkpt><trkpt lat="40.8376133" lon="14.1010967"><ele>32.800000000000004</ele><time>2026-04-09T13:33:31.689Z</time></trkpt><trkpt lat="40.8376483" lon="14.100965"><ele>32.0</ele><time>2026-04-09T13:33:32.689Z</time></trkpt><trkpt lat="40.83767" lon="14.100835"><ele>32.2</ele><time>2026-04-09T13:33:33.688Z</time></trkpt><trkpt lat="40.83768" lon="14.1007"><ele>32.400000000000006</ele><time>2026-04-09T13:33:34.687Z</time></trkpt><trkpt lat="40.8376833" lon="14.1005667"><ele>32.599999999999994</ele><time>2026-04-09T13:33:35.689Z</time></trkpt><trkpt lat="40.8376717" lon="14.100435"><ele>32.8</ele><time>2026-04-09T13:33:36.688Z</time></trkpt><trkpt lat="40.8376467" lon="14.1003033"><ele>33.0</ele><time>2026-04-09T13:33:37.687Z</time></trkpt><trkpt lat="40.8376183" lon="14.1001783"><ele>32.4</ele><time>2026-04-09T13:33:38.685Z</time></trkpt><trkpt lat="40.8375867" lon="14.1000517"><ele>31.799999999999997</ele><time>2026-04-09T13:33:39.686Z</time></trkpt><trkpt lat="40.8375517" lon="14.0999317"><ele>31.2</ele><time>2026-04-09T13:33:40.685Z</time></trkpt><trkpt lat="40.8375183" lon="14.0998117"><ele>30.6</ele><time>2026-04-09T13:33:41.689Z</time></trkpt><trkpt lat="40.8374833" lon="14.099695"><ele>30.0</ele><time>2026-04-09T13:33:42.687Z</time></trkpt><trkpt lat="40.837445" lon="14.0995767"><ele>29.4</ele><time>2026-04-09T13:33:43.688Z</time></trkpt><trkpt lat="40.8374083" lon="14.09946"><ele>28.8</ele><time>2026-04-09T13:33:44.689Z</time></trkpt><trkpt lat="40.8373717" lon="14.0993433"><ele>28.200000000000003</ele><time>2026-04-09T13:33:45.689Z</time></trkpt><trkpt lat="40.8373367" lon="14.0992283"><ele>27.6</ele><time>2026-04-09T13:33:46.687Z</time></trkpt><trkpt lat="40.8373" lon="14.0991167"><ele>27.0</ele><time>2026-04-09T13:33:47.689Z</time></trkpt><trkpt lat="40.8372633" lon="14.0990083"><ele>27.0</ele><time>2026-04-09T13:33:48.69Z</time></trkpt><trkpt lat="40.8372267" lon="14.0989"><ele>27.0</ele><time>2026-04-09T13:33:49.688Z</time></trkpt><trkpt lat="40.83719" lon="14.0987967"><ele>27.0</ele><time>2026-04-09T13:33:50.689Z</time></trkpt><trkpt lat="40.8371583" lon="14.098695"><ele>27.0</ele><time>2026-04-09T13:33:51.688Z</time></trkpt><trkpt lat="40.8371283" lon="14.098595"><ele>27.0</ele><time>2026-04-09T13:33:52.689Z</time></trkpt><trkpt lat="40.8371017" lon="14.0984933"><ele>27.0</ele><time>2026-04-09T13:33:53.689Z</time></trkpt><trkpt lat="40.8370817" lon="14.09839"><ele>27.0</ele><time>2026-04-09T13:33:54.689Z</time></trkpt><trkpt lat="40.8370733" lon="14.098285"><ele>27.0</ele><time>2026-04-09T13:33:55.687Z</time></trkpt><trkpt lat="40.837075" lon="14.0981833"><ele>27.0</ele><time>2026-04-09T13:33:56.686Z</time></trkpt><trkpt lat="40.8370817" lon="14.0980867"><ele>27.0</ele><time>2026-04-09T13:33:57.689Z</time></trkpt><trkpt lat="40.8370967" lon="14.0979933"><ele>27.0</ele><time>2026-04-09T13:33:58.689Z</time></trkpt><trkpt lat="40.8371233" lon="14.0979083"><ele>27.0</ele><time>2026-04-09T13:33:59.689Z</time></trkpt><trkpt lat="40.8371517" lon="14.0978267"><ele>27.0</ele><time>2026-04-09T13:34:00.688Z</time></trkpt><trkpt lat="40.8371783" lon="14.0977483"><ele>27.0</ele><time>2026-04-09T13:34:01.689Z</time></trkpt><trkpt lat="40.8372283" lon="14.0976083"><ele>27.0</ele><time>2026-04-09T13:34:03.687Z</time></trkpt><trkpt lat="40.8372917" lon="14.0974883"><ele>27.0</ele><time>2026-04-09T13:34:05.685Z</time></trkpt><trkpt lat="40.83737" lon="14.09736"><ele>27.0</ele><time>2026-04-09T13:34:07.687Z</time></trkpt><trkpt lat="40.8374483" lon="14.09725"><ele>27.0</ele><time>2026-04-09T13:34:09.734Z</time></trkpt><trkpt lat="40.8375133" lon="14.0971583"><ele>27.000000000000004</ele><time>2026-04-09T13:34:11.684Z</time></trkpt><trkpt lat="40.8375683" lon="14.0970633"><ele>27.000000000000004</ele><time>2026-04-09T13:34:13.685Z</time></trkpt><trkpt lat="40.837625" lon="14.0969733"><ele>27.0</ele><time>2026-04-09T13:34:15.685Z</time></trkpt><trkpt lat="40.837665" lon="14.0968933"><ele>27.0</ele><time>2026-04-09T13:34:17.685Z</time></trkpt><trkpt lat="40.8377333" lon="14.0967767"><ele>27.166666666666668</ele><time>2026-04-09T13:34:20.691Z</time></trkpt><trkpt lat="40.8377767" lon="14.0967"><ele>27.333333333333336</ele><time>2026-04-09T13:34:22.684Z</time></trkpt><trkpt lat="40.837835" lon="14.0966233"><ele>27.5</ele><time>2026-04-09T13:34:24.686Z</time></trkpt><trkpt lat="40.8378917" lon="14.09652"><ele>27.666666666666668</ele><time>2026-04-09T13:34:26.685Z</time></trkpt><trkpt lat="40.83795" lon="14.0964267"><ele>27.833333333333336</ele><time>2026-04-09T13:34:28.693Z</time></trkpt><trkpt lat="40.8379967" lon="14.0963283"><ele>28.0</ele><time>2026-04-09T13:34:30.686Z</time></trkpt><trkpt lat="40.8380417" lon="14.0962517"><ele>28.000000000000004</ele><time>2026-04-09T13:34:32.686Z</time></trkpt><trkpt lat="40.8380883" lon="14.0961717"><ele>28.0</ele><time>2026-04-09T13:34:34.69Z</time></trkpt><trkpt lat="40.8381383" lon="14.0960833"><ele>28.0</ele><time>2026-04-09T13:34:36.684Z</time></trkpt><trkpt lat="40.8381867" lon="14.0959967"><ele>28.0</ele><time>2026-04-09T13:34:38.685Z</time></trkpt><trkpt lat="40.8382333" lon="14.0959083"><ele>28.000000000000004</ele><time>2026-04-09T13:34:40.684Z</time></trkpt><trkpt lat="40.8382783" lon="14.0958"><ele>28.0</ele><time>2026-04-09T13:34:42.684Z</time></trkpt><trkpt lat="40.83833" lon="14.0956967"><ele>28.333333333333336</ele><time>2026-04-09T13:34:44.684Z</time></trkpt><trkpt lat="40.838385" lon="14.0956167"><ele>28.666666666666668</ele><time>2026-04-09T13:34:46.687Z</time></trkpt><trkpt lat="40.8384267" lon="14.0955383"><ele>29.0</ele><time>2026-04-09T13:34:48.684Z</time></trkpt><trkpt lat="40.8384733" lon="14.0954567"><ele>29.333333333333336</ele><time>2026-04-09T13:34:50.685Z</time></trkpt><trkpt lat="40.83853" lon="14.0953583"><ele>29.666666666666668</ele><time>2026-04-09T13:34:52.685Z</time></trkpt><trkpt lat="40.8385983" lon="14.09525"><ele>30.0</ele><time>2026-04-09T13:34:54.684Z</time></trkpt><trkpt lat="40.8386667" lon="14.0951383"><ele>30.0</ele><time>2026-04-09T13:34:56.684Z</time></trkpt><trkpt lat="40.8387383" lon="14.0950217"><ele>30.0</ele><time>2026-04-09T13:34:58.685Z</time></trkpt><trkpt lat="40.8388083" lon="14.09489"><ele>30.0</ele><time>2026-04-09T13:35:00.685Z</time></trkpt><trkpt lat="40.83884" lon="14.0948133"><ele>30.0</ele><time>2026-04-09T13:35:01.684Z</time></trkpt><trkpt lat="40.8388717" lon="14.0947333"><ele>30.0</ele><time>2026-04-09T13:35:02.685Z</time></trkpt><trkpt lat="40.8389083" lon="14.09466"><ele>30.0</ele><time>2026-04-09T13:35:03.685Z</time></trkpt><trkpt lat="40.8389483" lon="14.09458"><ele>30.333333333333332</ele><time>2026-04-09T13:35:04.685Z</time></trkpt><trkpt lat="40.83899" lon="14.0945017"><ele>30.666666666666664</ele><time>2026-04-09T13:35:05.686Z</time></trkpt><trkpt lat="40.8390333" lon="14.0944167"><ele>31.0</ele><time>2026-04-09T13:35:06.687Z</time></trkpt><trkpt lat="40.8390767" lon="14.0943283"><ele>31.333333333333332</ele><time>2026-04-09T13:35:07.685Z</time></trkpt><trkpt lat="40.8391183" lon="14.0942383"><ele>31.666666666666664</ele><time>2026-04-09T13:35:08.684Z</time></trkpt><trkpt lat="40.8391617" lon="14.0941567"><ele>32.0</ele><time>2026-04-09T13:35:09.684Z</time></trkpt><trkpt lat="40.8392033" lon="14.0940783"><ele>32.166666666666664</ele><time>2026-04-09T13:35:10.684Z</time></trkpt><trkpt lat="40.83925" lon="14.0940033"><ele>32.33333333333333</ele><time>2026-04-09T13:35:11.684Z</time></trkpt><trkpt lat="40.83929" lon="14.0939317"><ele>32.5</ele><time>2026-04-09T13:35:12.684Z</time></trkpt><trkpt lat="40.83933" lon="14.093855"><ele>32.666666666666664</ele><time>2026-04-09T13:35:13.684Z</time></trkpt><trkpt lat="40.8393667" lon="14.0937817"><ele>32.833333333333336</ele><time>2026-04-09T13:35:14.687Z</time></trkpt><trkpt lat="40.8394033" lon="14.09371"><ele>33.0</ele><time>2026-04-09T13:35:15.684Z</time></trkpt><trkpt lat="40.83947" lon="14.0935733"><ele>33.0</ele><time>2026-04-09T13:35:17.685Z</time></trkpt><trkpt lat="40.839495" lon="14.093495"><ele>33.0</ele><time>2026-04-09T13:35:18.685Z</time></trkpt><trkpt lat="40.8394983" lon="14.0933733"><ele>33.0</ele><time>2026-04-09T13:35:20.685Z</time></trkpt><trkpt lat="40.8394433" lon="14.09328"><ele>33.0</ele><time>2026-04-09T13:35:23.685Z</time></trkpt><trkpt lat="40.8393583" lon="14.09329"><ele>33.0</ele><time>2026-04-09T13:35:25.687Z</time></trkpt><trkpt lat="40.8392667" lon="14.0933617"><ele>33.0</ele><time>2026-04-09T13:35:27.684Z</time></trkpt><trkpt lat="40.8391617" lon="14.0934517"><ele>33.0</ele><time>2026-04-09T13:35:29.686Z</time></trkpt><trkpt lat="40.8391067" lon="14.093495"><ele>33.0</ele><time>2026-04-09T13:35:30.684Z</time></trkpt><trkpt lat="40.83905" lon="14.0935367"><ele>33.0</ele><time>2026-04-09T13:35:31.686Z</time></trkpt><trkpt lat="40.83899" lon="14.0935817"><ele>33.0</ele><time>2026-04-09T13:35:32.684Z</time></trkpt><trkpt lat="40.83893" lon="14.0936333"><ele>33.0</ele><time>2026-04-09T13:35:33.684Z</time></trkpt><trkpt lat="40.8388717" lon="14.0936883"><ele>33.0</ele><time>2026-04-09T13:35:34.685Z</time></trkpt><trkpt lat="40.8388133" lon="14.0937467"><ele>33.0</ele><time>2026-04-09T13:35:35.685Z</time></trkpt><trkpt lat="40.838755" lon="14.0938033"><ele>33.0</ele><time>2026-04-09T13:35:36.687Z</time></trkpt><trkpt lat="40.8386967" lon="14.093865"><ele>33.0</ele><time>2026-04-09T13:35:37.685Z</time></trkpt><trkpt lat="40.838635" lon="14.0939283"><ele>33.0</ele><time>2026-04-09T13:35:38.684Z</time></trkpt><trkpt lat="40.8385733" lon="14.093995"><ele>33.0</ele><time>2026-04-09T13:35:39.684Z</time></trkpt><trkpt lat="40.8385167" lon="14.0940633"><ele>33.0</ele><time>2026-04-09T13:35:40.684Z</time></trkpt><trkpt lat="40.8384667" lon="14.0941333"><ele>33.0</ele><time>2026-04-09T13:35:41.685Z</time></trkpt><trkpt lat="40.8384183" lon="14.0942083"><ele>32.6</ele><time>2026-04-09T13:35:42.684Z</time></trkpt><trkpt lat="40.8383617" lon="14.0942883"><ele>32.199999999999996</ele><time>2026-04-09T13:35:43.685Z</time></trkpt><trkpt lat="40.8382983" lon="14.0943783"><ele>31.8</ele><time>2026-04-09T13:35:44.686Z</time></trkpt><trkpt lat="40.8382383" lon="14.094465"><ele>31.4</ele><time>2026-04-09T13:35:45.684Z</time></trkpt><trkpt lat="40.8381767" lon="14.0945583"><ele>31.0</ele><time>2026-04-09T13:35:46.685Z</time></trkpt><trkpt lat="40.8381283" lon="14.0946733"><ele>31.0</ele><time>2026-04-09T13:35:47.687Z</time></trkpt><trkpt lat="40.8381217" lon="14.094815"><ele>31.0</ele><time>2026-04-09T13:35:48.691Z</time></trkpt><trkpt lat="40.8381733" lon="14.0949817"><ele>31.0</ele><time>2026-04-09T13:35:49.687Z</time></trkpt><trkpt lat="40.8382083" lon="14.09513"><ele>31.0</ele><time>2026-04-09T13:35:50.685Z</time></trkpt><trkpt lat="40.8381917" lon="14.095245"><ele>30.833333333333336</ele><time>2026-04-09T13:35:51.685Z</time></trkpt><trkpt lat="40.838165" lon="14.0953483"><ele>30.666666666666668</ele><time>2026-04-09T13:35:52.687Z</time></trkpt><trkpt lat="40.8381183" lon="14.0954317"><ele>30.5</ele><time>2026-04-09T13:35:53.686Z</time></trkpt><trkpt lat="40.838055" lon="14.0954883"><ele>30.333333333333336</ele><time>2026-04-09T13:35:54.687Z</time></trkpt><trkpt lat="40.8379867" lon="14.095535"><ele>30.166666666666668</ele><time>2026-04-09T13:35:55.686Z</time></trkpt><trkpt lat="40.8379117" lon="14.095565"><ele>30.0</ele><time>2026-04-09T13:35:56.689Z</time></trkpt><trkpt lat="40.83784" lon="14.09559"><ele>30.0</ele><time>2026-04-09T13:35:57.684Z</time></trkpt><trkpt lat="40.8377617" lon="14.0956233"><ele>30.0</ele><time>2026-04-09T13:35:58.684Z</time></trkpt><trkpt lat="40.837685" lon="14.095655"><ele>30.0</ele><time>2026-04-09T13:35:59.685Z</time></trkpt><trkpt lat="40.8376133" lon="14.095685"><ele>30.0</ele><time>2026-04-09T13:36:00.685Z</time></trkpt><trkpt lat="40.83754" lon="14.095715"><ele>30.0</ele><time>2026-04-09T13:36:01.685Z</time></trkpt><trkpt lat="40.8374667" lon="14.09574"><ele>30.0</ele><time>2026-04-09T13:36:02.684Z</time></trkpt><trkpt lat="40.8373933" lon="14.0957583"><ele>29.571428571428573</ele><time>2026-04-09T13:36:03.684Z</time></trkpt><trkpt lat="40.8373217" lon="14.09577"><ele>29.142857142857142</ele><time>2026-04-09T13:36:04.684Z</time></trkpt><trkpt lat="40.8372483" lon="14.0957817"><ele>28.714285714285715</ele><time>2026-04-09T13:36:05.685Z</time></trkpt><trkpt lat="40.83718" lon="14.0957933"><ele>28.285714285714285</ele><time>2026-04-09T13:36:06.684Z</time></trkpt><trkpt lat="40.837115" lon="14.0957983"><ele>27.857142857142854</ele><time>2026-04-09T13:36:07.685Z</time></trkpt><trkpt lat="40.8370483" lon="14.0957983"><ele>27.428571428571427</ele><time>2026-04-09T13:36:08.684Z</time></trkpt><trkpt lat="40.83698" lon="14.0957983"><ele>27.0</ele><time>2026-04-09T13:36:09.685Z</time></trkpt><trkpt lat="40.83691" lon="14.09579"><ele>27.0</ele><time>2026-04-09T13:36:10.685Z</time></trkpt><trkpt lat="40.83684" lon="14.0957767"><ele>27.0</ele><time>2026-04-09T13:36:11.685Z</time></trkpt><trkpt lat="40.8367717" lon="14.0957533"><ele>27.0</ele><time>2026-04-09T13:36:12.685Z</time></trkpt><trkpt lat="40.8367017" lon="14.095725"><ele>27.0</ele><time>2026-04-09T13:36:13.685Z</time></trkpt><trkpt lat="40.8366317" lon="14.0957117"><ele>27.0</ele><time>2026-04-09T13:36:14.684Z</time></trkpt><trkpt lat="40.8365633" lon="14.0956933"><ele>27.0</ele><time>2026-04-09T13:36:15.684Z</time></trkpt><trkpt lat="40.836495" lon="14.0956733"><ele>27.0</ele><time>2026-04-09T13:36:16.684Z</time></trkpt><trkpt lat="40.8364283" lon="14.095655"><ele>27.0</ele><time>2026-04-09T13:36:17.687Z</time></trkpt><trkpt lat="40.83636" lon="14.0956317"><ele>27.0</ele><time>2026-04-09T13:36:18.684Z</time></trkpt><trkpt lat="40.8362917" lon="14.0956183"><ele>27.0</ele><time>2026-04-09T13:36:19.684Z</time></trkpt><trkpt lat="40.8362233" lon="14.0956017"><ele>27.0</ele><time>2026-04-09T13:36:20.685Z</time></trkpt><trkpt lat="40.8361533" lon="14.0955867"><ele>27.0</ele><time>2026-04-09T13:36:21.685Z</time></trkpt><trkpt lat="40.8360817" lon="14.0955733"><ele>27.0</ele><time>2026-04-09T13:36:22.685Z</time></trkpt><trkpt lat="40.836005" lon="14.0955583"><ele>27.0</ele><time>2026-04-09T13:36:23.685Z</time></trkpt><trkpt lat="40.8359267" lon="14.0955483"><ele>27.0</ele><time>2026-04-09T13:36:24.684Z</time></trkpt><trkpt lat="40.8358467" lon="14.0955383"><ele>27.0</ele><time>2026-04-09T13:36:25.687Z</time></trkpt><trkpt lat="40.83577" lon="14.0955333"><ele>27.0</ele><time>2026-04-09T13:36:26.684Z</time></trkpt><trkpt lat="40.8356933" lon="14.0955383"><ele>27.0</ele><time>2026-04-09T13:36:27.686Z</time></trkpt><trkpt lat="40.8356183" lon="14.0955583"><ele>27.0</ele><time>2026-04-09T13:36:28.685Z</time></trkpt><trkpt lat="40.8355433" lon="14.0955833"><ele>27.0</ele><time>2026-04-09T13:36:29.685Z</time></trkpt><trkpt lat="40.8354683" lon="14.095605"><ele>27.0</ele><time>2026-04-09T13:36:30.69Z</time></trkpt><trkpt lat="40.8353983" lon="14.0956333"><ele>27.0</ele><time>2026-04-09T13:36:31.685Z</time></trkpt><trkpt lat="40.8353283" lon="14.0956683"><ele>27.0</ele><time>2026-04-09T13:36:32.688Z</time></trkpt><trkpt lat="40.8352583" lon="14.09571"><ele>27.0</ele><time>2026-04-09T13:36:33.685Z</time></trkpt><trkpt lat="40.83519" lon="14.0957567"><ele>27.0</ele><time>2026-04-09T13:36:34.684Z</time></trkpt><trkpt lat="40.8351283" lon="14.0958083"><ele>27.0</ele><time>2026-04-09T13:36:35.684Z</time></trkpt><trkpt lat="40.83507" lon="14.0958567"><ele>27.0</ele><time>2026-04-09T13:36:36.688Z</time></trkpt><trkpt lat="40.8350183" lon="14.095905"><ele>26.0</ele><time>2026-04-09T13:36:37.684Z</time></trkpt><trkpt lat="40.8349267" lon="14.09601"><ele>25.0</ele><time>2026-04-09T13:36:39.684Z</time></trkpt><trkpt lat="40.83484" lon="14.096125"><ele>24.0</ele><time>2026-04-09T13:36:41.687Z</time></trkpt><trkpt lat="40.8347967" lon="14.0961917"><ele>23.0</ele><time>2026-04-09T13:36:42.685Z</time></trkpt><trkpt lat="40.8347583" lon="14.096265"><ele>22.0</ele><time>2026-04-09T13:36:43.685Z</time></trkpt><trkpt lat="40.8347267" lon="14.0963383"><ele>21.0</ele><time>2026-04-09T13:36:44.685Z</time></trkpt><trkpt lat="40.834695" lon="14.0964133"><ele>21.0</ele><time>2026-04-09T13:36:45.684Z</time></trkpt><trkpt lat="40.8346317" lon="14.0965483"><ele>21.0</ele><time>2026-04-09T13:36:47.685Z</time></trkpt><trkpt lat="40.8345717" lon="14.0966833"><ele>21.0</ele><time>2026-04-09T13:36:49.685Z</time></trkpt><trkpt lat="40.8345383" lon="14.0967567"><ele>21.0</ele><time>2026-04-09T13:36:50.684Z</time></trkpt><trkpt lat="40.8345067" lon="14.0968317"><ele>21.0</ele><time>2026-04-09T13:36:51.684Z</time></trkpt><trkpt lat="40.8344717" lon="14.0969033"><ele>21.0</ele><time>2026-04-09T13:36:52.686Z</time></trkpt><trkpt lat="40.834415" lon="14.0970167"><ele>20.5</ele><time>2026-04-09T13:36:54.685Z</time></trkpt><trkpt lat="40.8343717" lon="14.0971017"><ele>20.0</ele><time>2026-04-09T13:36:56.686Z</time></trkpt><trkpt lat="40.834325" lon="14.0971933"><ele>19.5</ele><time>2026-04-09T13:36:58.685Z</time></trkpt><trkpt lat="40.8342633" lon="14.0972867"><ele>19.0</ele><time>2026-04-09T13:37:00.684Z</time></trkpt><trkpt lat="40.8342183" lon="14.0973817"><ele>18.5</ele><time>2026-04-09T13:37:02.685Z</time></trkpt><trkpt lat="40.83417" lon="14.09746"><ele>18.0</ele><time>2026-04-09T13:37:04.688Z</time></trkpt><trkpt lat="40.8341083" lon="14.09755"><ele>17.2</ele><time>2026-04-09T13:37:06.684Z</time></trkpt><trkpt lat="40.83406" lon="14.0976617"><ele>16.4</ele><time>2026-04-09T13:37:08.687Z</time></trkpt><trkpt lat="40.834" lon="14.097785"><ele>15.599999999999998</ele><time>2026-04-09T13:37:10.685Z</time></trkpt><trkpt lat="40.8339233" lon="14.0978683"><ele>14.799999999999999</ele><time>2026-04-09T13:37:12.688Z</time></trkpt><trkpt lat="40.8338583" lon="14.0978833"><ele>14.0</ele><time>2026-04-09T13:37:14.685Z</time></trkpt><trkpt lat="40.8337933" lon="14.09778"><ele>14.0</ele><time>2026-04-09T13:37:17.685Z</time></trkpt><trkpt lat="40.833765" lon="14.09767"><ele>13.999999999999998</ele><time>2026-04-09T13:37:19.685Z</time></trkpt><trkpt lat="40.8337267" lon="14.0975367"><ele>13.999999999999998</ele><time>2026-04-09T13:37:21.685Z</time></trkpt><trkpt lat="40.8336883" lon="14.0974167"><ele>14.0</ele><time>2026-04-09T13:37:23.685Z</time></trkpt><trkpt lat="40.8336533" lon="14.09728"><ele>14.0</ele><time>2026-04-09T13:37:25.686Z</time></trkpt><trkpt lat="40.8336117" lon="14.09714"><ele>14.25</ele><time>2026-04-09T13:37:27.686Z</time></trkpt><trkpt lat="40.833565" lon="14.0970017"><ele>14.5</ele><time>2026-04-09T13:37:29.685Z</time></trkpt><trkpt lat="40.8335183" lon="14.096855"><ele>14.75</ele><time>2026-04-09T13:37:31.685Z</time></trkpt><trkpt lat="40.8334683" lon="14.096715"><ele>15.0</ele><time>2026-04-09T13:37:33.684Z</time></trkpt><trkpt lat="40.8334233" lon="14.0965833"><ele>15.6</ele><time>2026-04-09T13:37:35.685Z</time></trkpt><trkpt lat="40.8333817" lon="14.0964767"><ele>16.2</ele><time>2026-04-09T13:37:37.685Z</time></trkpt><trkpt lat="40.83334" lon="14.096375"><ele>16.8</ele><time>2026-04-09T13:37:39.684Z</time></trkpt><trkpt lat="40.833305" lon="14.0962417"><ele>17.4</ele><time>2026-04-09T13:37:41.686Z</time></trkpt><trkpt lat="40.8332633" lon="14.096105"><ele>18.0</ele><time>2026-04-09T13:37:43.686Z</time></trkpt><trkpt lat="40.8332167" lon="14.0959683"><ele>18.0</ele><time>2026-04-09T13:37:45.685Z</time></trkpt><trkpt lat="40.8331733" lon="14.09584"><ele>18.0</ele><time>2026-04-09T13:37:47.685Z</time></trkpt><trkpt lat="40.8331283" lon="14.0957117"><ele>18.0</ele><time>2026-04-09T13:37:49.686Z</time></trkpt><trkpt lat="40.8330933" lon="14.0956383"><ele>18.0</ele><time>2026-04-09T13:37:50.684Z</time></trkpt><trkpt lat="40.8330317" lon="14.0955083"><ele>18.0</ele><time>2026-04-09T13:37:52.685Z</time></trkpt><trkpt lat="40.8329933" lon="14.0953883"><ele>18.8</ele><time>2026-04-09T13:37:54.685Z</time></trkpt><trkpt lat="40.8329517" lon="14.09526"><ele>19.6</ele><time>2026-04-09T13:37:56.685Z</time></trkpt><trkpt lat="40.8329" lon="14.0951483"><ele>20.400000000000002</ele><time>2026-04-09T13:37:58.685Z</time></trkpt><trkpt lat="40.8328567" lon="14.0950267"><ele>21.200000000000003</ele><time>2026-04-09T13:38:00.684Z</time></trkpt><trkpt lat="40.83281" lon="14.0948983"><ele>22.0</ele><time>2026-04-09T13:38:02.684Z</time></trkpt><trkpt lat="40.8327633" lon="14.0947733"><ele>22.6</ele><time>2026-04-09T13:38:04.684Z</time></trkpt><trkpt lat="40.8327183" lon="14.09464"><ele>23.200000000000003</ele><time>2026-04-09T13:38:06.686Z</time></trkpt><trkpt lat="40.8326733" lon="14.0945067"><ele>23.8</ele><time>2026-04-09T13:38:08.685Z</time></trkpt><trkpt lat="40.8326283" lon="14.0943833"><ele>24.4</ele><time>2026-04-09T13:38:10.685Z</time></trkpt><trkpt lat="40.8325783" lon="14.094255"><ele>25.0</ele><time>2026-04-09T13:38:12.686Z</time></trkpt><trkpt lat="40.8325317" lon="14.0941333"><ele>24.6</ele><time>2026-04-09T13:38:14.685Z</time></trkpt><trkpt lat="40.8324833" lon="14.09401"><ele>24.2</ele><time>2026-04-09T13:38:16.685Z</time></trkpt><trkpt lat="40.83244" lon="14.0938717"><ele>23.799999999999997</ele><time>2026-04-09T13:38:18.685Z</time></trkpt><trkpt lat="40.8323933" lon="14.093745"><ele>23.4</ele><time>2026-04-09T13:38:20.685Z</time></trkpt><trkpt lat="40.8323483" lon="14.0936267"><ele>23.0</ele><time>2026-04-09T13:38:22.686Z</time></trkpt><trkpt lat="40.8322967" lon="14.0935083"><ele>23.0</ele><time>2026-04-09T13:38:24.685Z</time></trkpt><trkpt lat="40.8322467" lon="14.0933767"><ele>23.0</ele><time>2026-04-09T13:38:26.685Z</time></trkpt><trkpt lat="40.8321883" lon="14.093235"><ele>23.0</ele><time>2026-04-09T13:38:28.685Z</time></trkpt><trkpt lat="40.8321583" lon="14.09316"><ele>23.0</ele><time>2026-04-09T13:38:29.685Z</time></trkpt><trkpt lat="40.83213" lon="14.0930833"><ele>23.0</ele><time>2026-04-09T13:38:30.685Z</time></trkpt><trkpt lat="40.8320983" lon="14.0930017"><ele>23.0</ele><time>2026-04-09T13:38:31.685Z</time></trkpt><trkpt lat="40.83207" lon="14.0929183"><ele>24.571428571428573</ele><time>2026-04-09T13:38:32.685Z</time></trkpt><trkpt lat="40.8320467" lon="14.0928333"><ele>26.14285714285714</ele><time>2026-04-09T13:38:33.685Z</time></trkpt><trkpt lat="40.8320217" lon="14.0927417"><ele>27.71428571428571</ele><time>2026-04-09T13:38:34.685Z</time></trkpt><trkpt lat="40.83199" lon="14.092655"><ele>29.285714285714285</ele><time>2026-04-09T13:38:35.688Z</time></trkpt><trkpt lat="40.83196" lon="14.0925683"><ele>30.857142857142854</ele><time>2026-04-09T13:38:36.685Z</time></trkpt><trkpt lat="40.8319333" lon="14.0924767"><ele>32.42857142857142</ele><time>2026-04-09T13:38:37.685Z</time></trkpt><trkpt lat="40.8319033" lon="14.0923867"><ele>34.0</ele><time>2026-04-09T13:38:38.685Z</time></trkpt><trkpt lat="40.8318717" lon="14.092295"><ele>35.16666666666667</ele><time>2026-04-09T13:38:39.684Z</time></trkpt><trkpt lat="40.8318383" lon="14.0922017"><ele>36.333333333333336</ele><time>2026-04-09T13:38:40.685Z</time></trkpt><trkpt lat="40.831805" lon="14.0921067"><ele>37.5</ele><time>2026-04-09T13:38:41.694Z</time></trkpt><trkpt lat="40.8317733" lon="14.0920167"><ele>38.666666666666664</ele><time>2026-04-09T13:38:42.685Z</time></trkpt><trkpt lat="40.8317417" lon="14.0919233"><ele>39.83333333333333</ele><time>2026-04-09T13:38:43.687Z</time></trkpt><trkpt lat="40.831715" lon="14.09183"><ele>41.0</ele><time>2026-04-09T13:38:44.685Z</time></trkpt><trkpt lat="40.83169" lon="14.091735"><ele>37.0</ele><time>2026-04-09T13:38:45.685Z</time></trkpt><trkpt lat="40.8316667" lon="14.0916367"><ele>33.0</ele><time>2026-04-09T13:38:46.685Z</time></trkpt><trkpt lat="40.8316433" lon="14.09154"><ele>29.0</ele><time>2026-04-09T13:38:47.685Z</time></trkpt><trkpt lat="40.8316283" lon="14.09145"><ele>25.0</ele><time>2026-04-09T13:38:48.685Z</time></trkpt><trkpt lat="40.8316183" lon="14.091365"><ele>21.0</ele><time>2026-04-09T13:38:49.685Z</time></trkpt><trkpt lat="40.831585" lon="14.0912133"><ele>17.0</ele><time>2026-04-09T13:38:51.684Z</time></trkpt><trkpt lat="40.831555" lon="14.0910533"><ele>16.57142857142857</ele><time>2026-04-09T13:38:53.684Z</time></trkpt><trkpt lat="40.831545" lon="14.0909667"><ele>16.142857142857142</ele><time>2026-04-09T13:38:54.685Z</time></trkpt><trkpt lat="40.8315367" lon="14.0908783"><ele>15.714285714285714</ele><time>2026-04-09T13:38:55.685Z</time></trkpt><trkpt lat="40.8315283" lon="14.090785"><ele>15.285714285714285</ele><time>2026-04-09T13:38:56.685Z</time></trkpt><trkpt lat="40.8315183" lon="14.090685"><ele>14.857142857142858</ele><time>2026-04-09T13:38:57.685Z</time></trkpt><trkpt lat="40.8315083" lon="14.0905867"><ele>14.428571428571429</ele><time>2026-04-09T13:38:58.687Z</time></trkpt><trkpt lat="40.8314933" lon="14.0904833"><ele>14.0</ele><time>2026-04-09T13:38:59.685Z</time></trkpt><trkpt lat="40.831475" lon="14.0903767"><ele>13.666666666666668</ele><time>2026-04-09T13:39:00.684Z</time></trkpt><trkpt lat="40.831455" lon="14.0902633"><ele>13.333333333333334</ele><time>2026-04-09T13:39:01.685Z</time></trkpt><trkpt lat="40.8314317" lon="14.0901533"><ele>13.0</ele><time>2026-04-09T13:39:02.685Z</time></trkpt><trkpt lat="40.8314117" lon="14.0900433"><ele>12.666666666666668</ele><time>2026-04-09T13:39:03.684Z</time></trkpt><trkpt lat="40.8313933" lon="14.089935"><ele>12.333333333333334</ele><time>2026-04-09T13:39:04.684Z</time></trkpt><trkpt lat="40.8313733" lon="14.0898183"><ele>12.0</ele><time>2026-04-09T13:39:05.686Z</time></trkpt><trkpt lat="40.8313517" lon="14.0896967"><ele>12.0</ele><time>2026-04-09T13:39:06.685Z</time></trkpt><trkpt lat="40.83133" lon="14.08958"><ele>12.0</ele><time>2026-04-09T13:39:07.685Z</time></trkpt><trkpt lat="40.8313083" lon="14.0894683"><ele>12.0</ele><time>2026-04-09T13:39:08.684Z</time></trkpt><trkpt lat="40.8312817" lon="14.0893583"><ele>12.0</ele><time>2026-04-09T13:39:09.684Z</time></trkpt><trkpt lat="40.83125" lon="14.089265"><ele>12.0</ele><time>2026-04-09T13:39:10.685Z</time></trkpt><trkpt lat="40.8312117" lon="14.0891817"><ele>12.0</ele><time>2026-04-09T13:39:11.685Z</time></trkpt><trkpt lat="40.8311767" lon="14.0890983"><ele>12.833333333333334</ele><time>2026-04-09T13:39:12.685Z</time></trkpt><trkpt lat="40.8311433" lon="14.08901"><ele>13.666666666666668</ele><time>2026-04-09T13:39:13.685Z</time></trkpt><trkpt lat="40.831115" lon="14.08892"><ele>14.5</ele><time>2026-04-09T13:39:14.685Z</time></trkpt><trkpt lat="40.8310917" lon="14.088825"><ele>15.333333333333334</ele><time>2026-04-09T13:39:15.685Z</time></trkpt><trkpt lat="40.8310733" lon="14.0887267"><ele>16.166666666666668</ele><time>2026-04-09T13:39:16.684Z</time></trkpt><trkpt lat="40.8310533" lon="14.0886283"><ele>17.0</ele><time>2026-04-09T13:39:17.684Z</time></trkpt><trkpt lat="40.831035" lon="14.0885317"><ele>17.0</ele><time>2026-04-09T13:39:18.684Z</time></trkpt><trkpt lat="40.831015" lon="14.0884333"><ele>17.0</ele><time>2026-04-09T13:39:19.684Z</time></trkpt><trkpt lat="40.8309983" lon="14.088335"><ele>17.0</ele><time>2026-04-09T13:39:20.684Z</time></trkpt><trkpt lat="40.8309783" lon="14.0882333"><ele>17.0</ele><time>2026-04-09T13:39:21.684Z</time></trkpt><trkpt lat="40.8309567" lon="14.0881333"><ele>17.0</ele><time>2026-04-09T13:39:22.684Z</time></trkpt><trkpt lat="40.830935" lon="14.0880333"><ele>17.0</ele><time>2026-04-09T13:39:23.683Z</time></trkpt><trkpt lat="40.8309133" lon="14.0879333"><ele>16.166666666666668</ele><time>2026-04-09T13:39:24.683Z</time></trkpt><trkpt lat="40.8308917" lon="14.0878317"><ele>15.333333333333334</ele><time>2026-04-09T13:39:25.684Z</time></trkpt><trkpt lat="40.8308683" lon="14.0877317"><ele>14.5</ele><time>2026-04-09T13:39:26.684Z</time></trkpt><trkpt lat="40.8308483" lon="14.0876283"><ele>13.666666666666668</ele><time>2026-04-09T13:39:27.684Z</time></trkpt><trkpt lat="40.8308283" lon="14.0875267"><ele>12.833333333333334</ele><time>2026-04-09T13:39:28.685Z</time></trkpt><trkpt lat="40.83081" lon="14.0874267"><ele>12.0</ele><time>2026-04-09T13:39:29.684Z</time></trkpt><trkpt lat="40.8307917" lon="14.08733"><ele>12.0</ele><time>2026-04-09T13:39:30.688Z</time></trkpt><trkpt lat="40.8307717" lon="14.0872317"><ele>12.0</ele><time>2026-04-09T13:39:31.685Z</time></trkpt><trkpt lat="40.8307483" lon="14.0871317"><ele>12.0</ele><time>2026-04-09T13:39:32.685Z</time></trkpt><trkpt lat="40.8307283" lon="14.087035"><ele>12.0</ele><time>2026-04-09T13:39:33.684Z</time></trkpt><trkpt lat="40.8307067" lon="14.0869333"><ele>12.0</ele><time>2026-04-09T13:39:34.683Z</time></trkpt><trkpt lat="40.8306833" lon="14.0868333"><ele>12.0</ele><time>2026-04-09T13:39:35.683Z</time></trkpt><trkpt lat="40.83066" lon="14.0867367"><ele>12.0</ele><time>2026-04-09T13:39:36.684Z</time></trkpt><trkpt lat="40.830635" lon="14.0866417"><ele>12.0</ele><time>2026-04-09T13:39:37.684Z</time></trkpt><trkpt lat="40.8306133" lon="14.0865467"><ele>12.0</ele><time>2026-04-09T13:39:38.684Z</time></trkpt><trkpt lat="40.8305933" lon="14.08645"><ele>12.0</ele><time>2026-04-09T13:39:39.683Z</time></trkpt><trkpt lat="40.830575" lon="14.0863533"><ele>12.0</ele><time>2026-04-09T13:39:40.683Z</time></trkpt><trkpt lat="40.8305567" lon="14.0862533"><ele>12.0</ele><time>2026-04-09T13:39:41.684Z</time></trkpt><trkpt lat="40.8305383" lon="14.086155"><ele>12.166666666666666</ele><time>2026-04-09T13:39:42.684Z</time></trkpt><trkpt lat="40.8305183" lon="14.086055"><ele>12.333333333333332</ele><time>2026-04-09T13:39:43.684Z</time></trkpt><trkpt lat="40.8305" lon="14.085955"><ele>12.5</ele><time>2026-04-09T13:39:44.684Z</time></trkpt><trkpt lat="40.8304817" lon="14.0858567"><ele>12.666666666666666</ele><time>2026-04-09T13:39:45.683Z</time></trkpt><trkpt lat="40.8304617" lon="14.0857617"><ele>12.833333333333332</ele><time>2026-04-09T13:39:46.684Z</time></trkpt><trkpt lat="40.83044" lon="14.0856683"><ele>13.0</ele><time>2026-04-09T13:39:47.684Z</time></trkpt><trkpt lat="40.8304167" lon="14.0855717"><ele>12.999999999999998</ele><time>2026-04-09T13:39:48.684Z</time></trkpt><trkpt lat="40.830395" lon="14.085475"><ele>13.0</ele><time>2026-04-09T13:39:49.684Z</time></trkpt><trkpt lat="40.83037" lon="14.0853817"><ele>13.0</ele><time>2026-04-09T13:39:50.684Z</time></trkpt><trkpt lat="40.830345" lon="14.0852817"><ele>13.0</ele><time>2026-04-09T13:39:51.684Z</time></trkpt><trkpt lat="40.8303183" lon="14.08519"><ele>12.999999999999998</ele><time>2026-04-09T13:39:52.684Z</time></trkpt><trkpt lat="40.8302817" lon="14.085095"><ele>13.0</ele><time>2026-04-09T13:39:53.684Z</time></trkpt><trkpt lat="40.8302483" lon="14.085"><ele>13.428571428571427</ele><time>2026-04-09T13:39:54.685Z</time></trkpt><trkpt lat="40.8302133" lon="14.0849067"><ele>13.857142857142858</ele><time>2026-04-09T13:39:55.684Z</time></trkpt><trkpt lat="40.8301883" lon="14.0848167"><ele>14.285714285714285</ele><time>2026-04-09T13:39:56.684Z</time></trkpt><trkpt lat="40.830155" lon="14.0847217"><ele>14.714285714285714</ele><time>2026-04-09T13:39:57.684Z</time></trkpt><trkpt lat="40.83012" lon="14.0846283"><ele>15.142857142857142</ele><time>2026-04-09T13:39:58.685Z</time></trkpt><trkpt lat="40.83009" lon="14.0845467"><ele>15.571428571428571</ele><time>2026-04-09T13:39:59.684Z</time></trkpt><trkpt lat="40.8300567" lon="14.0844633"><ele>16.0</ele><time>2026-04-09T13:40:00.689Z</time></trkpt><trkpt lat="40.8300217" lon="14.0843883"><ele>14.0</ele><time>2026-04-09T13:40:01.684Z</time></trkpt><trkpt lat="40.82996" lon="14.0842567"><ele>12.000000000000002</ele><time>2026-04-09T13:40:03.685Z</time></trkpt><trkpt lat="40.8299033" lon="14.0841367"><ele>10.0</ele><time>2026-04-09T13:40:05.685Z</time></trkpt><trkpt lat="40.8298783" lon="14.0840017"><ele>8.0</ele><time>2026-04-09T13:40:07.684Z</time></trkpt><trkpt lat="40.8298983" lon="14.0838783"><ele>6.0</ele><time>2026-04-09T13:40:09.684Z</time></trkpt><trkpt lat="40.8298817" lon="14.083755"><ele>6.0</ele><time>2026-04-09T13:40:11.684Z</time></trkpt><trkpt lat="40.8298017" lon="14.083675"><ele>6.0</ele><time>2026-04-09T13:40:13.684Z</time></trkpt><trkpt lat="40.8297417" lon="14.0836483"><ele>6.0</ele><time>2026-04-09T13:40:14.684Z</time></trkpt><trkpt lat="40.829635" lon="14.083595"><ele>6.0</ele><time>2026-04-09T13:40:16.687Z</time></trkpt><trkpt lat="40.8295583" lon="14.0834867"><ele>6.0</ele><time>2026-04-09T13:40:18.685Z</time></trkpt><trkpt lat="40.82949" lon="14.0833567"><ele>5.166666666666667</ele><time>2026-04-09T13:40:20.683Z</time></trkpt><trkpt lat="40.8294217" lon="14.0832267"><ele>4.333333333333333</ele><time>2026-04-09T13:40:22.684Z</time></trkpt><trkpt lat="40.8293517" lon="14.08309"><ele>3.5</ele><time>2026-04-09T13:40:24.684Z</time></trkpt><trkpt lat="40.8293167" lon="14.0830183"><ele>2.6666666666666665</ele><time>2026-04-09T13:40:25.684Z</time></trkpt><trkpt lat="40.8292817" lon="14.0829433"><ele>1.8333333333333333</ele><time>2026-04-09T13:40:26.684Z</time></trkpt><trkpt lat="40.8292433" lon="14.0828717"><ele>1.0</ele><time>2026-04-09T13:40:27.683Z</time></trkpt><trkpt lat="40.8292033" lon="14.0827933"><ele>1.0</ele><time>2026-04-09T13:40:28.685Z</time></trkpt><trkpt lat="40.8291683" lon="14.0827233"><ele>0.9999999999999999</ele><time>2026-04-09T13:40:29.684Z</time></trkpt><trkpt lat="40.829135" lon="14.0826483"><ele>1.0</ele><time>2026-04-09T13:40:30.684Z</time></trkpt><trkpt lat="40.8290967" lon="14.08257"><ele>1.0</ele><time>2026-04-09T13:40:31.684Z</time></trkpt><trkpt lat="40.8290617" lon="14.08249"><ele>0.9999999999999999</ele><time>2026-04-09T13:40:32.685Z</time></trkpt><trkpt lat="40.829025" lon="14.0824083"><ele>1.0</ele><time>2026-04-09T13:40:33.685Z</time></trkpt><trkpt lat="40.8289883" lon="14.0823317"><ele>1.0</ele><time>2026-04-09T13:40:34.684Z</time></trkpt><trkpt lat="40.8289517" lon="14.0822533"><ele>0.5714285714285714</ele><time>2026-04-09T13:40:35.684Z</time></trkpt><trkpt lat="40.8289167" lon="14.0821767"><ele>0.1428571428571428</ele><time>2026-04-09T13:40:36.685Z</time></trkpt><trkpt lat="40.82888" lon="14.0821"><ele>-0.2857142857142857</ele><time>2026-04-09T13:40:37.684Z</time></trkpt><trkpt lat="40.8288433" lon="14.0820233"><ele>-0.7142857142857142</ele><time>2026-04-09T13:40:38.684Z</time></trkpt><trkpt lat="40.828805" lon="14.0819467"><ele>-1.1428571428571428</ele><time>2026-04-09T13:40:39.684Z</time></trkpt><trkpt lat="40.8287667" lon="14.08187"><ele>-1.5714285714285714</ele><time>2026-04-09T13:40:40.683Z</time></trkpt><trkpt lat="40.82873" lon="14.081795"><ele>-2.0</ele><time>2026-04-09T13:40:41.684Z</time></trkpt><trkpt lat="40.8286917" lon="14.0817167"><ele>-2.0</ele><time>2026-04-09T13:40:42.684Z</time></trkpt><trkpt lat="40.8286517" lon="14.0816333"><ele>-1.9999999999999998</ele><time>2026-04-09T13:40:43.684Z</time></trkpt><trkpt lat="40.8286117" lon="14.0815483"><ele>-2.0</ele><time>2026-04-09T13:40:44.684Z</time></trkpt><trkpt lat="40.8285717" lon="14.0814633"><ele>-2.0</ele><time>2026-04-09T13:40:45.686Z</time></trkpt><trkpt lat="40.8285333" lon="14.08138"><ele>-1.9999999999999998</ele><time>2026-04-09T13:40:46.684Z</time></trkpt><trkpt lat="40.8284917" lon="14.081295"><ele>-2.0</ele><time>2026-04-09T13:40:47.684Z</time></trkpt><trkpt lat="40.828455" lon="14.081215"><ele>-2.0</ele><time>2026-04-09T13:40:48.685Z</time></trkpt><trkpt lat="40.828415" lon="14.0811333"><ele>-1.5714285714285714</ele><time>2026-04-09T13:40:49.685Z</time></trkpt><trkpt lat="40.8283733" lon="14.0810517"><ele>-1.1428571428571428</ele><time>2026-04-09T13:40:50.684Z</time></trkpt><trkpt lat="40.82833" lon="14.0809683"><ele>-0.7142857142857142</ele><time>2026-04-09T13:40:51.684Z</time></trkpt><trkpt lat="40.82829" lon="14.0808883"><ele>-0.2857142857142857</ele><time>2026-04-09T13:40:52.684Z</time></trkpt><trkpt lat="40.82825" lon="14.080805"><ele>0.1428571428571428</ele><time>2026-04-09T13:40:53.684Z</time></trkpt><trkpt lat="40.8282117" lon="14.0807283"><ele>0.5714285714285714</ele><time>2026-04-09T13:40:54.684Z</time></trkpt><trkpt lat="40.8281767" lon="14.0806483"><ele>1.0</ele><time>2026-04-09T13:40:55.684Z</time></trkpt><trkpt lat="40.82814" lon="14.0805683"><ele>1.1428571428571428</ele><time>2026-04-09T13:40:56.683Z</time></trkpt><trkpt lat="40.828105" lon="14.0804833"><ele>1.2857142857142856</ele><time>2026-04-09T13:40:57.684Z</time></trkpt><trkpt lat="40.8280667" lon="14.0804017"><ele>1.4285714285714284</ele><time>2026-04-09T13:40:58.684Z</time></trkpt><trkpt lat="40.8280267" lon="14.08032"><ele>1.5714285714285714</ele><time>2026-04-09T13:40:59.684Z</time></trkpt><trkpt lat="40.8279867" lon="14.08024"><ele>1.714285714285714</ele><time>2026-04-09T13:41:00.684Z</time></trkpt><trkpt lat="40.8279467" lon="14.0801567"><ele>1.857142857142857</ele><time>2026-04-09T13:41:01.684Z</time></trkpt><trkpt lat="40.8279083" lon="14.08008"><ele>2.0</ele><time>2026-04-09T13:41:02.685Z</time></trkpt><trkpt lat="40.82787" lon="14.0799983"><ele>2.0</ele><time>2026-04-09T13:41:03.683Z</time></trkpt><trkpt lat="40.8278333" lon="14.0799167"><ele>1.9999999999999998</ele><time>2026-04-09T13:41:04.684Z</time></trkpt><trkpt lat="40.8277983" lon="14.07984"><ele>2.0</ele><time>2026-04-09T13:41:05.684Z</time></trkpt><trkpt lat="40.8277617" lon="14.0797633"><ele>2.0</ele><time>2026-04-09T13:41:06.684Z</time></trkpt><trkpt lat="40.8277233" lon="14.0796817"><ele>1.9999999999999998</ele><time>2026-04-09T13:41:07.686Z</time></trkpt><trkpt lat="40.827685" lon="14.0796033"><ele>2.0</ele><time>2026-04-09T13:41:08.684Z</time></trkpt><trkpt lat="40.8276467" lon="14.079525"><ele>2.0</ele><time>2026-04-09T13:41:09.686Z</time></trkpt><trkpt lat="40.8276117" lon="14.0794467"><ele>1.9999999999999998</ele><time>2026-04-09T13:41:10.685Z</time></trkpt><trkpt lat="40.827575" lon="14.0793683"><ele>2.0</ele><time>2026-04-09T13:41:11.684Z</time></trkpt><trkpt lat="40.8275367" lon="14.07929"><ele>2.0</ele><time>2026-04-09T13:41:12.685Z</time></trkpt><trkpt lat="40.8274983" lon="14.0792083"><ele>2.0</ele><time>2026-04-09T13:41:13.684Z</time></trkpt><trkpt lat="40.8274583" lon="14.0791317"><ele>1.9999999999999998</ele><time>2026-04-09T13:41:14.688Z</time></trkpt><trkpt lat="40.82742" lon="14.0790567"><ele>2.0</ele><time>2026-04-09T13:41:15.684Z</time></trkpt><trkpt lat="40.8273583" lon="14.0789233"><ele>1.9999999999999998</ele><time>2026-04-09T13:41:17.684Z</time></trkpt><trkpt lat="40.8273267" lon="14.0788483"><ele>2.0</ele><time>2026-04-09T13:41:18.684Z</time></trkpt><trkpt lat="40.82726" lon="14.0787117"><ele>2.0</ele><time>2026-04-09T13:41:20.684Z</time></trkpt><trkpt lat="40.8272233" lon="14.07864"><ele>2.0</ele><time>2026-04-09T13:41:21.684Z</time></trkpt><trkpt lat="40.827185" lon="14.0785717"><ele>1.9999999999999998</ele><time>2026-04-09T13:41:22.684Z</time></trkpt><trkpt lat="40.82711" lon="14.0784383"><ele>2.0</ele><time>2026-04-09T13:41:24.684Z</time></trkpt><trkpt lat="40.8270717" lon="14.0783717"><ele>1.9999999999999998</ele><time>2026-04-09T13:41:25.685Z</time></trkpt><trkpt lat="40.82703" lon="14.0783"><ele>2.0</ele><time>2026-04-09T13:41:26.684Z</time></trkpt><trkpt lat="40.8269883" lon="14.0782317"><ele>2.0</ele><time>2026-04-09T13:41:27.684Z</time></trkpt><trkpt lat="40.8269483" lon="14.0781617"><ele>2.0</ele><time>2026-04-09T13:41:28.683Z</time></trkpt><trkpt lat="40.8269083" lon="14.0780917"><ele>1.9999999999999998</ele><time>2026-04-09T13:41:29.684Z</time></trkpt><trkpt lat="40.82687" lon="14.0780233"><ele>2.0</ele><time>2026-04-09T13:41:30.684Z</time></trkpt><trkpt lat="40.8268017" lon="14.0778883"><ele>2.0</ele><time>2026-04-09T13:41:32.685Z</time></trkpt><trkpt lat="40.8267417" lon="14.07776"><ele>2.0</ele><time>2026-04-09T13:41:34.683Z</time></trkpt><trkpt lat="40.82669" lon="14.0776483"><ele>2.0</ele><time>2026-04-09T13:41:36.684Z</time></trkpt><trkpt lat="40.8266383" lon="14.0775383"><ele>2.0</ele><time>2026-04-09T13:41:38.684Z</time></trkpt><trkpt lat="40.8265833" lon="14.0774333"><ele>2.0</ele><time>2026-04-09T13:41:40.684Z</time></trkpt><trkpt lat="40.8265267" lon="14.0773233"><ele>2.6</ele><time>2026-04-09T13:41:42.685Z</time></trkpt><trkpt lat="40.8264717" lon="14.0772167"><ele>3.2</ele><time>2026-04-09T13:41:44.683Z</time></trkpt><trkpt lat="40.8264117" lon="14.077105"><ele>3.8</ele><time>2026-04-09T13:41:46.684Z</time></trkpt><trkpt lat="40.8263433" lon="14.0770183"><ele>4.4</ele><time>2026-04-09T13:41:48.685Z</time></trkpt><trkpt lat="40.82626" lon="14.076955"><ele>5.0</ele><time>2026-04-09T13:41:50.684Z</time></trkpt><trkpt lat="40.8261717" lon="14.076895"><ele>5.0</ele><time>2026-04-09T13:41:52.684Z</time></trkpt><trkpt lat="40.8260833" lon="14.076825"><ele>5.0</ele><time>2026-04-09T13:41:54.684Z</time></trkpt><trkpt lat="40.8259883" lon="14.0767467"><ele>5.0</ele><time>2026-04-09T13:41:56.685Z</time></trkpt><trkpt lat="40.8258783" lon="14.0767067"><ele>5.0</ele><time>2026-04-09T13:41:58.684Z</time></trkpt><trkpt lat="40.825765" lon="14.0767317"><ele>5.0</ele><time>2026-04-09T13:42:00.684Z</time></trkpt><trkpt lat="40.8256583" lon="14.0767983"><ele>8.0</ele><time>2026-04-09T13:42:02.688Z</time></trkpt><trkpt lat="40.8255567" lon="14.0768817"><ele>11.0</ele><time>2026-04-09T13:42:04.684Z</time></trkpt><trkpt lat="40.8254483" lon="14.0769717"><ele>14.0</ele><time>2026-04-09T13:42:06.684Z</time></trkpt><trkpt lat="40.82539" lon="14.077005"><ele>17.0</ele><time>2026-04-09T13:42:07.684Z</time></trkpt><trkpt lat="40.8252733" lon="14.07704"><ele>20.0</ele><time>2026-04-09T13:42:09.685Z</time></trkpt><trkpt lat="40.825155" lon="14.0770583"><ele>25.2</ele><time>2026-04-09T13:42:11.684Z</time></trkpt><trkpt lat="40.825045" lon="14.0770733"><ele>30.4</ele><time>2026-04-09T13:42:13.684Z</time></trkpt><trkpt lat="40.8249383" lon="14.0771017"><ele>35.599999999999994</ele><time>2026-04-09T13:42:15.685Z</time></trkpt><trkpt lat="40.82483" lon="14.077125"><ele>40.8</ele><time>2026-04-09T13:42:17.684Z</time></trkpt><trkpt lat="40.8247217" lon="14.077155"><ele>46.0</ele><time>2026-04-09T13:42:19.685Z</time></trkpt><trkpt lat="40.82462" lon="14.0772033"><ele>46.0</ele><time>2026-04-09T13:42:21.685Z</time></trkpt><trkpt lat="40.82452" lon="14.07727"><ele>46.0</ele><time>2026-04-09T13:42:23.686Z</time></trkpt><trkpt lat="40.8244167" lon="14.0773417"><ele>46.0</ele><time>2026-04-09T13:42:25.685Z</time></trkpt><trkpt lat="40.824305" lon="14.0773917"><ele>46.0</ele><time>2026-04-09T13:42:27.683Z</time></trkpt><trkpt lat="40.8241867" lon="14.0774"><ele>47.4</ele><time>2026-04-09T13:42:29.686Z</time></trkpt><trkpt lat="40.8240783" lon="14.0773433"><ele>48.8</ele><time>2026-04-09T13:42:31.684Z</time></trkpt><trkpt lat="40.823985" lon="14.0772533"><ele>50.199999999999996</ele><time>2026-04-09T13:42:33.684Z</time></trkpt><trkpt lat="40.8239017" lon="14.0771633"><ele>51.599999999999994</ele><time>2026-04-09T13:42:35.684Z</time></trkpt><trkpt lat="40.8238217" lon="14.0770867"><ele>53.0</ele><time>2026-04-09T13:42:37.684Z</time></trkpt><trkpt lat="40.8237467" lon="14.0770133"><ele>53.00000000000001</ele><time>2026-04-09T13:42:39.684Z</time></trkpt><trkpt lat="40.8236767" lon="14.0769433"><ele>53.0</ele><time>2026-04-09T13:42:41.684Z</time></trkpt><trkpt lat="40.8236033" lon="14.07688"><ele>53.0</ele><time>2026-04-09T13:42:43.684Z</time></trkpt><trkpt lat="40.8235383" lon="14.0768233"><ele>53.0</ele><time>2026-04-09T13:42:45.687Z</time></trkpt><trkpt lat="40.8234667" lon="14.0767667"><ele>53.00000000000001</ele><time>2026-04-09T13:42:47.684Z</time></trkpt><trkpt lat="40.8233883" lon="14.0767117"><ele>53.0</ele><time>2026-04-09T13:42:49.693Z</time></trkpt><trkpt lat="40.8233033" lon="14.076665"><ele>50.599999999999994</ele><time>2026-04-09T13:42:51.687Z</time></trkpt><trkpt lat="40.8232083" lon="14.0766333"><ele>48.199999999999996</ele><time>2026-04-09T13:42:53.688Z</time></trkpt><trkpt lat="40.82311" lon="14.076605"><ele>45.8</ele><time>2026-04-09T13:42:55.684Z</time></trkpt><trkpt lat="40.82301" lon="14.076575"><ele>43.4</ele><time>2026-04-09T13:42:57.684Z</time></trkpt><trkpt lat="40.8229117" lon="14.0765383"><ele>41.0</ele><time>2026-04-09T13:42:59.686Z</time></trkpt><trkpt lat="40.8228433" lon="14.07645"><ele>41.0</ele><time>2026-04-09T13:43:01.684Z</time></trkpt><trkpt lat="40.8228167" lon="14.0763333"><ele>41.0</ele><time>2026-04-09T13:43:03.684Z</time></trkpt><trkpt lat="40.82283" lon="14.0762017"><ele>41.0</ele><time>2026-04-09T13:43:05.685Z</time></trkpt><trkpt lat="40.8228467" lon="14.0760583"><ele>41.0</ele><time>2026-04-09T13:43:07.685Z</time></trkpt><trkpt lat="40.8228567" lon="14.0759083"><ele>41.0</ele><time>2026-04-09T13:43:09.684Z</time></trkpt><trkpt lat="40.8228567" lon="14.0758233"><ele>40.5</ele><time>2026-04-09T13:43:10.685Z</time></trkpt><trkpt lat="40.822855" lon="14.0757367"><ele>40.0</ele><time>2026-04-09T13:43:11.685Z</time></trkpt><trkpt lat="40.82285" lon="14.0756417"><ele>39.5</ele><time>2026-04-09T13:43:12.685Z</time></trkpt><trkpt lat="40.8228383" lon="14.0755367"><ele>39.0</ele><time>2026-04-09T13:43:13.686Z</time></trkpt><trkpt lat="40.8228283" lon="14.0754283"><ele>38.5</ele><time>2026-04-09T13:43:14.686Z</time></trkpt><trkpt lat="40.8228167" lon="14.0753267"><ele>38.0</ele><time>2026-04-09T13:43:15.686Z</time></trkpt><trkpt lat="40.8228033" lon="14.0752283"><ele>38.0</ele><time>2026-04-09T13:43:16.688Z</time></trkpt><trkpt lat="40.8227867" lon="14.0751267"><ele>38.0</ele><time>2026-04-09T13:43:17.684Z</time></trkpt><trkpt lat="40.8227667" lon="14.07502"><ele>38.0</ele><time>2026-04-09T13:43:18.685Z</time></trkpt><trkpt lat="40.822745" lon="14.074915"><ele>38.0</ele><time>2026-04-09T13:43:19.685Z</time></trkpt><trkpt lat="40.8227167" lon="14.0748067"><ele>38.0</ele><time>2026-04-09T13:43:20.684Z</time></trkpt><trkpt lat="40.82267" lon="14.074705"><ele>38.0</ele><time>2026-04-09T13:43:21.686Z</time></trkpt><trkpt lat="40.8226183" lon="14.074615"><ele>37.5</ele><time>2026-04-09T13:43:22.684Z</time></trkpt><trkpt lat="40.8225633" lon="14.07453"><ele>37.0</ele><time>2026-04-09T13:43:23.684Z</time></trkpt><trkpt lat="40.8225083" lon="14.0744417"><ele>36.5</ele><time>2026-04-09T13:43:24.688Z</time></trkpt><trkpt lat="40.8224533" lon="14.0743567"><ele>36.0</ele><time>2026-04-09T13:43:25.685Z</time></trkpt><trkpt lat="40.8224033" lon="14.0742633"><ele>35.5</ele><time>2026-04-09T13:43:26.685Z</time></trkpt><trkpt lat="40.8223583" lon="14.07417"><ele>35.0</ele><time>2026-04-09T13:43:27.685Z</time></trkpt><trkpt lat="40.8223167" lon="14.0740683"><ele>35.0</ele><time>2026-04-09T13:43:28.685Z</time></trkpt><trkpt lat="40.822275" lon="14.0739683"><ele>35.0</ele><time>2026-04-09T13:43:29.684Z</time></trkpt><trkpt lat="40.822235" lon="14.0738683"><ele>35.0</ele><time>2026-04-09T13:43:30.686Z</time></trkpt><trkpt lat="40.8221917" lon="14.0737717"><ele>35.0</ele><time>2026-04-09T13:43:31.684Z</time></trkpt><trkpt lat="40.8221467" lon="14.0736767"><ele>35.0</ele><time>2026-04-09T13:43:32.685Z</time></trkpt><trkpt lat="40.8220983" lon="14.0735917"><ele>35.0</ele><time>2026-04-09T13:43:33.684Z</time></trkpt><trkpt lat="40.8220533" lon="14.0735183"><ele>35.0</ele><time>2026-04-09T13:43:34.684Z</time></trkpt><trkpt lat="40.8220167" lon="14.073435"><ele>35.0</ele><time>2026-04-09T13:43:35.686Z</time></trkpt><trkpt lat="40.8219767" lon="14.07336"><ele>35.0</ele><time>2026-04-09T13:43:36.685Z</time></trkpt><trkpt lat="40.8219367" lon="14.0732767"><ele>35.0</ele><time>2026-04-09T13:43:37.685Z</time></trkpt><trkpt lat="40.821895" lon="14.0731933"><ele>35.0</ele><time>2026-04-09T13:43:38.684Z</time></trkpt><trkpt lat="40.8218533" lon="14.0731183"><ele>35.0</ele><time>2026-04-09T13:43:39.686Z</time></trkpt><trkpt lat="40.8218083" lon="14.0730383"><ele>35.0</ele><time>2026-04-09T13:43:40.685Z</time></trkpt><trkpt lat="40.8217633" lon="14.072955"><ele>32.83333333333333</ele><time>2026-04-09T13:43:41.684Z</time></trkpt><trkpt lat="40.82171" lon="14.0728717"><ele>30.666666666666664</ele><time>2026-04-09T13:43:42.684Z</time></trkpt><trkpt lat="40.821655" lon="14.072795"><ele>28.5</ele><time>2026-04-09T13:43:43.684Z</time></trkpt><trkpt lat="40.8215917" lon="14.0727233"><ele>26.333333333333332</ele><time>2026-04-09T13:43:44.684Z</time></trkpt><trkpt lat="40.8215283" lon="14.0726517"><ele>24.166666666666664</ele><time>2026-04-09T13:43:45.685Z</time></trkpt><trkpt lat="40.8214683" lon="14.0725783"><ele>22.0</ele><time>2026-04-09T13:43:46.684Z</time></trkpt><trkpt lat="40.8214083" lon="14.0725067"><ele>20.5</ele><time>2026-04-09T13:43:47.685Z</time></trkpt><trkpt lat="40.82135" lon="14.072435"><ele>19.0</ele><time>2026-04-09T13:43:48.684Z</time></trkpt><trkpt lat="40.8212867" lon="14.0723683"><ele>17.5</ele><time>2026-04-09T13:43:49.686Z</time></trkpt><trkpt lat="40.8212167" lon="14.07231"><ele>16.0</ele><time>2026-04-09T13:43:50.684Z</time></trkpt><trkpt lat="40.8211367" lon="14.0722667"><ele>14.499999999999998</ele><time>2026-04-09T13:43:51.685Z</time></trkpt><trkpt lat="40.8210567" lon="14.0722383"><ele>13.0</ele><time>2026-04-09T13:43:52.685Z</time></trkpt><trkpt lat="40.820975" lon="14.0722167"><ele>12.999999999999998</ele><time>2026-04-09T13:43:53.686Z</time></trkpt><trkpt lat="40.8208933" lon="14.0721883"><ele>13.0</ele><time>2026-04-09T13:43:54.685Z</time></trkpt><trkpt lat="40.8208133" lon="14.0721617"><ele>13.0</ele><time>2026-04-09T13:43:55.687Z</time></trkpt><trkpt lat="40.8207367" lon="14.07213"><ele>13.0</ele><time>2026-04-09T13:43:56.684Z</time></trkpt><trkpt lat="40.8206617" lon="14.0721"><ele>12.999999999999998</ele><time>2026-04-09T13:43:57.684Z</time></trkpt><trkpt lat="40.8205867" lon="14.0720683"><ele>13.0</ele><time>2026-04-09T13:43:58.684Z</time></trkpt><trkpt lat="40.8205117" lon="14.0720367"><ele>12.999999999999998</ele><time>2026-04-09T13:43:59.685Z</time></trkpt><trkpt lat="40.8204383" lon="14.072005"><ele>13.0</ele><time>2026-04-09T13:44:00.684Z</time></trkpt><trkpt lat="40.8203683" lon="14.0719767"><ele>13.0</ele><time>2026-04-09T13:44:01.685Z</time></trkpt><trkpt lat="40.8203017" lon="14.0719533"><ele>13.0</ele><time>2026-04-09T13:44:02.684Z</time></trkpt><trkpt lat="40.8201933" lon="14.0719133"><ele>12.999999999999998</ele><time>2026-04-09T13:44:04.684Z</time></trkpt><trkpt lat="40.8201033" lon="14.07188"><ele>13.0</ele><time>2026-04-09T13:44:06.684Z</time></trkpt><trkpt lat="40.82004" lon="14.0718583"><ele>12.499999999999998</ele><time>2026-04-09T13:44:08.684Z</time></trkpt><trkpt lat="40.8199733" lon="14.0718217"><ele>12.0</ele><time>2026-04-09T13:44:19.686Z</time></trkpt><trkpt lat="40.819915" lon="14.0717883"><ele>11.5</ele><time>2026-04-09T13:44:21.684Z</time></trkpt><trkpt lat="40.8198417" lon="14.0717533"><ele>11.0</ele><time>2026-04-09T13:44:23.684Z</time></trkpt><trkpt lat="40.8197517" lon="14.0717233"><ele>10.5</ele><time>2026-04-09T13:44:25.684Z</time></trkpt><trkpt lat="40.8196367" lon="14.0716883"><ele>10.0</ele><time>2026-04-09T13:44:27.684Z</time></trkpt><trkpt lat="40.8195733" lon="14.0716683"><ele>10.0</ele><time>2026-04-09T13:44:28.688Z</time></trkpt><trkpt lat="40.81951" lon="14.0716517"><ele>10.0</ele><time>2026-04-09T13:44:29.684Z</time></trkpt><trkpt lat="40.8194433" lon="14.0716367"><ele>10.0</ele><time>2026-04-09T13:44:30.684Z</time></trkpt><trkpt lat="40.81938" lon="14.0716167"><ele>10.0</ele><time>2026-04-09T13:44:31.684Z</time></trkpt><trkpt lat="40.819315" lon="14.0715983"><ele>10.0</ele><time>2026-04-09T13:44:32.684Z</time></trkpt><trkpt lat="40.8192467" lon="14.071585"><ele>10.0</ele><time>2026-04-09T13:44:33.685Z</time></trkpt><trkpt lat="40.81918" lon="14.0715733"><ele>10.0</ele><time>2026-04-09T13:44:34.685Z</time></trkpt><trkpt lat="40.81911" lon="14.07156"><ele>11.0</ele><time>2026-04-09T13:44:35.685Z</time></trkpt><trkpt lat="40.8190433" lon="14.0715483"><ele>12.0</ele><time>2026-04-09T13:44:36.684Z</time></trkpt><trkpt lat="40.8189767" lon="14.0715383"><ele>13.0</ele><time>2026-04-09T13:44:37.685Z</time></trkpt><trkpt lat="40.8189133" lon="14.0715217"><ele>14.0</ele><time>2026-04-09T13:44:38.684Z</time></trkpt><trkpt lat="40.8188467" lon="14.071505"><ele>15.0</ele><time>2026-04-09T13:44:39.684Z</time></trkpt><trkpt lat="40.8187783" lon="14.0714833"><ele>15.999999999999998</ele><time>2026-04-09T13:44:40.684Z</time></trkpt><trkpt lat="40.81871" lon="14.07145"><ele>17.0</ele><time>2026-04-09T13:44:41.685Z</time></trkpt><trkpt lat="40.8186367" lon="14.07143"><ele>17.0</ele><time>2026-04-09T13:44:42.687Z</time></trkpt><trkpt lat="40.8185633" lon="14.0714067"><ele>17.0</ele><time>2026-04-09T13:44:43.686Z</time></trkpt><trkpt lat="40.8184883" lon="14.071385"><ele>17.0</ele><time>2026-04-09T13:44:44.686Z</time></trkpt><trkpt lat="40.818415" lon="14.0713583"><ele>17.0</ele><time>2026-04-09T13:44:45.684Z</time></trkpt><trkpt lat="40.8183433" lon="14.0713317"><ele>17.0</ele><time>2026-04-09T13:44:46.684Z</time></trkpt><trkpt lat="40.8182683" lon="14.0713133"><ele>17.0</ele><time>2026-04-09T13:44:47.684Z</time></trkpt><trkpt lat="40.8181933" lon="14.0712933"><ele>15.166666666666668</ele><time>2026-04-09T13:44:48.684Z</time></trkpt><trkpt lat="40.818115" lon="14.0712717"><ele>13.333333333333334</ele><time>2026-04-09T13:44:49.684Z</time></trkpt><trkpt lat="40.8180383" lon="14.0712467"><ele>11.5</ele><time>2026-04-09T13:44:50.686Z</time></trkpt><trkpt lat="40.8179617" lon="14.071225"><ele>9.666666666666668</ele><time>2026-04-09T13:44:51.686Z</time></trkpt><trkpt lat="40.8178833" lon="14.0711967"><ele>7.833333333333334</ele><time>2026-04-09T13:44:52.686Z</time></trkpt><trkpt lat="40.8178067" lon="14.0711733"><ele>6.0</ele><time>2026-04-09T13:44:53.686Z</time></trkpt><trkpt lat="40.8177267" lon="14.071155"><ele>5.666666666666667</ele><time>2026-04-09T13:44:54.684Z</time></trkpt><trkpt lat="40.8176467" lon="14.0711433"><ele>5.333333333333333</ele><time>2026-04-09T13:44:55.684Z</time></trkpt><trkpt lat="40.817565" lon="14.0711317"><ele>5.0</ele><time>2026-04-09T13:44:56.684Z</time></trkpt><trkpt lat="40.817485" lon="14.07112"><ele>4.666666666666666</ele><time>2026-04-09T13:44:57.684Z</time></trkpt><trkpt lat="40.817405" lon="14.0711117"><ele>4.333333333333333</ele><time>2026-04-09T13:44:58.684Z</time></trkpt><trkpt lat="40.817325" lon="14.0710967"><ele>4.0</ele><time>2026-04-09T13:44:59.685Z</time></trkpt><trkpt lat="40.8172433" lon="14.0710917"><ele>3.9999999999999996</ele><time>2026-04-09T13:45:00.686Z</time></trkpt><trkpt lat="40.8171617" lon="14.071085"><ele>4.0</ele><time>2026-04-09T13:45:01.684Z</time></trkpt><trkpt lat="40.81708" lon="14.0710833"><ele>4.0</ele><time>2026-04-09T13:45:02.687Z</time></trkpt><trkpt lat="40.8169983" lon="14.071085"><ele>4.0</ele><time>2026-04-09T13:45:03.686Z</time></trkpt><trkpt lat="40.8169183" lon="14.0710883"><ele>3.9999999999999996</ele><time>2026-04-09T13:45:04.686Z</time></trkpt><trkpt lat="40.8168367" lon="14.0711067"><ele>4.0</ele><time>2026-04-09T13:45:05.686Z</time></trkpt><trkpt lat="40.8167567" lon="14.07112"><ele>4.5</ele><time>2026-04-09T13:45:06.684Z</time></trkpt><trkpt lat="40.8166783" lon="14.0711267"><ele>5.0</ele><time>2026-04-09T13:45:07.684Z</time></trkpt><trkpt lat="40.8165983" lon="14.071135"><ele>5.5</ele><time>2026-04-09T13:45:08.684Z</time></trkpt><trkpt lat="40.8165217" lon="14.07114"><ele>6.0</ele><time>2026-04-09T13:45:09.684Z</time></trkpt><trkpt lat="40.8164417" lon="14.0711483"><ele>6.500000000000001</ele><time>2026-04-09T13:45:10.685Z</time></trkpt><trkpt lat="40.816365" lon="14.0711533"><ele>7.0</ele><time>2026-04-09T13:45:11.687Z</time></trkpt><trkpt lat="40.81629" lon="14.0711517"><ele>7.0</ele><time>2026-04-09T13:45:12.684Z</time></trkpt><trkpt lat="40.8162217" lon="14.0711567"><ele>7.0</ele><time>2026-04-09T13:45:13.684Z</time></trkpt><trkpt lat="40.81615" lon="14.0711617"><ele>7.0</ele><time>2026-04-09T13:45:14.685Z</time></trkpt><trkpt lat="40.8160817" lon="14.0711783"><ele>7.0</ele><time>2026-04-09T13:45:15.688Z</time></trkpt><trkpt lat="40.8160117" lon="14.0712017"><ele>7.0</ele><time>2026-04-09T13:45:16.684Z</time></trkpt><trkpt lat="40.815945" lon="14.0712267"><ele>7.0</ele><time>2026-04-09T13:45:17.686Z</time></trkpt><trkpt lat="40.81588" lon="14.07127"><ele>7.0</ele><time>2026-04-09T13:45:18.684Z</time></trkpt><trkpt lat="40.8158167" lon="14.0713267"><ele>6.285714285714286</ele><time>2026-04-09T13:45:19.684Z</time></trkpt><trkpt lat="40.81576" lon="14.07139"><ele>5.571428571428571</ele><time>2026-04-09T13:45:20.684Z</time></trkpt><trkpt lat="40.8157017" lon="14.0714533"><ele>4.857142857142857</ele><time>2026-04-09T13:45:21.685Z</time></trkpt><trkpt lat="40.8156467" lon="14.0715233"><ele>4.142857142857142</ele><time>2026-04-09T13:45:22.685Z</time></trkpt><trkpt lat="40.815595" lon="14.0715967"><ele>3.4285714285714284</ele><time>2026-04-09T13:45:23.685Z</time></trkpt><trkpt lat="40.8155433" lon="14.0716667"><ele>2.7142857142857144</ele><time>2026-04-09T13:45:24.684Z</time></trkpt><trkpt lat="40.81549" lon="14.0717333"><ele>2.0</ele><time>2026-04-09T13:45:25.684Z</time></trkpt><trkpt lat="40.81544" lon="14.0718017"><ele>2.0</ele><time>2026-04-09T13:45:26.686Z</time></trkpt><trkpt lat="40.8153917" lon="14.0718683"><ele>1.9999999999999998</ele><time>2026-04-09T13:45:27.684Z</time></trkpt><trkpt lat="40.81534" lon="14.0719367"><ele>2.0</ele><time>2026-04-09T13:45:28.685Z</time></trkpt><trkpt lat="40.8152917" lon="14.0720067"><ele>2.0</ele><time>2026-04-09T13:45:29.684Z</time></trkpt><trkpt lat="40.8152383" lon="14.072075"><ele>1.9999999999999998</ele><time>2026-04-09T13:45:30.684Z</time></trkpt><trkpt lat="40.81519" lon="14.07214"><ele>2.0</ele><time>2026-04-09T13:45:31.687Z</time></trkpt><trkpt lat="40.8151433" lon="14.072205"><ele>2.0</ele><time>2026-04-09T13:45:32.685Z</time></trkpt><trkpt lat="40.8150967" lon="14.0722667"><ele>2.1666666666666665</ele><time>2026-04-09T13:45:33.685Z</time></trkpt><trkpt lat="40.8150517" lon="14.0723333"><ele>2.333333333333333</ele><time>2026-04-09T13:45:34.684Z</time></trkpt><trkpt lat="40.8149967" lon="14.0723917"><ele>2.5</ele><time>2026-04-09T13:45:35.685Z</time></trkpt><trkpt lat="40.8149083" lon="14.072515"><ele>2.6666666666666665</ele><time>2026-04-09T13:45:37.685Z</time></trkpt><trkpt lat="40.8148667" lon="14.0725783"><ele>2.8333333333333335</ele><time>2026-04-09T13:45:38.684Z</time></trkpt><trkpt lat="40.8148217" lon="14.0726367"><ele>3.0</ele><time>2026-04-09T13:45:39.684Z</time></trkpt><trkpt lat="40.814735" lon="14.072755"><ele>3.0</ele><time>2026-04-09T13:45:41.684Z</time></trkpt><trkpt lat="40.8146467" lon="14.072875"><ele>3.0</ele><time>2026-04-09T13:45:43.685Z</time></trkpt><trkpt lat="40.8146033" lon="14.0729367"><ele>3.0</ele><time>2026-04-09T13:45:44.685Z</time></trkpt><trkpt lat="40.8145183" lon="14.0730517"><ele>3.0</ele><time>2026-04-09T13:45:46.685Z</time></trkpt><trkpt lat="40.8144717" lon="14.0731117"><ele>3.0</ele><time>2026-04-09T13:45:47.685Z</time></trkpt><trkpt lat="40.814425" lon="14.0731717"><ele>3.0</ele><time>2026-04-09T13:45:48.684Z</time></trkpt><trkpt lat="40.8143767" lon="14.0732317"><ele>2.9999999999999996</ele><time>2026-04-09T13:45:49.684Z</time></trkpt><trkpt lat="40.8143367" lon="14.0733"><ele>3.0</ele><time>2026-04-09T13:45:50.684Z</time></trkpt><trkpt lat="40.81429" lon="14.0733667"><ele>3.0</ele><time>2026-04-09T13:45:51.684Z</time></trkpt><trkpt lat="40.8142417" lon="14.0734317"><ele>3.0</ele><time>2026-04-09T13:45:52.685Z</time></trkpt><trkpt lat="40.814195" lon="14.0734933"><ele>3.0</ele><time>2026-04-09T13:45:53.684Z</time></trkpt><trkpt lat="40.8141483" lon="14.0735617"><ele>2.9999999999999996</ele><time>2026-04-09T13:45:54.684Z</time></trkpt><trkpt lat="40.8141033" lon="14.07362"><ele>3.0</ele><time>2026-04-09T13:45:55.684Z</time></trkpt><trkpt lat="40.8140583" lon="14.07368"><ele>3.0</ele><time>2026-04-09T13:45:56.684Z</time></trkpt><trkpt lat="40.8140117" lon="14.0737383"><ele>3.0</ele><time>2026-04-09T13:45:57.685Z</time></trkpt><trkpt lat="40.8139233" lon="14.0738567"><ele>3.0</ele><time>2026-04-09T13:45:59.684Z</time></trkpt><trkpt lat="40.8138783" lon="14.0739167"><ele>3.0</ele><time>2026-04-09T13:46:00.684Z</time></trkpt><trkpt lat="40.8138283" lon="14.0739717"><ele>3.0</ele><time>2026-04-09T13:46:01.684Z</time></trkpt><trkpt lat="40.8137833" lon="14.074035"><ele>3.0</ele><time>2026-04-09T13:46:02.684Z</time></trkpt><trkpt lat="40.81371" lon="14.0741667"><ele>3.0</ele><time>2026-04-09T13:46:04.686Z</time></trkpt><trkpt lat="40.813635" lon="14.0742933"><ele>3.0</ele><time>2026-04-09T13:46:06.684Z</time></trkpt><trkpt lat="40.8135667" lon="14.0744033"><ele>3.0</ele><time>2026-04-09T13:46:08.685Z</time></trkpt><trkpt lat="40.81348" lon="14.0745083"><ele>3.0</ele><time>2026-04-09T13:46:10.684Z</time></trkpt><trkpt lat="40.8133983" lon="14.07461"><ele>3.2</ele><time>2026-04-09T13:46:12.685Z</time></trkpt><trkpt lat="40.8133283" lon="14.0747133"><ele>3.4</ele><time>2026-04-09T13:46:14.685Z</time></trkpt><trkpt lat="40.813265" lon="14.0748033"><ele>3.6000000000000005</ele><time>2026-04-09T13:46:16.685Z</time></trkpt><trkpt lat="40.8132" lon="14.07489"><ele>3.8000000000000003</ele><time>2026-04-09T13:46:18.685Z</time></trkpt><trkpt lat="40.8131283" lon="14.07498"><ele>4.0</ele><time>2026-04-09T13:46:20.684Z</time></trkpt><trkpt lat="40.8130633" lon="14.0750717"><ele>4.0</ele><time>2026-04-09T13:46:22.686Z</time></trkpt><trkpt lat="40.8129917" lon="14.0751633"><ele>4.0</ele><time>2026-04-09T13:46:24.686Z</time></trkpt><trkpt lat="40.8129233" lon="14.0752483"><ele>4.0</ele><time>2026-04-09T13:46:26.684Z</time></trkpt><trkpt lat="40.81285" lon="14.0753283"><ele>4.0</ele><time>2026-04-09T13:46:28.685Z</time></trkpt><trkpt lat="40.81277" lon="14.075395"><ele>4.0</ele><time>2026-04-09T13:46:30.685Z</time></trkpt><trkpt lat="40.8126833" lon="14.0754317"><ele>5.5</ele><time>2026-04-09T13:46:32.685Z</time></trkpt><trkpt lat="40.8125983" lon="14.0754367"><ele>7.0</ele><time>2026-04-09T13:46:34.685Z</time></trkpt><trkpt lat="40.81252" lon="14.0754433"><ele>8.5</ele><time>2026-04-09T13:46:36.686Z</time></trkpt><trkpt lat="40.8124433" lon="14.075445"><ele>10.0</ele><time>2026-04-09T13:46:38.684Z</time></trkpt><trkpt lat="40.8123633" lon="14.0754433"><ele>11.499999999999998</ele><time>2026-04-09T13:46:40.684Z</time></trkpt><trkpt lat="40.812285" lon="14.0754433"><ele>13.0</ele><time>2026-04-09T13:46:42.684Z</time></trkpt><trkpt lat="40.8122067" lon="14.0754483"><ele>13.0</ele><time>2026-04-09T13:46:44.685Z</time></trkpt><trkpt lat="40.81213" lon="14.0754417"><ele>13.0</ele><time>2026-04-09T13:46:46.684Z</time></trkpt><trkpt lat="40.8120483" lon="14.075435"><ele>13.0</ele><time>2026-04-09T13:46:48.686Z</time></trkpt><trkpt lat="40.8119767" lon="14.07545"><ele>13.0</ele><time>2026-04-09T13:46:50.684Z</time></trkpt><trkpt lat="40.8119117" lon="14.075475"><ele>13.0</ele><time>2026-04-09T13:46:52.684Z</time></trkpt><trkpt lat="40.8118533" lon="14.0755233"><ele>13.0</ele><time>2026-04-09T13:46:54.685Z</time></trkpt><trkpt lat="40.8118183" lon="14.0756133"><ele>13.0</ele><time>2026-04-09T13:46:56.685Z</time></trkpt><trkpt lat="40.8118033" lon="14.0757167"><ele>13.999999999999998</ele><time>2026-04-09T13:46:58.684Z</time></trkpt><trkpt lat="40.8117967" lon="14.0758167"><ele>15.0</ele><time>2026-04-09T13:47:00.684Z</time></trkpt><trkpt lat="40.811795" lon="14.0759183"><ele>16.0</ele><time>2026-04-09T13:47:02.685Z</time></trkpt><trkpt lat="40.8117917" lon="14.0760233"><ele>17.0</ele><time>2026-04-09T13:47:04.685Z</time></trkpt><trkpt lat="40.811785" lon="14.076125"><ele>18.0</ele><time>2026-04-09T13:47:06.691Z</time></trkpt><trkpt lat="40.8117817" lon="14.0762233"><ele>19.0</ele><time>2026-04-09T13:47:08.686Z</time></trkpt><trkpt lat="40.8117917" lon="14.0763217"><ele>19.0</ele><time>2026-04-09T13:47:10.686Z</time></trkpt><trkpt lat="40.81181" lon="14.07641"><ele>19.0</ele><time>2026-04-09T13:47:12.684Z</time></trkpt><trkpt lat="40.811815" lon="14.0764967"><ele>19.0</ele><time>2026-04-09T13:47:14.684Z</time></trkpt><trkpt lat="40.8118167" lon="14.0765883"><ele>19.0</ele><time>2026-04-09T13:47:16.685Z</time></trkpt><trkpt lat="40.81182" lon="14.076685"><ele>19.0</ele><time>2026-04-09T13:47:18.685Z</time></trkpt><trkpt lat="40.8118333" lon="14.076785"><ele>19.0</ele><time>2026-04-09T13:47:20.684Z</time></trkpt><trkpt lat="40.8118467" lon="14.07688"><ele>19.0</ele><time>2026-04-09T13:47:22.685Z</time></trkpt><trkpt lat="40.811855" lon="14.0769717"><ele>18.71428571428571</ele><time>2026-04-09T13:47:24.684Z</time></trkpt><trkpt lat="40.81185" lon="14.07706"><ele>18.42857142857143</ele><time>2026-04-09T13:47:26.685Z</time></trkpt><trkpt lat="40.8118533" lon="14.07715"><ele>18.142857142857142</ele><time>2026-04-09T13:47:28.685Z</time></trkpt><trkpt lat="40.8118733" lon="14.0772367"><ele>17.857142857142854</ele><time>2026-04-09T13:47:30.686Z</time></trkpt><trkpt lat="40.8118717" lon="14.07736"><ele>17.57142857142857</ele><time>2026-04-09T13:47:33.685Z</time></trkpt><trkpt lat="40.8118817" lon="14.0774467"><ele>17.285714285714285</ele><time>2026-04-09T13:47:35.684Z</time></trkpt><trkpt lat="40.8118917" lon="14.0775317"><ele>17.0</ele><time>2026-04-09T13:47:37.686Z</time></trkpt><trkpt lat="40.8118967" lon="14.077615"><ele>16.999999999999996</ele><time>2026-04-09T13:47:39.684Z</time></trkpt><trkpt lat="40.8118933" lon="14.0777017"><ele>17.0</ele><time>2026-04-09T13:47:41.684Z</time></trkpt><trkpt lat="40.8118833" lon="14.0777933"><ele>17.0</ele><time>2026-04-09T13:47:43.685Z</time></trkpt><trkpt lat="40.8118933" lon="14.0778767"><ele>17.0</ele><time>2026-04-09T13:47:45.687Z</time></trkpt><trkpt lat="40.8118983" lon="14.0779933"><ele>17.0</ele><time>2026-04-09T13:47:48.685Z</time></trkpt><trkpt lat="40.8119083" lon="14.07808"><ele>16.999999999999996</ele><time>2026-04-09T13:47:50.685Z</time></trkpt><trkpt lat="40.8119" lon="14.0781667"><ele>17.0</ele><time>2026-04-09T13:47:52.684Z</time></trkpt><trkpt lat="40.811855" lon="14.0782333"><ele>18.833333333333336</ele><time>2026-04-09T13:47:54.685Z</time></trkpt><trkpt lat="40.81179" lon="14.0782367"><ele>20.666666666666668</ele><time>2026-04-09T13:47:56.686Z</time></trkpt><trkpt lat="40.811745" lon="14.0781683"><ele>22.5</ele><time>2026-04-09T13:47:58.684Z</time></trkpt><trkpt lat="40.81174" lon="14.0780633"><ele>24.333333333333336</ele><time>2026-04-09T13:48:00.684Z</time></trkpt><trkpt lat="40.8117333" lon="14.0779433"><ele>26.166666666666668</ele><time>2026-04-09T13:48:02.684Z</time></trkpt><trkpt lat="40.8117167" lon="14.0778333"><ele>28.0</ele><time>2026-04-09T13:48:04.685Z</time></trkpt><trkpt lat="40.8117067" lon="14.0777283"><ele>28.0</ele><time>2026-04-09T13:48:06.685Z</time></trkpt><trkpt lat="40.811695" lon="14.0776167"><ele>27.999999999999996</ele><time>2026-04-09T13:48:08.685Z</time></trkpt><trkpt lat="40.8116767" lon="14.077505"><ele>27.999999999999996</ele><time>2026-04-09T13:48:10.685Z</time></trkpt><trkpt lat="40.8116567" lon="14.0773817"><ele>28.0</ele><time>2026-04-09T13:48:12.685Z</time></trkpt><trkpt lat="40.8116367" lon="14.0772617"><ele>28.0</ele><time>2026-04-09T13:48:14.684Z</time></trkpt><trkpt lat="40.8116117" lon="14.0771467"><ele>27.666666666666668</ele><time>2026-04-09T13:48:16.685Z</time></trkpt><trkpt lat="40.8115917" lon="14.0770317"><ele>27.333333333333336</ele><time>2026-04-09T13:48:18.685Z</time></trkpt><trkpt lat="40.811585" lon="14.076915"><ele>27.0</ele><time>2026-04-09T13:48:20.685Z</time></trkpt><trkpt lat="40.8115833" lon="14.076815"><ele>26.666666666666664</ele><time>2026-04-09T13:48:22.684Z</time></trkpt><trkpt lat="40.8115683" lon="14.0767133"><ele>26.333333333333332</ele><time>2026-04-09T13:48:24.685Z</time></trkpt><trkpt lat="40.8115417" lon="14.07662"><ele>26.0</ele><time>2026-04-09T13:48:26.686Z</time></trkpt><trkpt lat="40.8115033" lon="14.0765317"><ele>25.0</ele><time>2026-04-09T13:48:28.685Z</time></trkpt><trkpt lat="40.8114483" lon="14.07647"><ele>24.0</ele><time>2026-04-09T13:48:30.685Z</time></trkpt><trkpt lat="40.8113933" lon="14.07642"><ele>23.0</ele><time>2026-04-09T13:48:32.685Z</time></trkpt><trkpt lat="40.8113383" lon="14.0763633"><ele>22.0</ele><time>2026-04-09T13:48:34.685Z</time></trkpt><trkpt lat="40.8112783" lon="14.076315"><ele>21.0</ele><time>2026-04-09T13:48:36.686Z</time></trkpt><trkpt lat="40.8112167" lon="14.07628"><ele>20.0</ele><time>2026-04-09T13:48:38.686Z</time></trkpt><trkpt lat="40.8111333" lon="14.0762967"><ele>19.0</ele><time>2026-04-09T13:48:41.686Z</time></trkpt><trkpt lat="40.8110817" lon="14.0764033"><ele>19.0</ele><time>2026-04-09T13:48:44.685Z</time></trkpt><trkpt lat="40.8110883" lon="14.0765033"><ele>19.0</ele><time>2026-04-09T13:48:46.685Z</time></trkpt><trkpt lat="40.811115" lon="14.0766033"><ele>19.0</ele><time>2026-04-09T13:48:48.685Z</time></trkpt><trkpt lat="40.8111383" lon="14.076705"><ele>19.0</ele><time>2026-04-09T13:48:50.685Z</time></trkpt><trkpt lat="40.8111617" lon="14.076805"><ele>19.0</ele><time>2026-04-09T13:48:52.691Z</time></trkpt><trkpt lat="40.81119" lon="14.0768983"><ele>19.0</ele><time>2026-04-09T13:48:54.685Z</time></trkpt><trkpt lat="40.811205" lon="14.077"><ele>20.0</ele><time>2026-04-09T13:48:56.684Z</time></trkpt><trkpt lat="40.8112217" lon="14.0771017"><ele>21.0</ele><time>2026-04-09T13:48:58.683Z</time></trkpt><trkpt lat="40.8112367" lon="14.0771917"><ele>22.0</ele><time>2026-04-09T13:49:00.684Z</time></trkpt><trkpt lat="40.811245" lon="14.077285"><ele>23.0</ele><time>2026-04-09T13:49:02.684Z</time></trkpt><trkpt lat="40.8112517" lon="14.0773817"><ele>24.0</ele><time>2026-04-09T13:49:04.684Z</time></trkpt><trkpt lat="40.811255" lon="14.07748"><ele>25.0</ele><time>2026-04-09T13:49:06.684Z</time></trkpt><trkpt lat="40.81125" lon="14.0775867"><ele>26.0</ele><time>2026-04-09T13:49:08.684Z</time></trkpt><trkpt lat="40.8112383" lon="14.07769"><ele>26.333333333333332</ele><time>2026-04-09T13:49:10.683Z</time></trkpt><trkpt lat="40.811215" lon="14.0777883"><ele>26.666666666666664</ele><time>2026-04-09T13:49:12.683Z</time></trkpt><trkpt lat="40.8111767" lon="14.0778767"><ele>27.0</ele><time>2026-04-09T13:49:14.684Z</time></trkpt><trkpt lat="40.811125" lon="14.0779467"><ele>27.333333333333336</ele><time>2026-04-09T13:49:16.683Z</time></trkpt><trkpt lat="40.8110583" lon="14.0780033"><ele>27.666666666666668</ele><time>2026-04-09T13:49:18.684Z</time></trkpt><trkpt lat="40.810975" lon="14.07804"><ele>28.0</ele><time>2026-04-09T13:49:20.685Z</time></trkpt><trkpt lat="40.8108867" lon="14.07806"><ele>29.599999999999998</ele><time>2026-04-09T13:49:22.684Z</time></trkpt><trkpt lat="40.8107933" lon="14.0780883"><ele>31.199999999999996</ele><time>2026-04-09T13:49:24.684Z</time></trkpt><trkpt lat="40.8106983" lon="14.0781133"><ele>32.8</ele><time>2026-04-09T13:49:26.684Z</time></trkpt><trkpt lat="40.8106017" lon="14.0781383"><ele>34.4</ele><time>2026-04-09T13:49:28.684Z</time></trkpt><trkpt lat="40.8105117" lon="14.0781617"><ele>36.0</ele><time>2026-04-09T13:49:30.684Z</time></trkpt><trkpt lat="40.8104233" lon="14.0781867"><ele>36.0</ele><time>2026-04-09T13:49:32.684Z</time></trkpt><trkpt lat="40.81034" lon="14.0782167"><ele>36.0</ele><time>2026-04-09T13:49:34.685Z</time></trkpt><trkpt lat="40.810255" lon="14.078265"><ele>36.0</ele><time>2026-04-09T13:49:36.683Z</time></trkpt><trkpt lat="40.8101767" lon="14.0783383"><ele>36.0</ele><time>2026-04-09T13:49:38.684Z</time></trkpt><trkpt lat="40.81011" lon="14.0784367"><ele>36.0</ele><time>2026-04-09T13:49:40.684Z</time></trkpt><trkpt lat="40.8100483" lon="14.0785317"><ele>37.6</ele><time>2026-04-09T13:49:42.684Z</time></trkpt><trkpt lat="40.8099933" lon="14.0786233"><ele>39.2</ele><time>2026-04-09T13:49:44.684Z</time></trkpt><trkpt lat="40.8099367" lon="14.078715"><ele>40.800000000000004</ele><time>2026-04-09T13:49:46.684Z</time></trkpt><trkpt lat="40.80988" lon="14.07881"><ele>42.400000000000006</ele><time>2026-04-09T13:49:48.683Z</time></trkpt><trkpt lat="40.8098283" lon="14.078905"><ele>44.0</ele><time>2026-04-09T13:49:50.685Z</time></trkpt><trkpt lat="40.8097717" lon="14.0790033"><ele>44.2</ele><time>2026-04-09T13:49:52.684Z</time></trkpt><trkpt lat="40.80971" lon="14.0791033"><ele>44.400000000000006</ele><time>2026-04-09T13:49:54.684Z</time></trkpt><trkpt lat="40.8096467" lon="14.0792133"><ele>44.6</ele><time>2026-04-09T13:49:56.684Z</time></trkpt><trkpt lat="40.80957" lon="14.0793283"><ele>44.8</ele><time>2026-04-09T13:49:58.684Z</time></trkpt><trkpt lat="40.809485" lon="14.0794433"><ele>45.0</ele><time>2026-04-09T13:50:00.684Z</time></trkpt><trkpt lat="40.8094417" lon="14.079505"><ele>45.0</ele><time>2026-04-09T13:50:01.684Z</time></trkpt><trkpt lat="40.8093983" lon="14.0795667"><ele>45.0</ele><time>2026-04-09T13:50:02.685Z</time></trkpt><trkpt lat="40.809355" lon="14.0796333"><ele>45.0</ele><time>2026-04-09T13:50:03.683Z</time></trkpt><trkpt lat="40.8093067" lon="14.0796967"><ele>45.0</ele><time>2026-04-09T13:50:04.684Z</time></trkpt><trkpt lat="40.8092517" lon="14.079755"><ele>45.0</ele><time>2026-04-09T13:50:05.685Z</time></trkpt><trkpt lat="40.8091967" lon="14.0798133"><ele>45.0</ele><time>2026-04-09T13:50:06.684Z</time></trkpt><trkpt lat="40.809145" lon="14.0798783"><ele>45.0</ele><time>2026-04-09T13:50:07.684Z</time></trkpt><trkpt lat="40.8090883" lon="14.07994"><ele>43.833333333333336</ele><time>2026-04-09T13:50:08.684Z</time></trkpt><trkpt lat="40.8090233" lon="14.0799933"><ele>42.666666666666664</ele><time>2026-04-09T13:50:09.687Z</time></trkpt><trkpt lat="40.8089617" lon="14.08004"><ele>41.5</ele><time>2026-04-09T13:50:10.687Z</time></trkpt><trkpt lat="40.8089033" lon="14.080085"><ele>40.33333333333333</ele><time>2026-04-09T13:50:11.687Z</time></trkpt><trkpt lat="40.8088517" lon="14.0801383"><ele>39.166666666666664</ele><time>2026-04-09T13:50:12.688Z</time></trkpt><trkpt lat="40.8087617" lon="14.0802217"><ele>38.0</ele><time>2026-04-09T13:50:14.685Z</time></trkpt><trkpt lat="40.8086767" lon="14.0802717"><ele>38.0</ele><time>2026-04-09T13:50:16.685Z</time></trkpt><trkpt lat="40.808615" lon="14.0803"><ele>38.0</ele><time>2026-04-09T13:50:18.684Z</time></trkpt><trkpt lat="40.80855" lon="14.08027"><ele>38.0</ele><time>2026-04-09T13:51:09.684Z</time></trkpt><trkpt lat="40.8084633" lon="14.0802183"><ele>38.0</ele><time>2026-04-09T13:51:12.684Z</time></trkpt><trkpt lat="40.8083767" lon="14.08019"><ele>38.0</ele><time>2026-04-09T13:51:14.685Z</time></trkpt><trkpt lat="40.80828" lon="14.0801667"><ele>38.0</ele><time>2026-04-09T13:51:16.688Z</time></trkpt><trkpt lat="40.8081717" lon="14.08013"><ele>36.166666666666664</ele><time>2026-04-09T13:51:18.685Z</time></trkpt><trkpt lat="40.8081117" lon="14.0800967"><ele>34.33333333333333</ele><time>2026-04-09T13:51:19.685Z</time></trkpt><trkpt lat="40.8079933" lon="14.0800367"><ele>32.5</ele><time>2026-04-09T13:51:21.684Z</time></trkpt><trkpt lat="40.8079333" lon="14.079995"><ele>30.666666666666664</ele><time>2026-04-09T13:51:22.685Z</time></trkpt><trkpt lat="40.8078717" lon="14.0799583"><ele>28.833333333333332</ele><time>2026-04-09T13:51:23.686Z</time></trkpt><trkpt lat="40.8078083" lon="14.0799217"><ele>27.0</ele><time>2026-04-09T13:51:24.686Z</time></trkpt><trkpt lat="40.8077417" lon="14.079885"><ele>28.0</ele><time>2026-04-09T13:51:25.687Z</time></trkpt><trkpt lat="40.807675" lon="14.079835"><ele>29.0</ele><time>2026-04-09T13:51:26.686Z</time></trkpt><trkpt lat="40.8076083" lon="14.0797883"><ele>30.0</ele><time>2026-04-09T13:51:27.685Z</time></trkpt><trkpt lat="40.8075367" lon="14.0797517"><ele>31.0</ele><time>2026-04-09T13:51:28.685Z</time></trkpt><trkpt lat="40.80746" lon="14.0797167"><ele>32.0</ele><time>2026-04-09T13:51:29.685Z</time></trkpt><trkpt lat="40.8073867" lon="14.0796817"><ele>33.0</ele><time>2026-04-09T13:51:30.684Z</time></trkpt><trkpt lat="40.8073233" lon="14.0796567"><ele>33.0</ele><time>2026-04-09T13:51:31.684Z</time></trkpt><trkpt lat="40.8072633" lon="14.0796283"><ele>33.0</ele><time>2026-04-09T13:51:32.684Z</time></trkpt><trkpt lat="40.8072017" lon="14.0796033"><ele>33.0</ele><time>2026-04-09T13:51:33.684Z</time></trkpt><trkpt lat="40.8071367" lon="14.0795733"><ele>33.0</ele><time>2026-04-09T13:51:34.687Z</time></trkpt><trkpt lat="40.8070683" lon="14.0795383"><ele>33.0</ele><time>2026-04-09T13:51:35.684Z</time></trkpt><trkpt lat="40.8069983" lon="14.0795017"><ele>33.0</ele><time>2026-04-09T13:51:36.684Z</time></trkpt><trkpt lat="40.8069317" lon="14.0794667"><ele>33.0</ele><time>2026-04-09T13:51:37.684Z</time></trkpt><trkpt lat="40.8068617" lon="14.079435"><ele>33.14285714285714</ele><time>2026-04-09T13:51:38.684Z</time></trkpt><trkpt lat="40.8067933" lon="14.0794067"><ele>33.285714285714285</ele><time>2026-04-09T13:51:39.684Z</time></trkpt><trkpt lat="40.806725" lon="14.07938"><ele>33.42857142857143</ele><time>2026-04-09T13:51:40.684Z</time></trkpt><trkpt lat="40.8066517" lon="14.0793517"><ele>33.57142857142857</ele><time>2026-04-09T13:51:41.684Z</time></trkpt><trkpt lat="40.8065833" lon="14.079325"><ele>33.714285714285715</ele><time>2026-04-09T13:51:42.684Z</time></trkpt><trkpt lat="40.8065083" lon="14.0793"><ele>33.857142857142854</ele><time>2026-04-09T13:51:43.684Z</time></trkpt><trkpt lat="40.8064317" lon="14.07929"><ele>34.0</ele><time>2026-04-09T13:51:44.684Z</time></trkpt><trkpt lat="40.8063467" lon="14.07929"><ele>34.0</ele><time>2026-04-09T13:51:45.685Z</time></trkpt><trkpt lat="40.8062583" lon="14.079295"><ele>34.0</ele><time>2026-04-09T13:51:46.684Z</time></trkpt><trkpt lat="40.8061617" lon="14.0793017"><ele>34.0</ele><time>2026-04-09T13:51:47.684Z</time></trkpt><trkpt lat="40.8060717" lon="14.0793117"><ele>34.0</ele><time>2026-04-09T13:51:48.684Z</time></trkpt><trkpt lat="40.80598" lon="14.0793233"><ele>34.0</ele><time>2026-04-09T13:51:49.685Z</time></trkpt><trkpt lat="40.8058867" lon="14.0793367"><ele>33.285714285714285</ele><time>2026-04-09T13:51:50.684Z</time></trkpt><trkpt lat="40.8058083" lon="14.07935"><ele>32.57142857142857</ele><time>2026-04-09T13:51:51.684Z</time></trkpt><trkpt lat="40.8057367" lon="14.079355"><ele>31.857142857142858</ele><time>2026-04-09T13:51:52.684Z</time></trkpt><trkpt lat="40.8056617" lon="14.0793433"><ele>31.142857142857142</ele><time>2026-04-09T13:51:53.685Z</time></trkpt><trkpt lat="40.8055933" lon="14.079315"><ele>30.42857142857143</ele><time>2026-04-09T13:51:54.684Z</time></trkpt><trkpt lat="40.8055317" lon="14.0792683"><ele>29.71428571428572</ele><time>2026-04-09T13:51:55.685Z</time></trkpt><trkpt lat="40.8054717" lon="14.079215"><ele>29.000000000000004</ele><time>2026-04-09T13:51:56.686Z</time></trkpt><trkpt lat="40.805415" lon="14.079165"><ele>28.999999999999996</ele><time>2026-04-09T13:51:57.686Z</time></trkpt><trkpt lat="40.8053583" lon="14.0791033"><ele>29.0</ele><time>2026-04-09T13:51:58.685Z</time></trkpt><trkpt lat="40.8052983" lon="14.079045"><ele>29.0</ele><time>2026-04-09T13:51:59.685Z</time></trkpt><trkpt lat="40.805235" lon="14.0789817"><ele>29.0</ele><time>2026-04-09T13:52:00.685Z</time></trkpt><trkpt lat="40.8051717" lon="14.0789267"><ele>28.999999999999996</ele><time>2026-04-09T13:52:01.685Z</time></trkpt><trkpt lat="40.8051033" lon="14.0788717"><ele>29.0</ele><time>2026-04-09T13:52:02.686Z</time></trkpt><trkpt lat="40.80503" lon="14.0788217"><ele>29.833333333333332</ele><time>2026-04-09T13:52:03.686Z</time></trkpt><trkpt lat="40.804955" lon="14.07877"><ele>30.666666666666664</ele><time>2026-04-09T13:52:04.685Z</time></trkpt><trkpt lat="40.8048783" lon="14.0787217"><ele>31.5</ele><time>2026-04-09T13:52:05.686Z</time></trkpt><trkpt lat="40.8047983" lon="14.0786833"><ele>32.333333333333336</ele><time>2026-04-09T13:52:06.685Z</time></trkpt><trkpt lat="40.804715" lon="14.0786533"><ele>33.16666666666667</ele><time>2026-04-09T13:52:07.685Z</time></trkpt><trkpt lat="40.8046283" lon="14.0786283"><ele>34.0</ele><time>2026-04-09T13:52:08.685Z</time></trkpt><trkpt lat="40.804545" lon="14.07861"><ele>34.0</ele><time>2026-04-09T13:52:09.685Z</time></trkpt><trkpt lat="40.8044617" lon="14.0785883"><ele>34.0</ele><time>2026-04-09T13:52:10.684Z</time></trkpt><trkpt lat="40.80438" lon="14.078565"><ele>34.0</ele><time>2026-04-09T13:52:11.684Z</time></trkpt><trkpt lat="40.8042983" lon="14.07854"><ele>34.0</ele><time>2026-04-09T13:52:12.684Z</time></trkpt><trkpt lat="40.804215" lon="14.0785183"><ele>34.0</ele><time>2026-04-09T13:52:13.686Z</time></trkpt><trkpt lat="40.804135" lon="14.078495"><ele>34.0</ele><time>2026-04-09T13:52:14.684Z</time></trkpt><trkpt lat="40.8040533" lon="14.07847"><ele>33.5</ele><time>2026-04-09T13:52:15.684Z</time></trkpt><trkpt lat="40.80397" lon="14.078445"><ele>33.0</ele><time>2026-04-09T13:52:16.684Z</time></trkpt><trkpt lat="40.8038883" lon="14.0784383"><ele>32.5</ele><time>2026-04-09T13:52:17.684Z</time></trkpt><trkpt lat="40.8038083" lon="14.078425"><ele>32.0</ele><time>2026-04-09T13:52:18.684Z</time></trkpt><trkpt lat="40.8037267" lon="14.0784067"><ele>31.500000000000004</ele><time>2026-04-09T13:52:19.684Z</time></trkpt><trkpt lat="40.8036483" lon="14.0783917"><ele>31.0</ele><time>2026-04-09T13:52:20.685Z</time></trkpt><trkpt lat="40.8035717" lon="14.07837"><ele>30.833333333333336</ele><time>2026-04-09T13:52:21.684Z</time></trkpt><trkpt lat="40.8034933" lon="14.0783467"><ele>30.666666666666668</ele><time>2026-04-09T13:52:22.684Z</time></trkpt><trkpt lat="40.803415" lon="14.0783267"><ele>30.5</ele><time>2026-04-09T13:52:23.685Z</time></trkpt><trkpt lat="40.8033383" lon="14.07831"><ele>30.333333333333336</ele><time>2026-04-09T13:52:24.684Z</time></trkpt><trkpt lat="40.8032617" lon="14.0782917"><ele>30.166666666666668</ele><time>2026-04-09T13:52:25.684Z</time></trkpt><trkpt lat="40.8031867" lon="14.0782717"><ele>30.0</ele><time>2026-04-09T13:52:26.684Z</time></trkpt><trkpt lat="40.8031117" lon="14.0782483"><ele>31.666666666666668</ele><time>2026-04-09T13:52:27.684Z</time></trkpt><trkpt lat="40.8030367" lon="14.0782167"><ele>33.333333333333336</ele><time>2026-04-09T13:52:28.686Z</time></trkpt><trkpt lat="40.8029633" lon="14.078195"><ele>35.0</ele><time>2026-04-09T13:52:29.684Z</time></trkpt><trkpt lat="40.8028917" lon="14.0781767"><ele>36.66666666666667</ele><time>2026-04-09T13:52:30.685Z</time></trkpt><trkpt lat="40.8028167" lon="14.0781567"><ele>38.333333333333336</ele><time>2026-04-09T13:52:31.685Z</time></trkpt><trkpt lat="40.8027433" lon="14.0781333"><ele>40.0</ele><time>2026-04-09T13:52:32.684Z</time></trkpt><trkpt lat="40.8026683" lon="14.07811"><ele>39.285714285714285</ele><time>2026-04-09T13:52:33.684Z</time></trkpt><trkpt lat="40.8025917" lon="14.078085"><ele>38.57142857142857</ele><time>2026-04-09T13:52:34.685Z</time></trkpt><trkpt lat="40.8025183" lon="14.0780583"><ele>37.85714285714286</ele><time>2026-04-09T13:52:35.684Z</time></trkpt><trkpt lat="40.8024483" lon="14.0780333"><ele>37.14285714285714</ele><time>2026-04-09T13:52:36.686Z</time></trkpt><trkpt lat="40.8023767" lon="14.0780133"><ele>36.42857142857143</ele><time>2026-04-09T13:52:37.685Z</time></trkpt><trkpt lat="40.8023067" lon="14.0779883"><ele>35.714285714285715</ele><time>2026-04-09T13:52:38.686Z</time></trkpt><trkpt lat="40.8022417" lon="14.0779583"><ele>35.0</ele><time>2026-04-09T13:52:39.684Z</time></trkpt><trkpt lat="40.8021783" lon="14.0779267"><ele>35.0</ele><time>2026-04-09T13:52:40.684Z</time></trkpt><trkpt lat="40.8021183" lon="14.077895"><ele>35.0</ele><time>2026-04-09T13:52:41.686Z</time></trkpt><trkpt lat="40.8020533" lon="14.077865"><ele>35.0</ele><time>2026-04-09T13:52:42.684Z</time></trkpt><trkpt lat="40.801985" lon="14.0778383"><ele>35.0</ele><time>2026-04-09T13:52:43.685Z</time></trkpt><trkpt lat="40.8019083" lon="14.0778133"><ele>35.0</ele><time>2026-04-09T13:52:44.684Z</time></trkpt><trkpt lat="40.80183" lon="14.0777867"><ele>35.0</ele><time>2026-04-09T13:52:45.685Z</time></trkpt><trkpt lat="40.8017467" lon="14.07776"><ele>33.4</ele><time>2026-04-09T13:52:46.684Z</time></trkpt><trkpt lat="40.801655" lon="14.0777317"><ele>31.8</ele><time>2026-04-09T13:52:47.685Z</time></trkpt><trkpt lat="40.8015633" lon="14.0776983"><ele>30.200000000000003</ele><time>2026-04-09T13:52:48.685Z</time></trkpt><trkpt lat="40.8014733" lon="14.0776617"><ele>28.6</ele><time>2026-04-09T13:52:49.684Z</time></trkpt><trkpt lat="40.80138" lon="14.0776333"><ele>27.0</ele><time>2026-04-09T13:52:50.685Z</time></trkpt><trkpt lat="40.80129" lon="14.0776033"><ele>27.0</ele><time>2026-04-09T13:52:51.685Z</time></trkpt><trkpt lat="40.8012017" lon="14.077585"><ele>27.000000000000004</ele><time>2026-04-09T13:52:52.684Z</time></trkpt><trkpt lat="40.801115" lon="14.0775617"><ele>27.000000000000004</ele><time>2026-04-09T13:52:53.684Z</time></trkpt><trkpt lat="40.8010283" lon="14.0775333"><ele>27.0</ele><time>2026-04-09T13:52:54.684Z</time></trkpt><trkpt lat="40.80094" lon="14.0775033"><ele>27.0</ele><time>2026-04-09T13:52:55.687Z</time></trkpt><trkpt lat="40.8008483" lon="14.0774767"><ele>26.0</ele><time>2026-04-09T13:52:56.684Z</time></trkpt><trkpt lat="40.800755" lon="14.0774517"><ele>25.000000000000004</ele><time>2026-04-09T13:52:57.684Z</time></trkpt><trkpt lat="40.8006583" lon="14.0774233"><ele>24.0</ele><time>2026-04-09T13:52:58.685Z</time></trkpt><trkpt lat="40.80056" lon="14.0773917"><ele>23.0</ele><time>2026-04-09T13:52:59.684Z</time></trkpt><trkpt lat="40.8004667" lon="14.0773583"><ele>22.0</ele><time>2026-04-09T13:53:00.684Z</time></trkpt><trkpt lat="40.8003733" lon="14.0773267"><ele>22.0</ele><time>2026-04-09T13:53:01.685Z</time></trkpt><trkpt lat="40.8002833" lon="14.0773"><ele>22.0</ele><time>2026-04-09T13:53:02.685Z</time></trkpt><trkpt lat="40.8001933" lon="14.0772733"><ele>22.0</ele><time>2026-04-09T13:53:03.684Z</time></trkpt><trkpt lat="40.800105" lon="14.0772433"><ele>22.0</ele><time>2026-04-09T13:53:04.685Z</time></trkpt><trkpt lat="40.8000217" lon="14.0772117"><ele>22.0</ele><time>2026-04-09T13:53:05.684Z</time></trkpt><trkpt lat="40.7999467" lon="14.07719"><ele>22.0</ele><time>2026-04-09T13:53:06.685Z</time></trkpt><trkpt lat="40.799875" lon="14.0771683"><ele>20.857142857142858</ele><time>2026-04-09T13:53:07.693Z</time></trkpt><trkpt lat="40.7998067" lon="14.07715"><ele>19.714285714285715</ele><time>2026-04-09T13:53:08.685Z</time></trkpt><trkpt lat="40.7997417" lon="14.0771333"><ele>18.57142857142857</ele><time>2026-04-09T13:53:09.684Z</time></trkpt><trkpt lat="40.7996783" lon="14.07713"><ele>17.42857142857143</ele><time>2026-04-09T13:53:10.684Z</time></trkpt><trkpt lat="40.79961" lon="14.0771417"><ele>16.285714285714285</ele><time>2026-04-09T13:53:11.684Z</time></trkpt><trkpt lat="40.7995467" lon="14.0771567"><ele>15.142857142857142</ele><time>2026-04-09T13:53:12.684Z</time></trkpt><trkpt lat="40.7994417" lon="14.077215"><ele>14.0</ele><time>2026-04-09T13:53:14.685Z</time></trkpt><trkpt lat="40.7993417" lon="14.0772667"><ele>13.166666666666668</ele><time>2026-04-09T13:53:16.689Z</time></trkpt><trkpt lat="40.7992183" lon="14.077295"><ele>12.333333333333334</ele><time>2026-04-09T13:53:18.684Z</time></trkpt><trkpt lat="40.7991533" lon="14.0772967"><ele>11.5</ele><time>2026-04-09T13:53:19.684Z</time></trkpt><trkpt lat="40.7990867" lon="14.07729"><ele>10.666666666666668</ele><time>2026-04-09T13:53:20.684Z</time></trkpt><trkpt lat="40.7990183" lon="14.07729"><ele>9.833333333333334</ele><time>2026-04-09T13:53:21.684Z</time></trkpt><trkpt lat="40.79895" lon="14.0772733"><ele>9.0</ele><time>2026-04-09T13:53:22.687Z</time></trkpt><trkpt lat="40.7988817" lon="14.0772533"><ele>9.0</ele><time>2026-04-09T13:53:23.684Z</time></trkpt><trkpt lat="40.7988083" lon="14.0772283"><ele>9.0</ele><time>2026-04-09T13:53:24.684Z</time></trkpt><trkpt lat="40.7987367" lon="14.077205"><ele>9.0</ele><time>2026-04-09T13:53:25.686Z</time></trkpt><trkpt lat="40.7986617" lon="14.07718"><ele>9.0</ele><time>2026-04-09T13:53:26.684Z</time></trkpt><trkpt lat="40.7985917" lon="14.0771533"><ele>9.0</ele><time>2026-04-09T13:53:27.685Z</time></trkpt><trkpt lat="40.79852" lon="14.077135"><ele>9.0</ele><time>2026-04-09T13:53:28.684Z</time></trkpt><trkpt lat="40.7984433" lon="14.0771133"><ele>8.333333333333334</ele><time>2026-04-09T13:53:29.684Z</time></trkpt><trkpt lat="40.798365" lon="14.0770817"><ele>7.666666666666667</ele><time>2026-04-09T13:53:30.684Z</time></trkpt><trkpt lat="40.7982883" lon="14.0770567"><ele>7.0</ele><time>2026-04-09T13:53:31.684Z</time></trkpt><trkpt lat="40.798215" lon="14.0770167"><ele>6.333333333333334</ele><time>2026-04-09T13:53:32.684Z</time></trkpt><trkpt lat="40.7981417" lon="14.0769767"><ele>5.666666666666667</ele><time>2026-04-09T13:53:33.684Z</time></trkpt><trkpt lat="40.7980667" lon="14.0769433"><ele>5.0</ele><time>2026-04-09T13:53:34.687Z</time></trkpt><trkpt lat="40.7979917" lon="14.0769117"><ele>5.0</ele><time>2026-04-09T13:53:35.684Z</time></trkpt><trkpt lat="40.797915" lon="14.0768883"><ele>5.0</ele><time>2026-04-09T13:53:36.684Z</time></trkpt><trkpt lat="40.7978417" lon="14.076865"><ele>5.0</ele><time>2026-04-09T13:53:37.685Z</time></trkpt><trkpt lat="40.79777" lon="14.0768467"><ele>5.0</ele><time>2026-04-09T13:53:38.685Z</time></trkpt><trkpt lat="40.7977" lon="14.0768283"><ele>5.0</ele><time>2026-04-09T13:53:39.684Z</time></trkpt><trkpt lat="40.7976333" lon="14.0768117"><ele>5.0</ele><time>2026-04-09T13:53:40.684Z</time></trkpt><trkpt lat="40.79752" lon="14.07679"><ele>4.25</ele><time>2026-04-09T13:53:42.684Z</time></trkpt><trkpt lat="40.7974217" lon="14.0767617"><ele>3.5</ele><time>2026-04-09T13:53:44.684Z</time></trkpt><trkpt lat="40.7973117" lon="14.076735"><ele>2.75</ele><time>2026-04-09T13:53:46.685Z</time></trkpt><trkpt lat="40.7972" lon="14.076685"><ele>2.0</ele><time>2026-04-09T13:53:48.684Z</time></trkpt><trkpt lat="40.7970817" lon="14.0766283"><ele>1.9999999999999998</ele><time>2026-04-09T13:53:50.685Z</time></trkpt><trkpt lat="40.7970183" lon="14.0766083"><ele>2.0</ele><time>2026-04-09T13:53:51.684Z</time></trkpt><trkpt lat="40.7969033" lon="14.076575"><ele>2.0</ele><time>2026-04-09T13:53:53.684Z</time></trkpt><trkpt lat="40.79683" lon="14.0765333"><ele>2.0</ele><time>2026-04-09T13:53:55.685Z</time></trkpt><trkpt lat="40.7968117" lon="14.0764267"><ele>1.9999999999999998</ele><time>2026-04-09T13:53:58.684Z</time></trkpt><trkpt lat="40.796845" lon="14.0763133"><ele>2.0</ele><time>2026-04-09T13:54:00.685Z</time></trkpt><trkpt lat="40.7968783" lon="14.076185"><ele>1.9999999999999998</ele><time>2026-04-09T13:54:02.684Z</time></trkpt><trkpt lat="40.7969167" lon="14.076045"><ele>2.0</ele><time>2026-04-09T13:54:04.686Z</time></trkpt><trkpt lat="40.7969483" lon="14.075895"><ele>2.0</ele><time>2026-04-09T13:54:06.686Z</time></trkpt><trkpt lat="40.7969633" lon="14.0758133"><ele>2.0</ele><time>2026-04-09T13:54:07.686Z</time></trkpt><trkpt lat="40.796975" lon="14.0757283"><ele>1.9999999999999998</ele><time>2026-04-09T13:54:08.69Z</time></trkpt><trkpt lat="40.7969883" lon="14.0756417"><ele>2.0</ele><time>2026-04-09T13:54:09.686Z</time></trkpt><trkpt lat="40.7969967" lon="14.0755567"><ele>2.142857142857143</ele><time>2026-04-09T13:54:10.69Z</time></trkpt><trkpt lat="40.7970017" lon="14.0754683"><ele>2.2857142857142856</ele><time>2026-04-09T13:54:11.685Z</time></trkpt><trkpt lat="40.797005" lon="14.0753767"><ele>2.4285714285714284</ele><time>2026-04-09T13:54:12.691Z</time></trkpt><trkpt lat="40.7970017" lon="14.0752833"><ele>2.571428571428571</ele><time>2026-04-09T13:54:13.685Z</time></trkpt><trkpt lat="40.7969983" lon="14.0751883"><ele>2.7142857142857144</ele><time>2026-04-09T13:54:14.685Z</time></trkpt><trkpt lat="40.79699" lon="14.075095"><ele>2.8571428571428568</ele><time>2026-04-09T13:54:15.686Z</time></trkpt><trkpt lat="40.79698" lon="14.0749983"><ele>3.0</ele><time>2026-04-09T13:54:16.685Z</time></trkpt><trkpt lat="40.7969633" lon="14.0749067"><ele>2.9999999999999996</ele><time>2026-04-09T13:54:17.686Z</time></trkpt><trkpt lat="40.7969433" lon="14.0748117"><ele>3.0</ele><time>2026-04-09T13:54:18.686Z</time></trkpt><trkpt lat="40.7969217" lon="14.0747217"><ele>3.0</ele><time>2026-04-09T13:54:19.685Z</time></trkpt><trkpt lat="40.7968983" lon="14.0746317"><ele>3.0</ele><time>2026-04-09T13:54:20.686Z</time></trkpt><trkpt lat="40.79687" lon="14.0745417"><ele>3.0</ele><time>2026-04-09T13:54:21.685Z</time></trkpt><trkpt lat="40.7968433" lon="14.0744517"><ele>2.9999999999999996</ele><time>2026-04-09T13:54:22.686Z</time></trkpt><trkpt lat="40.79681" lon="14.0743667"><ele>3.0</ele><time>2026-04-09T13:54:23.685Z</time></trkpt><trkpt lat="40.7967667" lon="14.074285"><ele>2.8571428571428568</ele><time>2026-04-09T13:54:24.685Z</time></trkpt><trkpt lat="40.79672" lon="14.0742067"><ele>2.7142857142857144</ele><time>2026-04-09T13:54:25.685Z</time></trkpt><trkpt lat="40.7966733" lon="14.074135"><ele>2.571428571428571</ele><time>2026-04-09T13:54:26.686Z</time></trkpt><trkpt lat="40.7966217" lon="14.07407"><ele>2.4285714285714284</ele><time>2026-04-09T13:54:27.686Z</time></trkpt><trkpt lat="40.796575" lon="14.0740067"><ele>2.2857142857142856</ele><time>2026-04-09T13:54:28.686Z</time></trkpt><trkpt lat="40.7965267" lon="14.073945"><ele>2.142857142857143</ele><time>2026-04-09T13:54:29.686Z</time></trkpt><trkpt lat="40.7964767" lon="14.0738883"><ele>2.0</ele><time>2026-04-09T13:54:30.686Z</time></trkpt><trkpt lat="40.7964283" lon="14.0738317"><ele>2.0</ele><time>2026-04-09T13:54:31.687Z</time></trkpt><trkpt lat="40.7963783" lon="14.0737733"><ele>1.9999999999999998</ele><time>2026-04-09T13:54:32.686Z</time></trkpt><trkpt lat="40.79633" lon="14.0737167"><ele>2.0</ele><time>2026-04-09T13:54:33.685Z</time></trkpt><trkpt lat="40.79628" lon="14.073655"><ele>2.0</ele><time>2026-04-09T13:54:34.686Z</time></trkpt><trkpt lat="40.7962283" lon="14.073595"><ele>1.9999999999999998</ele><time>2026-04-09T13:54:35.686Z</time></trkpt><trkpt lat="40.79618" lon="14.073535"><ele>2.0</ele><time>2026-04-09T13:54:36.686Z</time></trkpt><trkpt lat="40.7961333" lon="14.07347"><ele>2.0</ele><time>2026-04-09T13:54:37.686Z</time></trkpt><trkpt lat="40.7960883" lon="14.0734033"><ele>2.0</ele><time>2026-04-09T13:54:38.686Z</time></trkpt><trkpt lat="40.79605" lon="14.0733317"><ele>1.9999999999999998</ele><time>2026-04-09T13:54:39.687Z</time></trkpt><trkpt lat="40.7960183" lon="14.0732533"><ele>2.0</ele><time>2026-04-09T13:54:40.686Z</time></trkpt><trkpt lat="40.795995" lon="14.0731617"><ele>2.0</ele><time>2026-04-09T13:54:41.686Z</time></trkpt><trkpt lat="40.79598" lon="14.0730667"><ele>1.9999999999999998</ele><time>2026-04-09T13:54:42.686Z</time></trkpt><trkpt lat="40.7959683" lon="14.0729717"><ele>2.0</ele><time>2026-04-09T13:54:43.686Z</time></trkpt><trkpt lat="40.7959617" lon="14.072875"><ele>2.0</ele><time>2026-04-09T13:54:44.686Z</time></trkpt><trkpt lat="40.7959583" lon="14.0727817"><ele>2.0</ele><time>2026-04-09T13:54:45.685Z</time></trkpt><trkpt lat="40.7959583" lon="14.0726917"><ele>1.9999999999999998</ele><time>2026-04-09T13:54:46.686Z</time></trkpt><trkpt lat="40.7959567" lon="14.0725967"><ele>2.0</ele><time>2026-04-09T13:54:47.686Z</time></trkpt><trkpt lat="40.7959533" lon="14.0725"><ele>2.0</ele><time>2026-04-09T13:54:48.686Z</time></trkpt><trkpt lat="40.7959517" lon="14.0724033"><ele>1.9999999999999998</ele><time>2026-04-09T13:54:49.687Z</time></trkpt><trkpt lat="40.79595" lon="14.072305"><ele>2.0</ele><time>2026-04-09T13:54:50.686Z</time></trkpt><trkpt lat="40.7959433" lon="14.0722117"><ele>2.0</ele><time>2026-04-09T13:54:51.688Z</time></trkpt><trkpt lat="40.79594" lon="14.0721167"><ele>1.857142857142857</ele><time>2026-04-09T13:54:52.686Z</time></trkpt><trkpt lat="40.7959333" lon="14.07202"><ele>1.714285714285714</ele><time>2026-04-09T13:54:53.685Z</time></trkpt><trkpt lat="40.795925" lon="14.0719233"><ele>1.5714285714285714</ele><time>2026-04-09T13:54:54.685Z</time></trkpt><trkpt lat="40.7959167" lon="14.0718283"><ele>1.4285714285714284</ele><time>2026-04-09T13:54:55.686Z</time></trkpt><trkpt lat="40.7959033" lon="14.071735"><ele>1.2857142857142856</ele><time>2026-04-09T13:54:56.685Z</time></trkpt><trkpt lat="40.79589" lon="14.07164"><ele>1.1428571428571428</ele><time>2026-04-09T13:54:57.685Z</time></trkpt><trkpt lat="40.7958767" lon="14.071545"><ele>1.0</ele><time>2026-04-09T13:54:58.686Z</time></trkpt><trkpt lat="40.7958617" lon="14.0714517"><ele>1.0</ele><time>2026-04-09T13:54:59.685Z</time></trkpt><trkpt lat="40.7958417" lon="14.07136"><ele>0.9999999999999999</ele><time>2026-04-09T13:55:00.685Z</time></trkpt><trkpt lat="40.79582" lon="14.0712717"><ele>1.0</ele><time>2026-04-09T13:55:01.687Z</time></trkpt><trkpt lat="40.7957967" lon="14.071185"><ele>1.0</ele><time>2026-04-09T13:55:02.685Z</time></trkpt><trkpt lat="40.79577" lon="14.0710967"><ele>0.9999999999999999</ele><time>2026-04-09T13:55:03.685Z</time></trkpt><trkpt lat="40.795745" lon="14.0710067"><ele>1.0</ele><time>2026-04-09T13:55:04.686Z</time></trkpt><trkpt lat="40.7957183" lon="14.07092"><ele>1.0</ele><time>2026-04-09T13:55:05.686Z</time></trkpt><trkpt lat="40.7956917" lon="14.0708367"><ele>1.0</ele><time>2026-04-09T13:55:06.685Z</time></trkpt><trkpt lat="40.7956683" lon="14.0707483"><ele>0.9999999999999999</ele><time>2026-04-09T13:55:07.686Z</time></trkpt><trkpt lat="40.7956433" lon="14.0706583"><ele>1.0</ele><time>2026-04-09T13:55:08.686Z</time></trkpt><trkpt lat="40.795615" lon="14.0705683"><ele>1.0</ele><time>2026-04-09T13:55:09.687Z</time></trkpt><trkpt lat="40.7955883" lon="14.07048"><ele>0.9999999999999999</ele><time>2026-04-09T13:55:10.686Z</time></trkpt><trkpt lat="40.79556" lon="14.0703967"><ele>1.0</ele><time>2026-04-09T13:55:11.685Z</time></trkpt><trkpt lat="40.7955267" lon="14.0703133"><ele>1.0</ele><time>2026-04-09T13:55:12.686Z</time></trkpt><trkpt lat="40.79549" lon="14.0702317"><ele>1.0</ele><time>2026-04-09T13:55:13.687Z</time></trkpt><trkpt lat="40.79545" lon="14.0701483"><ele>0.9999999999999999</ele><time>2026-04-09T13:55:14.686Z</time></trkpt><trkpt lat="40.795405" lon="14.070075"><ele>1.0</ele><time>2026-04-09T13:55:15.685Z</time></trkpt><trkpt lat="40.7953583" lon="14.0700067"><ele>1.0</ele><time>2026-04-09T13:55:16.686Z</time></trkpt><trkpt lat="40.7953133" lon="14.0699433"><ele>0.9999999999999999</ele><time>2026-04-09T13:55:17.686Z</time></trkpt><trkpt lat="40.7952667" lon="14.0698783"><ele>1.0</ele><time>2026-04-09T13:55:18.686Z</time></trkpt><trkpt lat="40.7952267" lon="14.0698083"><ele>1.0</ele><time>2026-04-09T13:55:19.686Z</time></trkpt><trkpt lat="40.795185" lon="14.0697367"><ele>1.0</ele><time>2026-04-09T13:55:20.686Z</time></trkpt><trkpt lat="40.7951433" lon="14.069665"><ele>0.9999999999999999</ele><time>2026-04-09T13:55:21.685Z</time></trkpt><trkpt lat="40.7951017" lon="14.0695933"><ele>1.0</ele><time>2026-04-09T13:55:22.686Z</time></trkpt><trkpt lat="40.79506" lon="14.0695267"><ele>1.0</ele><time>2026-04-09T13:55:23.692Z</time></trkpt><trkpt lat="40.7950167" lon="14.06946"><ele>0.9999999999999999</ele><time>2026-04-09T13:55:24.686Z</time></trkpt><trkpt lat="40.7949717" lon="14.0693883"><ele>1.0</ele><time>2026-04-09T13:55:25.686Z</time></trkpt><trkpt lat="40.7949267" lon="14.0693183"><ele>1.0</ele><time>2026-04-09T13:55:26.686Z</time></trkpt><trkpt lat="40.7948883" lon="14.0692417"><ele>0.9999999999999999</ele><time>2026-04-09T13:55:27.685Z</time></trkpt><trkpt lat="40.7948567" lon="14.069165"><ele>1.0</ele><time>2026-04-09T13:55:28.688Z</time></trkpt><trkpt lat="40.7948317" lon="14.0690867"><ele>1.0</ele><time>2026-04-09T13:55:29.686Z</time></trkpt><trkpt lat="40.794815" lon="14.069005"><ele>1.0</ele><time>2026-04-09T13:55:30.686Z</time></trkpt><trkpt lat="40.7948067" lon="14.0689217"><ele>0.9999999999999999</ele><time>2026-04-09T13:55:31.686Z</time></trkpt><trkpt lat="40.7948117" lon="14.068775"><ele>1.0</ele><time>2026-04-09T13:55:33.685Z</time></trkpt><trkpt lat="40.794805" lon="14.0686183"><ele>1.0</ele><time>2026-04-09T13:55:35.685Z</time></trkpt><trkpt lat="40.7947617" lon="14.068495"><ele>1.0</ele><time>2026-04-09T13:55:37.686Z</time></trkpt><trkpt lat="40.7946767" lon="14.0684083"><ele>1.0</ele><time>2026-04-09T13:55:39.686Z</time></trkpt><trkpt lat="40.7945767" lon="14.0683267"><ele>1.0</ele><time>2026-04-09T13:55:41.686Z</time></trkpt><trkpt lat="40.79447" lon="14.068255"><ele>1.0</ele><time>2026-04-09T13:55:43.686Z</time></trkpt><trkpt lat="40.7943767" lon="14.06817"><ele>1.4</ele><time>2026-04-09T13:55:45.686Z</time></trkpt><trkpt lat="40.7943233" lon="14.0680383"><ele>1.8</ele><time>2026-04-09T13:55:47.684Z</time></trkpt><trkpt lat="40.7943" lon="14.0678933"><ele>2.1999999999999997</ele><time>2026-04-09T13:55:49.686Z</time></trkpt><trkpt lat="40.7942867" lon="14.0677483"><ele>2.6</ele><time>2026-04-09T13:55:51.684Z</time></trkpt><trkpt lat="40.7942867" lon="14.067605"><ele>3.0</ele><time>2026-04-09T13:55:53.687Z</time></trkpt><trkpt lat="40.7942767" lon="14.0674633"><ele>3.8</ele><time>2026-04-09T13:55:55.686Z</time></trkpt><trkpt lat="40.7942633" lon="14.0673217"><ele>4.6</ele><time>2026-04-09T13:55:57.685Z</time></trkpt><trkpt lat="40.794275" lon="14.0671817"><ele>5.3999999999999995</ele><time>2026-04-09T13:55:59.686Z</time></trkpt><trkpt lat="40.7942817" lon="14.06704"><ele>6.199999999999999</ele><time>2026-04-09T13:56:01.685Z</time></trkpt><trkpt lat="40.7942733" lon="14.0668983"><ele>7.0</ele><time>2026-04-09T13:56:03.687Z</time></trkpt><trkpt lat="40.7942633" lon="14.0667733"><ele>7.000000000000001</ele><time>2026-04-09T13:56:05.687Z</time></trkpt><trkpt lat="40.7942517" lon="14.0666833"><ele>7.0</ele><time>2026-04-09T13:56:07.688Z</time></trkpt><trkpt lat="40.7942583" lon="14.06657"><ele>7.0</ele><time>2026-04-09T13:56:10.687Z</time></trkpt><trkpt lat="40.7942683" lon="14.0664583"><ele>7.0</ele><time>2026-04-09T13:56:13.686Z</time></trkpt><trkpt lat="40.794265" lon="14.0663483"><ele>7.000000000000001</ele><time>2026-04-09T13:56:16.687Z</time></trkpt><trkpt lat="40.79426" lon="14.066235"><ele>7.0</ele><time>2026-04-09T13:56:19.687Z</time></trkpt><trkpt lat="40.7942667" lon="14.0661217"><ele>7.666666666666667</ele><time>2026-04-09T13:56:22.687Z</time></trkpt><trkpt lat="40.7942783" lon="14.06602"><ele>8.333333333333334</ele><time>2026-04-09T13:56:25.686Z</time></trkpt><trkpt lat="40.7942817" lon="14.0659167"><ele>9.0</ele><time>2026-04-09T13:56:28.686Z</time></trkpt><trkpt lat="40.7942767" lon="14.0658133"><ele>9.666666666666666</ele><time>2026-04-09T13:56:31.686Z</time></trkpt><trkpt lat="40.7942817" lon="14.0657083"><ele>10.333333333333332</ele><time>2026-04-09T13:56:34.684Z</time></trkpt><trkpt lat="40.7942767" lon="14.0655983"><ele>11.0</ele><time>2026-04-09T13:56:38.685Z</time></trkpt><trkpt lat="40.7942667" lon="14.0654917"><ele>12.166666666666666</ele><time>2026-04-09T13:56:42.685Z</time></trkpt><trkpt lat="40.7942367" lon="14.0654017"><ele>13.333333333333332</ele><time>2026-04-09T13:56:46.689Z</time></trkpt><trkpt lat="40.794195" lon="14.0653233"><ele>14.5</ele><time>2026-04-09T13:56:50.685Z</time></trkpt><trkpt lat="40.79415" lon="14.06526"><ele>15.666666666666666</ele><time>2026-04-09T13:56:53.686Z</time></trkpt><trkpt lat="40.7940783" lon="14.065195"><ele>16.833333333333332</ele><time>2026-04-09T13:56:57.684Z</time></trkpt><trkpt lat="40.794005" lon="14.06515"><ele>18.0</ele><time>2026-04-09T13:57:00.686Z</time></trkpt><trkpt lat="40.7939283" lon="14.0651183"><ele>18.0</ele><time>2026-04-09T13:57:03.685Z</time></trkpt><trkpt lat="40.79385" lon="14.0651217"><ele>18.0</ele><time>2026-04-09T13:57:06.684Z</time></trkpt><trkpt lat="40.79376" lon="14.0651317"><ele>18.0</ele><time>2026-04-09T13:57:09.684Z</time></trkpt><trkpt lat="40.793675" lon="14.065155"><ele>18.0</ele><time>2026-04-09T13:57:12.684Z</time></trkpt><trkpt lat="40.79359" lon="14.0651967"><ele>18.0</ele><time>2026-04-09T13:57:15.687Z</time></trkpt><trkpt lat="40.7935317" lon="14.0652333"><ele>18.0</ele><time>2026-04-09T13:57:17.684Z</time></trkpt><trkpt lat="40.7934433" lon="14.0652867"><ele>19.42857142857143</ele><time>2026-04-09T13:57:20.687Z</time></trkpt><trkpt lat="40.7933817" lon="14.06532"><ele>20.857142857142858</ele><time>2026-04-09T13:57:22.684Z</time></trkpt><trkpt lat="40.7933233" lon="14.06536"><ele>22.285714285714285</ele><time>2026-04-09T13:57:24.684Z</time></trkpt><trkpt lat="40.793265" lon="14.065395"><ele>23.714285714285715</ele><time>2026-04-09T13:57:26.688Z</time></trkpt><trkpt lat="40.7932017" lon="14.06543"><ele>25.142857142857142</ele><time>2026-04-09T13:57:28.687Z</time></trkpt><trkpt lat="40.79314" lon="14.0654617"><ele>26.571428571428573</ele><time>2026-04-09T13:57:30.684Z</time></trkpt><trkpt lat="40.79308" lon="14.0655083"><ele>28.0</ele><time>2026-04-09T13:57:32.687Z</time></trkpt><trkpt lat="40.793015" lon="14.0655467"><ele>28.0</ele><time>2026-04-09T13:57:34.687Z</time></trkpt><trkpt lat="40.7929483" lon="14.0655833"><ele>28.0</ele><time>2026-04-09T13:57:36.687Z</time></trkpt><trkpt lat="40.792885" lon="14.0656233"><ele>28.0</ele><time>2026-04-09T13:57:38.684Z</time></trkpt><trkpt lat="40.79282" lon="14.0656633"><ele>28.0</ele><time>2026-04-09T13:57:40.687Z</time></trkpt><trkpt lat="40.792755" lon="14.0656967"><ele>28.0</ele><time>2026-04-09T13:57:42.684Z</time></trkpt><trkpt lat="40.7926883" lon="14.0657083"><ele>28.0</ele><time>2026-04-09T13:57:44.685Z</time></trkpt><trkpt lat="40.7926167" lon="14.065695"><ele>28.0</ele><time>2026-04-09T13:57:46.684Z</time></trkpt><trkpt lat="40.79255" lon="14.06568"><ele>28.666666666666668</ele><time>2026-04-09T13:57:48.687Z</time></trkpt><trkpt lat="40.792485" lon="14.0656683"><ele>29.333333333333336</ele><time>2026-04-09T13:57:50.684Z</time></trkpt><trkpt lat="40.7923967" lon="14.0656233"><ele>30.0</ele><time>2026-04-09T13:57:53.689Z</time></trkpt><trkpt lat="40.79234" lon="14.0655283"><ele>30.666666666666664</ele><time>2026-04-09T13:57:56.684Z</time></trkpt><trkpt lat="40.7923283" lon="14.0654383"><ele>31.333333333333332</ele><time>2026-04-09T13:57:58.684Z</time></trkpt><trkpt lat="40.7923467" lon="14.06535"><ele>32.0</ele><time>2026-04-09T13:58:00.685Z</time></trkpt><trkpt lat="40.792415" lon="14.0652633"><ele>32.0</ele><time>2026-04-09T13:58:03.684Z</time></trkpt><trkpt lat="40.7924667" lon="14.0652117"><ele>31.999999999999996</ele><time>2026-04-09T13:58:05.685Z</time></trkpt><trkpt lat="40.79253" lon="14.065155"><ele>32.0</ele><time>2026-04-09T13:58:08.685Z</time></trkpt><trkpt lat="40.7926067" lon="14.0650917"><ele>32.0</ele><time>2026-04-09T13:58:12.685Z</time></trkpt><trkpt lat="40.7926617" lon="14.0650383"><ele>31.999999999999996</ele><time>2026-04-09T13:58:15.685Z</time></trkpt><trkpt lat="40.79271" lon="14.064975"><ele>32.0</ele><time>2026-04-09T13:58:18.685Z</time></trkpt><trkpt lat="40.79276" lon="14.06492"><ele>32.0</ele><time>2026-04-09T13:58:21.685Z</time></trkpt><trkpt lat="40.79282" lon="14.0648383"><ele>33.42857142857143</ele><time>2026-04-09T13:58:25.686Z</time></trkpt><trkpt lat="40.7928833" lon="14.0647733"><ele>34.857142857142854</ele><time>2026-04-09T13:58:29.685Z</time></trkpt><trkpt lat="40.7929367" lon="14.0647267"><ele>36.285714285714285</ele><time>2026-04-09T13:58:32.686Z</time></trkpt><trkpt lat="40.7929933" lon="14.0646767"><ele>37.714285714285715</ele><time>2026-04-09T13:58:35.686Z</time></trkpt><trkpt lat="40.7930483" lon="14.0646283"><ele>39.14285714285714</ele><time>2026-04-09T13:58:38.697Z</time></trkpt><trkpt lat="40.7930983" lon="14.0645733"><ele>40.57142857142857</ele><time>2026-04-09T13:58:41.686Z</time></trkpt><trkpt lat="40.7931533" lon="14.06453"><ele>42.0</ele><time>2026-04-09T13:58:44.69Z</time></trkpt><trkpt lat="40.7932033" lon="14.0644517"><ele>42.0</ele><time>2026-04-09T13:58:48.685Z</time></trkpt><trkpt lat="40.7932517" lon="14.0643883"><ele>42.0</ele><time>2026-04-09T13:58:51.685Z</time></trkpt><trkpt lat="40.79329" lon="14.0643217"><ele>42.0</ele><time>2026-04-09T13:58:54.687Z</time></trkpt><trkpt lat="40.7933267" lon="14.0642267"><ele>42.0</ele><time>2026-04-09T13:58:58.689Z</time></trkpt><trkpt lat="40.7933517" lon="14.064145"><ele>42.0</ele><time>2026-04-09T13:59:01.687Z</time></trkpt><trkpt lat="40.7933783" lon="14.0640667"><ele>42.0</ele><time>2026-04-09T13:59:04.685Z</time></trkpt><trkpt lat="40.7934017" lon="14.063965"><ele>42.0</ele><time>2026-04-09T13:59:08.686Z</time></trkpt><trkpt lat="40.793425" lon="14.0638583"><ele>41.833333333333336</ele><time>2026-04-09T13:59:12.688Z</time></trkpt><trkpt lat="40.7934667" lon="14.06377"><ele>41.666666666666664</ele><time>2026-04-09T13:59:16.688Z</time></trkpt><trkpt lat="40.7935083" lon="14.063675"><ele>41.5</ele><time>2026-04-09T13:59:20.687Z</time></trkpt><trkpt lat="40.793545" lon="14.0636017"><ele>41.33333333333333</ele><time>2026-04-09T13:59:23.687Z</time></trkpt><trkpt lat="40.7936067" lon="14.06352"><ele>41.166666666666664</ele><time>2026-04-09T13:59:26.687Z</time></trkpt><trkpt lat="40.7936583" lon="14.06345"><ele>41.0</ele><time>2026-04-09T13:59:29.687Z</time></trkpt><trkpt lat="40.7937167" lon="14.0633817"><ele>40.99999999999999</ele><time>2026-04-09T13:59:32.687Z</time></trkpt><trkpt lat="40.7937683" lon="14.0633133"><ele>41.0</ele><time>2026-04-09T13:59:35.687Z</time></trkpt><trkpt lat="40.79382" lon="14.06325"><ele>41.0</ele><time>2026-04-09T13:59:38.686Z</time></trkpt><trkpt lat="40.7938667" lon="14.0631883"><ele>41.0</ele><time>2026-04-09T13:59:41.687Z</time></trkpt><trkpt lat="40.7939233" lon="14.0631217"><ele>41.0</ele><time>2026-04-09T13:59:44.688Z</time></trkpt><trkpt lat="40.7939783" lon="14.0630517"><ele>40.99999999999999</ele><time>2026-04-09T13:59:47.687Z</time></trkpt><trkpt lat="40.79403" lon="14.062985"><ele>41.0</ele><time>2026-04-09T13:59:50.687Z</time></trkpt><trkpt lat="40.7940783" lon="14.06292"><ele>41.14285714285714</ele><time>2026-04-09T13:59:53.689Z</time></trkpt><trkpt lat="40.79413" lon="14.06286"><ele>41.285714285714285</ele><time>2026-04-09T13:59:56.686Z</time></trkpt><trkpt lat="40.794185" lon="14.0628"><ele>41.42857142857143</ele><time>2026-04-09T13:59:59.689Z</time></trkpt><trkpt lat="40.7942417" lon="14.0627283"><ele>41.57142857142857</ele><time>2026-04-09T14:00:02.685Z</time></trkpt><trkpt lat="40.7943117" lon="14.0626683"><ele>41.714285714285715</ele><time>2026-04-09T14:00:05.684Z</time></trkpt><trkpt lat="40.7943717" lon="14.0626267"><ele>41.857142857142854</ele><time>2026-04-09T14:00:08.688Z</time></trkpt><trkpt lat="40.7944383" lon="14.0625867"><ele>42.0</ele><time>2026-04-09T14:00:11.687Z</time></trkpt><trkpt lat="40.7945" lon="14.0625367"><ele>42.0</ele><time>2026-04-09T14:00:14.69Z</time></trkpt><trkpt lat="40.7945583" lon="14.0624783"><ele>42.0</ele><time>2026-04-09T14:00:17.687Z</time></trkpt><trkpt lat="40.7946117" lon="14.0623967"><ele>42.0</ele><time>2026-04-09T14:00:20.687Z</time></trkpt><trkpt lat="40.7946583" lon="14.0622967"><ele>42.0</ele><time>2026-04-09T14:00:23.687Z</time></trkpt><trkpt lat="40.794695" lon="14.062195"><ele>42.0</ele><time>2026-04-09T14:00:26.688Z</time></trkpt><trkpt lat="40.79472" lon="14.062095"><ele>42.0</ele><time>2026-04-09T14:00:29.687Z</time></trkpt><trkpt lat="40.794745" lon="14.061995"><ele>44.833333333333336</ele><time>2026-04-09T14:00:32.687Z</time></trkpt><trkpt lat="40.7947617" lon="14.0619017"><ele>47.66666666666667</ele><time>2026-04-09T14:00:35.688Z</time></trkpt><trkpt lat="40.7947867" lon="14.061805"><ele>50.5</ele><time>2026-04-09T14:00:38.687Z</time></trkpt><trkpt lat="40.7948133" lon="14.0617033"><ele>53.333333333333336</ele><time>2026-04-09T14:00:41.688Z</time></trkpt><trkpt lat="40.7948417" lon="14.0616133"><ele>56.16666666666667</ele><time>2026-04-09T14:00:44.688Z</time></trkpt><trkpt lat="40.7948667" lon="14.0615167"><ele>59.0</ele><time>2026-04-09T14:00:47.687Z</time></trkpt><trkpt lat="40.7948883" lon="14.0614183"><ele>61.50000000000001</ele><time>2026-04-09T14:00:50.688Z</time></trkpt><trkpt lat="40.794915" lon="14.06131"><ele>64.0</ele><time>2026-04-09T14:00:53.688Z</time></trkpt><trkpt lat="40.794945" lon="14.06121"><ele>66.5</ele><time>2026-04-09T14:00:56.687Z</time></trkpt><trkpt lat="40.7949783" lon="14.0611017"><ele>69.0</ele><time>2026-04-09T14:00:59.687Z</time></trkpt><trkpt lat="40.7950133" lon="14.0609967"><ele>71.5</ele><time>2026-04-09T14:01:02.688Z</time></trkpt><trkpt lat="40.795065" lon="14.06091"><ele>74.0</ele><time>2026-04-09T14:01:05.688Z</time></trkpt><trkpt lat="40.7951233" lon="14.0608167"><ele>73.66666666666667</ele><time>2026-04-09T14:01:08.686Z</time></trkpt><trkpt lat="40.795185" lon="14.060725"><ele>73.33333333333334</ele><time>2026-04-09T14:01:11.687Z</time></trkpt><trkpt lat="40.7952517" lon="14.0606333"><ele>73.0</ele><time>2026-04-09T14:01:14.685Z</time></trkpt><trkpt lat="40.7953083" lon="14.0605417"><ele>72.66666666666667</ele><time>2026-04-09T14:01:17.688Z</time></trkpt><trkpt lat="40.795355" lon="14.060445"><ele>72.33333333333333</ele><time>2026-04-09T14:01:20.688Z</time></trkpt><trkpt lat="40.7953967" lon="14.0603683"><ele>72.0</ele><time>2026-04-09T14:01:23.687Z</time></trkpt><trkpt lat="40.79544" lon="14.06027"><ele>72.0</ele><time>2026-04-09T14:01:26.687Z</time></trkpt><trkpt lat="40.7954883" lon="14.0601917"><ele>72.0</ele><time>2026-04-09T14:01:29.687Z</time></trkpt><trkpt lat="40.795535" lon="14.0601167"><ele>72.0</ele><time>2026-04-09T14:01:32.687Z</time></trkpt><trkpt lat="40.7955833" lon="14.0600383"><ele>72.0</ele><time>2026-04-09T14:01:35.687Z</time></trkpt><trkpt lat="40.795625" lon="14.059965"><ele>72.0</ele><time>2026-04-09T14:01:38.688Z</time></trkpt><trkpt lat="40.795675" lon="14.0598917"><ele>72.0</ele><time>2026-04-09T14:01:41.688Z</time></trkpt><trkpt lat="40.7957267" lon="14.05981"><ele>72.5</ele><time>2026-04-09T14:01:44.687Z</time></trkpt><trkpt lat="40.79577" lon="14.0597283"><ele>73.0</ele><time>2026-04-09T14:01:47.688Z</time></trkpt><trkpt lat="40.7958183" lon="14.059625"><ele>73.5</ele><time>2026-04-09T14:01:50.686Z</time></trkpt><trkpt lat="40.795865" lon="14.0595367"><ele>74.0</ele><time>2026-04-09T14:01:53.689Z</time></trkpt><trkpt lat="40.79592" lon="14.05945"><ele>74.5</ele><time>2026-04-09T14:01:56.686Z</time></trkpt><trkpt lat="40.7959633" lon="14.0593517"><ele>75.0</ele><time>2026-04-09T14:01:59.686Z</time></trkpt><trkpt lat="40.7960067" lon="14.0592417"><ele>75.0</ele><time>2026-04-09T14:02:02.688Z</time></trkpt><trkpt lat="40.796045" lon="14.0591683"><ele>75.0</ele><time>2026-04-09T14:02:04.687Z</time></trkpt><trkpt lat="40.7960967" lon="14.059065"><ele>75.0</ele><time>2026-04-09T14:02:07.687Z</time></trkpt><trkpt lat="40.7961417" lon="14.0589683"><ele>75.0</ele><time>2026-04-09T14:02:10.687Z</time></trkpt><trkpt lat="40.7961717" lon="14.0588933"><ele>75.0</ele><time>2026-04-09T14:02:12.687Z</time></trkpt><trkpt lat="40.7962333" lon="14.0587933"><ele>75.0</ele><time>2026-04-09T14:02:15.687Z</time></trkpt><trkpt lat="40.7962917" lon="14.058745"><ele>77.66666666666667</ele><time>2026-04-09T14:02:17.687Z</time></trkpt><trkpt lat="40.7963583" lon="14.05872"><ele>80.33333333333333</ele><time>2026-04-09T14:02:19.688Z</time></trkpt><trkpt lat="40.7964433" lon="14.0587133"><ele>83.0</ele><time>2026-04-09T14:02:22.687Z</time></trkpt><trkpt lat="40.7965267" lon="14.0587017"><ele>85.66666666666666</ele><time>2026-04-09T14:02:25.689Z</time></trkpt><trkpt lat="40.7966083" lon="14.0586683"><ele>88.33333333333333</ele><time>2026-04-09T14:02:28.688Z</time></trkpt><trkpt lat="40.7966883" lon="14.0586117"><ele>91.0</ele><time>2026-04-09T14:02:31.688Z</time></trkpt><trkpt lat="40.7967617" lon="14.05854"><ele>91.0</ele><time>2026-04-09T14:02:34.689Z</time></trkpt><trkpt lat="40.7968233" lon="14.0584517"><ele>91.0</ele><time>2026-04-09T14:02:37.69Z</time></trkpt><trkpt lat="40.7968667" lon="14.0583467"><ele>91.0</ele><time>2026-04-09T14:02:40.687Z</time></trkpt><trkpt lat="40.7968833" lon="14.05823"><ele>91.0</ele><time>2026-04-09T14:02:43.686Z</time></trkpt><trkpt lat="40.7968567" lon="14.0581233"><ele>91.0</ele><time>2026-04-09T14:02:46.687Z</time></trkpt><trkpt lat="40.796805" lon="14.05804"><ele>91.0</ele><time>2026-04-09T14:02:49.689Z</time></trkpt><trkpt lat="40.7967417" lon="14.05801"><ele>92.0</ele><time>2026-04-09T14:02:52.688Z</time></trkpt><trkpt lat="40.7966667" lon="14.0579767"><ele>93.0</ele><time>2026-04-09T14:02:55.69Z</time></trkpt><trkpt lat="40.7965817" lon="14.057945"><ele>94.0</ele><time>2026-04-09T14:02:58.687Z</time></trkpt><trkpt lat="40.7964917" lon="14.05794"><ele>95.0</ele><time>2026-04-09T14:03:01.688Z</time></trkpt><trkpt lat="40.796405" lon="14.0579483"><ele>96.00000000000001</ele><time>2026-04-09T14:03:04.687Z</time></trkpt><trkpt lat="40.79631" lon="14.0579683"><ele>97.0</ele><time>2026-04-09T14:03:07.688Z</time></trkpt><trkpt lat="40.79624" lon="14.0579917"><ele>97.0</ele><time>2026-04-09T14:03:09.686Z</time></trkpt><trkpt lat="40.7961533" lon="14.0580283"><ele>97.0</ele><time>2026-04-09T14:03:12.69Z</time></trkpt><trkpt lat="40.7960917" lon="14.058055"><ele>97.0</ele><time>2026-04-09T14:03:14.69Z</time></trkpt><trkpt lat="40.7960283" lon="14.05809"><ele>97.0</ele><time>2026-04-09T14:03:16.688Z</time></trkpt><trkpt lat="40.7959717" lon="14.058145"><ele>97.0</ele><time>2026-04-09T14:03:18.686Z</time></trkpt><trkpt lat="40.79592" lon="14.0581933"><ele>97.0</ele><time>2026-04-09T14:03:20.687Z</time></trkpt><trkpt lat="40.795845" lon="14.05826"><ele>97.0</ele><time>2026-04-09T14:03:23.687Z</time></trkpt><trkpt lat="40.795795" lon="14.0583117"><ele>97.14285714285714</ele><time>2026-04-09T14:03:25.687Z</time></trkpt><trkpt lat="40.7957183" lon="14.0583867"><ele>97.28571428571429</ele><time>2026-04-09T14:03:28.686Z</time></trkpt><trkpt lat="40.79567" lon="14.0584483"><ele>97.42857142857143</ele><time>2026-04-09T14:03:30.687Z</time></trkpt><trkpt lat="40.7956217" lon="14.0585067"><ele>97.57142857142857</ele><time>2026-04-09T14:03:32.686Z</time></trkpt><trkpt lat="40.7955767" lon="14.0585683"><ele>97.71428571428572</ele><time>2026-04-09T14:03:34.686Z</time></trkpt><trkpt lat="40.7955317" lon="14.0586283"><ele>97.85714285714286</ele><time>2026-04-09T14:03:36.688Z</time></trkpt><trkpt lat="40.7954833" lon="14.058695"><ele>98.0</ele><time>2026-04-09T14:03:38.686Z</time></trkpt><trkpt lat="40.795435" lon="14.0587667"><ele>98.0</ele><time>2026-04-09T14:03:40.689Z</time></trkpt><trkpt lat="40.7954" lon="14.05885"><ele>98.0</ele><time>2026-04-09T14:03:42.688Z</time></trkpt><trkpt lat="40.795365" lon="14.05893"><ele>98.0</ele><time>2026-04-09T14:03:44.689Z</time></trkpt><trkpt lat="40.7953233" lon="14.059005"><ele>98.0</ele><time>2026-04-09T14:03:46.686Z</time></trkpt><trkpt lat="40.795275" lon="14.0590833"><ele>98.0</ele><time>2026-04-09T14:03:48.688Z</time></trkpt><trkpt lat="40.7952267" lon="14.0591583"><ele>98.0</ele><time>2026-04-09T14:03:50.688Z</time></trkpt><trkpt lat="40.7951783" lon="14.0592267"><ele>98.0</ele><time>2026-04-09T14:03:52.687Z</time></trkpt><trkpt lat="40.7951333" lon="14.0592867"><ele>99.28571428571429</ele><time>2026-04-09T14:03:54.687Z</time></trkpt><trkpt lat="40.79508" lon="14.0593367"><ele>100.57142857142857</ele><time>2026-04-09T14:03:56.687Z</time></trkpt><trkpt lat="40.795025" lon="14.0593783"><ele>101.85714285714286</ele><time>2026-04-09T14:03:58.687Z</time></trkpt><trkpt lat="40.7949667" lon="14.05942"><ele>103.14285714285714</ele><time>2026-04-09T14:04:00.688Z</time></trkpt><trkpt lat="40.7948783" lon="14.05946"><ele>104.42857142857143</ele><time>2026-04-09T14:04:03.686Z</time></trkpt><trkpt lat="40.7948183" lon="14.0594867"><ele>105.71428571428572</ele><time>2026-04-09T14:04:05.69Z</time></trkpt><trkpt lat="40.794745" lon="14.0595217"><ele>107.0</ele><time>2026-04-09T14:04:08.69Z</time></trkpt><trkpt lat="40.794675" lon="14.05956"><ele>106.99999999999999</ele><time>2026-04-09T14:04:11.69Z</time></trkpt><trkpt lat="40.7945917" lon="14.0595967"><ele>107.0</ele><time>2026-04-09T14:04:14.69Z</time></trkpt><trkpt lat="40.7945083" lon="14.0596417"><ele>107.0</ele><time>2026-04-09T14:04:17.686Z</time></trkpt><trkpt lat="40.7944233" lon="14.05968"><ele>107.0</ele><time>2026-04-09T14:04:20.688Z</time></trkpt><trkpt lat="40.7943317" lon="14.05969"><ele>106.99999999999999</ele><time>2026-04-09T14:04:23.689Z</time></trkpt><trkpt lat="40.7942667" lon="14.05969"><ele>107.0</ele><time>2026-04-09T14:04:25.687Z</time></trkpt><trkpt lat="40.7942017" lon="14.0596817"><ele>109.33333333333333</ele><time>2026-04-09T14:04:27.686Z</time></trkpt><trkpt lat="40.7941383" lon="14.0596683"><ele>111.66666666666666</ele><time>2026-04-09T14:04:29.689Z</time></trkpt><trkpt lat="40.7940483" lon="14.059655"><ele>114.0</ele><time>2026-04-09T14:04:32.688Z</time></trkpt><trkpt lat="40.7939683" lon="14.0596767"><ele>116.33333333333334</ele><time>2026-04-09T14:04:35.689Z</time></trkpt><trkpt lat="40.79389" lon="14.0597117"><ele>118.66666666666667</ele><time>2026-04-09T14:04:38.688Z</time></trkpt><trkpt lat="40.7938167" lon="14.0597633"><ele>121.0</ele><time>2026-04-09T14:04:41.689Z</time></trkpt><trkpt lat="40.7937583" lon="14.05985"><ele>121.0</ele><time>2026-04-09T14:04:44.689Z</time></trkpt><trkpt lat="40.7937017" lon="14.059925"><ele>120.99999999999999</ele><time>2026-04-09T14:04:47.687Z</time></trkpt><trkpt lat="40.7936567" lon="14.0600167"><ele>121.0</ele><time>2026-04-09T14:04:50.689Z</time></trkpt><trkpt lat="40.79361" lon="14.060115"><ele>121.0</ele><time>2026-04-09T14:04:53.686Z</time></trkpt><trkpt lat="40.7935733" lon="14.0601833"><ele>120.99999999999999</ele><time>2026-04-09T14:04:55.689Z</time></trkpt><trkpt lat="40.7935333" lon="14.0602533"><ele>121.0</ele><time>2026-04-09T14:04:57.686Z</time></trkpt><trkpt lat="40.7934917" lon="14.0603183"><ele>121.0</ele><time>2026-04-09T14:04:59.688Z</time></trkpt><trkpt lat="40.7934417" lon="14.0604167"><ele>121.50000000000001</ele><time>2026-04-09T14:05:02.69Z</time></trkpt><trkpt lat="40.79339" lon="14.0605083"><ele>122.0</ele><time>2026-04-09T14:05:05.69Z</time></trkpt><trkpt lat="40.7933567" lon="14.0605833"><ele>122.5</ele><time>2026-04-09T14:05:07.688Z</time></trkpt><trkpt lat="40.79332" lon="14.0606583"><ele>123.0</ele><time>2026-04-09T14:05:09.688Z</time></trkpt><trkpt lat="40.793285" lon="14.0607333"><ele>123.50000000000001</ele><time>2026-04-09T14:05:11.687Z</time></trkpt><trkpt lat="40.7932333" lon="14.0608317"><ele>124.0</ele><time>2026-04-09T14:05:14.689Z</time></trkpt><trkpt lat="40.7931883" lon="14.060925"><ele>124.00000000000001</ele><time>2026-04-09T14:05:17.686Z</time></trkpt><trkpt lat="40.79314" lon="14.0610217"><ele>124.0</ele><time>2026-04-09T14:05:20.687Z</time></trkpt><trkpt lat="40.7930867" lon="14.0611183"><ele>124.0</ele><time>2026-04-09T14:05:23.69Z</time></trkpt><trkpt lat="40.7930317" lon="14.0612233"><ele>124.0</ele><time>2026-04-09T14:05:26.689Z</time></trkpt><trkpt lat="40.7929833" lon="14.061295"><ele>124.00000000000001</ele><time>2026-04-09T14:05:28.686Z</time></trkpt><trkpt lat="40.79292" lon="14.06136"><ele>124.0</ele><time>2026-04-09T14:05:30.688Z</time></trkpt><trkpt lat="40.792845" lon="14.0614283"><ele>124.0</ele><time>2026-04-09T14:05:32.69Z</time></trkpt><trkpt lat="40.79277" lon="14.0615017"><ele>124.0</ele><time>2026-04-09T14:05:34.689Z</time></trkpt><trkpt lat="40.7926883" lon="14.0615767"><ele>124.0</ele><time>2026-04-09T14:05:36.689Z</time></trkpt><trkpt lat="40.7926083" lon="14.0616433"><ele>124.0</ele><time>2026-04-09T14:05:38.688Z</time></trkpt><trkpt lat="40.7925283" lon="14.0617117"><ele>124.0</ele><time>2026-04-09T14:05:40.689Z</time></trkpt><trkpt lat="40.792445" lon="14.0617917"><ele>125.0</ele><time>2026-04-09T14:05:42.689Z</time></trkpt><trkpt lat="40.79236" lon="14.0618667"><ele>126.0</ele><time>2026-04-09T14:05:44.688Z</time></trkpt><trkpt lat="40.792275" lon="14.061945"><ele>127.0</ele><time>2026-04-09T14:05:46.687Z</time></trkpt><trkpt lat="40.7921917" lon="14.0620267"><ele>128.0</ele><time>2026-04-09T14:05:48.687Z</time></trkpt><trkpt lat="40.7921017" lon="14.0621"><ele>129.0</ele><time>2026-04-09T14:05:50.687Z</time></trkpt><trkpt lat="40.7920033" lon="14.0621533"><ele>129.0</ele><time>2026-04-09T14:05:52.687Z</time></trkpt><trkpt lat="40.7918933" lon="14.0621967"><ele>129.0</ele><time>2026-04-09T14:05:54.689Z</time></trkpt><trkpt lat="40.7917783" lon="14.0621867"><ele>129.0</ele><time>2026-04-09T14:05:56.689Z</time></trkpt><trkpt lat="40.7916683" lon="14.0621317"><ele>129.0</ele><time>2026-04-09T14:05:58.687Z</time></trkpt><trkpt lat="40.791575" lon="14.0620667"><ele>130.2</ele><time>2026-04-09T14:06:00.689Z</time></trkpt><trkpt lat="40.7915067" lon="14.0619783"><ele>131.4</ele><time>2026-04-09T14:06:02.689Z</time></trkpt><trkpt lat="40.7914483" lon="14.06187"><ele>132.6</ele><time>2026-04-09T14:06:04.689Z</time></trkpt><trkpt lat="40.7913817" lon="14.0617433"><ele>133.8</ele><time>2026-04-09T14:06:06.687Z</time></trkpt><trkpt lat="40.7913083" lon="14.0616083"><ele>135.0</ele><time>2026-04-09T14:06:08.687Z</time></trkpt><trkpt lat="40.7912683" lon="14.0615267"><ele>135.4</ele><time>2026-04-09T14:06:09.687Z</time></trkpt><trkpt lat="40.79123" lon="14.0614533"><ele>135.8</ele><time>2026-04-09T14:06:10.687Z</time></trkpt><trkpt lat="40.7911617" lon="14.0613317"><ele>136.2</ele><time>2026-04-09T14:06:12.689Z</time></trkpt><trkpt lat="40.791095" lon="14.0612"><ele>136.6</ele><time>2026-04-09T14:06:14.686Z</time></trkpt><trkpt lat="40.7910417" lon="14.0610633"><ele>137.0</ele><time>2026-04-09T14:06:16.687Z</time></trkpt><trkpt lat="40.791005" lon="14.0609633"><ele>133.66666666666666</ele><time>2026-04-09T14:06:18.687Z</time></trkpt><trkpt lat="40.7909683" lon="14.0608783"><ele>130.33333333333331</ele><time>2026-04-09T14:06:44.684Z</time></trkpt><trkpt lat="40.7909267" lon="14.0607467"><ele>127.0</ele><time>2026-04-09T14:06:47.684Z</time></trkpt><trkpt lat="40.79088" lon="14.060625"><ele>123.66666666666666</ele><time>2026-04-09T14:06:49.684Z</time></trkpt><trkpt lat="40.790845" lon="14.0605533"><ele>120.33333333333333</ele><time>2026-04-09T14:06:50.684Z</time></trkpt><trkpt lat="40.7907983" lon="14.0604933"><ele>117.0</ele><time>2026-04-09T14:06:51.684Z</time></trkpt><trkpt lat="40.7907383" lon="14.0604383"><ele>117.0</ele><time>2026-04-09T14:06:52.685Z</time></trkpt><trkpt lat="40.7906733" lon="14.0604"><ele>117.0</ele><time>2026-04-09T14:06:53.689Z</time></trkpt><trkpt lat="40.7906017" lon="14.0603683"><ele>117.0</ele><time>2026-04-09T14:06:54.684Z</time></trkpt><trkpt lat="40.7905233" lon="14.0603333"><ele>117.0</ele><time>2026-04-09T14:06:55.685Z</time></trkpt><trkpt lat="40.7904333" lon="14.0603067"><ele>117.0</ele><time>2026-04-09T14:06:56.684Z</time></trkpt><trkpt lat="40.79035" lon="14.0602767"><ele>117.0</ele><time>2026-04-09T14:06:57.684Z</time></trkpt><trkpt lat="40.7902633" lon="14.0602467"><ele>117.0</ele><time>2026-04-09T14:06:58.684Z</time></trkpt><trkpt lat="40.7901783" lon="14.06022"><ele>116.99999999999999</ele><time>2026-04-09T14:06:59.685Z</time></trkpt><trkpt lat="40.79009" lon="14.06019"><ele>116.99999999999999</ele><time>2026-04-09T14:07:00.685Z</time></trkpt><trkpt lat="40.79" lon="14.0601683"><ele>117.0</ele><time>2026-04-09T14:07:01.685Z</time></trkpt><trkpt lat="40.7899067" lon="14.060155"><ele>117.0</ele><time>2026-04-09T14:07:02.686Z</time></trkpt><trkpt lat="40.7898133" lon="14.0601467"><ele>116.39999999999999</ele><time>2026-04-09T14:07:03.684Z</time></trkpt><trkpt lat="40.789715" lon="14.060145"><ele>115.79999999999998</ele><time>2026-04-09T14:07:04.684Z</time></trkpt><trkpt lat="40.7896183" lon="14.0601417"><ele>115.2</ele><time>2026-04-09T14:07:05.685Z</time></trkpt><trkpt lat="40.78953" lon="14.0601367"><ele>114.6</ele><time>2026-04-09T14:07:06.684Z</time></trkpt><trkpt lat="40.7894433" lon="14.06013"><ele>114.0</ele><time>2026-04-09T14:07:07.685Z</time></trkpt><trkpt lat="40.7893567" lon="14.0601217"><ele>112.83333333333333</ele><time>2026-04-09T14:07:08.684Z</time></trkpt><trkpt lat="40.789275" lon="14.060105"><ele>111.66666666666666</ele><time>2026-04-09T14:07:09.684Z</time></trkpt><trkpt lat="40.789195" lon="14.0600783"><ele>110.5</ele><time>2026-04-09T14:07:10.684Z</time></trkpt><trkpt lat="40.789115" lon="14.0600333"><ele>109.33333333333333</ele><time>2026-04-09T14:07:11.684Z</time></trkpt><trkpt lat="40.7890433" lon="14.0599567"><ele>108.16666666666666</ele><time>2026-04-09T14:07:12.685Z</time></trkpt><trkpt lat="40.7890033" lon="14.0598617"><ele>107.0</ele><time>2026-04-09T14:07:13.684Z</time></trkpt><trkpt lat="40.78897" lon="14.0597617"><ele>105.39999999999999</ele><time>2026-04-09T14:07:14.685Z</time></trkpt><trkpt lat="40.7889617" lon="14.0596383"><ele>103.79999999999998</ele><time>2026-04-09T14:07:15.684Z</time></trkpt><trkpt lat="40.7889683" lon="14.0595167"><ele>102.2</ele><time>2026-04-09T14:07:16.685Z</time></trkpt><trkpt lat="40.7889767" lon="14.0594117"><ele>100.6</ele><time>2026-04-09T14:07:17.684Z</time></trkpt><trkpt lat="40.7890133" lon="14.05929"><ele>99.0</ele><time>2026-04-09T14:07:18.685Z</time></trkpt><trkpt lat="40.7890417" lon="14.0591667"><ele>99.6</ele><time>2026-04-09T14:07:19.684Z</time></trkpt><trkpt lat="40.789065" lon="14.0590467"><ele>100.2</ele><time>2026-04-09T14:07:20.685Z</time></trkpt><trkpt lat="40.7890783" lon="14.05893"><ele>100.8</ele><time>2026-04-09T14:07:21.684Z</time></trkpt><trkpt lat="40.789085" lon="14.0588067"><ele>101.39999999999999</ele><time>2026-04-09T14:07:22.686Z</time></trkpt><trkpt lat="40.7890867" lon="14.0586833"><ele>102.0</ele><time>2026-04-09T14:07:23.684Z</time></trkpt><trkpt lat="40.7890883" lon="14.0585567"><ele>102.0</ele><time>2026-04-09T14:07:24.684Z</time></trkpt><trkpt lat="40.7890917" lon="14.0584283"><ele>102.0</ele><time>2026-04-09T14:07:25.684Z</time></trkpt><trkpt lat="40.7890933" lon="14.058305"><ele>102.0</ele><time>2026-04-09T14:07:26.684Z</time></trkpt><trkpt lat="40.7891017" lon="14.0581783"><ele>102.0</ele><time>2026-04-09T14:07:27.684Z</time></trkpt><trkpt lat="40.7891067" lon="14.05805"><ele>102.0</ele><time>2026-04-09T14:07:28.686Z</time></trkpt><trkpt lat="40.78912" lon="14.0579167"><ele>100.6</ele><time>2026-04-09T14:07:29.684Z</time></trkpt><trkpt lat="40.78914" lon="14.0577833"><ele>99.19999999999999</ele><time>2026-04-09T14:07:30.686Z</time></trkpt><trkpt lat="40.78917" lon="14.05766"><ele>97.8</ele><time>2026-04-09T14:07:31.685Z</time></trkpt><trkpt lat="40.7892283" lon="14.0575483"><ele>96.4</ele><time>2026-04-09T14:07:32.686Z</time></trkpt><trkpt lat="40.7892933" lon="14.0574433"><ele>95.0</ele><time>2026-04-09T14:07:33.684Z</time></trkpt><trkpt lat="40.7893717" lon="14.0573717"><ele>95.0</ele><time>2026-04-09T14:07:34.687Z</time></trkpt><trkpt lat="40.7894567" lon="14.0573233"><ele>95.0</ele><time>2026-04-09T14:07:35.686Z</time></trkpt><trkpt lat="40.7895467" lon="14.05729"><ele>95.0</ele><time>2026-04-09T14:07:36.686Z</time></trkpt><trkpt lat="40.7896383" lon="14.057265"><ele>95.0</ele><time>2026-04-09T14:07:37.686Z</time></trkpt><trkpt lat="40.789735" lon="14.05724"><ele>95.0</ele><time>2026-04-09T14:07:38.689Z</time></trkpt><trkpt lat="40.78983" lon="14.0572083"><ele>95.0</ele><time>2026-04-09T14:07:39.684Z</time></trkpt><trkpt lat="40.7899317" lon="14.05718"><ele>95.0</ele><time>2026-04-09T14:07:40.684Z</time></trkpt><trkpt lat="40.79002" lon="14.0571517"><ele>95.0</ele><time>2026-04-09T14:07:41.684Z</time></trkpt><trkpt lat="40.7901067" lon="14.0571283"><ele>95.0</ele><time>2026-04-09T14:07:42.685Z</time></trkpt><trkpt lat="40.7901933" lon="14.0571033"><ele>95.0</ele><time>2026-04-09T14:07:43.685Z</time></trkpt><trkpt lat="40.790275" lon="14.0570767"><ele>95.33333333333334</ele><time>2026-04-09T14:07:44.684Z</time></trkpt><trkpt lat="40.7903583" lon="14.0570467"><ele>95.66666666666667</ele><time>2026-04-09T14:07:45.685Z</time></trkpt><trkpt lat="40.7904383" lon="14.0570167"><ele>96.0</ele><time>2026-04-09T14:07:46.685Z</time></trkpt><trkpt lat="40.79051" lon="14.05699"><ele>96.33333333333334</ele><time>2026-04-09T14:07:47.685Z</time></trkpt><trkpt lat="40.7905833" lon="14.0569683"><ele>96.66666666666667</ele><time>2026-04-09T14:07:48.686Z</time></trkpt><trkpt lat="40.79066" lon="14.0569383"><ele>97.0</ele><time>2026-04-09T14:07:49.685Z</time></trkpt><trkpt lat="40.790735" lon="14.05691"><ele>97.00000000000001</ele><time>2026-04-09T14:07:50.685Z</time></trkpt><trkpt lat="40.790815" lon="14.0568917"><ele>97.0</ele><time>2026-04-09T14:07:51.686Z</time></trkpt><trkpt lat="40.7909033" lon="14.0568783"><ele>97.0</ele><time>2026-04-09T14:07:52.684Z</time></trkpt><trkpt lat="40.7909933" lon="14.056865"><ele>97.0</ele><time>2026-04-09T14:07:53.685Z</time></trkpt><trkpt lat="40.7910817" lon="14.0568467"><ele>97.00000000000001</ele><time>2026-04-09T14:07:54.685Z</time></trkpt><trkpt lat="40.7911767" lon="14.0568267"><ele>97.0</ele><time>2026-04-09T14:07:55.685Z</time></trkpt><trkpt lat="40.791275" lon="14.05681"><ele>96.6</ele><time>2026-04-09T14:07:56.684Z</time></trkpt><trkpt lat="40.7913683" lon="14.0568"><ele>96.19999999999999</ele><time>2026-04-09T14:07:57.684Z</time></trkpt><trkpt lat="40.7914733" lon="14.0567867"><ele>95.8</ele><time>2026-04-09T14:07:58.686Z</time></trkpt><trkpt lat="40.7915767" lon="14.0567667"><ele>95.4</ele><time>2026-04-09T14:07:59.685Z</time></trkpt><trkpt lat="40.791675" lon="14.0567467"><ele>95.0</ele><time>2026-04-09T14:08:00.684Z</time></trkpt><trkpt lat="40.791775" lon="14.056735"><ele>95.0</ele><time>2026-04-09T14:08:01.684Z</time></trkpt><trkpt lat="40.7918717" lon="14.0567233"><ele>95.0</ele><time>2026-04-09T14:08:02.685Z</time></trkpt><trkpt lat="40.7919683" lon="14.0567017"><ele>95.0</ele><time>2026-04-09T14:08:03.685Z</time></trkpt><trkpt lat="40.7920717" lon="14.0566783"><ele>95.0</ele><time>2026-04-09T14:08:04.685Z</time></trkpt><trkpt lat="40.792175" lon="14.0566583"><ele>95.0</ele><time>2026-04-09T14:08:05.684Z</time></trkpt><trkpt lat="40.79227" lon="14.0566383"><ele>95.0</ele><time>2026-04-09T14:08:06.684Z</time></trkpt><trkpt lat="40.7923717" lon="14.0566217"><ele>95.0</ele><time>2026-04-09T14:08:07.686Z</time></trkpt><trkpt lat="40.7924683" lon="14.0566017"><ele>95.0</ele><time>2026-04-09T14:08:08.685Z</time></trkpt><trkpt lat="40.79257" lon="14.0565783"><ele>95.0</ele><time>2026-04-09T14:08:09.685Z</time></trkpt><trkpt lat="40.79267" lon="14.0565517"><ele>95.0</ele><time>2026-04-09T14:08:10.686Z</time></trkpt><trkpt lat="40.79276" lon="14.0565133"><ele>93.6</ele><time>2026-04-09T14:08:11.686Z</time></trkpt><trkpt lat="40.79285" lon="14.0564683"><ele>92.2</ele><time>2026-04-09T14:08:12.686Z</time></trkpt><trkpt lat="40.7929383" lon="14.0564083"><ele>90.80000000000001</ele><time>2026-04-09T14:08:13.685Z</time></trkpt><trkpt lat="40.7930183" lon="14.05633"><ele>89.4</ele><time>2026-04-09T14:08:14.686Z</time></trkpt><trkpt lat="40.79309" lon="14.0562433"><ele>88.0</ele><time>2026-04-09T14:08:15.685Z</time></trkpt><trkpt lat="40.7931667" lon="14.0561483"><ele>88.0</ele><time>2026-04-09T14:08:16.685Z</time></trkpt><trkpt lat="40.7932417" lon="14.0560533"><ele>88.0</ele><time>2026-04-09T14:08:17.688Z</time></trkpt><trkpt lat="40.793315" lon="14.05596"><ele>88.0</ele><time>2026-04-09T14:08:18.686Z</time></trkpt><trkpt lat="40.793385" lon="14.0558767"><ele>88.0</ele><time>2026-04-09T14:08:19.686Z</time></trkpt><trkpt lat="40.7934533" lon="14.0557983"><ele>88.0</ele><time>2026-04-09T14:08:20.686Z</time></trkpt><trkpt lat="40.793525" lon="14.05573"><ele>86.33333333333333</ele><time>2026-04-09T14:08:21.686Z</time></trkpt><trkpt lat="40.7935967" lon="14.0556567"><ele>84.66666666666666</ele><time>2026-04-09T14:08:22.686Z</time></trkpt><trkpt lat="40.7936633" lon="14.055575"><ele>83.0</ele><time>2026-04-09T14:08:23.687Z</time></trkpt><trkpt lat="40.793735" lon="14.055505"><ele>81.33333333333333</ele><time>2026-04-09T14:08:24.686Z</time></trkpt><trkpt lat="40.7937933" lon="14.0554283"><ele>79.66666666666667</ele><time>2026-04-09T14:08:25.686Z</time></trkpt><trkpt lat="40.7938533" lon="14.0553567"><ele>78.0</ele><time>2026-04-09T14:08:26.686Z</time></trkpt><trkpt lat="40.79392" lon="14.0552817"><ele>78.0</ele><time>2026-04-09T14:08:27.686Z</time></trkpt><trkpt lat="40.7939883" lon="14.0552033"><ele>78.0</ele><time>2026-04-09T14:08:28.687Z</time></trkpt><trkpt lat="40.794055" lon="14.0551333"><ele>78.0</ele><time>2026-04-09T14:08:29.686Z</time></trkpt><trkpt lat="40.794115" lon="14.0550733"><ele>78.0</ele><time>2026-04-09T14:08:30.686Z</time></trkpt><trkpt lat="40.794165" lon="14.0550217"><ele>78.0</ele><time>2026-04-09T14:08:31.686Z</time></trkpt><trkpt lat="40.794235" lon="14.05493"><ele>78.0</ele><time>2026-04-09T14:08:33.687Z</time></trkpt><trkpt lat="40.79429" lon="14.0548567"><ele>77.33333333333333</ele><time>2026-04-09T14:08:36.685Z</time></trkpt><trkpt lat="40.794355" lon="14.054765"><ele>76.66666666666667</ele><time>2026-04-09T14:09:22.687Z</time></trkpt><trkpt lat="40.79442" lon="14.0546833"><ele>76.0</ele><time>2026-04-09T14:09:24.685Z</time></trkpt><trkpt lat="40.794505" lon="14.0545833"><ele>75.33333333333334</ele><time>2026-04-09T14:09:26.686Z</time></trkpt><trkpt lat="40.79455" lon="14.0545217"><ele>74.66666666666667</ele><time>2026-04-09T14:09:27.687Z</time></trkpt><trkpt lat="40.7945983" lon="14.0544567"><ele>74.0</ele><time>2026-04-09T14:09:28.686Z</time></trkpt><trkpt lat="40.7946483" lon="14.0543867"><ele>74.0</ele><time>2026-04-09T14:09:29.687Z</time></trkpt><trkpt lat="40.7947033" lon="14.05431"><ele>74.0</ele><time>2026-04-09T14:09:30.686Z</time></trkpt><trkpt lat="40.79476" lon="14.05423"><ele>74.0</ele><time>2026-04-09T14:09:31.687Z</time></trkpt><trkpt lat="40.7948133" lon="14.0541417"><ele>74.0</ele><time>2026-04-09T14:09:32.687Z</time></trkpt><trkpt lat="40.79486" lon="14.0540383"><ele>74.0</ele><time>2026-04-09T14:09:33.686Z</time></trkpt><trkpt lat="40.7948967" lon="14.0539233"><ele>74.0</ele><time>2026-04-09T14:09:34.686Z</time></trkpt><trkpt lat="40.7949233" lon="14.053795"><ele>72.8</ele><time>2026-04-09T14:09:35.689Z</time></trkpt><trkpt lat="40.794945" lon="14.053665"><ele>71.60000000000001</ele><time>2026-04-09T14:09:36.686Z</time></trkpt><trkpt lat="40.7949667" lon="14.0535417"><ele>70.4</ele><time>2026-04-09T14:09:37.687Z</time></trkpt><trkpt lat="40.7949817" lon="14.0534233"><ele>69.2</ele><time>2026-04-09T14:09:38.685Z</time></trkpt><trkpt lat="40.795" lon="14.053315"><ele>68.0</ele><time>2026-04-09T14:09:39.687Z</time></trkpt><trkpt lat="40.7950217" lon="14.05321"><ele>67.83333333333334</ele><time>2026-04-09T14:09:40.687Z</time></trkpt><trkpt lat="40.7950417" lon="14.053105"><ele>67.66666666666667</ele><time>2026-04-09T14:09:41.685Z</time></trkpt><trkpt lat="40.7950617" lon="14.0530033"><ele>67.5</ele><time>2026-04-09T14:09:42.685Z</time></trkpt><trkpt lat="40.79509" lon="14.0528917"><ele>67.33333333333333</ele><time>2026-04-09T14:09:43.686Z</time></trkpt><trkpt lat="40.79511" lon="14.05278"><ele>67.16666666666666</ele><time>2026-04-09T14:09:44.687Z</time></trkpt><trkpt lat="40.79513" lon="14.0526733"><ele>67.0</ele><time>2026-04-09T14:09:45.687Z</time></trkpt><trkpt lat="40.7951517" lon="14.0525767"><ele>67.0</ele><time>2026-04-09T14:09:46.689Z</time></trkpt><trkpt lat="40.795165" lon="14.0524833"><ele>67.0</ele><time>2026-04-09T14:09:47.686Z</time></trkpt><trkpt lat="40.7951783" lon="14.052395"><ele>67.0</ele><time>2026-04-09T14:09:48.687Z</time></trkpt><trkpt lat="40.7952067" lon="14.05226"><ele>67.0</ele><time>2026-04-09T14:09:50.686Z</time></trkpt><trkpt lat="40.7952667" lon="14.0521483"><ele>67.0</ele><time>2026-04-09T14:09:52.686Z</time></trkpt><trkpt lat="40.795345" lon="14.052055"><ele>66.83333333333333</ele><time>2026-04-09T14:09:54.685Z</time></trkpt><trkpt lat="40.7954467" lon="14.0519683"><ele>66.66666666666666</ele><time>2026-04-09T14:09:56.689Z</time></trkpt><trkpt lat="40.7955017" lon="14.0519183"><ele>66.5</ele><time>2026-04-09T14:09:57.686Z</time></trkpt><trkpt lat="40.79556" lon="14.0518683"><ele>66.33333333333333</ele><time>2026-04-09T14:09:58.685Z</time></trkpt><trkpt lat="40.79562" lon="14.051815"><ele>66.16666666666667</ele><time>2026-04-09T14:09:59.686Z</time></trkpt><trkpt lat="40.7956767" lon="14.051775"><ele>66.0</ele><time>2026-04-09T14:10:00.685Z</time></trkpt><trkpt lat="40.795735" lon="14.05173"><ele>66.0</ele><time>2026-04-09T14:10:01.686Z</time></trkpt><trkpt lat="40.795795" lon="14.0516833"><ele>66.0</ele><time>2026-04-09T14:10:02.685Z</time></trkpt><trkpt lat="40.7958533" lon="14.0516417"><ele>66.0</ele><time>2026-04-09T14:10:03.687Z</time></trkpt><trkpt lat="40.7959367" lon="14.0515517"><ele>66.0</ele><time>2026-04-09T14:10:05.689Z</time></trkpt><trkpt lat="40.7960233" lon="14.051495"><ele>66.0</ele><time>2026-04-09T14:10:07.687Z</time></trkpt><trkpt lat="40.7960883" lon="14.0514"><ele>66.0</ele><time>2026-04-09T14:10:09.688Z</time></trkpt><trkpt lat="40.79611" lon="14.0512967"><ele>66.5</ele><time>2026-04-09T14:10:11.684Z</time></trkpt><trkpt lat="40.796075" lon="14.0512017"><ele>67.0</ele><time>2026-04-09T14:10:13.685Z</time></trkpt><trkpt lat="40.795995" lon="14.05113"><ele>67.5</ele><time>2026-04-09T14:10:15.685Z</time></trkpt><trkpt lat="40.7959033" lon="14.05106"><ele>68.0</ele><time>2026-04-09T14:10:17.685Z</time></trkpt><trkpt lat="40.7958517" lon="14.0509667"><ele>68.5</ele><time>2026-04-09T14:10:19.685Z</time></trkpt><trkpt lat="40.7958133" lon="14.05088"><ele>69.0</ele><time>2026-04-09T14:10:22.685Z</time></trkpt><trkpt lat="40.79593" lon="14.0509583"><ele>69.4</ele><time>2026-04-09T14:10:28.685Z</time></trkpt><trkpt lat="40.7960633" lon="14.0509983"><ele>69.80000000000001</ele><time>2026-04-09T14:10:30.685Z</time></trkpt><trkpt lat="40.7961333" lon="14.0510083"><ele>70.19999999999999</ele><time>2026-04-09T14:10:31.686Z</time></trkpt><trkpt lat="40.7962483" lon="14.05097"><ele>70.6</ele><time>2026-04-09T14:10:33.685Z</time></trkpt><trkpt lat="40.7963333" lon="14.0508783"><ele>71.0</ele><time>2026-04-09T14:10:35.687Z</time></trkpt><trkpt lat="40.79638" lon="14.0508183"><ele>71.8</ele><time>2026-04-09T14:10:36.686Z</time></trkpt><trkpt lat="40.7964717" lon="14.0507317"><ele>72.6</ele><time>2026-04-09T14:10:38.686Z</time></trkpt><trkpt lat="40.79655" lon="14.0506517"><ele>73.4</ele><time>2026-04-09T14:10:40.687Z</time></trkpt><trkpt lat="40.7966267" lon="14.050575"><ele>74.2</ele><time>2026-04-09T14:10:42.684Z</time></trkpt><trkpt lat="40.7967017" lon="14.0505217"><ele>75.0</ele><time>2026-04-09T14:10:44.684Z</time></trkpt><trkpt lat="40.796775" lon="14.0504667"><ele>75.16666666666667</ele><time>2026-04-09T14:10:46.684Z</time></trkpt><trkpt lat="40.7968467" lon="14.05041"><ele>75.33333333333333</ele><time>2026-04-09T14:10:48.685Z</time></trkpt><trkpt lat="40.796925" lon="14.0503583"><ele>75.5</ele><time>2026-04-09T14:10:50.686Z</time></trkpt><trkpt lat="40.7970017" lon="14.050315"><ele>75.66666666666666</ele><time>2026-04-09T14:10:52.685Z</time></trkpt><trkpt lat="40.7970667" lon="14.0502333"><ele>75.83333333333333</ele><time>2026-04-09T14:10:54.684Z</time></trkpt><trkpt lat="40.797145" lon="14.050205"><ele>76.0</ele><time>2026-04-09T14:10:56.685Z</time></trkpt><trkpt lat="40.797225" lon="14.0502083"><ele>76.0</ele><time>2026-04-09T14:10:58.689Z</time></trkpt><trkpt lat="40.7972933" lon="14.05025"><ele>76.0</ele><time>2026-04-09T14:11:00.685Z</time></trkpt><trkpt lat="40.797345" lon="14.0503083"><ele>76.0</ele><time>2026-04-09T14:11:02.684Z</time></trkpt><trkpt lat="40.7973833" lon="14.0503967"><ele>76.0</ele><time>2026-04-09T14:11:04.684Z</time></trkpt><trkpt lat="40.79742" lon="14.0505083"><ele>76.0</ele><time>2026-04-09T14:11:06.685Z</time></trkpt><trkpt lat="40.79745" lon="14.0506233"><ele>76.0</ele><time>2026-04-09T14:11:08.685Z</time></trkpt><trkpt lat="40.79748" lon="14.0507183"><ele>76.0</ele><time>2026-04-09T14:11:10.685Z</time></trkpt><trkpt lat="40.7975167" lon="14.0508083"><ele>76.0</ele><time>2026-04-09T14:11:12.686Z</time></trkpt><trkpt lat="40.7975583" lon="14.050895"><ele>76.0</ele><time>2026-04-09T14:11:14.686Z</time></trkpt><trkpt lat="40.7976083" lon="14.0509717"><ele>76.0</ele><time>2026-04-09T14:11:16.687Z</time></trkpt><trkpt lat="40.7976567" lon="14.0510683"><ele>76.0</ele><time>2026-04-09T14:11:18.685Z</time></trkpt><trkpt lat="40.7976717" lon="14.0511783"><ele>76.0</ele><time>2026-04-09T14:11:20.686Z</time></trkpt><trkpt lat="40.7976933" lon="14.05129"><ele>77.4</ele><time>2026-04-09T14:11:22.687Z</time></trkpt><trkpt lat="40.79773" lon="14.0513867"><ele>78.8</ele><time>2026-04-09T14:11:24.686Z</time></trkpt><trkpt lat="40.79778" lon="14.05148"><ele>80.2</ele><time>2026-04-09T14:11:26.685Z</time></trkpt><trkpt lat="40.7978517" lon="14.05159"><ele>81.60000000000001</ele><time>2026-04-09T14:11:28.686Z</time></trkpt><trkpt lat="40.79792" lon="14.0516633"><ele>83.0</ele><time>2026-04-09T14:11:30.686Z</time></trkpt><trkpt lat="40.7979933" lon="14.0517367"><ele>83.0</ele><time>2026-04-09T14:11:32.686Z</time></trkpt><trkpt lat="40.7980667" lon="14.0517917"><ele>83.0</ele><time>2026-04-09T14:11:34.686Z</time></trkpt><trkpt lat="40.79809" lon="14.0519533"><ele>83.0</ele><time>2026-04-09T14:11:36.685Z</time></trkpt><trkpt lat="40.7981433" lon="14.0520083"><ele>83.0</ele><time>2026-04-09T14:11:38.685Z</time></trkpt><trkpt lat="40.798195" lon="14.0520683"><ele>83.0</ele><time>2026-04-09T14:11:40.685Z</time></trkpt><trkpt lat="40.798245" lon="14.05213"><ele>83.0</ele><time>2026-04-09T14:11:42.686Z</time></trkpt><trkpt lat="40.7982933" lon="14.0521933"><ele>83.0</ele><time>2026-04-09T14:11:44.685Z</time></trkpt><trkpt lat="40.7983117" lon="14.0522867"><ele>83.0</ele><time>2026-04-09T14:11:46.685Z</time></trkpt><trkpt lat="40.798335" lon="14.05238"><ele>83.0</ele><time>2026-04-09T14:11:48.685Z</time></trkpt><trkpt lat="40.7983483" lon="14.0524867"><ele>83.0</ele><time>2026-04-09T14:11:50.686Z</time></trkpt><trkpt lat="40.7983767" lon="14.0525983"><ele>83.0</ele><time>2026-04-09T14:11:52.685Z</time></trkpt><trkpt lat="40.79843" lon="14.0527067"><ele>83.0</ele><time>2026-04-09T14:11:54.685Z</time></trkpt><trkpt lat="40.7984983" lon="14.05278"><ele>84.33333333333334</ele><time>2026-04-09T14:11:56.685Z</time></trkpt><trkpt lat="40.7985783" lon="14.0528217"><ele>85.66666666666667</ele><time>2026-04-09T14:11:58.685Z</time></trkpt><trkpt lat="40.7986517" lon="14.0528483"><ele>87.0</ele><time>2026-04-09T14:12:00.686Z</time></trkpt><trkpt lat="40.7987233" lon="14.052865"><ele>88.33333333333333</ele><time>2026-04-09T14:12:02.685Z</time></trkpt><trkpt lat="40.798805" lon="14.0528983"><ele>89.66666666666666</ele><time>2026-04-09T14:12:04.685Z</time></trkpt><trkpt lat="40.7988733" lon="14.0528917"><ele>91.0</ele><time>2026-04-09T14:12:06.686Z</time></trkpt><trkpt lat="40.7989367" lon="14.05287"><ele>91.0</ele><time>2026-04-09T14:12:08.685Z</time></trkpt><trkpt lat="40.7990117" lon="14.052865"><ele>91.0</ele><time>2026-04-09T14:12:10.686Z</time></trkpt><trkpt lat="40.799095" lon="14.052885"><ele>91.0</ele><time>2026-04-09T14:12:12.685Z</time></trkpt><trkpt lat="40.7992017" lon="14.0528383"><ele>91.0</ele><time>2026-04-09T14:12:14.687Z</time></trkpt><trkpt lat="40.799285" lon="14.0527717"><ele>91.0</ele><time>2026-04-09T14:12:16.684Z</time></trkpt><trkpt lat="40.7993383" lon="14.05269"><ele>92.0</ele><time>2026-04-09T14:12:18.684Z</time></trkpt><trkpt lat="40.7993967" lon="14.052615"><ele>93.0</ele><time>2026-04-09T14:12:20.686Z</time></trkpt><trkpt lat="40.7994467" lon="14.0525583"><ele>94.0</ele><time>2026-04-09T14:12:23.685Z</time></trkpt><trkpt lat="40.7995033" lon="14.0524933"><ele>95.0</ele><time>2026-04-09T14:12:24.685Z</time></trkpt><trkpt lat="40.7995683" lon="14.0524367"><ele>96.00000000000001</ele><time>2026-04-09T14:12:26.684Z</time></trkpt><trkpt lat="40.7996467" lon="14.0523933"><ele>97.0</ele><time>2026-04-09T14:12:28.685Z</time></trkpt><trkpt lat="40.799725" lon="14.0523567"><ele>97.42857142857143</ele><time>2026-04-09T14:12:30.685Z</time></trkpt><trkpt lat="40.7998033" lon="14.05234"><ele>97.85714285714286</ele><time>2026-04-09T14:12:32.684Z</time></trkpt><trkpt lat="40.7998717" lon="14.0523233"><ele>98.28571428571429</ele><time>2026-04-09T14:12:34.685Z</time></trkpt><trkpt lat="40.7999333" lon="14.052295"><ele>98.71428571428572</ele><time>2026-04-09T14:12:36.685Z</time></trkpt><trkpt lat="40.8000267" lon="14.052295"><ele>99.14285714285714</ele><time>2026-04-09T14:12:39.686Z</time></trkpt><trkpt lat="40.800095" lon="14.0522883"><ele>99.57142857142858</ele><time>2026-04-09T14:12:41.686Z</time></trkpt><trkpt lat="40.80016" lon="14.0522883"><ele>100.0</ele><time>2026-04-09T14:12:43.685Z</time></trkpt><trkpt lat="40.8002433" lon="14.05227"><ele>100.4</ele><time>2026-04-09T14:12:45.686Z</time></trkpt><trkpt lat="40.8003233" lon="14.0522467"><ele>100.8</ele><time>2026-04-09T14:12:47.685Z</time></trkpt><trkpt lat="40.8004017" lon="14.0522417"><ele>101.19999999999999</ele><time>2026-04-09T14:12:49.685Z</time></trkpt><trkpt lat="40.8005083" lon="14.0522417"><ele>101.6</ele><time>2026-04-09T14:12:51.685Z</time></trkpt><trkpt lat="40.8006283" lon="14.0522383"><ele>102.0</ele><time>2026-04-09T14:12:53.685Z</time></trkpt><trkpt lat="40.8006933" lon="14.05224"><ele>102.0</ele><time>2026-04-09T14:12:54.685Z</time></trkpt><trkpt lat="40.8008133" lon="14.05227"><ele>102.0</ele><time>2026-04-09T14:12:56.686Z</time></trkpt><trkpt lat="40.80094" lon="14.0523067"><ele>102.0</ele><time>2026-04-09T14:12:58.686Z</time></trkpt><trkpt lat="40.8010083" lon="14.052335"><ele>102.0</ele><time>2026-04-09T14:12:59.685Z</time></trkpt><trkpt lat="40.8010733" lon="14.0523633"><ele>102.0</ele><time>2026-04-09T14:13:00.685Z</time></trkpt><trkpt lat="40.8011433" lon="14.0523933"><ele>100.57142857142857</ele><time>2026-04-09T14:13:01.685Z</time></trkpt><trkpt lat="40.801215" lon="14.0524133"><ele>99.14285714285714</ele><time>2026-04-09T14:13:02.686Z</time></trkpt><trkpt lat="40.801285" lon="14.0524267"><ele>97.71428571428572</ele><time>2026-04-09T14:13:03.686Z</time></trkpt><trkpt lat="40.8013583" lon="14.0524233"><ele>96.28571428571428</ele><time>2026-04-09T14:13:04.685Z</time></trkpt><trkpt lat="40.8014283" lon="14.0524033"><ele>94.85714285714285</ele><time>2026-04-09T14:13:05.685Z</time></trkpt><trkpt lat="40.8014983" lon="14.0523683"><ele>93.42857142857143</ele><time>2026-04-09T14:13:06.687Z</time></trkpt><trkpt lat="40.8015667" lon="14.0523167"><ele>92.0</ele><time>2026-04-09T14:13:07.686Z</time></trkpt><trkpt lat="40.8016333" lon="14.0522467"><ele>92.0</ele><time>2026-04-09T14:13:08.686Z</time></trkpt><trkpt lat="40.8016967" lon="14.0521667"><ele>92.0</ele><time>2026-04-09T14:13:09.685Z</time></trkpt><trkpt lat="40.8017517" lon="14.0520733"><ele>92.0</ele><time>2026-04-09T14:13:10.685Z</time></trkpt><trkpt lat="40.8018083" lon="14.051975"><ele>92.0</ele><time>2026-04-09T14:13:11.685Z</time></trkpt><trkpt lat="40.8018633" lon="14.0518833"><ele>92.0</ele><time>2026-04-09T14:13:12.686Z</time></trkpt><trkpt lat="40.8019233" lon="14.0518017"><ele>92.0</ele><time>2026-04-09T14:13:13.686Z</time></trkpt><trkpt lat="40.801995" lon="14.0517283"><ele>92.0</ele><time>2026-04-09T14:13:14.686Z</time></trkpt><trkpt lat="40.8020717" lon="14.05166"><ele>92.0</ele><time>2026-04-09T14:13:15.686Z</time></trkpt><trkpt lat="40.8021517" lon="14.0515883"><ele>92.0</ele><time>2026-04-09T14:13:16.686Z</time></trkpt><trkpt lat="40.8022333" lon="14.05151"><ele>92.0</ele><time>2026-04-09T14:13:17.685Z</time></trkpt><trkpt lat="40.8023233" lon="14.0514367"><ele>92.0</ele><time>2026-04-09T14:13:18.686Z</time></trkpt><trkpt lat="40.802415" lon="14.0513633"><ele>92.0</ele><time>2026-04-09T14:13:19.686Z</time></trkpt><trkpt lat="40.8025117" lon="14.051285"><ele>92.0</ele><time>2026-04-09T14:13:20.686Z</time></trkpt><trkpt lat="40.8026117" lon="14.05121"><ele>92.0</ele><time>2026-04-09T14:13:21.685Z</time></trkpt><trkpt lat="40.802715" lon="14.0511317"><ele>92.0</ele><time>2026-04-09T14:13:22.686Z</time></trkpt><trkpt lat="40.80282" lon="14.0510583"><ele>92.5</ele><time>2026-04-09T14:13:23.685Z</time></trkpt><trkpt lat="40.8029283" lon="14.0509883"><ele>93.0</ele><time>2026-04-09T14:13:24.686Z</time></trkpt><trkpt lat="40.8030383" lon="14.0509117"><ele>93.5</ele><time>2026-04-09T14:13:25.686Z</time></trkpt><trkpt lat="40.8031517" lon="14.0508367"><ele>94.0</ele><time>2026-04-09T14:13:26.686Z</time></trkpt><trkpt lat="40.8032667" lon="14.0507683"><ele>94.0</ele><time>2026-04-09T14:13:27.686Z</time></trkpt><trkpt lat="40.8033883" lon="14.0507117"><ele>94.0</ele><time>2026-04-09T14:13:28.686Z</time></trkpt><trkpt lat="40.8035133" lon="14.05066"><ele>94.0</ele><time>2026-04-09T14:13:29.686Z</time></trkpt><trkpt lat="40.8036367" lon="14.0506233"><ele>94.0</ele><time>2026-04-09T14:13:30.686Z</time></trkpt><trkpt lat="40.8037533" lon="14.0505917"><ele>90.5</ele><time>2026-04-09T14:13:31.686Z</time></trkpt><trkpt lat="40.80387" lon="14.050565"><ele>87.0</ele><time>2026-04-09T14:13:32.686Z</time></trkpt><trkpt lat="40.8039883" lon="14.0505417"><ele>83.5</ele><time>2026-04-09T14:13:33.685Z</time></trkpt><trkpt lat="40.8041083" lon="14.05052"><ele>80.0</ele><time>2026-04-09T14:13:34.689Z</time></trkpt><trkpt lat="40.8042333" lon="14.0504867"><ele>75.25</ele><time>2026-04-09T14:13:35.688Z</time></trkpt><trkpt lat="40.8043583" lon="14.050445"><ele>70.5</ele><time>2026-04-09T14:13:36.685Z</time></trkpt><trkpt lat="40.8044833" lon="14.05039"><ele>65.75</ele><time>2026-04-09T14:13:37.685Z</time></trkpt><trkpt lat="40.8046083" lon="14.050325"><ele>61.0</ele><time>2026-04-09T14:13:38.687Z</time></trkpt><trkpt lat="40.804735" lon="14.0502583"><ele>61.0</ele><time>2026-04-09T14:13:39.685Z</time></trkpt><trkpt lat="40.8048633" lon="14.0501883"><ele>61.0</ele><time>2026-04-09T14:13:40.685Z</time></trkpt><trkpt lat="40.8049883" lon="14.0501133"><ele>61.0</ele><time>2026-04-09T14:13:41.685Z</time></trkpt><trkpt lat="40.8051117" lon="14.050035"><ele>61.0</ele><time>2026-04-09T14:13:42.685Z</time></trkpt><trkpt lat="40.8052333" lon="14.04995"><ele>60.5</ele><time>2026-04-09T14:13:43.686Z</time></trkpt><trkpt lat="40.805355" lon="14.04986"><ele>60.0</ele><time>2026-04-09T14:13:44.685Z</time></trkpt><trkpt lat="40.8054717" lon="14.0497617"><ele>59.5</ele><time>2026-04-09T14:13:45.685Z</time></trkpt><trkpt lat="40.80559" lon="14.0496617"><ele>59.0</ele><time>2026-04-09T14:13:46.685Z</time></trkpt><trkpt lat="40.80571" lon="14.0495567"><ele>59.0</ele><time>2026-04-09T14:13:47.685Z</time></trkpt><trkpt lat="40.8058317" lon="14.04945"><ele>59.0</ele><time>2026-04-09T14:13:48.685Z</time></trkpt><trkpt lat="40.80595" lon="14.04935"><ele>59.0</ele><time>2026-04-09T14:13:49.684Z</time></trkpt><trkpt lat="40.80606" lon="14.049255"><ele>59.0</ele><time>2026-04-09T14:13:50.684Z</time></trkpt><trkpt lat="40.806165" lon="14.0491567"><ele>56.5</ele><time>2026-04-09T14:13:51.685Z</time></trkpt><trkpt lat="40.806265" lon="14.049055"><ele>54.0</ele><time>2026-04-09T14:13:52.684Z</time></trkpt><trkpt lat="40.806365" lon="14.048945"><ele>51.5</ele><time>2026-04-09T14:13:53.684Z</time></trkpt><trkpt lat="40.8064633" lon="14.04883"><ele>49.0</ele><time>2026-04-09T14:13:54.684Z</time></trkpt><trkpt lat="40.8065617" lon="14.0487117"><ele>49.0</ele><time>2026-04-09T14:13:55.684Z</time></trkpt><trkpt lat="40.80666" lon="14.04859"><ele>49.0</ele><time>2026-04-09T14:13:56.683Z</time></trkpt><trkpt lat="40.8067617" lon="14.0484717"><ele>49.0</ele><time>2026-04-09T14:13:57.684Z</time></trkpt><trkpt lat="40.8068633" lon="14.0483583"><ele>49.0</ele><time>2026-04-09T14:13:58.683Z</time></trkpt><trkpt lat="40.8069633" lon="14.04825"><ele>47.0</ele><time>2026-04-09T14:13:59.686Z</time></trkpt><trkpt lat="40.8070617" lon="14.048145"><ele>45.0</ele><time>2026-04-09T14:14:00.685Z</time></trkpt><trkpt lat="40.8071617" lon="14.04804"><ele>43.0</ele><time>2026-04-09T14:14:01.684Z</time></trkpt><trkpt lat="40.807265" lon="14.04794"><ele>41.0</ele><time>2026-04-09T14:14:02.684Z</time></trkpt><trkpt lat="40.8073717" lon="14.0478433"><ele>41.0</ele><time>2026-04-09T14:14:03.685Z</time></trkpt><trkpt lat="40.807475" lon="14.047755"><ele>41.0</ele><time>2026-04-09T14:14:04.685Z</time></trkpt><trkpt lat="40.80758" lon="14.0476717"><ele>41.0</ele><time>2026-04-09T14:14:05.684Z</time></trkpt><trkpt lat="40.8076917" lon="14.0475933"><ele>41.0</ele><time>2026-04-09T14:14:06.684Z</time></trkpt><trkpt lat="40.8078067" lon="14.0475183"><ele>40.5</ele><time>2026-04-09T14:14:07.684Z</time></trkpt><trkpt lat="40.8079233" lon="14.0474317"><ele>40.0</ele><time>2026-04-09T14:14:08.686Z</time></trkpt><trkpt lat="40.8080383" lon="14.0473367"><ele>39.5</ele><time>2026-04-09T14:14:09.685Z</time></trkpt><trkpt lat="40.8081467" lon="14.04723"><ele>39.0</ele><time>2026-04-09T14:14:10.684Z</time></trkpt><trkpt lat="40.8082483" lon="14.0471267"><ele>39.0</ele><time>2026-04-09T14:14:11.684Z</time></trkpt><trkpt lat="40.8083367" lon="14.0470367"><ele>39.0</ele><time>2026-04-09T14:14:12.684Z</time></trkpt><trkpt lat="40.8084267" lon="14.0469567"><ele>39.0</ele><time>2026-04-09T14:14:13.684Z</time></trkpt><trkpt lat="40.8085267" lon="14.04689"><ele>39.0</ele><time>2026-04-09T14:14:14.685Z</time></trkpt><trkpt lat="40.8086333" lon="14.046835"><ele>39.0</ele><time>2026-04-09T14:14:15.684Z</time></trkpt><trkpt lat="40.8087417" lon="14.0467833"><ele>37.5</ele><time>2026-04-09T14:14:16.684Z</time></trkpt><trkpt lat="40.8088483" lon="14.0467283"><ele>36.0</ele><time>2026-04-09T14:14:17.686Z</time></trkpt><trkpt lat="40.8089633" lon="14.04668"><ele>34.5</ele><time>2026-04-09T14:14:18.685Z</time></trkpt><trkpt lat="40.80908" lon="14.04663"><ele>33.0</ele><time>2026-04-09T14:14:19.686Z</time></trkpt><trkpt lat="40.8091917" lon="14.04657"><ele>33.0</ele><time>2026-04-09T14:14:20.687Z</time></trkpt><trkpt lat="40.8092983" lon="14.0465"><ele>33.0</ele><time>2026-04-09T14:14:21.686Z</time></trkpt><trkpt lat="40.8094017" lon="14.046415"><ele>33.0</ele><time>2026-04-09T14:14:22.685Z</time></trkpt><trkpt lat="40.8095033" lon="14.0463317"><ele>33.0</ele><time>2026-04-09T14:14:23.687Z</time></trkpt><trkpt lat="40.8096" lon="14.0462517"><ele>30.4</ele><time>2026-04-09T14:14:24.686Z</time></trkpt><trkpt lat="40.8096883" lon="14.0461783"><ele>27.799999999999997</ele><time>2026-04-09T14:14:25.686Z</time></trkpt><trkpt lat="40.809775" lon="14.0461117"><ele>25.2</ele><time>2026-04-09T14:14:26.686Z</time></trkpt><trkpt lat="40.80986" lon="14.04604"><ele>22.6</ele><time>2026-04-09T14:14:27.686Z</time></trkpt><trkpt lat="40.8099367" lon="14.0459667"><ele>20.0</ele><time>2026-04-09T14:14:28.686Z</time></trkpt><trkpt lat="40.8100017" lon="14.0458867"><ele>20.0</ele><time>2026-04-09T14:14:29.686Z</time></trkpt><trkpt lat="40.81006" lon="14.0458067"><ele>20.0</ele><time>2026-04-09T14:14:30.686Z</time></trkpt><trkpt lat="40.8101183" lon="14.0457367"><ele>20.0</ele><time>2026-04-09T14:14:31.686Z</time></trkpt><trkpt lat="40.810185" lon="14.0456767"><ele>20.0</ele><time>2026-04-09T14:14:32.688Z</time></trkpt><trkpt lat="40.8102633" lon="14.0456267"><ele>20.0</ele><time>2026-04-09T14:14:33.685Z</time></trkpt><trkpt lat="40.8103517" lon="14.0455767"><ele>20.0</ele><time>2026-04-09T14:14:34.694Z</time></trkpt><trkpt lat="40.810445" lon="14.0455317"><ele>18.166666666666668</ele><time>2026-04-09T14:14:35.685Z</time></trkpt><trkpt lat="40.8105333" lon="14.0455033"><ele>16.333333333333336</ele><time>2026-04-09T14:14:36.685Z</time></trkpt><trkpt lat="40.8106167" lon="14.045485"><ele>14.5</ele><time>2026-04-09T14:14:37.685Z</time></trkpt><trkpt lat="40.8106883" lon="14.0454867"><ele>12.666666666666668</ele><time>2026-04-09T14:14:38.684Z</time></trkpt><trkpt lat="40.8107567" lon="14.0455083"><ele>10.833333333333334</ele><time>2026-04-09T14:14:39.686Z</time></trkpt><trkpt lat="40.81082" lon="14.045545"><ele>9.0</ele><time>2026-04-09T14:14:40.685Z</time></trkpt><trkpt lat="40.8108733" lon="14.045595"><ele>9.0</ele><time>2026-04-09T14:14:41.685Z</time></trkpt><trkpt lat="40.810915" lon="14.0456967"><ele>9.0</ele><time>2026-04-09T14:14:42.686Z</time></trkpt><trkpt lat="40.810945" lon="14.0457867"><ele>9.0</ele><time>2026-04-09T14:14:43.685Z</time></trkpt><trkpt lat="40.8109517" lon="14.0459717"><ele>9.0</ele><time>2026-04-09T14:14:45.686Z</time></trkpt><trkpt lat="40.8109417" lon="14.0460733"><ele>9.0</ele><time>2026-04-09T14:14:46.685Z</time></trkpt><trkpt lat="40.8108667" lon="14.0462033"><ele>9.4</ele><time>2026-04-09T14:14:47.686Z</time></trkpt><trkpt lat="40.8107917" lon="14.0463283"><ele>9.8</ele><time>2026-04-09T14:14:48.685Z</time></trkpt><trkpt lat="40.8107217" lon="14.046445"><ele>10.200000000000001</ele><time>2026-04-09T14:14:49.686Z</time></trkpt><trkpt lat="40.8106617" lon="14.04655"><ele>10.600000000000001</ele><time>2026-04-09T14:14:50.685Z</time></trkpt><trkpt lat="40.8106017" lon="14.0466533"><ele>11.0</ele><time>2026-04-09T14:14:51.686Z</time></trkpt><trkpt lat="40.8105367" lon="14.0467567"><ele>10.0</ele><time>2026-04-09T14:14:52.685Z</time></trkpt><trkpt lat="40.8104733" lon="14.04686"><ele>9.0</ele><time>2026-04-09T14:14:53.687Z</time></trkpt><trkpt lat="40.8103983" lon="14.046955"><ele>8.0</ele><time>2026-04-09T14:14:54.687Z</time></trkpt><trkpt lat="40.8103233" lon="14.0470567"><ele>7.0</ele><time>2026-04-09T14:14:55.685Z</time></trkpt><trkpt lat="40.81025" lon="14.04713"><ele>6.0</ele><time>2026-04-09T14:14:56.685Z</time></trkpt><trkpt lat="40.81017" lon="14.047195"><ele>6.166666666666667</ele><time>2026-04-09T14:14:57.685Z</time></trkpt><trkpt lat="40.8100883" lon="14.0472533"><ele>6.333333333333334</ele><time>2026-04-09T14:14:58.685Z</time></trkpt><trkpt lat="40.81001" lon="14.0473117"><ele>6.5</ele><time>2026-04-09T14:14:59.685Z</time></trkpt><trkpt lat="40.8099367" lon="14.047365"><ele>6.666666666666667</ele><time>2026-04-09T14:15:00.686Z</time></trkpt><trkpt lat="40.80986" lon="14.0474183"><ele>6.833333333333334</ele><time>2026-04-09T14:15:01.686Z</time></trkpt><trkpt lat="40.8097883" lon="14.04747"><ele>7.0</ele><time>2026-04-09T14:15:02.685Z</time></trkpt><trkpt lat="40.8097133" lon="14.0475183"><ele>7.000000000000001</ele><time>2026-04-09T14:15:03.685Z</time></trkpt><trkpt lat="40.80964" lon="14.04757"><ele>7.0</ele><time>2026-04-09T14:15:04.685Z</time></trkpt><trkpt lat="40.809565" lon="14.04762"><ele>7.0</ele><time>2026-04-09T14:15:05.686Z</time></trkpt><trkpt lat="40.8094917" lon="14.047675"><ele>7.0</ele><time>2026-04-09T14:15:06.686Z</time></trkpt><trkpt lat="40.8094183" lon="14.0477333"><ele>7.000000000000001</ele><time>2026-04-09T14:15:07.685Z</time></trkpt><trkpt lat="40.8093533" lon="14.0477967"><ele>7.0</ele><time>2026-04-09T14:15:08.685Z</time></trkpt><trkpt lat="40.8092917" lon="14.04787"><ele>6.500000000000001</ele><time>2026-04-09T14:15:09.685Z</time></trkpt><trkpt lat="40.8092317" lon="14.04795"><ele>6.0</ele><time>2026-04-09T14:15:10.685Z</time></trkpt><trkpt lat="40.80917" lon="14.0480267"><ele>5.5</ele><time>2026-04-09T14:15:11.685Z</time></trkpt><trkpt lat="40.8091067" lon="14.0480983"><ele>5.0</ele><time>2026-04-09T14:15:12.686Z</time></trkpt><trkpt lat="40.8090433" lon="14.0481667"><ele>4.5</ele><time>2026-04-09T14:15:13.686Z</time></trkpt><trkpt lat="40.8089867" lon="14.0482367"><ele>4.0</ele><time>2026-04-09T14:15:14.685Z</time></trkpt><trkpt lat="40.808925" lon="14.0483067"><ele>3.9999999999999996</ele><time>2026-04-09T14:15:15.686Z</time></trkpt><trkpt lat="40.808875" lon="14.0483733"><ele>4.0</ele><time>2026-04-09T14:15:16.69Z</time></trkpt><trkpt lat="40.8088283" lon="14.0484467"><ele>4.0</ele><time>2026-04-09T14:15:17.686Z</time></trkpt><trkpt lat="40.80874" lon="14.0485383"><ele>4.0</ele><time>2026-04-09T14:15:19.685Z</time></trkpt><trkpt lat="40.8086617" lon="14.0486533"><ele>3.9999999999999996</ele><time>2026-04-09T14:15:21.689Z</time></trkpt><trkpt lat="40.8086117" lon="14.0487233"><ele>4.0</ele><time>2026-04-09T14:15:22.686Z</time></trkpt><trkpt lat="40.8085633" lon="14.0488017"><ele>3.9999999999999996</ele><time>2026-04-09T14:15:23.686Z</time></trkpt><trkpt lat="40.80852" lon="14.0488933"><ele>4.0</ele><time>2026-04-09T14:15:24.685Z</time></trkpt><trkpt lat="40.8084933" lon="14.0489867"><ele>4.0</ele><time>2026-04-09T14:15:25.685Z</time></trkpt><trkpt lat="40.8084783" lon="14.0490817"><ele>4.0</ele><time>2026-04-09T14:15:26.686Z</time></trkpt><trkpt lat="40.808485" lon="14.0491733"><ele>3.9999999999999996</ele><time>2026-04-09T14:15:27.694Z</time></trkpt><trkpt lat="40.8085083" lon="14.0492583"><ele>4.0</ele><time>2026-04-09T14:15:28.685Z</time></trkpt><trkpt lat="40.8085617" lon="14.0493383"><ele>3.6</ele><time>2026-04-09T14:15:29.685Z</time></trkpt><trkpt lat="40.8086267" lon="14.049405"><ele>3.2</ele><time>2026-04-09T14:15:30.687Z</time></trkpt><trkpt lat="40.808705" lon="14.0494767"><ele>2.8000000000000003</ele><time>2026-04-09T14:15:31.685Z</time></trkpt><trkpt lat="40.8087817" lon="14.04955"><ele>2.4000000000000004</ele><time>2026-04-09T14:15:32.685Z</time></trkpt><trkpt lat="40.80886" lon="14.04962"><ele>2.0</ele><time>2026-04-09T14:15:33.686Z</time></trkpt><trkpt lat="40.8089417" lon="14.0496867"><ele>1.9999999999999998</ele><time>2026-04-09T14:15:34.685Z</time></trkpt><trkpt lat="40.8090067" lon="14.0497633"><ele>2.0</ele><time>2026-04-09T14:15:35.687Z</time></trkpt><trkpt lat="40.8090617" lon="14.0498517"><ele>2.0</ele><time>2026-04-09T14:15:36.685Z</time></trkpt><trkpt lat="40.80909" lon="14.0499583"><ele>2.0</ele><time>2026-04-09T14:15:37.686Z</time></trkpt><trkpt lat="40.8090867" lon="14.0500667"><ele>1.9999999999999998</ele><time>2026-04-09T14:15:38.686Z</time></trkpt><trkpt lat="40.8090617" lon="14.0501717"><ele>2.0</ele><time>2026-04-09T14:15:39.685Z</time></trkpt><trkpt lat="40.8090233" lon="14.0502683"><ele>2.0</ele><time>2026-04-09T14:15:40.688Z</time></trkpt><trkpt lat="40.808985" lon="14.0503567"><ele>1.9999999999999998</ele><time>2026-04-09T14:15:41.685Z</time></trkpt><trkpt lat="40.8089467" lon="14.0504433"><ele>2.0</ele><time>2026-04-09T14:15:42.686Z</time></trkpt><trkpt lat="40.8089067" lon="14.0505267"><ele>2.0</ele><time>2026-04-09T14:15:43.686Z</time></trkpt><trkpt lat="40.8088667" lon="14.05061"><ele>1.9999999999999998</ele><time>2026-04-09T14:15:44.685Z</time></trkpt><trkpt lat="40.80883" lon="14.05069"><ele>2.0</ele><time>2026-04-09T14:15:45.685Z</time></trkpt><trkpt lat="40.8087967" lon="14.0507683"><ele>2.0</ele><time>2026-04-09T14:15:46.685Z</time></trkpt><trkpt lat="40.8087617" lon="14.0508433"><ele>2.142857142857143</ele><time>2026-04-09T14:15:47.685Z</time></trkpt><trkpt lat="40.808725" lon="14.050915"><ele>2.2857142857142856</ele><time>2026-04-09T14:15:48.685Z</time></trkpt><trkpt lat="40.8086883" lon="14.0509867"><ele>2.4285714285714284</ele><time>2026-04-09T14:15:49.693Z</time></trkpt><trkpt lat="40.8086517" lon="14.0510567"><ele>2.571428571428571</ele><time>2026-04-09T14:15:50.686Z</time></trkpt><trkpt lat="40.8086133" lon="14.0511233"><ele>2.7142857142857144</ele><time>2026-04-09T14:15:51.686Z</time></trkpt><trkpt lat="40.80853" lon="14.051245"><ele>2.8571428571428568</ele><time>2026-04-09T14:15:53.686Z</time></trkpt><trkpt lat="40.8084867" lon="14.0513083"><ele>3.0</ele><time>2026-04-09T14:15:54.685Z</time></trkpt><trkpt lat="40.808405" lon="14.0514333"><ele>3.2</ele><time>2026-04-09T14:15:56.685Z</time></trkpt><trkpt lat="40.80832" lon="14.0515383"><ele>3.4</ele><time>2026-04-09T14:15:58.685Z</time></trkpt><trkpt lat="40.80824" lon="14.0516467"><ele>3.6000000000000005</ele><time>2026-04-09T14:16:00.686Z</time></trkpt><trkpt lat="40.808155" lon="14.05176"><ele>3.8000000000000003</ele><time>2026-04-09T14:16:02.685Z</time></trkpt><trkpt lat="40.8081117" lon="14.0518217"><ele>4.0</ele><time>2026-04-09T14:16:03.685Z</time></trkpt><trkpt lat="40.80807" lon="14.051885"><ele>3.6</ele><time>2026-04-09T14:16:04.685Z</time></trkpt><trkpt lat="40.8080233" lon="14.0519433"><ele>3.2</ele><time>2026-04-09T14:16:05.685Z</time></trkpt><trkpt lat="40.8079317" lon="14.052065"><ele>2.8000000000000003</ele><time>2026-04-09T14:16:07.686Z</time></trkpt><trkpt lat="40.8078867" lon="14.0521283"><ele>2.4000000000000004</ele><time>2026-04-09T14:16:08.689Z</time></trkpt><trkpt lat="40.8078433" lon="14.0521917"><ele>2.0</ele><time>2026-04-09T14:16:09.685Z</time></trkpt><trkpt lat="40.80776" lon="14.05232"><ele>1.9999999999999998</ele><time>2026-04-09T14:16:11.685Z</time></trkpt><trkpt lat="40.807715" lon="14.0523833"><ele>2.0</ele><time>2026-04-09T14:16:12.686Z</time></trkpt><trkpt lat="40.8076683" lon="14.0524433"><ele>2.0</ele><time>2026-04-09T14:16:13.685Z</time></trkpt><trkpt lat="40.807625" lon="14.0525083"><ele>2.0</ele><time>2026-04-09T14:16:14.685Z</time></trkpt><trkpt lat="40.8075817" lon="14.0525733"><ele>1.9999999999999998</ele><time>2026-04-09T14:16:15.685Z</time></trkpt><trkpt lat="40.8074983" lon="14.052695"><ele>2.0</ele><time>2026-04-09T14:16:17.685Z</time></trkpt><trkpt lat="40.8074117" lon="14.052815"><ele>2.142857142857143</ele><time>2026-04-09T14:16:19.685Z</time></trkpt><trkpt lat="40.8073667" lon="14.0528733"><ele>2.2857142857142856</ele><time>2026-04-09T14:16:20.685Z</time></trkpt><trkpt lat="40.8073267" lon="14.0529417"><ele>2.4285714285714284</ele><time>2026-04-09T14:16:21.685Z</time></trkpt><trkpt lat="40.8072517" lon="14.0530717"><ele>2.571428571428571</ele><time>2026-04-09T14:16:23.685Z</time></trkpt><trkpt lat="40.807215" lon="14.05314"><ele>2.7142857142857144</ele><time>2026-04-09T14:16:24.686Z</time></trkpt><trkpt lat="40.80718" lon="14.0532117"><ele>2.8571428571428568</ele><time>2026-04-09T14:16:25.686Z</time></trkpt><trkpt lat="40.8071433" lon="14.0532817"><ele>3.0</ele><time>2026-04-09T14:16:26.686Z</time></trkpt><trkpt lat="40.8071067" lon="14.0533533"><ele>3.4</ele><time>2026-04-09T14:16:27.687Z</time></trkpt><trkpt lat="40.8070717" lon="14.053425"><ele>3.8</ele><time>2026-04-09T14:16:28.685Z</time></trkpt><trkpt lat="40.8069983" lon="14.0535583"><ele>4.2</ele><time>2026-04-09T14:16:30.685Z</time></trkpt><trkpt lat="40.80693" lon="14.053695"><ele>4.6</ele><time>2026-04-09T14:16:32.686Z</time></trkpt><trkpt lat="40.8068583" lon="14.0538333"><ele>5.0</ele><time>2026-04-09T14:16:34.685Z</time></trkpt><trkpt lat="40.8067883" lon="14.0539667"><ele>5.166666666666667</ele><time>2026-04-09T14:16:36.685Z</time></trkpt><trkpt lat="40.8067167" lon="14.0541017"><ele>5.333333333333334</ele><time>2026-04-09T14:16:38.685Z</time></trkpt><trkpt lat="40.8066783" lon="14.0541683"><ele>5.5</ele><time>2026-04-09T14:16:39.685Z</time></trkpt><trkpt lat="40.80664" lon="14.0542367"><ele>5.666666666666667</ele><time>2026-04-09T14:16:40.685Z</time></trkpt><trkpt lat="40.8066017" lon="14.054305"><ele>5.833333333333333</ele><time>2026-04-09T14:16:41.686Z</time></trkpt><trkpt lat="40.8065617" lon="14.0543733"><ele>6.0</ele><time>2026-04-09T14:16:42.685Z</time></trkpt><trkpt lat="40.8064817" lon="14.0544933"><ele>6.25</ele><time>2026-04-09T14:16:44.685Z</time></trkpt><trkpt lat="40.8064083" lon="14.0546167"><ele>6.5</ele><time>2026-04-09T14:16:46.685Z</time></trkpt><trkpt lat="40.806335" lon="14.0547367"><ele>6.75</ele><time>2026-04-09T14:16:48.686Z</time></trkpt><trkpt lat="40.8062683" lon="14.0548633"><ele>7.0</ele><time>2026-04-09T14:16:50.687Z</time></trkpt><trkpt lat="40.8062033" lon="14.0549833"><ele>7.0</ele><time>2026-04-09T14:16:52.686Z</time></trkpt><trkpt lat="40.8061617" lon="14.0551117"><ele>6.999999999999999</ele><time>2026-04-09T14:16:54.686Z</time></trkpt><trkpt lat="40.806115" lon="14.0552317"><ele>6.999999999999999</ele><time>2026-04-09T14:16:56.686Z</time></trkpt><trkpt lat="40.8060583" lon="14.0553483"><ele>7.0</ele><time>2026-04-09T14:16:58.686Z</time></trkpt><trkpt lat="40.80601" lon="14.0554683"><ele>7.0</ele><time>2026-04-09T14:17:00.686Z</time></trkpt><trkpt lat="40.8059567" lon="14.055595"><ele>7.0</ele><time>2026-04-09T14:17:02.685Z</time></trkpt><trkpt lat="40.805895" lon="14.0557217"><ele>7.0</ele><time>2026-04-09T14:17:04.686Z</time></trkpt><trkpt lat="40.80584" lon="14.0558483"><ele>7.0</ele><time>2026-04-09T14:17:06.685Z</time></trkpt><trkpt lat="40.80578" lon="14.0559833"><ele>7.0</ele><time>2026-04-09T14:17:08.687Z</time></trkpt><trkpt lat="40.805715" lon="14.0561217"><ele>7.000000000000001</ele><time>2026-04-09T14:17:10.685Z</time></trkpt><trkpt lat="40.8056817" lon="14.0561933"><ele>7.0</ele><time>2026-04-09T14:17:11.685Z</time></trkpt><trkpt lat="40.8056417" lon="14.0562667"><ele>7.0</ele><time>2026-04-09T14:17:12.685Z</time></trkpt><trkpt lat="40.8056" lon="14.0563317"><ele>7.0</ele><time>2026-04-09T14:17:13.685Z</time></trkpt><trkpt lat="40.8055533" lon="14.05639"><ele>7.000000000000001</ele><time>2026-04-09T14:17:14.686Z</time></trkpt><trkpt lat="40.80547" lon="14.0565017"><ele>7.0</ele><time>2026-04-09T14:17:16.685Z</time></trkpt><trkpt lat="40.8053967" lon="14.0566083"><ele>7.0</ele><time>2026-04-09T14:17:18.685Z</time></trkpt><trkpt lat="40.8053183" lon="14.0567067"><ele>7.0</ele><time>2026-04-09T14:17:20.686Z</time></trkpt><trkpt lat="40.8052333" lon="14.056805"><ele>7.0</ele><time>2026-04-09T14:17:22.685Z</time></trkpt><trkpt lat="40.8051417" lon="14.056895"><ele>7.0</ele><time>2026-04-09T14:17:24.685Z</time></trkpt><trkpt lat="40.8050567" lon="14.0570017"><ele>7.199999999999999</ele><time>2026-04-09T14:17:26.685Z</time></trkpt><trkpt lat="40.8049783" lon="14.0571167"><ele>7.3999999999999995</ele><time>2026-04-09T14:17:28.685Z</time></trkpt><trkpt lat="40.8048933" lon="14.0572217"><ele>7.6000000000000005</ele><time>2026-04-09T14:17:30.685Z</time></trkpt><trkpt lat="40.804805" lon="14.0573333"><ele>7.800000000000001</ele><time>2026-04-09T14:17:32.685Z</time></trkpt><trkpt lat="40.8047583" lon="14.0573917"><ele>8.0</ele><time>2026-04-09T14:17:33.685Z</time></trkpt><trkpt lat="40.8047117" lon="14.0574533"><ele>7.999999999999999</ele><time>2026-04-09T14:17:34.693Z</time></trkpt><trkpt lat="40.80466" lon="14.05751"><ele>8.0</ele><time>2026-04-09T14:17:35.685Z</time></trkpt><trkpt lat="40.804605" lon="14.0575617"><ele>8.0</ele><time>2026-04-09T14:17:36.685Z</time></trkpt><trkpt lat="40.80455" lon="14.0576183"><ele>8.0</ele><time>2026-04-09T14:17:37.685Z</time></trkpt><trkpt lat="40.8044983" lon="14.0576767"><ele>7.999999999999999</ele><time>2026-04-09T14:17:38.685Z</time></trkpt><trkpt lat="40.80441" lon="14.0577883"><ele>8.0</ele><time>2026-04-09T14:17:40.685Z</time></trkpt><trkpt lat="40.80436" lon="14.0578417"><ele>8.333333333333332</ele><time>2026-04-09T14:17:41.687Z</time></trkpt><trkpt lat="40.8043083" lon="14.0578933"><ele>8.666666666666666</ele><time>2026-04-09T14:17:42.686Z</time></trkpt><trkpt lat="40.804255" lon="14.0579433"><ele>9.0</ele><time>2026-04-09T14:17:43.685Z</time></trkpt><trkpt lat="40.80415" lon="14.0580367"><ele>9.333333333333334</ele><time>2026-04-09T14:17:45.685Z</time></trkpt><trkpt lat="40.8040967" lon="14.0580833"><ele>9.666666666666668</ele><time>2026-04-09T14:17:46.685Z</time></trkpt><trkpt lat="40.804045" lon="14.0581383"><ele>10.0</ele><time>2026-04-09T14:17:47.685Z</time></trkpt><trkpt lat="40.80399" lon="14.05819"><ele>10.0</ele><time>2026-04-09T14:17:48.686Z</time></trkpt><trkpt lat="40.803935" lon="14.058245"><ele>10.0</ele><time>2026-04-09T14:17:49.686Z</time></trkpt><trkpt lat="40.8038783" lon="14.0583"><ele>10.0</ele><time>2026-04-09T14:17:50.689Z</time></trkpt><trkpt lat="40.8038183" lon="14.0583567"><ele>10.0</ele><time>2026-04-09T14:17:51.685Z</time></trkpt><trkpt lat="40.8037617" lon="14.0584167"><ele>10.0</ele><time>2026-04-09T14:17:52.687Z</time></trkpt><trkpt lat="40.8036967" lon="14.058465"><ele>10.0</ele><time>2026-04-09T14:17:53.686Z</time></trkpt><trkpt lat="40.80363" lon="14.0585083"><ele>10.0</ele><time>2026-04-09T14:17:54.687Z</time></trkpt><trkpt lat="40.8035667" lon="14.0585517"><ele>10.333333333333334</ele><time>2026-04-09T14:17:55.685Z</time></trkpt><trkpt lat="40.8035033" lon="14.0585967"><ele>10.666666666666668</ele><time>2026-04-09T14:17:56.686Z</time></trkpt><trkpt lat="40.8034433" lon="14.0586317"><ele>11.0</ele><time>2026-04-09T14:17:57.685Z</time></trkpt><trkpt lat="40.8033817" lon="14.0586767"><ele>11.333333333333334</ele><time>2026-04-09T14:17:58.685Z</time></trkpt><trkpt lat="40.803325" lon="14.0587217"><ele>11.666666666666666</ele><time>2026-04-09T14:17:59.686Z</time></trkpt><trkpt lat="40.80322" lon="14.058815"><ele>12.0</ele><time>2026-04-09T14:18:01.685Z</time></trkpt><trkpt lat="40.8031667" lon="14.0588683"><ele>12.166666666666666</ele><time>2026-04-09T14:18:02.685Z</time></trkpt><trkpt lat="40.803115" lon="14.0589217"><ele>12.333333333333332</ele><time>2026-04-09T14:18:03.686Z</time></trkpt><trkpt lat="40.80302" lon="14.0590267"><ele>12.5</ele><time>2026-04-09T14:18:05.686Z</time></trkpt><trkpt lat="40.8029733" lon="14.0590883"><ele>12.666666666666666</ele><time>2026-04-09T14:18:06.685Z</time></trkpt><trkpt lat="40.8029267" lon="14.05915"><ele>12.833333333333332</ele><time>2026-04-09T14:18:07.687Z</time></trkpt><trkpt lat="40.80288" lon="14.0592083"><ele>13.0</ele><time>2026-04-09T14:18:08.685Z</time></trkpt><trkpt lat="40.802785" lon="14.0593117"><ele>13.142857142857142</ele><time>2026-04-09T14:18:10.685Z</time></trkpt><trkpt lat="40.8027367" lon="14.0593667"><ele>13.285714285714286</ele><time>2026-04-09T14:18:11.685Z</time></trkpt><trkpt lat="40.80269" lon="14.0594233"><ele>13.428571428571429</ele><time>2026-04-09T14:18:12.685Z</time></trkpt><trkpt lat="40.8025933" lon="14.05953"><ele>13.571428571428571</ele><time>2026-04-09T14:18:14.686Z</time></trkpt><trkpt lat="40.802545" lon="14.0595867"><ele>13.714285714285715</ele><time>2026-04-09T14:18:15.689Z</time></trkpt><trkpt lat="40.802495" lon="14.05964"><ele>13.857142857142858</ele><time>2026-04-09T14:18:16.685Z</time></trkpt><trkpt lat="40.8024433" lon="14.0596967"><ele>14.0</ele><time>2026-04-09T14:18:17.685Z</time></trkpt><trkpt lat="40.80239" lon="14.05975"><ele>14.5</ele><time>2026-04-09T14:18:18.687Z</time></trkpt><trkpt lat="40.8023017" lon="14.0598567"><ele>15.0</ele><time>2026-04-09T14:18:20.685Z</time></trkpt><trkpt lat="40.8022117" lon="14.0599583"><ele>15.5</ele><time>2026-04-09T14:18:22.684Z</time></trkpt><trkpt lat="40.8021267" lon="14.0600583"><ele>16.0</ele><time>2026-04-09T14:18:24.685Z</time></trkpt><trkpt lat="40.802045" lon="14.0601533"><ele>16.0</ele><time>2026-04-09T14:18:26.685Z</time></trkpt><trkpt lat="40.8019683" lon="14.0602467"><ele>16.0</ele><time>2026-04-09T14:18:28.686Z</time></trkpt><trkpt lat="40.801895" lon="14.0603367"><ele>16.0</ele><time>2026-04-09T14:18:30.685Z</time></trkpt><trkpt lat="40.8018167" lon="14.06043"><ele>16.0</ele><time>2026-04-09T14:18:32.685Z</time></trkpt><trkpt lat="40.8017417" lon="14.06052"><ele>16.0</ele><time>2026-04-09T14:18:34.685Z</time></trkpt><trkpt lat="40.801665" lon="14.060605"><ele>16.6</ele><time>2026-04-09T14:18:36.685Z</time></trkpt><trkpt lat="40.801585" lon="14.0606867"><ele>17.200000000000003</ele><time>2026-04-09T14:18:38.687Z</time></trkpt><trkpt lat="40.801505" lon="14.060775"><ele>17.799999999999997</ele><time>2026-04-09T14:18:40.686Z</time></trkpt><trkpt lat="40.80143" lon="14.0608633"><ele>18.4</ele><time>2026-04-09T14:18:42.685Z</time></trkpt><trkpt lat="40.80136" lon="14.0609517"><ele>19.0</ele><time>2026-04-09T14:18:44.686Z</time></trkpt><trkpt lat="40.80129" lon="14.061035"><ele>19.0</ele><time>2026-04-09T14:18:46.685Z</time></trkpt><trkpt lat="40.80122" lon="14.061115"><ele>19.0</ele><time>2026-04-09T14:18:48.685Z</time></trkpt><trkpt lat="40.80115" lon="14.0612"><ele>19.0</ele><time>2026-04-09T14:18:50.687Z</time></trkpt><trkpt lat="40.8010817" lon="14.0612783"><ele>19.0</ele><time>2026-04-09T14:18:52.685Z</time></trkpt><trkpt lat="40.8010133" lon="14.06135"><ele>19.0</ele><time>2026-04-09T14:18:54.686Z</time></trkpt><trkpt lat="40.800945" lon="14.0614217"><ele>20.0</ele><time>2026-04-09T14:18:56.686Z</time></trkpt><trkpt lat="40.80088" lon="14.0615"><ele>21.0</ele><time>2026-04-09T14:18:58.686Z</time></trkpt><trkpt lat="40.8008167" lon="14.0615783"><ele>22.0</ele><time>2026-04-09T14:19:00.685Z</time></trkpt><trkpt lat="40.800755" lon="14.06165"><ele>23.0</ele><time>2026-04-09T14:19:02.685Z</time></trkpt><trkpt lat="40.8006917" lon="14.0617183"><ele>24.000000000000004</ele><time>2026-04-09T14:19:04.686Z</time></trkpt><trkpt lat="40.8006317" lon="14.06179"><ele>25.0</ele><time>2026-04-09T14:19:06.685Z</time></trkpt><trkpt lat="40.8005683" lon="14.0618717"><ele>25.000000000000004</ele><time>2026-04-09T14:19:08.685Z</time></trkpt><trkpt lat="40.8004983" lon="14.061945"><ele>25.0</ele><time>2026-04-09T14:19:10.686Z</time></trkpt><trkpt lat="40.8004283" lon="14.0620133"><ele>25.0</ele><time>2026-04-09T14:19:12.686Z</time></trkpt><trkpt lat="40.8003633" lon="14.062095"><ele>25.0</ele><time>2026-04-09T14:19:14.686Z</time></trkpt><trkpt lat="40.8003017" lon="14.0621717"><ele>25.000000000000004</ele><time>2026-04-09T14:19:16.686Z</time></trkpt><trkpt lat="40.8002367" lon="14.06225"><ele>25.0</ele><time>2026-04-09T14:19:18.686Z</time></trkpt><trkpt lat="40.8001683" lon="14.0623383"><ele>25.2</ele><time>2026-04-09T14:19:20.686Z</time></trkpt><trkpt lat="40.8000933" lon="14.0624083"><ele>25.4</ele><time>2026-04-09T14:19:22.687Z</time></trkpt><trkpt lat="40.8000233" lon="14.06249"><ele>25.6</ele><time>2026-04-09T14:19:24.688Z</time></trkpt><trkpt lat="40.79995" lon="14.06257"><ele>25.8</ele><time>2026-04-09T14:19:26.685Z</time></trkpt><trkpt lat="40.7998683" lon="14.0626583"><ele>26.0</ele><time>2026-04-09T14:19:28.685Z</time></trkpt><trkpt lat="40.7997783" lon="14.062765"><ele>26.0</ele><time>2026-04-09T14:19:30.685Z</time></trkpt><trkpt lat="40.7996917" lon="14.0628783"><ele>26.0</ele><time>2026-04-09T14:19:32.685Z</time></trkpt><trkpt lat="40.799645" lon="14.062935"><ele>26.0</ele><time>2026-04-09T14:19:33.687Z</time></trkpt><trkpt lat="40.7995483" lon="14.0630467"><ele>26.0</ele><time>2026-04-09T14:19:35.686Z</time></trkpt><trkpt lat="40.799495" lon="14.0631017"><ele>26.0</ele><time>2026-04-09T14:19:36.688Z</time></trkpt><trkpt lat="40.79944" lon="14.0631617"><ele>25.999999999999996</ele><time>2026-04-09T14:19:37.685Z</time></trkpt><trkpt lat="40.799385" lon="14.063225"><ele>26.0</ele><time>2026-04-09T14:19:38.686Z</time></trkpt><trkpt lat="40.79933" lon="14.063295"><ele>26.0</ele><time>2026-04-09T14:19:39.686Z</time></trkpt><trkpt lat="40.7992733" lon="14.0633617"><ele>26.0</ele><time>2026-04-09T14:19:40.686Z</time></trkpt><trkpt lat="40.7992133" lon="14.0634267"><ele>25.999999999999996</ele><time>2026-04-09T14:19:41.685Z</time></trkpt><trkpt lat="40.7991517" lon="14.063495"><ele>26.0</ele><time>2026-04-09T14:19:42.685Z</time></trkpt><trkpt lat="40.7990933" lon="14.0635633"><ele>25.0</ele><time>2026-04-09T14:19:43.686Z</time></trkpt><trkpt lat="40.7990367" lon="14.0636267"><ele>24.0</ele><time>2026-04-09T14:19:44.686Z</time></trkpt><trkpt lat="40.79899" lon="14.0636917"><ele>23.0</ele><time>2026-04-09T14:19:45.686Z</time></trkpt><trkpt lat="40.79892" lon="14.0637933"><ele>22.0</ele><time>2026-04-09T14:19:47.685Z</time></trkpt><trkpt lat="40.7988433" lon="14.063885"><ele>21.0</ele><time>2026-04-09T14:19:49.685Z</time></trkpt><trkpt lat="40.798755" lon="14.0639733"><ele>21.0</ele><time>2026-04-09T14:19:51.685Z</time></trkpt><trkpt lat="40.79871" lon="14.0640317"><ele>21.0</ele><time>2026-04-09T14:19:52.686Z</time></trkpt><trkpt lat="40.798665" lon="14.0640917"><ele>21.0</ele><time>2026-04-09T14:19:53.685Z</time></trkpt><trkpt lat="40.798615" lon="14.0641533"><ele>21.0</ele><time>2026-04-09T14:19:54.686Z</time></trkpt><trkpt lat="40.7985633" lon="14.0642167"><ele>21.0</ele><time>2026-04-09T14:19:55.685Z</time></trkpt><trkpt lat="40.798515" lon="14.064285"><ele>21.0</ele><time>2026-04-09T14:19:56.685Z</time></trkpt><trkpt lat="40.798465" lon="14.0643533"><ele>21.0</ele><time>2026-04-09T14:19:57.686Z</time></trkpt><trkpt lat="40.7984067" lon="14.0644183"><ele>20.333333333333332</ele><time>2026-04-09T14:19:58.685Z</time></trkpt><trkpt lat="40.7983467" lon="14.0644817"><ele>19.666666666666668</ele><time>2026-04-09T14:19:59.686Z</time></trkpt><trkpt lat="40.7982883" lon="14.0645467"><ele>19.0</ele><time>2026-04-09T14:20:00.686Z</time></trkpt><trkpt lat="40.7982283" lon="14.06461"><ele>18.333333333333336</ele><time>2026-04-09T14:20:01.686Z</time></trkpt><trkpt lat="40.7981683" lon="14.064675"><ele>17.666666666666668</ele><time>2026-04-09T14:20:02.685Z</time></trkpt><trkpt lat="40.7981083" lon="14.0647417"><ele>17.0</ele><time>2026-04-09T14:20:03.686Z</time></trkpt><trkpt lat="40.7980467" lon="14.06481"><ele>17.0</ele><time>2026-04-09T14:20:04.686Z</time></trkpt><trkpt lat="40.7979833" lon="14.0648783"><ele>17.0</ele><time>2026-04-09T14:20:05.686Z</time></trkpt><trkpt lat="40.7979183" lon="14.0649467"><ele>17.0</ele><time>2026-04-09T14:20:06.685Z</time></trkpt><trkpt lat="40.797855" lon="14.0650217"><ele>17.0</ele><time>2026-04-09T14:20:07.686Z</time></trkpt><trkpt lat="40.7977883" lon="14.0650983"><ele>17.0</ele><time>2026-04-09T14:20:08.686Z</time></trkpt><trkpt lat="40.797725" lon="14.0651733"><ele>17.0</ele><time>2026-04-09T14:20:09.685Z</time></trkpt><trkpt lat="40.79767" lon="14.065245"><ele>16.0</ele><time>2026-04-09T14:20:10.685Z</time></trkpt><trkpt lat="40.797625" lon="14.0653067"><ele>15.0</ele><time>2026-04-09T14:20:11.687Z</time></trkpt><trkpt lat="40.7975467" lon="14.065395"><ele>14.0</ele><time>2026-04-09T14:20:13.686Z</time></trkpt><trkpt lat="40.7974667" lon="14.0654867"><ele>13.0</ele><time>2026-04-09T14:20:15.686Z</time></trkpt><trkpt lat="40.7973683" lon="14.0655933"><ele>12.0</ele><time>2026-04-09T14:20:17.687Z</time></trkpt><trkpt lat="40.797315" lon="14.065655"><ele>12.0</ele><time>2026-04-09T14:20:18.685Z</time></trkpt><trkpt lat="40.7972583" lon="14.0657167"><ele>12.0</ele><time>2026-04-09T14:20:19.686Z</time></trkpt><trkpt lat="40.7971983" lon="14.0657817"><ele>12.0</ele><time>2026-04-09T14:20:20.685Z</time></trkpt><trkpt lat="40.7971367" lon="14.06585"><ele>12.0</ele><time>2026-04-09T14:20:21.685Z</time></trkpt><trkpt lat="40.7970783" lon="14.0659217"><ele>12.0</ele><time>2026-04-09T14:20:22.686Z</time></trkpt><trkpt lat="40.797015" lon="14.0659967"><ele>12.0</ele><time>2026-04-09T14:20:23.686Z</time></trkpt><trkpt lat="40.7969517" lon="14.0660733"><ele>12.0</ele><time>2026-04-09T14:20:24.686Z</time></trkpt><trkpt lat="40.7968917" lon="14.0661517"><ele>12.0</ele><time>2026-04-09T14:20:25.688Z</time></trkpt><trkpt lat="40.796825" lon="14.0662267"><ele>12.0</ele><time>2026-04-09T14:20:26.686Z</time></trkpt><trkpt lat="40.79676" lon="14.06631"><ele>12.0</ele><time>2026-04-09T14:20:27.686Z</time></trkpt><trkpt lat="40.7966883" lon="14.0663867"><ele>12.0</ele><time>2026-04-09T14:20:28.685Z</time></trkpt><trkpt lat="40.796615" lon="14.06646"><ele>12.0</ele><time>2026-04-09T14:20:29.685Z</time></trkpt><trkpt lat="40.7965467" lon="14.0665367"><ele>11.0</ele><time>2026-04-09T14:20:30.686Z</time></trkpt><trkpt lat="40.7964767" lon="14.0666133"><ele>10.0</ele><time>2026-04-09T14:20:31.687Z</time></trkpt><trkpt lat="40.7964083" lon="14.0666867"><ele>9.0</ele><time>2026-04-09T14:20:32.686Z</time></trkpt><trkpt lat="40.7963433" lon="14.0667633"><ele>8.0</ele><time>2026-04-09T14:20:33.685Z</time></trkpt><trkpt lat="40.79628" lon="14.06684"><ele>7.0</ele><time>2026-04-09T14:20:34.686Z</time></trkpt><trkpt lat="40.7962133" lon="14.0669117"><ele>6.0</ele><time>2026-04-09T14:20:35.686Z</time></trkpt><trkpt lat="40.7961483" lon="14.066985"><ele>6.0</ele><time>2026-04-09T14:20:36.686Z</time></trkpt><trkpt lat="40.79608" lon="14.0670567"><ele>6.0</ele><time>2026-04-09T14:20:37.686Z</time></trkpt><trkpt lat="40.7960133" lon="14.067125"><ele>6.0</ele><time>2026-04-09T14:20:38.686Z</time></trkpt><trkpt lat="40.7959517" lon="14.0671967"><ele>6.0</ele><time>2026-04-09T14:20:39.686Z</time></trkpt><trkpt lat="40.7958917" lon="14.067275"><ele>6.0</ele><time>2026-04-09T14:20:40.689Z</time></trkpt><trkpt lat="40.7958283" lon="14.0673533"><ele>6.0</ele><time>2026-04-09T14:20:41.689Z</time></trkpt><trkpt lat="40.7957617" lon="14.06743"><ele>5.5</ele><time>2026-04-09T14:20:42.685Z</time></trkpt><trkpt lat="40.7956917" lon="14.0675017"><ele>5.0</ele><time>2026-04-09T14:20:43.685Z</time></trkpt><trkpt lat="40.7956233" lon="14.0675767"><ele>4.5</ele><time>2026-04-09T14:20:44.686Z</time></trkpt><trkpt lat="40.7955567" lon="14.06765"><ele>4.0</ele><time>2026-04-09T14:20:45.686Z</time></trkpt><trkpt lat="40.795495" lon="14.0677183"><ele>3.5</ele><time>2026-04-09T14:20:46.685Z</time></trkpt><trkpt lat="40.7954333" lon="14.06779"><ele>3.0</ele><time>2026-04-09T14:20:47.686Z</time></trkpt><trkpt lat="40.7953733" lon="14.0678567"><ele>3.0</ele><time>2026-04-09T14:20:48.686Z</time></trkpt><trkpt lat="40.795315" lon="14.0679267"><ele>3.0</ele><time>2026-04-09T14:20:49.686Z</time></trkpt><trkpt lat="40.7952583" lon="14.0679983"><ele>3.0</ele><time>2026-04-09T14:20:50.686Z</time></trkpt><trkpt lat="40.7952" lon="14.0680633"><ele>3.0</ele><time>2026-04-09T14:20:51.686Z</time></trkpt><trkpt lat="40.7951417" lon="14.0681267"><ele>3.0</ele><time>2026-04-09T14:20:52.686Z</time></trkpt><trkpt lat="40.7950867" lon="14.06819"><ele>3.0</ele><time>2026-04-09T14:20:53.687Z</time></trkpt><trkpt lat="40.7950317" lon="14.0682517"><ele>2.714285714285714</ele><time>2026-04-09T14:20:54.686Z</time></trkpt><trkpt lat="40.7949733" lon="14.0683117"><ele>2.4285714285714284</ele><time>2026-04-09T14:20:55.686Z</time></trkpt><trkpt lat="40.794915" lon="14.068365"><ele>2.142857142857143</ele><time>2026-04-09T14:20:56.685Z</time></trkpt><trkpt lat="40.7948533" lon="14.0684033"><ele>1.857142857142857</ele><time>2026-04-09T14:20:57.685Z</time></trkpt><trkpt lat="40.7947833" lon="14.0684233"><ele>1.5714285714285712</ele><time>2026-04-09T14:20:58.686Z</time></trkpt><trkpt lat="40.7947083" lon="14.0684217"><ele>1.2857142857142856</ele><time>2026-04-09T14:20:59.686Z</time></trkpt><trkpt lat="40.7946383" lon="14.0684017"><ele>1.0</ele><time>2026-04-09T14:21:00.687Z</time></trkpt><trkpt lat="40.794575" lon="14.0683733"><ele>1.0</ele><time>2026-04-09T14:21:01.688Z</time></trkpt><trkpt lat="40.7945133" lon="14.068345"><ele>1.0</ele><time>2026-04-09T14:21:02.688Z</time></trkpt><trkpt lat="40.7944533" lon="14.0683167"><ele>1.0</ele><time>2026-04-09T14:21:03.688Z</time></trkpt><trkpt lat="40.7943317" lon="14.0683"><ele>1.0</ele><time>2026-04-09T14:21:05.685Z</time></trkpt><trkpt lat="40.7942267" lon="14.0683583"><ele>1.0</ele><time>2026-04-09T14:21:07.685Z</time></trkpt><trkpt lat="40.79416" lon="14.0684833"><ele>0.9999999999999999</ele><time>2026-04-09T14:21:09.684Z</time></trkpt><trkpt lat="40.7941467" lon="14.068565"><ele>1.0</ele><time>2026-04-09T14:21:10.685Z</time></trkpt><trkpt lat="40.7941617" lon="14.0687217"><ele>1.0</ele><time>2026-04-09T14:21:12.684Z</time></trkpt><trkpt lat="40.7942333" lon="14.0688467"><ele>1.0</ele><time>2026-04-09T14:21:14.685Z</time></trkpt><trkpt lat="40.7942867" lon="14.0688967"><ele>0.9999999999999999</ele><time>2026-04-09T14:21:15.684Z</time></trkpt><trkpt lat="40.7943517" lon="14.0689417"><ele>1.0</ele><time>2026-04-09T14:21:16.685Z</time></trkpt><trkpt lat="40.7944067" lon="14.0689933"><ele>0.9999999999999999</ele><time>2026-04-09T14:21:17.685Z</time></trkpt><trkpt lat="40.79446" lon="14.0690417"><ele>1.0</ele><time>2026-04-09T14:21:18.685Z</time></trkpt><trkpt lat="40.79453" lon="14.069105"><ele>1.0</ele><time>2026-04-09T14:21:19.686Z</time></trkpt><trkpt lat="40.7945933" lon="14.069155"><ele>1.0</ele><time>2026-04-09T14:21:20.684Z</time></trkpt><trkpt lat="40.79466" lon="14.0691983"><ele>0.9999999999999999</ele><time>2026-04-09T14:21:21.684Z</time></trkpt><trkpt lat="40.79473" lon="14.0692483"><ele>1.0</ele><time>2026-04-09T14:21:22.685Z</time></trkpt><trkpt lat="40.7947933" lon="14.0692983"><ele>0.9999999999999999</ele><time>2026-04-09T14:21:23.684Z</time></trkpt><trkpt lat="40.7948483" lon="14.06935"><ele>1.0</ele><time>2026-04-09T14:21:24.685Z</time></trkpt><trkpt lat="40.7948983" lon="14.0694017"><ele>1.0</ele><time>2026-04-09T14:21:25.686Z</time></trkpt><trkpt lat="40.794945" lon="14.0694583"><ele>1.0</ele><time>2026-04-09T14:21:26.684Z</time></trkpt><trkpt lat="40.7950233" lon="14.069575"><ele>0.9999999999999999</ele><time>2026-04-09T14:21:28.688Z</time></trkpt><trkpt lat="40.7950917" lon="14.06969"><ele>1.0</ele><time>2026-04-09T14:21:30.685Z</time></trkpt><trkpt lat="40.7951567" lon="14.0698"><ele>1.0</ele><time>2026-04-09T14:21:32.689Z</time></trkpt><trkpt lat="40.795215" lon="14.069905"><ele>1.0</ele><time>2026-04-09T14:21:34.684Z</time></trkpt><trkpt lat="40.7952867" lon="14.0700033"><ele>1.0</ele><time>2026-04-09T14:21:36.685Z</time></trkpt><trkpt lat="40.7953583" lon="14.0701067"><ele>1.0</ele><time>2026-04-09T14:21:38.684Z</time></trkpt><trkpt lat="40.7954217" lon="14.0702233"><ele>1.0</ele><time>2026-04-09T14:21:40.684Z</time></trkpt><trkpt lat="40.79548" lon="14.0703517"><ele>1.0</ele><time>2026-04-09T14:21:42.685Z</time></trkpt><trkpt lat="40.7955283" lon="14.0704867"><ele>1.0</ele><time>2026-04-09T14:21:44.685Z</time></trkpt><trkpt lat="40.7955667" lon="14.0706333"><ele>1.0</ele><time>2026-04-09T14:21:46.686Z</time></trkpt><trkpt lat="40.795615" lon="14.070785"><ele>1.0</ele><time>2026-04-09T14:21:48.684Z</time></trkpt><trkpt lat="40.7956583" lon="14.070935"><ele>1.0</ele><time>2026-04-09T14:21:50.684Z</time></trkpt><trkpt lat="40.7956817" lon="14.0710133"><ele>0.9999999999999999</ele><time>2026-04-09T14:21:51.684Z</time></trkpt><trkpt lat="40.7957033" lon="14.0710917"><ele>1.0</ele><time>2026-04-09T14:21:52.685Z</time></trkpt><trkpt lat="40.7957233" lon="14.0711733"><ele>1.0</ele><time>2026-04-09T14:21:53.684Z</time></trkpt><trkpt lat="40.795745" lon="14.0712567"><ele>0.9999999999999999</ele><time>2026-04-09T14:21:54.685Z</time></trkpt><trkpt lat="40.7957683" lon="14.0713433"><ele>1.0</ele><time>2026-04-09T14:21:55.684Z</time></trkpt><trkpt lat="40.7957917" lon="14.0714333"><ele>1.0</ele><time>2026-04-09T14:21:56.685Z</time></trkpt><trkpt lat="40.7958133" lon="14.0715267"><ele>0.8571428571428571</ele><time>2026-04-09T14:21:57.684Z</time></trkpt><trkpt lat="40.7958283" lon="14.0716217"><ele>0.7142857142857142</ele><time>2026-04-09T14:21:58.685Z</time></trkpt><trkpt lat="40.7958433" lon="14.0717183"><ele>0.5714285714285714</ele><time>2026-04-09T14:21:59.684Z</time></trkpt><trkpt lat="40.7958567" lon="14.071815"><ele>0.42857142857142855</ele><time>2026-04-09T14:22:00.683Z</time></trkpt><trkpt lat="40.7958667" lon="14.0719117"><ele>0.2857142857142857</ele><time>2026-04-09T14:22:01.684Z</time></trkpt><trkpt lat="40.795875" lon="14.07201"><ele>0.14285714285714285</ele><time>2026-04-09T14:22:02.684Z</time></trkpt><trkpt lat="40.7958817" lon="14.0721083"><ele>0.0</ele><time>2026-04-09T14:22:03.684Z</time></trkpt><trkpt lat="40.795885" lon="14.0722083"><ele>0.0</ele><time>2026-04-09T14:22:04.688Z</time></trkpt><trkpt lat="40.7958867" lon="14.0723083"><ele>0.0</ele><time>2026-04-09T14:22:05.684Z</time></trkpt><trkpt lat="40.7958883" lon="14.0724067"><ele>0.0</ele><time>2026-04-09T14:22:06.684Z</time></trkpt><trkpt lat="40.7958933" lon="14.0725067"><ele>0.0</ele><time>2026-04-09T14:22:07.686Z</time></trkpt><trkpt lat="40.7958983" lon="14.072605"><ele>0.0</ele><time>2026-04-09T14:22:08.685Z</time></trkpt><trkpt lat="40.7958983" lon="14.0727033"><ele>0.0</ele><time>2026-04-09T14:22:09.684Z</time></trkpt><trkpt lat="40.795905" lon="14.0728017"><ele>0.0</ele><time>2026-04-09T14:22:10.684Z</time></trkpt><trkpt lat="40.7959117" lon="14.0728983"><ele>0.0</ele><time>2026-04-09T14:22:11.684Z</time></trkpt><trkpt lat="40.79592" lon="14.072995"><ele>0.0</ele><time>2026-04-09T14:22:12.685Z</time></trkpt><trkpt lat="40.7959317" lon="14.0730917"><ele>0.0</ele><time>2026-04-09T14:22:13.684Z</time></trkpt><trkpt lat="40.795945" lon="14.0731883"><ele>0.0</ele><time>2026-04-09T14:22:14.684Z</time></trkpt><trkpt lat="40.79597" lon="14.07328"><ele>0.0</ele><time>2026-04-09T14:22:15.684Z</time></trkpt><trkpt lat="40.7960083" lon="14.07337"><ele>0.0</ele><time>2026-04-09T14:22:16.685Z</time></trkpt><trkpt lat="40.796055" lon="14.0734533"><ele>0.3333333333333333</ele><time>2026-04-09T14:22:17.685Z</time></trkpt><trkpt lat="40.7961067" lon="14.0735317"><ele>0.6666666666666666</ele><time>2026-04-09T14:22:18.685Z</time></trkpt><trkpt lat="40.796165" lon="14.0736067"><ele>1.0</ele><time>2026-04-09T14:22:19.685Z</time></trkpt><trkpt lat="40.796225" lon="14.0736783"><ele>1.3333333333333333</ele><time>2026-04-09T14:22:20.685Z</time></trkpt><trkpt lat="40.7962833" lon="14.07375"><ele>1.6666666666666665</ele><time>2026-04-09T14:22:21.684Z</time></trkpt><trkpt lat="40.7963433" lon="14.07382"><ele>2.0</ele><time>2026-04-09T14:22:22.685Z</time></trkpt><trkpt lat="40.7964017" lon="14.0738883"><ele>2.0</ele><time>2026-04-09T14:22:23.685Z</time></trkpt><trkpt lat="40.79646" lon="14.073955"><ele>1.9999999999999998</ele><time>2026-04-09T14:22:24.685Z</time></trkpt><trkpt lat="40.7965183" lon="14.0740233"><ele>2.0</ele><time>2026-04-09T14:22:25.685Z</time></trkpt><trkpt lat="40.79657" lon="14.07409"><ele>2.0</ele><time>2026-04-09T14:22:26.685Z</time></trkpt><trkpt lat="40.79662" lon="14.0741567"><ele>1.9999999999999998</ele><time>2026-04-09T14:22:27.684Z</time></trkpt><trkpt lat="40.796665" lon="14.0742233"><ele>2.0</ele><time>2026-04-09T14:22:28.686Z</time></trkpt><trkpt lat="40.79671" lon="14.0742983"><ele>2.0</ele><time>2026-04-09T14:22:29.685Z</time></trkpt><trkpt lat="40.796755" lon="14.0743767"><ele>2.0</ele><time>2026-04-09T14:22:30.685Z</time></trkpt><trkpt lat="40.796795" lon="14.07446"><ele>1.9999999999999998</ele><time>2026-04-09T14:22:31.685Z</time></trkpt><trkpt lat="40.79683" lon="14.074545"><ele>2.0</ele><time>2026-04-09T14:22:32.685Z</time></trkpt><trkpt lat="40.7968567" lon="14.07463"><ele>2.0</ele><time>2026-04-09T14:22:33.686Z</time></trkpt><trkpt lat="40.7968783" lon="14.074715"><ele>1.9999999999999998</ele><time>2026-04-09T14:22:34.685Z</time></trkpt><trkpt lat="40.7968983" lon="14.0748"><ele>2.0</ele><time>2026-04-09T14:22:35.689Z</time></trkpt><trkpt lat="40.796915" lon="14.0748833"><ele>2.0</ele><time>2026-04-09T14:22:36.686Z</time></trkpt><trkpt lat="40.7969417" lon="14.0750267"><ele>2.142857142857143</ele><time>2026-04-09T14:22:38.685Z</time></trkpt><trkpt lat="40.7969517" lon="14.07511"><ele>2.2857142857142856</ele><time>2026-04-09T14:22:40.684Z</time></trkpt><trkpt lat="40.796975" lon="14.0752083"><ele>2.4285714285714284</ele><time>2026-04-09T14:23:36.684Z</time></trkpt><trkpt lat="40.796975" lon="14.0753133"><ele>2.571428571428571</ele><time>2026-04-09T14:23:39.684Z</time></trkpt><trkpt lat="40.7969683" lon="14.0753983"><ele>2.7142857142857144</ele><time>2026-04-09T14:23:41.685Z</time></trkpt><trkpt lat="40.7969583" lon="14.0754917"><ele>2.8571428571428568</ele><time>2026-04-09T14:23:43.685Z</time></trkpt><trkpt lat="40.796955" lon="14.0755967"><ele>3.0</ele><time>2026-04-09T14:23:45.684Z</time></trkpt><trkpt lat="40.79694" lon="14.0757033"><ele>2.8</ele><time>2026-04-09T14:23:47.686Z</time></trkpt><trkpt lat="40.7969283" lon="14.0758183"><ele>2.5999999999999996</ele><time>2026-04-09T14:23:49.685Z</time></trkpt><trkpt lat="40.7969133" lon="14.07594"><ele>2.4000000000000004</ele><time>2026-04-09T14:23:51.685Z</time></trkpt><trkpt lat="40.7968933" lon="14.0760667"><ele>2.2</ele><time>2026-04-09T14:23:53.686Z</time></trkpt><trkpt lat="40.79686" lon="14.076195"><ele>2.0</ele><time>2026-04-09T14:23:55.686Z</time></trkpt><trkpt lat="40.7968283" lon="14.0763217"><ele>2.0</ele><time>2026-04-09T14:23:57.684Z</time></trkpt><trkpt lat="40.7968017" lon="14.0764467"><ele>2.0</ele><time>2026-04-09T14:23:59.687Z</time></trkpt><trkpt lat="40.79679" lon="14.0765667"><ele>2.0</ele><time>2026-04-09T14:24:01.687Z</time></trkpt><trkpt lat="40.7968267" lon="14.07667"><ele>2.0</ele><time>2026-04-09T14:24:03.685Z</time></trkpt><trkpt lat="40.7969317" lon="14.0766967"><ele>2.0</ele><time>2026-04-09T14:24:05.685Z</time></trkpt><trkpt lat="40.7970083" lon="14.0767033"><ele>2.0</ele><time>2026-04-09T14:24:06.685Z</time></trkpt><trkpt lat="40.7970783" lon="14.0767117"><ele>2.0</ele><time>2026-04-09T14:24:07.686Z</time></trkpt><trkpt lat="40.797185" lon="14.0767533"><ele>2.0</ele><time>2026-04-09T14:24:09.684Z</time></trkpt><trkpt lat="40.797305" lon="14.0767917"><ele>2.0</ele><time>2026-04-09T14:24:11.69Z</time></trkpt><trkpt lat="40.79742" lon="14.0768317"><ele>2.0</ele><time>2026-04-09T14:24:13.684Z</time></trkpt><trkpt lat="40.7974833" lon="14.0768467"><ele>2.0</ele><time>2026-04-09T14:24:14.684Z</time></trkpt><trkpt lat="40.797545" lon="14.0768633"><ele>2.0</ele><time>2026-04-09T14:24:15.686Z</time></trkpt><trkpt lat="40.7976633" lon="14.0769033"><ele>2.0</ele><time>2026-04-09T14:24:17.685Z</time></trkpt><trkpt lat="40.79778" lon="14.0769367"><ele>2.0</ele><time>2026-04-09T14:24:19.685Z</time></trkpt><trkpt lat="40.7978967" lon="14.076965"><ele>2.0</ele><time>2026-04-09T14:24:21.686Z</time></trkpt><trkpt lat="40.7980083" lon="14.0769983"><ele>2.6</ele><time>2026-04-09T14:24:23.685Z</time></trkpt><trkpt lat="40.7981167" lon="14.0770333"><ele>3.2</ele><time>2026-04-09T14:24:25.685Z</time></trkpt><trkpt lat="40.7982217" lon="14.07708"><ele>3.8</ele><time>2026-04-09T14:24:27.685Z</time></trkpt><trkpt lat="40.7983267" lon="14.0771167"><ele>4.4</ele><time>2026-04-09T14:24:29.684Z</time></trkpt><trkpt lat="40.7984283" lon="14.077145"><ele>5.0</ele><time>2026-04-09T14:24:31.684Z</time></trkpt><trkpt lat="40.7985267" lon="14.0771733"><ele>5.8</ele><time>2026-04-09T14:24:33.684Z</time></trkpt><trkpt lat="40.79863" lon="14.0772033"><ele>6.6</ele><time>2026-04-09T14:24:35.684Z</time></trkpt><trkpt lat="40.7987183" lon="14.0772317"><ele>7.4</ele><time>2026-04-09T14:24:37.686Z</time></trkpt><trkpt lat="40.7988117" lon="14.0772533"><ele>8.2</ele><time>2026-04-09T14:24:39.684Z</time></trkpt><trkpt lat="40.7989" lon="14.077285"><ele>9.0</ele><time>2026-04-09T14:24:41.685Z</time></trkpt><trkpt lat="40.798995" lon="14.0773167"><ele>9.0</ele><time>2026-04-09T14:24:43.685Z</time></trkpt><trkpt lat="40.7990883" lon="14.0773533"><ele>9.0</ele><time>2026-04-09T14:24:45.685Z</time></trkpt><trkpt lat="40.7991917" lon="14.0773583"><ele>9.0</ele><time>2026-04-09T14:24:47.684Z</time></trkpt><trkpt lat="40.7992917" lon="14.077335"><ele>9.0</ele><time>2026-04-09T14:24:49.684Z</time></trkpt><trkpt lat="40.7993933" lon="14.0773133"><ele>9.0</ele><time>2026-04-09T14:24:51.684Z</time></trkpt><trkpt lat="40.7994933" lon="14.0772833"><ele>10.0</ele><time>2026-04-09T14:24:53.684Z</time></trkpt><trkpt lat="40.7995933" lon="14.077235"><ele>11.0</ele><time>2026-04-09T14:24:55.684Z</time></trkpt><trkpt lat="40.7997067" lon="14.07721"><ele>11.999999999999998</ele><time>2026-04-09T14:24:57.685Z</time></trkpt><trkpt lat="40.79982" lon="14.0772333"><ele>13.0</ele><time>2026-04-09T14:24:59.685Z</time></trkpt><trkpt lat="40.79992" lon="14.0772633"><ele>14.0</ele><time>2026-04-09T14:25:01.684Z</time></trkpt><trkpt lat="40.80001" lon="14.0773"><ele>14.0</ele><time>2026-04-09T14:25:03.686Z</time></trkpt><trkpt lat="40.8000883" lon="14.0773233"><ele>14.0</ele><time>2026-04-09T14:25:05.685Z</time></trkpt><trkpt lat="40.80017" lon="14.0773567"><ele>14.0</ele><time>2026-04-09T14:25:07.685Z</time></trkpt><trkpt lat="40.8002417" lon="14.07738"><ele>14.0</ele><time>2026-04-09T14:25:09.686Z</time></trkpt><trkpt lat="40.8003083" lon="14.077405"><ele>14.0</ele><time>2026-04-09T14:25:11.686Z</time></trkpt><trkpt lat="40.8003717" lon="14.07742"><ele>14.0</ele><time>2026-04-09T14:25:13.688Z</time></trkpt><trkpt lat="40.8004367" lon="14.077445"><ele>14.0</ele><time>2026-04-09T14:25:15.686Z</time></trkpt><trkpt lat="40.8005" lon="14.0774667"><ele>15.000000000000002</ele><time>2026-04-09T14:25:17.686Z</time></trkpt><trkpt lat="40.800585" lon="14.0774833"><ele>16.0</ele><time>2026-04-09T14:25:20.686Z</time></trkpt><trkpt lat="40.8006633" lon="14.0775017"><ele>17.0</ele><time>2026-04-09T14:25:23.685Z</time></trkpt><trkpt lat="40.80075" lon="14.0775283"><ele>18.0</ele><time>2026-04-09T14:25:26.686Z</time></trkpt><trkpt lat="40.8008417" lon="14.07756"><ele>19.0</ele><time>2026-04-09T14:25:29.686Z</time></trkpt><trkpt lat="40.8009033" lon="14.0775817"><ele>20.0</ele><time>2026-04-09T14:25:31.686Z</time></trkpt><trkpt lat="40.8009883" lon="14.07761"><ele>21.166666666666668</ele><time>2026-04-09T14:25:34.685Z</time></trkpt><trkpt lat="40.80106" lon="14.0776383"><ele>22.333333333333336</ele><time>2026-04-09T14:25:37.686Z</time></trkpt><trkpt lat="40.8011417" lon="14.0776717"><ele>23.5</ele><time>2026-04-09T14:25:40.687Z</time></trkpt><trkpt lat="40.8012233" lon="14.0776933"><ele>24.666666666666668</ele><time>2026-04-09T14:25:43.687Z</time></trkpt><trkpt lat="40.8013033" lon="14.0777217"><ele>25.833333333333332</ele><time>2026-04-09T14:25:46.686Z</time></trkpt><trkpt lat="40.8013867" lon="14.0777533"><ele>27.0</ele><time>2026-04-09T14:25:49.686Z</time></trkpt><trkpt lat="40.8014667" lon="14.07778"><ele>27.0</ele><time>2026-04-09T14:25:52.685Z</time></trkpt><trkpt lat="40.8015533" lon="14.0778083"><ele>27.0</ele><time>2026-04-09T14:25:55.686Z</time></trkpt><trkpt lat="40.8016367" lon="14.07785"><ele>27.0</ele><time>2026-04-09T14:25:58.686Z</time></trkpt><trkpt lat="40.8017283" lon="14.0778767"><ele>27.0</ele><time>2026-04-09T14:26:01.685Z</time></trkpt><trkpt lat="40.8018067" lon="14.077905"><ele>27.0</ele><time>2026-04-09T14:26:04.685Z</time></trkpt><trkpt lat="40.80189" lon="14.0779267"><ele>27.0</ele><time>2026-04-09T14:26:07.686Z</time></trkpt><trkpt lat="40.8019567" lon="14.0779417"><ele>28.333333333333332</ele><time>2026-04-09T14:26:09.686Z</time></trkpt><trkpt lat="40.8020217" lon="14.077965"><ele>29.666666666666664</ele><time>2026-04-09T14:26:11.686Z</time></trkpt><trkpt lat="40.802095" lon="14.0779883"><ele>31.0</ele><time>2026-04-09T14:26:13.685Z</time></trkpt><trkpt lat="40.8021617" lon="14.07801"><ele>32.33333333333333</ele><time>2026-04-09T14:26:15.687Z</time></trkpt><trkpt lat="40.80225" lon="14.07804"><ele>33.666666666666664</ele><time>2026-04-09T14:26:18.685Z</time></trkpt><trkpt lat="40.8023233" lon="14.0780567"><ele>35.0</ele><time>2026-04-09T14:26:20.685Z</time></trkpt><trkpt lat="40.8024033" lon="14.078075"><ele>35.0</ele><time>2026-04-09T14:26:22.686Z</time></trkpt><trkpt lat="40.8024883" lon="14.0780967"><ele>35.0</ele><time>2026-04-09T14:26:24.685Z</time></trkpt><trkpt lat="40.80257" lon="14.07812"><ele>35.0</ele><time>2026-04-09T14:26:26.687Z</time></trkpt><trkpt lat="40.8026417" lon="14.07814"><ele>35.0</ele><time>2026-04-09T14:26:28.685Z</time></trkpt><trkpt lat="40.8027283" lon="14.0781633"><ele>35.0</ele><time>2026-04-09T14:26:30.686Z</time></trkpt><trkpt lat="40.802825" lon="14.07819"><ele>35.0</ele><time>2026-04-09T14:26:32.685Z</time></trkpt><trkpt lat="40.802915" lon="14.07822"><ele>36.0</ele><time>2026-04-09T14:26:34.686Z</time></trkpt><trkpt lat="40.8030133" lon="14.0782583"><ele>37.0</ele><time>2026-04-09T14:26:36.686Z</time></trkpt><trkpt lat="40.8031167" lon="14.07829"><ele>38.0</ele><time>2026-04-09T14:26:38.687Z</time></trkpt><trkpt lat="40.8032217" lon="14.07833"><ele>39.0</ele><time>2026-04-09T14:26:40.687Z</time></trkpt><trkpt lat="40.8033317" lon="14.078365"><ele>40.0</ele><time>2026-04-09T14:26:42.689Z</time></trkpt><trkpt lat="40.8034517" lon="14.0783967"><ele>38.5</ele><time>2026-04-09T14:26:44.687Z</time></trkpt><trkpt lat="40.803515" lon="14.078415"><ele>37.0</ele><time>2026-04-09T14:26:45.686Z</time></trkpt><trkpt lat="40.8035767" lon="14.078435"><ele>35.5</ele><time>2026-04-09T14:26:46.686Z</time></trkpt><trkpt lat="40.8037" lon="14.0784683"><ele>34.0</ele><time>2026-04-09T14:26:48.689Z</time></trkpt><trkpt lat="40.8037633" lon="14.0784833"><ele>32.5</ele><time>2026-04-09T14:26:49.686Z</time></trkpt><trkpt lat="40.803825" lon="14.0785"><ele>31.0</ele><time>2026-04-09T14:26:50.686Z</time></trkpt><trkpt lat="40.8039467" lon="14.078535"><ele>31.000000000000004</ele><time>2026-04-09T14:26:52.686Z</time></trkpt><trkpt lat="40.8040667" lon="14.0785717"><ele>31.0</ele><time>2026-04-09T14:26:54.686Z</time></trkpt><trkpt lat="40.8041883" lon="14.0786083"><ele>31.0</ele><time>2026-04-09T14:26:56.686Z</time></trkpt><trkpt lat="40.804255" lon="14.0786217"><ele>31.0</ele><time>2026-04-09T14:26:57.686Z</time></trkpt><trkpt lat="40.8043183" lon="14.0786267"><ele>31.000000000000004</ele><time>2026-04-09T14:26:58.686Z</time></trkpt><trkpt lat="40.8043817" lon="14.0786267"><ele>31.0</ele><time>2026-04-09T14:26:59.686Z</time></trkpt><trkpt lat="40.80445" lon="14.07863"><ele>31.42857142857143</ele><time>2026-04-09T14:27:00.685Z</time></trkpt><trkpt lat="40.8045367" lon="14.0786533"><ele>31.85714285714286</ele><time>2026-04-09T14:27:01.686Z</time></trkpt><trkpt lat="40.80461" lon="14.0786717"><ele>32.285714285714285</ele><time>2026-04-09T14:27:02.685Z</time></trkpt><trkpt lat="40.80468" lon="14.07869"><ele>32.714285714285715</ele><time>2026-04-09T14:27:03.687Z</time></trkpt><trkpt lat="40.8047467" lon="14.07871"><ele>33.14285714285714</ele><time>2026-04-09T14:27:04.685Z</time></trkpt><trkpt lat="40.8048133" lon="14.0787333"><ele>33.57142857142857</ele><time>2026-04-09T14:27:05.688Z</time></trkpt><trkpt lat="40.8048867" lon="14.0787617"><ele>34.0</ele><time>2026-04-09T14:27:06.687Z</time></trkpt><trkpt lat="40.8049617" lon="14.0788033"><ele>34.0</ele><time>2026-04-09T14:27:07.686Z</time></trkpt><trkpt lat="40.8050417" lon="14.07885"><ele>34.0</ele><time>2026-04-09T14:27:08.685Z</time></trkpt><trkpt lat="40.80512" lon="14.078905"><ele>34.0</ele><time>2026-04-09T14:27:09.686Z</time></trkpt><trkpt lat="40.8051917" lon="14.0789533"><ele>34.0</ele><time>2026-04-09T14:27:10.686Z</time></trkpt><trkpt lat="40.8052583" lon="14.0790017"><ele>34.0</ele><time>2026-04-09T14:27:11.686Z</time></trkpt><trkpt lat="40.8053133" lon="14.0790567"><ele>34.0</ele><time>2026-04-09T14:27:12.686Z</time></trkpt><trkpt lat="40.8053717" lon="14.07919"><ele>33.0</ele><time>2026-04-09T14:27:14.689Z</time></trkpt><trkpt lat="40.805405" lon="14.0793083"><ele>32.0</ele><time>2026-04-09T14:27:16.686Z</time></trkpt><trkpt lat="40.8054483" lon="14.07941"><ele>31.0</ele><time>2026-04-09T14:27:18.685Z</time></trkpt><trkpt lat="40.8055317" lon="14.0794683"><ele>30.0</ele><time>2026-04-09T14:27:20.685Z</time></trkpt><trkpt lat="40.8056433" lon="14.0794633"><ele>29.0</ele><time>2026-04-09T14:27:22.685Z</time></trkpt><trkpt lat="40.8057567" lon="14.0794383"><ele>28.999999999999996</ele><time>2026-04-09T14:27:24.686Z</time></trkpt><trkpt lat="40.805855" lon="14.079415"><ele>29.0</ele><time>2026-04-09T14:27:26.686Z</time></trkpt><trkpt lat="40.80594" lon="14.0793883"><ele>29.0</ele><time>2026-04-09T14:27:28.685Z</time></trkpt><trkpt lat="40.80601" lon="14.0793633"><ele>29.0</ele><time>2026-04-09T14:27:30.686Z</time></trkpt><trkpt lat="40.8060933" lon="14.0793333"><ele>28.999999999999996</ele><time>2026-04-09T14:27:33.684Z</time></trkpt><trkpt lat="40.8061583" lon="14.079305"><ele>29.0</ele><time>2026-04-09T14:27:35.685Z</time></trkpt><trkpt lat="40.8062583" lon="14.0792767"><ele>30.0</ele><time>2026-04-09T14:27:37.685Z</time></trkpt><trkpt lat="40.80637" lon="14.0792567"><ele>31.0</ele><time>2026-04-09T14:27:39.684Z</time></trkpt><trkpt lat="40.8064833" lon="14.0792267"><ele>32.0</ele><time>2026-04-09T14:27:41.685Z</time></trkpt><trkpt lat="40.80661" lon="14.079255"><ele>33.0</ele><time>2026-04-09T14:27:43.685Z</time></trkpt><trkpt lat="40.806685" lon="14.079295"><ele>34.0</ele><time>2026-04-09T14:27:44.687Z</time></trkpt><trkpt lat="40.80677" lon="14.0793383"><ele>33.833333333333336</ele><time>2026-04-09T14:27:45.687Z</time></trkpt><trkpt lat="40.8068517" lon="14.079385"><ele>33.66666666666667</ele><time>2026-04-09T14:27:46.685Z</time></trkpt><trkpt lat="40.80693" lon="14.0794267"><ele>33.5</ele><time>2026-04-09T14:27:47.686Z</time></trkpt><trkpt lat="40.807" lon="14.0794633"><ele>33.333333333333336</ele><time>2026-04-09T14:27:48.686Z</time></trkpt><trkpt lat="40.8070733" lon="14.0794967"><ele>33.166666666666664</ele><time>2026-04-09T14:27:49.685Z</time></trkpt><trkpt lat="40.8071517" lon="14.0795383"><ele>33.0</ele><time>2026-04-09T14:27:50.685Z</time></trkpt><trkpt lat="40.8072283" lon="14.0795783"><ele>33.0</ele><time>2026-04-09T14:27:51.685Z</time></trkpt><trkpt lat="40.8073033" lon="14.0796167"><ele>33.0</ele><time>2026-04-09T14:27:52.685Z</time></trkpt><trkpt lat="40.80738" lon="14.0796533"><ele>33.0</ele><time>2026-04-09T14:27:53.685Z</time></trkpt><trkpt lat="40.8074567" lon="14.0796933"><ele>33.0</ele><time>2026-04-09T14:27:54.685Z</time></trkpt><trkpt lat="40.8075317" lon="14.0797383"><ele>33.0</ele><time>2026-04-09T14:27:55.687Z</time></trkpt><trkpt lat="40.8076067" lon="14.0797867"><ele>33.0</ele><time>2026-04-09T14:27:56.685Z</time></trkpt><trkpt lat="40.8076833" lon="14.0798383"><ele>32.0</ele><time>2026-04-09T14:27:57.684Z</time></trkpt><trkpt lat="40.8077583" lon="14.0798883"><ele>31.0</ele><time>2026-04-09T14:27:58.685Z</time></trkpt><trkpt lat="40.8078333" lon="14.0799383"><ele>30.0</ele><time>2026-04-09T14:27:59.685Z</time></trkpt><trkpt lat="40.8079133" lon="14.0799917"><ele>29.0</ele><time>2026-04-09T14:28:00.684Z</time></trkpt><trkpt lat="40.8079917" lon="14.0800467"><ele>28.0</ele><time>2026-04-09T14:28:01.685Z</time></trkpt><trkpt lat="40.8080717" lon="14.080095"><ele>27.0</ele><time>2026-04-09T14:28:02.684Z</time></trkpt><trkpt lat="40.80815" lon="14.0801483"><ele>27.0</ele><time>2026-04-09T14:28:03.685Z</time></trkpt><trkpt lat="40.8082267" lon="14.0801917"><ele>27.0</ele><time>2026-04-09T14:28:04.685Z</time></trkpt><trkpt lat="40.8083067" lon="14.0802317"><ele>27.0</ele><time>2026-04-09T14:28:05.685Z</time></trkpt><trkpt lat="40.8083833" lon="14.0802667"><ele>27.0</ele><time>2026-04-09T14:28:06.685Z</time></trkpt><trkpt lat="40.808465" lon="14.080285"><ele>27.0</ele><time>2026-04-09T14:28:07.685Z</time></trkpt><trkpt lat="40.8085433" lon="14.08029"><ele>27.0</ele><time>2026-04-09T14:28:08.685Z</time></trkpt><trkpt lat="40.8086183" lon="14.080275"><ele>28.833333333333332</ele><time>2026-04-09T14:28:09.685Z</time></trkpt><trkpt lat="40.8086867" lon="14.08025"><ele>30.666666666666664</ele><time>2026-04-09T14:28:10.685Z</time></trkpt><trkpt lat="40.808745" lon="14.0802183"><ele>32.5</ele><time>2026-04-09T14:28:11.685Z</time></trkpt><trkpt lat="40.8088033" lon="14.0801817"><ele>34.33333333333333</ele><time>2026-04-09T14:28:12.687Z</time></trkpt><trkpt lat="40.80886" lon="14.0801433"><ele>36.166666666666664</ele><time>2026-04-09T14:28:13.686Z</time></trkpt><trkpt lat="40.808965" lon="14.0800883"><ele>38.0</ele><time>2026-04-09T14:28:15.684Z</time></trkpt><trkpt lat="40.809065" lon="14.0800267"><ele>38.0</ele><time>2026-04-09T14:28:17.686Z</time></trkpt><trkpt lat="40.80915" lon="14.0799467"><ele>38.0</ele><time>2026-04-09T14:28:19.685Z</time></trkpt><trkpt lat="40.80923" lon="14.079855"><ele>38.0</ele><time>2026-04-09T14:28:21.685Z</time></trkpt><trkpt lat="40.8093067" lon="14.079765"><ele>38.0</ele><time>2026-04-09T14:28:23.686Z</time></trkpt><trkpt lat="40.8093717" lon="14.0796917"><ele>38.0</ele><time>2026-04-09T14:28:25.684Z</time></trkpt><trkpt lat="40.809425" lon="14.079615"><ele>39.166666666666664</ele><time>2026-04-09T14:28:27.685Z</time></trkpt><trkpt lat="40.8094817" lon="14.0795317"><ele>40.33333333333333</ele><time>2026-04-09T14:28:29.685Z</time></trkpt><trkpt lat="40.809535" lon="14.0794533"><ele>41.5</ele><time>2026-04-09T14:28:31.685Z</time></trkpt><trkpt lat="40.8095917" lon="14.0793633"><ele>42.666666666666664</ele><time>2026-04-09T14:28:33.686Z</time></trkpt><trkpt lat="40.80964" lon="14.079275"><ele>43.833333333333336</ele><time>2026-04-09T14:28:35.685Z</time></trkpt><trkpt lat="40.809695" lon="14.0791883"><ele>45.0</ele><time>2026-04-09T14:28:37.686Z</time></trkpt><trkpt lat="40.8097517" lon="14.0791033"><ele>44.833333333333336</ele><time>2026-04-09T14:28:39.685Z</time></trkpt><trkpt lat="40.80981" lon="14.0790167"><ele>44.666666666666664</ele><time>2026-04-09T14:28:41.684Z</time></trkpt><trkpt lat="40.809865" lon="14.0789233"><ele>44.5</ele><time>2026-04-09T14:28:43.685Z</time></trkpt><trkpt lat="40.8099167" lon="14.0788367"><ele>44.33333333333333</ele><time>2026-04-09T14:28:45.685Z</time></trkpt><trkpt lat="40.809965" lon="14.078755"><ele>44.166666666666664</ele><time>2026-04-09T14:28:47.686Z</time></trkpt><trkpt lat="40.8100133" lon="14.0786733"><ele>44.0</ele><time>2026-04-09T14:28:49.684Z</time></trkpt><trkpt lat="40.8100567" lon="14.0785833"><ele>44.0</ele><time>2026-04-09T14:28:51.684Z</time></trkpt><trkpt lat="40.8101083" lon="14.0784683"><ele>44.0</ele><time>2026-04-09T14:28:53.684Z</time></trkpt><trkpt lat="40.8101833" lon="14.078365"><ele>44.0</ele><time>2026-04-09T14:28:55.685Z</time></trkpt><trkpt lat="40.8102817" lon="14.07829"><ele>44.0</ele><time>2026-04-09T14:28:57.685Z</time></trkpt><trkpt lat="40.8104017" lon="14.0782383"><ele>44.0</ele><time>2026-04-09T14:28:59.686Z</time></trkpt><trkpt lat="40.810465" lon="14.07822"><ele>42.666666666666664</ele><time>2026-04-09T14:29:00.685Z</time></trkpt><trkpt lat="40.81053" lon="14.0782033"><ele>41.33333333333333</ele><time>2026-04-09T14:29:01.685Z</time></trkpt><trkpt lat="40.8106" lon="14.0781867"><ele>40.0</ele><time>2026-04-09T14:29:02.685Z</time></trkpt><trkpt lat="40.8106767" lon="14.0781683"><ele>38.666666666666664</ele><time>2026-04-09T14:29:03.687Z</time></trkpt><trkpt lat="40.810755" lon="14.0781467"><ele>37.333333333333336</ele><time>2026-04-09T14:29:04.687Z</time></trkpt><trkpt lat="40.8108383" lon="14.0781267"><ele>36.0</ele><time>2026-04-09T14:29:05.685Z</time></trkpt><trkpt lat="40.8109133" lon="14.0780983"><ele>36.0</ele><time>2026-04-09T14:29:06.685Z</time></trkpt><trkpt lat="40.8109883" lon="14.0780717"><ele>36.0</ele><time>2026-04-09T14:29:07.686Z</time></trkpt><trkpt lat="40.81107" lon="14.07804"><ele>36.0</ele><time>2026-04-09T14:29:08.686Z</time></trkpt><trkpt lat="40.8111483" lon="14.0779983"><ele>36.0</ele><time>2026-04-09T14:29:09.687Z</time></trkpt><trkpt lat="40.8112267" lon="14.0779417"><ele>36.0</ele><time>2026-04-09T14:29:10.687Z</time></trkpt><trkpt lat="40.8112983" lon="14.0778633"><ele>36.0</ele><time>2026-04-09T14:29:11.687Z</time></trkpt><trkpt lat="40.8113383" lon="14.0777633"><ele>34.4</ele><time>2026-04-09T14:29:12.686Z</time></trkpt><trkpt lat="40.81135" lon="14.0776333"><ele>32.8</ele><time>2026-04-09T14:29:13.685Z</time></trkpt><trkpt lat="40.8113483" lon="14.0775033"><ele>31.199999999999996</ele><time>2026-04-09T14:29:14.687Z</time></trkpt><trkpt lat="40.81134" lon="14.0773783"><ele>29.599999999999998</ele><time>2026-04-09T14:29:15.685Z</time></trkpt><trkpt lat="40.8113317" lon="14.0772517"><ele>28.0</ele><time>2026-04-09T14:29:16.685Z</time></trkpt><trkpt lat="40.81132" lon="14.07713"><ele>27.666666666666668</ele><time>2026-04-09T14:29:17.685Z</time></trkpt><trkpt lat="40.8113" lon="14.0770133"><ele>27.333333333333336</ele><time>2026-04-09T14:29:18.685Z</time></trkpt><trkpt lat="40.8112717" lon="14.076905"><ele>27.0</ele><time>2026-04-09T14:29:19.685Z</time></trkpt><trkpt lat="40.8112417" lon="14.0768067"><ele>26.666666666666664</ele><time>2026-04-09T14:29:20.685Z</time></trkpt><trkpt lat="40.811215" lon="14.0767117"><ele>26.333333333333332</ele><time>2026-04-09T14:29:21.686Z</time></trkpt><trkpt lat="40.8111717" lon="14.0765733"><ele>26.0</ele><time>2026-04-09T14:29:23.685Z</time></trkpt><trkpt lat="40.811165" lon="14.0764533"><ele>26.0</ele><time>2026-04-09T14:29:25.686Z</time></trkpt><trkpt lat="40.8112033" lon="14.0763767"><ele>26.0</ele><time>2026-04-09T14:29:27.686Z</time></trkpt><trkpt lat="40.8112983" lon="14.0764367"><ele>26.0</ele><time>2026-04-09T14:29:29.685Z</time></trkpt><trkpt lat="40.8113733" lon="14.0765233"><ele>26.0</ele><time>2026-04-09T14:29:30.686Z</time></trkpt><trkpt lat="40.8114367" lon="14.07662"><ele>26.0</ele><time>2026-04-09T14:29:31.686Z</time></trkpt><trkpt lat="40.8114883" lon="14.076735"><ele>26.0</ele><time>2026-04-09T14:29:32.684Z</time></trkpt><trkpt lat="40.81152" lon="14.0768533"><ele>26.0</ele><time>2026-04-09T14:29:33.684Z</time></trkpt><trkpt lat="40.8115483" lon="14.0769833"><ele>26.0</ele><time>2026-04-09T14:29:34.685Z</time></trkpt><trkpt lat="40.81156" lon="14.0771067"><ele>26.0</ele><time>2026-04-09T14:29:35.686Z</time></trkpt><trkpt lat="40.811575" lon="14.0772317"><ele>26.0</ele><time>2026-04-09T14:29:36.685Z</time></trkpt><trkpt lat="40.811595" lon="14.0773583"><ele>26.333333333333332</ele><time>2026-04-09T14:29:37.686Z</time></trkpt><trkpt lat="40.8116117" lon="14.0774783"><ele>26.666666666666664</ele><time>2026-04-09T14:29:38.685Z</time></trkpt><trkpt lat="40.811625" lon="14.077595"><ele>27.0</ele><time>2026-04-09T14:29:39.684Z</time></trkpt><trkpt lat="40.8116367" lon="14.0777067"><ele>27.333333333333336</ele><time>2026-04-09T14:29:40.685Z</time></trkpt><trkpt lat="40.811645" lon="14.077805"><ele>27.666666666666668</ele><time>2026-04-09T14:29:41.685Z</time></trkpt><trkpt lat="40.8116533" lon="14.0778917"><ele>28.0</ele><time>2026-04-09T14:29:42.688Z</time></trkpt><trkpt lat="40.811685" lon="14.0780483"><ele>28.000000000000004</ele><time>2026-04-09T14:29:44.686Z</time></trkpt><trkpt lat="40.8117" lon="14.0781317"><ele>28.0</ele><time>2026-04-09T14:29:45.684Z</time></trkpt><trkpt lat="40.811715" lon="14.078215"><ele>28.0</ele><time>2026-04-09T14:29:46.686Z</time></trkpt><trkpt lat="40.8117483" lon="14.0782917"><ele>28.0</ele><time>2026-04-09T14:29:47.685Z</time></trkpt><trkpt lat="40.8118417" lon="14.0783833"><ele>28.000000000000004</ele><time>2026-04-09T14:29:49.685Z</time></trkpt><trkpt lat="40.8119117" lon="14.078365"><ele>28.0</ele><time>2026-04-09T14:29:50.685Z</time></trkpt><trkpt lat="40.8120033" lon="14.0782717"><ele>25.25</ele><time>2026-04-09T14:29:52.685Z</time></trkpt><trkpt lat="40.8119933" lon="14.078095"><ele>22.5</ele><time>2026-04-09T14:29:53.685Z</time></trkpt><trkpt lat="40.811975" lon="14.07793"><ele>19.75</ele><time>2026-04-09T14:29:54.685Z</time></trkpt><trkpt lat="40.8119667" lon="14.0777933"><ele>17.0</ele><time>2026-04-09T14:29:55.685Z</time></trkpt><trkpt lat="40.81196" lon="14.0776567"><ele>17.0</ele><time>2026-04-09T14:29:56.685Z</time></trkpt><trkpt lat="40.8119467" lon="14.077515"><ele>17.0</ele><time>2026-04-09T14:29:57.685Z</time></trkpt><trkpt lat="40.8119317" lon="14.0773633"><ele>17.0</ele><time>2026-04-09T14:29:58.685Z</time></trkpt><trkpt lat="40.811915" lon="14.0772183"><ele>17.0</ele><time>2026-04-09T14:29:59.685Z</time></trkpt><trkpt lat="40.8119067" lon="14.0770817"><ele>17.0</ele><time>2026-04-09T14:30:00.685Z</time></trkpt><trkpt lat="40.8118983" lon="14.0769417"><ele>17.0</ele><time>2026-04-09T14:30:01.686Z</time></trkpt><trkpt lat="40.8118917" lon="14.0768017"><ele>17.0</ele><time>2026-04-09T14:30:02.686Z</time></trkpt><trkpt lat="40.8118933" lon="14.0766633"><ele>17.0</ele><time>2026-04-09T14:30:03.685Z</time></trkpt><trkpt lat="40.8118967" lon="14.0765283"><ele>17.0</ele><time>2026-04-09T14:30:04.685Z</time></trkpt><trkpt lat="40.8118967" lon="14.0764017"><ele>17.0</ele><time>2026-04-09T14:30:05.685Z</time></trkpt><trkpt lat="40.8118917" lon="14.0762817"><ele>16.333333333333336</ele><time>2026-04-09T14:30:06.685Z</time></trkpt><trkpt lat="40.81189" lon="14.076165"><ele>15.666666666666668</ele><time>2026-04-09T14:30:07.685Z</time></trkpt><trkpt lat="40.81188" lon="14.0760517"><ele>15.0</ele><time>2026-04-09T14:30:08.685Z</time></trkpt><trkpt lat="40.811875" lon="14.0759467"><ele>14.333333333333332</ele><time>2026-04-09T14:30:09.686Z</time></trkpt><trkpt lat="40.8118733" lon="14.075855"><ele>13.666666666666666</ele><time>2026-04-09T14:30:10.685Z</time></trkpt><trkpt lat="40.8118833" lon="14.0756967"><ele>13.0</ele><time>2026-04-09T14:30:12.685Z</time></trkpt><trkpt lat="40.81193" lon="14.075555"><ele>12.999999999999998</ele><time>2026-04-09T14:30:14.685Z</time></trkpt><trkpt lat="40.81203" lon="14.0754583"><ele>13.0</ele><time>2026-04-09T14:30:16.685Z</time></trkpt><trkpt lat="40.8120983" lon="14.0754417"><ele>13.0</ele><time>2026-04-09T14:30:17.685Z</time></trkpt><trkpt lat="40.8121733" lon="14.0754383"><ele>13.0</ele><time>2026-04-09T14:30:18.687Z</time></trkpt><trkpt lat="40.8122517" lon="14.0754383"><ele>12.999999999999998</ele><time>2026-04-09T14:30:19.685Z</time></trkpt><trkpt lat="40.8123383" lon="14.0754433"><ele>13.0</ele><time>2026-04-09T14:30:20.686Z</time></trkpt><trkpt lat="40.81243" lon="14.0754467"><ele>13.0</ele><time>2026-04-09T14:30:21.685Z</time></trkpt><trkpt lat="40.81252" lon="14.0754483"><ele>13.0</ele><time>2026-04-09T14:30:22.685Z</time></trkpt><trkpt lat="40.81261" lon="14.07544"><ele>13.0</ele><time>2026-04-09T14:30:23.685Z</time></trkpt><trkpt lat="40.8127033" lon="14.075425"><ele>13.0</ele><time>2026-04-09T14:30:24.686Z</time></trkpt><trkpt lat="40.812795" lon="14.075395"><ele>13.0</ele><time>2026-04-09T14:30:25.685Z</time></trkpt><trkpt lat="40.8128833" lon="14.0753367"><ele>11.6</ele><time>2026-04-09T14:30:26.685Z</time></trkpt><trkpt lat="40.8129683" lon="14.0752533"><ele>10.200000000000001</ele><time>2026-04-09T14:30:27.685Z</time></trkpt><trkpt lat="40.8130433" lon="14.0751583"><ele>8.8</ele><time>2026-04-09T14:30:28.686Z</time></trkpt><trkpt lat="40.8131167" lon="14.0750583"><ele>7.4</ele><time>2026-04-09T14:30:29.686Z</time></trkpt><trkpt lat="40.81319" lon="14.0749567"><ele>6.0</ele><time>2026-04-09T14:30:30.686Z</time></trkpt><trkpt lat="40.8132667" lon="14.07485"><ele>6.0</ele><time>2026-04-09T14:30:31.685Z</time></trkpt><trkpt lat="40.8133467" lon="14.074745"><ele>6.0</ele><time>2026-04-09T14:30:32.685Z</time></trkpt><trkpt lat="40.8134267" lon="14.0746417"><ele>6.0</ele><time>2026-04-09T14:30:33.685Z</time></trkpt><trkpt lat="40.8134967" lon="14.0745333"><ele>6.0</ele><time>2026-04-09T14:30:34.685Z</time></trkpt><trkpt lat="40.8135583" lon="14.0744283"><ele>6.0</ele><time>2026-04-09T14:30:35.685Z</time></trkpt><trkpt lat="40.8136283" lon="14.0743283"><ele>5.3999999999999995</ele><time>2026-04-09T14:30:36.685Z</time></trkpt><trkpt lat="40.8136933" lon="14.07423"><ele>4.8</ele><time>2026-04-09T14:30:37.685Z</time></trkpt><trkpt lat="40.81376" lon="14.07413"><ele>4.199999999999999</ele><time>2026-04-09T14:30:38.686Z</time></trkpt><trkpt lat="40.813825" lon="14.0740367"><ele>3.5999999999999996</ele><time>2026-04-09T14:30:39.685Z</time></trkpt><trkpt lat="40.81389" lon="14.0739433"><ele>3.0</ele><time>2026-04-09T14:30:40.685Z</time></trkpt><trkpt lat="40.8139533" lon="14.0738583"><ele>3.0</ele><time>2026-04-09T14:30:41.685Z</time></trkpt><trkpt lat="40.81402" lon="14.0737783"><ele>3.0</ele><time>2026-04-09T14:30:42.685Z</time></trkpt><trkpt lat="40.81408" lon="14.0736967"><ele>3.0</ele><time>2026-04-09T14:30:43.684Z</time></trkpt><trkpt lat="40.81413" lon="14.07362"><ele>3.0</ele><time>2026-04-09T14:30:44.684Z</time></trkpt><trkpt lat="40.8141767" lon="14.0735517"><ele>3.0</ele><time>2026-04-09T14:30:45.684Z</time></trkpt><trkpt lat="40.8142167" lon="14.0734817"><ele>3.0</ele><time>2026-04-09T14:30:46.684Z</time></trkpt><trkpt lat="40.8142667" lon="14.07341"><ele>2.9999999999999996</ele><time>2026-04-09T14:30:47.685Z</time></trkpt><trkpt lat="40.8143183" lon="14.0733417"><ele>3.0</ele><time>2026-04-09T14:30:48.684Z</time></trkpt><trkpt lat="40.8143683" lon="14.0732717"><ele>3.0</ele><time>2026-04-09T14:30:49.685Z</time></trkpt><trkpt lat="40.81442" lon="14.0732017"><ele>3.0</ele><time>2026-04-09T14:30:50.684Z</time></trkpt><trkpt lat="40.8144717" lon="14.073125"><ele>3.0</ele><time>2026-04-09T14:30:51.684Z</time></trkpt><trkpt lat="40.81453" lon="14.073055"><ele>2.9999999999999996</ele><time>2026-04-09T14:30:52.684Z</time></trkpt><trkpt lat="40.8145817" lon="14.0729917"><ele>3.0</ele><time>2026-04-09T14:30:53.684Z</time></trkpt><trkpt lat="40.814655" lon="14.0728883"><ele>3.0</ele><time>2026-04-09T14:30:55.684Z</time></trkpt><trkpt lat="40.8147183" lon="14.072795"><ele>3.0</ele><time>2026-04-09T14:30:57.684Z</time></trkpt><trkpt lat="40.814775" lon="14.0727133"><ele>3.0</ele><time>2026-04-09T14:30:59.687Z</time></trkpt><trkpt lat="40.8148267" lon="14.0726433"><ele>3.0</ele><time>2026-04-09T14:31:01.684Z</time></trkpt><trkpt lat="40.81491" lon="14.0725833"><ele>3.0</ele><time>2026-04-09T14:31:03.684Z</time></trkpt><trkpt lat="40.81498" lon="14.0724883"><ele>3.0</ele><time>2026-04-09T14:31:05.684Z</time></trkpt><trkpt lat="40.8150567" lon="14.0723783"><ele>2.8333333333333335</ele><time>2026-04-09T14:31:07.684Z</time></trkpt><trkpt lat="40.8151017" lon="14.0723167"><ele>2.6666666666666665</ele><time>2026-04-09T14:31:08.684Z</time></trkpt><trkpt lat="40.815145" lon="14.0722533"><ele>2.5</ele><time>2026-04-09T14:31:09.685Z</time></trkpt><trkpt lat="40.8151867" lon="14.0721883"><ele>2.333333333333333</ele><time>2026-04-09T14:31:10.685Z</time></trkpt><trkpt lat="40.815275" lon="14.0720683"><ele>2.1666666666666665</ele><time>2026-04-09T14:31:12.685Z</time></trkpt><trkpt lat="40.815325" lon="14.072015"><ele>2.0</ele><time>2026-04-09T14:31:13.686Z</time></trkpt><trkpt lat="40.815375" lon="14.0719567"><ele>2.0</ele><time>2026-04-09T14:31:14.685Z</time></trkpt><trkpt lat="40.815435" lon="14.0719033"><ele>1.9999999999999998</ele><time>2026-04-09T14:31:15.685Z</time></trkpt><trkpt lat="40.8154817" lon="14.0718433"><ele>2.0</ele><time>2026-04-09T14:31:16.686Z</time></trkpt><trkpt lat="40.8155283" lon="14.071775"><ele>2.0</ele><time>2026-04-09T14:31:17.684Z</time></trkpt><trkpt lat="40.815585" lon="14.071715"><ele>1.9999999999999998</ele><time>2026-04-09T14:31:18.684Z</time></trkpt><trkpt lat="40.8156383" lon="14.0716483"><ele>2.0</ele><time>2026-04-09T14:31:19.686Z</time></trkpt><trkpt lat="40.8156967" lon="14.0715767"><ele>2.0</ele><time>2026-04-09T14:31:20.685Z</time></trkpt><trkpt lat="40.8157583" lon="14.0715117"><ele>2.7142857142857144</ele><time>2026-04-09T14:31:21.684Z</time></trkpt><trkpt lat="40.81582" lon="14.0714467"><ele>3.4285714285714284</ele><time>2026-04-09T14:31:22.686Z</time></trkpt><trkpt lat="40.8158733" lon="14.0713817"><ele>4.142857142857142</ele><time>2026-04-09T14:31:23.684Z</time></trkpt><trkpt lat="40.8159267" lon="14.0713217"><ele>4.857142857142857</ele><time>2026-04-09T14:31:24.685Z</time></trkpt><trkpt lat="40.8159817" lon="14.0712683"><ele>5.571428571428571</ele><time>2026-04-09T14:31:25.685Z</time></trkpt><trkpt lat="40.81604" lon="14.0712233"><ele>6.285714285714286</ele><time>2026-04-09T14:31:26.686Z</time></trkpt><trkpt lat="40.816105" lon="14.07119"><ele>7.0</ele><time>2026-04-09T14:31:27.684Z</time></trkpt><trkpt lat="40.8161667" lon="14.071165"><ele>7.000000000000001</ele><time>2026-04-09T14:31:28.687Z</time></trkpt><trkpt lat="40.8162283" lon="14.071145"><ele>7.0</ele><time>2026-04-09T14:31:29.685Z</time></trkpt><trkpt lat="40.816295" lon="14.0711233"><ele>7.0</ele><time>2026-04-09T14:31:30.684Z</time></trkpt><trkpt lat="40.8163583" lon="14.07111"><ele>7.0</ele><time>2026-04-09T14:31:31.686Z</time></trkpt><trkpt lat="40.8164233" lon="14.0710983"><ele>7.000000000000001</ele><time>2026-04-09T14:31:32.686Z</time></trkpt><trkpt lat="40.8165367" lon="14.0710917"><ele>7.0</ele><time>2026-04-09T14:31:34.684Z</time></trkpt><trkpt lat="40.8166367" lon="14.0710883"><ele>7.0</ele><time>2026-04-09T14:31:36.684Z</time></trkpt><trkpt lat="40.8167283" lon="14.0710717"><ele>6.999999999999999</ele><time>2026-04-09T14:31:38.685Z</time></trkpt><trkpt lat="40.8168417" lon="14.0710733"><ele>6.999999999999999</ele><time>2026-04-09T14:31:40.684Z</time></trkpt><trkpt lat="40.81696" lon="14.0710583"><ele>7.0</ele><time>2026-04-09T14:31:42.685Z</time></trkpt><trkpt lat="40.8170283" lon="14.0710467"><ele>7.0</ele><time>2026-04-09T14:31:43.684Z</time></trkpt><trkpt lat="40.8171033" lon="14.071045"><ele>6.500000000000001</ele><time>2026-04-09T14:31:44.684Z</time></trkpt><trkpt lat="40.81718" lon="14.071045"><ele>6.0</ele><time>2026-04-09T14:31:45.684Z</time></trkpt><trkpt lat="40.8172517" lon="14.07104"><ele>5.5</ele><time>2026-04-09T14:31:46.685Z</time></trkpt><trkpt lat="40.81735" lon="14.0710267"><ele>5.0</ele><time>2026-04-09T14:31:47.684Z</time></trkpt><trkpt lat="40.8174267" lon="14.0710367"><ele>4.5</ele><time>2026-04-09T14:31:48.684Z</time></trkpt><trkpt lat="40.8175017" lon="14.0710533"><ele>4.0</ele><time>2026-04-09T14:31:49.684Z</time></trkpt><trkpt lat="40.8175733" lon="14.0710683"><ele>3.9999999999999996</ele><time>2026-04-09T14:31:50.684Z</time></trkpt><trkpt lat="40.8176433" lon="14.0710817"><ele>4.0</ele><time>2026-04-09T14:31:51.684Z</time></trkpt><trkpt lat="40.8177117" lon="14.071095"><ele>4.0</ele><time>2026-04-09T14:31:52.687Z</time></trkpt><trkpt lat="40.8177867" lon="14.0711117"><ele>4.0</ele><time>2026-04-09T14:31:53.684Z</time></trkpt><trkpt lat="40.8178517" lon="14.0711283"><ele>3.9999999999999996</ele><time>2026-04-09T14:31:54.685Z</time></trkpt><trkpt lat="40.8179133" lon="14.0711483"><ele>4.0</ele><time>2026-04-09T14:31:55.684Z</time></trkpt><trkpt lat="40.81803" lon="14.0711833"><ele>4.4</ele><time>2026-04-09T14:31:57.685Z</time></trkpt><trkpt lat="40.818095" lon="14.071205"><ele>4.800000000000001</ele><time>2026-04-09T14:31:58.684Z</time></trkpt><trkpt lat="40.818205" lon="14.0712417"><ele>5.199999999999999</ele><time>2026-04-09T14:32:00.684Z</time></trkpt><trkpt lat="40.8183" lon="14.0712783"><ele>5.6</ele><time>2026-04-09T14:32:02.688Z</time></trkpt><trkpt lat="40.8183917" lon="14.071315"><ele>6.0</ele><time>2026-04-09T14:32:04.688Z</time></trkpt><trkpt lat="40.8184983" lon="14.0713767"><ele>8.2</ele><time>2026-04-09T14:32:06.684Z</time></trkpt><trkpt lat="40.8185583" lon="14.071415"><ele>10.399999999999999</ele><time>2026-04-09T14:32:07.686Z</time></trkpt><trkpt lat="40.8186733" lon="14.071465"><ele>12.6</ele><time>2026-04-09T14:32:09.684Z</time></trkpt><trkpt lat="40.8187333" lon="14.0714917"><ele>14.799999999999999</ele><time>2026-04-09T14:32:10.685Z</time></trkpt><trkpt lat="40.81886" lon="14.0715267"><ele>17.0</ele><time>2026-04-09T14:32:12.685Z</time></trkpt><trkpt lat="40.818985" lon="14.0715583"><ele>17.0</ele><time>2026-04-09T14:32:14.685Z</time></trkpt><trkpt lat="40.819065" lon="14.0715667"><ele>17.0</ele><time>2026-04-09T14:32:15.685Z</time></trkpt><trkpt lat="40.8191383" lon="14.071585"><ele>17.0</ele><time>2026-04-09T14:32:16.686Z</time></trkpt><trkpt lat="40.8192117" lon="14.0716017"><ele>17.0</ele><time>2026-04-09T14:32:17.687Z</time></trkpt><trkpt lat="40.8192817" lon="14.0716233"><ele>17.0</ele><time>2026-04-09T14:32:18.686Z</time></trkpt><trkpt lat="40.81936" lon="14.0716433"><ele>17.0</ele><time>2026-04-09T14:32:19.685Z</time></trkpt><trkpt lat="40.81943" lon="14.071665"><ele>15.999999999999998</ele><time>2026-04-09T14:32:20.684Z</time></trkpt><trkpt lat="40.81951" lon="14.0716767"><ele>15.0</ele><time>2026-04-09T14:32:21.686Z</time></trkpt><trkpt lat="40.819585" lon="14.0716917"><ele>14.0</ele><time>2026-04-09T14:32:22.684Z</time></trkpt><trkpt lat="40.8196583" lon="14.071705"><ele>13.0</ele><time>2026-04-09T14:32:23.685Z</time></trkpt><trkpt lat="40.8197317" lon="14.0717167"><ele>12.0</ele><time>2026-04-09T14:32:24.685Z</time></trkpt><trkpt lat="40.8198017" lon="14.0717367"><ele>11.0</ele><time>2026-04-09T14:32:25.684Z</time></trkpt><trkpt lat="40.81987" lon="14.0717583"><ele>10.0</ele><time>2026-04-09T14:32:26.684Z</time></trkpt><trkpt lat="40.81994" lon="14.07179"><ele>10.0</ele><time>2026-04-09T14:32:27.684Z</time></trkpt><trkpt lat="40.8200017" lon="14.0718133"><ele>10.0</ele><time>2026-04-09T14:32:28.684Z</time></trkpt><trkpt lat="40.8200617" lon="14.0718417"><ele>10.0</ele><time>2026-04-09T14:32:29.685Z</time></trkpt><trkpt lat="40.8201217" lon="14.0718717"><ele>10.0</ele><time>2026-04-09T14:32:30.684Z</time></trkpt><trkpt lat="40.8201833" lon="14.0719033"><ele>10.0</ele><time>2026-04-09T14:32:31.684Z</time></trkpt><trkpt lat="40.82025" lon="14.071935"><ele>10.0</ele><time>2026-04-09T14:32:32.684Z</time></trkpt><trkpt lat="40.820315" lon="14.0719683"><ele>10.0</ele><time>2026-04-09T14:32:33.684Z</time></trkpt><trkpt lat="40.820375" lon="14.071995"><ele>10.5</ele><time>2026-04-09T14:32:34.686Z</time></trkpt><trkpt lat="40.8204933" lon="14.0720467"><ele>11.0</ele><time>2026-04-09T14:32:36.685Z</time></trkpt><trkpt lat="40.820555" lon="14.0720717"><ele>11.5</ele><time>2026-04-09T14:32:37.684Z</time></trkpt><trkpt lat="40.8206167" lon="14.0721"><ele>12.0</ele><time>2026-04-09T14:32:38.69Z</time></trkpt><trkpt lat="40.8206783" lon="14.07213"><ele>12.499999999999998</ele><time>2026-04-09T14:32:39.685Z</time></trkpt><trkpt lat="40.8207967" lon="14.0721867"><ele>13.0</ele><time>2026-04-09T14:32:41.686Z</time></trkpt><trkpt lat="40.8208583" lon="14.072215"><ele>12.999999999999998</ele><time>2026-04-09T14:32:42.685Z</time></trkpt><trkpt lat="40.8209233" lon="14.0722433"><ele>13.0</ele><time>2026-04-09T14:32:43.687Z</time></trkpt><trkpt lat="40.8209867" lon="14.0722717"><ele>13.0</ele><time>2026-04-09T14:32:44.687Z</time></trkpt><trkpt lat="40.8210483" lon="14.0723"><ele>13.0</ele><time>2026-04-09T14:32:45.685Z</time></trkpt><trkpt lat="40.82111" lon="14.0723283"><ele>12.999999999999998</ele><time>2026-04-09T14:32:46.685Z</time></trkpt><trkpt lat="40.8211733" lon="14.0723617"><ele>13.0</ele><time>2026-04-09T14:32:47.686Z</time></trkpt><trkpt lat="40.821275" lon="14.0724483"><ele>15.25</ele><time>2026-04-09T14:32:49.686Z</time></trkpt><trkpt lat="40.82137" lon="14.07255"><ele>17.5</ele><time>2026-04-09T14:32:51.685Z</time></trkpt><trkpt lat="40.821455" lon="14.0726617"><ele>19.75</ele><time>2026-04-09T14:32:53.685Z</time></trkpt><trkpt lat="40.8215417" lon="14.07277"><ele>22.0</ele><time>2026-04-09T14:32:55.686Z</time></trkpt><trkpt lat="40.8216183" lon="14.0728783"><ele>22.0</ele><time>2026-04-09T14:32:57.685Z</time></trkpt><trkpt lat="40.8216917" lon="14.0729917"><ele>22.0</ele><time>2026-04-09T14:32:59.691Z</time></trkpt><trkpt lat="40.8217617" lon="14.0731033"><ele>22.0</ele><time>2026-04-09T14:33:01.685Z</time></trkpt><trkpt lat="40.8218417" lon="14.0732083"><ele>22.0</ele><time>2026-04-09T14:33:03.685Z</time></trkpt><trkpt lat="40.8219133" lon="14.073325"><ele>22.0</ele><time>2026-04-09T14:33:05.685Z</time></trkpt><trkpt lat="40.82197" lon="14.0734417"><ele>24.6</ele><time>2026-04-09T14:33:07.685Z</time></trkpt><trkpt lat="40.8220267" lon="14.0735533"><ele>27.200000000000003</ele><time>2026-04-09T14:33:09.685Z</time></trkpt><trkpt lat="40.8220867" lon="14.0736617"><ele>29.8</ele><time>2026-04-09T14:33:11.685Z</time></trkpt><trkpt lat="40.8221467" lon="14.073775"><ele>32.4</ele><time>2026-04-09T14:33:13.685Z</time></trkpt><trkpt lat="40.822205" lon="14.0738967"><ele>35.0</ele><time>2026-04-09T14:33:15.687Z</time></trkpt><trkpt lat="40.8222517" lon="14.0740217"><ele>32.2</ele><time>2026-04-09T14:33:17.685Z</time></trkpt><trkpt lat="40.8223" lon="14.07416"><ele>29.4</ele><time>2026-04-09T14:33:19.684Z</time></trkpt><trkpt lat="40.8223583" lon="14.0742933"><ele>26.6</ele><time>2026-04-09T14:33:21.685Z</time></trkpt><trkpt lat="40.8224317" lon="14.0744217"><ele>23.8</ele><time>2026-04-09T14:33:23.685Z</time></trkpt><trkpt lat="40.8224683" lon="14.07449"><ele>21.0</ele><time>2026-04-09T14:33:24.684Z</time></trkpt><trkpt lat="40.8225067" lon="14.0745567"><ele>21.0</ele><time>2026-04-09T14:33:25.684Z</time></trkpt><trkpt lat="40.822585" lon="14.074685"><ele>21.0</ele><time>2026-04-09T14:33:27.684Z</time></trkpt><trkpt lat="40.822665" lon="14.074815"><ele>21.0</ele><time>2026-04-09T14:33:29.685Z</time></trkpt><trkpt lat="40.8226983" lon="14.07489"><ele>21.0</ele><time>2026-04-09T14:33:30.684Z</time></trkpt><trkpt lat="40.8227233" lon="14.0749667"><ele>21.0</ele><time>2026-04-09T14:33:31.686Z</time></trkpt><trkpt lat="40.8227517" lon="14.07512"><ele>25.25</ele><time>2026-04-09T14:33:33.684Z</time></trkpt><trkpt lat="40.8227767" lon="14.0752717"><ele>29.5</ele><time>2026-04-09T14:33:35.686Z</time></trkpt><trkpt lat="40.8227983" lon="14.0754133"><ele>33.75</ele><time>2026-04-09T14:33:37.684Z</time></trkpt><trkpt lat="40.822815" lon="14.07556"><ele>38.0</ele><time>2026-04-09T14:33:39.684Z</time></trkpt><trkpt lat="40.8228283" lon="14.0757067"><ele>38.599999999999994</ele><time>2026-04-09T14:33:41.687Z</time></trkpt><trkpt lat="40.8228333" lon="14.0758583"><ele>39.199999999999996</ele><time>2026-04-09T14:33:43.685Z</time></trkpt><trkpt lat="40.82282" lon="14.07602"><ele>39.8</ele><time>2026-04-09T14:33:45.686Z</time></trkpt><trkpt lat="40.822805" lon="14.0761017"><ele>40.4</ele><time>2026-04-09T14:33:46.685Z</time></trkpt><trkpt lat="40.8227817" lon="14.076255"><ele>41.0</ele><time>2026-04-09T14:33:48.684Z</time></trkpt><trkpt lat="40.8227733" lon="14.0763917"><ele>41.0</ele><time>2026-04-09T14:33:50.685Z</time></trkpt><trkpt lat="40.8227717" lon="14.0765167"><ele>41.0</ele><time>2026-04-09T14:33:52.689Z</time></trkpt><trkpt lat="40.822795" lon="14.0766233"><ele>41.0</ele><time>2026-04-09T14:33:54.685Z</time></trkpt><trkpt lat="40.8228617" lon="14.0766867"><ele>41.0</ele><time>2026-04-09T14:33:56.684Z</time></trkpt><trkpt lat="40.8229267" lon="14.076705"><ele>41.0</ele><time>2026-04-09T14:33:57.684Z</time></trkpt><trkpt lat="40.8230483" lon="14.0767317"><ele>43.0</ele><time>2026-04-09T14:33:59.685Z</time></trkpt><trkpt lat="40.8231167" lon="14.07674"><ele>45.0</ele><time>2026-04-09T14:34:00.685Z</time></trkpt><trkpt lat="40.823195" lon="14.0767533"><ele>47.0</ele><time>2026-04-09T14:34:01.685Z</time></trkpt><trkpt lat="40.8232667" lon="14.0767683"><ele>49.0</ele><time>2026-04-09T14:34:02.685Z</time></trkpt><trkpt lat="40.8233383" lon="14.0767933"><ele>51.00000000000001</ele><time>2026-04-09T14:34:03.685Z</time></trkpt><trkpt lat="40.8234167" lon="14.07683"><ele>53.0</ele><time>2026-04-09T14:34:04.685Z</time></trkpt><trkpt lat="40.82349" lon="14.0768817"><ele>53.0</ele><time>2026-04-09T14:34:05.688Z</time></trkpt><trkpt lat="40.8235567" lon="14.0769433"><ele>53.0</ele><time>2026-04-09T14:34:06.684Z</time></trkpt><trkpt lat="40.82363" lon="14.0770067"><ele>53.0</ele><time>2026-04-09T14:34:07.686Z</time></trkpt><trkpt lat="40.823705" lon="14.0770767"><ele>53.0</ele><time>2026-04-09T14:34:08.686Z</time></trkpt><trkpt lat="40.82378" lon="14.0771483"><ele>53.0</ele><time>2026-04-09T14:34:09.684Z</time></trkpt><trkpt lat="40.8238567" lon="14.0772267"><ele>53.0</ele><time>2026-04-09T14:34:10.685Z</time></trkpt><trkpt lat="40.823935" lon="14.077305"><ele>53.0</ele><time>2026-04-09T14:34:11.684Z</time></trkpt><trkpt lat="40.8240183" lon="14.0773867"><ele>53.0</ele><time>2026-04-09T14:34:12.685Z</time></trkpt><trkpt lat="40.82411" lon="14.077445"><ele>53.0</ele><time>2026-04-09T14:34:13.686Z</time></trkpt><trkpt lat="40.82421" lon="14.0774767"><ele>53.0</ele><time>2026-04-09T14:34:14.685Z</time></trkpt><trkpt lat="40.8243067" lon="14.0774783"><ele>51.599999999999994</ele><time>2026-04-09T14:34:15.685Z</time></trkpt><trkpt lat="40.8244083" lon="14.0774433"><ele>50.199999999999996</ele><time>2026-04-09T14:34:16.684Z</time></trkpt><trkpt lat="40.8245083" lon="14.0773933"><ele>48.8</ele><time>2026-04-09T14:34:17.685Z</time></trkpt><trkpt lat="40.8246067" lon="14.0773317"><ele>47.4</ele><time>2026-04-09T14:34:18.684Z</time></trkpt><trkpt lat="40.82471" lon="14.0772733"><ele>46.0</ele><time>2026-04-09T14:34:19.687Z</time></trkpt><trkpt lat="40.824815" lon="14.0772267"><ele>46.0</ele><time>2026-04-09T14:34:20.685Z</time></trkpt><trkpt lat="40.8249233" lon="14.0771883"><ele>46.0</ele><time>2026-04-09T14:34:21.684Z</time></trkpt><trkpt lat="40.825035" lon="14.077155"><ele>46.0</ele><time>2026-04-09T14:34:22.685Z</time></trkpt><trkpt lat="40.825155" lon="14.0771367"><ele>46.0</ele><time>2026-04-09T14:34:23.687Z</time></trkpt><trkpt lat="40.825275" lon="14.0771217"><ele>40.8</ele><time>2026-04-09T14:34:24.685Z</time></trkpt><trkpt lat="40.8253867" lon="14.0770983"><ele>35.599999999999994</ele><time>2026-04-09T14:34:25.686Z</time></trkpt><trkpt lat="40.8254867" lon="14.077055"><ele>30.4</ele><time>2026-04-09T14:34:26.687Z</time></trkpt><trkpt lat="40.825575" lon="14.0769833"><ele>25.2</ele><time>2026-04-09T14:34:27.685Z</time></trkpt><trkpt lat="40.8256633" lon="14.0769083"><ele>20.0</ele><time>2026-04-09T14:34:28.685Z</time></trkpt><trkpt lat="40.8257533" lon="14.076835"><ele>20.0</ele><time>2026-04-09T14:34:29.692Z</time></trkpt><trkpt lat="40.8258383" lon="14.07679"><ele>20.0</ele><time>2026-04-09T14:34:30.685Z</time></trkpt><trkpt lat="40.82593" lon="14.076775"><ele>20.0</ele><time>2026-04-09T14:34:31.686Z</time></trkpt><trkpt lat="40.8260233" lon="14.0767933"><ele>20.0</ele><time>2026-04-09T14:34:32.685Z</time></trkpt><trkpt lat="40.8261083" lon="14.0768633"><ele>20.0</ele><time>2026-04-09T14:34:33.685Z</time></trkpt><trkpt lat="40.826185" lon="14.0769283"><ele>17.857142857142858</ele><time>2026-04-09T14:34:34.686Z</time></trkpt><trkpt lat="40.82626" lon="14.076985"><ele>15.714285714285715</ele><time>2026-04-09T14:34:35.686Z</time></trkpt><trkpt lat="40.826325" lon="14.0770417"><ele>13.571428571428571</ele><time>2026-04-09T14:34:36.686Z</time></trkpt><trkpt lat="40.826375" lon="14.0770967"><ele>11.428571428571429</ele><time>2026-04-09T14:34:37.686Z</time></trkpt><trkpt lat="40.82643" lon="14.0771567"><ele>9.285714285714286</ele><time>2026-04-09T14:34:38.686Z</time></trkpt><trkpt lat="40.826475" lon="14.0772283"><ele>7.142857142857142</ele><time>2026-04-09T14:34:39.686Z</time></trkpt><trkpt lat="40.82652" lon="14.07731"><ele>5.0</ele><time>2026-04-09T14:34:40.687Z</time></trkpt><trkpt lat="40.8265667" lon="14.0774017"><ele>4.4</ele><time>2026-04-09T14:34:41.686Z</time></trkpt><trkpt lat="40.8266117" lon="14.0775033"><ele>3.8</ele><time>2026-04-09T14:34:42.685Z</time></trkpt><trkpt lat="40.8266583" lon="14.0776083"><ele>3.2</ele><time>2026-04-09T14:34:43.686Z</time></trkpt><trkpt lat="40.826705" lon="14.0777167"><ele>2.6</ele><time>2026-04-09T14:34:44.686Z</time></trkpt><trkpt lat="40.8267617" lon="14.0778233"><ele>2.0</ele><time>2026-04-09T14:34:45.686Z</time></trkpt><trkpt lat="40.82682" lon="14.0779283"><ele>2.0</ele><time>2026-04-09T14:34:46.685Z</time></trkpt><trkpt lat="40.8268833" lon="14.0780367"><ele>2.0</ele><time>2026-04-09T14:34:47.686Z</time></trkpt><trkpt lat="40.8269483" lon="14.07815"><ele>2.0</ele><time>2026-04-09T14:34:48.685Z</time></trkpt><trkpt lat="40.8270033" lon="14.0782683"><ele>2.0</ele><time>2026-04-09T14:34:49.686Z</time></trkpt><trkpt lat="40.8270567" lon="14.0783817"><ele>2.0</ele><time>2026-04-09T14:34:50.685Z</time></trkpt><trkpt lat="40.8271167" lon="14.0784867"><ele>2.0</ele><time>2026-04-09T14:34:51.689Z</time></trkpt><trkpt lat="40.8271717" lon="14.0785917"><ele>2.0</ele><time>2026-04-09T14:34:52.686Z</time></trkpt><trkpt lat="40.8272217" lon="14.0787"><ele>2.0</ele><time>2026-04-09T14:34:53.686Z</time></trkpt><trkpt lat="40.8272683" lon="14.0788067"><ele>2.0</ele><time>2026-04-09T14:34:54.685Z</time></trkpt><trkpt lat="40.827315" lon="14.0789083"><ele>2.0</ele><time>2026-04-09T14:34:55.687Z</time></trkpt><trkpt lat="40.82736" lon="14.0790067"><ele>2.2</ele><time>2026-04-09T14:34:56.686Z</time></trkpt><trkpt lat="40.827405" lon="14.0791033"><ele>2.4000000000000004</ele><time>2026-04-09T14:34:57.685Z</time></trkpt><trkpt lat="40.827445" lon="14.0792033"><ele>2.5999999999999996</ele><time>2026-04-09T14:34:58.686Z</time></trkpt><trkpt lat="40.8274867" lon="14.07931"><ele>2.8</ele><time>2026-04-09T14:34:59.686Z</time></trkpt><trkpt lat="40.8275283" lon="14.0794217"><ele>3.0</ele><time>2026-04-09T14:35:00.686Z</time></trkpt><trkpt lat="40.827575" lon="14.0795317"><ele>3.0</ele><time>2026-04-09T14:35:01.686Z</time></trkpt><trkpt lat="40.8276283" lon="14.0796383"><ele>3.0</ele><time>2026-04-09T14:35:02.685Z</time></trkpt><trkpt lat="40.8276833" lon="14.0797467"><ele>3.0</ele><time>2026-04-09T14:35:03.686Z</time></trkpt><trkpt lat="40.8277367" lon="14.0798583"><ele>3.0</ele><time>2026-04-09T14:35:04.685Z</time></trkpt><trkpt lat="40.8277933" lon="14.0799717"><ele>3.0</ele><time>2026-04-09T14:35:05.686Z</time></trkpt><trkpt lat="40.827845" lon="14.0800883"><ele>2.8</ele><time>2026-04-09T14:35:06.686Z</time></trkpt><trkpt lat="40.8278983" lon="14.080205"><ele>2.5999999999999996</ele><time>2026-04-09T14:35:07.686Z</time></trkpt><trkpt lat="40.8279467" lon="14.0803217"><ele>2.4000000000000004</ele><time>2026-04-09T14:35:08.686Z</time></trkpt><trkpt lat="40.828" lon="14.08043"><ele>2.2</ele><time>2026-04-09T14:35:09.686Z</time></trkpt><trkpt lat="40.8280583" lon="14.080535"><ele>2.0</ele><time>2026-04-09T14:35:10.686Z</time></trkpt><trkpt lat="40.82811" lon="14.0806367"><ele>1.9999999999999998</ele><time>2026-04-09T14:35:11.687Z</time></trkpt><trkpt lat="40.82816" lon="14.0807383"><ele>2.0</ele><time>2026-04-09T14:35:12.685Z</time></trkpt><trkpt lat="40.8282083" lon="14.0808417"><ele>2.0</ele><time>2026-04-09T14:35:13.687Z</time></trkpt><trkpt lat="40.8282417" lon="14.0809467"><ele>2.0</ele><time>2026-04-09T14:35:14.685Z</time></trkpt><trkpt lat="40.82828" lon="14.0810467"><ele>1.9999999999999998</ele><time>2026-04-09T14:35:15.686Z</time></trkpt><trkpt lat="40.828325" lon="14.08114"><ele>2.0</ele><time>2026-04-09T14:35:16.686Z</time></trkpt><trkpt lat="40.8283717" lon="14.0812283"><ele>1.9999999999999998</ele><time>2026-04-09T14:35:17.685Z</time></trkpt><trkpt lat="40.8284167" lon="14.0813183"><ele>2.0</ele><time>2026-04-09T14:35:18.687Z</time></trkpt><trkpt lat="40.8284583" lon="14.0814083"><ele>2.0</ele><time>2026-04-09T14:35:19.686Z</time></trkpt><trkpt lat="40.8285067" lon="14.0814967"><ele>2.0</ele><time>2026-04-09T14:35:20.686Z</time></trkpt><trkpt lat="40.8285483" lon="14.0815833"><ele>1.9999999999999998</ele><time>2026-04-09T14:35:21.686Z</time></trkpt><trkpt lat="40.82859" lon="14.0816617"><ele>2.0</ele><time>2026-04-09T14:35:22.685Z</time></trkpt><trkpt lat="40.82863" lon="14.081745"><ele>1.3333333333333333</ele><time>2026-04-09T14:35:23.688Z</time></trkpt><trkpt lat="40.8286717" lon="14.0818333"><ele>0.6666666666666666</ele><time>2026-04-09T14:35:24.686Z</time></trkpt><trkpt lat="40.82871" lon="14.0819167"><ele>0.0</ele><time>2026-04-09T14:35:25.686Z</time></trkpt><trkpt lat="40.8287483" lon="14.0820017"><ele>-0.6666666666666666</ele><time>2026-04-09T14:35:26.686Z</time></trkpt><trkpt lat="40.8287867" lon="14.0820917"><ele>-1.3333333333333333</ele><time>2026-04-09T14:35:27.686Z</time></trkpt><trkpt lat="40.8288217" lon="14.08218"><ele>-2.0</ele><time>2026-04-09T14:35:28.686Z</time></trkpt><trkpt lat="40.8288633" lon="14.0822717"><ele>-1.9999999999999998</ele><time>2026-04-09T14:35:29.686Z</time></trkpt><trkpt lat="40.8289083" lon="14.0823617"><ele>-2.0</ele><time>2026-04-09T14:35:30.686Z</time></trkpt><trkpt lat="40.828955" lon="14.0824533"><ele>-2.0</ele><time>2026-04-09T14:35:31.687Z</time></trkpt><trkpt lat="40.8290017" lon="14.0825467"><ele>-2.0</ele><time>2026-04-09T14:35:32.688Z</time></trkpt><trkpt lat="40.8290467" lon="14.08264"><ele>-1.9999999999999998</ele><time>2026-04-09T14:35:33.689Z</time></trkpt><trkpt lat="40.829095" lon="14.0827317"><ele>-2.0</ele><time>2026-04-09T14:35:34.686Z</time></trkpt><trkpt lat="40.8291433" lon="14.08282"><ele>-1.4999999999999998</ele><time>2026-04-09T14:35:35.685Z</time></trkpt><trkpt lat="40.829195" lon="14.0829083"><ele>-1.0</ele><time>2026-04-09T14:35:36.684Z</time></trkpt><trkpt lat="40.8292467" lon="14.0829933"><ele>-0.5</ele><time>2026-04-09T14:35:37.684Z</time></trkpt><trkpt lat="40.829295" lon="14.083075"><ele>0.0</ele><time>2026-04-09T14:35:38.686Z</time></trkpt><trkpt lat="40.8293333" lon="14.0831633"><ele>0.49999999999999994</ele><time>2026-04-09T14:35:39.684Z</time></trkpt><trkpt lat="40.8293733" lon="14.0832517"><ele>1.0</ele><time>2026-04-09T14:35:40.684Z</time></trkpt><trkpt lat="40.8294083" lon="14.08334"><ele>1.8333333333333333</ele><time>2026-04-09T14:35:41.685Z</time></trkpt><trkpt lat="40.8294433" lon="14.0834267"><ele>2.6666666666666665</ele><time>2026-04-09T14:35:42.685Z</time></trkpt><trkpt lat="40.829485" lon="14.0835117"><ele>3.5</ele><time>2026-04-09T14:35:43.685Z</time></trkpt><trkpt lat="40.829525" lon="14.083595"><ele>4.333333333333333</ele><time>2026-04-09T14:35:44.686Z</time></trkpt><trkpt lat="40.8295733" lon="14.083675"><ele>5.166666666666667</ele><time>2026-04-09T14:35:45.685Z</time></trkpt><trkpt lat="40.8296267" lon="14.0837567"><ele>6.0</ele><time>2026-04-09T14:35:46.687Z</time></trkpt><trkpt lat="40.8296767" lon="14.0838317"><ele>5.999999999999999</ele><time>2026-04-09T14:35:47.685Z</time></trkpt><trkpt lat="40.8297167" lon="14.0839083"><ele>6.0</ele><time>2026-04-09T14:35:48.686Z</time></trkpt><trkpt lat="40.8297583" lon="14.0839917"><ele>6.0</ele><time>2026-04-09T14:35:49.685Z</time></trkpt><trkpt lat="40.8297967" lon="14.0840783"><ele>6.0</ele><time>2026-04-09T14:35:50.684Z</time></trkpt><trkpt lat="40.82983" lon="14.0841633"><ele>6.0</ele><time>2026-04-09T14:35:51.685Z</time></trkpt><trkpt lat="40.8298733" lon="14.0842483"><ele>5.999999999999999</ele><time>2026-04-09T14:35:52.685Z</time></trkpt><trkpt lat="40.829915" lon="14.0843333"><ele>6.0</ele><time>2026-04-09T14:35:53.688Z</time></trkpt><trkpt lat="40.8299583" lon="14.08442"><ele>6.0</ele><time>2026-04-09T14:35:54.685Z</time></trkpt><trkpt lat="40.83" lon="14.0845067"><ele>6.0</ele><time>2026-04-09T14:35:55.686Z</time></trkpt><trkpt lat="40.83004" lon="14.084595"><ele>6.0</ele><time>2026-04-09T14:35:56.684Z</time></trkpt><trkpt lat="40.8300767" lon="14.0846867"><ele>6.0</ele><time>2026-04-09T14:35:57.685Z</time></trkpt><trkpt lat="40.8301083" lon="14.08478"><ele>6.0</ele><time>2026-04-09T14:35:58.685Z</time></trkpt><trkpt lat="40.8301433" lon="14.0848717"><ele>6.0</ele><time>2026-04-09T14:35:59.687Z</time></trkpt><trkpt lat="40.830185" lon="14.0849617"><ele>7.166666666666666</ele><time>2026-04-09T14:36:00.687Z</time></trkpt><trkpt lat="40.8302217" lon="14.0850533"><ele>8.333333333333332</ele><time>2026-04-09T14:36:01.685Z</time></trkpt><trkpt lat="40.8302567" lon="14.0851417"><ele>9.5</ele><time>2026-04-09T14:36:02.685Z</time></trkpt><trkpt lat="40.8302883" lon="14.085225"><ele>10.666666666666666</ele><time>2026-04-09T14:36:03.687Z</time></trkpt><trkpt lat="40.830325" lon="14.0853"><ele>11.833333333333332</ele><time>2026-04-09T14:36:04.685Z</time></trkpt><trkpt lat="40.8303683" lon="14.085455"><ele>13.0</ele><time>2026-04-09T14:36:06.685Z</time></trkpt><trkpt lat="40.8303833" lon="14.0855417"><ele>13.0</ele><time>2026-04-09T14:36:07.685Z</time></trkpt><trkpt lat="40.8303983" lon="14.0856333"><ele>13.0</ele><time>2026-04-09T14:36:08.685Z</time></trkpt><trkpt lat="40.8304167" lon="14.0857217"><ele>13.0</ele><time>2026-04-09T14:36:09.685Z</time></trkpt><trkpt lat="40.8304333" lon="14.08581"><ele>13.0</ele><time>2026-04-09T14:36:10.685Z</time></trkpt><trkpt lat="40.83045" lon="14.0859"><ele>13.0</ele><time>2026-04-09T14:36:11.685Z</time></trkpt><trkpt lat="40.8304667" lon="14.0859883"><ele>13.0</ele><time>2026-04-09T14:36:12.685Z</time></trkpt><trkpt lat="40.830485" lon="14.08608"><ele>13.0</ele><time>2026-04-09T14:36:13.685Z</time></trkpt><trkpt lat="40.8305" lon="14.0861717"><ele>13.0</ele><time>2026-04-09T14:36:14.685Z</time></trkpt><trkpt lat="40.83052" lon="14.0862633"><ele>13.0</ele><time>2026-04-09T14:36:15.685Z</time></trkpt><trkpt lat="40.830535" lon="14.0863533"><ele>13.0</ele><time>2026-04-09T14:36:16.685Z</time></trkpt><trkpt lat="40.8305533" lon="14.086445"><ele>13.0</ele><time>2026-04-09T14:36:17.685Z</time></trkpt><trkpt lat="40.8305683" lon="14.0865333"><ele>13.0</ele><time>2026-04-09T14:36:18.685Z</time></trkpt><trkpt lat="40.8305883" lon="14.08662"><ele>13.0</ele><time>2026-04-09T14:36:19.685Z</time></trkpt><trkpt lat="40.8306083" lon="14.086705"><ele>13.0</ele><time>2026-04-09T14:36:20.684Z</time></trkpt><trkpt lat="40.8306233" lon="14.086795"><ele>12.857142857142856</ele><time>2026-04-09T14:36:21.684Z</time></trkpt><trkpt lat="40.8306383" lon="14.086885"><ele>12.714285714285715</ele><time>2026-04-09T14:36:22.685Z</time></trkpt><trkpt lat="40.8306583" lon="14.08697"><ele>12.571428571428571</ele><time>2026-04-09T14:36:23.685Z</time></trkpt><trkpt lat="40.83068" lon="14.087055"><ele>12.428571428571427</ele><time>2026-04-09T14:36:24.685Z</time></trkpt><trkpt lat="40.8306967" lon="14.08714"><ele>12.285714285714285</ele><time>2026-04-09T14:36:25.685Z</time></trkpt><trkpt lat="40.830715" lon="14.0872267"><ele>12.142857142857142</ele><time>2026-04-09T14:36:26.686Z</time></trkpt><trkpt lat="40.8307333" lon="14.087315"><ele>12.0</ele><time>2026-04-09T14:36:27.684Z</time></trkpt><trkpt lat="40.8307517" lon="14.0874017"><ele>11.571428571428571</ele><time>2026-04-09T14:36:28.684Z</time></trkpt><trkpt lat="40.8307683" lon="14.0874917"><ele>11.142857142857142</ele><time>2026-04-09T14:36:29.685Z</time></trkpt><trkpt lat="40.8307833" lon="14.0875833"><ele>10.714285714285715</ele><time>2026-04-09T14:36:30.685Z</time></trkpt><trkpt lat="40.830795" lon="14.0876767"><ele>10.285714285714285</ele><time>2026-04-09T14:36:31.685Z</time></trkpt><trkpt lat="40.83081" lon="14.0877683"><ele>9.857142857142858</ele><time>2026-04-09T14:36:32.685Z</time></trkpt><trkpt lat="40.8308267" lon="14.087865"><ele>9.428571428571429</ele><time>2026-04-09T14:36:33.685Z</time></trkpt><trkpt lat="40.8308433" lon="14.0879583"><ele>9.0</ele><time>2026-04-09T14:36:34.684Z</time></trkpt><trkpt lat="40.83086" lon="14.0880517"><ele>9.000000000000002</ele><time>2026-04-09T14:36:35.685Z</time></trkpt><trkpt lat="40.83088" lon="14.0881467"><ele>9.0</ele><time>2026-04-09T14:36:36.685Z</time></trkpt><trkpt lat="40.8308983" lon="14.08824"><ele>9.0</ele><time>2026-04-09T14:36:37.685Z</time></trkpt><trkpt lat="40.8309117" lon="14.0883367"><ele>9.0</ele><time>2026-04-09T14:36:38.685Z</time></trkpt><trkpt lat="40.8309233" lon="14.08843"><ele>9.0</ele><time>2026-04-09T14:36:39.684Z</time></trkpt><trkpt lat="40.83094" lon="14.0885233"><ele>9.000000000000002</ele><time>2026-04-09T14:36:40.684Z</time></trkpt><trkpt lat="40.83096" lon="14.0886167"><ele>9.0</ele><time>2026-04-09T14:36:41.685Z</time></trkpt><trkpt lat="40.83098" lon="14.0887133"><ele>9.5</ele><time>2026-04-09T14:36:42.685Z</time></trkpt><trkpt lat="40.8309983" lon="14.0888067"><ele>10.0</ele><time>2026-04-09T14:36:43.685Z</time></trkpt><trkpt lat="40.8310183" lon="14.0889033"><ele>10.5</ele><time>2026-04-09T14:36:44.685Z</time></trkpt><trkpt lat="40.8310417" lon="14.0889983"><ele>11.0</ele><time>2026-04-09T14:36:45.684Z</time></trkpt><trkpt lat="40.8310617" lon="14.0891"><ele>11.5</ele><time>2026-04-09T14:36:46.685Z</time></trkpt><trkpt lat="40.8310833" lon="14.0892"><ele>12.0</ele><time>2026-04-09T14:36:47.686Z</time></trkpt><trkpt lat="40.8311" lon="14.0892967"><ele>12.0</ele><time>2026-04-09T14:36:48.685Z</time></trkpt><trkpt lat="40.8311183" lon="14.089395"><ele>12.0</ele><time>2026-04-09T14:36:49.688Z</time></trkpt><trkpt lat="40.8311283" lon="14.0894967"><ele>12.0</ele><time>2026-04-09T14:36:50.685Z</time></trkpt><trkpt lat="40.8311367" lon="14.0896"><ele>12.0</ele><time>2026-04-09T14:36:51.685Z</time></trkpt><trkpt lat="40.8311483" lon="14.0897"><ele>12.0</ele><time>2026-04-09T14:36:52.685Z</time></trkpt><trkpt lat="40.8311633" lon="14.0898033"><ele>12.0</ele><time>2026-04-09T14:36:53.685Z</time></trkpt><trkpt lat="40.83118" lon="14.0899033"><ele>11.833333333333334</ele><time>2026-04-09T14:36:54.686Z</time></trkpt><trkpt lat="40.8311983" lon="14.090005"><ele>11.666666666666666</ele><time>2026-04-09T14:36:55.685Z</time></trkpt><trkpt lat="40.8312133" lon="14.0901083"><ele>11.5</ele><time>2026-04-09T14:36:56.685Z</time></trkpt><trkpt lat="40.83123" lon="14.0902167"><ele>11.333333333333332</ele><time>2026-04-09T14:36:57.685Z</time></trkpt><trkpt lat="40.8312483" lon="14.0903283"><ele>11.166666666666666</ele><time>2026-04-09T14:36:58.686Z</time></trkpt><trkpt lat="40.8312667" lon="14.0904383"><ele>11.0</ele><time>2026-04-09T14:36:59.686Z</time></trkpt><trkpt lat="40.83129" lon="14.0905483"><ele>11.0</ele><time>2026-04-09T14:37:00.684Z</time></trkpt><trkpt lat="40.8313117" lon="14.090655"><ele>11.0</ele><time>2026-04-09T14:37:01.685Z</time></trkpt><trkpt lat="40.8313383" lon="14.0907583"><ele>11.0</ele><time>2026-04-09T14:37:02.685Z</time></trkpt><trkpt lat="40.8313717" lon="14.0908567"><ele>11.0</ele><time>2026-04-09T14:37:03.686Z</time></trkpt><trkpt lat="40.8314083" lon="14.0909517"><ele>11.0</ele><time>2026-04-09T14:37:04.687Z</time></trkpt><trkpt lat="40.831445" lon="14.0910483"><ele>11.0</ele><time>2026-04-09T14:37:05.685Z</time></trkpt><trkpt lat="40.83148" lon="14.0911433"><ele>11.5</ele><time>2026-04-09T14:37:06.691Z</time></trkpt><trkpt lat="40.8315067" lon="14.0912433"><ele>12.0</ele><time>2026-04-09T14:37:07.685Z</time></trkpt><trkpt lat="40.8315283" lon="14.0913433"><ele>12.5</ele><time>2026-04-09T14:37:08.686Z</time></trkpt><trkpt lat="40.8315483" lon="14.0914433"><ele>13.0</ele><time>2026-04-09T14:37:09.686Z</time></trkpt><trkpt lat="40.8315783" lon="14.0915383"><ele>13.500000000000002</ele><time>2026-04-09T14:37:10.685Z</time></trkpt><trkpt lat="40.8316" lon="14.091635"><ele>14.0</ele><time>2026-04-09T14:37:11.685Z</time></trkpt><trkpt lat="40.8316233" lon="14.09173"><ele>14.500000000000002</ele><time>2026-04-09T14:37:12.685Z</time></trkpt><trkpt lat="40.8316483" lon="14.091825"><ele>15.0</ele><time>2026-04-09T14:37:13.685Z</time></trkpt><trkpt lat="40.8316783" lon="14.0919183"><ele>15.5</ele><time>2026-04-09T14:37:14.684Z</time></trkpt><trkpt lat="40.8317117" lon="14.09201"><ele>16.0</ele><time>2026-04-09T14:37:15.685Z</time></trkpt><trkpt lat="40.8317417" lon="14.0921033"><ele>16.5</ele><time>2026-04-09T14:37:16.686Z</time></trkpt><trkpt lat="40.8317717" lon="14.0921967"><ele>17.0</ele><time>2026-04-09T14:37:17.685Z</time></trkpt><trkpt lat="40.831805" lon="14.0922917"><ele>19.833333333333336</ele><time>2026-04-09T14:37:18.685Z</time></trkpt><trkpt lat="40.83184" lon="14.0923817"><ele>22.666666666666668</ele><time>2026-04-09T14:37:19.685Z</time></trkpt><trkpt lat="40.8318733" lon="14.0924733"><ele>25.5</ele><time>2026-04-09T14:37:20.685Z</time></trkpt><trkpt lat="40.8319083" lon="14.092565"><ele>28.333333333333336</ele><time>2026-04-09T14:37:21.685Z</time></trkpt><trkpt lat="40.831945" lon="14.0926567"><ele>31.166666666666668</ele><time>2026-04-09T14:37:22.686Z</time></trkpt><trkpt lat="40.8319783" lon="14.0927467"><ele>34.0</ele><time>2026-04-09T14:37:23.685Z</time></trkpt><trkpt lat="40.83201" lon="14.092835"><ele>33.99999999999999</ele><time>2026-04-09T14:37:24.685Z</time></trkpt><trkpt lat="40.832035" lon="14.0929233"><ele>34.0</ele><time>2026-04-09T14:37:25.687Z</time></trkpt><trkpt lat="40.8320683" lon="14.0930117"><ele>34.0</ele><time>2026-04-09T14:37:26.685Z</time></trkpt><trkpt lat="40.8320983" lon="14.0930967"><ele>34.0</ele><time>2026-04-09T14:37:27.684Z</time></trkpt><trkpt lat="40.8321317" lon="14.0931833"><ele>34.0</ele><time>2026-04-09T14:37:28.685Z</time></trkpt><trkpt lat="40.8321617" lon="14.0932667"><ele>33.99999999999999</ele><time>2026-04-09T14:37:29.685Z</time></trkpt><trkpt lat="40.8321917" lon="14.0933467"><ele>34.0</ele><time>2026-04-09T14:37:30.685Z</time></trkpt><trkpt lat="40.832225" lon="14.0934267"><ele>32.42857142857142</ele><time>2026-04-09T14:37:31.685Z</time></trkpt><trkpt lat="40.8322617" lon="14.09351"><ele>30.857142857142854</ele><time>2026-04-09T14:37:32.685Z</time></trkpt><trkpt lat="40.83229" lon="14.0935933"><ele>29.285714285714285</ele><time>2026-04-09T14:37:33.685Z</time></trkpt><trkpt lat="40.832315" lon="14.0936767"><ele>27.71428571428571</ele><time>2026-04-09T14:37:34.685Z</time></trkpt><trkpt lat="40.83235" lon="14.09376"><ele>26.14285714285714</ele><time>2026-04-09T14:37:35.685Z</time></trkpt><trkpt lat="40.8323783" lon="14.0938383"><ele>24.571428571428573</ele><time>2026-04-09T14:37:36.686Z</time></trkpt><trkpt lat="40.8324083" lon="14.0939183"><ele>23.0</ele><time>2026-04-09T14:37:37.685Z</time></trkpt><trkpt lat="40.832435" lon="14.0939967"><ele>23.0</ele><time>2026-04-09T14:37:38.685Z</time></trkpt><trkpt lat="40.8324667" lon="14.0940783"><ele>23.0</ele><time>2026-04-09T14:37:39.685Z</time></trkpt><trkpt lat="40.8324967" lon="14.0941617"><ele>23.0</ele><time>2026-04-09T14:37:40.685Z</time></trkpt><trkpt lat="40.8325267" lon="14.094245"><ele>23.0</ele><time>2026-04-09T14:37:41.686Z</time></trkpt><trkpt lat="40.8325567" lon="14.0943283"><ele>23.0</ele><time>2026-04-09T14:37:42.685Z</time></trkpt><trkpt lat="40.83259" lon="14.09441"><ele>23.0</ele><time>2026-04-09T14:37:43.686Z</time></trkpt><trkpt lat="40.83262" lon="14.0944933"><ele>23.0</ele><time>2026-04-09T14:37:44.685Z</time></trkpt><trkpt lat="40.8326467" lon="14.094575"><ele>22.833333333333336</ele><time>2026-04-09T14:37:45.685Z</time></trkpt><trkpt lat="40.8326733" lon="14.0946533"><ele>22.666666666666668</ele><time>2026-04-09T14:37:46.685Z</time></trkpt><trkpt lat="40.8327033" lon="14.0947317"><ele>22.5</ele><time>2026-04-09T14:37:47.685Z</time></trkpt><trkpt lat="40.8327333" lon="14.0948083"><ele>22.333333333333332</ele><time>2026-04-09T14:37:48.685Z</time></trkpt><trkpt lat="40.832785" lon="14.0949567"><ele>22.166666666666664</ele><time>2026-04-09T14:37:50.685Z</time></trkpt><trkpt lat="40.83281" lon="14.0950367"><ele>22.0</ele><time>2026-04-09T14:37:51.685Z</time></trkpt><trkpt lat="40.8328367" lon="14.0951133"><ele>22.0</ele><time>2026-04-09T14:37:52.685Z</time></trkpt><trkpt lat="40.8328667" lon="14.09519"><ele>22.0</ele><time>2026-04-09T14:37:53.685Z</time></trkpt><trkpt lat="40.8328967" lon="14.0952733"><ele>22.0</ele><time>2026-04-09T14:37:54.686Z</time></trkpt><trkpt lat="40.8329233" lon="14.0953583"><ele>22.0</ele><time>2026-04-09T14:37:55.686Z</time></trkpt><trkpt lat="40.8329517" lon="14.0954467"><ele>22.0</ele><time>2026-04-09T14:37:56.685Z</time></trkpt><trkpt lat="40.8329833" lon="14.0955333"><ele>22.0</ele><time>2026-04-09T14:37:57.684Z</time></trkpt><trkpt lat="40.8330183" lon="14.0956167"><ele>22.0</ele><time>2026-04-09T14:37:58.685Z</time></trkpt><trkpt lat="40.8330517" lon="14.0957"><ele>21.42857142857143</ele><time>2026-04-09T14:37:59.685Z</time></trkpt><trkpt lat="40.8330833" lon="14.0957767"><ele>20.857142857142858</ele><time>2026-04-09T14:38:00.684Z</time></trkpt><trkpt lat="40.8331217" lon="14.0958567"><ele>20.285714285714285</ele><time>2026-04-09T14:38:01.684Z</time></trkpt><trkpt lat="40.83315" lon="14.0959367"><ele>19.714285714285715</ele><time>2026-04-09T14:38:02.684Z</time></trkpt><trkpt lat="40.83318" lon="14.0960217"><ele>19.142857142857142</ele><time>2026-04-09T14:38:03.684Z</time></trkpt><trkpt lat="40.83321" lon="14.096105"><ele>18.571428571428573</ele><time>2026-04-09T14:38:04.684Z</time></trkpt><trkpt lat="40.8332433" lon="14.0961867"><ele>18.0</ele><time>2026-04-09T14:38:05.685Z</time></trkpt><trkpt lat="40.8332783" lon="14.0962783"><ele>18.0</ele><time>2026-04-09T14:38:06.685Z</time></trkpt><trkpt lat="40.8333133" lon="14.0963683"><ele>18.0</ele><time>2026-04-09T14:38:07.685Z</time></trkpt><trkpt lat="40.8333517" lon="14.09646"><ele>18.0</ele><time>2026-04-09T14:38:08.685Z</time></trkpt><trkpt lat="40.833385" lon="14.09655"><ele>18.0</ele><time>2026-04-09T14:38:09.685Z</time></trkpt><trkpt lat="40.833415" lon="14.0966383"><ele>18.0</ele><time>2026-04-09T14:38:10.686Z</time></trkpt><trkpt lat="40.8334467" lon="14.096725"><ele>18.0</ele><time>2026-04-09T14:38:11.685Z</time></trkpt><trkpt lat="40.8334833" lon="14.0968083"><ele>17.833333333333332</ele><time>2026-04-09T14:38:12.685Z</time></trkpt><trkpt lat="40.8335233" lon="14.0968933"><ele>17.666666666666668</ele><time>2026-04-09T14:38:13.685Z</time></trkpt><trkpt lat="40.833555" lon="14.0969817"><ele>17.5</ele><time>2026-04-09T14:38:14.685Z</time></trkpt><trkpt lat="40.8335883" lon="14.0970717"><ele>17.333333333333336</ele><time>2026-04-09T14:38:15.684Z</time></trkpt><trkpt lat="40.8336183" lon="14.097165"><ele>17.166666666666668</ele><time>2026-04-09T14:38:16.684Z</time></trkpt><trkpt lat="40.8336517" lon="14.0972567"><ele>17.0</ele><time>2026-04-09T14:38:17.685Z</time></trkpt><trkpt lat="40.8336883" lon="14.097345"><ele>16.5</ele><time>2026-04-09T14:38:18.685Z</time></trkpt><trkpt lat="40.8337233" lon="14.097435"><ele>16.0</ele><time>2026-04-09T14:38:19.684Z</time></trkpt><trkpt lat="40.8337533" lon="14.0975283"><ele>15.5</ele><time>2026-04-09T14:38:20.684Z</time></trkpt><trkpt lat="40.8337867" lon="14.0976217"><ele>15.0</ele><time>2026-04-09T14:38:21.686Z</time></trkpt><trkpt lat="40.8338133" lon="14.0977183"><ele>14.500000000000002</ele><time>2026-04-09T14:38:22.684Z</time></trkpt><trkpt lat="40.83384" lon="14.0978167"><ele>14.0</ele><time>2026-04-09T14:38:23.684Z</time></trkpt><trkpt lat="40.8338683" lon="14.09791"><ele>14.000000000000002</ele><time>2026-04-09T14:38:24.684Z</time></trkpt><trkpt lat="40.83389" lon="14.097995"><ele>14.0</ele><time>2026-04-09T14:38:25.684Z</time></trkpt><trkpt lat="40.8339183" lon="14.0980783"><ele>14.0</ele><time>2026-04-09T14:38:26.685Z</time></trkpt><trkpt lat="40.8339567" lon="14.0981483"><ele>14.0</ele><time>2026-04-09T14:38:27.684Z</time></trkpt><trkpt lat="40.8340533" lon="14.0982433"><ele>14.000000000000002</ele><time>2026-04-09T14:38:29.685Z</time></trkpt><trkpt lat="40.83414" lon="14.0983417"><ele>14.0</ele><time>2026-04-09T14:38:31.684Z</time></trkpt><trkpt lat="40.8342267" lon="14.0984583"><ele>13.857142857142858</ele><time>2026-04-09T14:38:33.684Z</time></trkpt><trkpt lat="40.8342733" lon="14.0985217"><ele>13.714285714285715</ele><time>2026-04-09T14:38:34.686Z</time></trkpt><trkpt lat="40.8343283" lon="14.0985867"><ele>13.571428571428571</ele><time>2026-04-09T14:38:35.685Z</time></trkpt><trkpt lat="40.83438" lon="14.0986533"><ele>13.428571428571429</ele><time>2026-04-09T14:38:36.684Z</time></trkpt><trkpt lat="40.8344317" lon="14.0987267"><ele>13.285714285714286</ele><time>2026-04-09T14:38:37.688Z</time></trkpt><trkpt lat="40.834475" lon="14.0988083"><ele>13.142857142857142</ele><time>2026-04-09T14:38:38.684Z</time></trkpt><trkpt lat="40.834525" lon="14.09889"><ele>13.0</ele><time>2026-04-09T14:38:39.684Z</time></trkpt><trkpt lat="40.83458" lon="14.0989633"><ele>13.499999999999998</ele><time>2026-04-09T14:38:40.684Z</time></trkpt><trkpt lat="40.8346283" lon="14.0990417"><ele>14.0</ele><time>2026-04-09T14:38:41.686Z</time></trkpt><trkpt lat="40.8346733" lon="14.0991117"><ele>14.5</ele><time>2026-04-09T14:38:42.685Z</time></trkpt><trkpt lat="40.8347267" lon="14.0991733"><ele>15.0</ele><time>2026-04-09T14:38:43.684Z</time></trkpt><trkpt lat="40.8348033" lon="14.0992767"><ele>15.499999999999998</ele><time>2026-04-09T14:38:45.686Z</time></trkpt><trkpt lat="40.8348633" lon="14.09937"><ele>16.0</ele><time>2026-04-09T14:38:47.685Z</time></trkpt><trkpt lat="40.8349133" lon="14.0994917"><ele>16.666666666666664</ele><time>2026-04-09T14:38:49.685Z</time></trkpt><trkpt lat="40.834975" lon="14.0995867"><ele>17.333333333333332</ele><time>2026-04-09T14:38:51.688Z</time></trkpt><trkpt lat="40.8350267" lon="14.099685"><ele>18.0</ele><time>2026-04-09T14:38:53.685Z</time></trkpt><trkpt lat="40.835095" lon="14.0997617"><ele>18.666666666666668</ele><time>2026-04-09T14:38:55.684Z</time></trkpt><trkpt lat="40.8351567" lon="14.0998233"><ele>19.333333333333336</ele><time>2026-04-09T14:38:57.684Z</time></trkpt><trkpt lat="40.8352083" lon="14.0998883"><ele>20.0</ele><time>2026-04-09T14:38:59.684Z</time></trkpt><trkpt lat="40.8352533" lon="14.099955"><ele>20.714285714285715</ele><time>2026-04-09T14:39:01.685Z</time></trkpt><trkpt lat="40.835305" lon="14.1000117"><ele>21.42857142857143</ele><time>2026-04-09T14:39:03.684Z</time></trkpt><trkpt lat="40.8353433" lon="14.1000783"><ele>22.142857142857146</ele><time>2026-04-09T14:39:05.684Z</time></trkpt><trkpt lat="40.835385" lon="14.1001567"><ele>22.857142857142858</ele><time>2026-04-09T14:39:07.685Z</time></trkpt><trkpt lat="40.8354217" lon="14.1002317"><ele>23.571428571428573</ele><time>2026-04-09T14:39:09.687Z</time></trkpt><trkpt lat="40.8354683" lon="14.1003383"><ele>24.28571428571429</ele><time>2026-04-09T14:39:12.686Z</time></trkpt><trkpt lat="40.8354967" lon="14.1004167"><ele>25.0</ele><time>2026-04-09T14:39:14.688Z</time></trkpt><trkpt lat="40.8355167" lon="14.1005"><ele>25.000000000000004</ele><time>2026-04-09T14:39:16.688Z</time></trkpt><trkpt lat="40.8355417" lon="14.1005783"><ele>25.0</ele><time>2026-04-09T14:39:18.685Z</time></trkpt><trkpt lat="40.8355583" lon="14.1006933"><ele>25.0</ele><time>2026-04-09T14:39:21.684Z</time></trkpt><trkpt lat="40.8355817" lon="14.100815"><ele>25.0</ele><time>2026-04-09T14:39:24.686Z</time></trkpt><trkpt lat="40.8356083" lon="14.1009"><ele>25.000000000000004</ele><time>2026-04-09T14:39:26.684Z</time></trkpt><trkpt lat="40.8356017" lon="14.1009883"><ele>25.0</ele><time>2026-04-09T14:39:28.684Z</time></trkpt><trkpt lat="40.8356067" lon="14.1011133"><ele>25.571428571428573</ele><time>2026-04-09T14:39:31.685Z</time></trkpt><trkpt lat="40.8356167" lon="14.1011983"><ele>26.142857142857146</ele><time>2026-04-09T14:39:33.686Z</time></trkpt><trkpt lat="40.8356167" lon="14.1012967"><ele>26.714285714285715</ele><time>2026-04-09T14:39:35.687Z</time></trkpt><trkpt lat="40.8356117" lon="14.1014"><ele>27.28571428571429</ele><time>2026-04-09T14:39:37.685Z</time></trkpt><trkpt lat="40.8355867" lon="14.1014833"><ele>27.857142857142858</ele><time>2026-04-09T14:39:39.688Z</time></trkpt><trkpt lat="40.8355717" lon="14.1015683"><ele>28.428571428571434</ele><time>2026-04-09T14:39:41.685Z</time></trkpt><trkpt lat="40.835555" lon="14.1016583"><ele>29.000000000000004</ele><time>2026-04-09T14:39:43.686Z</time></trkpt><trkpt lat="40.8355383" lon="14.1017417"><ele>29.571428571428577</ele><time>2026-04-09T14:39:45.684Z</time></trkpt><trkpt lat="40.8355217" lon="14.10183"><ele>30.142857142857146</ele><time>2026-04-09T14:39:47.685Z</time></trkpt><trkpt lat="40.8355017" lon="14.1019217"><ele>30.714285714285715</ele><time>2026-04-09T14:39:49.685Z</time></trkpt><trkpt lat="40.8354767" lon="14.1020083"><ele>31.28571428571429</ele><time>2026-04-09T14:39:51.686Z</time></trkpt><trkpt lat="40.8354667" lon="14.1021"><ele>31.85714285714286</ele><time>2026-04-09T14:39:53.685Z</time></trkpt><trkpt lat="40.8354583" lon="14.1021883"><ele>32.42857142857143</ele><time>2026-04-09T14:39:55.685Z</time></trkpt><trkpt lat="40.835435" lon="14.1022817"><ele>33.0</ele><time>2026-04-09T14:39:57.685Z</time></trkpt><trkpt lat="40.8354317" lon="14.1023817"><ele>33.285714285714285</ele><time>2026-04-09T14:39:59.685Z</time></trkpt><trkpt lat="40.8354317" lon="14.1024817"><ele>33.57142857142857</ele><time>2026-04-09T14:40:01.685Z</time></trkpt><trkpt lat="40.835415" lon="14.1025783"><ele>33.85714285714286</ele><time>2026-04-09T14:40:03.686Z</time></trkpt><trkpt lat="40.835405" lon="14.1026817"><ele>34.14285714285714</ele><time>2026-04-09T14:40:05.686Z</time></trkpt><trkpt lat="40.8353917" lon="14.1027767"><ele>34.42857142857143</ele><time>2026-04-09T14:40:07.686Z</time></trkpt><trkpt lat="40.83538" lon="14.10287"><ele>34.714285714285715</ele><time>2026-04-09T14:40:09.685Z</time></trkpt><trkpt lat="40.8353667" lon="14.102965"><ele>35.0</ele><time>2026-04-09T14:40:11.685Z</time></trkpt><trkpt lat="40.8353533" lon="14.10306"><ele>35.0</ele><time>2026-04-09T14:40:13.686Z</time></trkpt><trkpt lat="40.8353533" lon="14.10316"><ele>35.0</ele><time>2026-04-09T14:40:15.685Z</time></trkpt><trkpt lat="40.83535" lon="14.1032567"><ele>35.0</ele><time>2026-04-09T14:40:17.685Z</time></trkpt><trkpt lat="40.8353383" lon="14.1033567"><ele>35.0</ele><time>2026-04-09T14:40:19.685Z</time></trkpt><trkpt lat="40.8353217" lon="14.1034583"><ele>35.0</ele><time>2026-04-09T14:40:21.685Z</time></trkpt><trkpt lat="40.8353083" lon="14.103565"><ele>35.0</ele><time>2026-04-09T14:40:23.685Z</time></trkpt><trkpt lat="40.835285" lon="14.10367"><ele>35.33333333333333</ele><time>2026-04-09T14:40:25.684Z</time></trkpt><trkpt lat="40.83527" lon="14.1037783"><ele>35.666666666666664</ele><time>2026-04-09T14:40:27.685Z</time></trkpt><trkpt lat="40.8352533" lon="14.1038817"><ele>36.0</ele><time>2026-04-09T14:40:29.685Z</time></trkpt><trkpt lat="40.8352283" lon="14.1039817"><ele>36.333333333333336</ele><time>2026-04-09T14:40:31.688Z</time></trkpt><trkpt lat="40.8352083" lon="14.1040817"><ele>36.66666666666667</ele><time>2026-04-09T14:40:33.685Z</time></trkpt><trkpt lat="40.8351967" lon="14.104185"><ele>37.0</ele><time>2026-04-09T14:40:35.685Z</time></trkpt><trkpt lat="40.8351817" lon="14.104285"><ele>37.42857142857143</ele><time>2026-04-09T14:40:37.684Z</time></trkpt><trkpt lat="40.8351617" lon="14.10438"><ele>37.857142857142854</ele><time>2026-04-09T14:40:39.684Z</time></trkpt><trkpt lat="40.8351467" lon="14.1044733"><ele>38.285714285714285</ele><time>2026-04-09T14:40:41.686Z</time></trkpt><trkpt lat="40.83513" lon="14.1045717"><ele>38.714285714285715</ele><time>2026-04-09T14:40:43.684Z</time></trkpt><trkpt lat="40.8351167" lon="14.1046683"><ele>39.142857142857146</ele><time>2026-04-09T14:40:45.685Z</time></trkpt><trkpt lat="40.835115" lon="14.10476"><ele>39.57142857142857</ele><time>2026-04-09T14:40:47.685Z</time></trkpt><trkpt lat="40.83512" lon="14.104855"><ele>40.0</ele><time>2026-04-09T14:40:49.685Z</time></trkpt><trkpt lat="40.8351867" lon="14.10492"><ele>40.0</ele><time>2026-04-09T14:40:52.685Z</time></trkpt><trkpt lat="40.8352433" lon="14.10488"><ele>40.0</ele><time>2026-04-09T14:40:54.685Z</time></trkpt><trkpt lat="40.8352933" lon="14.1047867"><ele>40.0</ele><time>2026-04-09T14:40:56.684Z</time></trkpt><trkpt lat="40.835355" lon="14.1046783"><ele>40.0</ele><time>2026-04-09T14:40:58.684Z</time></trkpt><trkpt lat="40.835405" lon="14.1045717"><ele>40.0</ele><time>2026-04-09T14:41:00.685Z</time></trkpt><trkpt lat="40.8354667" lon="14.10447"><ele>40.0</ele><time>2026-04-09T14:41:02.689Z</time></trkpt><trkpt lat="40.8355267" lon="14.1043633"><ele>40.0</ele><time>2026-04-09T14:41:04.685Z</time></trkpt><trkpt lat="40.8355933" lon="14.104255"><ele>40.0</ele><time>2026-04-09T14:41:06.687Z</time></trkpt><trkpt lat="40.835655" lon="14.10415"><ele>40.0</ele><time>2026-04-09T14:41:08.685Z</time></trkpt><trkpt lat="40.8357133" lon="14.10405"><ele>40.0</ele><time>2026-04-09T14:41:10.685Z</time></trkpt><trkpt lat="40.835795" lon="14.1039683"><ele>40.0</ele><time>2026-04-09T14:41:12.686Z</time></trkpt><trkpt lat="40.8358767" lon="14.103885"><ele>39.833333333333336</ele><time>2026-04-09T14:41:14.686Z</time></trkpt><trkpt lat="40.8359633" lon="14.1038067"><ele>39.66666666666667</ele><time>2026-04-09T14:41:16.686Z</time></trkpt><trkpt lat="40.836035" lon="14.1037417"><ele>39.5</ele><time>2026-04-09T14:41:18.685Z</time></trkpt><trkpt lat="40.8361033" lon="14.1036717"><ele>39.333333333333336</ele><time>2026-04-09T14:41:21.687Z</time></trkpt><trkpt lat="40.8360333" lon="14.1036733"><ele>39.166666666666664</ele><time>2026-04-09T14:41:27.686Z</time></trkpt><trkpt lat="40.8359683" lon="14.1037467"><ele>39.0</ele><time>2026-04-09T14:41:29.685Z</time></trkpt><trkpt lat="40.8358967" lon="14.1038233"><ele>39.2</ele><time>2026-04-09T14:41:31.686Z</time></trkpt><trkpt lat="40.8358267" lon="14.1038883"><ele>39.4</ele><time>2026-04-09T14:41:33.686Z</time></trkpt><trkpt lat="40.835755" lon="14.103965"><ele>39.6</ele><time>2026-04-09T14:41:35.685Z</time></trkpt><trkpt lat="40.8356833" lon="14.1040483"><ele>39.8</ele><time>2026-04-09T14:41:37.687Z</time></trkpt><trkpt lat="40.8356117" lon="14.1041433"><ele>40.0</ele><time>2026-04-09T14:41:39.687Z</time></trkpt><trkpt lat="40.8355467" lon="14.10424"><ele>40.0</ele><time>2026-04-09T14:41:41.688Z</time></trkpt><trkpt lat="40.835485" lon="14.1043433"><ele>40.0</ele><time>2026-04-09T14:41:43.687Z</time></trkpt><trkpt lat="40.8354267" lon="14.1044417"><ele>40.0</ele><time>2026-04-09T14:41:45.686Z</time></trkpt><trkpt lat="40.83537" lon="14.1045467"><ele>40.0</ele><time>2026-04-09T14:41:47.686Z</time></trkpt><trkpt lat="40.8353133" lon="14.104655"><ele>40.0</ele><time>2026-04-09T14:41:49.684Z</time></trkpt><trkpt lat="40.8352483" lon="14.104775"><ele>40.0</ele><time>2026-04-09T14:41:51.684Z</time></trkpt><trkpt lat="40.8352117" lon="14.1048433"><ele>40.0</ele><time>2026-04-09T14:41:52.685Z</time></trkpt><trkpt lat="40.83518" lon="14.1049167"><ele>40.0</ele><time>2026-04-09T14:41:53.685Z</time></trkpt><trkpt lat="40.83513" lon="14.10507"><ele>40.0</ele><time>2026-04-09T14:41:55.685Z</time></trkpt><trkpt lat="40.835105" lon="14.10515"><ele>40.0</ele><time>2026-04-09T14:41:56.684Z</time></trkpt><trkpt lat="40.8350883" lon="14.1052367"><ele>40.0</ele><time>2026-04-09T14:41:57.684Z</time></trkpt><trkpt lat="40.8350733" lon="14.105325"><ele>39.285714285714285</ele><time>2026-04-09T14:41:58.684Z</time></trkpt><trkpt lat="40.8350567" lon="14.1054117"><ele>38.57142857142857</ele><time>2026-04-09T14:41:59.686Z</time></trkpt><trkpt lat="40.83504" lon="14.1055"><ele>37.85714285714286</ele><time>2026-04-09T14:42:00.684Z</time></trkpt><trkpt lat="40.8350267" lon="14.1055867"><ele>37.14285714285714</ele><time>2026-04-09T14:42:01.685Z</time></trkpt><trkpt lat="40.8350167" lon="14.1056717"><ele>36.42857142857143</ele><time>2026-04-09T14:42:02.687Z</time></trkpt><trkpt lat="40.8350067" lon="14.1057567"><ele>35.714285714285715</ele><time>2026-04-09T14:42:03.684Z</time></trkpt><trkpt lat="40.8349933" lon="14.10584"><ele>35.0</ele><time>2026-04-09T14:42:04.685Z</time></trkpt><trkpt lat="40.83498" lon="14.1059233"><ele>35.0</ele><time>2026-04-09T14:42:05.684Z</time></trkpt><trkpt lat="40.8349717" lon="14.1060117"><ele>35.0</ele><time>2026-04-09T14:42:06.684Z</time></trkpt><trkpt lat="40.834965" lon="14.1060967"><ele>35.0</ele><time>2026-04-09T14:42:07.685Z</time></trkpt><trkpt lat="40.8349583" lon="14.1061817"><ele>35.0</ele><time>2026-04-09T14:42:08.685Z</time></trkpt><trkpt lat="40.8349367" lon="14.1063483"><ele>35.0</ele><time>2026-04-09T14:42:10.684Z</time></trkpt><trkpt lat="40.8349317" lon="14.1064317"><ele>35.0</ele><time>2026-04-09T14:42:11.684Z</time></trkpt><trkpt lat="40.8349233" lon="14.1065167"><ele>35.57142857142857</ele><time>2026-04-09T14:42:12.684Z</time></trkpt><trkpt lat="40.834915" lon="14.1066"><ele>36.14285714285714</ele><time>2026-04-09T14:42:13.684Z</time></trkpt><trkpt lat="40.8349083" lon="14.1066833"><ele>36.714285714285715</ele><time>2026-04-09T14:42:14.684Z</time></trkpt><trkpt lat="40.8348933" lon="14.10677"><ele>37.285714285714285</ele><time>2026-04-09T14:42:15.684Z</time></trkpt><trkpt lat="40.8348833" lon="14.106855"><ele>37.857142857142854</ele><time>2026-04-09T14:42:16.684Z</time></trkpt><trkpt lat="40.83487" lon="14.1069383"><ele>38.42857142857143</ele><time>2026-04-09T14:42:17.684Z</time></trkpt><trkpt lat="40.834855" lon="14.107025"><ele>39.0</ele><time>2026-04-09T14:42:18.686Z</time></trkpt><trkpt lat="40.8348433" lon="14.10711"><ele>39.0</ele><time>2026-04-09T14:42:19.685Z</time></trkpt><trkpt lat="40.8348317" lon="14.1071983"><ele>39.0</ele><time>2026-04-09T14:42:20.684Z</time></trkpt><trkpt lat="40.8348183" lon="14.1072817"><ele>39.0</ele><time>2026-04-09T14:42:21.684Z</time></trkpt><trkpt lat="40.834785" lon="14.1075317"><ele>39.0</ele><time>2026-04-09T14:42:24.685Z</time></trkpt><trkpt lat="40.834765" lon="14.10769"><ele>39.0</ele><time>2026-04-09T14:42:26.688Z</time></trkpt><trkpt lat="40.8347433" lon="14.1078483"><ele>39.4</ele><time>2026-04-09T14:42:28.685Z</time></trkpt><trkpt lat="40.8347117" lon="14.10799"><ele>39.8</ele><time>2026-04-09T14:42:30.684Z</time></trkpt><trkpt lat="40.8347" lon="14.1080783"><ele>40.199999999999996</ele><time>2026-04-09T14:42:31.685Z</time></trkpt><trkpt lat="40.8346867" lon="14.1081633"><ele>40.599999999999994</ele><time>2026-04-09T14:42:32.684Z</time></trkpt><trkpt lat="40.8346683" lon="14.1083183"><ele>41.0</ele><time>2026-04-09T14:42:34.684Z</time></trkpt><trkpt lat="40.8346317" lon="14.1084667"><ele>42.25</ele><time>2026-04-09T14:42:36.684Z</time></trkpt><trkpt lat="40.834595" lon="14.1086117"><ele>43.5</ele><time>2026-04-09T14:42:38.684Z</time></trkpt><trkpt lat="40.8345483" lon="14.1087517"><ele>44.75</ele><time>2026-04-09T14:42:40.684Z</time></trkpt><trkpt lat="40.8345183" lon="14.1089033"><ele>46.0</ele><time>2026-04-09T14:42:42.684Z</time></trkpt><trkpt lat="40.8344767" lon="14.1090383"><ele>46.4</ele><time>2026-04-09T14:42:44.685Z</time></trkpt><trkpt lat="40.8344183" lon="14.1091633"><ele>46.8</ele><time>2026-04-09T14:42:46.684Z</time></trkpt><trkpt lat="40.8343633" lon="14.10928"><ele>47.199999999999996</ele><time>2026-04-09T14:42:48.685Z</time></trkpt><trkpt lat="40.83431" lon="14.10939"><ele>47.599999999999994</ele><time>2026-04-09T14:42:50.684Z</time></trkpt><trkpt lat="40.834265" lon="14.1094933"><ele>48.0</ele><time>2026-04-09T14:42:52.685Z</time></trkpt><trkpt lat="40.8343283" lon="14.1094417"><ele>48.0</ele><time>2026-04-09T14:42:57.684Z</time></trkpt><trkpt lat="40.8343933" lon="14.109325"><ele>48.0</ele><time>2026-04-09T14:42:59.685Z</time></trkpt><trkpt lat="40.8344567" lon="14.109195"><ele>48.0</ele><time>2026-04-09T14:43:01.685Z</time></trkpt><trkpt lat="40.8345117" lon="14.10906"><ele>48.0</ele><time>2026-04-09T14:43:03.684Z</time></trkpt><trkpt lat="40.8345617" lon="14.1089217"><ele>47.599999999999994</ele><time>2026-04-09T14:43:05.685Z</time></trkpt><trkpt lat="40.83461" lon="14.1087783"><ele>47.199999999999996</ele><time>2026-04-09T14:43:07.685Z</time></trkpt><trkpt lat="40.8346717" lon="14.108655"><ele>46.8</ele><time>2026-04-09T14:43:09.685Z</time></trkpt><trkpt lat="40.8347567" lon="14.1085917"><ele>46.4</ele><time>2026-04-09T14:43:11.684Z</time></trkpt><trkpt lat="40.83485" lon="14.1085767"><ele>46.0</ele><time>2026-04-09T14:43:13.685Z</time></trkpt><trkpt lat="40.8349483" lon="14.108605"><ele>46.0</ele><time>2026-04-09T14:43:15.683Z</time></trkpt><trkpt lat="40.8350483" lon="14.108645"><ele>46.0</ele><time>2026-04-09T14:43:17.685Z</time></trkpt><trkpt lat="40.8351433" lon="14.1086717"><ele>46.0</ele><time>2026-04-09T14:43:19.685Z</time></trkpt><trkpt lat="40.835235" lon="14.1087083"><ele>46.0</ele><time>2026-04-09T14:43:21.684Z</time></trkpt><trkpt lat="40.8353233" lon="14.1087483"><ele>46.0</ele><time>2026-04-09T14:43:23.685Z</time></trkpt><trkpt lat="40.83541" lon="14.1087817"><ele>47.599999999999994</ele><time>2026-04-09T14:43:25.686Z</time></trkpt><trkpt lat="40.8355" lon="14.1088167"><ele>49.2</ele><time>2026-04-09T14:43:27.684Z</time></trkpt><trkpt lat="40.8356" lon="14.1088483"><ele>50.800000000000004</ele><time>2026-04-09T14:43:29.684Z</time></trkpt><trkpt lat="40.8356983" lon="14.1088817"><ele>52.400000000000006</ele><time>2026-04-09T14:43:31.685Z</time></trkpt><trkpt lat="40.8358083" lon="14.1089333"><ele>54.0</ele><time>2026-04-09T14:43:33.684Z</time></trkpt><trkpt lat="40.8359183" lon="14.1089717"><ele>54.400000000000006</ele><time>2026-04-09T14:43:35.684Z</time></trkpt><trkpt lat="40.836025" lon="14.109015"><ele>54.800000000000004</ele><time>2026-04-09T14:43:37.685Z</time></trkpt><trkpt lat="40.8361233" lon="14.109055"><ele>55.199999999999996</ele><time>2026-04-09T14:43:39.684Z</time></trkpt><trkpt lat="40.8362183" lon="14.1090817"><ele>55.599999999999994</ele><time>2026-04-09T14:43:41.685Z</time></trkpt><trkpt lat="40.8363167" lon="14.109115"><ele>56.0</ele><time>2026-04-09T14:43:43.685Z</time></trkpt><trkpt lat="40.8364133" lon="14.1091583"><ele>56.0</ele><time>2026-04-09T14:43:45.684Z</time></trkpt><trkpt lat="40.83652" lon="14.1092017"><ele>55.99999999999999</ele><time>2026-04-09T14:43:47.684Z</time></trkpt><trkpt lat="40.836625" lon="14.1092333"><ele>55.99999999999999</ele><time>2026-04-09T14:43:49.685Z</time></trkpt><trkpt lat="40.8367267" lon="14.10928"><ele>56.0</ele><time>2026-04-09T14:43:51.685Z</time></trkpt><trkpt lat="40.83682" lon="14.109305"><ele>56.0</ele><time>2026-04-09T14:43:53.691Z</time></trkpt><trkpt lat="40.8369183" lon="14.109345"><ele>56.0</ele><time>2026-04-09T14:43:55.686Z</time></trkpt><trkpt lat="40.8370083" lon="14.1093667"><ele>55.99999999999999</ele><time>2026-04-09T14:43:57.683Z</time></trkpt><trkpt lat="40.8370967" lon="14.10938"><ele>55.99999999999999</ele><time>2026-04-09T14:43:59.684Z</time></trkpt><trkpt lat="40.8371883" lon="14.1094017"><ele>56.0</ele><time>2026-04-09T14:44:01.685Z</time></trkpt><trkpt lat="40.83728" lon="14.109415"><ele>56.0</ele><time>2026-04-09T14:44:03.686Z</time></trkpt><trkpt lat="40.837365" lon="14.1094383"><ele>56.0</ele><time>2026-04-09T14:44:05.685Z</time></trkpt><trkpt lat="40.83744" lon="14.1095083"><ele>55.99999999999999</ele><time>2026-04-09T14:44:07.685Z</time></trkpt><trkpt lat="40.8375" lon="14.1096117"><ele>55.99999999999999</ele><time>2026-04-09T14:44:09.684Z</time></trkpt><trkpt lat="40.8375417" lon="14.109735"><ele>56.0</ele><time>2026-04-09T14:44:11.685Z</time></trkpt><trkpt lat="40.8375517" lon="14.1098517"><ele>56.0</ele><time>2026-04-09T14:44:13.685Z</time></trkpt><trkpt lat="40.837535" lon="14.1099533"><ele>56.285714285714285</ele><time>2026-04-09T14:44:15.684Z</time></trkpt><trkpt lat="40.8374933" lon="14.1100333"><ele>56.57142857142857</ele><time>2026-04-09T14:44:17.685Z</time></trkpt><trkpt lat="40.8374483" lon="14.1101033"><ele>56.85714285714286</ele><time>2026-04-09T14:44:19.685Z</time></trkpt><trkpt lat="40.837405" lon="14.1101767"><ele>57.142857142857146</ele><time>2026-04-09T14:44:21.685Z</time></trkpt><trkpt lat="40.8373683" lon="14.110255"><ele>57.42857142857143</ele><time>2026-04-09T14:44:23.685Z</time></trkpt><trkpt lat="40.837335" lon="14.1103367"><ele>57.71428571428572</ele><time>2026-04-09T14:44:25.685Z</time></trkpt><trkpt lat="40.83731" lon="14.110435"><ele>58.00000000000001</ele><time>2026-04-09T14:44:27.684Z</time></trkpt><trkpt lat="40.837285" lon="14.110535"><ele>57.99999999999999</ele><time>2026-04-09T14:44:29.686Z</time></trkpt><trkpt lat="40.8372633" lon="14.1106367"><ele>58.0</ele><time>2026-04-09T14:44:31.685Z</time></trkpt><trkpt lat="40.8372283" lon="14.11074"><ele>58.0</ele><time>2026-04-09T14:44:33.685Z</time></trkpt><trkpt lat="40.8372067" lon="14.1108433"><ele>58.0</ele><time>2026-04-09T14:44:35.685Z</time></trkpt><trkpt lat="40.83719" lon="14.11095"><ele>57.99999999999999</ele><time>2026-04-09T14:44:37.685Z</time></trkpt><trkpt lat="40.8371633" lon="14.1110517"><ele>58.0</ele><time>2026-04-09T14:44:39.685Z</time></trkpt><trkpt lat="40.8371367" lon="14.1111567"><ele>58.83333333333333</ele><time>2026-04-09T14:44:41.685Z</time></trkpt><trkpt lat="40.83712" lon="14.1112667"><ele>59.666666666666664</ele><time>2026-04-09T14:44:43.685Z</time></trkpt><trkpt lat="40.8370983" lon="14.1113783"><ele>60.5</ele><time>2026-04-09T14:44:45.685Z</time></trkpt><trkpt lat="40.8370783" lon="14.11149"><ele>61.33333333333333</ele><time>2026-04-09T14:44:47.685Z</time></trkpt><trkpt lat="40.8370583" lon="14.1116033"><ele>62.166666666666664</ele><time>2026-04-09T14:44:49.686Z</time></trkpt><trkpt lat="40.8370317" lon="14.11172"><ele>63.0</ele><time>2026-04-09T14:44:51.686Z</time></trkpt><trkpt lat="40.8370067" lon="14.1118417"><ele>63.2</ele><time>2026-04-09T14:44:53.685Z</time></trkpt><trkpt lat="40.83699" lon="14.11197"><ele>63.4</ele><time>2026-04-09T14:44:55.685Z</time></trkpt><trkpt lat="40.8369917" lon="14.112085"><ele>63.60000000000001</ele><time>2026-04-09T14:44:57.686Z</time></trkpt><trkpt lat="40.8370267" lon="14.1121983"><ele>63.800000000000004</ele><time>2026-04-09T14:44:59.685Z</time></trkpt><trkpt lat="40.8370833" lon="14.112285"><ele>64.0</ele><time>2026-04-09T14:45:01.686Z</time></trkpt><trkpt lat="40.8371617" lon="14.1123567"><ele>64.0</ele><time>2026-04-09T14:45:03.684Z</time></trkpt><trkpt lat="40.83725" lon="14.112405"><ele>64.0</ele><time>2026-04-09T14:45:05.685Z</time></trkpt><trkpt lat="40.8373433" lon="14.112455"><ele>64.0</ele><time>2026-04-09T14:45:07.685Z</time></trkpt><trkpt lat="40.8374383" lon="14.1125167"><ele>64.0</ele><time>2026-04-09T14:45:09.685Z</time></trkpt><trkpt lat="40.8375333" lon="14.1125733"><ele>64.0</ele><time>2026-04-09T14:45:11.685Z</time></trkpt><trkpt lat="40.8376333" lon="14.1126483"><ele>64.2</ele><time>2026-04-09T14:45:13.685Z</time></trkpt><trkpt lat="40.8377267" lon="14.1127367"><ele>64.4</ele><time>2026-04-09T14:45:15.687Z</time></trkpt><trkpt lat="40.83783" lon="14.1128233"><ele>64.6</ele><time>2026-04-09T14:45:17.685Z</time></trkpt><trkpt lat="40.8379383" lon="14.112915"><ele>64.8</ele><time>2026-04-09T14:45:19.686Z</time></trkpt><trkpt lat="40.83799" lon="14.112965"><ele>65.0</ele><time>2026-04-09T14:45:20.686Z</time></trkpt><trkpt lat="40.8380433" lon="14.11301"><ele>65.0</ele><time>2026-04-09T14:45:21.685Z</time></trkpt><trkpt lat="40.8381483" lon="14.113085"><ele>65.0</ele><time>2026-04-09T14:45:23.685Z</time></trkpt><trkpt lat="40.838255" lon="14.113155"><ele>65.0</ele><time>2026-04-09T14:45:25.686Z</time></trkpt><trkpt lat="40.838355" lon="14.113225"><ele>65.0</ele><time>2026-04-09T14:45:27.685Z</time></trkpt><trkpt lat="40.8384483" lon="14.1132383"><ele>65.0</ele><time>2026-04-09T14:45:29.685Z</time></trkpt><trkpt lat="40.8385367" lon="14.11317"><ele>65.0</ele><time>2026-04-09T14:45:31.686Z</time></trkpt><trkpt lat="40.83858" lon="14.113035"><ele>65.0</ele><time>2026-04-09T14:45:33.686Z</time></trkpt><trkpt lat="40.8385783" lon="14.1128717"><ele>65.0</ele><time>2026-04-09T14:45:35.686Z</time></trkpt><trkpt lat="40.8385483" lon="14.1127767"><ele>65.0</ele><time>2026-04-09T14:45:36.684Z</time></trkpt><trkpt lat="40.83852" lon="14.112685"><ele>65.0</ele><time>2026-04-09T14:45:37.685Z</time></trkpt><trkpt lat="40.838495" lon="14.1125917"><ele>65.0</ele><time>2026-04-09T14:45:38.685Z</time></trkpt><trkpt lat="40.8384767" lon="14.112495"><ele>65.0</ele><time>2026-04-09T14:45:39.685Z</time></trkpt><trkpt lat="40.8384683" lon="14.112395"><ele>65.0</ele><time>2026-04-09T14:45:40.685Z</time></trkpt><trkpt lat="40.8384683" lon="14.11228"><ele>65.0</ele><time>2026-04-09T14:45:41.685Z</time></trkpt><trkpt lat="40.83849" lon="14.1121833"><ele>65.0</ele><time>2026-04-09T14:45:42.685Z</time></trkpt><trkpt lat="40.8385267" lon="14.112095"><ele>65.0</ele><time>2026-04-09T14:45:43.685Z</time></trkpt><trkpt lat="40.8385733" lon="14.11201"><ele>64.83333333333334</ele><time>2026-04-09T14:45:44.685Z</time></trkpt><trkpt lat="40.838625" lon="14.111925"><ele>64.66666666666667</ele><time>2026-04-09T14:45:45.685Z</time></trkpt><trkpt lat="40.8386817" lon="14.1118467"><ele>64.5</ele><time>2026-04-09T14:45:46.686Z</time></trkpt><trkpt lat="40.8387383" lon="14.1117733"><ele>64.33333333333333</ele><time>2026-04-09T14:45:47.685Z</time></trkpt><trkpt lat="40.838805" lon="14.11172"><ele>64.16666666666666</ele><time>2026-04-09T14:45:48.684Z</time></trkpt><trkpt lat="40.83888" lon="14.1116883"><ele>64.0</ele><time>2026-04-09T14:45:49.684Z</time></trkpt><trkpt lat="40.8389467" lon="14.1116867"><ele>63.99999999999999</ele><time>2026-04-09T14:45:50.684Z</time></trkpt><trkpt lat="40.8390167" lon="14.1117033"><ele>64.0</ele><time>2026-04-09T14:45:51.685Z</time></trkpt><trkpt lat="40.83909" lon="14.1117183"><ele>64.0</ele><time>2026-04-09T14:45:52.684Z</time></trkpt><trkpt lat="40.8392083" lon="14.1117533"><ele>64.0</ele><time>2026-04-09T14:45:54.684Z</time></trkpt><trkpt lat="40.8392733" lon="14.111775"><ele>63.99999999999999</ele><time>2026-04-09T14:45:55.684Z</time></trkpt><trkpt lat="40.83934" lon="14.1118"><ele>64.0</ele><time>2026-04-09T14:45:56.685Z</time></trkpt><trkpt lat="40.8394" lon="14.1118283"><ele>66.2</ele><time>2026-04-09T14:45:57.684Z</time></trkpt><trkpt lat="40.8394617" lon="14.11186"><ele>68.4</ele><time>2026-04-09T14:45:58.684Z</time></trkpt><trkpt lat="40.839565" lon="14.1119317"><ele>70.6</ele><time>2026-04-09T14:46:00.684Z</time></trkpt><trkpt lat="40.8396683" lon="14.1120167"><ele>72.8</ele><time>2026-04-09T14:46:02.685Z</time></trkpt><trkpt lat="40.8397517" lon="14.11216"><ele>75.0</ele><time>2026-04-09T14:46:04.685Z</time></trkpt><trkpt lat="40.8397833" lon="14.1122517"><ele>74.99999999999999</ele><time>2026-04-09T14:46:05.685Z</time></trkpt><trkpt lat="40.8398183" lon="14.11233"><ele>75.0</ele><time>2026-04-09T14:46:06.684Z</time></trkpt><trkpt lat="40.83986" lon="14.1124167"><ele>75.0</ele><time>2026-04-09T14:46:07.685Z</time></trkpt><trkpt lat="40.83991" lon="14.1125"><ele>75.0</ele><time>2026-04-09T14:46:08.685Z</time></trkpt><trkpt lat="40.8399467" lon="14.1125783"><ele>75.0</ele><time>2026-04-09T14:46:09.684Z</time></trkpt><trkpt lat="40.8399783" lon="14.1126617"><ele>74.99999999999999</ele><time>2026-04-09T14:46:10.684Z</time></trkpt><trkpt lat="40.8400133" lon="14.11274"><ele>75.0</ele><time>2026-04-09T14:46:11.684Z</time></trkpt><trkpt lat="40.840045" lon="14.1128183"><ele>74.33333333333333</ele><time>2026-04-09T14:46:12.684Z</time></trkpt><trkpt lat="40.8400683" lon="14.1129"><ele>73.66666666666667</ele><time>2026-04-09T14:46:13.684Z</time></trkpt><trkpt lat="40.8400867" lon="14.112985"><ele>73.0</ele><time>2026-04-09T14:46:14.684Z</time></trkpt><trkpt lat="40.8400933" lon="14.11307"><ele>72.33333333333334</ele><time>2026-04-09T14:46:15.684Z</time></trkpt><trkpt lat="40.8400567" lon="14.11318"><ele>71.66666666666667</ele><time>2026-04-09T14:46:17.685Z</time></trkpt><trkpt lat="40.8399733" lon="14.1132317"><ele>71.0</ele><time>2026-04-09T14:46:19.685Z</time></trkpt><trkpt lat="40.8399217" lon="14.113305"><ele>71.0</ele><time>2026-04-09T14:46:21.685Z</time></trkpt><trkpt lat="40.8399033" lon="14.1134117"><ele>71.0</ele><time>2026-04-09T14:46:23.684Z</time></trkpt><trkpt lat="40.839915" lon="14.113525"><ele>71.0</ele><time>2026-04-09T14:46:25.684Z</time></trkpt><trkpt lat="40.8399433" lon="14.11361"><ele>71.0</ele><time>2026-04-09T14:46:27.684Z</time></trkpt><trkpt lat="40.840005" lon="14.1137067"><ele>71.0</ele><time>2026-04-09T14:46:29.684Z</time></trkpt><trkpt lat="40.8400383" lon="14.1138317"><ele>71.0</ele><time>2026-04-09T14:46:31.684Z</time></trkpt><trkpt lat="40.8400783" lon="14.1139767"><ele>71.39999999999999</ele><time>2026-04-09T14:46:33.687Z</time></trkpt><trkpt lat="40.8401233" lon="14.11412"><ele>71.8</ele><time>2026-04-09T14:46:35.684Z</time></trkpt><trkpt lat="40.8401633" lon="14.1142583"><ele>72.19999999999999</ele><time>2026-04-09T14:46:37.684Z</time></trkpt><trkpt lat="40.8402133" lon="14.1143733"><ele>72.6</ele><time>2026-04-09T14:46:39.684Z</time></trkpt><trkpt lat="40.84026" lon="14.1144733"><ele>73.0</ele><time>2026-04-09T14:46:41.685Z</time></trkpt><trkpt lat="40.8403167" lon="14.1145667"><ele>73.42857142857143</ele><time>2026-04-09T14:46:43.685Z</time></trkpt><trkpt lat="40.8403633" lon="14.114655"><ele>73.85714285714286</ele><time>2026-04-09T14:46:45.685Z</time></trkpt><trkpt lat="40.8404133" lon="14.11474"><ele>74.28571428571428</ele><time>2026-04-09T14:46:47.686Z</time></trkpt><trkpt lat="40.8404517" lon="14.11482"><ele>74.71428571428572</ele><time>2026-04-09T14:46:49.685Z</time></trkpt><trkpt lat="40.8404983" lon="14.1148967"><ele>75.14285714285715</ele><time>2026-04-09T14:46:51.684Z</time></trkpt><trkpt lat="40.8405483" lon="14.1149667"><ele>75.57142857142857</ele><time>2026-04-09T14:46:53.685Z</time></trkpt><trkpt lat="40.8405817" lon="14.1150383"><ele>76.0</ele><time>2026-04-09T14:46:55.686Z</time></trkpt><trkpt lat="40.8406267" lon="14.1151167"><ele>76.0</ele><time>2026-04-09T14:46:57.685Z</time></trkpt><trkpt lat="40.8407017" lon="14.1151833"><ele>76.0</ele><time>2026-04-09T14:46:59.685Z</time></trkpt><trkpt lat="40.8407683" lon="14.1152483"><ele>76.0</ele><time>2026-04-09T14:47:01.685Z</time></trkpt><trkpt lat="40.8408367" lon="14.11531"><ele>76.0</ele><time>2026-04-09T14:47:03.685Z</time></trkpt><trkpt lat="40.84091" lon="14.1153667"><ele>76.0</ele><time>2026-04-09T14:47:05.685Z</time></trkpt><trkpt lat="40.840985" lon="14.1154167"><ele>76.0</ele><time>2026-04-09T14:47:07.686Z</time></trkpt><trkpt lat="40.8410583" lon="14.1154783"><ele>76.8</ele><time>2026-04-09T14:47:09.685Z</time></trkpt><trkpt lat="40.8411283" lon="14.1155583"><ele>77.6</ele><time>2026-04-09T14:47:11.685Z</time></trkpt><trkpt lat="40.841215" lon="14.115615"><ele>78.4</ele><time>2026-04-09T14:47:13.685Z</time></trkpt><trkpt lat="40.8413033" lon="14.1156583"><ele>79.2</ele><time>2026-04-09T14:47:15.685Z</time></trkpt><trkpt lat="40.8413867" lon="14.1157083"><ele>80.0</ele><time>2026-04-09T14:47:17.689Z</time></trkpt><trkpt lat="40.84147" lon="14.1157533"><ele>80.0</ele><time>2026-04-09T14:47:19.684Z</time></trkpt><trkpt lat="40.8415433" lon="14.1157967"><ele>80.0</ele><time>2026-04-09T14:47:21.684Z</time></trkpt><trkpt lat="40.8416183" lon="14.11584"><ele>80.0</ele><time>2026-04-09T14:47:23.684Z</time></trkpt><trkpt lat="40.8416983" lon="14.1158783"><ele>80.0</ele><time>2026-04-09T14:47:25.686Z</time></trkpt><trkpt lat="40.841775" lon="14.11592"><ele>80.0</ele><time>2026-04-09T14:47:27.684Z</time></trkpt><trkpt lat="40.8418433" lon="14.1159667"><ele>80.0</ele><time>2026-04-09T14:47:29.684Z</time></trkpt><trkpt lat="40.8419117" lon="14.11602"><ele>81.0</ele><time>2026-04-09T14:47:31.684Z</time></trkpt><trkpt lat="40.84198" lon="14.1160767"><ele>82.0</ele><time>2026-04-09T14:47:33.684Z</time></trkpt><trkpt lat="40.8420383" lon="14.116145"><ele>83.0</ele><time>2026-04-09T14:47:35.684Z</time></trkpt><trkpt lat="40.8420983" lon="14.11622"><ele>84.0</ele><time>2026-04-09T14:47:37.684Z</time></trkpt><trkpt lat="40.842165" lon="14.1163"><ele>85.0</ele><time>2026-04-09T14:47:39.684Z</time></trkpt><trkpt lat="40.84223" lon="14.1163933"><ele>86.0</ele><time>2026-04-09T14:47:41.684Z</time></trkpt><trkpt lat="40.8422783" lon="14.1164967"><ele>84.8</ele><time>2026-04-09T14:47:43.684Z</time></trkpt><trkpt lat="40.8423283" lon="14.1166033"><ele>83.6</ele><time>2026-04-09T14:47:45.684Z</time></trkpt><trkpt lat="40.8423633" lon="14.1167117"><ele>82.4</ele><time>2026-04-09T14:47:47.684Z</time></trkpt><trkpt lat="40.8423917" lon="14.1168267"><ele>81.2</ele><time>2026-04-09T14:47:49.684Z</time></trkpt><trkpt lat="40.8424267" lon="14.1169583"><ele>80.0</ele><time>2026-04-09T14:47:51.683Z</time></trkpt><trkpt lat="40.84247" lon="14.117085"><ele>80.0</ele><time>2026-04-09T14:47:53.684Z</time></trkpt><trkpt lat="40.8425383" lon="14.1171717"><ele>80.0</ele><time>2026-04-09T14:47:55.684Z</time></trkpt><trkpt lat="40.8426217" lon="14.11726"><ele>80.0</ele><time>2026-04-09T14:47:57.684Z</time></trkpt><trkpt lat="40.842705" lon="14.1173433"><ele>80.0</ele><time>2026-04-09T14:47:59.684Z</time></trkpt><trkpt lat="40.842815" lon="14.1173833"><ele>80.0</ele><time>2026-04-09T14:48:01.683Z</time></trkpt><trkpt lat="40.8429233" lon="14.1174083"><ele>80.0</ele><time>2026-04-09T14:48:03.684Z</time></trkpt><trkpt lat="40.84303" lon="14.11743"><ele>80.0</ele><time>2026-04-09T14:48:05.683Z</time></trkpt><trkpt lat="40.8431317" lon="14.1174567"><ele>80.0</ele><time>2026-04-09T14:48:07.684Z</time></trkpt><trkpt lat="40.843225" lon="14.1174733"><ele>80.0</ele><time>2026-04-09T14:48:09.684Z</time></trkpt><trkpt lat="40.8433083" lon="14.117485"><ele>80.0</ele><time>2026-04-09T14:48:11.684Z</time></trkpt><trkpt lat="40.8433933" lon="14.1175033"><ele>80.4</ele><time>2026-04-09T14:48:13.684Z</time></trkpt><trkpt lat="40.8434867" lon="14.1175233"><ele>80.8</ele><time>2026-04-09T14:48:15.683Z</time></trkpt><trkpt lat="40.8435917" lon="14.1175383"><ele>81.19999999999999</ele><time>2026-04-09T14:48:17.684Z</time></trkpt><trkpt lat="40.8437" lon="14.11756"><ele>81.6</ele><time>2026-04-09T14:48:19.684Z</time></trkpt><trkpt lat="40.8438183" lon="14.117585"><ele>82.0</ele><time>2026-04-09T14:48:21.683Z</time></trkpt><trkpt lat="40.8439317" lon="14.1176117"><ele>82.0</ele><time>2026-04-09T14:48:23.684Z</time></trkpt><trkpt lat="40.8440433" lon="14.1176333"><ele>82.0</ele><time>2026-04-09T14:48:25.684Z</time></trkpt><trkpt lat="40.84415" lon="14.1176483"><ele>82.0</ele><time>2026-04-09T14:48:27.684Z</time></trkpt><trkpt lat="40.8442567" lon="14.11766"><ele>82.0</ele><time>2026-04-09T14:48:29.684Z</time></trkpt><trkpt lat="40.8443617" lon="14.1176733"><ele>82.0</ele><time>2026-04-09T14:48:31.684Z</time></trkpt><trkpt lat="40.844485" lon="14.117695"><ele>82.57142857142857</ele><time>2026-04-09T14:48:33.684Z</time></trkpt><trkpt lat="40.84455" lon="14.11771"><ele>83.14285714285714</ele><time>2026-04-09T14:48:34.684Z</time></trkpt><trkpt lat="40.8446167" lon="14.1177233"><ele>83.71428571428572</ele><time>2026-04-09T14:48:35.684Z</time></trkpt><trkpt lat="40.84468" lon="14.1177367"><ele>84.28571428571428</ele><time>2026-04-09T14:48:36.684Z</time></trkpt><trkpt lat="40.8447467" lon="14.11775"><ele>84.85714285714286</ele><time>2026-04-09T14:48:37.685Z</time></trkpt><trkpt lat="40.8448133" lon="14.117765"><ele>85.42857142857143</ele><time>2026-04-09T14:48:38.685Z</time></trkpt><trkpt lat="40.8448783" lon="14.1177817"><ele>86.0</ele><time>2026-04-09T14:48:39.684Z</time></trkpt><trkpt lat="40.8449433" lon="14.1177933"><ele>86.00000000000001</ele><time>2026-04-09T14:48:40.683Z</time></trkpt><trkpt lat="40.8450083" lon="14.1178083"><ele>86.0</ele><time>2026-04-09T14:48:41.684Z</time></trkpt><trkpt lat="40.845075" lon="14.1178233"><ele>86.0</ele><time>2026-04-09T14:48:42.685Z</time></trkpt><trkpt lat="40.84514" lon="14.1178367"><ele>86.0</ele><time>2026-04-09T14:48:43.684Z</time></trkpt><trkpt lat="40.8452067" lon="14.1178483"><ele>86.0</ele><time>2026-04-09T14:48:44.684Z</time></trkpt><trkpt lat="40.845275" lon="14.1178633"><ele>86.00000000000001</ele><time>2026-04-09T14:48:45.683Z</time></trkpt><trkpt lat="40.8453417" lon="14.1178783"><ele>86.0</ele><time>2026-04-09T14:48:46.684Z</time></trkpt><trkpt lat="40.84541" lon="14.1178933"><ele>85.00000000000001</ele><time>2026-04-09T14:48:47.684Z</time></trkpt><trkpt lat="40.8454783" lon="14.1179067"><ele>84.0</ele><time>2026-04-09T14:48:48.683Z</time></trkpt><trkpt lat="40.8455467" lon="14.1179233"><ele>83.0</ele><time>2026-04-09T14:48:49.684Z</time></trkpt><trkpt lat="40.845615" lon="14.11794"><ele>82.0</ele><time>2026-04-09T14:48:50.684Z</time></trkpt><trkpt lat="40.8456817" lon="14.1179583"><ele>81.0</ele><time>2026-04-09T14:48:51.683Z</time></trkpt><trkpt lat="40.84575" lon="14.1179783"><ele>80.00000000000001</ele><time>2026-04-09T14:48:52.684Z</time></trkpt><trkpt lat="40.8458183" lon="14.1179933"><ele>79.0</ele><time>2026-04-09T14:48:53.685Z</time></trkpt><trkpt lat="40.8459467" lon="14.1180183"><ele>78.57142857142858</ele><time>2026-04-09T14:48:55.686Z</time></trkpt><trkpt lat="40.8460183" lon="14.1180333"><ele>78.14285714285714</ele><time>2026-04-09T14:48:56.685Z</time></trkpt><trkpt lat="40.8460867" lon="14.1180433"><ele>77.71428571428572</ele><time>2026-04-09T14:48:57.684Z</time></trkpt><trkpt lat="40.846155" lon="14.1180567"><ele>77.28571428571429</ele><time>2026-04-09T14:48:58.685Z</time></trkpt><trkpt lat="40.8462267" lon="14.11807"><ele>76.85714285714286</ele><time>2026-04-09T14:48:59.684Z</time></trkpt><trkpt lat="40.8462967" lon="14.11808"><ele>76.42857142857143</ele><time>2026-04-09T14:49:00.684Z</time></trkpt><trkpt lat="40.846365" lon="14.1180917"><ele>76.0</ele><time>2026-04-09T14:49:01.684Z</time></trkpt><trkpt lat="40.8464333" lon="14.118105"><ele>76.0</ele><time>2026-04-09T14:49:02.684Z</time></trkpt><trkpt lat="40.8465033" lon="14.11812"><ele>76.0</ele><time>2026-04-09T14:49:03.683Z</time></trkpt><trkpt lat="40.8465733" lon="14.11813"><ele>76.0</ele><time>2026-04-09T14:49:04.684Z</time></trkpt><trkpt lat="40.8466433" lon="14.1181417"><ele>76.0</ele><time>2026-04-09T14:49:05.686Z</time></trkpt><trkpt lat="40.8467133" lon="14.1181567"><ele>76.0</ele><time>2026-04-09T14:49:06.684Z</time></trkpt><trkpt lat="40.8467867" lon="14.1181717"><ele>76.0</ele><time>2026-04-09T14:49:07.685Z</time></trkpt><trkpt lat="40.8468567" lon="14.118185"><ele>76.0</ele><time>2026-04-09T14:49:08.684Z</time></trkpt><trkpt lat="40.8469283" lon="14.1181983"><ele>75.83333333333333</ele><time>2026-04-09T14:49:09.692Z</time></trkpt><trkpt lat="40.8470017" lon="14.1182167"><ele>75.66666666666666</ele><time>2026-04-09T14:49:10.686Z</time></trkpt><trkpt lat="40.8470733" lon="14.1182317"><ele>75.5</ele><time>2026-04-09T14:49:11.684Z</time></trkpt><trkpt lat="40.8471967" lon="14.1182633"><ele>75.33333333333333</ele><time>2026-04-09T14:49:13.684Z</time></trkpt><trkpt lat="40.847265" lon="14.1182767"><ele>75.16666666666667</ele><time>2026-04-09T14:49:14.684Z</time></trkpt><trkpt lat="40.847335" lon="14.1182933"><ele>75.0</ele><time>2026-04-09T14:49:15.683Z</time></trkpt><trkpt lat="40.847405" lon="14.1183133"><ele>74.99999999999999</ele><time>2026-04-09T14:49:16.685Z</time></trkpt><trkpt lat="40.8474733" lon="14.11833"><ele>75.0</ele><time>2026-04-09T14:49:17.684Z</time></trkpt><trkpt lat="40.8475433" lon="14.1183467"><ele>75.0</ele><time>2026-04-09T14:49:18.684Z</time></trkpt><trkpt lat="40.8476133" lon="14.118365"><ele>75.0</ele><time>2026-04-09T14:49:19.684Z</time></trkpt><trkpt lat="40.8476867" lon="14.1183783"><ele>75.0</ele><time>2026-04-09T14:49:20.684Z</time></trkpt><trkpt lat="40.8477567" lon="14.1183917"><ele>74.99999999999999</ele><time>2026-04-09T14:49:21.684Z</time></trkpt><trkpt lat="40.8478283" lon="14.1184017"><ele>75.0</ele><time>2026-04-09T14:49:22.684Z</time></trkpt><trkpt lat="40.8479033" lon="14.118415"><ele>74.85714285714285</ele><time>2026-04-09T14:49:23.684Z</time></trkpt><trkpt lat="40.8479733" lon="14.1184333"><ele>74.71428571428571</ele><time>2026-04-09T14:49:24.684Z</time></trkpt><trkpt lat="40.848045" lon="14.118455"><ele>74.57142857142857</ele><time>2026-04-09T14:49:25.684Z</time></trkpt><trkpt lat="40.8481167" lon="14.1184733"><ele>74.42857142857142</ele><time>2026-04-09T14:49:26.684Z</time></trkpt><trkpt lat="40.8481917" lon="14.1184917"><ele>74.28571428571428</ele><time>2026-04-09T14:49:27.684Z</time></trkpt><trkpt lat="40.8482667" lon="14.1185083"><ele>74.14285714285714</ele><time>2026-04-09T14:49:28.683Z</time></trkpt><trkpt lat="40.84834" lon="14.1185267"><ele>74.0</ele><time>2026-04-09T14:49:29.684Z</time></trkpt><trkpt lat="40.8484133" lon="14.11854"><ele>73.66666666666667</ele><time>2026-04-09T14:49:30.684Z</time></trkpt><trkpt lat="40.8484883" lon="14.1185483"><ele>73.33333333333334</ele><time>2026-04-09T14:49:31.684Z</time></trkpt><trkpt lat="40.8485617" lon="14.1185617"><ele>73.0</ele><time>2026-04-09T14:49:32.684Z</time></trkpt><trkpt lat="40.84864" lon="14.118575"><ele>72.66666666666667</ele><time>2026-04-09T14:49:33.684Z</time></trkpt><trkpt lat="40.8487217" lon="14.1185933"><ele>72.33333333333333</ele><time>2026-04-09T14:49:34.684Z</time></trkpt><trkpt lat="40.8488033" lon="14.118615"><ele>72.0</ele><time>2026-04-09T14:49:35.684Z</time></trkpt><trkpt lat="40.8488883" lon="14.1186367"><ele>72.0</ele><time>2026-04-09T14:49:36.684Z</time></trkpt><trkpt lat="40.84897" lon="14.1186533"><ele>72.0</ele><time>2026-04-09T14:49:37.685Z</time></trkpt><trkpt lat="40.8490583" lon="14.1186683"><ele>72.0</ele><time>2026-04-09T14:49:38.684Z</time></trkpt><trkpt lat="40.849145" lon="14.118685"><ele>72.0</ele><time>2026-04-09T14:49:39.683Z</time></trkpt><trkpt lat="40.8492333" lon="14.1187017"><ele>72.0</ele><time>2026-04-09T14:49:40.684Z</time></trkpt><trkpt lat="40.8493267" lon="14.1187183"><ele>72.0</ele><time>2026-04-09T14:49:41.684Z</time></trkpt><trkpt lat="40.84942" lon="14.1187383"><ele>71.6</ele><time>2026-04-09T14:49:42.685Z</time></trkpt><trkpt lat="40.8495133" lon="14.1187583"><ele>71.2</ele><time>2026-04-09T14:49:43.684Z</time></trkpt><trkpt lat="40.8496033" lon="14.1187767"><ele>70.8</ele><time>2026-04-09T14:49:44.684Z</time></trkpt><trkpt lat="40.849695" lon="14.1187983"><ele>70.4</ele><time>2026-04-09T14:49:45.684Z</time></trkpt><trkpt lat="40.8497867" lon="14.11882"><ele>70.0</ele><time>2026-04-09T14:49:46.684Z</time></trkpt><trkpt lat="40.849885" lon="14.1188433"><ele>70.0</ele><time>2026-04-09T14:49:47.684Z</time></trkpt><trkpt lat="40.8499817" lon="14.118865"><ele>70.0</ele><time>2026-04-09T14:49:48.685Z</time></trkpt><trkpt lat="40.8500817" lon="14.1188883"><ele>70.0</ele><time>2026-04-09T14:49:49.684Z</time></trkpt><trkpt lat="40.8501783" lon="14.1189117"><ele>70.0</ele><time>2026-04-09T14:49:50.684Z</time></trkpt><trkpt lat="40.8502817" lon="14.118935"><ele>70.0</ele><time>2026-04-09T14:49:51.684Z</time></trkpt><trkpt lat="40.8503833" lon="14.11896"><ele>69.4</ele><time>2026-04-09T14:49:52.683Z</time></trkpt><trkpt lat="40.850485" lon="14.1189833"><ele>68.8</ele><time>2026-04-09T14:49:53.684Z</time></trkpt><trkpt lat="40.8505883" lon="14.119005"><ele>68.2</ele><time>2026-04-09T14:49:54.686Z</time></trkpt><trkpt lat="40.850695" lon="14.1190283"><ele>67.6</ele><time>2026-04-09T14:49:55.684Z</time></trkpt><trkpt lat="40.8507983" lon="14.1190533"><ele>67.0</ele><time>2026-04-09T14:49:56.685Z</time></trkpt><trkpt lat="40.8509" lon="14.1190767"><ele>66.8</ele><time>2026-04-09T14:49:57.685Z</time></trkpt><trkpt lat="40.8510033" lon="14.1191"><ele>66.6</ele><time>2026-04-09T14:49:58.687Z</time></trkpt><trkpt lat="40.85111" lon="14.1191233"><ele>66.39999999999999</ele><time>2026-04-09T14:49:59.685Z</time></trkpt><trkpt lat="40.851215" lon="14.119145"><ele>66.2</ele><time>2026-04-09T14:50:00.684Z</time></trkpt><trkpt lat="40.85132" lon="14.1191667"><ele>66.0</ele><time>2026-04-09T14:50:01.684Z</time></trkpt><trkpt lat="40.8514283" lon="14.1191883"><ele>66.0</ele><time>2026-04-09T14:50:02.684Z</time></trkpt><trkpt lat="40.85153" lon="14.1192117"><ele>66.0</ele><time>2026-04-09T14:50:03.684Z</time></trkpt><trkpt lat="40.8516317" lon="14.119235"><ele>66.0</ele><time>2026-04-09T14:50:04.683Z</time></trkpt><trkpt lat="40.8517333" lon="14.1192583"><ele>66.0</ele><time>2026-04-09T14:50:05.684Z</time></trkpt><trkpt lat="40.8518367" lon="14.1192767"><ele>66.0</ele><time>2026-04-09T14:50:06.685Z</time></trkpt><trkpt lat="40.85194" lon="14.1192933"><ele>66.0</ele><time>2026-04-09T14:50:07.684Z</time></trkpt><trkpt lat="40.8520417" lon="14.119315"><ele>66.0</ele><time>2026-04-09T14:50:08.684Z</time></trkpt><trkpt lat="40.8521417" lon="14.1193333"><ele>66.0</ele><time>2026-04-09T14:50:09.683Z</time></trkpt><trkpt lat="40.8522483" lon="14.119355"><ele>66.0</ele><time>2026-04-09T14:50:10.683Z</time></trkpt><trkpt lat="40.85235" lon="14.1193717"><ele>66.0</ele><time>2026-04-09T14:50:11.685Z</time></trkpt><trkpt lat="40.8524533" lon="14.11939"><ele>66.0</ele><time>2026-04-09T14:50:12.684Z</time></trkpt><trkpt lat="40.852555" lon="14.1194133"><ele>66.0</ele><time>2026-04-09T14:50:13.685Z</time></trkpt><trkpt lat="40.852655" lon="14.1194367"><ele>66.0</ele><time>2026-04-09T14:50:14.685Z</time></trkpt><trkpt lat="40.8527583" lon="14.11946"><ele>66.0</ele><time>2026-04-09T14:50:15.684Z</time></trkpt><trkpt lat="40.8528617" lon="14.1194817"><ele>66.0</ele><time>2026-04-09T14:50:16.684Z</time></trkpt><trkpt lat="40.85297" lon="14.1194983"><ele>65.8</ele><time>2026-04-09T14:50:17.685Z</time></trkpt><trkpt lat="40.853075" lon="14.1195217"><ele>65.6</ele><time>2026-04-09T14:50:18.684Z</time></trkpt><trkpt lat="40.8531783" lon="14.119545"><ele>65.4</ele><time>2026-04-09T14:50:19.685Z</time></trkpt><trkpt lat="40.85328" lon="14.1195667"><ele>65.2</ele><time>2026-04-09T14:50:20.684Z</time></trkpt><trkpt lat="40.8533817" lon="14.1195883"><ele>65.0</ele><time>2026-04-09T14:50:21.684Z</time></trkpt><trkpt lat="40.8534817" lon="14.1196117"><ele>64.0</ele><time>2026-04-09T14:50:22.685Z</time></trkpt><trkpt lat="40.85358" lon="14.119635"><ele>63.0</ele><time>2026-04-09T14:50:23.685Z</time></trkpt><trkpt lat="40.85368" lon="14.1196583"><ele>62.0</ele><time>2026-04-09T14:50:24.684Z</time></trkpt><trkpt lat="40.8537833" lon="14.119675"><ele>61.0</ele><time>2026-04-09T14:50:25.685Z</time></trkpt><trkpt lat="40.8538883" lon="14.11969"><ele>60.0</ele><time>2026-04-09T14:50:26.685Z</time></trkpt><trkpt lat="40.85399" lon="14.1197033"><ele>60.0</ele><time>2026-04-09T14:50:27.686Z</time></trkpt><trkpt lat="40.8540933" lon="14.1197167"><ele>60.0</ele><time>2026-04-09T14:50:28.684Z</time></trkpt><trkpt lat="40.8541933" lon="14.1197417"><ele>60.0</ele><time>2026-04-09T14:50:29.684Z</time></trkpt><trkpt lat="40.85429" lon="14.1197717"><ele>60.0</ele><time>2026-04-09T14:50:30.687Z</time></trkpt><trkpt lat="40.8543883" lon="14.1197967"><ele>60.0</ele><time>2026-04-09T14:50:31.685Z</time></trkpt><trkpt lat="40.8544867" lon="14.11982"><ele>59.8</ele><time>2026-04-09T14:50:32.684Z</time></trkpt><trkpt lat="40.8545833" lon="14.1198467"><ele>59.6</ele><time>2026-04-09T14:50:33.684Z</time></trkpt><trkpt lat="40.85468" lon="14.1198683"><ele>59.400000000000006</ele><time>2026-04-09T14:50:34.684Z</time></trkpt><trkpt lat="40.85478" lon="14.1198883"><ele>59.2</ele><time>2026-04-09T14:50:35.684Z</time></trkpt><trkpt lat="40.8548817" lon="14.1199083"><ele>59.0</ele><time>2026-04-09T14:50:36.685Z</time></trkpt><trkpt lat="40.85498" lon="14.1199283"><ele>59.0</ele><time>2026-04-09T14:50:37.685Z</time></trkpt><trkpt lat="40.8550767" lon="14.1199517"><ele>59.00000000000001</ele><time>2026-04-09T14:50:38.684Z</time></trkpt><trkpt lat="40.855175" lon="14.1199733"><ele>59.00000000000001</ele><time>2026-04-09T14:50:39.684Z</time></trkpt><trkpt lat="40.8552733" lon="14.1199983"><ele>59.0</ele><time>2026-04-09T14:50:40.687Z</time></trkpt><trkpt lat="40.8553683" lon="14.1200217"><ele>59.0</ele><time>2026-04-09T14:50:41.685Z</time></trkpt><trkpt lat="40.8554633" lon="14.120045"><ele>58.800000000000004</ele><time>2026-04-09T14:50:42.684Z</time></trkpt><trkpt lat="40.85556" lon="14.1200617"><ele>58.60000000000001</ele><time>2026-04-09T14:50:43.691Z</time></trkpt><trkpt lat="40.855655" lon="14.1200833"><ele>58.4</ele><time>2026-04-09T14:50:44.684Z</time></trkpt><trkpt lat="40.8557467" lon="14.120105"><ele>58.2</ele><time>2026-04-09T14:50:45.684Z</time></trkpt><trkpt lat="40.8558383" lon="14.12013"><ele>58.0</ele><time>2026-04-09T14:50:46.684Z</time></trkpt><trkpt lat="40.8559333" lon="14.120155"><ele>57.8</ele><time>2026-04-09T14:50:47.684Z</time></trkpt><trkpt lat="40.8560267" lon="14.120175"><ele>57.599999999999994</ele><time>2026-04-09T14:50:48.684Z</time></trkpt><trkpt lat="40.85612" lon="14.1201933"><ele>57.400000000000006</ele><time>2026-04-09T14:50:49.688Z</time></trkpt><trkpt lat="40.8562117" lon="14.1202117"><ele>57.2</ele><time>2026-04-09T14:50:50.688Z</time></trkpt><trkpt lat="40.856305" lon="14.1202317"><ele>57.0</ele><time>2026-04-09T14:50:51.689Z</time></trkpt><trkpt lat="40.8564017" lon="14.1202517"><ele>57.0</ele><time>2026-04-09T14:50:52.684Z</time></trkpt><trkpt lat="40.8564967" lon="14.1202717"><ele>57.0</ele><time>2026-04-09T14:50:53.687Z</time></trkpt><trkpt lat="40.8565917" lon="14.1202917"><ele>57.0</ele><time>2026-04-09T14:50:54.684Z</time></trkpt><trkpt lat="40.856685" lon="14.12031"><ele>57.0</ele><time>2026-04-09T14:50:55.685Z</time></trkpt><trkpt lat="40.8567767" lon="14.1203283"><ele>57.0</ele><time>2026-04-09T14:50:56.685Z</time></trkpt><trkpt lat="40.8568683" lon="14.120345"><ele>56.8</ele><time>2026-04-09T14:50:57.686Z</time></trkpt><trkpt lat="40.8569583" lon="14.1203633"><ele>56.6</ele><time>2026-04-09T14:50:58.684Z</time></trkpt><trkpt lat="40.8570467" lon="14.12038"><ele>56.39999999999999</ele><time>2026-04-09T14:50:59.685Z</time></trkpt><trkpt lat="40.85714" lon="14.1204033"><ele>56.199999999999996</ele><time>2026-04-09T14:51:00.684Z</time></trkpt><trkpt lat="40.8572283" lon="14.1204217"><ele>56.0</ele><time>2026-04-09T14:51:01.684Z</time></trkpt><trkpt lat="40.857315" lon="14.1204417"><ele>56.00000000000001</ele><time>2026-04-09T14:51:02.684Z</time></trkpt><trkpt lat="40.8574" lon="14.1204633"><ele>56.0</ele><time>2026-04-09T14:51:03.686Z</time></trkpt><trkpt lat="40.8574883" lon="14.1204817"><ele>56.0</ele><time>2026-04-09T14:51:04.684Z</time></trkpt><trkpt lat="40.8575767" lon="14.1205017"><ele>56.0</ele><time>2026-04-09T14:51:05.685Z</time></trkpt><trkpt lat="40.8576667" lon="14.12052"><ele>56.00000000000001</ele><time>2026-04-09T14:51:06.684Z</time></trkpt><trkpt lat="40.857755" lon="14.1205383"><ele>56.0</ele><time>2026-04-09T14:51:07.687Z</time></trkpt><trkpt lat="40.8578417" lon="14.1205567"><ele>56.00000000000001</ele><time>2026-04-09T14:51:08.684Z</time></trkpt><trkpt lat="40.857925" lon="14.1205733"><ele>56.0</ele><time>2026-04-09T14:51:09.684Z</time></trkpt><trkpt lat="40.8580083" lon="14.12059"><ele>56.0</ele><time>2026-04-09T14:51:10.685Z</time></trkpt><trkpt lat="40.8580883" lon="14.1206083"><ele>56.0</ele><time>2026-04-09T14:51:11.684Z</time></trkpt><trkpt lat="40.858165" lon="14.120625"><ele>56.00000000000001</ele><time>2026-04-09T14:51:12.684Z</time></trkpt><trkpt lat="40.8582417" lon="14.1206417"><ele>56.0</ele><time>2026-04-09T14:51:13.685Z</time></trkpt><trkpt lat="40.85832" lon="14.12066"><ele>56.00000000000001</ele><time>2026-04-09T14:51:14.686Z</time></trkpt><trkpt lat="40.8583983" lon="14.1206767"><ele>56.0</ele><time>2026-04-09T14:51:15.684Z</time></trkpt><trkpt lat="40.85848" lon="14.12069"><ele>56.0</ele><time>2026-04-09T14:51:16.685Z</time></trkpt><trkpt lat="40.85856" lon="14.120705"><ele>56.0</ele><time>2026-04-09T14:51:17.685Z</time></trkpt><trkpt lat="40.8586367" lon="14.12072"><ele>56.00000000000001</ele><time>2026-04-09T14:51:18.686Z</time></trkpt><trkpt lat="40.858715" lon="14.120735"><ele>56.0</ele><time>2026-04-09T14:51:19.684Z</time></trkpt><trkpt lat="40.8587933" lon="14.12075"><ele>56.00000000000001</ele><time>2026-04-09T14:51:20.684Z</time></trkpt><trkpt lat="40.8588733" lon="14.120765"><ele>56.0</ele><time>2026-04-09T14:51:21.684Z</time></trkpt><trkpt lat="40.8589517" lon="14.1207783"><ele>56.0</ele><time>2026-04-09T14:51:22.684Z</time></trkpt><trkpt lat="40.85903" lon="14.120795"><ele>56.0</ele><time>2026-04-09T14:51:23.684Z</time></trkpt><trkpt lat="40.85911" lon="14.12081"><ele>56.00000000000001</ele><time>2026-04-09T14:51:24.685Z</time></trkpt><trkpt lat="40.8591917" lon="14.1208267"><ele>56.0</ele><time>2026-04-09T14:51:25.684Z</time></trkpt><trkpt lat="40.85927" lon="14.1208483"><ele>55.66666666666667</ele><time>2026-04-09T14:51:26.685Z</time></trkpt><trkpt lat="40.85935" lon="14.1208667"><ele>55.333333333333336</ele><time>2026-04-09T14:51:27.684Z</time></trkpt><trkpt lat="40.8594267" lon="14.1208817"><ele>55.0</ele><time>2026-04-09T14:51:28.684Z</time></trkpt><trkpt lat="40.859505" lon="14.1208933"><ele>54.66666666666667</ele><time>2026-04-09T14:51:29.684Z</time></trkpt><trkpt lat="40.8595817" lon="14.1209083"><ele>54.333333333333336</ele><time>2026-04-09T14:51:30.684Z</time></trkpt><trkpt lat="40.85966" lon="14.1209267"><ele>54.0</ele><time>2026-04-09T14:51:31.684Z</time></trkpt><trkpt lat="40.8597383" lon="14.1209483"><ele>54.0</ele><time>2026-04-09T14:51:32.684Z</time></trkpt><trkpt lat="40.8598133" lon="14.1209717"><ele>54.0</ele><time>2026-04-09T14:51:33.685Z</time></trkpt><trkpt lat="40.8598917" lon="14.120995"><ele>54.0</ele><time>2026-04-09T14:51:34.686Z</time></trkpt><trkpt lat="40.85997" lon="14.1210217"><ele>54.0</ele><time>2026-04-09T14:51:35.685Z</time></trkpt><trkpt lat="40.8600467" lon="14.121045"><ele>54.0</ele><time>2026-04-09T14:51:36.684Z</time></trkpt><trkpt lat="40.8601267" lon="14.1210683"><ele>54.0</ele><time>2026-04-09T14:51:37.685Z</time></trkpt><trkpt lat="40.8602017" lon="14.1211"><ele>54.0</ele><time>2026-04-09T14:51:38.686Z</time></trkpt><trkpt lat="40.8602783" lon="14.1211333"><ele>54.0</ele><time>2026-04-09T14:51:39.685Z</time></trkpt><trkpt lat="40.8603517" lon="14.12117"><ele>54.0</ele><time>2026-04-09T14:51:40.686Z</time></trkpt><trkpt lat="40.8604233" lon="14.121205"><ele>54.0</ele><time>2026-04-09T14:51:41.686Z</time></trkpt><trkpt lat="40.8604967" lon="14.1212417"><ele>54.0</ele><time>2026-04-09T14:51:42.684Z</time></trkpt><trkpt lat="40.8605683" lon="14.1212767"><ele>54.0</ele><time>2026-04-09T14:51:43.684Z</time></trkpt><trkpt lat="40.8606383" lon="14.12131"><ele>54.0</ele><time>2026-04-09T14:51:44.684Z</time></trkpt><trkpt lat="40.86071" lon="14.1213467"><ele>54.0</ele><time>2026-04-09T14:51:45.684Z</time></trkpt><trkpt lat="40.8607833" lon="14.121385"><ele>54.0</ele><time>2026-04-09T14:51:46.684Z</time></trkpt><trkpt lat="40.8608567" lon="14.1214217"><ele>54.0</ele><time>2026-04-09T14:51:47.685Z</time></trkpt><trkpt lat="40.86093" lon="14.1214567"><ele>54.0</ele><time>2026-04-09T14:51:48.685Z</time></trkpt><trkpt lat="40.8610017" lon="14.12149"><ele>54.0</ele><time>2026-04-09T14:51:49.685Z</time></trkpt><trkpt lat="40.861075" lon="14.12153"><ele>54.0</ele><time>2026-04-09T14:51:50.685Z</time></trkpt><trkpt lat="40.86115" lon="14.121565"><ele>54.0</ele><time>2026-04-09T14:51:51.684Z</time></trkpt><trkpt lat="40.8612233" lon="14.1216017"><ele>54.0</ele><time>2026-04-09T14:51:52.684Z</time></trkpt><trkpt lat="40.8612933" lon="14.12164"><ele>54.0</ele><time>2026-04-09T14:51:53.686Z</time></trkpt><trkpt lat="40.8613617" lon="14.1216783"><ele>54.0</ele><time>2026-04-09T14:51:54.684Z</time></trkpt><trkpt lat="40.86143" lon="14.1217183"><ele>54.0</ele><time>2026-04-09T14:51:55.684Z</time></trkpt><trkpt lat="40.8615017" lon="14.1217583"><ele>54.0</ele><time>2026-04-09T14:51:56.684Z</time></trkpt><trkpt lat="40.86157" lon="14.121795"><ele>54.0</ele><time>2026-04-09T14:51:57.685Z</time></trkpt><trkpt lat="40.86164" lon="14.12183"><ele>54.0</ele><time>2026-04-09T14:51:58.685Z</time></trkpt><trkpt lat="40.8617117" lon="14.121865"><ele>54.0</ele><time>2026-04-09T14:51:59.685Z</time></trkpt><trkpt lat="40.8617817" lon="14.1219033"><ele>54.0</ele><time>2026-04-09T14:52:00.684Z</time></trkpt><trkpt lat="40.8618517" lon="14.1219383"><ele>54.0</ele><time>2026-04-09T14:52:01.684Z</time></trkpt><trkpt lat="40.8619233" lon="14.121975"><ele>54.0</ele><time>2026-04-09T14:52:02.686Z</time></trkpt><trkpt lat="40.8619967" lon="14.1220133"><ele>54.0</ele><time>2026-04-09T14:52:03.684Z</time></trkpt><trkpt lat="40.86207" lon="14.1220517"><ele>54.0</ele><time>2026-04-09T14:52:04.685Z</time></trkpt><trkpt lat="40.8621417" lon="14.12209"><ele>54.0</ele><time>2026-04-09T14:52:05.684Z</time></trkpt><trkpt lat="40.8622133" lon="14.1221283"><ele>54.0</ele><time>2026-04-09T14:52:06.684Z</time></trkpt><trkpt lat="40.8622867" lon="14.1221683"><ele>54.0</ele><time>2026-04-09T14:52:07.684Z</time></trkpt><trkpt lat="40.86236" lon="14.1222067"><ele>54.0</ele><time>2026-04-09T14:52:08.685Z</time></trkpt><trkpt lat="40.8624333" lon="14.1222433"><ele>54.0</ele><time>2026-04-09T14:52:09.684Z</time></trkpt><trkpt lat="40.8625067" lon="14.1222817"><ele>54.0</ele><time>2026-04-09T14:52:10.684Z</time></trkpt><trkpt lat="40.86258" lon="14.12232"><ele>54.0</ele><time>2026-04-09T14:52:11.684Z</time></trkpt><trkpt lat="40.8626517" lon="14.1223567"><ele>54.0</ele><time>2026-04-09T14:52:12.684Z</time></trkpt><trkpt lat="40.8627217" lon="14.1223933"><ele>54.0</ele><time>2026-04-09T14:52:13.684Z</time></trkpt><trkpt lat="40.8627933" lon="14.1224333"><ele>54.166666666666664</ele><time>2026-04-09T14:52:14.684Z</time></trkpt><trkpt lat="40.8628667" lon="14.1224717"><ele>54.33333333333333</ele><time>2026-04-09T14:52:15.684Z</time></trkpt><trkpt lat="40.8629383" lon="14.12251"><ele>54.5</ele><time>2026-04-09T14:52:16.684Z</time></trkpt><trkpt lat="40.8630083" lon="14.122545"><ele>54.666666666666664</ele><time>2026-04-09T14:52:17.686Z</time></trkpt><trkpt lat="40.86308" lon="14.1225817"><ele>54.83333333333333</ele><time>2026-04-09T14:52:18.684Z</time></trkpt><trkpt lat="40.8631517" lon="14.1226183"><ele>55.0</ele><time>2026-04-09T14:52:19.685Z</time></trkpt><trkpt lat="40.863225" lon="14.122655"><ele>54.99999999999999</ele><time>2026-04-09T14:52:20.684Z</time></trkpt><trkpt lat="40.8633" lon="14.1226933"><ele>55.0</ele><time>2026-04-09T14:52:21.684Z</time></trkpt><trkpt lat="40.86337" lon="14.1227317"><ele>55.0</ele><time>2026-04-09T14:52:22.684Z</time></trkpt><trkpt lat="40.8634467" lon="14.12277"><ele>55.0</ele><time>2026-04-09T14:52:23.685Z</time></trkpt><trkpt lat="40.8635167" lon="14.1228067"><ele>54.99999999999999</ele><time>2026-04-09T14:52:24.685Z</time></trkpt><trkpt lat="40.8635883" lon="14.122845"><ele>55.0</ele><time>2026-04-09T14:52:25.685Z</time></trkpt><trkpt lat="40.8636583" lon="14.12288"><ele>54.857142857142854</ele><time>2026-04-09T14:52:26.684Z</time></trkpt><trkpt lat="40.8637317" lon="14.1229133"><ele>54.714285714285715</ele><time>2026-04-09T14:52:27.684Z</time></trkpt><trkpt lat="40.8638" lon="14.1229483"><ele>54.57142857142857</ele><time>2026-04-09T14:52:28.684Z</time></trkpt><trkpt lat="40.8638717" lon="14.1229833"><ele>54.42857142857143</ele><time>2026-04-09T14:52:29.686Z</time></trkpt><trkpt lat="40.86394" lon="14.1230133"><ele>54.285714285714285</ele><time>2026-04-09T14:52:30.684Z</time></trkpt><trkpt lat="40.86401" lon="14.1230467"><ele>54.14285714285714</ele><time>2026-04-09T14:52:31.685Z</time></trkpt><trkpt lat="40.8640783" lon="14.12308"><ele>54.0</ele><time>2026-04-09T14:52:32.684Z</time></trkpt><trkpt lat="40.864145" lon="14.1231117"><ele>54.0</ele><time>2026-04-09T14:52:33.685Z</time></trkpt><trkpt lat="40.864215" lon="14.123145"><ele>54.0</ele><time>2026-04-09T14:52:34.685Z</time></trkpt><trkpt lat="40.86428" lon="14.1231767"><ele>54.0</ele><time>2026-04-09T14:52:35.685Z</time></trkpt><trkpt lat="40.8643417" lon="14.1232083"><ele>54.0</ele><time>2026-04-09T14:52:36.684Z</time></trkpt><trkpt lat="40.8644067" lon="14.12324"><ele>54.0</ele><time>2026-04-09T14:52:37.684Z</time></trkpt><trkpt lat="40.8644717" lon="14.123275"><ele>54.0</ele><time>2026-04-09T14:52:38.686Z</time></trkpt><trkpt lat="40.864535" lon="14.12331"><ele>54.0</ele><time>2026-04-09T14:52:39.684Z</time></trkpt><trkpt lat="40.8645967" lon="14.1233433"><ele>54.14285714285714</ele><time>2026-04-09T14:52:40.684Z</time></trkpt><trkpt lat="40.86466" lon="14.1233783"><ele>54.285714285714285</ele><time>2026-04-09T14:52:41.684Z</time></trkpt><trkpt lat="40.8647233" lon="14.1234117"><ele>54.42857142857143</ele><time>2026-04-09T14:52:42.684Z</time></trkpt><trkpt lat="40.8647867" lon="14.123445"><ele>54.57142857142857</ele><time>2026-04-09T14:52:43.685Z</time></trkpt><trkpt lat="40.86485" lon="14.1234767"><ele>54.714285714285715</ele><time>2026-04-09T14:52:44.689Z</time></trkpt><trkpt lat="40.86491" lon="14.12351"><ele>54.857142857142854</ele><time>2026-04-09T14:52:45.686Z</time></trkpt><trkpt lat="40.864975" lon="14.12354"><ele>55.0</ele><time>2026-04-09T14:52:46.685Z</time></trkpt><trkpt lat="40.865035" lon="14.12357"><ele>54.99999999999999</ele><time>2026-04-09T14:52:47.685Z</time></trkpt><trkpt lat="40.865095" lon="14.1236017"><ele>55.0</ele><time>2026-04-09T14:52:48.684Z</time></trkpt><trkpt lat="40.8651567" lon="14.1236333"><ele>55.0</ele><time>2026-04-09T14:52:49.684Z</time></trkpt><trkpt lat="40.8652183" lon="14.1236667"><ele>55.0</ele><time>2026-04-09T14:52:50.686Z</time></trkpt><trkpt lat="40.8652783" lon="14.1237"><ele>55.0</ele><time>2026-04-09T14:52:51.684Z</time></trkpt><trkpt lat="40.8653383" lon="14.123735"><ele>54.99999999999999</ele><time>2026-04-09T14:52:52.685Z</time></trkpt><trkpt lat="40.8653967" lon="14.12377"><ele>55.0</ele><time>2026-04-09T14:52:53.685Z</time></trkpt><trkpt lat="40.8654567" lon="14.123805"><ele>55.2</ele><time>2026-04-09T14:52:54.685Z</time></trkpt><trkpt lat="40.8655167" lon="14.1238383"><ele>55.4</ele><time>2026-04-09T14:52:55.684Z</time></trkpt><trkpt lat="40.8656283" lon="14.1239033"><ele>55.599999999999994</ele><time>2026-04-09T14:52:57.684Z</time></trkpt><trkpt lat="40.865735" lon="14.1239567"><ele>55.8</ele><time>2026-04-09T14:52:59.684Z</time></trkpt><trkpt lat="40.86584" lon="14.1240017"><ele>56.0</ele><time>2026-04-09T14:53:01.684Z</time></trkpt><trkpt lat="40.865945" lon="14.1240533"><ele>56.8</ele><time>2026-04-09T14:53:03.684Z</time></trkpt><trkpt lat="40.8660533" lon="14.124105"><ele>57.599999999999994</ele><time>2026-04-09T14:53:05.684Z</time></trkpt><trkpt lat="40.8661617" lon="14.1241583"><ele>58.4</ele><time>2026-04-09T14:53:07.686Z</time></trkpt><trkpt lat="40.8662633" lon="14.1242133"><ele>59.2</ele><time>2026-04-09T14:53:09.685Z</time></trkpt><trkpt lat="40.86636" lon="14.1242683"><ele>60.0</ele><time>2026-04-09T14:53:11.685Z</time></trkpt><trkpt lat="40.8664533" lon="14.1243233"><ele>60.0</ele><time>2026-04-09T14:53:13.684Z</time></trkpt><trkpt lat="40.8665517" lon="14.1243783"><ele>60.0</ele><time>2026-04-09T14:53:15.685Z</time></trkpt><trkpt lat="40.8666467" lon="14.124425"><ele>60.0</ele><time>2026-04-09T14:53:17.684Z</time></trkpt><trkpt lat="40.8667467" lon="14.12447"><ele>60.0</ele><time>2026-04-09T14:53:19.685Z</time></trkpt><trkpt lat="40.86684" lon="14.1245117"><ele>60.0</ele><time>2026-04-09T14:53:21.684Z</time></trkpt><trkpt lat="40.8669233" lon="14.1245717"><ele>62.666666666666664</ele><time>2026-04-09T14:53:23.685Z</time></trkpt><trkpt lat="40.866995" lon="14.1246317"><ele>65.33333333333333</ele><time>2026-04-09T14:53:25.684Z</time></trkpt><trkpt lat="40.8670467" lon="14.1247033"><ele>68.0</ele><time>2026-04-09T14:53:27.685Z</time></trkpt><trkpt lat="40.8670433" lon="14.1247967"><ele>70.66666666666666</ele><time>2026-04-09T14:53:29.684Z</time></trkpt><trkpt lat="40.867" lon="14.1248833"><ele>73.33333333333333</ele><time>2026-04-09T14:53:31.684Z</time></trkpt><trkpt lat="40.8669383" lon="14.1249733"><ele>76.0</ele><time>2026-04-09T14:53:33.684Z</time></trkpt><trkpt lat="40.8668733" lon="14.12507"><ele>76.6</ele><time>2026-04-09T14:53:35.685Z</time></trkpt><trkpt lat="40.866795" lon="14.12517"><ele>77.19999999999999</ele><time>2026-04-09T14:53:37.685Z</time></trkpt><trkpt lat="40.866705" lon="14.1252617"><ele>77.80000000000001</ele><time>2026-04-09T14:53:39.684Z</time></trkpt><trkpt lat="40.866615" lon="14.1253633"><ele>78.4</ele><time>2026-04-09T14:53:41.685Z</time></trkpt><trkpt lat="40.86654" lon="14.1254583"><ele>79.0</ele><time>2026-04-09T14:53:43.684Z</time></trkpt><trkpt lat="40.8664583" lon="14.1255633"><ele>77.8</ele><time>2026-04-09T14:53:45.684Z</time></trkpt><trkpt lat="40.866385" lon="14.1256633"><ele>76.60000000000001</ele><time>2026-04-09T14:53:47.685Z</time></trkpt><trkpt lat="40.8663067" lon="14.12576"><ele>75.4</ele><time>2026-04-09T14:53:49.686Z</time></trkpt><trkpt lat="40.866225" lon="14.1258667"><ele>74.2</ele><time>2026-04-09T14:53:51.685Z</time></trkpt><trkpt lat="40.86615" lon="14.1259617"><ele>73.0</ele><time>2026-04-09T14:53:53.685Z</time></trkpt><trkpt lat="40.8660717" lon="14.1260667"><ele>73.0</ele><time>2026-04-09T14:53:55.685Z</time></trkpt><trkpt lat="40.865985" lon="14.126165"><ele>73.0</ele><time>2026-04-09T14:53:57.684Z</time></trkpt><trkpt lat="40.8659033" lon="14.1262683"><ele>73.0</ele><time>2026-04-09T14:53:59.683Z</time></trkpt><trkpt lat="40.865825" lon="14.1263667"><ele>73.0</ele><time>2026-04-09T14:54:01.684Z</time></trkpt><trkpt lat="40.86574" lon="14.1264683"><ele>71.6</ele><time>2026-04-09T14:54:03.685Z</time></trkpt><trkpt lat="40.8656633" lon="14.1265633"><ele>70.19999999999999</ele><time>2026-04-09T14:54:05.683Z</time></trkpt><trkpt lat="40.8655867" lon="14.1266617"><ele>68.8</ele><time>2026-04-09T14:54:07.686Z</time></trkpt><trkpt lat="40.8655133" lon="14.1267617"><ele>67.39999999999999</ele><time>2026-04-09T14:54:09.683Z</time></trkpt><trkpt lat="40.8654383" lon="14.1268583"><ele>66.0</ele><time>2026-04-09T14:54:11.684Z</time></trkpt><trkpt lat="40.8653683" lon="14.1269567"><ele>66.0</ele><time>2026-04-09T14:54:13.684Z</time></trkpt><trkpt lat="40.8652917" lon="14.1270517"><ele>66.0</ele><time>2026-04-09T14:54:15.686Z</time></trkpt><trkpt lat="40.8652167" lon="14.1271483"><ele>66.0</ele><time>2026-04-09T14:54:17.686Z</time></trkpt><trkpt lat="40.8651383" lon="14.12725"><ele>66.0</ele><time>2026-04-09T14:54:19.686Z</time></trkpt><trkpt lat="40.8650633" lon="14.1273567"><ele>66.0</ele><time>2026-04-09T14:54:21.684Z</time></trkpt><trkpt lat="40.8649867" lon="14.127465"><ele>66.0</ele><time>2026-04-09T14:54:23.684Z</time></trkpt><trkpt lat="40.8649033" lon="14.12757"><ele>66.0</ele><time>2026-04-09T14:54:25.684Z</time></trkpt><trkpt lat="40.8648183" lon="14.1276683"><ele>66.0</ele><time>2026-04-09T14:54:27.684Z</time></trkpt><trkpt lat="40.86474" lon="14.1277733"><ele>66.0</ele><time>2026-04-09T14:54:29.684Z</time></trkpt><trkpt lat="40.8646633" lon="14.1278767"><ele>66.0</ele><time>2026-04-09T14:54:31.686Z</time></trkpt><trkpt lat="40.8645867" lon="14.1279783"><ele>66.0</ele><time>2026-04-09T14:54:33.684Z</time></trkpt><trkpt lat="40.864505" lon="14.1280717"><ele>66.0</ele><time>2026-04-09T14:54:35.684Z</time></trkpt><trkpt lat="40.86443" lon="14.1281683"><ele>66.0</ele><time>2026-04-09T14:54:37.684Z</time></trkpt><trkpt lat="40.86435" lon="14.1282683"><ele>66.0</ele><time>2026-04-09T14:54:39.684Z</time></trkpt><trkpt lat="40.8642783" lon="14.128385"><ele>66.0</ele><time>2026-04-09T14:54:41.684Z</time></trkpt><trkpt lat="40.86422" lon="14.12852"><ele>66.5</ele><time>2026-04-09T14:54:43.684Z</time></trkpt><trkpt lat="40.8641767" lon="14.1286567"><ele>67.0</ele><time>2026-04-09T14:54:45.684Z</time></trkpt><trkpt lat="40.8641467" lon="14.1287967"><ele>67.5</ele><time>2026-04-09T14:54:47.684Z</time></trkpt><trkpt lat="40.8641283" lon="14.128955"><ele>68.0</ele><time>2026-04-09T14:54:49.685Z</time></trkpt><trkpt lat="40.8641117" lon="14.1291067"><ele>68.5</ele><time>2026-04-09T14:54:51.684Z</time></trkpt><trkpt lat="40.864105" lon="14.129255"><ele>69.0</ele><time>2026-04-09T14:54:53.684Z</time></trkpt><trkpt lat="40.8641017" lon="14.1294033"><ele>69.5</ele><time>2026-04-09T14:54:55.684Z</time></trkpt><trkpt lat="40.8640933" lon="14.1295517"><ele>70.0</ele><time>2026-04-09T14:54:57.685Z</time></trkpt><trkpt lat="40.8640983" lon="14.1297017"><ele>70.0</ele><time>2026-04-09T14:54:59.684Z</time></trkpt><trkpt lat="40.8641033" lon="14.1298533"><ele>70.0</ele><time>2026-04-09T14:55:01.684Z</time></trkpt><trkpt lat="40.8641067" lon="14.1299983"><ele>70.0</ele><time>2026-04-09T14:55:03.683Z</time></trkpt><trkpt lat="40.8641067" lon="14.1301367"><ele>70.0</ele><time>2026-04-09T14:55:05.684Z</time></trkpt><trkpt lat="40.86411" lon="14.1302683"><ele>70.0</ele><time>2026-04-09T14:55:07.684Z</time></trkpt><trkpt lat="40.8641117" lon="14.1303967"><ele>70.0</ele><time>2026-04-09T14:55:09.685Z</time></trkpt><trkpt lat="40.8641167" lon="14.1305133"><ele>70.0</ele><time>2026-04-09T14:55:11.687Z</time></trkpt><trkpt lat="40.8641217" lon="14.13063"><ele>70.0</ele><time>2026-04-09T14:55:13.685Z</time></trkpt><trkpt lat="40.8641283" lon="14.1307517"><ele>70.0</ele><time>2026-04-09T14:55:15.684Z</time></trkpt><trkpt lat="40.8641383" lon="14.130875"><ele>70.0</ele><time>2026-04-09T14:55:17.685Z</time></trkpt><trkpt lat="40.8641433" lon="14.1309933"><ele>70.6</ele><time>2026-04-09T14:55:19.684Z</time></trkpt><trkpt lat="40.864155" lon="14.1311133"><ele>71.2</ele><time>2026-04-09T14:55:21.684Z</time></trkpt><trkpt lat="40.8641733" lon="14.13123"><ele>71.8</ele><time>2026-04-09T14:55:23.685Z</time></trkpt><trkpt lat="40.8641933" lon="14.1313467"><ele>72.4</ele><time>2026-04-09T14:55:25.685Z</time></trkpt><trkpt lat="40.8642017" lon="14.131465"><ele>73.0</ele><time>2026-04-09T14:55:27.684Z</time></trkpt><trkpt lat="40.8642267" lon="14.1315917"><ele>73.8</ele><time>2026-04-09T14:55:29.685Z</time></trkpt><trkpt lat="40.8642433" lon="14.131715"><ele>74.6</ele><time>2026-04-09T14:55:31.685Z</time></trkpt><trkpt lat="40.8642567" lon="14.1318367"><ele>75.4</ele><time>2026-04-09T14:55:33.684Z</time></trkpt><trkpt lat="40.86427" lon="14.1319617"><ele>76.2</ele><time>2026-04-09T14:55:35.685Z</time></trkpt><trkpt lat="40.8642833" lon="14.1320817"><ele>77.0</ele><time>2026-04-09T14:55:37.684Z</time></trkpt><trkpt lat="40.864295" lon="14.1321983"><ele>77.33333333333334</ele><time>2026-04-09T14:55:39.685Z</time></trkpt><trkpt lat="40.8643117" lon="14.132315"><ele>77.66666666666667</ele><time>2026-04-09T14:55:41.685Z</time></trkpt><trkpt lat="40.8643367" lon="14.1324233"><ele>78.0</ele><time>2026-04-09T14:55:43.685Z</time></trkpt><trkpt lat="40.8643483" lon="14.132535"><ele>78.33333333333333</ele><time>2026-04-09T14:55:45.685Z</time></trkpt><trkpt lat="40.8643633" lon="14.1326467"><ele>78.66666666666666</ele><time>2026-04-09T14:55:47.684Z</time></trkpt><trkpt lat="40.8643817" lon="14.1327567"><ele>79.0</ele><time>2026-04-09T14:55:49.684Z</time></trkpt><trkpt lat="40.8643933" lon="14.1328717"><ele>79.0</ele><time>2026-04-09T14:55:51.685Z</time></trkpt><trkpt lat="40.8644067" lon="14.13299"><ele>79.0</ele><time>2026-04-09T14:55:53.684Z</time></trkpt><trkpt lat="40.8644283" lon="14.13311"><ele>79.0</ele><time>2026-04-09T14:55:55.686Z</time></trkpt><trkpt lat="40.864445" lon="14.1332333"><ele>79.0</ele><time>2026-04-09T14:55:57.684Z</time></trkpt><trkpt lat="40.86446" lon="14.13335"><ele>79.0</ele><time>2026-04-09T14:55:59.684Z</time></trkpt><trkpt lat="40.8644717" lon="14.1334633"><ele>79.16666666666666</ele><time>2026-04-09T14:56:01.684Z</time></trkpt><trkpt lat="40.8644917" lon="14.1335783"><ele>79.33333333333333</ele><time>2026-04-09T14:56:03.684Z</time></trkpt><trkpt lat="40.8645033" lon="14.1336917"><ele>79.5</ele><time>2026-04-09T14:56:05.684Z</time></trkpt><trkpt lat="40.86452" lon="14.1338083"><ele>79.66666666666667</ele><time>2026-04-09T14:56:07.684Z</time></trkpt><trkpt lat="40.8645383" lon="14.1339267"><ele>79.83333333333334</ele><time>2026-04-09T14:56:09.684Z</time></trkpt><trkpt lat="40.86455" lon="14.1340467"><ele>80.0</ele><time>2026-04-09T14:56:11.684Z</time></trkpt><trkpt lat="40.8645733" lon="14.134165"><ele>80.4</ele><time>2026-04-09T14:56:13.684Z</time></trkpt><trkpt lat="40.864595" lon="14.1342933"><ele>80.8</ele><time>2026-04-09T14:56:15.685Z</time></trkpt><trkpt lat="40.864605" lon="14.134415"><ele>81.19999999999999</ele><time>2026-04-09T14:56:17.684Z</time></trkpt><trkpt lat="40.8646117" lon="14.1345333"><ele>81.6</ele><time>2026-04-09T14:56:19.684Z</time></trkpt><trkpt lat="40.8646267" lon="14.1346517"><ele>82.0</ele><time>2026-04-09T14:56:21.684Z</time></trkpt><trkpt lat="40.8646317" lon="14.1347683"><ele>82.33333333333333</ele><time>2026-04-09T14:56:23.684Z</time></trkpt><trkpt lat="40.86463" lon="14.1348883"><ele>82.66666666666666</ele><time>2026-04-09T14:56:25.684Z</time></trkpt><trkpt lat="40.8646367" lon="14.1350133"><ele>83.0</ele><time>2026-04-09T14:56:27.684Z</time></trkpt><trkpt lat="40.86464" lon="14.1351367"><ele>83.33333333333333</ele><time>2026-04-09T14:56:29.685Z</time></trkpt><trkpt lat="40.864645" lon="14.1352517"><ele>83.66666666666667</ele><time>2026-04-09T14:56:31.684Z</time></trkpt><trkpt lat="40.8646433" lon="14.1353617"><ele>84.0</ele><time>2026-04-09T14:56:33.684Z</time></trkpt><trkpt lat="40.8646433" lon="14.1354733"><ele>84.0</ele><time>2026-04-09T14:56:35.684Z</time></trkpt><trkpt lat="40.8646483" lon="14.135595"><ele>84.0</ele><time>2026-04-09T14:56:37.687Z</time></trkpt><trkpt lat="40.8646483" lon="14.1357083"><ele>84.0</ele><time>2026-04-09T14:56:39.685Z</time></trkpt><trkpt lat="40.8646433" lon="14.1358233"><ele>84.0</ele><time>2026-04-09T14:56:41.684Z</time></trkpt><trkpt lat="40.8646383" lon="14.135935"><ele>84.0</ele><time>2026-04-09T14:56:43.685Z</time></trkpt><trkpt lat="40.8646383" lon="14.1360433"><ele>84.0</ele><time>2026-04-09T14:56:45.684Z</time></trkpt><trkpt lat="40.8646183" lon="14.136155"><ele>84.5</ele><time>2026-04-09T14:56:47.684Z</time></trkpt><trkpt lat="40.8645933" lon="14.1362667"><ele>85.0</ele><time>2026-04-09T14:56:49.686Z</time></trkpt><trkpt lat="40.86457" lon="14.1363767"><ele>85.5</ele><time>2026-04-09T14:56:51.684Z</time></trkpt><trkpt lat="40.8645417" lon="14.1364817"><ele>86.0</ele><time>2026-04-09T14:56:53.684Z</time></trkpt><trkpt lat="40.8645017" lon="14.1365833"><ele>86.5</ele><time>2026-04-09T14:56:55.684Z</time></trkpt><trkpt lat="40.8644683" lon="14.1366883"><ele>87.0</ele><time>2026-04-09T14:56:57.686Z</time></trkpt><trkpt lat="40.8644317" lon="14.136785"><ele>87.71428571428571</ele><time>2026-04-09T14:56:59.684Z</time></trkpt><trkpt lat="40.8643933" lon="14.13688"><ele>88.42857142857143</ele><time>2026-04-09T14:57:01.684Z</time></trkpt><trkpt lat="40.8643433" lon="14.1369583"><ele>89.14285714285714</ele><time>2026-04-09T14:57:03.684Z</time></trkpt><trkpt lat="40.8643033" lon="14.13703"><ele>89.85714285714286</ele><time>2026-04-09T14:57:05.684Z</time></trkpt><trkpt lat="40.864265" lon="14.1371033"><ele>90.57142857142857</ele><time>2026-04-09T14:57:07.684Z</time></trkpt><trkpt lat="40.8642283" lon="14.13719"><ele>91.28571428571429</ele><time>2026-04-09T14:57:09.685Z</time></trkpt><trkpt lat="40.8641883" lon="14.13727"><ele>92.0</ele><time>2026-04-09T14:57:11.684Z</time></trkpt><trkpt lat="40.8641517" lon="14.1373483"><ele>93.28571428571429</ele><time>2026-04-09T14:57:13.684Z</time></trkpt><trkpt lat="40.8641167" lon="14.1374217"><ele>94.57142857142857</ele><time>2026-04-09T14:57:15.685Z</time></trkpt><trkpt lat="40.86407" lon="14.1374917"><ele>95.85714285714286</ele><time>2026-04-09T14:57:17.684Z</time></trkpt><trkpt lat="40.8640317" lon="14.1375767"><ele>97.14285714285714</ele><time>2026-04-09T14:57:19.684Z</time></trkpt><trkpt lat="40.8639883" lon="14.1376567"><ele>98.42857142857142</ele><time>2026-04-09T14:57:21.684Z</time></trkpt><trkpt lat="40.8639533" lon="14.1377317"><ele>99.71428571428571</ele><time>2026-04-09T14:57:23.684Z</time></trkpt><trkpt lat="40.8639217" lon="14.1378183"><ele>101.0</ele><time>2026-04-09T14:57:25.684Z</time></trkpt><trkpt lat="40.863885" lon="14.1378867"><ele>100.99999999999999</ele><time>2026-04-09T14:57:27.684Z</time></trkpt><trkpt lat="40.8638283" lon="14.1379917"><ele>101.0</ele><time>2026-04-09T14:57:30.685Z</time></trkpt><trkpt lat="40.8638083" lon="14.1380783"><ele>101.0</ele><time>2026-04-09T14:57:32.684Z</time></trkpt><trkpt lat="40.8637817" lon="14.138185"><ele>101.0</ele><time>2026-04-09T14:57:34.685Z</time></trkpt><trkpt lat="40.8637567" lon="14.1383033"><ele>100.99999999999999</ele><time>2026-04-09T14:57:36.684Z</time></trkpt><trkpt lat="40.8637367" lon="14.138415"><ele>101.0</ele><time>2026-04-09T14:57:38.685Z</time></trkpt><trkpt lat="40.8637267" lon="14.1385333"><ele>102.66666666666666</ele><time>2026-04-09T14:57:40.684Z</time></trkpt><trkpt lat="40.8637033" lon="14.1386317"><ele>104.33333333333333</ele><time>2026-04-09T14:57:42.684Z</time></trkpt><trkpt lat="40.86367" lon="14.1387283"><ele>106.0</ele><time>2026-04-09T14:57:44.685Z</time></trkpt><trkpt lat="40.86363" lon="14.1388233"><ele>107.66666666666666</ele><time>2026-04-09T14:57:46.686Z</time></trkpt><trkpt lat="40.863585" lon="14.1389233"><ele>109.33333333333333</ele><time>2026-04-09T14:57:48.684Z</time></trkpt><trkpt lat="40.86355" lon="14.13903"><ele>111.0</ele><time>2026-04-09T14:57:50.684Z</time></trkpt><trkpt lat="40.8634967" lon="14.1391383"><ele>110.19999999999999</ele><time>2026-04-09T14:57:52.684Z</time></trkpt><trkpt lat="40.863435" lon="14.1392333"><ele>109.39999999999999</ele><time>2026-04-09T14:57:54.684Z</time></trkpt><trkpt lat="40.8633867" lon="14.1393383"><ele>108.6</ele><time>2026-04-09T14:57:56.688Z</time></trkpt><trkpt lat="40.863355" lon="14.13945"><ele>107.8</ele><time>2026-04-09T14:57:58.684Z</time></trkpt><trkpt lat="40.86331" lon="14.139555"><ele>107.0</ele><time>2026-04-09T14:58:00.684Z</time></trkpt><trkpt lat="40.8632617" lon="14.13965"><ele>107.0</ele><time>2026-04-09T14:58:02.684Z</time></trkpt><trkpt lat="40.8632133" lon="14.1397433"><ele>107.0</ele><time>2026-04-09T14:58:04.684Z</time></trkpt><trkpt lat="40.8631383" lon="14.1398383"><ele>107.0</ele><time>2026-04-09T14:58:06.685Z</time></trkpt><trkpt lat="40.8631117" lon="14.1400333"><ele>107.0</ele><time>2026-04-09T14:58:08.685Z</time></trkpt><trkpt lat="40.8630733" lon="14.1401867"><ele>106.83333333333333</ele><time>2026-04-09T14:58:10.685Z</time></trkpt><trkpt lat="40.86301" lon="14.1403233"><ele>106.66666666666666</ele><time>2026-04-09T14:58:12.684Z</time></trkpt><trkpt lat="40.86297" lon="14.1403933"><ele>106.5</ele><time>2026-04-09T14:58:13.685Z</time></trkpt><trkpt lat="40.8629283" lon="14.140465"><ele>106.33333333333334</ele><time>2026-04-09T14:58:14.685Z</time></trkpt><trkpt lat="40.862885" lon="14.14054"><ele>106.16666666666667</ele><time>2026-04-09T14:58:15.684Z</time></trkpt><trkpt lat="40.8628433" lon="14.140625"><ele>106.0</ele><time>2026-04-09T14:58:16.691Z</time></trkpt><trkpt lat="40.862805" lon="14.1407133"><ele>105.16666666666667</ele><time>2026-04-09T14:58:17.688Z</time></trkpt><trkpt lat="40.8627567" lon="14.1408017"><ele>104.33333333333334</ele><time>2026-04-09T14:58:18.685Z</time></trkpt><trkpt lat="40.86271" lon="14.1408917"><ele>103.5</ele><time>2026-04-09T14:58:19.684Z</time></trkpt><trkpt lat="40.8626583" lon="14.14098"><ele>102.66666666666666</ele><time>2026-04-09T14:58:20.685Z</time></trkpt><trkpt lat="40.862605" lon="14.1410683"><ele>101.83333333333333</ele><time>2026-04-09T14:58:21.684Z</time></trkpt><trkpt lat="40.86255" lon="14.1411633"><ele>101.0</ele><time>2026-04-09T14:58:22.684Z</time></trkpt><trkpt lat="40.8624917" lon="14.14126"><ele>100.8</ele><time>2026-04-09T14:58:23.685Z</time></trkpt><trkpt lat="40.862435" lon="14.1413583"><ele>100.6</ele><time>2026-04-09T14:58:24.684Z</time></trkpt><trkpt lat="40.8623817" lon="14.1414517"><ele>100.4</ele><time>2026-04-09T14:58:25.684Z</time></trkpt><trkpt lat="40.8623217" lon="14.1415483"><ele>100.2</ele><time>2026-04-09T14:58:26.69Z</time></trkpt><trkpt lat="40.8622717" lon="14.141645"><ele>100.0</ele><time>2026-04-09T14:58:27.684Z</time></trkpt><trkpt lat="40.8622217" lon="14.1417417"><ele>99.66666666666667</ele><time>2026-04-09T14:58:28.684Z</time></trkpt><trkpt lat="40.8621633" lon="14.1418283"><ele>99.33333333333334</ele><time>2026-04-09T14:58:29.684Z</time></trkpt><trkpt lat="40.8621" lon="14.1419083"><ele>99.0</ele><time>2026-04-09T14:58:30.684Z</time></trkpt><trkpt lat="40.8620367" lon="14.1419783"><ele>98.66666666666666</ele><time>2026-04-09T14:58:31.686Z</time></trkpt><trkpt lat="40.86197" lon="14.142035"><ele>98.33333333333333</ele><time>2026-04-09T14:58:32.684Z</time></trkpt><trkpt lat="40.8619033" lon="14.1420783"><ele>98.0</ele><time>2026-04-09T14:58:33.685Z</time></trkpt><trkpt lat="40.861835" lon="14.1421133"><ele>98.16666666666666</ele><time>2026-04-09T14:58:34.685Z</time></trkpt><trkpt lat="40.8617717" lon="14.1421417"><ele>98.33333333333333</ele><time>2026-04-09T14:58:35.684Z</time></trkpt><trkpt lat="40.8616533" lon="14.1421833"><ele>98.5</ele><time>2026-04-09T14:58:37.684Z</time></trkpt><trkpt lat="40.8615867" lon="14.1421967"><ele>98.66666666666666</ele><time>2026-04-09T14:58:38.685Z</time></trkpt><trkpt lat="40.8615233" lon="14.142205"><ele>98.83333333333333</ele><time>2026-04-09T14:58:39.685Z</time></trkpt><trkpt lat="40.86141" lon="14.1422217"><ele>99.0</ele><time>2026-04-09T14:58:41.685Z</time></trkpt><trkpt lat="40.861315" lon="14.1422183"><ele>99.0</ele><time>2026-04-09T14:58:43.686Z</time></trkpt><trkpt lat="40.86122" lon="14.1422033"><ele>99.0</ele><time>2026-04-09T14:58:45.684Z</time></trkpt><trkpt lat="40.8611233" lon="14.142195"><ele>99.0</ele><time>2026-04-09T14:58:47.684Z</time></trkpt><trkpt lat="40.86103" lon="14.142185"><ele>99.0</ele><time>2026-04-09T14:58:49.684Z</time></trkpt><trkpt lat="40.8609383" lon="14.1421683"><ele>99.0</ele><time>2026-04-09T14:58:51.684Z</time></trkpt><trkpt lat="40.8608417" lon="14.142155"><ele>99.80000000000001</ele><time>2026-04-09T14:58:53.686Z</time></trkpt><trkpt lat="40.86074" lon="14.14213"><ele>100.60000000000001</ele><time>2026-04-09T14:58:55.684Z</time></trkpt><trkpt lat="40.86064" lon="14.1421033"><ele>101.4</ele><time>2026-04-09T14:58:57.684Z</time></trkpt><trkpt lat="40.8605417" lon="14.1420783"><ele>102.2</ele><time>2026-04-09T14:58:59.685Z</time></trkpt><trkpt lat="40.8604483" lon="14.142055"><ele>103.0</ele><time>2026-04-09T14:59:01.684Z</time></trkpt><trkpt lat="40.8603567" lon="14.14203"><ele>103.0</ele><time>2026-04-09T14:59:03.684Z</time></trkpt><trkpt lat="40.8602633" lon="14.1420017"><ele>103.0</ele><time>2026-04-09T14:59:05.685Z</time></trkpt><trkpt lat="40.8601717" lon="14.1419667"><ele>103.0</ele><time>2026-04-09T14:59:07.685Z</time></trkpt><trkpt lat="40.86008" lon="14.1419333"><ele>103.0</ele><time>2026-04-09T14:59:09.684Z</time></trkpt><trkpt lat="40.8599867" lon="14.1419117"><ele>103.0</ele><time>2026-04-09T14:59:11.684Z</time></trkpt><trkpt lat="40.859895" lon="14.1418833"><ele>103.60000000000001</ele><time>2026-04-09T14:59:13.685Z</time></trkpt><trkpt lat="40.85981" lon="14.1418533"><ele>104.2</ele><time>2026-04-09T14:59:15.685Z</time></trkpt><trkpt lat="40.859725" lon="14.1418183"><ele>104.8</ele><time>2026-04-09T14:59:17.684Z</time></trkpt><trkpt lat="40.8596367" lon="14.1417967"><ele>105.4</ele><time>2026-04-09T14:59:19.684Z</time></trkpt><trkpt lat="40.8595433" lon="14.141785"><ele>106.0</ele><time>2026-04-09T14:59:21.684Z</time></trkpt><trkpt lat="40.8594467" lon="14.14178"><ele>106.00000000000001</ele><time>2026-04-09T14:59:23.684Z</time></trkpt><trkpt lat="40.8593583" lon="14.1417933"><ele>106.0</ele><time>2026-04-09T14:59:25.684Z</time></trkpt><trkpt lat="40.8592733" lon="14.1418167"><ele>106.0</ele><time>2026-04-09T14:59:27.685Z</time></trkpt><trkpt lat="40.8591883" lon="14.1418533"><ele>106.0</ele><time>2026-04-09T14:59:29.684Z</time></trkpt><trkpt lat="40.8591083" lon="14.1418983"><ele>106.00000000000001</ele><time>2026-04-09T14:59:31.685Z</time></trkpt><trkpt lat="40.859025" lon="14.1419467"><ele>106.0</ele><time>2026-04-09T14:59:33.684Z</time></trkpt><trkpt lat="40.858945" lon="14.142"><ele>106.4</ele><time>2026-04-09T14:59:35.684Z</time></trkpt><trkpt lat="40.8588617" lon="14.1420667"><ele>106.8</ele><time>2026-04-09T14:59:37.685Z</time></trkpt><trkpt lat="40.858775" lon="14.1421283"><ele>107.20000000000002</ele><time>2026-04-09T14:59:39.685Z</time></trkpt><trkpt lat="40.858695" lon="14.1421883"><ele>107.60000000000001</ele><time>2026-04-09T14:59:41.686Z</time></trkpt><trkpt lat="40.8586133" lon="14.142245"><ele>108.0</ele><time>2026-04-09T14:59:43.685Z</time></trkpt><trkpt lat="40.8585317" lon="14.1423117"><ele>107.80000000000001</ele><time>2026-04-09T14:59:45.684Z</time></trkpt><trkpt lat="40.8584383" lon="14.1423683"><ele>107.60000000000001</ele><time>2026-04-09T14:59:47.686Z</time></trkpt><trkpt lat="40.858345" lon="14.14243"><ele>107.39999999999999</ele><time>2026-04-09T14:59:49.684Z</time></trkpt><trkpt lat="40.8582533" lon="14.1424867"><ele>107.19999999999999</ele><time>2026-04-09T14:59:51.684Z</time></trkpt><trkpt lat="40.8581583" lon="14.14255"><ele>107.0</ele><time>2026-04-09T14:59:53.685Z</time></trkpt><trkpt lat="40.85807" lon="14.1426267"><ele>107.0</ele><time>2026-04-09T14:59:55.684Z</time></trkpt><trkpt lat="40.8579767" lon="14.1426933"><ele>106.99999999999999</ele><time>2026-04-09T14:59:57.684Z</time></trkpt><trkpt lat="40.857885" lon="14.1427583"><ele>106.99999999999999</ele><time>2026-04-09T14:59:59.683Z</time></trkpt><trkpt lat="40.8578017" lon="14.1428133"><ele>107.0</ele><time>2026-04-09T15:00:01.684Z</time></trkpt><trkpt lat="40.85772" lon="14.1428667"><ele>107.0</ele><time>2026-04-09T15:00:03.684Z</time></trkpt><trkpt lat="40.85763" lon="14.1429267"><ele>107.8</ele><time>2026-04-09T15:00:05.683Z</time></trkpt><trkpt lat="40.8575433" lon="14.14297"><ele>108.6</ele><time>2026-04-09T15:00:07.684Z</time></trkpt><trkpt lat="40.8574467" lon="14.143035"><ele>109.39999999999999</ele><time>2026-04-09T15:00:09.684Z</time></trkpt><trkpt lat="40.85735" lon="14.1430967"><ele>110.19999999999999</ele><time>2026-04-09T15:00:11.684Z</time></trkpt><trkpt lat="40.85726" lon="14.1431533"><ele>111.0</ele><time>2026-04-09T15:00:13.684Z</time></trkpt><trkpt lat="40.85717" lon="14.1432217"><ele>111.0</ele><time>2026-04-09T15:00:15.684Z</time></trkpt><trkpt lat="40.85708" lon="14.1432833"><ele>111.0</ele><time>2026-04-09T15:00:17.683Z</time></trkpt><trkpt lat="40.8569933" lon="14.1433517"><ele>111.0</ele><time>2026-04-09T15:00:19.683Z</time></trkpt><trkpt lat="40.8569067" lon="14.1434133"><ele>111.0</ele><time>2026-04-09T15:00:21.687Z</time></trkpt><trkpt lat="40.8568067" lon="14.1434667"><ele>111.0</ele><time>2026-04-09T15:00:23.684Z</time></trkpt><trkpt lat="40.856715" lon="14.1435317"><ele>111.8</ele><time>2026-04-09T15:00:25.685Z</time></trkpt><trkpt lat="40.8566267" lon="14.143605"><ele>112.6</ele><time>2026-04-09T15:00:27.684Z</time></trkpt><trkpt lat="40.8565317" lon="14.14367"><ele>113.4</ele><time>2026-04-09T15:00:29.683Z</time></trkpt><trkpt lat="40.856445" lon="14.1437533"><ele>114.2</ele><time>2026-04-09T15:00:31.685Z</time></trkpt><trkpt lat="40.8563833" lon="14.1438633"><ele>115.0</ele><time>2026-04-09T15:00:33.683Z</time></trkpt><trkpt lat="40.8563483" lon="14.1440017"><ele>114.25</ele><time>2026-04-09T15:00:35.683Z</time></trkpt><trkpt lat="40.8563433" lon="14.1441533"><ele>113.5</ele><time>2026-04-09T15:00:37.684Z</time></trkpt><trkpt lat="40.8563567" lon="14.1443017"><ele>112.75</ele><time>2026-04-09T15:00:39.684Z</time></trkpt><trkpt lat="40.8563783" lon="14.1444483"><ele>112.0</ele><time>2026-04-09T15:00:41.684Z</time></trkpt><trkpt lat="40.8563933" lon="14.144595"><ele>112.0</ele><time>2026-04-09T15:00:43.684Z</time></trkpt><trkpt lat="40.8564117" lon="14.1447467"><ele>112.0</ele><time>2026-04-09T15:00:45.684Z</time></trkpt><trkpt lat="40.856425" lon="14.1448933"><ele>112.0</ele><time>2026-04-09T15:00:47.685Z</time></trkpt><trkpt lat="40.8564483" lon="14.1450417"><ele>112.0</ele><time>2026-04-09T15:00:49.683Z</time></trkpt><trkpt lat="40.8564717" lon="14.1451833"><ele>111.8</ele><time>2026-04-09T15:00:51.684Z</time></trkpt><trkpt lat="40.8564967" lon="14.1453283"><ele>111.6</ele><time>2026-04-09T15:00:53.684Z</time></trkpt><trkpt lat="40.8565033" lon="14.1454717"><ele>111.39999999999999</ele><time>2026-04-09T15:00:55.684Z</time></trkpt><trkpt lat="40.8565083" lon="14.1456167"><ele>111.19999999999999</ele><time>2026-04-09T15:00:57.684Z</time></trkpt><trkpt lat="40.8565167" lon="14.1457583"><ele>111.0</ele><time>2026-04-09T15:00:59.685Z</time></trkpt><trkpt lat="40.8565217" lon="14.1458967"><ele>111.4</ele><time>2026-04-09T15:01:01.684Z</time></trkpt><trkpt lat="40.8565117" lon="14.1460383"><ele>111.8</ele><time>2026-04-09T15:01:03.685Z</time></trkpt><trkpt lat="40.8564833" lon="14.1461817"><ele>112.20000000000002</ele><time>2026-04-09T15:01:05.683Z</time></trkpt><trkpt lat="40.8564533" lon="14.1463167"><ele>112.60000000000001</ele><time>2026-04-09T15:01:07.685Z</time></trkpt><trkpt lat="40.85641" lon="14.1464483"><ele>113.0</ele><time>2026-04-09T15:01:09.684Z</time></trkpt><trkpt lat="40.85635" lon="14.1465633"><ele>113.80000000000001</ele><time>2026-04-09T15:01:11.685Z</time></trkpt><trkpt lat="40.856285" lon="14.1466667"><ele>114.60000000000001</ele><time>2026-04-09T15:01:13.684Z</time></trkpt><trkpt lat="40.8562183" lon="14.1467683"><ele>115.39999999999999</ele><time>2026-04-09T15:01:15.684Z</time></trkpt><trkpt lat="40.856165" lon="14.146875"><ele>116.19999999999999</ele><time>2026-04-09T15:01:17.684Z</time></trkpt><trkpt lat="40.8561067" lon="14.1469817"><ele>117.0</ele><time>2026-04-09T15:01:19.684Z</time></trkpt><trkpt lat="40.8560417" lon="14.1470833"><ele>117.0</ele><time>2026-04-09T15:01:21.683Z</time></trkpt><trkpt lat="40.8559817" lon="14.14717"><ele>117.0</ele><time>2026-04-09T15:01:23.684Z</time></trkpt><trkpt lat="40.855925" lon="14.1472583"><ele>117.0</ele><time>2026-04-09T15:01:25.684Z</time></trkpt><trkpt lat="40.855875" lon="14.1473267"><ele>117.0</ele><time>2026-04-09T15:01:27.685Z</time></trkpt><trkpt lat="40.8558217" lon="14.1473833"><ele>117.0</ele><time>2026-04-09T15:01:29.684Z</time></trkpt><trkpt lat="40.8557717" lon="14.1474483"><ele>117.0</ele><time>2026-04-09T15:01:31.684Z</time></trkpt><trkpt lat="40.8557233" lon="14.1475133"><ele>118.33333333333333</ele><time>2026-04-09T15:01:33.683Z</time></trkpt><trkpt lat="40.8556567" lon="14.1475817"><ele>119.66666666666666</ele><time>2026-04-09T15:01:36.684Z</time></trkpt><trkpt lat="40.855585" lon="14.14765"><ele>121.0</ele><time>2026-04-09T15:01:39.686Z</time></trkpt><trkpt lat="40.8555283" lon="14.147725"><ele>122.33333333333333</ele><time>2026-04-09T15:01:42.684Z</time></trkpt><trkpt lat="40.8554817" lon="14.1477883"><ele>123.66666666666666</ele><time>2026-04-09T15:01:44.684Z</time></trkpt><trkpt lat="40.855425" lon="14.147875"><ele>125.0</ele><time>2026-04-09T15:01:47.684Z</time></trkpt><trkpt lat="40.855375" lon="14.147965"><ele>124.99999999999999</ele><time>2026-04-09T15:01:50.684Z</time></trkpt><trkpt lat="40.8553317" lon="14.148045"><ele>125.0</ele><time>2026-04-09T15:01:53.685Z</time></trkpt><trkpt lat="40.8553017" lon="14.14815"><ele>125.0</ele><time>2026-04-09T15:01:56.684Z</time></trkpt><trkpt lat="40.8552467" lon="14.1482533"><ele>125.0</ele><time>2026-04-09T15:01:59.685Z</time></trkpt><trkpt lat="40.8552267" lon="14.1483417"><ele>124.99999999999999</ele><time>2026-04-09T15:02:01.684Z</time></trkpt><trkpt lat="40.8552133" lon="14.148435"><ele>125.0</ele><time>2026-04-09T15:02:03.684Z</time></trkpt><trkpt lat="40.8552017" lon="14.1485267"><ele>125.28571428571428</ele><time>2026-04-09T15:02:05.684Z</time></trkpt><trkpt lat="40.85519" lon="14.148625"><ele>125.57142857142858</ele><time>2026-04-09T15:02:07.686Z</time></trkpt><trkpt lat="40.85519" lon="14.1487317"><ele>125.85714285714286</ele><time>2026-04-09T15:02:09.684Z</time></trkpt><trkpt lat="40.855195" lon="14.1488283"><ele>126.14285714285714</ele><time>2026-04-09T15:02:11.685Z</time></trkpt><trkpt lat="40.8552" lon="14.1489233"><ele>126.42857142857142</ele><time>2026-04-09T15:02:13.685Z</time></trkpt><trkpt lat="40.8552067" lon="14.14901"><ele>126.71428571428572</ele><time>2026-04-09T15:02:15.684Z</time></trkpt><trkpt lat="40.855215" lon="14.1490967"><ele>127.0</ele><time>2026-04-09T15:02:17.685Z</time></trkpt><trkpt lat="40.8552283" lon="14.1491833"><ele>127.57142857142858</ele><time>2026-04-09T15:02:19.684Z</time></trkpt><trkpt lat="40.8552367" lon="14.14927"><ele>128.14285714285714</ele><time>2026-04-09T15:02:21.684Z</time></trkpt><trkpt lat="40.8552417" lon="14.1493583"><ele>128.71428571428572</ele><time>2026-04-09T15:02:23.684Z</time></trkpt><trkpt lat="40.85524" lon="14.1494467"><ele>129.28571428571428</ele><time>2026-04-09T15:02:25.684Z</time></trkpt><trkpt lat="40.8552367" lon="14.14955"><ele>129.85714285714286</ele><time>2026-04-09T15:02:27.684Z</time></trkpt><trkpt lat="40.85523" lon="14.1496467"><ele>130.42857142857144</ele><time>2026-04-09T15:02:29.684Z</time></trkpt><trkpt lat="40.8552167" lon="14.149735"><ele>131.0</ele><time>2026-04-09T15:02:31.684Z</time></trkpt><trkpt lat="40.8552167" lon="14.149825"><ele>131.0</ele><time>2026-04-09T15:02:33.685Z</time></trkpt><trkpt lat="40.855225" lon="14.1499217"><ele>131.0</ele><time>2026-04-09T15:02:35.684Z</time></trkpt><trkpt lat="40.8552367" lon="14.1500417"><ele>131.0</ele><time>2026-04-09T15:02:38.685Z</time></trkpt><trkpt lat="40.8552533" lon="14.1501583"><ele>131.0</ele><time>2026-04-09T15:02:41.684Z</time></trkpt><trkpt lat="40.8552667" lon="14.1502633"><ele>131.0</ele><time>2026-04-09T15:02:44.686Z</time></trkpt><trkpt lat="40.8552783" lon="14.1503867"><ele>131.0</ele><time>2026-04-09T15:02:47.684Z</time></trkpt><trkpt lat="40.85528" lon="14.1504783"><ele>131.0</ele><time>2026-04-09T15:02:49.686Z</time></trkpt><trkpt lat="40.8552783" lon="14.1505683"><ele>131.0</ele><time>2026-04-09T15:02:51.684Z</time></trkpt><trkpt lat="40.8552817" lon="14.1506533"><ele>131.0</ele><time>2026-04-09T15:02:53.684Z</time></trkpt><trkpt lat="40.85529" lon="14.1507383"><ele>131.0</ele><time>2026-04-09T15:02:55.684Z</time></trkpt><trkpt lat="40.8553" lon="14.1508267"><ele>131.0</ele><time>2026-04-09T15:02:57.684Z</time></trkpt><trkpt lat="40.8553017" lon="14.15091"><ele>131.0</ele><time>2026-04-09T15:02:59.684Z</time></trkpt><trkpt lat="40.855305" lon="14.1509933"><ele>131.0</ele><time>2026-04-09T15:03:01.685Z</time></trkpt><trkpt lat="40.8553" lon="14.1510767"><ele>131.66666666666666</ele><time>2026-04-09T15:03:03.684Z</time></trkpt><trkpt lat="40.8552767" lon="14.151195"><ele>132.33333333333331</ele><time>2026-04-09T15:03:06.685Z</time></trkpt><trkpt lat="40.8552567" lon="14.1512767"><ele>133.0</ele><time>2026-04-09T15:03:08.685Z</time></trkpt><trkpt lat="40.8552367" lon="14.15136"><ele>133.66666666666666</ele><time>2026-04-09T15:03:10.684Z</time></trkpt><trkpt lat="40.85521" lon="14.1514667"><ele>134.33333333333334</ele><time>2026-04-09T15:03:13.684Z</time></trkpt><trkpt lat="40.85518" lon="14.15157"><ele>135.0</ele><time>2026-04-09T15:03:16.684Z</time></trkpt><trkpt lat="40.855155" lon="14.1516517"><ele>135.71428571428572</ele><time>2026-04-09T15:03:18.684Z</time></trkpt><trkpt lat="40.8551283" lon="14.1517583"><ele>136.42857142857142</ele><time>2026-04-09T15:03:21.685Z</time></trkpt><trkpt lat="40.8551033" lon="14.1518367"><ele>137.14285714285714</ele><time>2026-04-09T15:03:23.684Z</time></trkpt><trkpt lat="40.8550833" lon="14.1519417"><ele>137.85714285714286</ele><time>2026-04-09T15:03:26.684Z</time></trkpt><trkpt lat="40.855055" lon="14.152025"><ele>138.57142857142856</ele><time>2026-04-09T15:03:28.686Z</time></trkpt><trkpt lat="40.8550283" lon="14.1521067"><ele>139.28571428571428</ele><time>2026-04-09T15:03:30.684Z</time></trkpt><trkpt lat="40.8550067" lon="14.15219"><ele>140.0</ele><time>2026-04-09T15:03:32.683Z</time></trkpt><trkpt lat="40.8549817" lon="14.15227"><ele>140.83333333333331</ele><time>2026-04-09T15:03:34.684Z</time></trkpt><trkpt lat="40.8549583" lon="14.15235"><ele>141.66666666666666</ele><time>2026-04-09T15:03:36.684Z</time></trkpt><trkpt lat="40.8549217" lon="14.15247"><ele>142.5</ele><time>2026-04-09T15:03:39.683Z</time></trkpt><trkpt lat="40.8548917" lon="14.1525567"><ele>143.33333333333334</ele><time>2026-04-09T15:03:41.684Z</time></trkpt><trkpt lat="40.85487" lon="14.152635"><ele>144.16666666666669</ele><time>2026-04-09T15:03:43.684Z</time></trkpt><trkpt lat="40.854845" lon="14.1527467"><ele>145.0</ele><time>2026-04-09T15:03:46.684Z</time></trkpt><trkpt lat="40.8548183" lon="14.152865"><ele>145.42857142857144</ele><time>2026-04-09T15:03:49.686Z</time></trkpt><trkpt lat="40.8547867" lon="14.152985"><ele>145.85714285714286</ele><time>2026-04-09T15:03:52.684Z</time></trkpt><trkpt lat="40.8547667" lon="14.1530717"><ele>146.28571428571428</ele><time>2026-04-09T15:03:54.684Z</time></trkpt><trkpt lat="40.8547467" lon="14.1531583"><ele>146.71428571428572</ele><time>2026-04-09T15:03:56.686Z</time></trkpt><trkpt lat="40.8547333" lon="14.1532467"><ele>147.14285714285714</ele><time>2026-04-09T15:03:58.684Z</time></trkpt><trkpt lat="40.8547283" lon="14.153335"><ele>147.57142857142858</ele><time>2026-04-09T15:04:00.684Z</time></trkpt><trkpt lat="40.8547217" lon="14.1534283"><ele>148.0</ele><time>2026-04-09T15:04:02.684Z</time></trkpt><trkpt lat="40.854715" lon="14.1535117"><ele>148.85714285714286</ele><time>2026-04-09T15:04:04.684Z</time></trkpt><trkpt lat="40.85471" lon="14.153605"><ele>149.71428571428572</ele><time>2026-04-09T15:04:06.685Z</time></trkpt><trkpt lat="40.8547033" lon="14.1536933"><ele>150.57142857142856</ele><time>2026-04-09T15:04:08.684Z</time></trkpt><trkpt lat="40.8546883" lon="14.1537833"><ele>151.42857142857144</ele><time>2026-04-09T15:04:10.684Z</time></trkpt><trkpt lat="40.854665" lon="14.15387"><ele>152.28571428571428</ele><time>2026-04-09T15:04:12.684Z</time></trkpt><trkpt lat="40.8546467" lon="14.1539583"><ele>153.14285714285714</ele><time>2026-04-09T15:04:14.685Z</time></trkpt><trkpt lat="40.8546417" lon="14.1540517"><ele>154.0</ele><time>2026-04-09T15:04:16.684Z</time></trkpt><trkpt lat="40.8546267" lon="14.154145"><ele>154.66666666666669</ele><time>2026-04-09T15:04:18.686Z</time></trkpt><trkpt lat="40.8546017" lon="14.154245"><ele>155.33333333333334</ele><time>2026-04-09T15:04:20.685Z</time></trkpt><trkpt lat="40.8545817" lon="14.1543417"><ele>156.0</ele><time>2026-04-09T15:04:22.684Z</time></trkpt><trkpt lat="40.854565" lon="14.1544433"><ele>156.66666666666666</ele><time>2026-04-09T15:04:24.684Z</time></trkpt><trkpt lat="40.854555" lon="14.1545483"><ele>157.33333333333331</ele><time>2026-04-09T15:04:26.684Z</time></trkpt><trkpt lat="40.85456" lon="14.154655"><ele>158.0</ele><time>2026-04-09T15:04:28.685Z</time></trkpt><trkpt lat="40.8545567" lon="14.15476"><ele>158.00000000000003</ele><time>2026-04-09T15:04:30.686Z</time></trkpt><trkpt lat="40.854565" lon="14.1548683"><ele>158.0</ele><time>2026-04-09T15:04:32.686Z</time></trkpt><trkpt lat="40.8545683" lon="14.154965"><ele>158.0</ele><time>2026-04-09T15:04:34.685Z</time></trkpt><trkpt lat="40.8545733" lon="14.155055"><ele>158.0</ele><time>2026-04-09T15:04:36.69Z</time></trkpt><trkpt lat="40.8545867" lon="14.1551433"><ele>158.0</ele><time>2026-04-09T15:04:38.688Z</time></trkpt><trkpt lat="40.8546033" lon="14.155235"><ele>158.00000000000003</ele><time>2026-04-09T15:04:40.685Z</time></trkpt><trkpt lat="40.8546383" lon="14.155325"><ele>158.0</ele><time>2026-04-09T15:04:42.687Z</time></trkpt><trkpt lat="40.8546733" lon="14.155405"><ele>159.0</ele><time>2026-04-09T15:04:44.687Z</time></trkpt><trkpt lat="40.854715" lon="14.1554867"><ele>160.0</ele><time>2026-04-09T15:04:46.687Z</time></trkpt><trkpt lat="40.85478" lon="14.1555883"><ele>161.0</ele><time>2026-04-09T15:04:49.686Z</time></trkpt><trkpt lat="40.854835" lon="14.1556467"><ele>162.0</ele><time>2026-04-09T15:04:51.686Z</time></trkpt><trkpt lat="40.854895" lon="14.1557017"><ele>163.0</ele><time>2026-04-09T15:04:53.686Z</time></trkpt><trkpt lat="40.85496" lon="14.1557433"><ele>164.0</ele><time>2026-04-09T15:04:55.686Z</time></trkpt><trkpt lat="40.8550283" lon="14.1557783"><ele>165.14285714285714</ele><time>2026-04-09T15:04:57.685Z</time></trkpt><trkpt lat="40.8550883" lon="14.15581"><ele>166.28571428571428</ele><time>2026-04-09T15:04:59.686Z</time></trkpt><trkpt lat="40.8551533" lon="14.15583"><ele>167.42857142857144</ele><time>2026-04-09T15:05:01.686Z</time></trkpt><trkpt lat="40.8552233" lon="14.1558617"><ele>168.57142857142856</ele><time>2026-04-09T15:05:03.684Z</time></trkpt><trkpt lat="40.8552967" lon="14.1558783"><ele>169.71428571428572</ele><time>2026-04-09T15:05:05.685Z</time></trkpt><trkpt lat="40.8553683" lon="14.1559017"><ele>170.85714285714286</ele><time>2026-04-09T15:05:07.684Z</time></trkpt><trkpt lat="40.855445" lon="14.155935"><ele>172.0</ele><time>2026-04-09T15:05:09.687Z</time></trkpt><trkpt lat="40.8555133" lon="14.1559817"><ele>172.0</ele><time>2026-04-09T15:05:11.685Z</time></trkpt><trkpt lat="40.8555783" lon="14.1560333"><ele>172.0</ele><time>2026-04-09T15:05:13.687Z</time></trkpt><trkpt lat="40.85564" lon="14.1560917"><ele>172.0</ele><time>2026-04-09T15:05:15.685Z</time></trkpt><trkpt lat="40.855695" lon="14.1561433"><ele>172.0</ele><time>2026-04-09T15:05:17.685Z</time></trkpt><trkpt lat="40.855735" lon="14.15621"><ele>172.0</ele><time>2026-04-09T15:05:20.685Z</time></trkpt><trkpt lat="40.8557967" lon="14.156295"><ele>172.0</ele><time>2026-04-09T15:05:27.69Z</time></trkpt><trkpt lat="40.8558483" lon="14.1563883"><ele>172.0</ele><time>2026-04-09T15:05:30.684Z</time></trkpt><trkpt lat="40.8558933" lon="14.156455"><ele>172.0</ele><time>2026-04-09T15:05:32.685Z</time></trkpt><trkpt lat="40.8559383" lon="14.1565167"><ele>172.0</ele><time>2026-04-09T15:05:34.684Z</time></trkpt><trkpt lat="40.8559933" lon="14.1565917"><ele>172.0</ele><time>2026-04-09T15:05:36.684Z</time></trkpt><trkpt lat="40.8560433" lon="14.156665"><ele>172.0</ele><time>2026-04-09T15:05:38.684Z</time></trkpt><trkpt lat="40.8560883" lon="14.1567383"><ele>172.0</ele><time>2026-04-09T15:05:40.683Z</time></trkpt><trkpt lat="40.8561333" lon="14.1568467"><ele>173.16666666666669</ele><time>2026-04-09T15:05:42.684Z</time></trkpt><trkpt lat="40.85617" lon="14.156955"><ele>174.33333333333334</ele><time>2026-04-09T15:05:44.684Z</time></trkpt><trkpt lat="40.85617" lon="14.157045"><ele>175.5</ele><time>2026-04-09T15:05:46.684Z</time></trkpt><trkpt lat="40.8561517" lon="14.15715"><ele>176.66666666666666</ele><time>2026-04-09T15:05:48.691Z</time></trkpt><trkpt lat="40.85613" lon="14.157265"><ele>177.83333333333331</ele><time>2026-04-09T15:05:50.685Z</time></trkpt><trkpt lat="40.8561033" lon="14.15738"><ele>179.0</ele><time>2026-04-09T15:05:52.684Z</time></trkpt><trkpt lat="40.856075" lon="14.1574867"><ele>179.0</ele><time>2026-04-09T15:05:54.685Z</time></trkpt><trkpt lat="40.856045" lon="14.157595"><ele>179.0</ele><time>2026-04-09T15:05:56.684Z</time></trkpt><trkpt lat="40.8560067" lon="14.1577067"><ele>179.0</ele><time>2026-04-09T15:05:58.684Z</time></trkpt><trkpt lat="40.855965" lon="14.15783"><ele>179.0</ele><time>2026-04-09T15:06:00.688Z</time></trkpt><trkpt lat="40.8559183" lon="14.1579567"><ele>179.0</ele><time>2026-04-09T15:06:02.684Z</time></trkpt><trkpt lat="40.85587" lon="14.1580867"><ele>178.6</ele><time>2026-04-09T15:06:04.684Z</time></trkpt><trkpt lat="40.8558183" lon="14.1582167"><ele>178.2</ele><time>2026-04-09T15:06:06.684Z</time></trkpt><trkpt lat="40.8557783" lon="14.1583467"><ele>177.79999999999998</ele><time>2026-04-09T15:06:08.684Z</time></trkpt><trkpt lat="40.855735" lon="14.1584733"><ele>177.39999999999998</ele><time>2026-04-09T15:06:10.684Z</time></trkpt><trkpt lat="40.8557017" lon="14.1586033"><ele>177.0</ele><time>2026-04-09T15:06:12.684Z</time></trkpt><trkpt lat="40.8556783" lon="14.1587233"><ele>177.0</ele><time>2026-04-09T15:06:14.684Z</time></trkpt><trkpt lat="40.855665" lon="14.1588417"><ele>177.0</ele><time>2026-04-09T15:06:16.683Z</time></trkpt><trkpt lat="40.8556517" lon="14.1589533"><ele>177.0</ele><time>2026-04-09T15:06:18.684Z</time></trkpt><trkpt lat="40.8556233" lon="14.1590533"><ele>177.0</ele><time>2026-04-09T15:06:20.683Z</time></trkpt><trkpt lat="40.85559" lon="14.159135"><ele>177.0</ele><time>2026-04-09T15:06:22.685Z</time></trkpt><trkpt lat="40.8555533" lon="14.1592067"><ele>177.0</ele><time>2026-04-09T15:06:24.684Z</time></trkpt><trkpt lat="40.855485" lon="14.1592133"><ele>176.66666666666666</ele><time>2026-04-09T15:06:28.684Z</time></trkpt><trkpt lat="40.85541" lon="14.1592467"><ele>176.33333333333334</ele><time>2026-04-09T15:06:57.684Z</time></trkpt><trkpt lat="40.8554672" lon="14.1591799"><ele>176.0</ele><time>2026-04-09T15:07:34.78Z</time></trkpt><trkpt lat="40.8555409" lon="14.1591366"><ele>175.66666666666669</ele><time>2026-04-09T15:07:37.81Z</time></trkpt><trkpt lat="40.8556139" lon="14.1591448"><ele>175.33333333333334</ele><time>2026-04-09T15:07:39.729Z</time></trkpt><trkpt lat="40.8556858" lon="14.1591919"><ele>175.0</ele><time>2026-04-09T15:07:41.75Z</time></trkpt><trkpt lat="40.8557664" lon="14.1592242"><ele>175.0</ele><time>2026-04-09T15:07:44.275Z</time></trkpt><trkpt lat="40.8558307" lon="14.1593045"><ele>175.0</ele><time>2026-04-09T15:07:50.678Z</time></trkpt><trkpt lat="40.8558101" lon="14.1593903"><ele>175.0</ele><time>2026-04-09T15:08:03.504Z</time></trkpt><trkpt lat="40.8557119" lon="14.1593148"><ele>175.0</ele><time>2026-04-09T15:08:15.347Z</time></trkpt><trkpt lat="40.8556518" lon="14.159245"><ele>175.0</ele><time>2026-04-09T15:08:16.339Z</time></trkpt><trkpt lat="40.855602" lon="14.1591882"><ele>175.0</ele><time>2026-04-09T15:08:25.405Z</time></trkpt><trkpt lat="40.8555262" lon="14.1592757"><ele>175.0</ele><time>2026-04-09T15:08:27.805Z</time></trkpt><trkpt lat="40.8554735" lon="14.1592038"><ele>175.0</ele><time>2026-04-09T15:09:57.81Z</time></trkpt><trkpt lat="40.8554225" lon="14.1591485"><ele>175.0</ele><time>2026-04-09T15:10:00.741Z</time></trkpt><trkpt lat="40.855361" lon="14.1591666"><ele>175.0</ele><time>2026-04-09T15:10:26.717Z</time></trkpt><trkpt lat="40.8556587" lon="14.1591964"><ele>175.0</ele><time>2026-04-09T15:10:28.685Z</time></trkpt><trkpt lat="40.8557962" lon="14.1592167"><ele>175.0</ele><time>2026-04-09T15:10:30.758Z</time></trkpt><trkpt lat="40.8558842" lon="14.1592153"><ele>175.0</ele><time>2026-04-09T15:10:32.779Z</time></trkpt><trkpt lat="40.8560297" lon="14.1593175"><ele>175.0</ele><time>2026-04-09T15:10:35.686Z</time></trkpt><trkpt lat="40.8561313" lon="14.1593723"><ele>175.0</ele><time>2026-04-09T15:10:37.686Z</time></trkpt><trkpt lat="40.8561991" lon="14.1594651"><ele>175.0</ele><time>2026-04-09T15:10:39.686Z</time></trkpt><trkpt lat="40.8562511" lon="14.1595722"><ele>175.0</ele><time>2026-04-09T15:10:41.687Z</time></trkpt><trkpt lat="40.8562948" lon="14.1597011"><ele>175.0</ele><time>2026-04-09T15:10:43.684Z</time></trkpt><trkpt lat="40.8563562" lon="14.1598496"><ele>175.0</ele><time>2026-04-09T15:10:45.684Z</time></trkpt><trkpt lat="40.8564028" lon="14.1600104"><ele>174.57142857142858</ele><time>2026-04-09T15:10:47.684Z</time></trkpt><trkpt lat="40.8564317" lon="14.1600935"><ele>174.14285714285714</ele><time>2026-04-09T15:10:48.686Z</time></trkpt><trkpt lat="40.8564629" lon="14.1601784"><ele>173.71428571428572</ele><time>2026-04-09T15:10:49.685Z</time></trkpt><trkpt lat="40.8564948" lon="14.160264"><ele>173.28571428571428</ele><time>2026-04-09T15:10:50.684Z</time></trkpt><trkpt lat="40.8565272" lon="14.1603447"><ele>172.85714285714286</ele><time>2026-04-09T15:10:51.684Z</time></trkpt><trkpt lat="40.856561" lon="14.1604277"><ele>172.42857142857144</ele><time>2026-04-09T15:10:52.69Z</time></trkpt><trkpt lat="40.8566013" lon="14.1605139"><ele>172.0</ele><time>2026-04-09T15:10:53.686Z</time></trkpt><trkpt lat="40.8566459" lon="14.160602"><ele>172.0</ele><time>2026-04-09T15:10:54.686Z</time></trkpt><trkpt lat="40.856694" lon="14.1606917"><ele>172.0</ele><time>2026-04-09T15:10:55.685Z</time></trkpt><trkpt lat="40.8567442" lon="14.1607819"><ele>172.0</ele><time>2026-04-09T15:10:56.685Z</time></trkpt><trkpt lat="40.8567987" lon="14.160876"><ele>172.0</ele><time>2026-04-09T15:10:57.685Z</time></trkpt><trkpt lat="40.8568567" lon="14.1609699"><ele>172.0</ele><time>2026-04-09T15:10:58.686Z</time></trkpt><trkpt lat="40.8569144" lon="14.1610594"><ele>172.0</ele><time>2026-04-09T15:10:59.686Z</time></trkpt><trkpt lat="40.8569743" lon="14.1611463"><ele>171.33333333333334</ele><time>2026-04-09T15:11:00.685Z</time></trkpt><trkpt lat="40.857035" lon="14.1612312"><ele>170.66666666666669</ele><time>2026-04-09T15:11:01.686Z</time></trkpt><trkpt lat="40.8570959" lon="14.1613118"><ele>170.0</ele><time>2026-04-09T15:11:02.686Z</time></trkpt><trkpt lat="40.8571577" lon="14.1613927"><ele>169.33333333333334</ele><time>2026-04-09T15:11:03.686Z</time></trkpt><trkpt lat="40.8572249" lon="14.161474"><ele>168.66666666666666</ele><time>2026-04-09T15:11:04.685Z</time></trkpt><trkpt lat="40.8572959" lon="14.1615605"><ele>168.0</ele><time>2026-04-09T15:11:05.686Z</time></trkpt><trkpt lat="40.8573639" lon="14.1616515"><ele>167.60000000000002</ele><time>2026-04-09T15:11:06.685Z</time></trkpt><trkpt lat="40.8574337" lon="14.1617402"><ele>167.20000000000002</ele><time>2026-04-09T15:11:07.686Z</time></trkpt><trkpt lat="40.8575086" lon="14.1618326"><ele>166.8</ele><time>2026-04-09T15:11:08.685Z</time></trkpt><trkpt lat="40.8575824" lon="14.1619248"><ele>166.4</ele><time>2026-04-09T15:11:09.685Z</time></trkpt><trkpt lat="40.8576531" lon="14.162021"><ele>166.0</ele><time>2026-04-09T15:11:10.686Z</time></trkpt><trkpt lat="40.8577161" lon="14.1621249"><ele>165.8</ele><time>2026-04-09T15:11:11.69Z</time></trkpt><trkpt lat="40.8577744" lon="14.1622373"><ele>165.60000000000002</ele><time>2026-04-09T15:11:12.686Z</time></trkpt><trkpt lat="40.8578256" lon="14.1623543"><ele>165.4</ele><time>2026-04-09T15:11:13.685Z</time></trkpt><trkpt lat="40.8578724" lon="14.1624703"><ele>165.2</ele><time>2026-04-09T15:11:14.685Z</time></trkpt><trkpt lat="40.8579156" lon="14.1625873"><ele>165.0</ele><time>2026-04-09T15:11:15.685Z</time></trkpt><trkpt lat="40.85795" lon="14.1627083"><ele>164.83333333333334</ele><time>2026-04-09T15:11:16.685Z</time></trkpt><trkpt lat="40.8579767" lon="14.162825"><ele>164.66666666666666</ele><time>2026-04-09T15:11:17.686Z</time></trkpt><trkpt lat="40.858005" lon="14.1629333"><ele>164.5</ele><time>2026-04-09T15:11:18.686Z</time></trkpt><trkpt lat="40.8580267" lon="14.163035"><ele>164.33333333333331</ele><time>2026-04-09T15:11:19.686Z</time></trkpt><trkpt lat="40.85805" lon="14.1631267"><ele>164.16666666666666</ele><time>2026-04-09T15:11:20.685Z</time></trkpt><trkpt lat="40.85807" lon="14.16321"><ele>164.0</ele><time>2026-04-09T15:11:21.685Z</time></trkpt><trkpt lat="40.8580917" lon="14.1632933"><ele>163.85714285714283</ele><time>2026-04-09T15:11:22.685Z</time></trkpt><trkpt lat="40.858115" lon="14.163375"><ele>163.71428571428572</ele><time>2026-04-09T15:11:23.686Z</time></trkpt><trkpt lat="40.8581333" lon="14.163455"><ele>163.57142857142856</ele><time>2026-04-09T15:11:24.686Z</time></trkpt><trkpt lat="40.8581667" lon="14.1636067"><ele>163.42857142857142</ele><time>2026-04-09T15:11:26.686Z</time></trkpt><trkpt lat="40.8581983" lon="14.1636867"><ele>163.28571428571428</ele><time>2026-04-09T15:11:27.685Z</time></trkpt><trkpt lat="40.858225" lon="14.1637683"><ele>163.14285714285714</ele><time>2026-04-09T15:11:28.686Z</time></trkpt><trkpt lat="40.8582533" lon="14.163845"><ele>163.0</ele><time>2026-04-09T15:11:29.685Z</time></trkpt><trkpt lat="40.85829" lon="14.1639217"><ele>163.0</ele><time>2026-04-09T15:11:30.685Z</time></trkpt><trkpt lat="40.8583233" lon="14.163995"><ele>163.0</ele><time>2026-04-09T15:11:31.685Z</time></trkpt><trkpt lat="40.85836" lon="14.164075"><ele>163.0</ele><time>2026-04-09T15:11:32.685Z</time></trkpt><trkpt lat="40.858395" lon="14.16415"><ele>163.0</ele><time>2026-04-09T15:11:33.685Z</time></trkpt><trkpt lat="40.8584317" lon="14.1642233"><ele>163.0</ele><time>2026-04-09T15:11:34.684Z</time></trkpt><trkpt lat="40.85847" lon="14.164295"><ele>163.0</ele><time>2026-04-09T15:11:35.684Z</time></trkpt><trkpt lat="40.8585067" lon="14.164365"><ele>163.0</ele><time>2026-04-09T15:11:36.685Z</time></trkpt><trkpt lat="40.8585483" lon="14.1644367"><ele>162.83333333333334</ele><time>2026-04-09T15:11:37.685Z</time></trkpt><trkpt lat="40.8585967" lon="14.16451"><ele>162.66666666666669</ele><time>2026-04-09T15:11:38.683Z</time></trkpt><trkpt lat="40.8586467" lon="14.164585"><ele>162.5</ele><time>2026-04-09T15:11:39.683Z</time></trkpt><trkpt lat="40.8586967" lon="14.1646667"><ele>162.33333333333334</ele><time>2026-04-09T15:11:40.683Z</time></trkpt><trkpt lat="40.85874" lon="14.1647533"><ele>162.16666666666666</ele><time>2026-04-09T15:11:41.686Z</time></trkpt><trkpt lat="40.8587833" lon="14.1648417"><ele>162.0</ele><time>2026-04-09T15:11:42.684Z</time></trkpt><trkpt lat="40.8588283" lon="14.1649283"><ele>161.6</ele><time>2026-04-09T15:11:43.685Z</time></trkpt><trkpt lat="40.858875" lon="14.1650083"><ele>161.2</ele><time>2026-04-09T15:11:44.684Z</time></trkpt><trkpt lat="40.8589133" lon="14.1650817"><ele>160.8</ele><time>2026-04-09T15:11:45.683Z</time></trkpt><trkpt lat="40.858985" lon="14.1651967"><ele>160.4</ele><time>2026-04-09T15:11:47.684Z</time></trkpt><trkpt lat="40.85904" lon="14.165315"><ele>160.0</ele><time>2026-04-09T15:11:49.684Z</time></trkpt><trkpt lat="40.8590917" lon="14.16545"><ele>160.0</ele><time>2026-04-09T15:11:51.684Z</time></trkpt><trkpt lat="40.859155" lon="14.1655883"><ele>160.0</ele><time>2026-04-09T15:11:53.685Z</time></trkpt><trkpt lat="40.8592233" lon="14.1657317"><ele>160.0</ele><time>2026-04-09T15:11:55.685Z</time></trkpt><trkpt lat="40.8592617" lon="14.1658067"><ele>160.0</ele><time>2026-04-09T15:11:56.684Z</time></trkpt><trkpt lat="40.8593017" lon="14.1658833"><ele>160.0</ele><time>2026-04-09T15:11:57.684Z</time></trkpt><trkpt lat="40.8593433" lon="14.16596"><ele>160.0</ele><time>2026-04-09T15:11:58.684Z</time></trkpt><trkpt lat="40.8593833" lon="14.1660383"><ele>160.0</ele><time>2026-04-09T15:11:59.685Z</time></trkpt><trkpt lat="40.8594267" lon="14.16612"><ele>160.0</ele><time>2026-04-09T15:12:00.685Z</time></trkpt><trkpt lat="40.8594683" lon="14.1661933"><ele>160.0</ele><time>2026-04-09T15:12:01.684Z</time></trkpt><trkpt lat="40.8595117" lon="14.1662667"><ele>160.0</ele><time>2026-04-09T15:12:02.684Z</time></trkpt><trkpt lat="40.8595517" lon="14.16634"><ele>160.0</ele><time>2026-04-09T15:12:03.684Z</time></trkpt><trkpt lat="40.85959" lon="14.1664117"><ele>160.0</ele><time>2026-04-09T15:12:04.684Z</time></trkpt><trkpt lat="40.859625" lon="14.1664867"><ele>160.0</ele><time>2026-04-09T15:12:05.683Z</time></trkpt><trkpt lat="40.8596633" lon="14.1665583"><ele>160.0</ele><time>2026-04-09T15:12:06.684Z</time></trkpt><trkpt lat="40.8597317" lon="14.1666933"><ele>160.0</ele><time>2026-04-09T15:12:08.684Z</time></trkpt><trkpt lat="40.8597917" lon="14.1668267"><ele>160.0</ele><time>2026-04-09T15:12:10.684Z</time></trkpt><trkpt lat="40.8598733" lon="14.16694"><ele>160.0</ele><time>2026-04-09T15:12:12.686Z</time></trkpt><trkpt lat="40.859925" lon="14.1669933"><ele>160.0</ele><time>2026-04-09T15:12:13.684Z</time></trkpt><trkpt lat="40.8600317" lon="14.167085"><ele>160.0</ele><time>2026-04-09T15:12:15.683Z</time></trkpt><trkpt lat="40.8600933" lon="14.1671233"><ele>160.0</ele><time>2026-04-09T15:12:16.684Z</time></trkpt><trkpt lat="40.8601517" lon="14.1671683"><ele>160.0</ele><time>2026-04-09T15:12:17.684Z</time></trkpt><trkpt lat="40.8602167" lon="14.1672067"><ele>160.0</ele><time>2026-04-09T15:12:18.684Z</time></trkpt><trkpt lat="40.860285" lon="14.167235"><ele>160.0</ele><time>2026-04-09T15:12:19.684Z</time></trkpt><trkpt lat="40.8603517" lon="14.1672733"><ele>160.14285714285714</ele><time>2026-04-09T15:12:20.684Z</time></trkpt><trkpt lat="40.8604217" lon="14.1673017"><ele>160.28571428571428</ele><time>2026-04-09T15:12:21.685Z</time></trkpt><trkpt lat="40.860495" lon="14.16732"><ele>160.42857142857144</ele><time>2026-04-09T15:12:22.684Z</time></trkpt><trkpt lat="40.86057" lon="14.1673283"><ele>160.57142857142856</ele><time>2026-04-09T15:12:23.684Z</time></trkpt><trkpt lat="40.8606433" lon="14.1673333"><ele>160.71428571428572</ele><time>2026-04-09T15:12:24.683Z</time></trkpt><trkpt lat="40.86072" lon="14.16733"><ele>160.85714285714286</ele><time>2026-04-09T15:12:25.684Z</time></trkpt><trkpt lat="40.860795" lon="14.167315"><ele>161.0</ele><time>2026-04-09T15:12:26.684Z</time></trkpt><trkpt lat="40.8608717" lon="14.1672967"><ele>161.0</ele><time>2026-04-09T15:12:27.686Z</time></trkpt><trkpt lat="40.860945" lon="14.167275"><ele>161.0</ele><time>2026-04-09T15:12:28.683Z</time></trkpt><trkpt lat="40.8610133" lon="14.1672517"><ele>161.0</ele><time>2026-04-09T15:12:29.684Z</time></trkpt><trkpt lat="40.8610767" lon="14.1672317"><ele>161.0</ele><time>2026-04-09T15:12:30.684Z</time></trkpt><trkpt lat="40.86114" lon="14.1672083"><ele>161.0</ele><time>2026-04-09T15:12:31.685Z</time></trkpt><trkpt lat="40.861205" lon="14.167185"><ele>161.0</ele><time>2026-04-09T15:12:32.684Z</time></trkpt><trkpt lat="40.8612717" lon="14.1671633"><ele>161.0</ele><time>2026-04-09T15:12:33.684Z</time></trkpt><trkpt lat="40.8613383" lon="14.1671417"><ele>161.14285714285714</ele><time>2026-04-09T15:12:34.684Z</time></trkpt><trkpt lat="40.8614" lon="14.16712"><ele>161.28571428571428</ele><time>2026-04-09T15:12:35.684Z</time></trkpt><trkpt lat="40.8614667" lon="14.1670967"><ele>161.42857142857144</ele><time>2026-04-09T15:12:36.684Z</time></trkpt><trkpt lat="40.8615317" lon="14.1670767"><ele>161.57142857142856</ele><time>2026-04-09T15:12:37.684Z</time></trkpt><trkpt lat="40.8615983" lon="14.1670667"><ele>161.71428571428572</ele><time>2026-04-09T15:12:38.684Z</time></trkpt><trkpt lat="40.8616617" lon="14.1670667"><ele>161.85714285714286</ele><time>2026-04-09T15:12:39.684Z</time></trkpt><trkpt lat="40.86173" lon="14.1670617"><ele>162.0</ele><time>2026-04-09T15:12:40.684Z</time></trkpt><trkpt lat="40.8617933" lon="14.1670617"><ele>162.6</ele><time>2026-04-09T15:12:41.684Z</time></trkpt><trkpt lat="40.8619117" lon="14.167075"><ele>163.2</ele><time>2026-04-09T15:12:43.684Z</time></trkpt><trkpt lat="40.8620383" lon="14.1670867"><ele>163.8</ele><time>2026-04-09T15:12:45.684Z</time></trkpt><trkpt lat="40.8621083" lon="14.1671033"><ele>164.4</ele><time>2026-04-09T15:12:46.684Z</time></trkpt><trkpt lat="40.862175" lon="14.1671317"><ele>165.0</ele><time>2026-04-09T15:12:47.684Z</time></trkpt><trkpt lat="40.8622383" lon="14.1671583"><ele>165.00000000000003</ele><time>2026-04-09T15:12:48.683Z</time></trkpt><trkpt lat="40.862305" lon="14.1671867"><ele>165.0</ele><time>2026-04-09T15:12:49.684Z</time></trkpt><trkpt lat="40.8623717" lon="14.167215"><ele>165.0</ele><time>2026-04-09T15:12:50.683Z</time></trkpt><trkpt lat="40.862435" lon="14.167255"><ele>165.0</ele><time>2026-04-09T15:12:51.683Z</time></trkpt><trkpt lat="40.8624967" lon="14.1673017"><ele>165.0</ele><time>2026-04-09T15:12:52.685Z</time></trkpt><trkpt lat="40.8625517" lon="14.1673533"><ele>165.00000000000003</ele><time>2026-04-09T15:12:53.684Z</time></trkpt><trkpt lat="40.8625983" lon="14.1674133"><ele>165.0</ele><time>2026-04-09T15:12:54.684Z</time></trkpt><trkpt lat="40.8626467" lon="14.1674717"><ele>165.5</ele><time>2026-04-09T15:12:55.684Z</time></trkpt><trkpt lat="40.8626933" lon="14.16753"><ele>166.0</ele><time>2026-04-09T15:12:56.684Z</time></trkpt><trkpt lat="40.8627333" lon="14.167595"><ele>166.5</ele><time>2026-04-09T15:12:57.683Z</time></trkpt><trkpt lat="40.8628083" lon="14.1677317"><ele>167.0</ele><time>2026-04-09T15:12:59.684Z</time></trkpt><trkpt lat="40.862845" lon="14.1678033"><ele>167.5</ele><time>2026-04-09T15:13:00.687Z</time></trkpt><trkpt lat="40.8628767" lon="14.1678833"><ele>168.0</ele><time>2026-04-09T15:13:01.684Z</time></trkpt><trkpt lat="40.8629067" lon="14.16796"><ele>168.0</ele><time>2026-04-09T15:13:02.684Z</time></trkpt><trkpt lat="40.86294" lon="14.1680383"><ele>168.0</ele><time>2026-04-09T15:13:03.684Z</time></trkpt><trkpt lat="40.8629717" lon="14.1681183"><ele>168.0</ele><time>2026-04-09T15:13:04.684Z</time></trkpt><trkpt lat="40.8630067" lon="14.1682633"><ele>168.0</ele><time>2026-04-09T15:13:06.684Z</time></trkpt><trkpt lat="40.8630567" lon="14.168405"><ele>168.0</ele><time>2026-04-09T15:13:08.684Z</time></trkpt><trkpt lat="40.8630867" lon="14.1685433"><ele>168.0</ele><time>2026-04-09T15:13:10.684Z</time></trkpt><trkpt lat="40.8631233" lon="14.16868"><ele>168.0</ele><time>2026-04-09T15:13:12.684Z</time></trkpt><trkpt lat="40.863165" lon="14.1688233"><ele>168.0</ele><time>2026-04-09T15:13:14.684Z</time></trkpt><trkpt lat="40.8632083" lon="14.1689683"><ele>168.0</ele><time>2026-04-09T15:13:16.684Z</time></trkpt><trkpt lat="40.8632617" lon="14.1691167"><ele>167.66666666666666</ele><time>2026-04-09T15:13:18.684Z</time></trkpt><trkpt lat="40.86332" lon="14.169255"><ele>167.33333333333334</ele><time>2026-04-09T15:13:20.686Z</time></trkpt><trkpt lat="40.8633567" lon="14.1693333"><ele>167.0</ele><time>2026-04-09T15:13:21.684Z</time></trkpt><trkpt lat="40.8633917" lon="14.1694083"><ele>166.66666666666669</ele><time>2026-04-09T15:13:22.684Z</time></trkpt><trkpt lat="40.8634283" lon="14.1694833"><ele>166.33333333333334</ele><time>2026-04-09T15:13:23.685Z</time></trkpt><trkpt lat="40.8634683" lon="14.1695633"><ele>166.0</ele><time>2026-04-09T15:13:24.685Z</time></trkpt><trkpt lat="40.8635017" lon="14.16964"><ele>166.5</ele><time>2026-04-09T15:13:25.685Z</time></trkpt><trkpt lat="40.8635367" lon="14.1697117"><ele>167.0</ele><time>2026-04-09T15:13:26.684Z</time></trkpt><trkpt lat="40.8635717" lon="14.1697817"><ele>167.5</ele><time>2026-04-09T15:13:27.684Z</time></trkpt><trkpt lat="40.8636083" lon="14.1698533"><ele>168.0</ele><time>2026-04-09T15:13:28.684Z</time></trkpt><trkpt lat="40.8636783" lon="14.1699833"><ele>168.5</ele><time>2026-04-09T15:13:30.684Z</time></trkpt><trkpt lat="40.86375" lon="14.170115"><ele>169.0</ele><time>2026-04-09T15:13:32.684Z</time></trkpt><trkpt lat="40.86381" lon="14.170245"><ele>169.0</ele><time>2026-04-09T15:13:34.684Z</time></trkpt><trkpt lat="40.8638717" lon="14.1703783"><ele>169.0</ele><time>2026-04-09T15:13:36.684Z</time></trkpt><trkpt lat="40.86393" lon="14.1705083"><ele>169.0</ele><time>2026-04-09T15:13:38.684Z</time></trkpt><trkpt lat="40.8639867" lon="14.17064"><ele>169.0</ele><time>2026-04-09T15:13:40.685Z</time></trkpt><trkpt lat="40.8640517" lon="14.1707783"><ele>169.0</ele><time>2026-04-09T15:13:42.686Z</time></trkpt><trkpt lat="40.86408" lon="14.1708533"><ele>169.0</ele><time>2026-04-09T15:13:43.684Z</time></trkpt><trkpt lat="40.864115" lon="14.170935"><ele>169.0</ele><time>2026-04-09T15:13:44.684Z</time></trkpt><trkpt lat="40.86418" lon="14.1710667"><ele>169.0</ele><time>2026-04-09T15:13:46.684Z</time></trkpt><trkpt lat="40.86421" lon="14.1711483"><ele>169.0</ele><time>2026-04-09T15:13:47.685Z</time></trkpt><trkpt lat="40.8642733" lon="14.1712833"><ele>169.0</ele><time>2026-04-09T15:13:49.683Z</time></trkpt><trkpt lat="40.8643333" lon="14.171395"><ele>169.0</ele><time>2026-04-09T15:13:51.683Z</time></trkpt><trkpt lat="40.8643833" lon="14.17151"><ele>169.0</ele><time>2026-04-09T15:13:53.684Z</time></trkpt><trkpt lat="40.864445" lon="14.171625"><ele>169.0</ele><time>2026-04-09T15:13:55.684Z</time></trkpt><trkpt lat="40.8645133" lon="14.17173"><ele>169.0</ele><time>2026-04-09T15:13:57.683Z</time></trkpt><trkpt lat="40.8645867" lon="14.1718283"><ele>169.0</ele><time>2026-04-09T15:13:59.685Z</time></trkpt><trkpt lat="40.8646483" lon="14.171945"><ele>169.33333333333334</ele><time>2026-04-09T15:14:01.684Z</time></trkpt><trkpt lat="40.8647033" lon="14.17204"><ele>169.66666666666669</ele><time>2026-04-09T15:14:03.684Z</time></trkpt><trkpt lat="40.8647517" lon="14.1721267"><ele>170.0</ele><time>2026-04-09T15:14:05.685Z</time></trkpt><trkpt lat="40.8648117" lon="14.1721683"><ele>170.33333333333334</ele><time>2026-04-09T15:14:07.685Z</time></trkpt><trkpt lat="40.8648833" lon="14.1721433"><ele>170.66666666666666</ele><time>2026-04-09T15:14:10.685Z</time></trkpt><trkpt lat="40.86495" lon="14.172055"><ele>171.0</ele><time>2026-04-09T15:14:13.687Z</time></trkpt><trkpt lat="40.864985" lon="14.1719583"><ele>171.0</ele><time>2026-04-09T15:14:15.684Z</time></trkpt><trkpt lat="40.8650167" lon="14.1718483"><ele>171.0</ele><time>2026-04-09T15:14:17.684Z</time></trkpt><trkpt lat="40.8650417" lon="14.17174"><ele>171.0</ele><time>2026-04-09T15:14:19.685Z</time></trkpt><trkpt lat="40.8650583" lon="14.17162"><ele>171.0</ele><time>2026-04-09T15:14:21.684Z</time></trkpt><trkpt lat="40.86508" lon="14.1714883"><ele>171.0</ele><time>2026-04-09T15:14:23.684Z</time></trkpt><trkpt lat="40.8651083" lon="14.1713517"><ele>172.20000000000002</ele><time>2026-04-09T15:14:25.684Z</time></trkpt><trkpt lat="40.86512" lon="14.1712033"><ele>173.4</ele><time>2026-04-09T15:14:27.684Z</time></trkpt><trkpt lat="40.8651317" lon="14.1710683"><ele>174.6</ele><time>2026-04-09T15:14:29.684Z</time></trkpt><trkpt lat="40.8651583" lon="14.1709417"><ele>175.8</ele><time>2026-04-09T15:14:31.687Z</time></trkpt><trkpt lat="40.8651967" lon="14.170805"><ele>177.0</ele><time>2026-04-09T15:14:33.685Z</time></trkpt><trkpt lat="40.86522" lon="14.170675"><ele>177.2</ele><time>2026-04-09T15:14:35.686Z</time></trkpt><trkpt lat="40.8652417" lon="14.17054"><ele>177.39999999999998</ele><time>2026-04-09T15:14:37.685Z</time></trkpt><trkpt lat="40.86526" lon="14.1704117"><ele>177.60000000000002</ele><time>2026-04-09T15:14:39.685Z</time></trkpt><trkpt lat="40.86528" lon="14.1702883"><ele>177.8</ele><time>2026-04-09T15:14:41.686Z</time></trkpt><trkpt lat="40.8653117" lon="14.1701667"><ele>178.0</ele><time>2026-04-09T15:14:43.685Z</time></trkpt><trkpt lat="40.8653367" lon="14.170045"><ele>178.0</ele><time>2026-04-09T15:14:45.685Z</time></trkpt><trkpt lat="40.865365" lon="14.1699333"><ele>178.0</ele><time>2026-04-09T15:14:47.687Z</time></trkpt><trkpt lat="40.865385" lon="14.1698167"><ele>178.0</ele><time>2026-04-09T15:14:49.685Z</time></trkpt><trkpt lat="40.8654083" lon="14.1697083"><ele>178.0</ele><time>2026-04-09T15:14:51.686Z</time></trkpt><trkpt lat="40.8654367" lon="14.1695933"><ele>178.0</ele><time>2026-04-09T15:14:53.685Z</time></trkpt><trkpt lat="40.865465" lon="14.1694833"><ele>178.0</ele><time>2026-04-09T15:14:55.685Z</time></trkpt><trkpt lat="40.8655033" lon="14.1693783"><ele>178.2</ele><time>2026-04-09T15:14:57.685Z</time></trkpt><trkpt lat="40.8655483" lon="14.1692883"><ele>178.4</ele><time>2026-04-09T15:14:59.685Z</time></trkpt><trkpt lat="40.8656083" lon="14.169195"><ele>178.6</ele><time>2026-04-09T15:15:01.685Z</time></trkpt><trkpt lat="40.86568" lon="14.169115"><ele>178.79999999999998</ele><time>2026-04-09T15:15:03.687Z</time></trkpt><trkpt lat="40.8657483" lon="14.1690283"><ele>179.0</ele><time>2026-04-09T15:15:05.685Z</time></trkpt><trkpt lat="40.8658133" lon="14.1689433"><ele>178.66666666666666</ele><time>2026-04-09T15:15:07.686Z</time></trkpt><trkpt lat="40.8658717" lon="14.16885"><ele>178.33333333333331</ele><time>2026-04-09T15:15:09.685Z</time></trkpt><trkpt lat="40.8659333" lon="14.1687567"><ele>178.0</ele><time>2026-04-09T15:15:11.685Z</time></trkpt><trkpt lat="40.865995" lon="14.1686667"><ele>177.66666666666666</ele><time>2026-04-09T15:15:13.688Z</time></trkpt><trkpt lat="40.8660567" lon="14.1685867"><ele>177.33333333333334</ele><time>2026-04-09T15:15:15.685Z</time></trkpt><trkpt lat="40.8661167" lon="14.16851"><ele>177.0</ele><time>2026-04-09T15:15:17.685Z</time></trkpt><trkpt lat="40.8661767" lon="14.168435"><ele>179.16666666666666</ele><time>2026-04-09T15:15:19.686Z</time></trkpt><trkpt lat="40.8662317" lon="14.16836"><ele>181.33333333333334</ele><time>2026-04-09T15:15:21.686Z</time></trkpt><trkpt lat="40.8663117" lon="14.1683033"><ele>183.5</ele><time>2026-04-09T15:15:23.686Z</time></trkpt><trkpt lat="40.8664033" lon="14.1682583"><ele>185.66666666666669</ele><time>2026-04-09T15:15:25.685Z</time></trkpt><trkpt lat="40.8664583" lon="14.1683433"><ele>187.83333333333334</ele><time>2026-04-09T15:15:28.686Z</time></trkpt><trkpt lat="40.8664283" lon="14.1684617"><ele>190.0</ele><time>2026-04-09T15:15:31.686Z</time></trkpt><trkpt lat="40.8663917" lon="14.1685417"><ele>190.0</ele><time>2026-04-09T15:15:33.686Z</time></trkpt><trkpt lat="40.866345" lon="14.1686167"><ele>190.0</ele><time>2026-04-09T15:15:35.687Z</time></trkpt><trkpt lat="40.8662933" lon="14.168705"><ele>190.0</ele><time>2026-04-09T15:15:37.685Z</time></trkpt><trkpt lat="40.8662517" lon="14.1687783"><ele>190.0</ele><time>2026-04-09T15:15:39.684Z</time></trkpt><trkpt lat="40.8662" lon="14.1688783"><ele>190.0</ele><time>2026-04-09T15:15:42.686Z</time></trkpt><trkpt lat="40.8661633" lon="14.1689533"><ele>190.0</ele><time>2026-04-09T15:15:44.684Z</time></trkpt><trkpt lat="40.86611" lon="14.1690217"><ele>191.28571428571428</ele><time>2026-04-09T15:15:46.685Z</time></trkpt><trkpt lat="40.8660633" lon="14.16911"><ele>192.57142857142858</ele><time>2026-04-09T15:15:48.684Z</time></trkpt><trkpt lat="40.8660133" lon="14.1691783"><ele>193.85714285714283</ele><time>2026-04-09T15:15:50.684Z</time></trkpt><trkpt lat="40.8659733" lon="14.16925"><ele>195.14285714285714</ele><time>2026-04-09T15:15:52.684Z</time></trkpt><trkpt lat="40.8659683" lon="14.169375"><ele>196.42857142857142</ele><time>2026-04-09T15:15:55.685Z</time></trkpt><trkpt lat="40.86601" lon="14.1694433"><ele>197.7142857142857</ele><time>2026-04-09T15:15:57.684Z</time></trkpt><trkpt lat="40.86607" lon="14.1694833"><ele>199.0</ele><time>2026-04-09T15:15:59.684Z</time></trkpt><trkpt lat="40.8661333" lon="14.169505"><ele>198.99999999999997</ele><time>2026-04-09T15:16:01.684Z</time></trkpt><trkpt lat="40.8662" lon="14.1695017"><ele>199.0</ele><time>2026-04-09T15:16:03.684Z</time></trkpt><trkpt lat="40.866265" lon="14.1694983"><ele>199.0</ele><time>2026-04-09T15:16:05.686Z</time></trkpt><trkpt lat="40.866345" lon="14.1694917"><ele>199.0</ele><time>2026-04-09T15:16:08.684Z</time></trkpt><trkpt lat="40.8664183" lon="14.1694867"><ele>198.99999999999997</ele><time>2026-04-09T15:16:11.685Z</time></trkpt><trkpt lat="40.8665067" lon="14.1694817"><ele>199.0</ele><time>2026-04-09T15:16:14.686Z</time></trkpt><trkpt lat="40.86659" lon="14.169475"><ele>198.99999999999997</ele><time>2026-04-09T15:16:17.693Z</time></trkpt><trkpt lat="40.8666733" lon="14.1694567"><ele>199.0</ele><time>2026-04-09T15:16:20.685Z</time></trkpt><trkpt lat="40.866745" lon="14.1694567"><ele>199.0</ele><time>2026-04-09T15:16:23.685Z</time></trkpt><trkpt lat="40.8668233" lon="14.169455"><ele>199.0</ele><time>2026-04-09T15:16:26.685Z</time></trkpt><trkpt lat="40.8668983" lon="14.1694583"><ele>198.99999999999997</ele><time>2026-04-09T15:16:29.687Z</time></trkpt><trkpt lat="40.8669767" lon="14.16946"><ele>199.0</ele><time>2026-04-09T15:16:32.686Z</time></trkpt><trkpt lat="40.8670533" lon="14.1694833"><ele>201.66666666666666</ele><time>2026-04-09T15:16:35.685Z</time></trkpt><trkpt lat="40.86713" lon="14.1695133"><ele>204.33333333333331</ele><time>2026-04-09T15:16:38.686Z</time></trkpt><trkpt lat="40.8671717" lon="14.1695933"><ele>207.0</ele><time>2026-04-09T15:16:42.686Z</time></trkpt><trkpt lat="40.8671367" lon="14.169675"><ele>209.66666666666669</ele><time>2026-04-09T15:16:46.687Z</time></trkpt><trkpt lat="40.8670817" lon="14.1697183"><ele>212.33333333333334</ele><time>2026-04-09T15:16:49.684Z</time></trkpt><trkpt lat="40.8670217" lon="14.16977"><ele>215.0</ele><time>2026-04-09T15:16:52.684Z</time></trkpt><trkpt lat="40.86697" lon="14.1698683"><ele>215.33333333333334</ele><time>2026-04-09T15:16:55.686Z</time></trkpt><trkpt lat="40.8668983" lon="14.1699483"><ele>215.66666666666669</ele><time>2026-04-09T15:16:59.684Z</time></trkpt><trkpt lat="40.866825" lon="14.170015"><ele>216.0</ele><time>2026-04-09T15:17:02.684Z</time></trkpt><trkpt lat="40.8667783" lon="14.17012"><ele>216.33333333333331</ele><time>2026-04-09T15:17:05.684Z</time></trkpt><trkpt lat="40.8667467" lon="14.170195"><ele>216.66666666666666</ele><time>2026-04-09T15:17:07.685Z</time></trkpt><trkpt lat="40.866735" lon="14.1702883"><ele>217.0</ele><time>2026-04-09T15:17:10.684Z</time></trkpt><trkpt lat="40.866745" lon="14.17039"><ele>216.99999999999997</ele><time>2026-04-09T15:17:13.685Z</time></trkpt><trkpt lat="40.8667583" lon="14.1704917"><ele>217.0</ele><time>2026-04-09T15:17:16.684Z</time></trkpt><trkpt lat="40.8667933" lon="14.1705883"><ele>217.0</ele><time>2026-04-09T15:17:19.685Z</time></trkpt><trkpt lat="40.8668517" lon="14.1706667"><ele>217.0</ele><time>2026-04-09T15:17:22.685Z</time></trkpt><trkpt lat="40.8669417" lon="14.17069"><ele>216.99999999999997</ele><time>2026-04-09T15:17:25.686Z</time></trkpt><trkpt lat="40.8670317" lon="14.1706883"><ele>217.0</ele><time>2026-04-09T15:17:28.685Z</time></trkpt><trkpt lat="40.8671217" lon="14.1706867"><ele>216.99999999999997</ele><time>2026-04-09T15:17:31.685Z</time></trkpt><trkpt lat="40.8671867" lon="14.1706717"><ele>217.0</ele><time>2026-04-09T15:17:33.684Z</time></trkpt><trkpt lat="40.8672733" lon="14.170655"><ele>217.0</ele><time>2026-04-09T15:17:36.685Z</time></trkpt><trkpt lat="40.86736" lon="14.1706433"><ele>217.0</ele><time>2026-04-09T15:17:39.686Z</time></trkpt><trkpt lat="40.8674383" lon="14.17064"><ele>216.99999999999997</ele><time>2026-04-09T15:17:42.685Z</time></trkpt><trkpt lat="40.8675283" lon="14.17064"><ele>217.0</ele><time>2026-04-09T15:17:45.684Z</time></trkpt><trkpt lat="40.8676133" lon="14.1706417"><ele>216.83333333333331</ele><time>2026-04-09T15:17:48.684Z</time></trkpt><trkpt lat="40.8676783" lon="14.1706433"><ele>216.66666666666666</ele><time>2026-04-09T15:17:50.684Z</time></trkpt><trkpt lat="40.8677433" lon="14.1706517"><ele>216.5</ele><time>2026-04-09T15:17:52.684Z</time></trkpt><trkpt lat="40.8678083" lon="14.1706617"><ele>216.33333333333331</ele><time>2026-04-09T15:17:54.684Z</time></trkpt><trkpt lat="40.8678967" lon="14.1706817"><ele>216.16666666666666</ele><time>2026-04-09T15:17:57.684Z</time></trkpt><trkpt lat="40.8679917" lon="14.1707033"><ele>216.0</ele><time>2026-04-09T15:18:00.683Z</time></trkpt><trkpt lat="40.8680583" lon="14.1707217"><ele>216.0</ele><time>2026-04-09T15:18:02.684Z</time></trkpt><trkpt lat="40.86812" lon="14.1707417"><ele>216.0</ele><time>2026-04-09T15:18:04.684Z</time></trkpt><trkpt lat="40.8682067" lon="14.1707783"><ele>216.0</ele><time>2026-04-09T15:18:07.683Z</time></trkpt><trkpt lat="40.868295" lon="14.1708067"><ele>216.0</ele><time>2026-04-09T15:18:10.685Z</time></trkpt><trkpt lat="40.8683733" lon="14.1708383"><ele>216.0</ele><time>2026-04-09T15:18:13.684Z</time></trkpt><trkpt lat="40.868435" lon="14.170855"><ele>216.0</ele><time>2026-04-09T15:18:15.684Z</time></trkpt><trkpt lat="40.8685183" lon="14.1708883"><ele>217.16666666666666</ele><time>2026-04-09T15:18:18.683Z</time></trkpt><trkpt lat="40.8686017" lon="14.170915"><ele>218.33333333333331</ele><time>2026-04-09T15:18:21.683Z</time></trkpt><trkpt lat="40.8686667" lon="14.170965"><ele>219.5</ele><time>2026-04-09T15:18:24.684Z</time></trkpt><trkpt lat="40.8687317" lon="14.1710233"><ele>220.66666666666666</ele><time>2026-04-09T15:18:27.683Z</time></trkpt><trkpt lat="40.8687983" lon="14.171065"><ele>221.83333333333331</ele><time>2026-04-09T15:18:30.683Z</time></trkpt><trkpt lat="40.868875" lon="14.1710633"><ele>223.0</ele><time>2026-04-09T15:18:33.684Z</time></trkpt><trkpt lat="40.86894" lon="14.1709933"><ele>222.99999999999997</ele><time>2026-04-09T15:18:36.684Z</time></trkpt><trkpt lat="40.8689833" lon="14.1708983"><ele>223.0</ele><time>2026-04-09T15:18:39.684Z</time></trkpt><trkpt lat="40.8690233" lon="14.1708133"><ele>223.0</ele><time>2026-04-09T15:18:42.685Z</time></trkpt><trkpt lat="40.8690717" lon="14.170725"><ele>223.0</ele><time>2026-04-09T15:18:45.687Z</time></trkpt><trkpt lat="40.8691117" lon="14.1706417"><ele>222.99999999999997</ele><time>2026-04-09T15:18:48.685Z</time></trkpt><trkpt lat="40.8691533" lon="14.1705567"><ele>223.0</ele><time>2026-04-09T15:18:51.685Z</time></trkpt><trkpt lat="40.8692" lon="14.1704767"><ele>225.42857142857142</ele><time>2026-04-09T15:18:54.684Z</time></trkpt><trkpt lat="40.869245" lon="14.1704067"><ele>227.85714285714283</ele><time>2026-04-09T15:18:57.684Z</time></trkpt><trkpt lat="40.8692983" lon="14.1703417"><ele>230.28571428571428</ele><time>2026-04-09T15:19:00.685Z</time></trkpt><trkpt lat="40.8693533" lon="14.1702833"><ele>232.71428571428572</ele><time>2026-04-09T15:19:03.684Z</time></trkpt><trkpt lat="40.8694133" lon="14.17023"><ele>235.14285714285714</ele><time>2026-04-09T15:19:06.684Z</time></trkpt><trkpt lat="40.869475" lon="14.1701717"><ele>237.57142857142858</ele><time>2026-04-09T15:19:09.684Z</time></trkpt><trkpt lat="40.8695383" lon="14.170125"><ele>240.0</ele><time>2026-04-09T15:19:12.684Z</time></trkpt><trkpt lat="40.8696017" lon="14.1700817"><ele>240.0</ele><time>2026-04-09T15:19:15.684Z</time></trkpt><trkpt lat="40.86967" lon="14.170015"><ele>240.0</ele><time>2026-04-09T15:19:18.684Z</time></trkpt><trkpt lat="40.86973" lon="14.1699683"><ele>240.0</ele><time>2026-04-09T15:19:21.684Z</time></trkpt><trkpt lat="40.8697967" lon="14.1699067"><ele>240.0</ele><time>2026-04-09T15:19:24.684Z</time></trkpt><trkpt lat="40.8698733" lon="14.1698433"><ele>240.0</ele><time>2026-04-09T15:19:27.686Z</time></trkpt><trkpt lat="40.8699417" lon="14.1698"><ele>240.0</ele><time>2026-04-09T15:19:30.684Z</time></trkpt><trkpt lat="40.87" lon="14.1697633"><ele>241.14285714285717</ele><time>2026-04-09T15:19:32.685Z</time></trkpt><trkpt lat="40.8700617" lon="14.1697467"><ele>242.28571428571428</ele><time>2026-04-09T15:19:34.685Z</time></trkpt><trkpt lat="40.8701217" lon="14.16972"><ele>243.42857142857144</ele><time>2026-04-09T15:19:36.686Z</time></trkpt><trkpt lat="40.8701833" lon="14.1696933"><ele>244.57142857142858</ele><time>2026-04-09T15:19:38.685Z</time></trkpt><trkpt lat="40.87025" lon="14.16967"><ele>245.71428571428572</ele><time>2026-04-09T15:19:40.685Z</time></trkpt><trkpt lat="40.8703317" lon="14.1696817"><ele>246.85714285714286</ele><time>2026-04-09T15:19:43.685Z</time></trkpt><trkpt lat="40.870425" lon="14.1696883"><ele>248.0</ele><time>2026-04-09T15:19:46.685Z</time></trkpt><trkpt lat="40.8705083" lon="14.1697083"><ele>250.0</ele><time>2026-04-09T15:19:49.685Z</time></trkpt><trkpt lat="40.8705767" lon="14.1697417"><ele>252.00000000000003</ele><time>2026-04-09T15:19:52.685Z</time></trkpt><trkpt lat="40.870535" lon="14.1698133"><ele>254.0</ele><time>2026-04-09T15:19:59.686Z</time></trkpt><trkpt lat="40.8704667" lon="14.1698533"><ele>256.0</ele><time>2026-04-09T15:20:02.687Z</time></trkpt><trkpt lat="40.8703983" lon="14.169895"><ele>258.0</ele><time>2026-04-09T15:20:05.686Z</time></trkpt><trkpt lat="40.87033" lon="14.1699533"><ele>260.0</ele><time>2026-04-09T15:20:08.686Z</time></trkpt><trkpt lat="40.8702767" lon="14.170025"><ele>262.0</ele><time>2026-04-09T15:20:11.685Z</time></trkpt><trkpt lat="40.8702267" lon="14.1701167"><ele>262.0</ele><time>2026-04-09T15:20:14.685Z</time></trkpt><trkpt lat="40.8701783" lon="14.1702"><ele>262.0</ele><time>2026-04-09T15:20:17.686Z</time></trkpt><trkpt lat="40.8701383" lon="14.1702833"><ele>262.0</ele><time>2026-04-09T15:20:20.685Z</time></trkpt><trkpt lat="40.870105" lon="14.17039"><ele>262.0</ele><time>2026-04-09T15:20:23.686Z</time></trkpt><trkpt lat="40.8700833" lon="14.1704883"><ele>262.0</ele><time>2026-04-09T15:20:26.685Z</time></trkpt><trkpt lat="40.870055" lon="14.1705983"><ele>262.0</ele><time>2026-04-09T15:20:29.686Z</time></trkpt><trkpt lat="40.87006" lon="14.1707117"><ele>260.8333333333333</ele><time>2026-04-09T15:20:32.684Z</time></trkpt><trkpt lat="40.8701183" lon="14.1707917"><ele>259.66666666666663</ele><time>2026-04-09T15:20:35.685Z</time></trkpt><trkpt lat="40.8701883" lon="14.170805"><ele>258.5</ele><time>2026-04-09T15:20:37.685Z</time></trkpt><trkpt lat="40.8702767" lon="14.17082"><ele>257.3333333333333</ele><time>2026-04-09T15:20:40.686Z</time></trkpt><trkpt lat="40.8703583" lon="14.1708367"><ele>256.1666666666667</ele><time>2026-04-09T15:20:43.685Z</time></trkpt><trkpt lat="40.870445" lon="14.1708367"><ele>255.0</ele><time>2026-04-09T15:20:46.688Z</time></trkpt><trkpt lat="40.8705367" lon="14.1708283"><ele>255.0</ele><time>2026-04-09T15:20:49.686Z</time></trkpt><trkpt lat="40.8706167" lon="14.1707983"><ele>255.0</ele><time>2026-04-09T15:20:52.684Z</time></trkpt><trkpt lat="40.8706783" lon="14.1707333"><ele>255.0</ele><time>2026-04-09T15:20:55.684Z</time></trkpt><trkpt lat="40.870735" lon="14.1706583"><ele>255.0</ele><time>2026-04-09T15:20:58.684Z</time></trkpt><trkpt lat="40.87078" lon="14.1705617"><ele>255.0</ele><time>2026-04-09T15:21:01.696Z</time></trkpt><trkpt lat="40.8708183" lon="14.1704733"><ele>255.0</ele><time>2026-04-09T15:21:04.684Z</time></trkpt><trkpt lat="40.8708717" lon="14.1703967"><ele>256.1666666666667</ele><time>2026-04-09T15:21:07.685Z</time></trkpt><trkpt lat="40.8709267" lon="14.170335"><ele>257.3333333333333</ele><time>2026-04-09T15:21:10.684Z</time></trkpt><trkpt lat="40.871" lon="14.1702783"><ele>258.5</ele><time>2026-04-09T15:21:13.684Z</time></trkpt><trkpt lat="40.87105" lon="14.170225"><ele>259.66666666666663</ele><time>2026-04-09T15:21:15.684Z</time></trkpt><trkpt lat="40.8711117" lon="14.1701717"><ele>260.8333333333333</ele><time>2026-04-09T15:21:18.685Z</time></trkpt><trkpt lat="40.8711633" lon="14.1701"><ele>262.0</ele><time>2026-04-09T15:21:21.684Z</time></trkpt><trkpt lat="40.8712367" lon="14.1700367"><ele>263.8571428571429</ele><time>2026-04-09T15:21:24.685Z</time></trkpt><trkpt lat="40.8713133" lon="14.1700233"><ele>265.7142857142857</ele><time>2026-04-09T15:21:27.684Z</time></trkpt><trkpt lat="40.8713833" lon="14.1700383"><ele>267.57142857142856</ele><time>2026-04-09T15:21:30.684Z</time></trkpt><trkpt lat="40.8713967" lon="14.1701317"><ele>269.42857142857144</ele><time>2026-04-09T15:21:34.684Z</time></trkpt><trkpt lat="40.8713867" lon="14.1702367"><ele>271.2857142857143</ele><time>2026-04-09T15:21:38.684Z</time></trkpt><trkpt lat="40.8713783" lon="14.17032"><ele>273.14285714285717</ele><time>2026-04-09T15:21:41.684Z</time></trkpt><trkpt lat="40.871345" lon="14.1704167"><ele>275.0</ele><time>2026-04-09T15:21:44.685Z</time></trkpt><trkpt lat="40.8713367" lon="14.1705317"><ele>275.0</ele><time>2026-04-09T15:21:47.686Z</time></trkpt><trkpt lat="40.8713683" lon="14.1706067"><ele>275.0</ele><time>2026-04-09T15:21:50.684Z</time></trkpt><trkpt lat="40.87143" lon="14.1706583"><ele>275.0</ele><time>2026-04-09T15:21:53.684Z</time></trkpt><trkpt lat="40.8714967" lon="14.1707017"><ele>275.0</ele><time>2026-04-09T15:21:56.684Z</time></trkpt><trkpt lat="40.8715683" lon="14.1707367"><ele>275.0</ele><time>2026-04-09T15:21:59.684Z</time></trkpt><trkpt lat="40.8716283" lon="14.1707833"><ele>275.0</ele><time>2026-04-09T15:22:02.684Z</time></trkpt><trkpt lat="40.8716717" lon="14.1708467"><ele>275.0</ele><time>2026-04-09T15:22:05.685Z</time></trkpt><trkpt lat="40.8717017" lon="14.1709317"><ele>274.83333333333337</ele><time>2026-04-09T15:22:08.685Z</time></trkpt><trkpt lat="40.87172" lon="14.1710267"><ele>274.6666666666667</ele><time>2026-04-09T15:22:11.685Z</time></trkpt><trkpt lat="40.8716983" lon="14.1711367"><ele>274.5</ele><time>2026-04-09T15:22:14.685Z</time></trkpt><trkpt lat="40.871695" lon="14.1712217"><ele>274.3333333333333</ele><time>2026-04-09T15:22:16.684Z</time></trkpt><trkpt lat="40.871695" lon="14.1713083"><ele>274.16666666666663</ele><time>2026-04-09T15:22:18.684Z</time></trkpt><trkpt lat="40.871725" lon="14.1714217"><ele>274.0</ele><time>2026-04-09T15:22:21.688Z</time></trkpt><trkpt lat="40.871755" lon="14.1715283"><ele>274.8333333333333</ele><time>2026-04-09T15:22:24.684Z</time></trkpt><trkpt lat="40.871765" lon="14.1716117"><ele>275.66666666666663</ele><time>2026-04-09T15:22:26.686Z</time></trkpt><trkpt lat="40.8717583" lon="14.1716967"><ele>276.5</ele><time>2026-04-09T15:22:28.685Z</time></trkpt><trkpt lat="40.8717133" lon="14.1717917"><ele>277.3333333333333</ele><time>2026-04-09T15:22:31.686Z</time></trkpt><trkpt lat="40.8716433" lon="14.171865"><ele>278.1666666666667</ele><time>2026-04-09T15:22:34.685Z</time></trkpt><trkpt lat="40.87157" lon="14.17194"><ele>279.0</ele><time>2026-04-09T15:22:37.685Z</time></trkpt><trkpt lat="40.8715033" lon="14.172015"><ele>279.0</ele><time>2026-04-09T15:22:40.685Z</time></trkpt><trkpt lat="40.871445" lon="14.1721017"><ele>279.0</ele><time>2026-04-09T15:22:43.685Z</time></trkpt><trkpt lat="40.8714117" lon="14.1721733"><ele>279.0</ele><time>2026-04-09T15:22:45.684Z</time></trkpt><trkpt lat="40.8713833" lon="14.1722483"><ele>279.0</ele><time>2026-04-09T15:22:47.685Z</time></trkpt><trkpt lat="40.8713533" lon="14.172355"><ele>279.0</ele><time>2026-04-09T15:22:50.684Z</time></trkpt><trkpt lat="40.8713433" lon="14.1724383"><ele>279.0</ele><time>2026-04-09T15:22:52.685Z</time></trkpt><trkpt lat="40.87136" lon="14.1725617"><ele>279.6666666666667</ele><time>2026-04-09T15:22:55.685Z</time></trkpt><trkpt lat="40.871425" lon="14.172645"><ele>280.3333333333333</ele><time>2026-04-09T15:22:58.686Z</time></trkpt><trkpt lat="40.8715167" lon="14.1726883"><ele>281.0</ele><time>2026-04-09T15:23:01.685Z</time></trkpt><trkpt lat="40.871585" lon="14.1727"><ele>281.66666666666663</ele><time>2026-04-09T15:23:03.684Z</time></trkpt><trkpt lat="40.8716683" lon="14.1727233"><ele>282.3333333333333</ele><time>2026-04-09T15:23:06.685Z</time></trkpt><trkpt lat="40.871765" lon="14.1727383"><ele>283.0</ele><time>2026-04-09T15:23:09.684Z</time></trkpt><trkpt lat="40.87183" lon="14.172755"><ele>285.57142857142856</ele><time>2026-04-09T15:23:11.684Z</time></trkpt><trkpt lat="40.8718967" lon="14.1727617"><ele>288.14285714285717</ele><time>2026-04-09T15:23:13.685Z</time></trkpt><trkpt lat="40.87196" lon="14.172765"><ele>290.7142857142857</ele><time>2026-04-09T15:23:15.684Z</time></trkpt><trkpt lat="40.87205" lon="14.1727717"><ele>293.2857142857143</ele><time>2026-04-09T15:23:18.684Z</time></trkpt><trkpt lat="40.8721383" lon="14.1728017"><ele>295.8571428571429</ele><time>2026-04-09T15:23:21.684Z</time></trkpt><trkpt lat="40.8722033" lon="14.1728117"><ele>298.42857142857144</ele><time>2026-04-09T15:23:23.685Z</time></trkpt><trkpt lat="40.8722683" lon="14.1728167"><ele>301.0</ele><time>2026-04-09T15:23:25.684Z</time></trkpt><trkpt lat="40.8723317" lon="14.1728217"><ele>301.0</ele><time>2026-04-09T15:23:27.684Z</time></trkpt><trkpt lat="40.8724183" lon="14.17284"><ele>301.0</ele><time>2026-04-09T15:23:30.684Z</time></trkpt><trkpt lat="40.8724867" lon="14.1728767"><ele>301.0</ele><time>2026-04-09T15:23:33.684Z</time></trkpt><trkpt lat="40.872555" lon="14.172935"><ele>301.0</ele><time>2026-04-09T15:23:36.684Z</time></trkpt><trkpt lat="40.8725967" lon="14.1730183"><ele>301.0</ele><time>2026-04-09T15:23:39.686Z</time></trkpt><trkpt lat="40.8726367" lon="14.1731017"><ele>301.0</ele><time>2026-04-09T15:23:42.684Z</time></trkpt><trkpt lat="40.872655" lon="14.1732083"><ele>300.8333333333333</ele><time>2026-04-09T15:23:45.684Z</time></trkpt><trkpt lat="40.8726367" lon="14.1733267"><ele>300.66666666666663</ele><time>2026-04-09T15:23:48.684Z</time></trkpt><trkpt lat="40.8725867" lon="14.1734167"><ele>300.5</ele><time>2026-04-09T15:23:51.684Z</time></trkpt><trkpt lat="40.8725067" lon="14.1734433"><ele>300.3333333333333</ele><time>2026-04-09T15:23:54.684Z</time></trkpt><trkpt lat="40.8724183" lon="14.1734367"><ele>300.1666666666667</ele><time>2026-04-09T15:23:57.683Z</time></trkpt><trkpt lat="40.8723317" lon="14.1734433"><ele>300.0</ele><time>2026-04-09T15:24:00.684Z</time></trkpt><trkpt lat="40.872245" lon="14.17348"><ele>300.0</ele><time>2026-04-09T15:24:03.684Z</time></trkpt><trkpt lat="40.8721883" lon="14.1735233"><ele>300.0</ele><time>2026-04-09T15:24:05.684Z</time></trkpt><trkpt lat="40.872135" lon="14.173585"><ele>300.0</ele><time>2026-04-09T15:24:07.686Z</time></trkpt><trkpt lat="40.872095" lon="14.1736683"><ele>300.0</ele><time>2026-04-09T15:24:09.684Z</time></trkpt><trkpt lat="40.8720567" lon="14.17377"><ele>300.0</ele><time>2026-04-09T15:24:12.684Z</time></trkpt><trkpt lat="40.8720383" lon="14.1738767"><ele>300.0</ele><time>2026-04-09T15:24:15.684Z</time></trkpt><trkpt lat="40.8721017" lon="14.1739217"><ele>299.99999999999994</ele><time>2026-04-09T15:24:18.684Z</time></trkpt><trkpt lat="40.8721767" lon="14.1738867"><ele>300.0</ele><time>2026-04-09T15:24:21.684Z</time></trkpt><trkpt lat="40.8722433" lon="14.1738167"><ele>300.0</ele><time>2026-04-09T15:24:24.685Z</time></trkpt><trkpt lat="40.8723017" lon="14.1737733"><ele>300.0</ele><time>2026-04-09T15:24:26.685Z</time></trkpt><trkpt lat="40.8723717" lon="14.1737217"><ele>300.0</ele><time>2026-04-09T15:24:28.684Z</time></trkpt><trkpt lat="40.872435" lon="14.17369"><ele>299.99999999999994</ele><time>2026-04-09T15:24:30.687Z</time></trkpt><trkpt lat="40.872505" lon="14.1736867"><ele>300.0</ele><time>2026-04-09T15:24:32.687Z</time></trkpt><trkpt lat="40.87258" lon="14.1737217"><ele>302.0</ele><time>2026-04-09T15:24:35.684Z</time></trkpt><trkpt lat="40.8726633" lon="14.1737333"><ele>304.0</ele><time>2026-04-09T15:24:38.684Z</time></trkpt><trkpt lat="40.872755" lon="14.1737117"><ele>306.0</ele><time>2026-04-09T15:24:41.685Z</time></trkpt><trkpt lat="40.872835" lon="14.1736667"><ele>308.0</ele><time>2026-04-09T15:24:44.684Z</time></trkpt><trkpt lat="40.8728783" lon="14.173605"><ele>310.0</ele><time>2026-04-09T15:24:46.684Z</time></trkpt><trkpt lat="40.872945" lon="14.1735333"><ele>312.0</ele><time>2026-04-09T15:24:49.684Z</time></trkpt><trkpt lat="40.8729967" lon="14.1734583"><ele>312.0</ele><time>2026-04-09T15:24:52.684Z</time></trkpt><trkpt lat="40.8730483" lon="14.17339"><ele>312.0</ele><time>2026-04-09T15:24:55.684Z</time></trkpt><trkpt lat="40.873105" lon="14.1733117"><ele>312.0</ele><time>2026-04-09T15:24:58.685Z</time></trkpt><trkpt lat="40.87316" lon="14.1732067"><ele>312.0</ele><time>2026-04-09T15:25:01.684Z</time></trkpt><trkpt lat="40.87319" lon="14.1731317"><ele>312.0</ele><time>2026-04-09T15:25:03.684Z</time></trkpt><trkpt lat="40.87323" lon="14.1730617"><ele>312.0</ele><time>2026-04-09T15:25:05.685Z</time></trkpt><trkpt lat="40.8732683" lon="14.172995"><ele>312.0</ele><time>2026-04-09T15:25:07.685Z</time></trkpt><trkpt lat="40.8733117" lon="14.1729217"><ele>311.6666666666667</ele><time>2026-04-09T15:25:09.684Z</time></trkpt><trkpt lat="40.8733467" lon="14.1728467"><ele>311.3333333333333</ele><time>2026-04-09T15:25:11.684Z</time></trkpt><trkpt lat="40.873395" lon="14.17275"><ele>311.0</ele><time>2026-04-09T15:25:14.685Z</time></trkpt><trkpt lat="40.873455" lon="14.172655"><ele>310.66666666666663</ele><time>2026-04-09T15:25:17.684Z</time></trkpt><trkpt lat="40.8734933" lon="14.172585"><ele>310.3333333333333</ele><time>2026-04-09T15:25:19.684Z</time></trkpt><trkpt lat="40.873555" lon="14.17249"><ele>310.0</ele><time>2026-04-09T15:25:22.684Z</time></trkpt><trkpt lat="40.8736267" lon="14.1724517"><ele>310.8333333333333</ele><time>2026-04-09T15:25:24.686Z</time></trkpt><trkpt lat="40.8737033" lon="14.172455"><ele>311.66666666666663</ele><time>2026-04-09T15:25:26.685Z</time></trkpt><trkpt lat="40.873765" lon="14.1724817"><ele>312.5</ele><time>2026-04-09T15:25:28.686Z</time></trkpt><trkpt lat="40.8738583" lon="14.1725083"><ele>313.3333333333333</ele><time>2026-04-09T15:25:31.685Z</time></trkpt><trkpt lat="40.8739483" lon="14.17253"><ele>314.1666666666667</ele><time>2026-04-09T15:25:34.686Z</time></trkpt><trkpt lat="40.8740383" lon="14.1725317"><ele>315.0</ele><time>2026-04-09T15:25:37.686Z</time></trkpt><trkpt lat="40.8741183" lon="14.1725517"><ele>315.0</ele><time>2026-04-09T15:25:40.685Z</time></trkpt><trkpt lat="40.8742183" lon="14.172575"><ele>315.0</ele><time>2026-04-09T15:25:43.687Z</time></trkpt><trkpt lat="40.8742817" lon="14.1726"><ele>315.0</ele><time>2026-04-09T15:25:45.684Z</time></trkpt><trkpt lat="40.8743433" lon="14.17262"><ele>315.0</ele><time>2026-04-09T15:25:47.684Z</time></trkpt><trkpt lat="40.874425" lon="14.17265"><ele>315.0</ele><time>2026-04-09T15:25:50.684Z</time></trkpt><trkpt lat="40.8744833" lon="14.172695"><ele>315.0</ele><time>2026-04-09T15:25:52.684Z</time></trkpt><trkpt lat="40.87453" lon="14.172755"><ele>315.0</ele><time>2026-04-09T15:25:54.685Z</time></trkpt><trkpt lat="40.8745817" lon="14.1728267"><ele>314.57142857142856</ele><time>2026-04-09T15:25:56.684Z</time></trkpt><trkpt lat="40.874625" lon="14.1729017"><ele>314.1428571428571</ele><time>2026-04-09T15:25:58.684Z</time></trkpt><trkpt lat="40.874685" lon="14.17299"><ele>313.7142857142857</ele><time>2026-04-09T15:26:01.684Z</time></trkpt><trkpt lat="40.8747183" lon="14.1730733"><ele>313.2857142857143</ele><time>2026-04-09T15:26:03.684Z</time></trkpt><trkpt lat="40.8747533" lon="14.173145"><ele>312.85714285714283</ele><time>2026-04-09T15:26:05.684Z</time></trkpt><trkpt lat="40.8748117" lon="14.1732083"><ele>312.42857142857144</ele><time>2026-04-09T15:26:08.685Z</time></trkpt><trkpt lat="40.87487" lon="14.1732433"><ele>312.0</ele><time>2026-04-09T15:26:10.687Z</time></trkpt><trkpt lat="40.8749483" lon="14.1733067"><ele>313.8571428571429</ele><time>2026-04-09T15:26:13.685Z</time></trkpt><trkpt lat="40.8750083" lon="14.17335"><ele>315.71428571428567</ele><time>2026-04-09T15:26:15.686Z</time></trkpt><trkpt lat="40.8750683" lon="14.17338"><ele>317.57142857142856</ele><time>2026-04-09T15:26:17.689Z</time></trkpt><trkpt lat="40.8751283" lon="14.173425"><ele>319.42857142857144</ele><time>2026-04-09T15:26:19.684Z</time></trkpt><trkpt lat="40.8751717" lon="14.1734917"><ele>321.28571428571433</ele><time>2026-04-09T15:26:21.685Z</time></trkpt><trkpt lat="40.8752283" lon="14.1735533"><ele>323.1428571428571</ele><time>2026-04-09T15:26:23.684Z</time></trkpt><trkpt lat="40.87528" lon="14.1736017"><ele>325.0</ele><time>2026-04-09T15:26:25.684Z</time></trkpt><trkpt lat="40.8753233" lon="14.1736833"><ele>325.3333333333333</ele><time>2026-04-09T15:26:27.685Z</time></trkpt><trkpt lat="40.8754017" lon="14.1737367"><ele>325.66666666666663</ele><time>2026-04-09T15:26:30.684Z</time></trkpt><trkpt lat="40.875465" lon="14.173765"><ele>326.0</ele><time>2026-04-09T15:26:32.684Z</time></trkpt><trkpt lat="40.8755417" lon="14.1738233"><ele>326.3333333333333</ele><time>2026-04-09T15:26:35.684Z</time></trkpt><trkpt lat="40.8756033" lon="14.17386"><ele>326.6666666666667</ele><time>2026-04-09T15:26:37.684Z</time></trkpt><trkpt lat="40.8756667" lon="14.1738933"><ele>327.0</ele><time>2026-04-09T15:26:39.685Z</time></trkpt><trkpt lat="40.87576" lon="14.17391"><ele>327.0</ele><time>2026-04-09T15:26:42.684Z</time></trkpt><trkpt lat="40.8758417" lon="14.1739383"><ele>327.0</ele><time>2026-04-09T15:26:45.686Z</time></trkpt><trkpt lat="40.87591" lon="14.1738867"><ele>327.0</ele><time>2026-04-09T15:26:48.685Z</time></trkpt><trkpt lat="40.87596" lon="14.1738167"><ele>327.0</ele><time>2026-04-09T15:26:50.684Z</time></trkpt><trkpt lat="40.87601" lon="14.1737467"><ele>327.0</ele><time>2026-04-09T15:26:52.684Z</time></trkpt><trkpt lat="40.8760633" lon="14.1736683"><ele>327.0</ele><time>2026-04-09T15:26:54.684Z</time></trkpt><trkpt lat="40.8761267" lon="14.1736183"><ele>328.1428571428571</ele><time>2026-04-09T15:26:56.684Z</time></trkpt><trkpt lat="40.8761967" lon="14.173605"><ele>329.2857142857143</ele><time>2026-04-09T15:26:58.684Z</time></trkpt><trkpt lat="40.8762717" lon="14.1736"><ele>330.42857142857144</ele><time>2026-04-09T15:27:00.684Z</time></trkpt><trkpt lat="40.87634" lon="14.17361"><ele>331.57142857142856</ele><time>2026-04-09T15:27:02.684Z</time></trkpt><trkpt lat="40.876405" lon="14.1736233"><ele>332.7142857142857</ele><time>2026-04-09T15:27:04.684Z</time></trkpt><trkpt lat="40.8764833" lon="14.17363"><ele>333.85714285714283</ele><time>2026-04-09T15:27:08.685Z</time></trkpt><trkpt lat="40.8765217" lon="14.1737233"><ele>335.0</ele><time>2026-04-09T15:27:11.684Z</time></trkpt><trkpt lat="40.87654" lon="14.1738383"><ele>335.0</ele><time>2026-04-09T15:27:15.684Z</time></trkpt><trkpt lat="40.87653" lon="14.1739483"><ele>335.0</ele><time>2026-04-09T15:27:18.684Z</time></trkpt><trkpt lat="40.8765317" lon="14.1740483"><ele>335.0</ele><time>2026-04-09T15:27:20.684Z</time></trkpt><trkpt lat="40.8765333" lon="14.1741717"><ele>335.0</ele><time>2026-04-09T15:27:22.684Z</time></trkpt><trkpt lat="40.8765233" lon="14.1743067"><ele>335.0</ele><time>2026-04-09T15:27:24.685Z</time></trkpt><trkpt lat="40.876535" lon="14.1744217"><ele>335.0</ele><time>2026-04-09T15:27:26.685Z</time></trkpt><trkpt lat="40.8764767" lon="14.1744817"><ele>335.0</ele><time>2026-04-09T15:27:29.684Z</time></trkpt><trkpt lat="40.8765533" lon="14.1744933"><ele>335.0</ele><time>2026-04-09T15:27:58.684Z</time></trkpt><trkpt lat="40.876505" lon="14.1745783"><ele>335.0</ele><time>2026-04-09T15:28:01.684Z</time></trkpt><trkpt lat="40.8764567" lon="14.1746383"><ele>335.0</ele><time>2026-04-09T15:28:03.684Z</time></trkpt><trkpt lat="40.8763967" lon="14.1747133"><ele>335.0</ele><time>2026-04-09T15:28:05.686Z</time></trkpt><trkpt lat="40.8763267" lon="14.1748017"><ele>335.0</ele><time>2026-04-09T15:28:07.685Z</time></trkpt><trkpt lat="40.87626" lon="14.1748767"><ele>335.0</ele><time>2026-04-09T15:28:09.684Z</time></trkpt><trkpt lat="40.8761883" lon="14.17494"><ele>335.0</ele><time>2026-04-09T15:28:11.685Z</time></trkpt><trkpt lat="40.8760783" lon="14.175015"><ele>335.0</ele><time>2026-04-09T15:28:14.685Z</time></trkpt><trkpt lat="40.8760033" lon="14.1750817"><ele>335.0</ele><time>2026-04-09T15:28:16.685Z</time></trkpt><trkpt lat="40.8759583" lon="14.1751667"><ele>335.0</ele><time>2026-04-09T15:28:18.686Z</time></trkpt><trkpt lat="40.87592" lon="14.1752483"><ele>335.99999999999994</ele><time>2026-04-09T15:28:20.685Z</time></trkpt><trkpt lat="40.875875" lon="14.1753217"><ele>337.0</ele><time>2026-04-09T15:28:22.685Z</time></trkpt><trkpt lat="40.87582" lon="14.1753783"><ele>338.0</ele><time>2026-04-09T15:28:24.684Z</time></trkpt><trkpt lat="40.87576" lon="14.1754267"><ele>339.0</ele><time>2026-04-09T15:28:26.685Z</time></trkpt><trkpt lat="40.8757033" lon="14.175485"><ele>340.0</ele><time>2026-04-09T15:28:28.684Z</time></trkpt><trkpt lat="40.8756533" lon="14.175575"><ele>340.99999999999994</ele><time>2026-04-09T15:28:30.684Z</time></trkpt><trkpt lat="40.87561" lon="14.1756633"><ele>342.0</ele><time>2026-04-09T15:28:32.686Z</time></trkpt><trkpt lat="40.87557" lon="14.1757517"><ele>342.1666666666667</ele><time>2026-04-09T15:28:34.684Z</time></trkpt><trkpt lat="40.8755317" lon="14.1758467"><ele>342.3333333333333</ele><time>2026-04-09T15:28:36.685Z</time></trkpt><trkpt lat="40.87548" lon="14.1759267"><ele>342.5</ele><time>2026-04-09T15:28:38.684Z</time></trkpt><trkpt lat="40.8754117" lon="14.1759917"><ele>342.66666666666663</ele><time>2026-04-09T15:28:40.684Z</time></trkpt><trkpt lat="40.8753767" lon="14.1760817"><ele>342.8333333333333</ele><time>2026-04-09T15:28:42.685Z</time></trkpt><trkpt lat="40.8753733" lon="14.176185"><ele>343.0</ele><time>2026-04-09T15:28:44.685Z</time></trkpt><trkpt lat="40.8753583" lon="14.1762833"><ele>343.0</ele><time>2026-04-09T15:28:46.684Z</time></trkpt><trkpt lat="40.87534" lon="14.17638"><ele>343.0</ele><time>2026-04-09T15:28:48.684Z</time></trkpt><trkpt lat="40.875325" lon="14.1764817"><ele>343.0</ele><time>2026-04-09T15:28:50.685Z</time></trkpt><trkpt lat="40.8753183" lon="14.1765733"><ele>343.0</ele><time>2026-04-09T15:28:52.687Z</time></trkpt><trkpt lat="40.8753033" lon="14.1766617"><ele>343.0</ele><time>2026-04-09T15:28:54.685Z</time></trkpt><trkpt lat="40.87528" lon="14.1767417"><ele>343.0</ele><time>2026-04-09T15:28:56.685Z</time></trkpt><trkpt lat="40.8752417" lon="14.1768117"><ele>343.0</ele><time>2026-04-09T15:28:58.685Z</time></trkpt><trkpt lat="40.875195" lon="14.1768767"><ele>342.5</ele><time>2026-04-09T15:29:00.684Z</time></trkpt><trkpt lat="40.875135" lon="14.176925"><ele>342.0</ele><time>2026-04-09T15:29:02.684Z</time></trkpt><trkpt lat="40.8750867" lon="14.1770033"><ele>341.5</ele><time>2026-04-09T15:29:05.686Z</time></trkpt><trkpt lat="40.8750283" lon="14.1770483"><ele>341.0</ele><time>2026-04-09T15:29:08.683Z</time></trkpt><trkpt lat="40.8749517" lon="14.1770883"><ele>340.5</ele><time>2026-04-09T15:29:11.684Z</time></trkpt><trkpt lat="40.87487" lon="14.1771333"><ele>340.0</ele><time>2026-04-09T15:29:14.684Z</time></trkpt><trkpt lat="40.8747983" lon="14.1771833"><ele>341.5714285714286</ele><time>2026-04-09T15:29:17.683Z</time></trkpt><trkpt lat="40.874725" lon="14.1772217"><ele>343.1428571428571</ele><time>2026-04-09T15:29:20.684Z</time></trkpt><trkpt lat="40.8746767" lon="14.1772767"><ele>344.7142857142857</ele><time>2026-04-09T15:29:22.684Z</time></trkpt><trkpt lat="40.8746133" lon="14.17732"><ele>346.28571428571433</ele><time>2026-04-09T15:29:24.686Z</time></trkpt><trkpt lat="40.8745533" lon="14.1773817"><ele>347.8571428571429</ele><time>2026-04-09T15:29:26.684Z</time></trkpt><trkpt lat="40.8744933" lon="14.177455"><ele>349.42857142857144</ele><time>2026-04-09T15:29:29.684Z</time></trkpt><trkpt lat="40.874435" lon="14.1775233"><ele>351.0</ele><time>2026-04-09T15:29:32.684Z</time></trkpt><trkpt lat="40.8743833" lon="14.1776217"><ele>351.5</ele><time>2026-04-09T15:29:35.684Z</time></trkpt><trkpt lat="40.874365" lon="14.1777083"><ele>352.0</ele><time>2026-04-09T15:29:37.684Z</time></trkpt><trkpt lat="40.8743533" lon="14.1778"><ele>352.5</ele><time>2026-04-09T15:29:39.684Z</time></trkpt><trkpt lat="40.8743383" lon="14.1779233"><ele>353.0</ele><time>2026-04-09T15:29:42.684Z</time></trkpt><trkpt lat="40.874325" lon="14.1780183"><ele>353.5</ele><time>2026-04-09T15:29:44.684Z</time></trkpt><trkpt lat="40.874315" lon="14.1781017"><ele>354.0</ele><time>2026-04-09T15:29:46.684Z</time></trkpt><trkpt lat="40.8742983" lon="14.1782233"><ele>354.5</ele><time>2026-04-09T15:29:49.684Z</time></trkpt><trkpt lat="40.8742867" lon="14.178315"><ele>355.0</ele><time>2026-04-09T15:29:51.684Z</time></trkpt><trkpt lat="40.874265" lon="14.178405"><ele>355.5</ele><time>2026-04-09T15:29:53.684Z</time></trkpt><trkpt lat="40.8742417" lon="14.1785183"><ele>356.0</ele><time>2026-04-09T15:29:56.684Z</time></trkpt><trkpt lat="40.8742433" lon="14.1786267"><ele>356.5</ele><time>2026-04-09T15:29:59.684Z</time></trkpt><trkpt lat="40.8742417" lon="14.17873"><ele>357.0</ele><time>2026-04-09T15:30:02.685Z</time></trkpt><trkpt lat="40.87423" lon="14.1788167"><ele>357.1666666666667</ele><time>2026-04-09T15:30:04.685Z</time></trkpt><trkpt lat="40.874215" lon="14.178915"><ele>357.3333333333333</ele><time>2026-04-09T15:30:06.685Z</time></trkpt><trkpt lat="40.874215" lon="14.1790167"><ele>357.5</ele><time>2026-04-09T15:30:09.684Z</time></trkpt><trkpt lat="40.8742167" lon="14.17914"><ele>357.66666666666663</ele><time>2026-04-09T15:30:12.684Z</time></trkpt><trkpt lat="40.8742233" lon="14.179235"><ele>357.8333333333333</ele><time>2026-04-09T15:30:14.688Z</time></trkpt><trkpt lat="40.8742433" lon="14.1793317"><ele>358.0</ele><time>2026-04-09T15:30:16.684Z</time></trkpt><trkpt lat="40.87426" lon="14.1794317"><ele>358.5</ele><time>2026-04-09T15:30:19.684Z</time></trkpt><trkpt lat="40.8742433" lon="14.1795283"><ele>359.0</ele><time>2026-04-09T15:30:21.684Z</time></trkpt><trkpt lat="40.87421" lon="14.1796217"><ele>359.5</ele><time>2026-04-09T15:30:23.685Z</time></trkpt><trkpt lat="40.8741833" lon="14.1797067"><ele>360.0</ele><time>2026-04-09T15:30:25.685Z</time></trkpt><trkpt lat="40.87416" lon="14.1797967"><ele>360.5</ele><time>2026-04-09T15:30:27.685Z</time></trkpt><trkpt lat="40.8741167" lon="14.17989"><ele>361.0</ele><time>2026-04-09T15:30:29.685Z</time></trkpt><trkpt lat="40.8740667" lon="14.179985"><ele>362.0</ele><time>2026-04-09T15:30:31.685Z</time></trkpt><trkpt lat="40.874025" lon="14.1801033"><ele>363.0</ele><time>2026-04-09T15:30:33.686Z</time></trkpt><trkpt lat="40.8739767" lon="14.18016"><ele>364.0</ele><time>2026-04-09T15:30:37.684Z</time></trkpt><trkpt lat="40.87394" lon="14.1802683"><ele>365.0</ele><time>2026-04-09T15:30:40.684Z</time></trkpt><trkpt lat="40.8739183" lon="14.1803483"><ele>366.0</ele><time>2026-04-09T15:30:42.684Z</time></trkpt><trkpt lat="40.8738867" lon="14.1804617"><ele>367.0</ele><time>2026-04-09T15:30:45.684Z</time></trkpt><trkpt lat="40.8738567" lon="14.1805617"><ele>367.0</ele><time>2026-04-09T15:30:48.684Z</time></trkpt><trkpt lat="40.8738567" lon="14.1806533"><ele>367.0</ele><time>2026-04-09T15:30:51.685Z</time></trkpt><trkpt lat="40.8738167" lon="14.180785"><ele>367.0</ele><time>2026-04-09T15:30:54.684Z</time></trkpt><trkpt lat="40.8737617" lon="14.1809283"><ele>367.0</ele><time>2026-04-09T15:30:56.684Z</time></trkpt><trkpt lat="40.87372" lon="14.1810233"><ele>367.0</ele><time>2026-04-09T15:30:57.685Z</time></trkpt><trkpt lat="40.8736917" lon="14.18112"><ele>366.6</ele><time>2026-04-09T15:30:58.685Z</time></trkpt><trkpt lat="40.8736567" lon="14.1812217"><ele>366.20000000000005</ele><time>2026-04-09T15:30:59.686Z</time></trkpt><trkpt lat="40.8736133" lon="14.181315"><ele>365.8</ele><time>2026-04-09T15:31:00.685Z</time></trkpt><trkpt lat="40.873585" lon="14.18143"><ele>365.4</ele><time>2026-04-09T15:31:01.685Z</time></trkpt><trkpt lat="40.8735567" lon="14.18162"><ele>365.0</ele><time>2026-04-09T15:31:03.684Z</time></trkpt><trkpt lat="40.8735283" lon="14.1817017"><ele>364.8</ele><time>2026-04-09T15:31:04.684Z</time></trkpt><trkpt lat="40.8734967" lon="14.181775"><ele>364.6</ele><time>2026-04-09T15:31:05.685Z</time></trkpt><trkpt lat="40.8734633" lon="14.18185"><ele>364.4</ele><time>2026-04-09T15:31:06.684Z</time></trkpt><trkpt lat="40.8734017" lon="14.1819683"><ele>364.2</ele><time>2026-04-09T15:31:08.684Z</time></trkpt><trkpt lat="40.8733417" lon="14.1820717"><ele>364.0</ele><time>2026-04-09T15:31:10.684Z</time></trkpt><trkpt lat="40.8732617" lon="14.1821783"><ele>364.0</ele><time>2026-04-09T15:31:12.685Z</time></trkpt><trkpt lat="40.8731783" lon="14.1822933"><ele>364.0</ele><time>2026-04-09T15:31:14.684Z</time></trkpt><trkpt lat="40.873105" lon="14.182415"><ele>364.0</ele><time>2026-04-09T15:31:16.684Z</time></trkpt><trkpt lat="40.87303" lon="14.1825367"><ele>364.0</ele><time>2026-04-09T15:31:18.685Z</time></trkpt><trkpt lat="40.8729483" lon="14.1826483"><ele>364.0</ele><time>2026-04-09T15:31:20.684Z</time></trkpt><trkpt lat="40.8728733" lon="14.1827533"><ele>364.0</ele><time>2026-04-09T15:31:22.685Z</time></trkpt><trkpt lat="40.8727867" lon="14.182845"><ele>364.0</ele><time>2026-04-09T15:31:24.684Z</time></trkpt><trkpt lat="40.8726883" lon="14.1829233"><ele>364.0</ele><time>2026-04-09T15:31:26.684Z</time></trkpt><trkpt lat="40.8726017" lon="14.18299"><ele>364.0</ele><time>2026-04-09T15:31:28.686Z</time></trkpt><trkpt lat="40.8725167" lon="14.1830217"><ele>364.0</ele><time>2026-04-09T15:31:30.684Z</time></trkpt><trkpt lat="40.8724317" lon="14.1830017"><ele>364.0</ele><time>2026-04-09T15:31:32.684Z</time></trkpt><trkpt lat="40.8723617" lon="14.1829267"><ele>364.0</ele><time>2026-04-09T15:31:34.684Z</time></trkpt><trkpt lat="40.872295" lon="14.1828367"><ele>364.0</ele><time>2026-04-09T15:31:36.684Z</time></trkpt><trkpt lat="40.87222" lon="14.1827867"><ele>364.0</ele><time>2026-04-09T15:31:38.684Z</time></trkpt><trkpt lat="40.8721383" lon="14.1827567"><ele>364.0</ele><time>2026-04-09T15:31:40.684Z</time></trkpt><trkpt lat="40.8720633" lon="14.1827417"><ele>364.0</ele><time>2026-04-09T15:31:42.684Z</time></trkpt><trkpt lat="40.8719833" lon="14.18272"><ele>364.0</ele><time>2026-04-09T15:31:44.684Z</time></trkpt><trkpt lat="40.8718683" lon="14.182745"><ele>364.0</ele><time>2026-04-09T15:31:46.685Z</time></trkpt><trkpt lat="40.8717767" lon="14.1827633"><ele>364.0</ele><time>2026-04-09T15:31:48.694Z</time></trkpt><trkpt lat="40.87171" lon="14.1828417"><ele>364.0</ele><time>2026-04-09T15:31:50.685Z</time></trkpt><trkpt lat="40.8716517" lon="14.1828933"><ele>363.16666666666663</ele><time>2026-04-09T15:31:51.686Z</time></trkpt><trkpt lat="40.87156" lon="14.1829867"><ele>362.3333333333333</ele><time>2026-04-09T15:31:53.685Z</time></trkpt><trkpt lat="40.8715217" lon="14.183055"><ele>361.5</ele><time>2026-04-09T15:31:54.686Z</time></trkpt><trkpt lat="40.8714833" lon="14.183135"><ele>360.6666666666667</ele><time>2026-04-09T15:31:55.686Z</time></trkpt><trkpt lat="40.8714433" lon="14.1832083"><ele>359.83333333333337</ele><time>2026-04-09T15:31:56.685Z</time></trkpt><trkpt lat="40.8714333" lon="14.1832933"><ele>359.0</ele><time>2026-04-09T15:31:57.685Z</time></trkpt><trkpt lat="40.871425" lon="14.1833817"><ele>361.0</ele><time>2026-04-09T15:31:58.684Z</time></trkpt><trkpt lat="40.8714083" lon="14.1834633"><ele>363.0</ele><time>2026-04-09T15:31:59.685Z</time></trkpt><trkpt lat="40.8713983" lon="14.1835467"><ele>365.0</ele><time>2026-04-09T15:32:00.685Z</time></trkpt><trkpt lat="40.8713917" lon="14.1836883"><ele>367.0</ele><time>2026-04-09T15:32:02.688Z</time></trkpt><trkpt lat="40.8713933" lon="14.1837983"><ele>369.0</ele><time>2026-04-09T15:32:04.684Z</time></trkpt><trkpt lat="40.8713683" lon="14.183885"><ele>371.0</ele><time>2026-04-09T15:32:06.684Z</time></trkpt><trkpt lat="40.871355" lon="14.1839933"><ele>371.5</ele><time>2026-04-09T15:32:09.684Z</time></trkpt><trkpt lat="40.8713317" lon="14.184075"><ele>372.0</ele><time>2026-04-09T15:32:11.685Z</time></trkpt><trkpt lat="40.871325" lon="14.1842283"><ele>372.5</ele><time>2026-04-09T15:32:14.685Z</time></trkpt><trkpt lat="40.8713017" lon="14.1843433"><ele>373.0</ele><time>2026-04-09T15:32:16.685Z</time></trkpt><trkpt lat="40.8712517" lon="14.18444"><ele>373.5</ele><time>2026-04-09T15:32:18.684Z</time></trkpt><trkpt lat="40.8712" lon="14.1845067"><ele>374.0</ele><time>2026-04-09T15:32:20.685Z</time></trkpt><trkpt lat="40.871155" lon="14.1845833"><ele>374.0</ele><time>2026-04-09T15:32:22.684Z</time></trkpt><trkpt lat="40.8711117" lon="14.1846567"><ele>374.0</ele><time>2026-04-09T15:32:24.684Z</time></trkpt><trkpt lat="40.87105" lon="14.1847233"><ele>374.0</ele><time>2026-04-09T15:32:26.684Z</time></trkpt><trkpt lat="40.871" lon="14.1847917"><ele>374.0</ele><time>2026-04-09T15:32:28.685Z</time></trkpt><trkpt lat="40.87094" lon="14.1848617"><ele>374.0</ele><time>2026-04-09T15:32:30.684Z</time></trkpt><trkpt lat="40.870875" lon="14.1849283"><ele>374.0</ele><time>2026-04-09T15:32:32.684Z</time></trkpt><trkpt lat="40.8708133" lon="14.1849783"><ele>374.33333333333337</ele><time>2026-04-09T15:32:34.684Z</time></trkpt><trkpt lat="40.8707383" lon="14.185025"><ele>374.6666666666667</ele><time>2026-04-09T15:32:36.684Z</time></trkpt><trkpt lat="40.8706783" lon="14.1850817"><ele>375.0</ele><time>2026-04-09T15:32:38.685Z</time></trkpt><trkpt lat="40.87063" lon="14.1851367"><ele>375.3333333333333</ele><time>2026-04-09T15:32:40.684Z</time></trkpt><trkpt lat="40.87057" lon="14.1852167"><ele>375.66666666666663</ele><time>2026-04-09T15:32:43.684Z</time></trkpt><trkpt lat="40.8705433" lon="14.1853433"><ele>376.0</ele><time>2026-04-09T15:32:46.684Z</time></trkpt><trkpt lat="40.87055" lon="14.1854567"><ele>376.0</ele><time>2026-04-09T15:32:48.685Z</time></trkpt><trkpt lat="40.8705267" lon="14.18557"><ele>376.0</ele><time>2026-04-09T15:32:51.684Z</time></trkpt><trkpt lat="40.8705217" lon="14.185665"><ele>376.0</ele><time>2026-04-09T15:32:53.684Z</time></trkpt><trkpt lat="40.8705183" lon="14.18576"><ele>376.0</ele><time>2026-04-09T15:32:56.684Z</time></trkpt><trkpt lat="40.8705417" lon="14.1858783"><ele>376.0</ele><time>2026-04-09T15:32:59.685Z</time></trkpt><trkpt lat="40.8705567" lon="14.18599"><ele>376.0</ele><time>2026-04-09T15:33:02.684Z</time></trkpt><trkpt lat="40.8705633" lon="14.1860833"><ele>376.5</ele><time>2026-04-09T15:33:05.685Z</time></trkpt><trkpt lat="40.8705683" lon="14.1861733"><ele>377.0</ele><time>2026-04-09T15:33:07.686Z</time></trkpt><trkpt lat="40.8705883" lon="14.1862933"><ele>377.5</ele><time>2026-04-09T15:33:10.684Z</time></trkpt><trkpt lat="40.8706" lon="14.1863767"><ele>378.0</ele><time>2026-04-09T15:33:13.684Z</time></trkpt><trkpt lat="40.8706017" lon="14.1864733"><ele>378.5</ele><time>2026-04-09T15:33:15.684Z</time></trkpt><trkpt lat="40.870595" lon="14.18658"><ele>379.0</ele><time>2026-04-09T15:33:18.685Z</time></trkpt><trkpt lat="40.8705617" lon="14.1866867"><ele>379.0</ele><time>2026-04-09T15:33:21.684Z</time></trkpt><trkpt lat="40.8705" lon="14.18676"><ele>379.0</ele><time>2026-04-09T15:33:24.687Z</time></trkpt><trkpt lat="40.8704083" lon="14.1867933"><ele>379.0</ele><time>2026-04-09T15:33:27.685Z</time></trkpt><trkpt lat="40.8703317" lon="14.1868067"><ele>379.0</ele><time>2026-04-09T15:33:29.686Z</time></trkpt><trkpt lat="40.870245" lon="14.1868183"><ele>379.0</ele><time>2026-04-09T15:33:31.686Z</time></trkpt><trkpt lat="40.870165" lon="14.1868167"><ele>379.0</ele><time>2026-04-09T15:33:33.687Z</time></trkpt><trkpt lat="40.8700917" lon="14.1868333"><ele>380.0</ele><time>2026-04-09T15:33:35.689Z</time></trkpt><trkpt lat="40.8700233" lon="14.18684"><ele>381.0</ele><time>2026-04-09T15:33:37.687Z</time></trkpt><trkpt lat="40.8699383" lon="14.186855"><ele>382.0</ele><time>2026-04-09T15:33:39.69Z</time></trkpt><trkpt lat="40.8698483" lon="14.1868667"><ele>383.0</ele><time>2026-04-09T15:33:41.687Z</time></trkpt><trkpt lat="40.8697533" lon="14.186875"><ele>384.00000000000006</ele><time>2026-04-09T15:33:43.686Z</time></trkpt><trkpt lat="40.8696733" lon="14.186875"><ele>385.0</ele><time>2026-04-09T15:33:45.689Z</time></trkpt><trkpt lat="40.8696033" lon="14.1868817"><ele>385.0</ele><time>2026-04-09T15:33:47.686Z</time></trkpt><trkpt lat="40.8695283" lon="14.1868833"><ele>385.0</ele><time>2026-04-09T15:33:49.693Z</time></trkpt><trkpt lat="40.8694617" lon="14.1868617"><ele>385.0</ele><time>2026-04-09T15:33:51.687Z</time></trkpt><trkpt lat="40.8694" lon="14.1868267"><ele>385.0</ele><time>2026-04-09T15:33:53.689Z</time></trkpt><trkpt lat="40.869335" lon="14.18678"><ele>385.0</ele><time>2026-04-09T15:33:55.688Z</time></trkpt><trkpt lat="40.8692667" lon="14.1867583"><ele>385.0</ele><time>2026-04-09T15:33:57.687Z</time></trkpt><trkpt lat="40.869195" lon="14.1867367"><ele>385.0</ele><time>2026-04-09T15:33:59.686Z</time></trkpt><trkpt lat="40.8691183" lon="14.186705"><ele>384.7142857142857</ele><time>2026-04-09T15:34:02.688Z</time></trkpt><trkpt lat="40.8690567" lon="14.1866633"><ele>384.42857142857144</ele><time>2026-04-09T15:34:04.687Z</time></trkpt><trkpt lat="40.868995" lon="14.1866017"><ele>384.1428571428571</ele><time>2026-04-09T15:34:06.688Z</time></trkpt><trkpt lat="40.8689283" lon="14.1865617"><ele>383.8571428571429</ele><time>2026-04-09T15:34:08.687Z</time></trkpt><trkpt lat="40.868865" lon="14.1865367"><ele>383.57142857142856</ele><time>2026-04-09T15:34:10.688Z</time></trkpt><trkpt lat="40.8688017" lon="14.1865133"><ele>383.2857142857143</ele><time>2026-04-09T15:34:12.689Z</time></trkpt><trkpt lat="40.8687367" lon="14.1864933"><ele>383.0</ele><time>2026-04-09T15:34:14.689Z</time></trkpt><trkpt lat="40.8686717" lon="14.1865017"><ele>383.0</ele><time>2026-04-09T15:34:16.687Z</time></trkpt><trkpt lat="40.8686083" lon="14.186505"><ele>383.0</ele><time>2026-04-09T15:34:18.687Z</time></trkpt><trkpt lat="40.8685467" lon="14.1865283"><ele>383.0</ele><time>2026-04-09T15:34:20.687Z</time></trkpt><trkpt lat="40.8684633" lon="14.1865833"><ele>383.0</ele><time>2026-04-09T15:34:23.685Z</time></trkpt><trkpt lat="40.86839" lon="14.1866383"><ele>383.0</ele><time>2026-04-09T15:34:26.684Z</time></trkpt><trkpt lat="40.8683167" lon="14.1866867"><ele>383.0</ele><time>2026-04-09T15:34:29.687Z</time></trkpt><trkpt lat="40.86824" lon="14.1867133"><ele>385.33333333333337</ele><time>2026-04-09T15:34:32.685Z</time></trkpt><trkpt lat="40.8681617" lon="14.18677"><ele>387.6666666666667</ele><time>2026-04-09T15:34:35.686Z</time></trkpt><trkpt lat="40.8680867" lon="14.1868067"><ele>390.0</ele><time>2026-04-09T15:34:38.687Z</time></trkpt><trkpt lat="40.868025" lon="14.186835"><ele>392.33333333333337</ele><time>2026-04-09T15:34:40.686Z</time></trkpt><trkpt lat="40.867955" lon="14.1868883"><ele>394.6666666666667</ele><time>2026-04-09T15:34:43.686Z</time></trkpt><trkpt lat="40.867885" lon="14.1869267"><ele>397.0</ele><time>2026-04-09T15:34:46.685Z</time></trkpt><trkpt lat="40.8678267" lon="14.18699"><ele>397.00000000000006</ele><time>2026-04-09T15:34:49.685Z</time></trkpt><trkpt lat="40.8677817" lon="14.1870683"><ele>397.0</ele><time>2026-04-09T15:34:52.686Z</time></trkpt><trkpt lat="40.8677283" lon="14.1871367"><ele>397.0</ele><time>2026-04-09T15:34:55.686Z</time></trkpt><trkpt lat="40.8676667" lon="14.1871983"><ele>397.0</ele><time>2026-04-09T15:34:58.686Z</time></trkpt><trkpt lat="40.8676" lon="14.18727"><ele>397.00000000000006</ele><time>2026-04-09T15:35:01.686Z</time></trkpt><trkpt lat="40.867535" lon="14.18732"><ele>397.0</ele><time>2026-04-09T15:35:04.686Z</time></trkpt><trkpt lat="40.8674683" lon="14.1873867"><ele>398.00000000000006</ele><time>2026-04-09T15:35:07.687Z</time></trkpt><trkpt lat="40.86741" lon="14.1874183"><ele>399.0</ele><time>2026-04-09T15:35:09.685Z</time></trkpt><trkpt lat="40.8673283" lon="14.1874667"><ele>400.0</ele><time>2026-04-09T15:35:12.685Z</time></trkpt><trkpt lat="40.8672517" lon="14.187505"><ele>401.0</ele><time>2026-04-09T15:35:15.686Z</time></trkpt><trkpt lat="40.8671817" lon="14.1875333"><ele>402.00000000000006</ele><time>2026-04-09T15:35:18.686Z</time></trkpt><trkpt lat="40.86711" lon="14.18757"><ele>403.0</ele><time>2026-04-09T15:35:21.685Z</time></trkpt><trkpt lat="40.8670433" lon="14.1875967"><ele>403.00000000000006</ele><time>2026-04-09T15:35:24.686Z</time></trkpt><trkpt lat="40.8669683" lon="14.18761"><ele>403.0</ele><time>2026-04-09T15:35:27.686Z</time></trkpt><trkpt lat="40.866885" lon="14.1876233"><ele>403.0</ele><time>2026-04-09T15:35:30.688Z</time></trkpt><trkpt lat="40.86681" lon="14.187645"><ele>403.0</ele><time>2026-04-09T15:35:33.686Z</time></trkpt><trkpt lat="40.8667433" lon="14.1877017"><ele>403.00000000000006</ele><time>2026-04-09T15:35:36.686Z</time></trkpt><trkpt lat="40.866675" lon="14.1877717"><ele>403.0</ele><time>2026-04-09T15:35:39.685Z</time></trkpt><trkpt lat="40.8666217" lon="14.1878267"><ele>403.33333333333337</ele><time>2026-04-09T15:35:41.688Z</time></trkpt><trkpt lat="40.8665717" lon="14.187885"><ele>403.6666666666667</ele><time>2026-04-09T15:35:43.686Z</time></trkpt><trkpt lat="40.866525" lon="14.1879467"><ele>404.0</ele><time>2026-04-09T15:35:45.686Z</time></trkpt><trkpt lat="40.866475" lon="14.1880333"><ele>404.33333333333337</ele><time>2026-04-09T15:35:48.685Z</time></trkpt><trkpt lat="40.866435" lon="14.1881333"><ele>404.6666666666667</ele><time>2026-04-09T15:35:51.685Z</time></trkpt><trkpt lat="40.8663933" lon="14.1882367"><ele>405.0</ele><time>2026-04-09T15:35:54.687Z</time></trkpt><trkpt lat="40.8663383" lon="14.1883283"><ele>406.4</ele><time>2026-04-09T15:35:57.687Z</time></trkpt><trkpt lat="40.8662867" lon="14.1884167"><ele>407.8</ele><time>2026-04-09T15:36:00.687Z</time></trkpt><trkpt lat="40.86624" lon="14.1885217"><ele>409.20000000000005</ele><time>2026-04-09T15:36:03.686Z</time></trkpt><trkpt lat="40.8661917" lon="14.1886317"><ele>410.6</ele><time>2026-04-09T15:36:06.687Z</time></trkpt><trkpt lat="40.8661517" lon="14.188735"><ele>412.0</ele><time>2026-04-09T15:36:09.684Z</time></trkpt><trkpt lat="40.866115" lon="14.1888467"><ele>412.00000000000006</ele><time>2026-04-09T15:36:12.686Z</time></trkpt><trkpt lat="40.866075" lon="14.1889183"><ele>412.0</ele><time>2026-04-09T15:36:14.684Z</time></trkpt><trkpt lat="40.8660383" lon="14.18904"><ele>412.0</ele><time>2026-04-09T15:36:17.688Z</time></trkpt><trkpt lat="40.86601" lon="14.18913"><ele>412.0</ele><time>2026-04-09T15:36:19.688Z</time></trkpt><trkpt lat="40.8659767" lon="14.1892183"><ele>412.00000000000006</ele><time>2026-04-09T15:36:21.686Z</time></trkpt><trkpt lat="40.8659417" lon="14.1893117"><ele>412.0</ele><time>2026-04-09T15:36:23.686Z</time></trkpt><trkpt lat="40.8658833" lon="14.1893883"><ele>412.6666666666667</ele><time>2026-04-09T15:36:25.687Z</time></trkpt><trkpt lat="40.8658033" lon="14.1894317"><ele>413.33333333333337</ele><time>2026-04-09T15:36:27.686Z</time></trkpt><trkpt lat="40.8657283" lon="14.189475"><ele>414.0</ele><time>2026-04-09T15:36:29.688Z</time></trkpt><trkpt lat="40.8656483" lon="14.1895217"><ele>414.66666666666663</ele><time>2026-04-09T15:36:31.686Z</time></trkpt><trkpt lat="40.8655817" lon="14.189585"><ele>415.3333333333333</ele><time>2026-04-09T15:36:33.687Z</time></trkpt><trkpt lat="40.86551" lon="14.1896467"><ele>416.0</ele><time>2026-04-09T15:36:35.686Z</time></trkpt><trkpt lat="40.86543" lon="14.189675"><ele>415.99999999999994</ele><time>2026-04-09T15:36:37.686Z</time></trkpt><trkpt lat="40.8653517" lon="14.1897"><ele>416.0</ele><time>2026-04-09T15:36:39.685Z</time></trkpt><trkpt lat="40.86527" lon="14.189725"><ele>416.0</ele><time>2026-04-09T15:36:41.687Z</time></trkpt><trkpt lat="40.865195" lon="14.18976"><ele>416.0</ele><time>2026-04-09T15:36:43.687Z</time></trkpt><trkpt lat="40.8651183" lon="14.1898033"><ele>415.99999999999994</ele><time>2026-04-09T15:36:45.686Z</time></trkpt><trkpt lat="40.8650367" lon="14.1898467"><ele>416.0</ele><time>2026-04-09T15:36:47.687Z</time></trkpt><trkpt lat="40.8649533" lon="14.1898917"><ele>416.6</ele><time>2026-04-09T15:36:49.687Z</time></trkpt><trkpt lat="40.8648625" lon="14.1899629"><ele>417.20000000000005</ele><time>2026-04-09T15:36:51.844Z</time></trkpt><trkpt lat="40.8647903" lon="14.1899902"><ele>417.79999999999995</ele><time>2026-04-09T15:36:53.687Z</time></trkpt><trkpt lat="40.8647104" lon="14.1900543"><ele>418.4</ele><time>2026-04-09T15:36:55.688Z</time></trkpt><trkpt lat="40.8646416" lon="14.1901519"><ele>419.0</ele><time>2026-04-09T15:36:57.687Z</time></trkpt><trkpt lat="40.8645758" lon="14.1902489"><ele>418.99999999999994</ele><time>2026-04-09T15:36:59.687Z</time></trkpt><trkpt lat="40.8644891" lon="14.1903403"><ele>419.0</ele><time>2026-04-09T15:37:01.69Z</time></trkpt><trkpt lat="40.8643954" lon="14.1903929"><ele>419.0</ele><time>2026-04-09T15:37:03.684Z</time></trkpt><trkpt lat="40.8643122" lon="14.1904376"><ele>419.0</ele><time>2026-04-09T15:37:05.688Z</time></trkpt><trkpt lat="40.8642501" lon="14.1904987"><ele>418.99999999999994</ele><time>2026-04-09T15:37:07.685Z</time></trkpt><trkpt lat="40.8642085" lon="14.1905677"><ele>419.0</ele><time>2026-04-09T15:37:09.685Z</time></trkpt><trkpt lat="40.8641715" lon="14.1906441"><ele>418.16666666666663</ele><time>2026-04-09T15:37:11.686Z</time></trkpt><trkpt lat="40.8641415" lon="14.1907316"><ele>417.3333333333333</ele><time>2026-04-09T15:37:14.687Z</time></trkpt><trkpt lat="40.8642233" lon="14.1906583"><ele>416.5</ele><time>2026-04-09T15:37:59.688Z</time></trkpt><trkpt lat="40.8641467" lon="14.1906283"><ele>415.66666666666663</ele><time>2026-04-09T15:38:38.686Z</time></trkpt><trkpt lat="40.864205" lon="14.19067"><ele>414.8333333333333</ele><time>2026-04-09T15:39:45.685Z</time></trkpt><trkpt lat="40.8642767" lon="14.1907367"><ele>414.0</ele><time>2026-04-09T15:39:49.686Z</time></trkpt><trkpt lat="40.8643217" lon="14.1908067"><ele>414.0</ele><time>2026-04-09T15:39:53.686Z</time></trkpt><trkpt lat="40.864285" lon="14.1908833"><ele>414.0</ele><time>2026-04-09T15:39:55.686Z</time></trkpt><trkpt lat="40.8642117" lon="14.1909683"><ele>414.0</ele><time>2026-04-09T15:39:57.685Z</time></trkpt><trkpt lat="40.8641033" lon="14.19108"><ele>414.0</ele><time>2026-04-09T15:39:59.688Z</time></trkpt><trkpt lat="40.8640517" lon="14.1911283"><ele>414.0</ele><time>2026-04-09T15:40:00.687Z</time></trkpt><trkpt lat="40.86397" lon="14.191235"><ele>415.0</ele><time>2026-04-09T15:40:02.688Z</time></trkpt><trkpt lat="40.8639" lon="14.191345"><ele>416.0</ele><time>2026-04-09T15:40:04.687Z</time></trkpt><trkpt lat="40.8638283" lon="14.1914567"><ele>417.0</ele><time>2026-04-09T15:40:06.687Z</time></trkpt><trkpt lat="40.8637783" lon="14.1915133"><ele>418.0</ele><time>2026-04-09T15:40:07.687Z</time></trkpt><trkpt lat="40.8637367" lon="14.1915833"><ele>419.0</ele><time>2026-04-09T15:40:08.686Z</time></trkpt><trkpt lat="40.8637" lon="14.1916533"><ele>420.0</ele><time>2026-04-09T15:40:09.689Z</time></trkpt><trkpt lat="40.8636383" lon="14.19179"><ele>420.0</ele><time>2026-04-09T15:40:11.687Z</time></trkpt><trkpt lat="40.8635883" lon="14.191945"><ele>420.0</ele><time>2026-04-09T15:40:13.688Z</time></trkpt><trkpt lat="40.8635667" lon="14.192035"><ele>420.0</ele><time>2026-04-09T15:40:14.685Z</time></trkpt><trkpt lat="40.8635517" lon="14.1921367"><ele>420.0</ele><time>2026-04-09T15:40:15.687Z</time></trkpt><trkpt lat="40.863535" lon="14.1922417"><ele>420.0</ele><time>2026-04-09T15:40:16.688Z</time></trkpt><trkpt lat="40.8635433" lon="14.19236"><ele>420.0</ele><time>2026-04-09T15:40:17.688Z</time></trkpt><trkpt lat="40.863565" lon="14.1924767"><ele>419.4</ele><time>2026-04-09T15:40:18.688Z</time></trkpt><trkpt lat="40.8636117" lon="14.192605"><ele>418.8</ele><time>2026-04-09T15:40:19.686Z</time></trkpt><trkpt lat="40.8636767" lon="14.192725"><ele>418.20000000000005</ele><time>2026-04-09T15:40:20.687Z</time></trkpt><trkpt lat="40.8637567" lon="14.1928367"><ele>417.6</ele><time>2026-04-09T15:40:21.686Z</time></trkpt><trkpt lat="40.863825" lon="14.1929517"><ele>417.0</ele><time>2026-04-09T15:40:22.686Z</time></trkpt><trkpt lat="40.8638883" lon="14.1930667"><ele>416.25</ele><time>2026-04-09T15:40:23.688Z</time></trkpt><trkpt lat="40.8639467" lon="14.1931983"><ele>415.5</ele><time>2026-04-09T15:40:24.686Z</time></trkpt><trkpt lat="40.8639933" lon="14.193345"><ele>414.75</ele><time>2026-04-09T15:40:25.686Z</time></trkpt><trkpt lat="40.86402" lon="14.1935033"><ele>414.0</ele><time>2026-04-09T15:40:26.687Z</time></trkpt><trkpt lat="40.86404" lon="14.19366"><ele>414.0</ele><time>2026-04-09T15:40:27.686Z</time></trkpt><trkpt lat="40.8640567" lon="14.19382"><ele>414.0</ele><time>2026-04-09T15:40:28.686Z</time></trkpt><trkpt lat="40.8640733" lon="14.1939833"><ele>414.0</ele><time>2026-04-09T15:40:29.687Z</time></trkpt><trkpt lat="40.864095" lon="14.1941533"><ele>414.0</ele><time>2026-04-09T15:40:30.688Z</time></trkpt><trkpt lat="40.864125" lon="14.19433"><ele>413.0</ele><time>2026-04-09T15:40:31.686Z</time></trkpt><trkpt lat="40.8641583" lon="14.1945067"><ele>412.0</ele><time>2026-04-09T15:40:32.687Z</time></trkpt><trkpt lat="40.8641883" lon="14.1946867"><ele>411.0</ele><time>2026-04-09T15:40:33.685Z</time></trkpt><trkpt lat="40.86422" lon="14.1948667"><ele>410.0</ele><time>2026-04-09T15:40:34.686Z</time></trkpt><trkpt lat="40.8642433" lon="14.1950483"><ele>409.0</ele><time>2026-04-09T15:40:35.688Z</time></trkpt><trkpt lat="40.86425" lon="14.195235"><ele>408.0</ele><time>2026-04-09T15:40:36.687Z</time></trkpt><trkpt lat="40.8642267" lon="14.1954467"><ele>407.0</ele><time>2026-04-09T15:40:37.685Z</time></trkpt><trkpt lat="40.8642117" lon="14.1956333"><ele>406.0</ele><time>2026-04-09T15:40:38.687Z</time></trkpt><trkpt lat="40.864195" lon="14.1958167"><ele>404.25</ele><time>2026-04-09T15:40:39.687Z</time></trkpt><trkpt lat="40.8641933" lon="14.1960017"><ele>402.5</ele><time>2026-04-09T15:40:40.687Z</time></trkpt><trkpt lat="40.8642017" lon="14.1961883"><ele>400.75</ele><time>2026-04-09T15:40:41.687Z</time></trkpt><trkpt lat="40.8642117" lon="14.1963717"><ele>399.0</ele><time>2026-04-09T15:40:42.685Z</time></trkpt><trkpt lat="40.8642233" lon="14.196555"><ele>397.25</ele><time>2026-04-09T15:40:43.687Z</time></trkpt><trkpt lat="40.864215" lon="14.196755"><ele>395.5</ele><time>2026-04-09T15:40:44.686Z</time></trkpt><trkpt lat="40.864195" lon="14.196945"><ele>393.75</ele><time>2026-04-09T15:40:45.687Z</time></trkpt><trkpt lat="40.8641767" lon="14.1971117"><ele>392.0</ele><time>2026-04-09T15:40:46.688Z</time></trkpt><trkpt lat="40.864155" lon="14.1972667"><ele>391.0</ele><time>2026-04-09T15:40:47.686Z</time></trkpt><trkpt lat="40.8641317" lon="14.19742"><ele>390.0</ele><time>2026-04-09T15:40:48.686Z</time></trkpt><trkpt lat="40.864105" lon="14.1975683"><ele>389.0</ele><time>2026-04-09T15:40:49.686Z</time></trkpt><trkpt lat="40.8640767" lon="14.197715"><ele>388.0</ele><time>2026-04-09T15:40:50.687Z</time></trkpt><trkpt lat="40.8640517" lon="14.1978633"><ele>388.0</ele><time>2026-04-09T15:40:51.686Z</time></trkpt><trkpt lat="40.8640267" lon="14.1980083"><ele>388.0</ele><time>2026-04-09T15:40:52.687Z</time></trkpt><trkpt lat="40.8640017" lon="14.198155"><ele>388.0</ele><time>2026-04-09T15:40:53.686Z</time></trkpt><trkpt lat="40.863975" lon="14.1982917"><ele>388.0</ele><time>2026-04-09T15:40:54.686Z</time></trkpt><trkpt lat="40.863945" lon="14.1984267"><ele>388.0</ele><time>2026-04-09T15:40:55.685Z</time></trkpt><trkpt lat="40.8639017" lon="14.1985533"><ele>387.59999999999997</ele><time>2026-04-09T15:40:56.687Z</time></trkpt><trkpt lat="40.8638483" lon="14.1986767"><ele>387.2</ele><time>2026-04-09T15:40:57.687Z</time></trkpt><trkpt lat="40.8637883" lon="14.1988033"><ele>386.8</ele><time>2026-04-09T15:40:58.685Z</time></trkpt><trkpt lat="40.8637267" lon="14.198925"><ele>386.4</ele><time>2026-04-09T15:40:59.687Z</time></trkpt><trkpt lat="40.86366" lon="14.1990433"><ele>386.0</ele><time>2026-04-09T15:41:00.687Z</time></trkpt><trkpt lat="40.8635967" lon="14.1991633"><ele>385.0</ele><time>2026-04-09T15:41:01.686Z</time></trkpt><trkpt lat="40.8635317" lon="14.19929"><ele>384.0</ele><time>2026-04-09T15:41:02.688Z</time></trkpt><trkpt lat="40.86347" lon="14.1994217"><ele>383.0</ele><time>2026-04-09T15:41:03.687Z</time></trkpt><trkpt lat="40.8634" lon="14.1995533"><ele>382.0</ele><time>2026-04-09T15:41:04.687Z</time></trkpt><trkpt lat="40.863335" lon="14.1996917"><ele>382.0</ele><time>2026-04-09T15:41:05.684Z</time></trkpt><trkpt lat="40.86327" lon="14.1998267"><ele>382.0</ele><time>2026-04-09T15:41:06.684Z</time></trkpt><trkpt lat="40.8632033" lon="14.1999633"><ele>382.0</ele><time>2026-04-09T15:41:07.687Z</time></trkpt><trkpt lat="40.8631383" lon="14.2000983"><ele>382.0</ele><time>2026-04-09T15:41:08.686Z</time></trkpt><trkpt lat="40.8630717" lon="14.2002333"><ele>380.75</ele><time>2026-04-09T15:41:09.686Z</time></trkpt><trkpt lat="40.863005" lon="14.2003683"><ele>379.5</ele><time>2026-04-09T15:41:10.687Z</time></trkpt><trkpt lat="40.8629533" lon="14.200515"><ele>378.25</ele><time>2026-04-09T15:41:11.686Z</time></trkpt><trkpt lat="40.86292" lon="14.2006717"><ele>377.0</ele><time>2026-04-09T15:41:12.685Z</time></trkpt><trkpt lat="40.8629017" lon="14.200835"><ele>375.5</ele><time>2026-04-09T15:41:13.688Z</time></trkpt><trkpt lat="40.8628883" lon="14.201"><ele>374.0</ele><time>2026-04-09T15:41:14.687Z</time></trkpt><trkpt lat="40.862875" lon="14.201165"><ele>372.5</ele><time>2026-04-09T15:41:15.687Z</time></trkpt><trkpt lat="40.86286" lon="14.2013283"><ele>371.0</ele><time>2026-04-09T15:41:16.687Z</time></trkpt><trkpt lat="40.8628567" lon="14.201495"><ele>370.5</ele><time>2026-04-09T15:41:17.685Z</time></trkpt><trkpt lat="40.862865" lon="14.2016583"><ele>370.0</ele><time>2026-04-09T15:41:18.686Z</time></trkpt><trkpt lat="40.8628867" lon="14.2018133"><ele>369.5</ele><time>2026-04-09T15:41:19.687Z</time></trkpt><trkpt lat="40.862925" lon="14.2019633"><ele>369.0</ele><time>2026-04-09T15:41:20.687Z</time></trkpt><trkpt lat="40.8629783" lon="14.2021067"><ele>369.0</ele><time>2026-04-09T15:41:21.687Z</time></trkpt><trkpt lat="40.8630333" lon="14.2022517"><ele>369.0</ele><time>2026-04-09T15:41:22.686Z</time></trkpt><trkpt lat="40.8630933" lon="14.202395"><ele>369.0</ele><time>2026-04-09T15:41:23.687Z</time></trkpt><trkpt lat="40.8631517" lon="14.2025383"><ele>369.0</ele><time>2026-04-09T15:41:24.687Z</time></trkpt><trkpt lat="40.863205" lon="14.202685"><ele>368.25</ele><time>2026-04-09T15:41:25.685Z</time></trkpt><trkpt lat="40.8632467" lon="14.2028433"><ele>367.5</ele><time>2026-04-09T15:41:26.687Z</time></trkpt><trkpt lat="40.8632733" lon="14.2030067"><ele>366.75</ele><time>2026-04-09T15:41:27.687Z</time></trkpt><trkpt lat="40.8632867" lon="14.2031633"><ele>366.0</ele><time>2026-04-09T15:41:28.686Z</time></trkpt><trkpt lat="40.8632917" lon="14.2033133"><ele>365.25</ele><time>2026-04-09T15:41:29.688Z</time></trkpt><trkpt lat="40.8632783" lon="14.203465"><ele>364.5</ele><time>2026-04-09T15:41:30.686Z</time></trkpt><trkpt lat="40.86325" lon="14.2036117"><ele>363.75</ele><time>2026-04-09T15:41:31.686Z</time></trkpt><trkpt lat="40.8632067" lon="14.2037517"><ele>363.0</ele><time>2026-04-09T15:41:32.687Z</time></trkpt><trkpt lat="40.8631667" lon="14.2038867"><ele>361.79999999999995</ele><time>2026-04-09T15:41:33.686Z</time></trkpt><trkpt lat="40.8631233" lon="14.2040233"><ele>360.6</ele><time>2026-04-09T15:41:34.686Z</time></trkpt><trkpt lat="40.863085" lon="14.2041617"><ele>359.4</ele><time>2026-04-09T15:41:35.687Z</time></trkpt><trkpt lat="40.8630633" lon="14.2043033"><ele>358.20000000000005</ele><time>2026-04-09T15:41:36.687Z</time></trkpt><trkpt lat="40.8630467" lon="14.20445"><ele>357.0</ele><time>2026-04-09T15:41:37.687Z</time></trkpt><trkpt lat="40.8630283" lon="14.2046017"><ele>357.0</ele><time>2026-04-09T15:41:38.686Z</time></trkpt><trkpt lat="40.8630183" lon="14.2047583"><ele>357.0</ele><time>2026-04-09T15:41:39.685Z</time></trkpt><trkpt lat="40.8630167" lon="14.2049083"><ele>357.0</ele><time>2026-04-09T15:41:40.687Z</time></trkpt><trkpt lat="40.8630117" lon="14.2050483"><ele>357.0</ele><time>2026-04-09T15:41:41.684Z</time></trkpt><trkpt lat="40.863015" lon="14.20518"><ele>357.0</ele><time>2026-04-09T15:41:42.688Z</time></trkpt><trkpt lat="40.8630183" lon="14.20531"><ele>356.6</ele><time>2026-04-09T15:41:43.687Z</time></trkpt><trkpt lat="40.8630217" lon="14.2054333"><ele>356.20000000000005</ele><time>2026-04-09T15:41:44.686Z</time></trkpt><trkpt lat="40.863025" lon="14.2055617"><ele>355.8</ele><time>2026-04-09T15:41:45.686Z</time></trkpt><trkpt lat="40.8630283" lon="14.20569"><ele>355.4</ele><time>2026-04-09T15:41:46.687Z</time></trkpt><trkpt lat="40.86303" lon="14.2058233"><ele>355.0</ele><time>2026-04-09T15:41:47.687Z</time></trkpt><trkpt lat="40.863035" lon="14.2059583"><ele>355.0</ele><time>2026-04-09T15:41:48.686Z</time></trkpt><trkpt lat="40.8630483" lon="14.2060983"><ele>355.0</ele><time>2026-04-09T15:41:49.687Z</time></trkpt><trkpt lat="40.8630783" lon="14.2062333"><ele>355.0</ele><time>2026-04-09T15:41:50.687Z</time></trkpt><trkpt lat="40.8631217" lon="14.206365"><ele>355.0</ele><time>2026-04-09T15:41:51.685Z</time></trkpt><trkpt lat="40.86317" lon="14.2065017"><ele>355.0</ele><time>2026-04-09T15:41:52.687Z</time></trkpt><trkpt lat="40.863215" lon="14.206645"><ele>353.25</ele><time>2026-04-09T15:41:53.687Z</time></trkpt><trkpt lat="40.863245" lon="14.2067983"><ele>351.5</ele><time>2026-04-09T15:41:54.688Z</time></trkpt><trkpt lat="40.86327" lon="14.206955"><ele>349.75</ele><time>2026-04-09T15:41:55.687Z</time></trkpt><trkpt lat="40.8632817" lon="14.2071217"><ele>348.0</ele><time>2026-04-09T15:41:56.687Z</time></trkpt><trkpt lat="40.8632933" lon="14.2072833"><ele>345.75</ele><time>2026-04-09T15:41:57.686Z</time></trkpt><trkpt lat="40.86329" lon="14.20745"><ele>343.5</ele><time>2026-04-09T15:41:58.686Z</time></trkpt><trkpt lat="40.8632683" lon="14.207625"><ele>341.25</ele><time>2026-04-09T15:41:59.686Z</time></trkpt><trkpt lat="40.8632533" lon="14.207785"><ele>339.0</ele><time>2026-04-09T15:42:00.687Z</time></trkpt><trkpt lat="40.8632467" lon="14.207935"><ele>339.0</ele><time>2026-04-09T15:42:01.687Z</time></trkpt><trkpt lat="40.8632433" lon="14.20808"><ele>339.0</ele><time>2026-04-09T15:42:02.687Z</time></trkpt><trkpt lat="40.8632383" lon="14.20823"><ele>339.0</ele><time>2026-04-09T15:42:03.685Z</time></trkpt><trkpt lat="40.86323" lon="14.20839"><ele>339.0</ele><time>2026-04-09T15:42:04.688Z</time></trkpt><trkpt lat="40.8632233" lon="14.2085433"><ele>338.2</ele><time>2026-04-09T15:42:05.688Z</time></trkpt><trkpt lat="40.8632167" lon="14.208695"><ele>337.4</ele><time>2026-04-09T15:42:06.687Z</time></trkpt><trkpt lat="40.8632133" lon="14.2088467"><ele>336.6</ele><time>2026-04-09T15:42:07.687Z</time></trkpt><trkpt lat="40.8632083" lon="14.208985"><ele>335.8</ele><time>2026-04-09T15:42:08.687Z</time></trkpt><trkpt lat="40.863205" lon="14.20911"><ele>335.0</ele><time>2026-04-09T15:42:09.687Z</time></trkpt><trkpt lat="40.8632017" lon="14.2092283"><ele>334.1428571428571</ele><time>2026-04-09T15:42:10.685Z</time></trkpt><trkpt lat="40.8632033" lon="14.20933"><ele>333.2857142857143</ele><time>2026-04-09T15:42:11.687Z</time></trkpt><trkpt lat="40.8632117" lon="14.20942"><ele>332.42857142857144</ele><time>2026-04-09T15:42:12.687Z</time></trkpt><trkpt lat="40.86322" lon="14.20951"><ele>331.57142857142856</ele><time>2026-04-09T15:42:13.687Z</time></trkpt><trkpt lat="40.8632267" lon="14.2095983"><ele>330.7142857142857</ele><time>2026-04-09T15:42:14.687Z</time></trkpt><trkpt lat="40.86323" lon="14.2096883"><ele>329.85714285714283</ele><time>2026-04-09T15:42:15.687Z</time></trkpt><trkpt lat="40.863225" lon="14.2097867"><ele>329.0</ele><time>2026-04-09T15:42:16.686Z</time></trkpt><trkpt lat="40.8632217" lon="14.2098833"><ele>328.83333333333337</ele><time>2026-04-09T15:42:17.688Z</time></trkpt><trkpt lat="40.8632117" lon="14.2099867"><ele>328.6666666666667</ele><time>2026-04-09T15:42:18.686Z</time></trkpt><trkpt lat="40.8632067" lon="14.21009"><ele>328.5</ele><time>2026-04-09T15:42:19.687Z</time></trkpt><trkpt lat="40.8632017" lon="14.2102"><ele>328.3333333333333</ele><time>2026-04-09T15:42:20.687Z</time></trkpt><trkpt lat="40.863195" lon="14.2103133"><ele>328.16666666666663</ele><time>2026-04-09T15:42:21.687Z</time></trkpt><trkpt lat="40.863185" lon="14.2104317"><ele>328.0</ele><time>2026-04-09T15:42:22.685Z</time></trkpt><trkpt lat="40.8631733" lon="14.21055"><ele>328.0</ele><time>2026-04-09T15:42:23.686Z</time></trkpt><trkpt lat="40.8631533" lon="14.2106667"><ele>328.0</ele><time>2026-04-09T15:42:24.687Z</time></trkpt><trkpt lat="40.8631317" lon="14.2107867"><ele>328.0</ele><time>2026-04-09T15:42:25.687Z</time></trkpt><trkpt lat="40.8631033" lon="14.21091"><ele>328.0</ele><time>2026-04-09T15:42:26.686Z</time></trkpt><trkpt lat="40.8630683" lon="14.2110333"><ele>328.0</ele><time>2026-04-09T15:42:27.685Z</time></trkpt><trkpt lat="40.8630333" lon="14.21116"><ele>328.0</ele><time>2026-04-09T15:42:28.686Z</time></trkpt><trkpt lat="40.8629917" lon="14.2112917"><ele>328.0</ele><time>2026-04-09T15:42:29.687Z</time></trkpt><trkpt lat="40.8629517" lon="14.211435"><ele>328.0</ele><time>2026-04-09T15:42:30.686Z</time></trkpt><trkpt lat="40.8629083" lon="14.2115783"><ele>328.0</ele><time>2026-04-09T15:42:31.687Z</time></trkpt><trkpt lat="40.86287" lon="14.211725"><ele>326.75</ele><time>2026-04-09T15:42:32.687Z</time></trkpt><trkpt lat="40.8628383" lon="14.21188"><ele>325.5</ele><time>2026-04-09T15:42:33.687Z</time></trkpt><trkpt lat="40.862815" lon="14.2120433"><ele>324.25</ele><time>2026-04-09T15:42:34.686Z</time></trkpt><trkpt lat="40.8628017" lon="14.2122117"><ele>323.0</ele><time>2026-04-09T15:42:35.685Z</time></trkpt><trkpt lat="40.862795" lon="14.212375"><ele>321.25</ele><time>2026-04-09T15:42:36.688Z</time></trkpt><trkpt lat="40.8627967" lon="14.2125367"><ele>319.5</ele><time>2026-04-09T15:42:37.686Z</time></trkpt><trkpt lat="40.8628" lon="14.212705"><ele>317.75</ele><time>2026-04-09T15:42:38.687Z</time></trkpt><trkpt lat="40.8628033" lon="14.2128783"><ele>316.0</ele><time>2026-04-09T15:42:39.686Z</time></trkpt><trkpt lat="40.8628167" lon="14.2130517"><ele>314.5</ele><time>2026-04-09T15:42:40.685Z</time></trkpt><trkpt lat="40.8628433" lon="14.2132217"><ele>313.0</ele><time>2026-04-09T15:42:41.686Z</time></trkpt><trkpt lat="40.8628867" lon="14.2133783"><ele>311.5</ele><time>2026-04-09T15:42:42.685Z</time></trkpt><trkpt lat="40.8629383" lon="14.2135183"><ele>310.0</ele><time>2026-04-09T15:42:43.687Z</time></trkpt><trkpt lat="40.8629917" lon="14.2136567"><ele>310.0</ele><time>2026-04-09T15:42:44.687Z</time></trkpt><trkpt lat="40.8630433" lon="14.213795"><ele>310.0</ele><time>2026-04-09T15:42:45.685Z</time></trkpt><trkpt lat="40.8631033" lon="14.2139283"><ele>310.0</ele><time>2026-04-09T15:42:46.687Z</time></trkpt><trkpt lat="40.86317" lon="14.2140533"><ele>310.0</ele><time>2026-04-09T15:42:47.687Z</time></trkpt><trkpt lat="40.8632383" lon="14.2141667"><ele>309.0</ele><time>2026-04-09T15:42:48.685Z</time></trkpt><trkpt lat="40.863305" lon="14.21427"><ele>308.0</ele><time>2026-04-09T15:42:49.687Z</time></trkpt><trkpt lat="40.8633767" lon="14.2143683"><ele>307.0</ele><time>2026-04-09T15:42:50.686Z</time></trkpt><trkpt lat="40.8634467" lon="14.214465"><ele>306.0</ele><time>2026-04-09T15:42:51.687Z</time></trkpt><trkpt lat="40.8635067" lon="14.214555"><ele>305.0</ele><time>2026-04-09T15:42:52.687Z</time></trkpt><trkpt lat="40.863565" lon="14.214625"><ele>304.42857142857144</ele><time>2026-04-09T15:42:53.687Z</time></trkpt><trkpt lat="40.8636167" lon="14.2146933"><ele>303.85714285714283</ele><time>2026-04-09T15:42:54.686Z</time></trkpt><trkpt lat="40.86366" lon="14.21477"><ele>303.2857142857143</ele><time>2026-04-09T15:42:55.688Z</time></trkpt><trkpt lat="40.863695" lon="14.2148517"><ele>302.7142857142857</ele><time>2026-04-09T15:42:56.687Z</time></trkpt><trkpt lat="40.8637217" lon="14.2149333"><ele>302.1428571428571</ele><time>2026-04-09T15:42:57.686Z</time></trkpt><trkpt lat="40.8637317" lon="14.2150183"><ele>301.57142857142856</ele><time>2026-04-09T15:42:58.687Z</time></trkpt><trkpt lat="40.8637333" lon="14.2151167"><ele>301.0</ele><time>2026-04-09T15:42:59.688Z</time></trkpt><trkpt lat="40.8637333" lon="14.215225"><ele>301.0</ele><time>2026-04-09T15:43:00.687Z</time></trkpt><trkpt lat="40.8637383" lon="14.2153283"><ele>301.0</ele><time>2026-04-09T15:43:01.688Z</time></trkpt><trkpt lat="40.8637383" lon="14.21543"><ele>301.0</ele><time>2026-04-09T15:43:02.687Z</time></trkpt><trkpt lat="40.8637367" lon="14.215535"><ele>301.0</ele><time>2026-04-09T15:43:03.685Z</time></trkpt><trkpt lat="40.8637467" lon="14.21564"><ele>301.0</ele><time>2026-04-09T15:43:04.685Z</time></trkpt><trkpt lat="40.863755" lon="14.2157483"><ele>301.0</ele><time>2026-04-09T15:43:05.687Z</time></trkpt><trkpt lat="40.8637633" lon="14.2158583"><ele>300.2</ele><time>2026-04-09T15:43:06.687Z</time></trkpt><trkpt lat="40.8637717" lon="14.215975"><ele>299.40000000000003</ele><time>2026-04-09T15:43:07.687Z</time></trkpt><trkpt lat="40.8637833" lon="14.2160933"><ele>298.6</ele><time>2026-04-09T15:43:08.687Z</time></trkpt><trkpt lat="40.8637883" lon="14.2162167"><ele>297.8</ele><time>2026-04-09T15:43:09.687Z</time></trkpt><trkpt lat="40.863795" lon="14.216345"><ele>297.0</ele><time>2026-04-09T15:43:10.687Z</time></trkpt><trkpt lat="40.8638033" lon="14.216475"><ele>295.8333333333333</ele><time>2026-04-09T15:43:11.687Z</time></trkpt><trkpt lat="40.86381" lon="14.2166"><ele>294.6666666666667</ele><time>2026-04-09T15:43:12.687Z</time></trkpt><trkpt lat="40.863815" lon="14.2167167"><ele>293.5</ele><time>2026-04-09T15:43:13.687Z</time></trkpt><trkpt lat="40.8638233" lon="14.2168267"><ele>292.33333333333337</ele><time>2026-04-09T15:43:14.685Z</time></trkpt><trkpt lat="40.8638383" lon="14.2169333"><ele>291.1666666666667</ele><time>2026-04-09T15:43:15.686Z</time></trkpt><trkpt lat="40.8638517" lon="14.2170283"><ele>290.0</ele><time>2026-04-09T15:43:16.686Z</time></trkpt><trkpt lat="40.86387" lon="14.2171217"><ele>290.0</ele><time>2026-04-09T15:43:17.686Z</time></trkpt><trkpt lat="40.8638883" lon="14.2172183"><ele>290.0</ele><time>2026-04-09T15:43:18.686Z</time></trkpt><trkpt lat="40.8639083" lon="14.2173167"><ele>290.0</ele><time>2026-04-09T15:43:19.687Z</time></trkpt><trkpt lat="40.8639317" lon="14.2174117"><ele>290.0</ele><time>2026-04-09T15:43:20.687Z</time></trkpt><trkpt lat="40.8639633" lon="14.217505"><ele>290.0</ele><time>2026-04-09T15:43:21.687Z</time></trkpt><trkpt lat="40.8639983" lon="14.2175983"><ele>290.0</ele><time>2026-04-09T15:43:22.687Z</time></trkpt><trkpt lat="40.864035" lon="14.2176833"><ele>289.8571428571429</ele><time>2026-04-09T15:43:23.687Z</time></trkpt><trkpt lat="40.864065" lon="14.21778"><ele>289.7142857142857</ele><time>2026-04-09T15:43:24.687Z</time></trkpt><trkpt lat="40.8640967" lon="14.2178733"><ele>289.57142857142856</ele><time>2026-04-09T15:43:25.687Z</time></trkpt><trkpt lat="40.8641217" lon="14.2179667"><ele>289.42857142857144</ele><time>2026-04-09T15:43:26.687Z</time></trkpt><trkpt lat="40.8641367" lon="14.2180633"><ele>289.2857142857143</ele><time>2026-04-09T15:43:27.687Z</time></trkpt><trkpt lat="40.8641417" lon="14.2181617"><ele>289.14285714285717</ele><time>2026-04-09T15:43:28.687Z</time></trkpt><trkpt lat="40.86414" lon="14.21825"><ele>289.0</ele><time>2026-04-09T15:43:29.687Z</time></trkpt><trkpt lat="40.8641267" lon="14.2183783"><ele>288.5</ele><time>2026-04-09T15:43:31.685Z</time></trkpt><trkpt lat="40.8641067" lon="14.2184683"><ele>288.0</ele><time>2026-04-09T15:43:33.689Z</time></trkpt><trkpt lat="40.8640967" lon="14.21857"><ele>287.5</ele><time>2026-04-09T15:43:35.686Z</time></trkpt><trkpt lat="40.8640717" lon="14.21868"><ele>287.0</ele><time>2026-04-09T15:43:37.688Z</time></trkpt><trkpt lat="40.864045" lon="14.2187833"><ele>286.5</ele><time>2026-04-09T15:43:39.686Z</time></trkpt><trkpt lat="40.8640217" lon="14.2188883"><ele>286.0</ele><time>2026-04-09T15:43:41.687Z</time></trkpt><trkpt lat="40.864" lon="14.2190117"><ele>285.5</ele><time>2026-04-09T15:43:43.687Z</time></trkpt><trkpt lat="40.863975" lon="14.2191217"><ele>285.0</ele><time>2026-04-09T15:43:45.687Z</time></trkpt><trkpt lat="40.8639283" lon="14.2191967"><ele>284.5</ele><time>2026-04-09T15:43:47.687Z</time></trkpt><trkpt lat="40.8638633" lon="14.2192567"><ele>284.0</ele><time>2026-04-09T15:43:49.687Z</time></trkpt><trkpt lat="40.8638" lon="14.2193383"><ele>283.5</ele><time>2026-04-09T15:43:52.686Z</time></trkpt><trkpt lat="40.8637433" lon="14.2193917"><ele>283.0</ele><time>2026-04-09T15:43:54.686Z</time></trkpt><trkpt lat="40.8636733" lon="14.2194383"><ele>283.0</ele><time>2026-04-09T15:43:56.687Z</time></trkpt><trkpt lat="40.8636067" lon="14.2194783"><ele>283.0</ele><time>2026-04-09T15:43:59.686Z</time></trkpt><trkpt lat="40.86354" lon="14.2194683"><ele>283.0</ele><time>2026-04-09T15:45:14.684Z</time></trkpt><trkpt lat="40.8634683" lon="14.2195383"><ele>283.0</ele><time>2026-04-09T15:45:17.684Z</time></trkpt><trkpt lat="40.8634117" lon="14.2195983"><ele>283.0</ele><time>2026-04-09T15:45:19.687Z</time></trkpt><trkpt lat="40.8633417" lon="14.2196833"><ele>283.0</ele><time>2026-04-09T15:45:21.684Z</time></trkpt><trkpt lat="40.8632417" lon="14.2197833"><ele>282.42857142857144</ele><time>2026-04-09T15:45:23.684Z</time></trkpt><trkpt lat="40.8631833" lon="14.21984"><ele>281.8571428571429</ele><time>2026-04-09T15:45:24.684Z</time></trkpt><trkpt lat="40.8631283" lon="14.2198933"><ele>281.2857142857143</ele><time>2026-04-09T15:45:25.684Z</time></trkpt><trkpt lat="40.8630733" lon="14.2199533"><ele>280.7142857142857</ele><time>2026-04-09T15:45:26.684Z</time></trkpt><trkpt lat="40.8630083" lon="14.2200017"><ele>280.1428571428571</ele><time>2026-04-09T15:45:27.696Z</time></trkpt><trkpt lat="40.8629567" lon="14.2200533"><ele>279.57142857142856</ele><time>2026-04-09T15:45:28.686Z</time></trkpt><trkpt lat="40.8628967" lon="14.2200983"><ele>279.0</ele><time>2026-04-09T15:45:29.686Z</time></trkpt><trkpt lat="40.8628433" lon="14.2201583"><ele>279.0</ele><time>2026-04-09T15:45:30.686Z</time></trkpt><trkpt lat="40.8627583" lon="14.2202333"><ele>279.0</ele><time>2026-04-09T15:45:32.688Z</time></trkpt><trkpt lat="40.8626717" lon="14.22033"><ele>279.0</ele><time>2026-04-09T15:45:34.687Z</time></trkpt><trkpt lat="40.8626267" lon="14.2204017"><ele>279.0</ele><time>2026-04-09T15:45:35.686Z</time></trkpt><trkpt lat="40.86257" lon="14.2204583"><ele>279.0</ele><time>2026-04-09T15:45:36.686Z</time></trkpt><trkpt lat="40.8625117" lon="14.22052"><ele>279.0</ele><time>2026-04-09T15:45:37.686Z</time></trkpt><trkpt lat="40.8624567" lon="14.2205767"><ele>278.8333333333333</ele><time>2026-04-09T15:45:38.685Z</time></trkpt><trkpt lat="40.8623967" lon="14.2206467"><ele>278.6666666666667</ele><time>2026-04-09T15:45:39.685Z</time></trkpt><trkpt lat="40.8623367" lon="14.2207167"><ele>278.5</ele><time>2026-04-09T15:45:40.686Z</time></trkpt><trkpt lat="40.8622717" lon="14.2207867"><ele>278.33333333333337</ele><time>2026-04-09T15:45:41.685Z</time></trkpt><trkpt lat="40.8622033" lon="14.2208633"><ele>278.1666666666667</ele><time>2026-04-09T15:45:42.685Z</time></trkpt><trkpt lat="40.8621333" lon="14.2209383"><ele>278.0</ele><time>2026-04-09T15:45:43.686Z</time></trkpt><trkpt lat="40.86207" lon="14.220995"><ele>278.0</ele><time>2026-04-09T15:45:44.686Z</time></trkpt><trkpt lat="40.86202" lon="14.2210517"><ele>278.0</ele><time>2026-04-09T15:45:45.686Z</time></trkpt><trkpt lat="40.8619617" lon="14.22111"><ele>278.0</ele><time>2026-04-09T15:45:46.687Z</time></trkpt><trkpt lat="40.8619167" lon="14.22117"><ele>278.0</ele><time>2026-04-09T15:45:47.685Z</time></trkpt><trkpt lat="40.8618583" lon="14.2212267"><ele>278.0</ele><time>2026-04-09T15:45:48.685Z</time></trkpt><trkpt lat="40.8617967" lon="14.22128"><ele>278.0</ele><time>2026-04-09T15:45:49.685Z</time></trkpt><trkpt lat="40.8617283" lon="14.2213433"><ele>278.0</ele><time>2026-04-09T15:45:50.685Z</time></trkpt><trkpt lat="40.8616583" lon="14.221415"><ele>277.2</ele><time>2026-04-09T15:45:51.687Z</time></trkpt><trkpt lat="40.8615867" lon="14.2214667"><ele>276.4</ele><time>2026-04-09T15:45:52.686Z</time></trkpt><trkpt lat="40.8615067" lon="14.221525"><ele>275.59999999999997</ele><time>2026-04-09T15:45:53.687Z</time></trkpt><trkpt lat="40.8614383" lon="14.221615"><ele>274.8</ele><time>2026-04-09T15:45:54.685Z</time></trkpt><trkpt lat="40.8613667" lon="14.221715"><ele>274.0</ele><time>2026-04-09T15:45:55.688Z</time></trkpt><trkpt lat="40.8612983" lon="14.2218183"><ele>273.4</ele><time>2026-04-09T15:45:56.686Z</time></trkpt><trkpt lat="40.8612433" lon="14.2219117"><ele>272.79999999999995</ele><time>2026-04-09T15:45:57.687Z</time></trkpt><trkpt lat="40.8612" lon="14.2220067"><ele>272.20000000000005</ele><time>2026-04-09T15:45:58.685Z</time></trkpt><trkpt lat="40.8611233" lon="14.222105"><ele>271.6</ele><time>2026-04-09T15:45:59.685Z</time></trkpt><trkpt lat="40.86108" lon="14.2222117"><ele>271.0</ele><time>2026-04-09T15:46:00.685Z</time></trkpt><trkpt lat="40.86108" lon="14.2223267"><ele>271.0</ele><time>2026-04-09T15:46:01.686Z</time></trkpt><trkpt lat="40.8610967" lon="14.2224167"><ele>271.0</ele><time>2026-04-09T15:46:02.686Z</time></trkpt><trkpt lat="40.8611233" lon="14.2225317"><ele>271.0</ele><time>2026-04-09T15:46:03.685Z</time></trkpt><trkpt lat="40.861145" lon="14.2226267"><ele>271.0</ele><time>2026-04-09T15:46:04.685Z</time></trkpt><trkpt lat="40.8611683" lon="14.2227083"><ele>271.0</ele><time>2026-04-09T15:46:05.686Z</time></trkpt><trkpt lat="40.8612017" lon="14.22279"><ele>271.0</ele><time>2026-04-09T15:46:06.686Z</time></trkpt><trkpt lat="40.861245" lon="14.2228817"><ele>271.0</ele><time>2026-04-09T15:46:07.685Z</time></trkpt><trkpt lat="40.8612717" lon="14.2229617"><ele>271.0</ele><time>2026-04-09T15:46:08.685Z</time></trkpt><trkpt lat="40.8612967" lon="14.223045"><ele>271.0</ele><time>2026-04-09T15:46:09.685Z</time></trkpt><trkpt lat="40.8613217" lon="14.2231233"><ele>271.0</ele><time>2026-04-09T15:46:10.685Z</time></trkpt><trkpt lat="40.8613467" lon="14.2232"><ele>271.0</ele><time>2026-04-09T15:46:11.685Z</time></trkpt><trkpt lat="40.86137" lon="14.2232817"><ele>271.0</ele><time>2026-04-09T15:46:12.685Z</time></trkpt><trkpt lat="40.8613867" lon="14.223365"><ele>271.0</ele><time>2026-04-09T15:46:13.685Z</time></trkpt><trkpt lat="40.8614067" lon="14.2234517"><ele>271.0</ele><time>2026-04-09T15:46:14.684Z</time></trkpt><trkpt lat="40.8614217" lon="14.2235483"><ele>271.0</ele><time>2026-04-09T15:46:15.684Z</time></trkpt><trkpt lat="40.8614333" lon="14.2236583"><ele>271.0</ele><time>2026-04-09T15:46:16.686Z</time></trkpt><trkpt lat="40.861455" lon="14.2237667"><ele>271.0</ele><time>2026-04-09T15:46:17.684Z</time></trkpt><trkpt lat="40.86149" lon="14.2238617"><ele>271.0</ele><time>2026-04-09T15:46:18.685Z</time></trkpt><trkpt lat="40.8615267" lon="14.2239483"><ele>271.0</ele><time>2026-04-09T15:46:19.684Z</time></trkpt><trkpt lat="40.8615567" lon="14.2240283"><ele>270.2</ele><time>2026-04-09T15:46:20.684Z</time></trkpt><trkpt lat="40.86158" lon="14.224155"><ele>269.40000000000003</ele><time>2026-04-09T15:46:22.686Z</time></trkpt><trkpt lat="40.8615867" lon="14.22426"><ele>268.6</ele><time>2026-04-09T15:46:24.684Z</time></trkpt><trkpt lat="40.86163" lon="14.2243867"><ele>267.8</ele><time>2026-04-09T15:46:26.685Z</time></trkpt><trkpt lat="40.8616767" lon="14.224535"><ele>267.0</ele><time>2026-04-09T15:46:28.684Z</time></trkpt><trkpt lat="40.861695" lon="14.2246183"><ele>267.0</ele><time>2026-04-09T15:46:29.685Z</time></trkpt><trkpt lat="40.8617117" lon="14.224705"><ele>267.0</ele><time>2026-04-09T15:46:30.685Z</time></trkpt><trkpt lat="40.8617333" lon="14.2247867"><ele>267.0</ele><time>2026-04-09T15:46:31.686Z</time></trkpt><trkpt lat="40.8617533" lon="14.22487"><ele>267.0</ele><time>2026-04-09T15:46:32.685Z</time></trkpt><trkpt lat="40.8617817" lon="14.2249483"><ele>267.0</ele><time>2026-04-09T15:46:33.687Z</time></trkpt><trkpt lat="40.86181" lon="14.2250233"><ele>267.0</ele><time>2026-04-09T15:46:34.685Z</time></trkpt><trkpt lat="40.86188" lon="14.225165"><ele>266.7142857142857</ele><time>2026-04-09T15:46:36.685Z</time></trkpt><trkpt lat="40.8619217" lon="14.2252383"><ele>266.42857142857144</ele><time>2026-04-09T15:46:37.687Z</time></trkpt><trkpt lat="40.861975" lon="14.2252983"><ele>266.1428571428571</ele><time>2026-04-09T15:46:38.686Z</time></trkpt><trkpt lat="40.8620317" lon="14.2253533"><ele>265.8571428571429</ele><time>2026-04-09T15:46:39.685Z</time></trkpt><trkpt lat="40.86209" lon="14.2253967"><ele>265.57142857142856</ele><time>2026-04-09T15:46:40.685Z</time></trkpt><trkpt lat="40.8621517" lon="14.2254317"><ele>265.2857142857143</ele><time>2026-04-09T15:46:41.686Z</time></trkpt><trkpt lat="40.86221" lon="14.2254683"><ele>265.0</ele><time>2026-04-09T15:46:42.685Z</time></trkpt><trkpt lat="40.8622683" lon="14.2255033"><ele>264.99999999999994</ele><time>2026-04-09T15:46:43.686Z</time></trkpt><trkpt lat="40.8623283" lon="14.2255367"><ele>265.0</ele><time>2026-04-09T15:46:44.686Z</time></trkpt><trkpt lat="40.8623917" lon="14.22556"><ele>265.0</ele><time>2026-04-09T15:46:45.684Z</time></trkpt><trkpt lat="40.8624567" lon="14.2255783"><ele>265.0</ele><time>2026-04-09T15:46:46.684Z</time></trkpt><trkpt lat="40.86252" lon="14.2256"><ele>265.0</ele><time>2026-04-09T15:46:47.685Z</time></trkpt><trkpt lat="40.8625817" lon="14.225625"><ele>264.99999999999994</ele><time>2026-04-09T15:46:48.685Z</time></trkpt><trkpt lat="40.8626483" lon="14.2256533"><ele>265.0</ele><time>2026-04-09T15:46:49.685Z</time></trkpt><trkpt lat="40.862715" lon="14.2256767"><ele>264.3333333333333</ele><time>2026-04-09T15:46:50.684Z</time></trkpt><trkpt lat="40.8627783" lon="14.2257"><ele>263.66666666666663</ele><time>2026-04-09T15:46:51.684Z</time></trkpt><trkpt lat="40.8628867" lon="14.2257433"><ele>263.0</ele><time>2026-04-09T15:46:53.684Z</time></trkpt><trkpt lat="40.8629933" lon="14.2257883"><ele>262.3333333333333</ele><time>2026-04-09T15:46:55.685Z</time></trkpt><trkpt lat="40.8630533" lon="14.225815"><ele>261.6666666666667</ele><time>2026-04-09T15:46:56.685Z</time></trkpt><trkpt lat="40.86313" lon="14.2258383"><ele>261.0</ele><time>2026-04-09T15:46:57.686Z</time></trkpt><trkpt lat="40.8632067" lon="14.2258683"><ele>261.0</ele><time>2026-04-09T15:46:58.686Z</time></trkpt><trkpt lat="40.8632867" lon="14.2258983"><ele>261.0</ele><time>2026-04-09T15:46:59.685Z</time></trkpt><trkpt lat="40.8633717" lon="14.22592"><ele>261.0</ele><time>2026-04-09T15:47:00.686Z</time></trkpt><trkpt lat="40.8634517" lon="14.22596"><ele>261.0</ele><time>2026-04-09T15:47:01.685Z</time></trkpt><trkpt lat="40.8635317" lon="14.2260167"><ele>261.0</ele><time>2026-04-09T15:47:02.685Z</time></trkpt><trkpt lat="40.8635983" lon="14.2260883"><ele>261.0</ele><time>2026-04-09T15:47:03.685Z</time></trkpt><trkpt lat="40.8636633" lon="14.2261683"><ele>260.8333333333333</ele><time>2026-04-09T15:47:04.685Z</time></trkpt><trkpt lat="40.8637133" lon="14.2262667"><ele>260.6666666666667</ele><time>2026-04-09T15:47:05.684Z</time></trkpt><trkpt lat="40.8637583" lon="14.2263633"><ele>260.5</ele><time>2026-04-09T15:47:06.69Z</time></trkpt><trkpt lat="40.863805" lon="14.2264617"><ele>260.33333333333337</ele><time>2026-04-09T15:47:07.684Z</time></trkpt><trkpt lat="40.8638617" lon="14.2265533"><ele>260.1666666666667</ele><time>2026-04-09T15:47:08.684Z</time></trkpt><trkpt lat="40.8639267" lon="14.2266333"><ele>260.0</ele><time>2026-04-09T15:47:09.684Z</time></trkpt><trkpt lat="40.8639933" lon="14.2267033"><ele>259.6666666666667</ele><time>2026-04-09T15:47:10.684Z</time></trkpt><trkpt lat="40.8640633" lon="14.2267717"><ele>259.33333333333337</ele><time>2026-04-09T15:47:11.684Z</time></trkpt><trkpt lat="40.8641417" lon="14.22682"><ele>259.0</ele><time>2026-04-09T15:47:12.684Z</time></trkpt><trkpt lat="40.8642183" lon="14.2268683"><ele>258.6666666666667</ele><time>2026-04-09T15:47:13.684Z</time></trkpt><trkpt lat="40.8642933" lon="14.2269133"><ele>258.3333333333333</ele><time>2026-04-09T15:47:14.684Z</time></trkpt><trkpt lat="40.8643783" lon="14.2269383"><ele>258.0</ele><time>2026-04-09T15:47:15.684Z</time></trkpt><trkpt lat="40.8644567" lon="14.2269733"><ele>258.0</ele><time>2026-04-09T15:47:16.684Z</time></trkpt><trkpt lat="40.86454" lon="14.2270067"><ele>258.0</ele><time>2026-04-09T15:47:17.685Z</time></trkpt><trkpt lat="40.8646233" lon="14.2270417"><ele>258.0</ele><time>2026-04-09T15:47:18.685Z</time></trkpt><trkpt lat="40.86471" lon="14.2270767"><ele>258.0</ele><time>2026-04-09T15:47:19.685Z</time></trkpt><trkpt lat="40.864795" lon="14.2271117"><ele>258.0</ele><time>2026-04-09T15:47:20.685Z</time></trkpt><trkpt lat="40.8648783" lon="14.2271417"><ele>258.0</ele><time>2026-04-09T15:47:21.685Z</time></trkpt><trkpt lat="40.8649617" lon="14.227175"><ele>258.0</ele><time>2026-04-09T15:47:22.686Z</time></trkpt><trkpt lat="40.8650433" lon="14.227205"><ele>258.0</ele><time>2026-04-09T15:47:23.685Z</time></trkpt><trkpt lat="40.8651283" lon="14.22723"><ele>258.0</ele><time>2026-04-09T15:47:24.684Z</time></trkpt><trkpt lat="40.8652133" lon="14.2272533"><ele>258.0</ele><time>2026-04-09T15:47:25.685Z</time></trkpt><trkpt lat="40.8652983" lon="14.2272783"><ele>258.0</ele><time>2026-04-09T15:47:26.684Z</time></trkpt><trkpt lat="40.86538" lon="14.2273033"><ele>258.0</ele><time>2026-04-09T15:47:27.684Z</time></trkpt><trkpt lat="40.8654617" lon="14.2273283"><ele>258.1666666666667</ele><time>2026-04-09T15:47:28.684Z</time></trkpt><trkpt lat="40.865545" lon="14.22735"><ele>258.3333333333333</ele><time>2026-04-09T15:47:29.687Z</time></trkpt><trkpt lat="40.86563" lon="14.2273583"><ele>258.5</ele><time>2026-04-09T15:47:30.685Z</time></trkpt><trkpt lat="40.8657217" lon="14.2273533"><ele>258.66666666666663</ele><time>2026-04-09T15:47:31.684Z</time></trkpt><trkpt lat="40.86581" lon="14.2273467"><ele>258.8333333333333</ele><time>2026-04-09T15:47:32.684Z</time></trkpt><trkpt lat="40.8658967" lon="14.2273317"><ele>259.0</ele><time>2026-04-09T15:47:33.685Z</time></trkpt><trkpt lat="40.8659867" lon="14.2273017"><ele>259.0</ele><time>2026-04-09T15:47:34.684Z</time></trkpt><trkpt lat="40.8660767" lon="14.227255"><ele>259.0</ele><time>2026-04-09T15:47:35.685Z</time></trkpt><trkpt lat="40.8661667" lon="14.2272083"><ele>259.0</ele><time>2026-04-09T15:47:36.685Z</time></trkpt><trkpt lat="40.866255" lon="14.227175"><ele>259.0</ele><time>2026-04-09T15:47:37.684Z</time></trkpt><trkpt lat="40.8663467" lon="14.2271433"><ele>259.0</ele><time>2026-04-09T15:47:38.685Z</time></trkpt><trkpt lat="40.866435" lon="14.22713"><ele>259.0</ele><time>2026-04-09T15:47:39.684Z</time></trkpt><trkpt lat="40.8665233" lon="14.22713"><ele>259.0</ele><time>2026-04-09T15:47:40.686Z</time></trkpt><trkpt lat="40.8666117" lon="14.227145"><ele>259.0</ele><time>2026-04-09T15:47:41.685Z</time></trkpt><trkpt lat="40.8667033" lon="14.2271767"><ele>259.0</ele><time>2026-04-09T15:47:42.685Z</time></trkpt><trkpt lat="40.8667933" lon="14.2272083"><ele>259.0</ele><time>2026-04-09T15:47:43.685Z</time></trkpt><trkpt lat="40.86688" lon="14.227235"><ele>259.0</ele><time>2026-04-09T15:47:44.685Z</time></trkpt><trkpt lat="40.866965" lon="14.2272667"><ele>259.0</ele><time>2026-04-09T15:47:45.684Z</time></trkpt><trkpt lat="40.867055" lon="14.227295"><ele>259.0</ele><time>2026-04-09T15:47:46.685Z</time></trkpt><trkpt lat="40.8671433" lon="14.2273267"><ele>259.0</ele><time>2026-04-09T15:47:47.685Z</time></trkpt><trkpt lat="40.8672333" lon="14.2273583"><ele>259.0</ele><time>2026-04-09T15:47:48.685Z</time></trkpt><trkpt lat="40.8673267" lon="14.2273883"><ele>257.4</ele><time>2026-04-09T15:47:49.685Z</time></trkpt><trkpt lat="40.8674183" lon="14.2274217"><ele>255.79999999999998</ele><time>2026-04-09T15:47:50.684Z</time></trkpt><trkpt lat="40.86751" lon="14.2274583"><ele>254.20000000000002</ele><time>2026-04-09T15:47:51.684Z</time></trkpt><trkpt lat="40.8676033" lon="14.22749"><ele>252.60000000000002</ele><time>2026-04-09T15:47:52.684Z</time></trkpt><trkpt lat="40.867695" lon="14.2275217"><ele>251.0</ele><time>2026-04-09T15:47:53.684Z</time></trkpt><trkpt lat="40.86778" lon="14.22755"><ele>251.00000000000003</ele><time>2026-04-09T15:47:54.684Z</time></trkpt><trkpt lat="40.8678633" lon="14.22758"><ele>251.0</ele><time>2026-04-09T15:47:55.686Z</time></trkpt><trkpt lat="40.867945" lon="14.2276133"><ele>251.0</ele><time>2026-04-09T15:47:56.684Z</time></trkpt><trkpt lat="40.8680233" lon="14.2276483"><ele>251.0</ele><time>2026-04-09T15:47:57.684Z</time></trkpt><trkpt lat="40.8681033" lon="14.2276783"><ele>251.00000000000003</ele><time>2026-04-09T15:47:58.685Z</time></trkpt><trkpt lat="40.8681817" lon="14.227705"><ele>251.0</ele><time>2026-04-09T15:47:59.684Z</time></trkpt><trkpt lat="40.8682483" lon="14.227735"><ele>251.00000000000003</ele><time>2026-04-09T15:48:00.685Z</time></trkpt><trkpt lat="40.8683117" lon="14.22776"><ele>251.0</ele><time>2026-04-09T15:48:01.684Z</time></trkpt><trkpt lat="40.8684133" lon="14.22783"><ele>251.0</ele><time>2026-04-09T15:48:03.684Z</time></trkpt><trkpt lat="40.8684667" lon="14.2279133"><ele>251.0</ele><time>2026-04-09T15:48:05.685Z</time></trkpt><trkpt lat="40.8685567" lon="14.227935"><ele>251.00000000000003</ele><time>2026-04-09T15:48:08.684Z</time></trkpt><trkpt lat="40.8685983" lon="14.2278333"><ele>251.0</ele><time>2026-04-09T15:48:10.684Z</time></trkpt><trkpt lat="40.86861" lon="14.2276767"><ele>251.33333333333334</ele><time>2026-04-09T15:48:12.684Z</time></trkpt><trkpt lat="40.86862" lon="14.2275083"><ele>251.66666666666669</ele><time>2026-04-09T15:48:14.685Z</time></trkpt><trkpt lat="40.8686167" lon="14.227405"><ele>252.0</ele><time>2026-04-09T15:48:15.684Z</time></trkpt><trkpt lat="40.8686167" lon="14.2273017"><ele>252.33333333333331</ele><time>2026-04-09T15:48:16.685Z</time></trkpt><trkpt lat="40.8686083" lon="14.2271933"><ele>252.66666666666666</ele><time>2026-04-09T15:48:17.685Z</time></trkpt><trkpt lat="40.8686133" lon="14.22709"><ele>253.0</ele><time>2026-04-09T15:48:18.685Z</time></trkpt><trkpt lat="40.8686167" lon="14.2269833"><ele>252.99999999999997</ele><time>2026-04-09T15:48:19.686Z</time></trkpt><trkpt lat="40.86862" lon="14.2268717"><ele>253.0</ele><time>2026-04-09T15:48:20.685Z</time></trkpt><trkpt lat="40.8686267" lon="14.2267667"><ele>253.0</ele><time>2026-04-09T15:48:21.684Z</time></trkpt><trkpt lat="40.868635" lon="14.2266617"><ele>253.0</ele><time>2026-04-09T15:48:22.685Z</time></trkpt><trkpt lat="40.8686417" lon="14.2265583"><ele>252.99999999999997</ele><time>2026-04-09T15:48:23.687Z</time></trkpt><trkpt lat="40.868645" lon="14.226455"><ele>253.0</ele><time>2026-04-09T15:48:24.686Z</time></trkpt><trkpt lat="40.8686468" lon="14.226352"><ele>253.83333333333331</ele><time>2026-04-09T15:48:25.685Z</time></trkpt><trkpt lat="40.8686481" lon="14.226248"><ele>254.66666666666666</ele><time>2026-04-09T15:48:26.684Z</time></trkpt><trkpt lat="40.8686479" lon="14.2261427"><ele>255.5</ele><time>2026-04-09T15:48:27.685Z</time></trkpt><trkpt lat="40.8686465" lon="14.2260337"><ele>256.3333333333333</ele><time>2026-04-09T15:48:28.685Z</time></trkpt><trkpt lat="40.8686491" lon="14.2259284"><ele>257.1666666666667</ele><time>2026-04-09T15:48:29.685Z</time></trkpt><trkpt lat="40.8686548" lon="14.2258315"><ele>258.0</ele><time>2026-04-09T15:48:30.685Z</time></trkpt><trkpt lat="40.8686606" lon="14.225746"><ele>258.0</ele><time>2026-04-09T15:48:31.684Z</time></trkpt><trkpt lat="40.8686758" lon="14.2255872"><ele>258.0</ele><time>2026-04-09T15:48:33.686Z</time></trkpt><trkpt lat="40.8686909" lon="14.2254474"><ele>258.0</ele><time>2026-04-09T15:48:35.686Z</time></trkpt><trkpt lat="40.8687028" lon="14.2253245"><ele>258.0</ele><time>2026-04-09T15:48:37.686Z</time></trkpt><trkpt lat="40.8687144" lon="14.2252173"><ele>258.0</ele><time>2026-04-09T15:48:39.685Z</time></trkpt><trkpt lat="40.8687228" lon="14.225117"><ele>257.99999999999994</ele><time>2026-04-09T15:48:41.685Z</time></trkpt><trkpt lat="40.8687123" lon="14.2250048"><ele>258.0</ele><time>2026-04-09T15:48:43.685Z</time></trkpt><trkpt lat="40.8687146" lon="14.2249067"><ele>258.0</ele><time>2026-04-09T15:48:45.685Z</time></trkpt><trkpt lat="40.8687209" lon="14.2248171"><ele>258.0</ele><time>2026-04-09T15:48:47.685Z</time></trkpt><trkpt lat="40.8687296" lon="14.2247247"><ele>258.0</ele><time>2026-04-09T15:48:49.685Z</time></trkpt><trkpt lat="40.8687249" lon="14.2246233"><ele>257.99999999999994</ele><time>2026-04-09T15:48:51.684Z</time></trkpt><trkpt lat="40.8687339" lon="14.2245276"><ele>258.0</ele><time>2026-04-09T15:48:53.685Z</time></trkpt><trkpt lat="40.8687452" lon="14.2244295"><ele>258.57142857142856</ele><time>2026-04-09T15:48:55.685Z</time></trkpt><trkpt lat="40.8687486" lon="14.2243418"><ele>259.1428571428571</ele><time>2026-04-09T15:48:57.685Z</time></trkpt><trkpt lat="40.8687467" lon="14.2242583"><ele>259.7142857142857</ele><time>2026-04-09T15:48:59.685Z</time></trkpt><trkpt lat="40.868755" lon="14.2241633"><ele>260.2857142857143</ele><time>2026-04-09T15:49:02.685Z</time></trkpt><trkpt lat="40.8687833" lon="14.224085"><ele>260.8571428571429</ele><time>2026-04-09T15:49:04.684Z</time></trkpt><trkpt lat="40.8688367" lon="14.2240383"><ele>261.42857142857144</ele><time>2026-04-09T15:49:06.688Z</time></trkpt><trkpt lat="40.8688917" lon="14.223985"><ele>262.0</ele><time>2026-04-09T15:49:08.684Z</time></trkpt><trkpt lat="40.8689783" lon="14.22395"><ele>262.16666666666663</ele><time>2026-04-09T15:49:11.686Z</time></trkpt><trkpt lat="40.86902" lon="14.22388"><ele>262.3333333333333</ele><time>2026-04-09T15:49:15.686Z</time></trkpt><trkpt lat="40.8690317" lon="14.2237967"><ele>262.5</ele><time>2026-04-09T15:49:17.687Z</time></trkpt><trkpt lat="40.8690383" lon="14.2236983"><ele>262.6666666666667</ele><time>2026-04-09T15:49:19.685Z</time></trkpt><trkpt lat="40.8690333" lon="14.2235983"><ele>262.83333333333337</ele><time>2026-04-09T15:49:21.685Z</time></trkpt><trkpt lat="40.8690383" lon="14.2234967"><ele>263.0</ele><time>2026-04-09T15:49:23.686Z</time></trkpt><trkpt lat="40.8690467" lon="14.2233483"><ele>263.0</ele><time>2026-04-09T15:49:25.685Z</time></trkpt><trkpt lat="40.8690683" lon="14.22321"><ele>263.0</ele><time>2026-04-09T15:49:27.685Z</time></trkpt><trkpt lat="40.8691083" lon="14.223085"><ele>263.0</ele><time>2026-04-09T15:49:29.685Z</time></trkpt><trkpt lat="40.8691217" lon="14.2229817"><ele>263.0</ele><time>2026-04-09T15:49:31.686Z</time></trkpt><trkpt lat="40.8691133" lon="14.2228917"><ele>263.0</ele><time>2026-04-09T15:49:33.685Z</time></trkpt><trkpt lat="40.8690733" lon="14.2227533"><ele>262.6666666666667</ele><time>2026-04-09T15:49:36.685Z</time></trkpt><trkpt lat="40.8690417" lon="14.2226667"><ele>262.33333333333337</ele><time>2026-04-09T15:49:38.685Z</time></trkpt><trkpt lat="40.8690667" lon="14.2225783"><ele>262.0</ele><time>2026-04-09T15:49:40.685Z</time></trkpt><trkpt lat="40.8691233" lon="14.2225183"><ele>261.6666666666667</ele><time>2026-04-09T15:49:41.685Z</time></trkpt><trkpt lat="40.8692383" lon="14.22245"><ele>261.3333333333333</ele><time>2026-04-09T15:49:43.688Z</time></trkpt><trkpt lat="40.8692983" lon="14.2224133"><ele>261.0</ele><time>2026-04-09T15:49:44.686Z</time></trkpt><trkpt lat="40.86936" lon="14.222375"><ele>259.8</ele><time>2026-04-09T15:49:45.685Z</time></trkpt><trkpt lat="40.8694383" lon="14.2223267"><ele>258.6</ele><time>2026-04-09T15:49:46.685Z</time></trkpt><trkpt lat="40.8695183" lon="14.222285"><ele>257.4</ele><time>2026-04-09T15:49:47.685Z</time></trkpt><trkpt lat="40.8696033" lon="14.2222567"><ele>256.2</ele><time>2026-04-09T15:49:48.684Z</time></trkpt><trkpt lat="40.8696933" lon="14.2222283"><ele>255.0</ele><time>2026-04-09T15:49:49.684Z</time></trkpt><trkpt lat="40.86979" lon="14.2222017"><ele>255.0</ele><time>2026-04-09T15:49:50.686Z</time></trkpt><trkpt lat="40.8698783" lon="14.22218"><ele>255.0</ele><time>2026-04-09T15:49:51.684Z</time></trkpt><trkpt lat="40.869975" lon="14.2221483"><ele>255.0</ele><time>2026-04-09T15:49:52.683Z</time></trkpt><trkpt lat="40.870075" lon="14.22213"><ele>255.0</ele><time>2026-04-09T15:49:53.685Z</time></trkpt><trkpt lat="40.8701783" lon="14.22211"><ele>255.0</ele><time>2026-04-09T15:49:54.684Z</time></trkpt><trkpt lat="40.8702817" lon="14.2220933"><ele>253.0</ele><time>2026-04-09T15:49:55.691Z</time></trkpt><trkpt lat="40.8704983" lon="14.2220617"><ele>251.0</ele><time>2026-04-09T15:49:57.685Z</time></trkpt><trkpt lat="40.8706083" lon="14.2220367"><ele>249.0</ele><time>2026-04-09T15:49:58.686Z</time></trkpt><trkpt lat="40.870715" lon="14.222005"><ele>247.0</ele><time>2026-04-09T15:49:59.686Z</time></trkpt><trkpt lat="40.87082" lon="14.22197"><ele>247.0</ele><time>2026-04-09T15:50:00.686Z</time></trkpt><trkpt lat="40.8709167" lon="14.2219417"><ele>247.0</ele><time>2026-04-09T15:50:01.686Z</time></trkpt><trkpt lat="40.87102" lon="14.2218967"><ele>247.0</ele><time>2026-04-09T15:50:02.684Z</time></trkpt><trkpt lat="40.8711233" lon="14.221845"><ele>247.0</ele><time>2026-04-09T15:50:03.684Z</time></trkpt><trkpt lat="40.871225" lon="14.2218033"><ele>247.0</ele><time>2026-04-09T15:50:04.686Z</time></trkpt><trkpt lat="40.8713333" lon="14.2217683"><ele>246.6</ele><time>2026-04-09T15:50:05.684Z</time></trkpt><trkpt lat="40.8714383" lon="14.2217633"><ele>246.2</ele><time>2026-04-09T15:50:06.684Z</time></trkpt><trkpt lat="40.8715483" lon="14.221765"><ele>245.8</ele><time>2026-04-09T15:50:07.684Z</time></trkpt><trkpt lat="40.8716567" lon="14.2217733"><ele>245.4</ele><time>2026-04-09T15:50:08.684Z</time></trkpt><trkpt lat="40.8717667" lon="14.221795"><ele>245.0</ele><time>2026-04-09T15:50:09.686Z</time></trkpt><trkpt lat="40.8718733" lon="14.2218317"><ele>245.0</ele><time>2026-04-09T15:50:10.684Z</time></trkpt><trkpt lat="40.8719833" lon="14.2218683"><ele>245.0</ele><time>2026-04-09T15:50:11.685Z</time></trkpt><trkpt lat="40.8720933" lon="14.2219017"><ele>245.0</ele><time>2026-04-09T15:50:12.684Z</time></trkpt><trkpt lat="40.8721933" lon="14.221935"><ele>245.0</ele><time>2026-04-09T15:50:13.686Z</time></trkpt><trkpt lat="40.8722967" lon="14.221945"><ele>245.0</ele><time>2026-04-09T15:50:14.685Z</time></trkpt><trkpt lat="40.8724083" lon="14.221925"><ele>245.0</ele><time>2026-04-09T15:50:15.685Z</time></trkpt><trkpt lat="40.8725133" lon="14.2218917"><ele>245.0</ele><time>2026-04-09T15:50:16.685Z</time></trkpt><trkpt lat="40.87262" lon="14.2218467"><ele>245.0</ele><time>2026-04-09T15:50:17.686Z</time></trkpt><trkpt lat="40.872725" lon="14.2217933"><ele>245.0</ele><time>2026-04-09T15:50:18.685Z</time></trkpt><trkpt lat="40.8728317" lon="14.2217333"><ele>245.0</ele><time>2026-04-09T15:50:19.684Z</time></trkpt><trkpt lat="40.8729417" lon="14.2216783"><ele>244.0</ele><time>2026-04-09T15:50:20.684Z</time></trkpt><trkpt lat="40.8730567" lon="14.2216283"><ele>243.0</ele><time>2026-04-09T15:50:21.684Z</time></trkpt><trkpt lat="40.8731783" lon="14.22159"><ele>242.0</ele><time>2026-04-09T15:50:22.684Z</time></trkpt><trkpt lat="40.8732983" lon="14.2215833"><ele>241.0</ele><time>2026-04-09T15:50:23.684Z</time></trkpt><trkpt lat="40.8734117" lon="14.2215883"><ele>240.60000000000002</ele><time>2026-04-09T15:50:24.684Z</time></trkpt><trkpt lat="40.8735283" lon="14.2215983"><ele>240.20000000000002</ele><time>2026-04-09T15:50:25.684Z</time></trkpt><trkpt lat="40.8736417" lon="14.2216167"><ele>239.79999999999998</ele><time>2026-04-09T15:50:26.685Z</time></trkpt><trkpt lat="40.8737483" lon="14.221635"><ele>239.39999999999998</ele><time>2026-04-09T15:50:27.683Z</time></trkpt><trkpt lat="40.8738483" lon="14.221655"><ele>239.0</ele><time>2026-04-09T15:50:28.685Z</time></trkpt><trkpt lat="40.873945" lon="14.2216717"><ele>239.00000000000003</ele><time>2026-04-09T15:50:29.684Z</time></trkpt><trkpt lat="40.8740433" lon="14.22169"><ele>239.0</ele><time>2026-04-09T15:50:30.684Z</time></trkpt><trkpt lat="40.8741383" lon="14.2217083"><ele>239.0</ele><time>2026-04-09T15:50:31.684Z</time></trkpt><trkpt lat="40.8742283" lon="14.22173"><ele>239.0</ele><time>2026-04-09T15:50:32.685Z</time></trkpt><trkpt lat="40.8743083" lon="14.2217583"><ele>239.00000000000003</ele><time>2026-04-09T15:50:33.683Z</time></trkpt><trkpt lat="40.8743767" lon="14.22178"><ele>239.0</ele><time>2026-04-09T15:50:34.684Z</time></trkpt><trkpt lat="40.8744833" lon="14.2217933"><ele>238.50000000000003</ele><time>2026-04-09T15:50:36.684Z</time></trkpt><trkpt lat="40.87456" lon="14.2218133"><ele>238.0</ele><time>2026-04-09T15:50:38.684Z</time></trkpt><trkpt lat="40.8746283" lon="14.22181"><ele>237.5</ele><time>2026-04-09T15:50:42.685Z</time></trkpt><trkpt lat="40.8747033" lon="14.2218517"><ele>237.0</ele><time>2026-04-09T15:50:45.685Z</time></trkpt><trkpt lat="40.8747383" lon="14.22195"><ele>236.50000000000003</ele><time>2026-04-09T15:50:47.684Z</time></trkpt><trkpt lat="40.87475" lon="14.2221017"><ele>236.0</ele><time>2026-04-09T15:50:49.686Z</time></trkpt><trkpt lat="40.87474" lon="14.2222"><ele>236.00000000000003</ele><time>2026-04-09T15:50:50.684Z</time></trkpt><trkpt lat="40.8747283" lon="14.2222983"><ele>236.0</ele><time>2026-04-09T15:50:51.685Z</time></trkpt><trkpt lat="40.8747217" lon="14.2223983"><ele>236.0</ele><time>2026-04-09T15:50:52.684Z</time></trkpt><trkpt lat="40.8747167" lon="14.2225033"><ele>236.0</ele><time>2026-04-09T15:50:53.684Z</time></trkpt><trkpt lat="40.874715" lon="14.22262"><ele>236.00000000000003</ele><time>2026-04-09T15:50:54.684Z</time></trkpt><trkpt lat="40.8747167" lon="14.2227367"><ele>236.0</ele><time>2026-04-09T15:50:55.685Z</time></trkpt><trkpt lat="40.8747267" lon="14.22286"><ele>235.8</ele><time>2026-04-09T15:50:56.684Z</time></trkpt><trkpt lat="40.874755" lon="14.2229917"><ele>235.60000000000002</ele><time>2026-04-09T15:50:57.684Z</time></trkpt><trkpt lat="40.874795" lon="14.2231117"><ele>235.4</ele><time>2026-04-09T15:50:58.684Z</time></trkpt><trkpt lat="40.8748433" lon="14.2232267"><ele>235.2</ele><time>2026-04-09T15:50:59.685Z</time></trkpt><trkpt lat="40.874895" lon="14.2233367"><ele>235.0</ele><time>2026-04-09T15:51:00.684Z</time></trkpt><trkpt lat="40.8749467" lon="14.2234467"><ele>234.8</ele><time>2026-04-09T15:51:01.684Z</time></trkpt><trkpt lat="40.87501" lon="14.2235567"><ele>234.6</ele><time>2026-04-09T15:51:02.684Z</time></trkpt><trkpt lat="40.8750767" lon="14.2236517"><ele>234.39999999999998</ele><time>2026-04-09T15:51:03.684Z</time></trkpt><trkpt lat="40.8751533" lon="14.2237367"><ele>234.2</ele><time>2026-04-09T15:51:04.684Z</time></trkpt><trkpt lat="40.8752417" lon="14.2238017"><ele>234.0</ele><time>2026-04-09T15:51:05.684Z</time></trkpt><trkpt lat="40.87534" lon="14.22384"><ele>234.0</ele><time>2026-04-09T15:51:06.684Z</time></trkpt><trkpt lat="40.8754383" lon="14.22387"><ele>233.99999999999997</ele><time>2026-04-09T15:51:07.684Z</time></trkpt><trkpt lat="40.875525" lon="14.223925"><ele>233.99999999999997</ele><time>2026-04-09T15:51:08.684Z</time></trkpt><trkpt lat="40.8755967" lon="14.224"><ele>234.0</ele><time>2026-04-09T15:51:09.684Z</time></trkpt><trkpt lat="40.87565" lon="14.2241"><ele>234.0</ele><time>2026-04-09T15:51:10.684Z</time></trkpt><trkpt lat="40.8756817" lon="14.224215"><ele>232.39999999999998</ele><time>2026-04-09T15:51:11.686Z</time></trkpt><trkpt lat="40.8756967" lon="14.2243317"><ele>230.79999999999998</ele><time>2026-04-09T15:51:12.684Z</time></trkpt><trkpt lat="40.8756833" lon="14.2244583"><ele>229.20000000000002</ele><time>2026-04-09T15:51:13.684Z</time></trkpt><trkpt lat="40.8756567" lon="14.2245783"><ele>227.60000000000002</ele><time>2026-04-09T15:51:14.684Z</time></trkpt><trkpt lat="40.875605" lon="14.2247"><ele>226.0</ele><time>2026-04-09T15:51:15.684Z</time></trkpt><trkpt lat="40.8755517" lon="14.2248117"><ele>225.60000000000002</ele><time>2026-04-09T15:51:16.684Z</time></trkpt><trkpt lat="40.875505" lon="14.22493"><ele>225.20000000000002</ele><time>2026-04-09T15:51:17.684Z</time></trkpt><trkpt lat="40.875465" lon="14.2250517"><ele>224.79999999999998</ele><time>2026-04-09T15:51:18.684Z</time></trkpt><trkpt lat="40.8754217" lon="14.2251733"><ele>224.39999999999998</ele><time>2026-04-09T15:51:19.684Z</time></trkpt><trkpt lat="40.8753833" lon="14.2253017"><ele>224.0</ele><time>2026-04-09T15:51:20.684Z</time></trkpt><trkpt lat="40.8753533" lon="14.225435"><ele>224.0</ele><time>2026-04-09T15:51:21.684Z</time></trkpt><trkpt lat="40.8753283" lon="14.2255733"><ele>223.99999999999997</ele><time>2026-04-09T15:51:22.684Z</time></trkpt><trkpt lat="40.8753167" lon="14.2257183"><ele>223.99999999999997</ele><time>2026-04-09T15:51:23.684Z</time></trkpt><trkpt lat="40.8753133" lon="14.2258633"><ele>224.0</ele><time>2026-04-09T15:51:24.684Z</time></trkpt><trkpt lat="40.8753267" lon="14.2260033"><ele>224.0</ele><time>2026-04-09T15:51:25.686Z</time></trkpt><trkpt lat="40.87534" lon="14.226145"><ele>224.0</ele><time>2026-04-09T15:51:26.686Z</time></trkpt><trkpt lat="40.8753533" lon="14.2262883"><ele>223.99999999999997</ele><time>2026-04-09T15:51:27.684Z</time></trkpt><trkpt lat="40.8753667" lon="14.22643"><ele>223.99999999999997</ele><time>2026-04-09T15:51:28.685Z</time></trkpt><trkpt lat="40.875385" lon="14.2265683"><ele>224.0</ele><time>2026-04-09T15:51:29.684Z</time></trkpt><trkpt lat="40.875415" lon="14.2267083"><ele>224.0</ele><time>2026-04-09T15:51:30.684Z</time></trkpt><trkpt lat="40.8754583" lon="14.2268367"><ele>223.39999999999998</ele><time>2026-04-09T15:51:31.684Z</time></trkpt><trkpt lat="40.8755233" lon="14.226955"><ele>222.79999999999998</ele><time>2026-04-09T15:51:32.687Z</time></trkpt><trkpt lat="40.8755967" lon="14.22705"><ele>222.20000000000002</ele><time>2026-04-09T15:51:33.684Z</time></trkpt><trkpt lat="40.875685" lon="14.227115"><ele>221.60000000000002</ele><time>2026-04-09T15:51:34.684Z</time></trkpt><trkpt lat="40.87578" lon="14.2271617"><ele>221.0</ele><time>2026-04-09T15:51:35.684Z</time></trkpt><trkpt lat="40.8758817" lon="14.22719"><ele>221.5</ele><time>2026-04-09T15:51:36.685Z</time></trkpt><trkpt lat="40.8759917" lon="14.2272017"><ele>222.0</ele><time>2026-04-09T15:51:37.684Z</time></trkpt><trkpt lat="40.8761067" lon="14.2272117"><ele>222.5</ele><time>2026-04-09T15:51:38.684Z</time></trkpt><trkpt lat="40.876225" lon="14.2272233"><ele>223.0</ele><time>2026-04-09T15:51:39.684Z</time></trkpt><trkpt lat="40.8763467" lon="14.227235"><ele>223.0</ele><time>2026-04-09T15:51:40.684Z</time></trkpt><trkpt lat="40.8764667" lon="14.2272517"><ele>223.0</ele><time>2026-04-09T15:51:41.685Z</time></trkpt><trkpt lat="40.87659" lon="14.2272767"><ele>223.0</ele><time>2026-04-09T15:51:42.684Z</time></trkpt><trkpt lat="40.8767167" lon="14.227305"><ele>223.0</ele><time>2026-04-09T15:51:43.686Z</time></trkpt><trkpt lat="40.8768417" lon="14.2273583"><ele>219.5</ele><time>2026-04-09T15:51:44.684Z</time></trkpt><trkpt lat="40.8769583" lon="14.2274217"><ele>216.0</ele><time>2026-04-09T15:51:45.684Z</time></trkpt><trkpt lat="40.8770633" lon="14.2275067"><ele>212.5</ele><time>2026-04-09T15:51:46.685Z</time></trkpt><trkpt lat="40.87716" lon="14.2276"><ele>209.0</ele><time>2026-04-09T15:51:47.688Z</time></trkpt><trkpt lat="40.8772533" lon="14.2277"><ele>209.0</ele><time>2026-04-09T15:51:48.684Z</time></trkpt><trkpt lat="40.8773417" lon="14.2277967"><ele>209.0</ele><time>2026-04-09T15:51:49.686Z</time></trkpt><trkpt lat="40.8774317" lon="14.22788"><ele>209.0</ele><time>2026-04-09T15:51:50.684Z</time></trkpt><trkpt lat="40.877525" lon="14.2279333"><ele>209.0</ele><time>2026-04-09T15:51:51.684Z</time></trkpt><trkpt lat="40.8776233" lon="14.22795"><ele>209.0</ele><time>2026-04-09T15:51:52.684Z</time></trkpt><trkpt lat="40.877725" lon="14.2279367"><ele>208.39999999999998</ele><time>2026-04-09T15:51:53.684Z</time></trkpt><trkpt lat="40.8778233" lon="14.2279133"><ele>207.8</ele><time>2026-04-09T15:51:54.684Z</time></trkpt><trkpt lat="40.87792" lon="14.22788"><ele>207.2</ele><time>2026-04-09T15:51:55.685Z</time></trkpt><trkpt lat="40.8780183" lon="14.2278367"><ele>206.60000000000002</ele><time>2026-04-09T15:51:56.684Z</time></trkpt><trkpt lat="40.87811" lon="14.2278233"><ele>206.0</ele><time>2026-04-09T15:51:57.684Z</time></trkpt><trkpt lat="40.8781917" lon="14.2278517"><ele>206.0</ele><time>2026-04-09T15:51:58.685Z</time></trkpt><trkpt lat="40.8782667" lon="14.2279067"><ele>206.0</ele><time>2026-04-09T15:51:59.685Z</time></trkpt><trkpt lat="40.8783333" lon="14.227985"><ele>206.0</ele><time>2026-04-09T15:52:00.684Z</time></trkpt><trkpt lat="40.8783817" lon="14.2280917"><ele>206.0</ele><time>2026-04-09T15:52:01.684Z</time></trkpt><trkpt lat="40.8784333" lon="14.2281967"><ele>206.0</ele><time>2026-04-09T15:52:02.684Z</time></trkpt><trkpt lat="40.87849" lon="14.228295"><ele>205.20000000000002</ele><time>2026-04-09T15:52:03.684Z</time></trkpt><trkpt lat="40.8785417" lon="14.2284033"><ele>204.4</ele><time>2026-04-09T15:52:04.685Z</time></trkpt><trkpt lat="40.8785883" lon="14.2285133"><ele>203.6</ele><time>2026-04-09T15:52:05.684Z</time></trkpt><trkpt lat="40.878625" lon="14.2286283"><ele>202.8</ele><time>2026-04-09T15:52:06.684Z</time></trkpt><trkpt lat="40.8786317" lon="14.2287617"><ele>202.0</ele><time>2026-04-09T15:52:07.685Z</time></trkpt><trkpt lat="40.8786267" lon="14.2288983"><ele>201.2</ele><time>2026-04-09T15:52:08.686Z</time></trkpt><trkpt lat="40.878615" lon="14.2290367"><ele>200.39999999999998</ele><time>2026-04-09T15:52:09.686Z</time></trkpt><trkpt lat="40.8786" lon="14.2291817"><ele>199.60000000000002</ele><time>2026-04-09T15:52:10.685Z</time></trkpt><trkpt lat="40.8785767" lon="14.2293283"><ele>198.8</ele><time>2026-04-09T15:52:11.686Z</time></trkpt><trkpt lat="40.8785567" lon="14.2294717"><ele>198.0</ele><time>2026-04-09T15:52:12.686Z</time></trkpt><trkpt lat="40.8785383" lon="14.22962"><ele>198.0</ele><time>2026-04-09T15:52:13.686Z</time></trkpt><trkpt lat="40.87853" lon="14.2297667"><ele>198.0</ele><time>2026-04-09T15:52:14.686Z</time></trkpt><trkpt lat="40.8785283" lon="14.229915"><ele>198.0</ele><time>2026-04-09T15:52:15.686Z</time></trkpt><trkpt lat="40.878535" lon="14.230065"><ele>198.0</ele><time>2026-04-09T15:52:16.685Z</time></trkpt><trkpt lat="40.8785383" lon="14.2302133"><ele>198.0</ele><time>2026-04-09T15:52:17.686Z</time></trkpt><trkpt lat="40.8785417" lon="14.230365"><ele>197.2</ele><time>2026-04-09T15:52:18.685Z</time></trkpt><trkpt lat="40.8785517" lon="14.2305167"><ele>196.4</ele><time>2026-04-09T15:52:19.685Z</time></trkpt><trkpt lat="40.8785767" lon="14.2306567"><ele>195.6</ele><time>2026-04-09T15:52:20.685Z</time></trkpt><trkpt lat="40.8786217" lon="14.2307817"><ele>194.79999999999998</ele><time>2026-04-09T15:52:21.685Z</time></trkpt><trkpt lat="40.8786933" lon="14.2308817"><ele>194.0</ele><time>2026-04-09T15:52:22.685Z</time></trkpt><trkpt lat="40.8787733" lon="14.230965"><ele>193.2</ele><time>2026-04-09T15:52:23.685Z</time></trkpt><trkpt lat="40.8788683" lon="14.2310083"><ele>192.39999999999998</ele><time>2026-04-09T15:52:24.686Z</time></trkpt><trkpt lat="40.8789733" lon="14.231005"><ele>191.6</ele><time>2026-04-09T15:52:25.686Z</time></trkpt><trkpt lat="40.879085" lon="14.23098"><ele>190.8</ele><time>2026-04-09T15:52:26.686Z</time></trkpt><trkpt lat="40.8791933" lon="14.2309717"><ele>190.0</ele><time>2026-04-09T15:52:27.685Z</time></trkpt><trkpt lat="40.8792967" lon="14.230985"><ele>190.0</ele><time>2026-04-09T15:52:28.685Z</time></trkpt><trkpt lat="40.8793983" lon="14.231005"><ele>190.0</ele><time>2026-04-09T15:52:29.686Z</time></trkpt><trkpt lat="40.8795033" lon="14.231025"><ele>190.0</ele><time>2026-04-09T15:52:30.685Z</time></trkpt><trkpt lat="40.8796017" lon="14.231055"><ele>190.0</ele><time>2026-04-09T15:52:31.687Z</time></trkpt><trkpt lat="40.8796967" lon="14.2310883"><ele>190.0</ele><time>2026-04-09T15:52:32.685Z</time></trkpt><trkpt lat="40.879785" lon="14.231135"><ele>190.0</ele><time>2026-04-09T15:52:33.685Z</time></trkpt><trkpt lat="40.8798633" lon="14.231205"><ele>190.0</ele><time>2026-04-09T15:52:34.686Z</time></trkpt><trkpt lat="40.8799233" lon="14.23129"><ele>190.0</ele><time>2026-04-09T15:52:35.686Z</time></trkpt><trkpt lat="40.879975" lon="14.23138"><ele>190.0</ele><time>2026-04-09T15:52:36.685Z</time></trkpt><trkpt lat="40.8800183" lon="14.231475"><ele>190.0</ele><time>2026-04-09T15:52:37.689Z</time></trkpt><trkpt lat="40.88003" lon="14.2315817"><ele>190.0</ele><time>2026-04-09T15:52:38.686Z</time></trkpt><trkpt lat="40.8800283" lon="14.2316883"><ele>189.33333333333334</ele><time>2026-04-09T15:52:39.685Z</time></trkpt><trkpt lat="40.88002" lon="14.23179"><ele>188.66666666666669</ele><time>2026-04-09T15:52:40.686Z</time></trkpt><trkpt lat="40.8799933" lon="14.2318883"><ele>188.0</ele><time>2026-04-09T15:52:41.686Z</time></trkpt><trkpt lat="40.879975" lon="14.2319983"><ele>187.33333333333334</ele><time>2026-04-09T15:52:42.689Z</time></trkpt><trkpt lat="40.8799717" lon="14.232115"><ele>186.66666666666666</ele><time>2026-04-09T15:52:43.685Z</time></trkpt><trkpt lat="40.8799833" lon="14.23223"><ele>186.0</ele><time>2026-04-09T15:52:44.685Z</time></trkpt><trkpt lat="40.8799917" lon="14.2323433"><ele>185.16666666666666</ele><time>2026-04-09T15:52:45.685Z</time></trkpt><trkpt lat="40.8800167" lon="14.2324467"><ele>184.33333333333334</ele><time>2026-04-09T15:52:46.685Z</time></trkpt><trkpt lat="40.880055" lon="14.23254"><ele>183.5</ele><time>2026-04-09T15:52:47.688Z</time></trkpt><trkpt lat="40.8800867" lon="14.2326417"><ele>182.66666666666669</ele><time>2026-04-09T15:52:48.686Z</time></trkpt><trkpt lat="40.8801183" lon="14.2327433"><ele>181.83333333333334</ele><time>2026-04-09T15:52:49.685Z</time></trkpt><trkpt lat="40.88016" lon="14.2328367"><ele>181.0</ele><time>2026-04-09T15:52:50.692Z</time></trkpt><trkpt lat="40.88021" lon="14.23292"><ele>180.8</ele><time>2026-04-09T15:52:51.685Z</time></trkpt><trkpt lat="40.8803267" lon="14.2328867"><ele>180.60000000000002</ele><time>2026-04-09T15:52:52.687Z</time></trkpt><trkpt lat="40.88042" lon="14.2328867"><ele>180.4</ele><time>2026-04-09T15:52:53.685Z</time></trkpt><trkpt lat="40.8804817" lon="14.2329083"><ele>180.2</ele><time>2026-04-09T15:52:54.686Z</time></trkpt><trkpt lat="40.880575" lon="14.232935"><ele>180.0</ele><time>2026-04-09T15:52:56.686Z</time></trkpt><trkpt lat="40.8806567" lon="14.2329733"><ele>180.0</ele><time>2026-04-09T15:52:58.686Z</time></trkpt><trkpt lat="40.8807317" lon="14.2330017"><ele>180.0</ele><time>2026-04-09T15:53:00.685Z</time></trkpt><trkpt lat="40.8808183" lon="14.23302"><ele>180.0</ele><time>2026-04-09T15:53:02.688Z</time></trkpt><trkpt lat="40.8809083" lon="14.233065"><ele>180.0</ele><time>2026-04-09T15:53:04.684Z</time></trkpt><trkpt lat="40.881015" lon="14.23311"><ele>180.0</ele><time>2026-04-09T15:53:06.684Z</time></trkpt><trkpt lat="40.8811117" lon="14.23318"><ele>179.5</ele><time>2026-04-09T15:53:08.685Z</time></trkpt><trkpt lat="40.8812" lon="14.2332867"><ele>179.0</ele><time>2026-04-09T15:53:10.684Z</time></trkpt><trkpt lat="40.8812433" lon="14.2333567"><ele>178.5</ele><time>2026-04-09T15:53:11.684Z</time></trkpt><trkpt lat="40.88129" lon="14.23343"><ele>178.0</ele><time>2026-04-09T15:53:12.684Z</time></trkpt><trkpt lat="40.8813317" lon="14.23351"><ele>177.5</ele><time>2026-04-09T15:53:13.685Z</time></trkpt><trkpt lat="40.8813683" lon="14.2336033"><ele>177.0</ele><time>2026-04-09T15:53:14.684Z</time></trkpt><trkpt lat="40.8814017" lon="14.2337083"><ele>177.0</ele><time>2026-04-09T15:53:15.685Z</time></trkpt><trkpt lat="40.8814267" lon="14.2338233"><ele>177.0</ele><time>2026-04-09T15:53:16.684Z</time></trkpt><trkpt lat="40.881445" lon="14.2339383"><ele>177.0</ele><time>2026-04-09T15:53:17.687Z</time></trkpt><trkpt lat="40.8814617" lon="14.234055"><ele>177.0</ele><time>2026-04-09T15:53:18.684Z</time></trkpt><trkpt lat="40.88147" lon="14.2341767"><ele>177.0</ele><time>2026-04-09T15:53:19.685Z</time></trkpt><trkpt lat="40.881475" lon="14.234305"><ele>176.6</ele><time>2026-04-09T15:53:20.684Z</time></trkpt><trkpt lat="40.8814783" lon="14.23443"><ele>176.2</ele><time>2026-04-09T15:53:21.684Z</time></trkpt><trkpt lat="40.8814883" lon="14.2345583"><ele>175.8</ele><time>2026-04-09T15:53:22.686Z</time></trkpt><trkpt lat="40.8815083" lon="14.23469"><ele>175.4</ele><time>2026-04-09T15:53:23.684Z</time></trkpt><trkpt lat="40.88154" lon="14.2348117"><ele>175.0</ele><time>2026-04-09T15:53:24.684Z</time></trkpt><trkpt lat="40.881585" lon="14.2349167"><ele>174.0</ele><time>2026-04-09T15:53:25.685Z</time></trkpt><trkpt lat="40.8816317" lon="14.235015"><ele>173.0</ele><time>2026-04-09T15:53:26.684Z</time></trkpt><trkpt lat="40.8816783" lon="14.2351133"><ele>172.0</ele><time>2026-04-09T15:53:27.684Z</time></trkpt><trkpt lat="40.8817267" lon="14.23521"><ele>171.0</ele><time>2026-04-09T15:53:28.685Z</time></trkpt><trkpt lat="40.8817867" lon="14.2353"><ele>170.0</ele><time>2026-04-09T15:53:29.685Z</time></trkpt><trkpt lat="40.8818467" lon="14.235385"><ele>169.0</ele><time>2026-04-09T15:53:30.684Z</time></trkpt><trkpt lat="40.8819067" lon="14.23547"><ele>168.39999999999998</ele><time>2026-04-09T15:53:31.684Z</time></trkpt><trkpt lat="40.881975" lon="14.235555"><ele>167.8</ele><time>2026-04-09T15:53:32.687Z</time></trkpt><trkpt lat="40.8820467" lon="14.2356433"><ele>167.2</ele><time>2026-04-09T15:53:33.684Z</time></trkpt><trkpt lat="40.882125" lon="14.23573"><ele>166.60000000000002</ele><time>2026-04-09T15:53:34.687Z</time></trkpt><trkpt lat="40.8822117" lon="14.2358167"><ele>166.0</ele><time>2026-04-09T15:53:35.685Z</time></trkpt><trkpt lat="40.8823067" lon="14.2359"><ele>165.25</ele><time>2026-04-09T15:53:36.685Z</time></trkpt><trkpt lat="40.882405" lon="14.2359817"><ele>164.5</ele><time>2026-04-09T15:53:37.684Z</time></trkpt><trkpt lat="40.8825117" lon="14.23606"><ele>163.75</ele><time>2026-04-09T15:53:38.685Z</time></trkpt><trkpt lat="40.8826167" lon="14.2361367"><ele>163.0</ele><time>2026-04-09T15:53:39.684Z</time></trkpt><trkpt lat="40.8827217" lon="14.23621"><ele>162.5</ele><time>2026-04-09T15:53:40.686Z</time></trkpt><trkpt lat="40.8828317" lon="14.2362817"><ele>162.0</ele><time>2026-04-09T15:53:41.684Z</time></trkpt><trkpt lat="40.8829317" lon="14.236365"><ele>161.5</ele><time>2026-04-09T15:53:42.684Z</time></trkpt><trkpt lat="40.8830217" lon="14.2364633"><ele>161.0</ele><time>2026-04-09T15:53:43.685Z</time></trkpt><trkpt lat="40.8831017" lon="14.2365717"><ele>160.20000000000002</ele><time>2026-04-09T15:53:44.684Z</time></trkpt><trkpt lat="40.88318" lon="14.23669"><ele>159.4</ele><time>2026-04-09T15:53:45.684Z</time></trkpt><trkpt lat="40.88326" lon="14.2367883"><ele>158.6</ele><time>2026-04-09T15:53:46.684Z</time></trkpt><trkpt lat="40.8833433" lon="14.2368667"><ele>157.8</ele><time>2026-04-09T15:53:47.684Z</time></trkpt><trkpt lat="40.8834367" lon="14.23692"><ele>157.0</ele><time>2026-04-09T15:53:48.684Z</time></trkpt><trkpt lat="40.8835333" lon="14.2369533"><ele>156.4</ele><time>2026-04-09T15:53:49.685Z</time></trkpt><trkpt lat="40.8836317" lon="14.23697"><ele>155.79999999999998</ele><time>2026-04-09T15:53:50.684Z</time></trkpt><trkpt lat="40.8837333" lon="14.2369833"><ele>155.2</ele><time>2026-04-09T15:53:51.684Z</time></trkpt><trkpt lat="40.8838367" lon="14.2369917"><ele>154.6</ele><time>2026-04-09T15:53:52.684Z</time></trkpt><trkpt lat="40.8839417" lon="14.2369933"><ele>154.0</ele><time>2026-04-09T15:53:53.684Z</time></trkpt><trkpt lat="40.8840383" lon="14.23699"><ele>154.0</ele><time>2026-04-09T15:53:54.684Z</time></trkpt><trkpt lat="40.8841217" lon="14.2369883"><ele>154.0</ele><time>2026-04-09T15:53:55.687Z</time></trkpt><trkpt lat="40.8841933" lon="14.2369917"><ele>154.0</ele><time>2026-04-09T15:53:56.684Z</time></trkpt><trkpt lat="40.8842567" lon="14.237"><ele>154.0</ele><time>2026-04-09T15:53:57.684Z</time></trkpt><trkpt lat="40.884365" lon="14.2370633"><ele>154.0</ele><time>2026-04-09T15:53:59.685Z</time></trkpt><trkpt lat="40.88442" lon="14.2371117"><ele>154.0</ele><time>2026-04-09T15:54:00.684Z</time></trkpt><trkpt lat="40.88448" lon="14.2371683"><ele>153.83333333333334</ele><time>2026-04-09T15:54:01.685Z</time></trkpt><trkpt lat="40.8845383" lon="14.2372333"><ele>153.66666666666669</ele><time>2026-04-09T15:54:02.684Z</time></trkpt><trkpt lat="40.88459" lon="14.23732"><ele>153.5</ele><time>2026-04-09T15:54:03.685Z</time></trkpt><trkpt lat="40.8846417" lon="14.2373967"><ele>153.33333333333334</ele><time>2026-04-09T15:54:04.685Z</time></trkpt><trkpt lat="40.8846867" lon="14.237485"><ele>153.16666666666666</ele><time>2026-04-09T15:54:05.685Z</time></trkpt><trkpt lat="40.88472" lon="14.23759"><ele>153.0</ele><time>2026-04-09T15:54:06.684Z</time></trkpt><trkpt lat="40.88475" lon="14.2377017"><ele>152.4</ele><time>2026-04-09T15:54:07.685Z</time></trkpt><trkpt lat="40.88478" lon="14.2378167"><ele>151.8</ele><time>2026-04-09T15:54:08.684Z</time></trkpt><trkpt lat="40.8848117" lon="14.237935"><ele>151.2</ele><time>2026-04-09T15:54:09.684Z</time></trkpt><trkpt lat="40.8848467" lon="14.2380517"><ele>150.6</ele><time>2026-04-09T15:54:10.684Z</time></trkpt><trkpt lat="40.8848833" lon="14.2381717"><ele>150.0</ele><time>2026-04-09T15:54:11.684Z</time></trkpt><trkpt lat="40.88492" lon="14.2382933"><ele>149.8</ele><time>2026-04-09T15:54:12.684Z</time></trkpt><trkpt lat="40.88496" lon="14.2384167"><ele>149.6</ele><time>2026-04-09T15:54:13.684Z</time></trkpt><trkpt lat="40.885" lon="14.23854"><ele>149.4</ele><time>2026-04-09T15:54:14.684Z</time></trkpt><trkpt lat="40.8850383" lon="14.2386717"><ele>149.2</ele><time>2026-04-09T15:54:15.684Z</time></trkpt><trkpt lat="40.8850783" lon="14.2387983"><ele>149.0</ele><time>2026-04-09T15:54:16.686Z</time></trkpt><trkpt lat="40.8851183" lon="14.238925"><ele>148.4</ele><time>2026-04-09T15:54:17.685Z</time></trkpt><trkpt lat="40.8851633" lon="14.23905"><ele>147.8</ele><time>2026-04-09T15:54:18.685Z</time></trkpt><trkpt lat="40.8852033" lon="14.2391733"><ele>147.2</ele><time>2026-04-09T15:54:19.684Z</time></trkpt><trkpt lat="40.88524" lon="14.2393083"><ele>146.6</ele><time>2026-04-09T15:54:20.684Z</time></trkpt><trkpt lat="40.88528" lon="14.239445"><ele>146.0</ele><time>2026-04-09T15:54:21.684Z</time></trkpt><trkpt lat="40.8853217" lon="14.2395817"><ele>146.0</ele><time>2026-04-09T15:54:22.685Z</time></trkpt><trkpt lat="40.8853633" lon="14.2397183"><ele>146.0</ele><time>2026-04-09T15:54:23.685Z</time></trkpt><trkpt lat="40.88541" lon="14.2398583"><ele>146.0</ele><time>2026-04-09T15:54:24.685Z</time></trkpt><trkpt lat="40.885455" lon="14.2399933"><ele>146.0</ele><time>2026-04-09T15:54:25.685Z</time></trkpt><trkpt lat="40.8854983" lon="14.24013"><ele>145.5</ele><time>2026-04-09T15:54:26.684Z</time></trkpt><trkpt lat="40.8855433" lon="14.240275"><ele>145.0</ele><time>2026-04-09T15:54:27.684Z</time></trkpt><trkpt lat="40.8855867" lon="14.2404117"><ele>144.5</ele><time>2026-04-09T15:54:28.684Z</time></trkpt><trkpt lat="40.8856333" lon="14.24055"><ele>144.0</ele><time>2026-04-09T15:54:29.685Z</time></trkpt><trkpt lat="40.88568" lon="14.240685"><ele>143.6</ele><time>2026-04-09T15:54:30.684Z</time></trkpt><trkpt lat="40.885725" lon="14.24082"><ele>143.2</ele><time>2026-04-09T15:54:31.684Z</time></trkpt><trkpt lat="40.8857733" lon="14.240955"><ele>142.79999999999998</ele><time>2026-04-09T15:54:32.684Z</time></trkpt><trkpt lat="40.8858167" lon="14.241085"><ele>142.4</ele><time>2026-04-09T15:54:33.684Z</time></trkpt><trkpt lat="40.885855" lon="14.2412167"><ele>142.0</ele><time>2026-04-09T15:54:34.684Z</time></trkpt><trkpt lat="40.8858867" lon="14.24136"><ele>142.0</ele><time>2026-04-09T15:54:35.685Z</time></trkpt><trkpt lat="40.8859267" lon="14.2414967"><ele>142.0</ele><time>2026-04-09T15:54:36.685Z</time></trkpt><trkpt lat="40.8859683" lon="14.2416267"><ele>142.0</ele><time>2026-04-09T15:54:37.686Z</time></trkpt><trkpt lat="40.886005" lon="14.241755"><ele>142.0</ele><time>2026-04-09T15:54:38.684Z</time></trkpt><trkpt lat="40.8860467" lon="14.2418767"><ele>142.0</ele><time>2026-04-09T15:54:39.684Z</time></trkpt><trkpt lat="40.8860867" lon="14.2420017"><ele>141.79999999999998</ele><time>2026-04-09T15:54:40.684Z</time></trkpt><trkpt lat="40.8861317" lon="14.242125"><ele>141.6</ele><time>2026-04-09T15:54:41.684Z</time></trkpt><trkpt lat="40.8861767" lon="14.2422467"><ele>141.39999999999998</ele><time>2026-04-09T15:54:42.685Z</time></trkpt><trkpt lat="40.8862183" lon="14.2423717"><ele>141.2</ele><time>2026-04-09T15:54:43.685Z</time></trkpt><trkpt lat="40.88626" lon="14.2424967"><ele>141.0</ele><time>2026-04-09T15:54:44.684Z</time></trkpt><trkpt lat="40.8863033" lon="14.2426267"><ele>141.0</ele><time>2026-04-09T15:54:45.685Z</time></trkpt><trkpt lat="40.8863483" lon="14.2427567"><ele>141.0</ele><time>2026-04-09T15:54:46.684Z</time></trkpt><trkpt lat="40.8863933" lon="14.2428867"><ele>141.0</ele><time>2026-04-09T15:54:47.685Z</time></trkpt><trkpt lat="40.8864333" lon="14.2430117"><ele>141.0</ele><time>2026-04-09T15:54:48.684Z</time></trkpt><trkpt lat="40.886475" lon="14.243135"><ele>141.0</ele><time>2026-04-09T15:54:49.684Z</time></trkpt><trkpt lat="40.886515" lon="14.2432533"><ele>140.5</ele><time>2026-04-09T15:54:50.684Z</time></trkpt><trkpt lat="40.88656" lon="14.2433683"><ele>140.0</ele><time>2026-04-09T15:54:51.684Z</time></trkpt><trkpt lat="40.8866" lon="14.24348"><ele>139.5</ele><time>2026-04-09T15:54:52.684Z</time></trkpt><trkpt lat="40.886635" lon="14.2435783"><ele>139.0</ele><time>2026-04-09T15:54:53.685Z</time></trkpt><trkpt lat="40.8866683" lon="14.2436617"><ele>138.5</ele><time>2026-04-09T15:54:54.685Z</time></trkpt><trkpt lat="40.8867017" lon="14.243735"><ele>138.0</ele><time>2026-04-09T15:54:55.685Z</time></trkpt><trkpt lat="40.8867317" lon="14.2438133"><ele>138.0</ele><time>2026-04-09T15:54:56.684Z</time></trkpt><trkpt lat="40.8867833" lon="14.24393"><ele>138.0</ele><time>2026-04-09T15:54:58.685Z</time></trkpt><trkpt lat="40.88681" lon="14.2440383"><ele>138.0</ele><time>2026-04-09T15:55:00.685Z</time></trkpt><trkpt lat="40.8868383" lon="14.244115"><ele>138.0</ele><time>2026-04-09T15:55:02.684Z</time></trkpt><trkpt lat="40.8868567" lon="14.2441983"><ele>138.0</ele><time>2026-04-09T15:55:04.684Z</time></trkpt><trkpt lat="40.88687" lon="14.2442883"><ele>138.0</ele><time>2026-04-09T15:55:06.685Z</time></trkpt><trkpt lat="40.8868917" lon="14.2443983"><ele>137.6</ele><time>2026-04-09T15:55:08.686Z</time></trkpt><trkpt lat="40.88693" lon="14.2445133"><ele>137.20000000000002</ele><time>2026-04-09T15:55:10.685Z</time></trkpt><trkpt lat="40.8869867" lon="14.2446433"><ele>136.8</ele><time>2026-04-09T15:55:12.686Z</time></trkpt><trkpt lat="40.88704" lon="14.244775"><ele>136.4</ele><time>2026-04-09T15:55:14.685Z</time></trkpt><trkpt lat="40.887075" lon="14.2449183"><ele>136.0</ele><time>2026-04-09T15:55:16.685Z</time></trkpt><trkpt lat="40.8871067" lon="14.245065"><ele>135.6</ele><time>2026-04-09T15:55:18.685Z</time></trkpt><trkpt lat="40.887135" lon="14.2452"><ele>135.2</ele><time>2026-04-09T15:55:20.684Z</time></trkpt><trkpt lat="40.8871617" lon="14.245335"><ele>134.8</ele><time>2026-04-09T15:55:22.686Z</time></trkpt><trkpt lat="40.887195" lon="14.245435"><ele>134.4</ele><time>2026-04-09T15:55:24.685Z</time></trkpt><trkpt lat="40.887245" lon="14.2455433"><ele>134.0</ele><time>2026-04-09T15:55:26.684Z</time></trkpt><trkpt lat="40.8873017" lon="14.245665"><ele>133.6</ele><time>2026-04-09T15:55:28.686Z</time></trkpt><trkpt lat="40.8873483" lon="14.2457967"><ele>133.2</ele><time>2026-04-09T15:55:30.685Z</time></trkpt><trkpt lat="40.8874117" lon="14.245935"><ele>132.79999999999998</ele><time>2026-04-09T15:55:32.685Z</time></trkpt><trkpt lat="40.8874717" lon="14.2460867"><ele>132.4</ele><time>2026-04-09T15:55:34.685Z</time></trkpt><trkpt lat="40.8874967" lon="14.2461667"><ele>132.0</ele><time>2026-04-09T15:55:35.685Z</time></trkpt><trkpt lat="40.8875183" lon="14.2462517"><ele>132.0</ele><time>2026-04-09T15:55:36.685Z</time></trkpt><trkpt lat="40.8875367" lon="14.2463417"><ele>132.0</ele><time>2026-04-09T15:55:37.685Z</time></trkpt><trkpt lat="40.8875683" lon="14.2464167"><ele>132.0</ele><time>2026-04-09T15:55:38.684Z</time></trkpt><trkpt lat="40.887595" lon="14.2465467"><ele>132.0</ele><time>2026-04-09T15:55:40.684Z</time></trkpt><trkpt lat="40.88763" lon="14.2466467"><ele>132.0</ele><time>2026-04-09T15:55:42.684Z</time></trkpt><trkpt lat="40.8876433" lon="14.2467483"><ele>132.0</ele><time>2026-04-09T15:55:45.686Z</time></trkpt><trkpt lat="40.8876567" lon="14.2468767"><ele>131.83333333333334</ele><time>2026-04-09T15:55:48.685Z</time></trkpt><trkpt lat="40.8876867" lon="14.246995"><ele>131.66666666666666</ele><time>2026-04-09T15:55:50.684Z</time></trkpt><trkpt lat="40.8877317" lon="14.2471117"><ele>131.5</ele><time>2026-04-09T15:55:52.684Z</time></trkpt><trkpt lat="40.8877667" lon="14.247205"><ele>131.33333333333331</ele><time>2026-04-09T15:55:54.685Z</time></trkpt><trkpt lat="40.8878017" lon="14.247305"><ele>131.16666666666666</ele><time>2026-04-09T15:56:01.686Z</time></trkpt><trkpt lat="40.88784" lon="14.2473917"><ele>131.0</ele><time>2026-04-09T15:56:03.684Z</time></trkpt><trkpt lat="40.8878817" lon="14.2474933"><ele>130.4</ele><time>2026-04-09T15:56:05.685Z</time></trkpt><trkpt lat="40.887925" lon="14.2476"><ele>129.8</ele><time>2026-04-09T15:56:07.685Z</time></trkpt><trkpt lat="40.8879633" lon="14.2477167"><ele>129.20000000000002</ele><time>2026-04-09T15:56:09.685Z</time></trkpt><trkpt lat="40.8879767" lon="14.2478433"><ele>128.6</ele><time>2026-04-09T15:56:11.686Z</time></trkpt><trkpt lat="40.8880067" lon="14.2479917"><ele>128.0</ele><time>2026-04-09T15:56:13.685Z</time></trkpt><trkpt lat="40.8880517" lon="14.24815"><ele>127.33333333333333</ele><time>2026-04-09T15:56:15.685Z</time></trkpt><trkpt lat="40.888105" lon="14.2483067"><ele>126.66666666666666</ele><time>2026-04-09T15:56:17.685Z</time></trkpt><trkpt lat="40.8881433" lon="14.2483867"><ele>126.0</ele><time>2026-04-09T15:56:18.686Z</time></trkpt><trkpt lat="40.8881733" lon="14.2484683"><ele>125.33333333333334</ele><time>2026-04-09T15:56:19.685Z</time></trkpt><trkpt lat="40.8882017" lon="14.2485533"><ele>124.66666666666667</ele><time>2026-04-09T15:56:20.685Z</time></trkpt><trkpt lat="40.8882333" lon="14.2486383"><ele>124.0</ele><time>2026-04-09T15:56:21.689Z</time></trkpt><trkpt lat="40.8882717" lon="14.2487233"><ele>124.0</ele><time>2026-04-09T15:56:22.686Z</time></trkpt><trkpt lat="40.888305" lon="14.2488083"><ele>124.00000000000001</ele><time>2026-04-09T15:56:23.688Z</time></trkpt><trkpt lat="40.8883367" lon="14.2488967"><ele>124.0</ele><time>2026-04-09T15:56:24.684Z</time></trkpt><trkpt lat="40.8883633" lon="14.2489833"><ele>124.0</ele><time>2026-04-09T15:56:25.685Z</time></trkpt><trkpt lat="40.8883967" lon="14.2490717"><ele>124.00000000000001</ele><time>2026-04-09T15:56:26.687Z</time></trkpt><trkpt lat="40.88843" lon="14.2491617"><ele>124.0</ele><time>2026-04-09T15:56:27.686Z</time></trkpt><trkpt lat="40.8884617" lon="14.2492517"><ele>124.0</ele><time>2026-04-09T15:56:28.684Z</time></trkpt><trkpt lat="40.8884933" lon="14.2493433"><ele>123.85714285714286</ele><time>2026-04-09T15:56:29.687Z</time></trkpt><trkpt lat="40.88852" lon="14.24944"><ele>123.71428571428572</ele><time>2026-04-09T15:56:30.686Z</time></trkpt><trkpt lat="40.8885517" lon="14.2495317"><ele>123.57142857142858</ele><time>2026-04-09T15:56:31.687Z</time></trkpt><trkpt lat="40.88858" lon="14.249615"><ele>123.42857142857144</ele><time>2026-04-09T15:56:32.686Z</time></trkpt><trkpt lat="40.8886083" lon="14.249695"><ele>123.28571428571429</ele><time>2026-04-09T15:56:33.686Z</time></trkpt><trkpt lat="40.88864" lon="14.2497733"><ele>123.14285714285717</ele><time>2026-04-09T15:56:34.686Z</time></trkpt><trkpt lat="40.888665" lon="14.2498517"><ele>123.00000000000001</ele><time>2026-04-09T15:56:35.688Z</time></trkpt><trkpt lat="40.8886883" lon="14.249935"><ele>122.57142857142858</ele><time>2026-04-09T15:56:36.686Z</time></trkpt><trkpt lat="40.88871" lon="14.25002"><ele>122.14285714285714</ele><time>2026-04-09T15:56:37.687Z</time></trkpt><trkpt lat="40.88873" lon="14.2501033"><ele>121.71428571428572</ele><time>2026-04-09T15:56:38.687Z</time></trkpt><trkpt lat="40.8887583" lon="14.2502183"><ele>121.28571428571429</ele><time>2026-04-09T15:56:40.685Z</time></trkpt><trkpt lat="40.8887767" lon="14.2503167"><ele>120.85714285714286</ele><time>2026-04-09T15:56:43.685Z</time></trkpt><trkpt lat="40.88882" lon="14.250385"><ele>120.42857142857143</ele><time>2026-04-09T15:56:45.684Z</time></trkpt><trkpt lat="40.888865" lon="14.2504717"><ele>120.0</ele><time>2026-04-09T15:56:47.685Z</time></trkpt><trkpt lat="40.88888" lon="14.2505867"><ele>120.0</ele><time>2026-04-09T15:56:49.685Z</time></trkpt><trkpt lat="40.8888383" lon="14.25069"><ele>120.0</ele><time>2026-04-09T15:56:51.684Z</time></trkpt><trkpt lat="40.88875" lon="14.2507467"><ele>120.0</ele><time>2026-04-09T15:56:53.685Z</time></trkpt><trkpt lat="40.8886567" lon="14.2507883"><ele>120.0</ele><time>2026-04-09T15:56:55.685Z</time></trkpt><trkpt lat="40.8885767" lon="14.250885"><ele>120.0</ele><time>2026-04-09T15:56:57.685Z</time></trkpt><trkpt lat="40.8885133" lon="14.25103"><ele>120.0</ele><time>2026-04-09T15:56:59.685Z</time></trkpt><trkpt lat="40.8884817" lon="14.2511383"><ele>120.0</ele><time>2026-04-09T15:57:00.685Z</time></trkpt><trkpt lat="40.888445" lon="14.2512433"><ele>120.0</ele><time>2026-04-09T15:57:01.685Z</time></trkpt><trkpt lat="40.888405" lon="14.2513633"><ele>120.0</ele><time>2026-04-09T15:57:02.685Z</time></trkpt><trkpt lat="40.8883667" lon="14.251475"><ele>120.0</ele><time>2026-04-09T15:57:03.686Z</time></trkpt><trkpt lat="40.8883283" lon="14.2515883"><ele>120.6</ele><time>2026-04-09T15:57:04.685Z</time></trkpt><trkpt lat="40.8882883" lon="14.2516983"><ele>121.2</ele><time>2026-04-09T15:57:05.685Z</time></trkpt><trkpt lat="40.888255" lon="14.251795"><ele>121.80000000000001</ele><time>2026-04-09T15:57:06.685Z</time></trkpt><trkpt lat="40.8882167" lon="14.2518783"><ele>122.4</ele><time>2026-04-09T15:57:07.69Z</time></trkpt><trkpt lat="40.8881817" lon="14.2520183"><ele>123.0</ele><time>2026-04-09T15:57:09.684Z</time></trkpt><trkpt lat="40.8881317" lon="14.2521533"><ele>123.0</ele><time>2026-04-09T15:57:11.685Z</time></trkpt><trkpt lat="40.8881017" lon="14.2522317"><ele>123.0</ele><time>2026-04-09T15:57:12.686Z</time></trkpt><trkpt lat="40.8880717" lon="14.2523267"><ele>123.0</ele><time>2026-04-09T15:57:13.686Z</time></trkpt><trkpt lat="40.8880367" lon="14.2524233"><ele>123.0</ele><time>2026-04-09T15:57:14.684Z</time></trkpt><trkpt lat="40.887995" lon="14.252525"><ele>123.0</ele><time>2026-04-09T15:57:15.683Z</time></trkpt><trkpt lat="40.8879567" lon="14.2526267"><ele>123.0</ele><time>2026-04-09T15:57:16.684Z</time></trkpt><trkpt lat="40.887915" lon="14.2527383"><ele>122.80000000000001</ele><time>2026-04-09T15:57:17.684Z</time></trkpt><trkpt lat="40.8878667" lon="14.2528467"><ele>122.60000000000001</ele><time>2026-04-09T15:57:18.684Z</time></trkpt><trkpt lat="40.8878383" lon="14.2529567"><ele>122.39999999999999</ele><time>2026-04-09T15:57:19.683Z</time></trkpt><trkpt lat="40.8878217" lon="14.25308"><ele>122.19999999999999</ele><time>2026-04-09T15:57:20.684Z</time></trkpt><trkpt lat="40.88781" lon="14.2532017"><ele>122.0</ele><time>2026-04-09T15:57:21.683Z</time></trkpt><trkpt lat="40.8878117" lon="14.25333"><ele>121.16666666666666</ele><time>2026-04-09T15:57:22.683Z</time></trkpt><trkpt lat="40.88781" lon="14.2534483"><ele>120.33333333333333</ele><time>2026-04-09T15:57:23.684Z</time></trkpt><trkpt lat="40.8878133" lon="14.253565"><ele>119.5</ele><time>2026-04-09T15:57:24.684Z</time></trkpt><trkpt lat="40.8878117" lon="14.25368"><ele>118.66666666666666</ele><time>2026-04-09T15:57:25.684Z</time></trkpt><trkpt lat="40.88781" lon="14.2537983"><ele>117.83333333333333</ele><time>2026-04-09T15:57:26.684Z</time></trkpt><trkpt lat="40.887815" lon="14.2539017"><ele>117.0</ele><time>2026-04-09T15:57:27.683Z</time></trkpt><trkpt lat="40.8878167" lon="14.2540083"><ele>116.66666666666667</ele><time>2026-04-09T15:57:28.684Z</time></trkpt><trkpt lat="40.8878167" lon="14.2541183"><ele>116.33333333333334</ele><time>2026-04-09T15:57:29.684Z</time></trkpt><trkpt lat="40.8878167" lon="14.254235"><ele>116.0</ele><time>2026-04-09T15:57:30.689Z</time></trkpt><trkpt lat="40.8878117" lon="14.2543483"><ele>115.66666666666667</ele><time>2026-04-09T15:57:31.684Z</time></trkpt><trkpt lat="40.8878117" lon="14.254465"><ele>115.33333333333334</ele><time>2026-04-09T15:57:32.684Z</time></trkpt><trkpt lat="40.887815" lon="14.25458"><ele>115.0</ele><time>2026-04-09T15:57:33.684Z</time></trkpt><trkpt lat="40.8878083" lon="14.2547067"><ele>115.14285714285712</ele><time>2026-04-09T15:57:34.684Z</time></trkpt><trkpt lat="40.8878167" lon="14.2548117"><ele>115.28571428571428</ele><time>2026-04-09T15:57:35.688Z</time></trkpt><trkpt lat="40.8878117" lon="14.2549183"><ele>115.42857142857143</ele><time>2026-04-09T15:57:36.687Z</time></trkpt><trkpt lat="40.8878033" lon="14.255015"><ele>115.57142857142857</ele><time>2026-04-09T15:57:37.686Z</time></trkpt><trkpt lat="40.887795" lon="14.2551033"><ele>115.71428571428572</ele><time>2026-04-09T15:57:38.687Z</time></trkpt><trkpt lat="40.8877833" lon="14.2551867"><ele>115.85714285714288</ele><time>2026-04-09T15:57:39.685Z</time></trkpt><trkpt lat="40.8877333" lon="14.2552667"><ele>116.00000000000001</ele><time>2026-04-09T15:57:41.684Z</time></trkpt><trkpt lat="40.887625" lon="14.255205"><ele>115.99999999999999</ele><time>2026-04-09T15:57:43.684Z</time></trkpt><trkpt lat="40.8875567" lon="14.2551417"><ele>116.0</ele><time>2026-04-09T15:57:44.684Z</time></trkpt><trkpt lat="40.88748" lon="14.2550733"><ele>116.0</ele><time>2026-04-09T15:57:45.684Z</time></trkpt><trkpt lat="40.8874017" lon="14.2550133"><ele>116.0</ele><time>2026-04-09T15:57:46.684Z</time></trkpt><trkpt lat="40.8873367" lon="14.25497"><ele>115.99999999999999</ele><time>2026-04-09T15:57:47.684Z</time></trkpt><trkpt lat="40.8872733" lon="14.2549217"><ele>116.0</ele><time>2026-04-09T15:57:48.684Z</time></trkpt><trkpt lat="40.88721" lon="14.2548667"><ele>116.00000000000001</ele><time>2026-04-09T15:57:49.684Z</time></trkpt><trkpt lat="40.88715" lon="14.2548167"><ele>116.0</ele><time>2026-04-09T15:57:50.684Z</time></trkpt><trkpt lat="40.887085" lon="14.2547733"><ele>116.00000000000001</ele><time>2026-04-09T15:57:51.684Z</time></trkpt><trkpt lat="40.8870233" lon="14.2547317"><ele>116.00000000000001</ele><time>2026-04-09T15:57:52.684Z</time></trkpt><trkpt lat="40.88696" lon="14.25469"><ele>116.0</ele><time>2026-04-09T15:57:53.684Z</time></trkpt><trkpt lat="40.8868917" lon="14.2546467"><ele>116.00000000000001</ele><time>2026-04-09T15:57:54.684Z</time></trkpt><trkpt lat="40.8868283" lon="14.2546017"><ele>116.00000000000001</ele><time>2026-04-09T15:57:55.684Z</time></trkpt><trkpt lat="40.886765" lon="14.25456"><ele>116.14285714285717</ele><time>2026-04-09T15:57:56.684Z</time></trkpt><trkpt lat="40.8867" lon="14.2545183"><ele>116.28571428571429</ele><time>2026-04-09T15:57:57.684Z</time></trkpt><trkpt lat="40.886635" lon="14.2544783"><ele>116.42857142857144</ele><time>2026-04-09T15:57:58.684Z</time></trkpt><trkpt lat="40.886565" lon="14.2544383"><ele>116.57142857142858</ele><time>2026-04-09T15:57:59.684Z</time></trkpt><trkpt lat="40.8864967" lon="14.2544033"><ele>116.71428571428572</ele><time>2026-04-09T15:58:00.684Z</time></trkpt><trkpt lat="40.8864333" lon="14.2543683"><ele>116.85714285714286</ele><time>2026-04-09T15:58:01.686Z</time></trkpt><trkpt lat="40.8863667" lon="14.25433"><ele>117.0</ele><time>2026-04-09T15:58:02.684Z</time></trkpt><trkpt lat="40.8862967" lon="14.2542983"><ele>117.0</ele><time>2026-04-09T15:58:03.683Z</time></trkpt><trkpt lat="40.8862267" lon="14.254275"><ele>117.0</ele><time>2026-04-09T15:58:04.684Z</time></trkpt><trkpt lat="40.88616" lon="14.2542617"><ele>117.0</ele><time>2026-04-09T15:58:05.684Z</time></trkpt><trkpt lat="40.8860967" lon="14.2542667"><ele>117.0</ele><time>2026-04-09T15:58:06.684Z</time></trkpt><trkpt lat="40.8859917" lon="14.2542767"><ele>117.0</ele><time>2026-04-09T15:58:08.684Z</time></trkpt><trkpt lat="40.8858983" lon="14.25424"><ele>117.0</ele><time>2026-04-09T15:58:10.685Z</time></trkpt><trkpt lat="40.8858133" lon="14.2542067"><ele>117.42857142857143</ele><time>2026-04-09T15:58:12.685Z</time></trkpt><trkpt lat="40.8857367" lon="14.2541733"><ele>117.85714285714286</ele><time>2026-04-09T15:58:14.684Z</time></trkpt><trkpt lat="40.8856667" lon="14.254145"><ele>118.28571428571429</ele><time>2026-04-09T15:58:16.685Z</time></trkpt><trkpt lat="40.8856" lon="14.2541167"><ele>118.71428571428572</ele><time>2026-04-09T15:58:18.685Z</time></trkpt><trkpt lat="40.8855367" lon="14.25408"><ele>119.14285714285714</ele><time>2026-04-09T15:58:20.684Z</time></trkpt><trkpt lat="40.8854783" lon="14.2540483"><ele>119.57142857142858</ele><time>2026-04-09T15:58:22.683Z</time></trkpt><trkpt lat="40.8854217" lon="14.2540117"><ele>120.0</ele><time>2026-04-09T15:58:24.684Z</time></trkpt><trkpt lat="40.8853333" lon="14.2539517"><ele>120.0</ele><time>2026-04-09T15:58:27.684Z</time></trkpt><trkpt lat="40.8852783" lon="14.2538983"><ele>120.0</ele><time>2026-04-09T15:58:29.686Z</time></trkpt><trkpt lat="40.885225" lon="14.2538333"><ele>120.0</ele><time>2026-04-09T15:58:31.684Z</time></trkpt><trkpt lat="40.8851667" lon="14.2537683"><ele>120.0</ele><time>2026-04-09T15:58:33.683Z</time></trkpt><trkpt lat="40.8850983" lon="14.2536983"><ele>120.0</ele><time>2026-04-09T15:58:35.684Z</time></trkpt><trkpt lat="40.885025" lon="14.2536367"><ele>120.0</ele><time>2026-04-09T15:58:37.684Z</time></trkpt><trkpt lat="40.8849517" lon="14.2535717"><ele>120.0</ele><time>2026-04-09T15:58:39.683Z</time></trkpt><trkpt lat="40.8848683" lon="14.2534983"><ele>120.0</ele><time>2026-04-09T15:58:41.685Z</time></trkpt><trkpt lat="40.8847783" lon="14.253455"><ele>120.0</ele><time>2026-04-09T15:58:43.686Z</time></trkpt><trkpt lat="40.8846833" lon="14.2534267"><ele>120.0</ele><time>2026-04-09T15:58:45.685Z</time></trkpt><trkpt lat="40.8845883" lon="14.25341"><ele>120.0</ele><time>2026-04-09T15:58:47.685Z</time></trkpt><trkpt lat="40.884505" lon="14.253405"><ele>120.0</ele><time>2026-04-09T15:58:49.687Z</time></trkpt><trkpt lat="40.88442" lon="14.25342"><ele>120.0</ele><time>2026-04-09T15:58:51.685Z</time></trkpt><trkpt lat="40.8843383" lon="14.2534583"><ele>120.0</ele><time>2026-04-09T15:58:53.686Z</time></trkpt><trkpt lat="40.8842617" lon="14.253535"><ele>120.0</ele><time>2026-04-09T15:58:55.687Z</time></trkpt><trkpt lat="40.88421" lon="14.2536717"><ele>120.0</ele><time>2026-04-09T15:58:57.687Z</time></trkpt><trkpt lat="40.8841967" lon="14.2537583"><ele>119.71428571428572</ele><time>2026-04-09T15:58:58.687Z</time></trkpt><trkpt lat="40.8841883" lon="14.2538417"><ele>119.42857142857142</ele><time>2026-04-09T15:58:59.686Z</time></trkpt><trkpt lat="40.8841917" lon="14.2539433"><ele>119.14285714285714</ele><time>2026-04-09T15:59:00.686Z</time></trkpt><trkpt lat="40.884205" lon="14.25405"><ele>118.85714285714286</ele><time>2026-04-09T15:59:01.686Z</time></trkpt><trkpt lat="40.8842133" lon="14.2541583"><ele>118.57142857142858</ele><time>2026-04-09T15:59:02.686Z</time></trkpt><trkpt lat="40.8842" lon="14.2542433"><ele>118.28571428571428</ele><time>2026-04-09T15:59:03.687Z</time></trkpt><trkpt lat="40.884175" lon="14.2543333"><ele>118.0</ele><time>2026-04-09T15:59:04.685Z</time></trkpt><trkpt lat="40.8841433" lon="14.2544383"><ele>117.60000000000001</ele><time>2026-04-09T15:59:05.685Z</time></trkpt><trkpt lat="40.884115" lon="14.2545567"><ele>117.20000000000002</ele><time>2026-04-09T15:59:06.685Z</time></trkpt><trkpt lat="40.8840867" lon="14.2546717"><ele>116.8</ele><time>2026-04-09T15:59:07.685Z</time></trkpt><trkpt lat="40.8840883" lon="14.2547967"><ele>116.4</ele><time>2026-04-09T15:59:08.684Z</time></trkpt><trkpt lat="40.8840967" lon="14.2549167"><ele>116.0</ele><time>2026-04-09T15:59:09.684Z</time></trkpt><trkpt lat="40.8841317" lon="14.2550567"><ele>116.0</ele><time>2026-04-09T15:59:10.684Z</time></trkpt><trkpt lat="40.8841783" lon="14.2551867"><ele>116.0</ele><time>2026-04-09T15:59:11.685Z</time></trkpt><trkpt lat="40.8842733" lon="14.255325"><ele>116.0</ele><time>2026-04-09T15:59:12.684Z</time></trkpt><trkpt lat="40.88435" lon="14.2554317"><ele>116.0</ele><time>2026-04-09T15:59:13.684Z</time></trkpt><trkpt lat="40.8844217" lon="14.25553"><ele>116.19999999999999</ele><time>2026-04-09T15:59:14.684Z</time></trkpt><trkpt lat="40.8844917" lon="14.2556283"><ele>116.39999999999999</ele><time>2026-04-09T15:59:15.684Z</time></trkpt><trkpt lat="40.88456" lon="14.2557283"><ele>116.6</ele><time>2026-04-09T15:59:16.684Z</time></trkpt><trkpt lat="40.884615" lon="14.2558417"><ele>116.8</ele><time>2026-04-09T15:59:17.684Z</time></trkpt><trkpt lat="40.8846633" lon="14.255965"><ele>117.0</ele><time>2026-04-09T15:59:18.684Z</time></trkpt><trkpt lat="40.8847117" lon="14.2560883"><ele>117.0</ele><time>2026-04-09T15:59:19.685Z</time></trkpt><trkpt lat="40.8847583" lon="14.2562083"><ele>116.99999999999999</ele><time>2026-04-09T15:59:20.685Z</time></trkpt><trkpt lat="40.8848117" lon="14.2563167"><ele>116.99999999999999</ele><time>2026-04-09T15:59:21.684Z</time></trkpt><trkpt lat="40.884875" lon="14.2564167"><ele>117.0</ele><time>2026-04-09T15:59:22.685Z</time></trkpt><trkpt lat="40.8849417" lon="14.25651"><ele>117.0</ele><time>2026-04-09T15:59:23.685Z</time></trkpt><trkpt lat="40.88501" lon="14.256595"><ele>116.8</ele><time>2026-04-09T15:59:24.684Z</time></trkpt><trkpt lat="40.885085" lon="14.256675"><ele>116.6</ele><time>2026-04-09T15:59:25.685Z</time></trkpt><trkpt lat="40.8851667" lon="14.2567467"><ele>116.39999999999999</ele><time>2026-04-09T15:59:26.684Z</time></trkpt><trkpt lat="40.88525" lon="14.2568183"><ele>116.19999999999999</ele><time>2026-04-09T15:59:27.684Z</time></trkpt><trkpt lat="40.8853333" lon="14.2568933"><ele>116.0</ele><time>2026-04-09T15:59:28.684Z</time></trkpt><trkpt lat="40.88542" lon="14.2569667"><ele>115.8</ele><time>2026-04-09T15:59:29.686Z</time></trkpt><trkpt lat="40.8855083" lon="14.25703"><ele>115.6</ele><time>2026-04-09T15:59:30.685Z</time></trkpt><trkpt lat="40.8855967" lon="14.2571017"><ele>115.4</ele><time>2026-04-09T15:59:31.686Z</time></trkpt><trkpt lat="40.885685" lon="14.25718"><ele>115.2</ele><time>2026-04-09T15:59:32.685Z</time></trkpt><trkpt lat="40.8857717" lon="14.257255"><ele>115.0</ele><time>2026-04-09T15:59:33.684Z</time></trkpt><trkpt lat="40.88586" lon="14.2573117"><ele>115.2</ele><time>2026-04-09T15:59:34.685Z</time></trkpt><trkpt lat="40.8859417" lon="14.25738"><ele>115.4</ele><time>2026-04-09T15:59:35.689Z</time></trkpt><trkpt lat="40.8860217" lon="14.2574467"><ele>115.6</ele><time>2026-04-09T15:59:36.692Z</time></trkpt><trkpt lat="40.886105" lon="14.2575083"><ele>115.8</ele><time>2026-04-09T15:59:37.684Z</time></trkpt><trkpt lat="40.8861867" lon="14.25757"><ele>116.0</ele><time>2026-04-09T15:59:38.685Z</time></trkpt><trkpt lat="40.8862683" lon="14.2576317"><ele>115.99999999999999</ele><time>2026-04-09T15:59:39.684Z</time></trkpt><trkpt lat="40.88634" lon="14.257695"><ele>116.0</ele><time>2026-04-09T15:59:40.684Z</time></trkpt><trkpt lat="40.8864" lon="14.2577667"><ele>116.0</ele><time>2026-04-09T15:59:41.685Z</time></trkpt><trkpt lat="40.886445" lon="14.2578483"><ele>116.0</ele><time>2026-04-09T15:59:42.685Z</time></trkpt><trkpt lat="40.88648" lon="14.257935"><ele>115.99999999999999</ele><time>2026-04-09T15:59:43.684Z</time></trkpt><trkpt lat="40.88649" lon="14.258035"><ele>116.0</ele><time>2026-04-09T15:59:44.686Z</time></trkpt><trkpt lat="40.8865033" lon="14.2581417"><ele>115.66666666666666</ele><time>2026-04-09T15:59:45.684Z</time></trkpt><trkpt lat="40.88649" lon="14.2582417"><ele>115.33333333333333</ele><time>2026-04-09T15:59:46.685Z</time></trkpt><trkpt lat="40.8864383" lon="14.2583333"><ele>115.0</ele><time>2026-04-09T15:59:47.684Z</time></trkpt><trkpt lat="40.886395" lon="14.2584267"><ele>114.66666666666666</ele><time>2026-04-09T15:59:48.684Z</time></trkpt><trkpt lat="40.8863467" lon="14.2585317"><ele>114.33333333333333</ele><time>2026-04-09T15:59:49.684Z</time></trkpt><trkpt lat="40.8863183" lon="14.2586283"><ele>114.0</ele><time>2026-04-09T15:59:50.684Z</time></trkpt><trkpt lat="40.8862783" lon="14.258735"><ele>114.0</ele><time>2026-04-09T15:59:51.684Z</time></trkpt><trkpt lat="40.886235" lon="14.258845"><ele>114.0</ele><time>2026-04-09T15:59:52.687Z</time></trkpt><trkpt lat="40.8861967" lon="14.258955"><ele>114.0</ele><time>2026-04-09T15:59:53.684Z</time></trkpt><trkpt lat="40.8861517" lon="14.2590633"><ele>114.0</ele><time>2026-04-09T15:59:54.684Z</time></trkpt><trkpt lat="40.8861067" lon="14.259165"><ele>114.0</ele><time>2026-04-09T15:59:55.685Z</time></trkpt><trkpt lat="40.8860633" lon="14.259265"><ele>113.83333333333333</ele><time>2026-04-09T15:59:56.684Z</time></trkpt><trkpt lat="40.8860267" lon="14.2593683"><ele>113.66666666666666</ele><time>2026-04-09T15:59:57.684Z</time></trkpt><trkpt lat="40.8859917" lon="14.2594683"><ele>113.5</ele><time>2026-04-09T15:59:58.685Z</time></trkpt><trkpt lat="40.8859483" lon="14.2595667"><ele>113.33333333333333</ele><time>2026-04-09T15:59:59.685Z</time></trkpt><trkpt lat="40.8859083" lon="14.2596617"><ele>113.16666666666666</ele><time>2026-04-09T16:00:00.684Z</time></trkpt><trkpt lat="40.8858717" lon="14.2597567"><ele>113.0</ele><time>2026-04-09T16:00:01.684Z</time></trkpt><trkpt lat="40.88585" lon="14.2598617"><ele>112.49999999999999</ele><time>2026-04-09T16:00:02.684Z</time></trkpt><trkpt lat="40.8858267" lon="14.259965"><ele>112.0</ele><time>2026-04-09T16:00:03.684Z</time></trkpt><trkpt lat="40.8857967" lon="14.2600667"><ele>111.5</ele><time>2026-04-09T16:00:04.684Z</time></trkpt><trkpt lat="40.8857717" lon="14.2601683"><ele>111.0</ele><time>2026-04-09T16:00:05.684Z</time></trkpt><trkpt lat="40.88574" lon="14.2602617"><ele>110.49999999999999</ele><time>2026-04-09T16:00:06.684Z</time></trkpt><trkpt lat="40.885705" lon="14.2603517"><ele>110.0</ele><time>2026-04-09T16:00:07.685Z</time></trkpt><trkpt lat="40.88566" lon="14.2604417"><ele>109.99999999999999</ele><time>2026-04-09T16:00:08.685Z</time></trkpt><trkpt lat="40.8856117" lon="14.2605333"><ele>110.0</ele><time>2026-04-09T16:00:09.684Z</time></trkpt><trkpt lat="40.885565" lon="14.2606283"><ele>110.0</ele><time>2026-04-09T16:00:10.684Z</time></trkpt><trkpt lat="40.8855217" lon="14.2607183"><ele>110.0</ele><time>2026-04-09T16:00:11.684Z</time></trkpt><trkpt lat="40.88549" lon="14.260815"><ele>109.99999999999999</ele><time>2026-04-09T16:00:12.685Z</time></trkpt><trkpt lat="40.8854567" lon="14.26092"><ele>110.0</ele><time>2026-04-09T16:00:13.684Z</time></trkpt><trkpt lat="40.8854283" lon="14.2610267"><ele>109.83333333333333</ele><time>2026-04-09T16:00:14.684Z</time></trkpt><trkpt lat="40.8854017" lon="14.2611267"><ele>109.66666666666666</ele><time>2026-04-09T16:00:15.687Z</time></trkpt><trkpt lat="40.8853833" lon="14.261225"><ele>109.5</ele><time>2026-04-09T16:00:16.684Z</time></trkpt><trkpt lat="40.8853683" lon="14.2613317"><ele>109.33333333333334</ele><time>2026-04-09T16:00:17.685Z</time></trkpt><trkpt lat="40.8853567" lon="14.26144"><ele>109.16666666666667</ele><time>2026-04-09T16:00:18.684Z</time></trkpt><trkpt lat="40.8853583" lon="14.2615483"><ele>109.0</ele><time>2026-04-09T16:00:19.685Z</time></trkpt><trkpt lat="40.8853683" lon="14.2616667"><ele>108.80000000000001</ele><time>2026-04-09T16:00:20.684Z</time></trkpt><trkpt lat="40.885385" lon="14.2617817"><ele>108.60000000000001</ele><time>2026-04-09T16:00:21.685Z</time></trkpt><trkpt lat="40.8854233" lon="14.2618983"><ele>108.4</ele><time>2026-04-09T16:00:22.685Z</time></trkpt><trkpt lat="40.8854617" lon="14.2620033"><ele>108.2</ele><time>2026-04-09T16:00:23.684Z</time></trkpt><trkpt lat="40.8855" lon="14.2621083"><ele>108.0</ele><time>2026-04-09T16:00:24.684Z</time></trkpt><trkpt lat="40.8855317" lon="14.2622233"><ele>107.66666666666667</ele><time>2026-04-09T16:00:25.685Z</time></trkpt><trkpt lat="40.885565" lon="14.2623333"><ele>107.33333333333334</ele><time>2026-04-09T16:00:26.684Z</time></trkpt><trkpt lat="40.8856033" lon="14.26244"><ele>107.0</ele><time>2026-04-09T16:00:27.684Z</time></trkpt><trkpt lat="40.885645" lon="14.2625433"><ele>106.66666666666667</ele><time>2026-04-09T16:00:28.685Z</time></trkpt><trkpt lat="40.8856967" lon="14.2626367"><ele>106.33333333333334</ele><time>2026-04-09T16:00:29.686Z</time></trkpt><trkpt lat="40.8857583" lon="14.2627167"><ele>106.0</ele><time>2026-04-09T16:00:30.685Z</time></trkpt><trkpt lat="40.88583" lon="14.2627767"><ele>106.00000000000001</ele><time>2026-04-09T16:00:31.685Z</time></trkpt><trkpt lat="40.8859067" lon="14.2628167"><ele>106.0</ele><time>2026-04-09T16:00:32.684Z</time></trkpt><trkpt lat="40.88598" lon="14.26285"><ele>106.0</ele><time>2026-04-09T16:00:33.684Z</time></trkpt><trkpt lat="40.88604" lon="14.2628833"><ele>106.0</ele><time>2026-04-09T16:00:34.687Z</time></trkpt><trkpt lat="40.88613" lon="14.2629383"><ele>106.00000000000001</ele><time>2026-04-09T16:00:36.684Z</time></trkpt><trkpt lat="40.8861983" lon="14.2629783"><ele>106.0</ele><time>2026-04-09T16:00:39.686Z</time></trkpt><trkpt lat="40.88627" lon="14.26307"><ele>106.0</ele><time>2026-04-09T16:00:46.684Z</time></trkpt><trkpt lat="40.88629" lon="14.2631517"><ele>106.0</ele><time>2026-04-09T16:00:48.685Z</time></trkpt><trkpt lat="40.8862083" lon="14.26329"><ele>106.0</ele><time>2026-04-09T16:00:50.686Z</time></trkpt><trkpt lat="40.8861233" lon="14.2634117"><ele>106.0</ele><time>2026-04-09T16:00:51.686Z</time></trkpt><trkpt lat="40.886045" lon="14.2635467"><ele>106.0</ele><time>2026-04-09T16:00:52.684Z</time></trkpt><trkpt lat="40.8859617" lon="14.2636867"><ele>106.0</ele><time>2026-04-09T16:00:53.685Z</time></trkpt><trkpt lat="40.8858233" lon="14.263885"><ele>106.0</ele><time>2026-04-09T16:00:54.684Z</time></trkpt><trkpt lat="40.88574" lon="14.264"><ele>105.4</ele><time>2026-04-09T16:00:55.685Z</time></trkpt><trkpt lat="40.88567" lon="14.2640983"><ele>104.8</ele><time>2026-04-09T16:00:56.684Z</time></trkpt><trkpt lat="40.8856067" lon="14.2642033"><ele>104.2</ele><time>2026-04-09T16:00:57.686Z</time></trkpt><trkpt lat="40.8855517" lon="14.264305"><ele>103.60000000000001</ele><time>2026-04-09T16:00:58.686Z</time></trkpt><trkpt lat="40.8854983" lon="14.2643967"><ele>103.0</ele><time>2026-04-09T16:00:59.686Z</time></trkpt><trkpt lat="40.8854383" lon="14.2644967"><ele>103.00000000000001</ele><time>2026-04-09T16:01:00.685Z</time></trkpt><trkpt lat="40.8853833" lon="14.2645917"><ele>103.0</ele><time>2026-04-09T16:01:01.685Z</time></trkpt><trkpt lat="40.8853267" lon="14.2646867"><ele>103.0</ele><time>2026-04-09T16:01:02.686Z</time></trkpt><trkpt lat="40.8852733" lon="14.26478"><ele>103.0</ele><time>2026-04-09T16:01:03.685Z</time></trkpt><trkpt lat="40.8852167" lon="14.264865"><ele>103.00000000000001</ele><time>2026-04-09T16:01:04.685Z</time></trkpt><trkpt lat="40.8851667" lon="14.26495"><ele>103.0</ele><time>2026-04-09T16:01:05.686Z</time></trkpt><trkpt lat="40.8851117" lon="14.2650367"><ele>102.83333333333334</ele><time>2026-04-09T16:01:06.686Z</time></trkpt><trkpt lat="40.885055" lon="14.2651183"><ele>102.66666666666667</ele><time>2026-04-09T16:01:07.685Z</time></trkpt><trkpt lat="40.8849967" lon="14.2652"><ele>102.5</ele><time>2026-04-09T16:01:08.685Z</time></trkpt><trkpt lat="40.8849317" lon="14.265285"><ele>102.33333333333334</ele><time>2026-04-09T16:01:09.685Z</time></trkpt><trkpt lat="40.8848833" lon="14.2653617"><ele>102.16666666666667</ele><time>2026-04-09T16:01:10.685Z</time></trkpt><trkpt lat="40.8848333" lon="14.26544"><ele>102.0</ele><time>2026-04-09T16:01:11.685Z</time></trkpt><trkpt lat="40.8847717" lon="14.26552"><ele>102.0</ele><time>2026-04-09T16:01:12.685Z</time></trkpt><trkpt lat="40.8847167" lon="14.2655917"><ele>102.0</ele><time>2026-04-09T16:01:13.686Z</time></trkpt><trkpt lat="40.884665" lon="14.26566"><ele>102.0</ele><time>2026-04-09T16:01:14.688Z</time></trkpt><trkpt lat="40.8846133" lon="14.2657267"><ele>102.0</ele><time>2026-04-09T16:01:15.686Z</time></trkpt><trkpt lat="40.8845617" lon="14.26579"><ele>102.0</ele><time>2026-04-09T16:01:16.687Z</time></trkpt><trkpt lat="40.8845133" lon="14.265845"><ele>102.0</ele><time>2026-04-09T16:01:17.685Z</time></trkpt><trkpt lat="40.8844133" lon="14.265945"><ele>101.83333333333333</ele><time>2026-04-09T16:01:19.685Z</time></trkpt><trkpt lat="40.8843633" lon="14.2660033"><ele>101.66666666666666</ele><time>2026-04-09T16:01:20.685Z</time></trkpt><trkpt lat="40.8843117" lon="14.266055"><ele>101.5</ele><time>2026-04-09T16:01:21.686Z</time></trkpt><trkpt lat="40.8842667" lon="14.26612"><ele>101.33333333333333</ele><time>2026-04-09T16:01:22.686Z</time></trkpt><trkpt lat="40.8842217" lon="14.2661867"><ele>101.16666666666666</ele><time>2026-04-09T16:01:23.687Z</time></trkpt><trkpt lat="40.8841333" lon="14.2663017"><ele>101.0</ele><time>2026-04-09T16:01:25.685Z</time></trkpt><trkpt lat="40.884085" lon="14.26636"><ele>101.0</ele><time>2026-04-09T16:01:26.685Z</time></trkpt><trkpt lat="40.8840367" lon="14.26642"><ele>101.0</ele><time>2026-04-09T16:01:27.685Z</time></trkpt><trkpt lat="40.8839883" lon="14.2664867"><ele>101.0</ele><time>2026-04-09T16:01:28.686Z</time></trkpt><trkpt lat="40.8839383" lon="14.2665533"><ele>101.0</ele><time>2026-04-09T16:01:29.685Z</time></trkpt><trkpt lat="40.8838883" lon="14.2666217"><ele>101.0</ele><time>2026-04-09T16:01:30.685Z</time></trkpt><trkpt lat="40.8838383" lon="14.2666983"><ele>101.0</ele><time>2026-04-09T16:01:31.685Z</time></trkpt><trkpt lat="40.8837867" lon="14.2667683"><ele>101.0</ele><time>2026-04-09T16:01:32.686Z</time></trkpt><trkpt lat="40.8837383" lon="14.266835"><ele>100.85714285714286</ele><time>2026-04-09T16:01:33.686Z</time></trkpt><trkpt lat="40.8836917" lon="14.2669067"><ele>100.71428571428571</ele><time>2026-04-09T16:01:34.685Z</time></trkpt><trkpt lat="40.88365" lon="14.26698"><ele>100.57142857142858</ele><time>2026-04-09T16:01:35.686Z</time></trkpt><trkpt lat="40.8836017" lon="14.2670533"><ele>100.42857142857143</ele><time>2026-04-09T16:01:36.686Z</time></trkpt><trkpt lat="40.88355" lon="14.267125"><ele>100.28571428571429</ele><time>2026-04-09T16:01:37.686Z</time></trkpt><trkpt lat="40.8834967" lon="14.2671933"><ele>100.14285714285715</ele><time>2026-04-09T16:01:38.685Z</time></trkpt><trkpt lat="40.8834467" lon="14.2672617"><ele>100.0</ele><time>2026-04-09T16:01:39.685Z</time></trkpt><trkpt lat="40.8834017" lon="14.2673417"><ele>99.50000000000001</ele><time>2026-04-09T16:01:40.685Z</time></trkpt><trkpt lat="40.883355" lon="14.2674283"><ele>99.0</ele><time>2026-04-09T16:01:41.686Z</time></trkpt><trkpt lat="40.88331" lon="14.267515"><ele>98.5</ele><time>2026-04-09T16:01:42.686Z</time></trkpt><trkpt lat="40.8832683" lon="14.2675967"><ele>98.0</ele><time>2026-04-09T16:01:43.685Z</time></trkpt><trkpt lat="40.8832283" lon="14.2676883"><ele>97.50000000000001</ele><time>2026-04-09T16:01:44.685Z</time></trkpt><trkpt lat="40.8831867" lon="14.267785"><ele>97.0</ele><time>2026-04-09T16:01:45.686Z</time></trkpt><trkpt lat="40.8831483" lon="14.26788"><ele>97.00000000000001</ele><time>2026-04-09T16:01:46.686Z</time></trkpt><trkpt lat="40.8831133" lon="14.2679733"><ele>97.0</ele><time>2026-04-09T16:01:47.689Z</time></trkpt><trkpt lat="40.8830767" lon="14.2680667"><ele>97.0</ele><time>2026-04-09T16:01:48.686Z</time></trkpt><trkpt lat="40.883035" lon="14.2681667"><ele>97.0</ele><time>2026-04-09T16:01:49.687Z</time></trkpt><trkpt lat="40.883" lon="14.268265"><ele>97.00000000000001</ele><time>2026-04-09T16:01:50.686Z</time></trkpt><trkpt lat="40.8829667" lon="14.2683683"><ele>97.0</ele><time>2026-04-09T16:01:51.687Z</time></trkpt><trkpt lat="40.88294" lon="14.26847"><ele>96.83333333333334</ele><time>2026-04-09T16:01:52.686Z</time></trkpt><trkpt lat="40.8829133" lon="14.2685683"><ele>96.66666666666667</ele><time>2026-04-09T16:01:53.686Z</time></trkpt><trkpt lat="40.88288" lon="14.2686617"><ele>96.5</ele><time>2026-04-09T16:01:54.686Z</time></trkpt><trkpt lat="40.8828417" lon="14.2687517"><ele>96.33333333333334</ele><time>2026-04-09T16:01:55.685Z</time></trkpt><trkpt lat="40.8828" lon="14.2688383"><ele>96.16666666666667</ele><time>2026-04-09T16:01:56.69Z</time></trkpt><trkpt lat="40.88276" lon="14.2689183"><ele>96.0</ele><time>2026-04-09T16:01:57.686Z</time></trkpt><trkpt lat="40.8827183" lon="14.2690017"><ele>96.0</ele><time>2026-04-09T16:01:58.687Z</time></trkpt><trkpt lat="40.8826733" lon="14.269085"><ele>96.0</ele><time>2026-04-09T16:01:59.686Z</time></trkpt><trkpt lat="40.88263" lon="14.2691717"><ele>96.0</ele><time>2026-04-09T16:02:00.685Z</time></trkpt><trkpt lat="40.8825833" lon="14.269255"><ele>96.0</ele><time>2026-04-09T16:02:01.685Z</time></trkpt><trkpt lat="40.88254" lon="14.26934"><ele>96.0</ele><time>2026-04-09T16:02:02.687Z</time></trkpt><trkpt lat="40.8825" lon="14.269435"><ele>96.0</ele><time>2026-04-09T16:02:03.685Z</time></trkpt><trkpt lat="40.88246" lon="14.2695267"><ele>96.0</ele><time>2026-04-09T16:02:04.685Z</time></trkpt><trkpt lat="40.8824183" lon="14.269615"><ele>96.0</ele><time>2026-04-09T16:02:05.685Z</time></trkpt><trkpt lat="40.882375" lon="14.2697083"><ele>96.0</ele><time>2026-04-09T16:02:06.686Z</time></trkpt><trkpt lat="40.882335" lon="14.269805"><ele>96.0</ele><time>2026-04-09T16:02:07.686Z</time></trkpt><trkpt lat="40.8822933" lon="14.2699033"><ele>96.0</ele><time>2026-04-09T16:02:08.686Z</time></trkpt><trkpt lat="40.88227" lon="14.27001"><ele>96.0</ele><time>2026-04-09T16:02:09.685Z</time></trkpt><trkpt lat="40.8822483" lon="14.27011"><ele>95.83333333333333</ele><time>2026-04-09T16:02:10.685Z</time></trkpt><trkpt lat="40.8822317" lon="14.27021"><ele>95.66666666666667</ele><time>2026-04-09T16:02:11.685Z</time></trkpt><trkpt lat="40.8822167" lon="14.2703067"><ele>95.5</ele><time>2026-04-09T16:02:12.685Z</time></trkpt><trkpt lat="40.8822033" lon="14.2704017"><ele>95.33333333333334</ele><time>2026-04-09T16:02:13.686Z</time></trkpt><trkpt lat="40.882195" lon="14.2704967"><ele>95.16666666666667</ele><time>2026-04-09T16:02:14.686Z</time></trkpt><trkpt lat="40.8821883" lon="14.27058"><ele>95.0</ele><time>2026-04-09T16:02:15.686Z</time></trkpt><trkpt lat="40.8821833" lon="14.2707217"><ele>94.83333333333334</ele><time>2026-04-09T16:02:17.686Z</time></trkpt><trkpt lat="40.8821783" lon="14.2708467"><ele>94.66666666666667</ele><time>2026-04-09T16:02:19.688Z</time></trkpt><trkpt lat="40.882195" lon="14.2709633"><ele>94.5</ele><time>2026-04-09T16:02:21.686Z</time></trkpt><trkpt lat="40.88222" lon="14.2710783"><ele>94.33333333333333</ele><time>2026-04-09T16:02:23.686Z</time></trkpt><trkpt lat="40.882215" lon="14.2711883"><ele>94.16666666666666</ele><time>2026-04-09T16:02:25.686Z</time></trkpt><trkpt lat="40.8821833" lon="14.2712833"><ele>94.0</ele><time>2026-04-09T16:02:27.687Z</time></trkpt><trkpt lat="40.88215" lon="14.2713667"><ele>93.66666666666666</ele><time>2026-04-09T16:02:29.687Z</time></trkpt><trkpt lat="40.882195" lon="14.2714433"><ele>93.33333333333333</ele><time>2026-04-09T16:02:33.685Z</time></trkpt><trkpt lat="40.8822267" lon="14.271535"><ele>93.0</ele><time>2026-04-09T16:02:37.685Z</time></trkpt><trkpt lat="40.882165" lon="14.271595"><ele>92.66666666666667</ele><time>2026-04-09T16:02:39.686Z</time></trkpt><trkpt lat="40.8821017" lon="14.271645"><ele>92.33333333333334</ele><time>2026-04-09T16:02:41.685Z</time></trkpt><trkpt lat="40.8820233" lon="14.2717"><ele>92.0</ele><time>2026-04-09T16:02:45.686Z</time></trkpt><trkpt lat="40.8819883" lon="14.2717817"><ele>92.0</ele><time>2026-04-09T16:02:47.685Z</time></trkpt><trkpt lat="40.881985" lon="14.2718917"><ele>92.0</ele><time>2026-04-09T16:02:49.686Z</time></trkpt><trkpt lat="40.8820133" lon="14.2720133"><ele>92.0</ele><time>2026-04-09T16:02:51.685Z</time></trkpt><trkpt lat="40.8820883" lon="14.2721033"><ele>92.0</ele><time>2026-04-09T16:02:53.685Z</time></trkpt><trkpt lat="40.8821817" lon="14.2721867"><ele>92.0</ele><time>2026-04-09T16:02:55.685Z</time></trkpt><trkpt lat="40.8822817" lon="14.272245"><ele>92.0</ele><time>2026-04-09T16:02:57.686Z</time></trkpt><trkpt lat="40.8823633" lon="14.27226"><ele>92.0</ele><time>2026-04-09T16:02:59.686Z</time></trkpt><trkpt lat="40.8824317" lon="14.2723267"><ele>92.0</ele><time>2026-04-09T16:03:01.686Z</time></trkpt><trkpt lat="40.8825233" lon="14.272415"><ele>92.0</ele><time>2026-04-09T16:03:03.686Z</time></trkpt><trkpt lat="40.882625" lon="14.2725017"><ele>92.0</ele><time>2026-04-09T16:03:05.687Z</time></trkpt><trkpt lat="40.8826783" lon="14.27255"><ele>92.57142857142857</ele><time>2026-04-09T16:03:06.686Z</time></trkpt><trkpt lat="40.8827267" lon="14.272605"><ele>93.14285714285714</ele><time>2026-04-09T16:03:07.687Z</time></trkpt><trkpt lat="40.8827767" lon="14.2726633"><ele>93.71428571428571</ele><time>2026-04-09T16:03:08.685Z</time></trkpt><trkpt lat="40.8828283" lon="14.2727233"><ele>94.28571428571428</ele><time>2026-04-09T16:03:09.689Z</time></trkpt><trkpt lat="40.88288" lon="14.2727817"><ele>94.85714285714286</ele><time>2026-04-09T16:03:10.686Z</time></trkpt><trkpt lat="40.8829383" lon="14.2728367"><ele>95.42857142857142</ele><time>2026-04-09T16:03:11.686Z</time></trkpt><trkpt lat="40.8829933" lon="14.2728983"><ele>96.0</ele><time>2026-04-09T16:03:12.686Z</time></trkpt><trkpt lat="40.8830517" lon="14.2729633"><ele>96.0</ele><time>2026-04-09T16:03:13.686Z</time></trkpt><trkpt lat="40.8831083" lon="14.2730267"><ele>96.0</ele><time>2026-04-09T16:03:14.686Z</time></trkpt><trkpt lat="40.88317" lon="14.2730883"><ele>96.0</ele><time>2026-04-09T16:03:15.686Z</time></trkpt><trkpt lat="40.8832317" lon="14.2731483"><ele>96.0</ele><time>2026-04-09T16:03:16.686Z</time></trkpt><trkpt lat="40.8832917" lon="14.27321"><ele>96.0</ele><time>2026-04-09T16:03:17.685Z</time></trkpt><trkpt lat="40.8833533" lon="14.273275"><ele>96.0</ele><time>2026-04-09T16:03:18.687Z</time></trkpt><trkpt lat="40.883415" lon="14.27334"><ele>95.66666666666667</ele><time>2026-04-09T16:03:19.687Z</time></trkpt><trkpt lat="40.8834783" lon="14.2734067"><ele>95.33333333333333</ele><time>2026-04-09T16:03:20.686Z</time></trkpt><trkpt lat="40.8835383" lon="14.2734733"><ele>95.0</ele><time>2026-04-09T16:03:21.686Z</time></trkpt><trkpt lat="40.883595" lon="14.2735367"><ele>94.66666666666666</ele><time>2026-04-09T16:03:22.686Z</time></trkpt><trkpt lat="40.8836533" lon="14.2736067"><ele>94.33333333333333</ele><time>2026-04-09T16:03:23.686Z</time></trkpt><trkpt lat="40.8837167" lon="14.2736733"><ele>94.0</ele><time>2026-04-09T16:03:24.685Z</time></trkpt><trkpt lat="40.8837817" lon="14.2737383"><ele>94.0</ele><time>2026-04-09T16:03:25.686Z</time></trkpt><trkpt lat="40.8838467" lon="14.273805"><ele>94.0</ele><time>2026-04-09T16:03:26.686Z</time></trkpt><trkpt lat="40.8839117" lon="14.2738717"><ele>94.0</ele><time>2026-04-09T16:03:27.686Z</time></trkpt><trkpt lat="40.8839783" lon="14.27394"><ele>94.0</ele><time>2026-04-09T16:03:28.686Z</time></trkpt><trkpt lat="40.8840417" lon="14.2740067"><ele>94.0</ele><time>2026-04-09T16:03:29.687Z</time></trkpt><trkpt lat="40.8841033" lon="14.27407"><ele>94.0</ele><time>2026-04-09T16:03:30.686Z</time></trkpt><trkpt lat="40.8841683" lon="14.27413"><ele>93.83333333333333</ele><time>2026-04-09T16:03:31.686Z</time></trkpt><trkpt lat="40.8842333" lon="14.2741917"><ele>93.66666666666666</ele><time>2026-04-09T16:03:32.687Z</time></trkpt><trkpt lat="40.8842967" lon="14.2742533"><ele>93.5</ele><time>2026-04-09T16:03:33.685Z</time></trkpt><trkpt lat="40.8843617" lon="14.2743133"><ele>93.33333333333333</ele><time>2026-04-09T16:03:34.686Z</time></trkpt><trkpt lat="40.8844233" lon="14.2743767"><ele>93.16666666666667</ele><time>2026-04-09T16:03:35.685Z</time></trkpt><trkpt lat="40.8844867" lon="14.27444"><ele>93.0</ele><time>2026-04-09T16:03:36.686Z</time></trkpt><trkpt lat="40.8845517" lon="14.2744983"><ele>92.66666666666667</ele><time>2026-04-09T16:03:37.685Z</time></trkpt><trkpt lat="40.8846167" lon="14.2745583"><ele>92.33333333333333</ele><time>2026-04-09T16:03:38.688Z</time></trkpt><trkpt lat="40.8846817" lon="14.2746183"><ele>92.0</ele><time>2026-04-09T16:03:39.687Z</time></trkpt><trkpt lat="40.884745" lon="14.27468"><ele>91.66666666666666</ele><time>2026-04-09T16:03:40.686Z</time></trkpt><trkpt lat="40.884805" lon="14.2747433"><ele>91.33333333333333</ele><time>2026-04-09T16:03:41.686Z</time></trkpt><trkpt lat="40.8848683" lon="14.2748017"><ele>91.0</ele><time>2026-04-09T16:03:42.686Z</time></trkpt><trkpt lat="40.8849317" lon="14.2748617"><ele>91.14285714285714</ele><time>2026-04-09T16:03:43.686Z</time></trkpt><trkpt lat="40.88499" lon="14.27492"><ele>91.28571428571428</ele><time>2026-04-09T16:03:44.685Z</time></trkpt><trkpt lat="40.8850467" lon="14.2749783"><ele>91.42857142857143</ele><time>2026-04-09T16:03:45.686Z</time></trkpt><trkpt lat="40.885105" lon="14.275035"><ele>91.57142857142857</ele><time>2026-04-09T16:03:46.686Z</time></trkpt><trkpt lat="40.885165" lon="14.2750917"><ele>91.71428571428571</ele><time>2026-04-09T16:03:47.687Z</time></trkpt><trkpt lat="40.8852217" lon="14.2751517"><ele>91.85714285714286</ele><time>2026-04-09T16:03:48.686Z</time></trkpt><trkpt lat="40.8852783" lon="14.275205"><ele>92.0</ele><time>2026-04-09T16:03:49.686Z</time></trkpt><trkpt lat="40.8853783" lon="14.2752767"><ele>92.0</ele><time>2026-04-09T16:03:51.686Z</time></trkpt><trkpt lat="40.8854667" lon="14.2753167"><ele>92.0</ele><time>2026-04-09T16:03:53.689Z</time></trkpt><trkpt lat="40.8855283" lon="14.2753617"><ele>92.0</ele><time>2026-04-09T16:03:55.686Z</time></trkpt><trkpt lat="40.8855617" lon="14.275455"><ele>92.0</ele><time>2026-04-09T16:03:57.685Z</time></trkpt><trkpt lat="40.885625" lon="14.2755433"><ele>92.0</ele><time>2026-04-09T16:03:59.688Z</time></trkpt><trkpt lat="40.885715" lon="14.2756033"><ele>92.0</ele><time>2026-04-09T16:04:01.686Z</time></trkpt><trkpt lat="40.8858117" lon="14.2756267"><ele>91.6</ele><time>2026-04-09T16:04:03.687Z</time></trkpt><trkpt lat="40.8859133" lon="14.275645"><ele>91.19999999999999</ele><time>2026-04-09T16:04:05.686Z</time></trkpt><trkpt lat="40.8860183" lon="14.2756817"><ele>90.8</ele><time>2026-04-09T16:04:07.685Z</time></trkpt><trkpt lat="40.88612" lon="14.27573"><ele>90.4</ele><time>2026-04-09T16:04:09.687Z</time></trkpt><trkpt lat="40.8862083" lon="14.2758"><ele>90.0</ele><time>2026-04-09T16:04:11.686Z</time></trkpt><trkpt lat="40.8863" lon="14.2758767"><ele>90.0</ele><time>2026-04-09T16:04:13.686Z</time></trkpt><trkpt lat="40.8863933" lon="14.27598"><ele>90.0</ele><time>2026-04-09T16:04:15.685Z</time></trkpt><trkpt lat="40.8864967" lon="14.27607"><ele>90.0</ele><time>2026-04-09T16:04:17.685Z</time></trkpt><trkpt lat="40.8866" lon="14.27614"><ele>90.0</ele><time>2026-04-09T16:04:19.685Z</time></trkpt><trkpt lat="40.8866933" lon="14.2762167"><ele>90.0</ele><time>2026-04-09T16:04:21.684Z</time></trkpt><trkpt lat="40.8867867" lon="14.2762767"><ele>90.0</ele><time>2026-04-09T16:04:23.685Z</time></trkpt><trkpt lat="40.88688" lon="14.2763417"><ele>90.0</ele><time>2026-04-09T16:04:25.685Z</time></trkpt><trkpt lat="40.8869583" lon="14.276415"><ele>90.0</ele><time>2026-04-09T16:04:27.684Z</time></trkpt><trkpt lat="40.8870283" lon="14.2764983"><ele>90.0</ele><time>2026-04-09T16:04:29.685Z</time></trkpt><trkpt lat="40.88711" lon="14.276575"><ele>90.0</ele><time>2026-04-09T16:04:31.685Z</time></trkpt><trkpt lat="40.8871967" lon="14.2766583"><ele>90.0</ele><time>2026-04-09T16:04:33.686Z</time></trkpt><trkpt lat="40.8872933" lon="14.2767267"><ele>90.0</ele><time>2026-04-09T16:04:35.685Z</time></trkpt><trkpt lat="40.8873917" lon="14.2768017"><ele>90.0</ele><time>2026-04-09T16:04:37.685Z</time></trkpt><trkpt lat="40.8874967" lon="14.2768733"><ele>90.0</ele><time>2026-04-09T16:04:39.687Z</time></trkpt><trkpt lat="40.8876033" lon="14.276945"><ele>90.0</ele><time>2026-04-09T16:04:41.686Z</time></trkpt><trkpt lat="40.8877167" lon="14.27701"><ele>90.0</ele><time>2026-04-09T16:04:43.686Z</time></trkpt><trkpt lat="40.887825" lon="14.2770817"><ele>90.0</ele><time>2026-04-09T16:04:45.688Z</time></trkpt><trkpt lat="40.887935" lon="14.277155"><ele>90.0</ele><time>2026-04-09T16:04:47.686Z</time></trkpt><trkpt lat="40.8880417" lon="14.27721"><ele>90.0</ele><time>2026-04-09T16:04:49.686Z</time></trkpt><trkpt lat="40.88814" lon="14.277275"><ele>90.0</ele><time>2026-04-09T16:04:51.684Z</time></trkpt><trkpt lat="40.8882317" lon="14.2773633"><ele>90.0</ele><time>2026-04-09T16:04:53.685Z</time></trkpt><trkpt lat="40.8883233" lon="14.2774483"><ele>90.0</ele><time>2026-04-09T16:04:55.685Z</time></trkpt><trkpt lat="40.88842" lon="14.2775283"><ele>90.0</ele><time>2026-04-09T16:04:57.685Z</time></trkpt><trkpt lat="40.8885067" lon="14.2776067"><ele>90.0</ele><time>2026-04-09T16:04:59.685Z</time></trkpt><trkpt lat="40.8885933" lon="14.2776783"><ele>90.0</ele><time>2026-04-09T16:05:01.685Z</time></trkpt><trkpt lat="40.8886817" lon="14.277745"><ele>90.0</ele><time>2026-04-09T16:05:03.686Z</time></trkpt><trkpt lat="40.8887783" lon="14.2778067"><ele>90.0</ele><time>2026-04-09T16:05:05.685Z</time></trkpt><trkpt lat="40.888885" lon="14.2778633"><ele>90.0</ele><time>2026-04-09T16:05:07.685Z</time></trkpt><trkpt lat="40.8889883" lon="14.2779233"><ele>90.0</ele><time>2026-04-09T16:05:09.684Z</time></trkpt><trkpt lat="40.88905" lon="14.27794"><ele>90.0</ele><time>2026-04-09T16:05:10.685Z</time></trkpt><trkpt lat="40.8891133" lon="14.27796"><ele>90.0</ele><time>2026-04-09T16:05:11.686Z</time></trkpt><trkpt lat="40.889235" lon="14.2779967"><ele>90.0</ele><time>2026-04-09T16:05:13.685Z</time></trkpt><trkpt lat="40.8892983" lon="14.278015"><ele>90.0</ele><time>2026-04-09T16:05:14.686Z</time></trkpt><trkpt lat="40.889365" lon="14.2780217"><ele>90.0</ele><time>2026-04-09T16:05:15.684Z</time></trkpt><trkpt lat="40.8894317" lon="14.2780333"><ele>90.33333333333333</ele><time>2026-04-09T16:05:16.684Z</time></trkpt><trkpt lat="40.8894967" lon="14.2780483"><ele>90.66666666666667</ele><time>2026-04-09T16:05:17.684Z</time></trkpt><trkpt lat="40.8895617" lon="14.27806"><ele>91.0</ele><time>2026-04-09T16:05:18.686Z</time></trkpt><trkpt lat="40.889625" lon="14.2780817"><ele>91.33333333333334</ele><time>2026-04-09T16:05:19.684Z</time></trkpt><trkpt lat="40.8896883" lon="14.2781033"><ele>91.66666666666667</ele><time>2026-04-09T16:05:20.684Z</time></trkpt><trkpt lat="40.88975" lon="14.2781217"><ele>92.0</ele><time>2026-04-09T16:05:21.684Z</time></trkpt><trkpt lat="40.88987" lon="14.278165"><ele>92.19999999999999</ele><time>2026-04-09T16:05:23.684Z</time></trkpt><trkpt lat="40.8899383" lon="14.27819"><ele>92.4</ele><time>2026-04-09T16:05:24.685Z</time></trkpt><trkpt lat="40.8900067" lon="14.2782167"><ele>92.6</ele><time>2026-04-09T16:05:25.684Z</time></trkpt><trkpt lat="40.8900667" lon="14.2782483"><ele>92.80000000000001</ele><time>2026-04-09T16:05:26.684Z</time></trkpt><trkpt lat="40.8901817" lon="14.2783183"><ele>93.0</ele><time>2026-04-09T16:05:28.684Z</time></trkpt><trkpt lat="40.890295" lon="14.2783833"><ele>93.0</ele><time>2026-04-09T16:05:30.684Z</time></trkpt><trkpt lat="40.8904117" lon="14.2784333"><ele>93.0</ele><time>2026-04-09T16:05:32.684Z</time></trkpt><trkpt lat="40.8905217" lon="14.2784933"><ele>93.0</ele><time>2026-04-09T16:05:34.686Z</time></trkpt><trkpt lat="40.8906317" lon="14.278535"><ele>93.0</ele><time>2026-04-09T16:05:36.684Z</time></trkpt><trkpt lat="40.8907383" lon="14.2785917"><ele>93.0</ele><time>2026-04-09T16:05:38.686Z</time></trkpt><trkpt lat="40.8908483" lon="14.2786417"><ele>93.0</ele><time>2026-04-09T16:05:40.684Z</time></trkpt><trkpt lat="40.8909533" lon="14.2786983"><ele>93.0</ele><time>2026-04-09T16:05:42.684Z</time></trkpt><trkpt lat="40.8910483" lon="14.2787567"><ele>93.0</ele><time>2026-04-09T16:05:44.685Z</time></trkpt><trkpt lat="40.891145" lon="14.2788117"><ele>93.0</ele><time>2026-04-09T16:05:46.686Z</time></trkpt><trkpt lat="40.89124" lon="14.278865"><ele>93.0</ele><time>2026-04-09T16:05:48.685Z</time></trkpt><trkpt lat="40.89134" lon="14.27892"><ele>93.0</ele><time>2026-04-09T16:05:50.685Z</time></trkpt><trkpt lat="40.89145" lon="14.2789717"><ele>93.0</ele><time>2026-04-09T16:05:52.685Z</time></trkpt><trkpt lat="40.8915117" lon="14.2789967"><ele>93.0</ele><time>2026-04-09T16:05:53.686Z</time></trkpt><trkpt lat="40.8916233" lon="14.2790633"><ele>93.0</ele><time>2026-04-09T16:05:55.685Z</time></trkpt><trkpt lat="40.8917167" lon="14.2791333"><ele>92.4</ele><time>2026-04-09T16:05:57.685Z</time></trkpt><trkpt lat="40.8918017" lon="14.27919"><ele>91.80000000000001</ele><time>2026-04-09T16:05:59.685Z</time></trkpt><trkpt lat="40.89183" lon="14.2792867"><ele>91.2</ele><time>2026-04-09T16:06:02.686Z</time></trkpt><trkpt lat="40.891765" lon="14.279365"><ele>90.6</ele><time>2026-04-09T16:06:04.685Z</time></trkpt><trkpt lat="40.89168" lon="14.2794583"><ele>90.0</ele><time>2026-04-09T16:06:06.685Z</time></trkpt><trkpt lat="40.8915933" lon="14.2795483"><ele>90.0</ele><time>2026-04-09T16:06:08.685Z</time></trkpt><trkpt lat="40.891505" lon="14.2796383"><ele>90.0</ele><time>2026-04-09T16:06:10.685Z</time></trkpt><trkpt lat="40.891415" lon="14.2797233"><ele>90.0</ele><time>2026-04-09T16:06:12.685Z</time></trkpt><trkpt lat="40.891325" lon="14.2798033"><ele>90.0</ele><time>2026-04-09T16:06:14.685Z</time></trkpt><trkpt lat="40.8912383" lon="14.279875"><ele>90.0</ele><time>2026-04-09T16:06:16.685Z</time></trkpt><trkpt lat="40.8911583" lon="14.2799483"><ele>89.25</ele><time>2026-04-09T16:06:18.686Z</time></trkpt><trkpt lat="40.891075" lon="14.2800283"><ele>88.5</ele><time>2026-04-09T16:06:20.685Z</time></trkpt><trkpt lat="40.8909767" lon="14.2801067"><ele>87.75</ele><time>2026-04-09T16:06:22.685Z</time></trkpt><trkpt lat="40.890885" lon="14.2802083"><ele>87.0</ele><time>2026-04-09T16:06:24.686Z</time></trkpt><trkpt lat="40.8907933" lon="14.2803033"><ele>86.75</ele><time>2026-04-09T16:06:26.686Z</time></trkpt><trkpt lat="40.8907017" lon="14.2804033"><ele>86.5</ele><time>2026-04-09T16:06:28.686Z</time></trkpt><trkpt lat="40.890605" lon="14.2805033"><ele>86.25</ele><time>2026-04-09T16:06:30.685Z</time></trkpt><trkpt lat="40.8905083" lon="14.2805983"><ele>86.0</ele><time>2026-04-09T16:06:32.685Z</time></trkpt><trkpt lat="40.8904117" lon="14.2806833"><ele>85.8</ele><time>2026-04-09T16:06:34.686Z</time></trkpt><trkpt lat="40.8903283" lon="14.28077"><ele>85.6</ele><time>2026-04-09T16:06:36.685Z</time></trkpt><trkpt lat="40.8902533" lon="14.28085"><ele>85.4</ele><time>2026-04-09T16:06:38.686Z</time></trkpt><trkpt lat="40.8901833" lon="14.2809283"><ele>85.2</ele><time>2026-04-09T16:06:40.685Z</time></trkpt><trkpt lat="40.890165" lon="14.2810367"><ele>85.0</ele><time>2026-04-09T16:06:42.686Z</time></trkpt><trkpt lat="40.890205" lon="14.2811483"><ele>85.0</ele><time>2026-04-09T16:06:44.686Z</time></trkpt><trkpt lat="40.8902783" lon="14.2812517"><ele>85.0</ele><time>2026-04-09T16:06:46.686Z</time></trkpt><trkpt lat="40.8903583" lon="14.281365"><ele>85.0</ele><time>2026-04-09T16:06:48.686Z</time></trkpt><trkpt lat="40.890445" lon="14.28148"><ele>85.0</ele><time>2026-04-09T16:06:50.686Z</time></trkpt><trkpt lat="40.890485" lon="14.281545"><ele>85.0</ele><time>2026-04-09T16:06:51.685Z</time></trkpt><trkpt lat="40.890565" lon="14.2816667"><ele>85.2</ele><time>2026-04-09T16:06:53.69Z</time></trkpt><trkpt lat="40.8906367" lon="14.281795"><ele>85.4</ele><time>2026-04-09T16:06:55.69Z</time></trkpt><trkpt lat="40.8907033" lon="14.2819183"><ele>85.6</ele><time>2026-04-09T16:06:57.685Z</time></trkpt><trkpt lat="40.8907683" lon="14.2820283"><ele>85.8</ele><time>2026-04-09T16:06:59.685Z</time></trkpt><trkpt lat="40.8908217" lon="14.282115"><ele>86.0</ele><time>2026-04-09T16:07:01.686Z</time></trkpt><trkpt lat="40.890875" lon="14.2822"><ele>86.19999999999999</ele><time>2026-04-09T16:07:03.687Z</time></trkpt><trkpt lat="40.8909367" lon="14.2823167"><ele>86.39999999999999</ele><time>2026-04-09T16:07:05.687Z</time></trkpt><trkpt lat="40.8910167" lon="14.2824117"><ele>86.6</ele><time>2026-04-09T16:07:07.686Z</time></trkpt><trkpt lat="40.8910867" lon="14.28252"><ele>86.8</ele><time>2026-04-09T16:07:09.691Z</time></trkpt><trkpt lat="40.8911683" lon="14.282595"><ele>87.0</ele><time>2026-04-09T16:07:11.685Z</time></trkpt><trkpt lat="40.8912283" lon="14.2826383"><ele>87.0</ele><time>2026-04-09T16:07:13.685Z</time></trkpt><trkpt lat="40.8912" lon="14.2827533"><ele>87.0</ele><time>2026-04-09T16:07:16.686Z</time></trkpt><trkpt lat="40.8911533" lon="14.2828317"><ele>87.0</ele><time>2026-04-09T16:07:19.684Z</time></trkpt><trkpt lat="40.8911167" lon="14.28292"><ele>87.0</ele><time>2026-04-09T16:07:24.684Z</time></trkpt><trkpt lat="40.8911517" lon="14.28302"><ele>87.0</ele><time>2026-04-09T16:07:28.685Z</time></trkpt><trkpt lat="40.8912317" lon="14.28309"><ele>87.0</ele><time>2026-04-09T16:07:30.684Z</time></trkpt><trkpt lat="40.891345" lon="14.2831433"><ele>86.5</ele><time>2026-04-09T16:07:32.685Z</time></trkpt><trkpt lat="40.891405" lon="14.2831767"><ele>86.0</ele><time>2026-04-09T16:07:33.684Z</time></trkpt><trkpt lat="40.89147" lon="14.28322"><ele>85.5</ele><time>2026-04-09T16:07:34.684Z</time></trkpt><trkpt lat="40.8915367" lon="14.2832617"><ele>85.0</ele><time>2026-04-09T16:07:35.684Z</time></trkpt><trkpt lat="40.8916083" lon="14.2833083"><ele>84.5</ele><time>2026-04-09T16:07:36.687Z</time></trkpt><trkpt lat="40.8916833" lon="14.2833567"><ele>84.0</ele><time>2026-04-09T16:07:37.685Z</time></trkpt><trkpt lat="40.8917533" lon="14.283405"><ele>84.14285714285714</ele><time>2026-04-09T16:07:38.684Z</time></trkpt><trkpt lat="40.8918233" lon="14.283455"><ele>84.28571428571428</ele><time>2026-04-09T16:07:39.684Z</time></trkpt><trkpt lat="40.891895" lon="14.2835067"><ele>84.42857142857143</ele><time>2026-04-09T16:07:40.684Z</time></trkpt><trkpt lat="40.89196" lon="14.28356"><ele>84.57142857142857</ele><time>2026-04-09T16:07:41.685Z</time></trkpt><trkpt lat="40.8920167" lon="14.2836167"><ele>84.71428571428571</ele><time>2026-04-09T16:07:42.684Z</time></trkpt><trkpt lat="40.89207" lon="14.2836717"><ele>84.85714285714286</ele><time>2026-04-09T16:07:43.684Z</time></trkpt><trkpt lat="40.89212" lon="14.2837233"><ele>85.0</ele><time>2026-04-09T16:07:44.685Z</time></trkpt><trkpt lat="40.89217" lon="14.283775"><ele>85.0</ele><time>2026-04-09T16:07:45.684Z</time></trkpt><trkpt lat="40.892265" lon="14.2838783"><ele>85.0</ele><time>2026-04-09T16:07:47.685Z</time></trkpt><trkpt lat="40.8923133" lon="14.2839333"><ele>85.0</ele><time>2026-04-09T16:07:48.684Z</time></trkpt><trkpt lat="40.8924033" lon="14.2840417"><ele>85.0</ele><time>2026-04-09T16:07:50.684Z</time></trkpt><trkpt lat="40.8924933" lon="14.284145"><ele>85.0</ele><time>2026-04-09T16:07:52.684Z</time></trkpt><trkpt lat="40.8925683" lon="14.284235"><ele>85.16666666666666</ele><time>2026-04-09T16:07:54.685Z</time></trkpt><trkpt lat="40.8926333" lon="14.28432"><ele>85.33333333333333</ele><time>2026-04-09T16:07:56.684Z</time></trkpt><trkpt lat="40.8926833" lon="14.2843933"><ele>85.5</ele><time>2026-04-09T16:07:58.687Z</time></trkpt><trkpt lat="40.8927317" lon="14.2844667"><ele>85.66666666666667</ele><time>2026-04-09T16:08:01.684Z</time></trkpt><trkpt lat="40.8927833" lon="14.2845583"><ele>85.83333333333334</ele><time>2026-04-09T16:08:04.684Z</time></trkpt><trkpt lat="40.89284" lon="14.2846417"><ele>86.0</ele><time>2026-04-09T16:08:07.684Z</time></trkpt><trkpt lat="40.8928917" lon="14.28471"><ele>85.8</ele><time>2026-04-09T16:08:11.684Z</time></trkpt><trkpt lat="40.89296" lon="14.28481"><ele>85.6</ele><time>2026-04-09T16:08:14.685Z</time></trkpt><trkpt lat="40.8930017" lon="14.2849133"><ele>85.4</ele><time>2026-04-09T16:08:16.687Z</time></trkpt><trkpt lat="40.89306" lon="14.2850333"><ele>85.2</ele><time>2026-04-09T16:08:18.687Z</time></trkpt><trkpt lat="40.8931233" lon="14.28518"><ele>85.0</ele><time>2026-04-09T16:08:20.685Z</time></trkpt><trkpt lat="40.893155" lon="14.285275"><ele>85.0</ele><time>2026-04-09T16:08:21.684Z</time></trkpt><trkpt lat="40.8931883" lon="14.28537"><ele>85.0</ele><time>2026-04-09T16:08:22.684Z</time></trkpt><trkpt lat="40.8932217" lon="14.285465"><ele>85.0</ele><time>2026-04-09T16:08:23.685Z</time></trkpt><trkpt lat="40.8932567" lon="14.2855467"><ele>85.0</ele><time>2026-04-09T16:08:24.685Z</time></trkpt><trkpt lat="40.8933233" lon="14.2856683"><ele>85.0</ele><time>2026-04-09T16:08:26.685Z</time></trkpt><trkpt lat="40.8933567" lon="14.2857917"><ele>85.0</ele><time>2026-04-09T16:08:28.684Z</time></trkpt><trkpt lat="40.8933583" lon="14.2859133"><ele>84.5</ele><time>2026-04-09T16:08:30.684Z</time></trkpt><trkpt lat="40.8933883" lon="14.2860217"><ele>84.0</ele><time>2026-04-09T16:08:32.684Z</time></trkpt><trkpt lat="40.8934367" lon="14.2861617"><ele>83.5</ele><time>2026-04-09T16:08:34.684Z</time></trkpt><trkpt lat="40.8934583" lon="14.2862433"><ele>83.0</ele><time>2026-04-09T16:08:35.685Z</time></trkpt><trkpt lat="40.8934817" lon="14.2863267"><ele>82.5</ele><time>2026-04-09T16:08:36.684Z</time></trkpt><trkpt lat="40.893505" lon="14.2864083"><ele>82.0</ele><time>2026-04-09T16:08:37.684Z</time></trkpt><trkpt lat="40.8935283" lon="14.286495"><ele>81.66666666666666</ele><time>2026-04-09T16:08:38.684Z</time></trkpt><trkpt lat="40.89355" lon="14.2865833"><ele>81.33333333333333</ele><time>2026-04-09T16:08:39.684Z</time></trkpt><trkpt lat="40.8935717" lon="14.2866683"><ele>81.0</ele><time>2026-04-09T16:08:40.685Z</time></trkpt><trkpt lat="40.893595" lon="14.28675"><ele>80.66666666666667</ele><time>2026-04-09T16:08:41.684Z</time></trkpt><trkpt lat="40.89362" lon="14.2868267"><ele>80.33333333333334</ele><time>2026-04-09T16:08:42.684Z</time></trkpt><trkpt lat="40.8936717" lon="14.2869667"><ele>80.0</ele><time>2026-04-09T16:08:44.685Z</time></trkpt><trkpt lat="40.8937183" lon="14.28711"><ele>80.0</ele><time>2026-04-09T16:08:46.685Z</time></trkpt><trkpt lat="40.893755" lon="14.28724"><ele>80.0</ele><time>2026-04-09T16:08:48.685Z</time></trkpt><trkpt lat="40.8937933" lon="14.2873617"><ele>80.0</ele><time>2026-04-09T16:08:50.684Z</time></trkpt><trkpt lat="40.8938317" lon="14.2874733"><ele>80.0</ele><time>2026-04-09T16:08:52.684Z</time></trkpt><trkpt lat="40.8938583" lon="14.2875883"><ele>80.0</ele><time>2026-04-09T16:08:54.684Z</time></trkpt><trkpt lat="40.8938917" lon="14.28769"><ele>80.0</ele><time>2026-04-09T16:08:56.684Z</time></trkpt><trkpt lat="40.8939167" lon="14.2877783"><ele>80.0</ele><time>2026-04-09T16:08:59.686Z</time></trkpt><trkpt lat="40.8939567" lon="14.2878433"><ele>80.0</ele><time>2026-04-09T16:09:47.686Z</time></trkpt><trkpt lat="40.8939562" lon="14.2876944"><ele>80.0</ele><time>2026-04-09T16:10:29.897Z</time></trkpt><trkpt lat="40.8938162" lon="14.287788"><ele>80.0</ele><time>2026-04-09T16:10:41.893Z</time></trkpt></trkseg></trk></gpx>